<?xml version='1.0' encoding='UTF-8'?><gpx version="1.1" creator="JPX - https://github.com/jenetics/jpx" xmlns="http://www.topografix.com/GPX/1/1"><trk><trkseg><trkpt lat="44.82022548078972" lon="8.057684278465926"><ele>161.0</ele><time>2026-04-19T06:27:23Z</time></trkpt><trkpt lat="44.82019836171332" lon="8.057583788936018"><ele>161.0</ele><time>2026-04-19T06:36:02Z</time></trkpt><trkpt lat="44.82018497611338" lon="8.057457694893543"><ele>161.0</ele><time>2026-04-19T06:39:00Z</time></trkpt><trkpt lat="44.82017251103225" lon="8.057327134262279"><ele>161.0</ele><time>2026-04-19T06:39:02Z</time></trkpt><trkpt lat="44.820151025167476" lon="8.057161337467894"><ele>161.0</ele><time>2026-04-19T06:39:04Z</time></trkpt><trkpt lat="44.8201389160435" lon="8.057068783897181"><ele>161.0</ele><time>2026-04-19T06:39:05Z</time></trkpt><trkpt lat="44.82012672152673" lon="8.056933681128895"><ele>161.0</ele><time>2026-04-19T06:39:06Z</time></trkpt><trkpt lat="44.82007196531883" lon="8.056797338531675"><ele>161.0</ele><time>2026-04-19T06:39:08Z</time></trkpt><trkpt lat="44.819969878281135" lon="8.056656855042155"><ele>161.0</ele><time>2026-04-19T06:39:10Z</time></trkpt><trkpt lat="44.81990721836065" lon="8.056584312291573"><ele>161.0</ele><time>2026-04-19T06:39:11Z</time></trkpt><trkpt lat="44.81985840044901" lon="8.056473465553186"><ele>161.0</ele><time>2026-04-19T06:39:12Z</time></trkpt><trkpt lat="44.81981058483954" lon="8.056348670833648"><ele>161.16666666666666</ele><time>2026-04-19T06:39:13Z</time></trkpt><trkpt lat="44.81976894533536" lon="8.056225537201247"><ele>161.33333333333331</ele><time>2026-04-19T06:39:14Z</time></trkpt><trkpt lat="44.81973187856374" lon="8.05611575048439"><ele>161.5</ele><time>2026-04-19T06:39:15Z</time></trkpt><trkpt lat="44.81969328261124" lon="8.056009621986716"><ele>161.66666666666666</ele><time>2026-04-19T06:39:16Z</time></trkpt><trkpt lat="44.81965311831868" lon="8.055914071283887"><ele>161.83333333333334</ele><time>2026-04-19T06:39:17Z</time></trkpt><trkpt lat="44.81961341479719" lon="8.055812014940075"><ele>162.0</ele><time>2026-04-19T06:39:18Z</time></trkpt><trkpt lat="44.81956283300292" lon="8.055699980219874"><ele>161.8</ele><time>2026-04-19T06:39:19Z</time></trkpt><trkpt lat="44.819504010583685" lon="8.055567541351529"><ele>161.6</ele><time>2026-04-19T06:39:20Z</time></trkpt><trkpt lat="44.81944585700437" lon="8.055442940540168"><ele>161.4</ele><time>2026-04-19T06:39:21Z</time></trkpt><trkpt lat="44.819385858460784" lon="8.055322761291814"><ele>161.20000000000002</ele><time>2026-04-19T06:39:22Z</time></trkpt><trkpt lat="44.81933593706064" lon="8.055213260630566"><ele>161.0</ele><time>2026-04-19T06:39:23Z</time></trkpt><trkpt lat="44.819293965851735" lon="8.055115168228618"><ele>161.0</ele><time>2026-04-19T06:39:24Z</time></trkpt><trkpt lat="44.81924084340576" lon="8.055004010756527"><ele>161.0</ele><time>2026-04-19T06:39:25Z</time></trkpt><trkpt lat="44.81918580281548" lon="8.054876527623506"><ele>161.0</ele><time>2026-04-19T06:39:26Z</time></trkpt><trkpt lat="44.81914725003316" lon="8.054758356157496"><ele>161.0</ele><time>2026-04-19T06:39:27Z</time></trkpt><trkpt lat="44.819088100129285" lon="8.054624673093127"><ele>161.0</ele><time>2026-04-19T06:39:28Z</time></trkpt><trkpt lat="44.81904710354286" lon="8.05449081616119"><ele>161.0</ele><time>2026-04-19T06:39:29Z</time></trkpt><trkpt lat="44.81900869600257" lon="8.054340455261322"><ele>161.0</ele><time>2026-04-19T06:39:30Z</time></trkpt><trkpt lat="44.818969936352616" lon="8.054188123462188"><ele>161.0</ele><time>2026-04-19T06:39:31Z</time></trkpt><trkpt lat="44.818937447060506" lon="8.05404496674926"><ele>161.0</ele><time>2026-04-19T06:39:32Z</time></trkpt><trkpt lat="44.818887767912436" lon="8.053904534740393"><ele>161.0</ele><time>2026-04-19T06:39:33Z</time></trkpt><trkpt lat="44.818874641992906" lon="8.053772833155058"><ele>161.4</ele><time>2026-04-19T06:39:34Z</time></trkpt><trkpt lat="44.818849836564105" lon="8.053624477093374"><ele>161.8</ele><time>2026-04-19T06:39:35Z</time></trkpt><trkpt lat="44.818823744193935" lon="8.053472258897552"><ele>162.20000000000002</ele><time>2026-04-19T06:39:36Z</time></trkpt><trkpt lat="44.81880010461665" lon="8.053322385835013"><ele>162.60000000000002</ele><time>2026-04-19T06:39:37Z</time></trkpt><trkpt lat="44.81878581957755" lon="8.053161917449597"><ele>163.0</ele><time>2026-04-19T06:39:38Z</time></trkpt><trkpt lat="44.818788156204185" lon="8.052997897571261"><ele>163.5</ele><time>2026-04-19T06:39:39Z</time></trkpt><trkpt lat="44.81879960361485" lon="8.05283510544749"><ele>164.0</ele><time>2026-04-19T06:39:40Z</time></trkpt><trkpt lat="44.81879588692161" lon="8.052641926403709"><ele>164.5</ele><time>2026-04-19T06:39:41Z</time></trkpt><trkpt lat="44.81880746135563" lon="8.05246608596763"><ele>165.0</ele><time>2026-04-19T06:39:42Z</time></trkpt><trkpt lat="44.81882458413598" lon="8.052299685230073"><ele>165.4</ele><time>2026-04-19T06:39:43Z</time></trkpt><trkpt lat="44.81883422375965" lon="8.0521465110125"><ele>165.8</ele><time>2026-04-19T06:39:44Z</time></trkpt><trkpt lat="44.81885184406059" lon="8.052013075306757"><ele>166.2</ele><time>2026-04-19T06:39:45Z</time></trkpt><trkpt lat="44.81885570968634" lon="8.051867082545956"><ele>166.6</ele><time>2026-04-19T06:39:46Z</time></trkpt><trkpt lat="44.81885919715217" lon="8.051726936654743"><ele>167.0</ele><time>2026-04-19T06:39:47Z</time></trkpt><trkpt lat="44.818857060330764" lon="8.051594491040728"><ele>167.39999999999998</ele><time>2026-04-19T06:39:48Z</time></trkpt><trkpt lat="44.81885146478588" lon="8.051447553892766"><ele>167.79999999999998</ele><time>2026-04-19T06:39:49Z</time></trkpt><trkpt lat="44.81884749311305" lon="8.051299292295257"><ele>168.2</ele><time>2026-04-19T06:39:50Z</time></trkpt><trkpt lat="44.818845166833924" lon="8.051161768968846"><ele>168.6</ele><time>2026-04-19T06:39:51Z</time></trkpt><trkpt lat="44.818821380937365" lon="8.05104199184505"><ele>169.0</ele><time>2026-04-19T06:39:52Z</time></trkpt><trkpt lat="44.81877751313322" lon="8.050956348581444"><ele>169.0</ele><time>2026-04-19T06:39:53Z</time></trkpt><trkpt lat="44.81870971024417" lon="8.050898512806748"><ele>169.0</ele><time>2026-04-19T06:39:54Z</time></trkpt><trkpt lat="44.81861829288961" lon="8.050877317257353"><ele>169.0</ele><time>2026-04-19T06:39:55Z</time></trkpt><trkpt lat="44.81850906728298" lon="8.05091570462302"><ele>169.0</ele><time>2026-04-19T06:39:56Z</time></trkpt><trkpt lat="44.818383594929415" lon="8.050984323521607"><ele>169.0</ele><time>2026-04-19T06:39:57Z</time></trkpt><trkpt lat="44.81829031971297" lon="8.051077510725696"><ele>168.0</ele><time>2026-04-19T06:39:58Z</time></trkpt><trkpt lat="44.81818096259896" lon="8.051139229977894"><ele>167.0</ele><time>2026-04-19T06:39:59Z</time></trkpt><trkpt lat="44.818035492117005" lon="8.051078464621572"><ele>166.0</ele><time>2026-04-19T06:40:00Z</time></trkpt><trkpt lat="44.81793552221292" lon="8.051140531800549"><ele>165.0</ele><time>2026-04-19T06:40:01Z</time></trkpt><trkpt lat="44.81783799765991" lon="8.051200190140527"><ele>165.0</ele><time>2026-04-19T06:40:02Z</time></trkpt><trkpt lat="44.8177380217064" lon="8.051261348068628"><ele>165.0</ele><time>2026-04-19T06:40:03Z</time></trkpt><trkpt lat="44.81763124166064" lon="8.051326668237428"><ele>165.0</ele><time>2026-04-19T06:40:04Z</time></trkpt><trkpt lat="44.81753803467507" lon="8.051383685409482"><ele>165.0</ele><time>2026-04-19T06:40:05Z</time></trkpt><trkpt lat="44.81745332664554" lon="8.051435981945449"><ele>165.0</ele><time>2026-04-19T06:40:06Z</time></trkpt><trkpt lat="44.81737759108982" lon="8.051482834993486"><ele>165.0</ele><time>2026-04-19T06:40:07Z</time></trkpt><trkpt lat="44.817290594052714" lon="8.051536654849874"><ele>165.0</ele><time>2026-04-19T06:40:09Z</time></trkpt><trkpt lat="44.817373402671315" lon="8.051948689894388"><ele>165.0</ele><time>2026-04-19T06:40:12Z</time></trkpt><trkpt lat="44.817410757973036" lon="8.052094219131142"><ele>165.0</ele><time>2026-04-19T06:40:13Z</time></trkpt><trkpt lat="44.81745574466743" lon="8.05227579383301"><ele>165.0</ele><time>2026-04-19T06:40:14Z</time></trkpt><trkpt lat="44.817499398636784" lon="8.052461323833047"><ele>165.0</ele><time>2026-04-19T06:40:15Z</time></trkpt><trkpt lat="44.817536756299866" lon="8.052658681149802"><ele>165.0</ele><time>2026-04-19T06:40:16Z</time></trkpt><trkpt lat="44.817576230257984" lon="8.052842494959528"><ele>165.0</ele><time>2026-04-19T06:40:17Z</time></trkpt><trkpt lat="44.81760800453141" lon="8.053016315240901"><ele>165.0</ele><time>2026-04-19T06:40:18Z</time></trkpt><trkpt lat="44.81765409504302" lon="8.053178852771708"><ele>165.0</ele><time>2026-04-19T06:40:19Z</time></trkpt><trkpt lat="44.8176887310545" lon="8.053350726239866"><ele>165.0</ele><time>2026-04-19T06:40:20Z</time></trkpt><trkpt lat="44.81772635849196" lon="8.053520088164188"><ele>164.5</ele><time>2026-04-19T06:40:21Z</time></trkpt><trkpt lat="44.81776176108811" lon="8.053691262220365"><ele>164.0</ele><time>2026-04-19T06:40:22Z</time></trkpt><trkpt lat="44.817796495501106" lon="8.053858012752"><ele>163.5</ele><time>2026-04-19T06:40:23Z</time></trkpt><trkpt lat="44.817831614251475" lon="8.054017631345003"><ele>163.0</ele><time>2026-04-19T06:40:24Z</time></trkpt><trkpt lat="44.8178661742326" lon="8.054168061487443"><ele>162.0</ele><time>2026-04-19T06:40:25Z</time></trkpt><trkpt lat="44.817905868519595" lon="8.05431887754851"><ele>161.0</ele><time>2026-04-19T06:40:26Z</time></trkpt><trkpt lat="44.81794614885298" lon="8.05447080402939"><ele>160.0</ele><time>2026-04-19T06:40:27Z</time></trkpt><trkpt lat="44.81799088276514" lon="8.054626377136671"><ele>159.0</ele><time>2026-04-19T06:40:28Z</time></trkpt><trkpt lat="44.81804473361858" lon="8.054777463228726"><ele>159.0</ele><time>2026-04-19T06:40:29Z</time></trkpt><trkpt lat="44.81810669026014" lon="8.054936203472856"><ele>159.0</ele><time>2026-04-19T06:40:30Z</time></trkpt><trkpt lat="44.81817328595571" lon="8.05509823189867"><ele>159.0</ele><time>2026-04-19T06:40:31Z</time></trkpt><trkpt lat="44.81824629841509" lon="8.05525910584975"><ele>159.0</ele><time>2026-04-19T06:40:32Z</time></trkpt><trkpt lat="44.81832007061562" lon="8.05542179452197"><ele>159.25</ele><time>2026-04-19T06:40:33Z</time></trkpt><trkpt lat="44.81839484492895" lon="8.055577291365259"><ele>159.5</ele><time>2026-04-19T06:40:34Z</time></trkpt><trkpt lat="44.81846798025091" lon="8.055728874322504"><ele>159.75</ele><time>2026-04-19T06:40:35Z</time></trkpt><trkpt lat="44.818541797477536" lon="8.055887403010159"><ele>160.0</ele><time>2026-04-19T06:40:36Z</time></trkpt><trkpt lat="44.81862206437917" lon="8.056040781572841"><ele>160.0</ele><time>2026-04-19T06:40:37Z</time></trkpt><trkpt lat="44.81869988972977" lon="8.056197001025001"><ele>160.0</ele><time>2026-04-19T06:40:37.999Z</time></trkpt><trkpt lat="44.81878995937441" lon="8.056341242937176"><ele>160.0</ele><time>2026-04-19T06:40:38.999Z</time></trkpt><trkpt lat="44.8188816889065" lon="8.056486815399927"><ele>160.0</ele><time>2026-04-19T06:40:39.999Z</time></trkpt><trkpt lat="44.8189701298655" lon="8.05663063710055"><ele>159.75</ele><time>2026-04-19T06:40:40.999Z</time></trkpt><trkpt lat="44.819065148355556" lon="8.056780847178178"><ele>159.5</ele><time>2026-04-19T06:40:41.999Z</time></trkpt><trkpt lat="44.81916015677343" lon="8.056934041533541"><ele>159.25</ele><time>2026-04-19T06:40:42.999Z</time></trkpt><trkpt lat="44.81925416169113" lon="8.057086494121585"><ele>159.0</ele><time>2026-04-19T06:40:43.999Z</time></trkpt><trkpt lat="44.819347650737384" lon="8.05723781949649"><ele>159.5</ele><time>2026-04-19T06:40:44.999Z</time></trkpt><trkpt lat="44.8194361279965" lon="8.057386003195816"><ele>160.0</ele><time>2026-04-19T06:40:45.999Z</time></trkpt><trkpt lat="44.819523325980825" lon="8.057531722817354"><ele>160.5</ele><time>2026-04-19T06:40:46.999Z</time></trkpt><trkpt lat="44.81960962915" lon="8.05767601332028"><ele>161.0</ele><time>2026-04-19T06:40:47.999Z</time></trkpt><trkpt lat="44.81968552534208" lon="8.057807824500633"><ele>161.0</ele><time>2026-04-19T06:40:48.999Z</time></trkpt><trkpt lat="44.819756920338385" lon="8.057934218809505"><ele>161.0</ele><time>2026-04-19T06:40:49.999Z</time></trkpt><trkpt lat="44.81983287849052" lon="8.058058870452488"><ele>161.0</ele><time>2026-04-19T06:40:50.999Z</time></trkpt><trkpt lat="44.81990847958159" lon="8.058188507646163"><ele>161.0</ele><time>2026-04-19T06:40:51.999Z</time></trkpt><trkpt lat="44.819964966166964" lon="8.058326628035864"><ele>160.8</ele><time>2026-04-19T06:40:52.999Z</time></trkpt><trkpt lat="44.82003075716094" lon="8.058438420371699"><ele>160.60000000000002</ele><time>2026-04-19T06:40:53.999Z</time></trkpt><trkpt lat="44.82010656469952" lon="8.058536399746584"><ele>160.4</ele><time>2026-04-19T06:40:54.999Z</time></trkpt><trkpt lat="44.820174552824426" lon="8.05860640846777"><ele>160.2</ele><time>2026-04-19T06:40:55.999Z</time></trkpt><trkpt lat="44.820240556698415" lon="8.058669877255253"><ele>160.0</ele><time>2026-04-19T06:40:56.999Z</time></trkpt><trkpt lat="44.82032365968739" lon="8.058733371760528"><ele>160.0</ele><time>2026-04-19T06:40:58.999Z</time></trkpt><trkpt lat="44.820214298285265" lon="8.058945702473391"><ele>160.0</ele><time>2026-04-19T06:41:01.999Z</time></trkpt><trkpt lat="44.82015454521645" lon="8.059034737813544"><ele>160.0</ele><time>2026-04-19T06:41:02.999Z</time></trkpt><trkpt lat="44.82009256685034" lon="8.05912719434509"><ele>160.0</ele><time>2026-04-19T06:41:04Z</time></trkpt><trkpt lat="44.82001918829854" lon="8.059250736839484"><ele>159.4</ele><time>2026-04-19T06:41:05Z</time></trkpt><trkpt lat="44.81993895342758" lon="8.059378346384637"><ele>158.8</ele><time>2026-04-19T06:41:06Z</time></trkpt><trkpt lat="44.819869443336536" lon="8.059488149574829"><ele>158.2</ele><time>2026-04-19T06:41:07Z</time></trkpt><trkpt lat="44.81979613834658" lon="8.05961114740652"><ele>157.6</ele><time>2026-04-19T06:41:08Z</time></trkpt><trkpt lat="44.81972522531424" lon="8.059727368592506"><ele>157.0</ele><time>2026-04-19T06:41:09Z</time></trkpt><trkpt lat="44.81965613000427" lon="8.05984195482092"><ele>157.6</ele><time>2026-04-19T06:41:10Z</time></trkpt><trkpt lat="44.8195882241887" lon="8.05996524046106"><ele>158.2</ele><time>2026-04-19T06:41:11Z</time></trkpt><trkpt lat="44.819526106706384" lon="8.060080403082546"><ele>158.8</ele><time>2026-04-19T06:41:12Z</time></trkpt><trkpt lat="44.81945972172007" lon="8.06020122623087"><ele>159.4</ele><time>2026-04-19T06:41:13Z</time></trkpt><trkpt lat="44.819398373487296" lon="8.0603139160435"><ele>160.0</ele><time>2026-04-19T06:41:14Z</time></trkpt><trkpt lat="44.81934438553395" lon="8.060415716110827"><ele>159.6</ele><time>2026-04-19T06:41:15Z</time></trkpt><trkpt lat="44.81928180594013" lon="8.06052662056862"><ele>159.2</ele><time>2026-04-19T06:41:16Z</time></trkpt><trkpt lat="44.81921490865531" lon="8.060639879209678"><ele>158.8</ele><time>2026-04-19T06:41:17Z</time></trkpt><trkpt lat="44.81915059590778" lon="8.06075631266847"><ele>158.4</ele><time>2026-04-19T06:41:18Z</time></trkpt><trkpt lat="44.81909301405661" lon="8.060869615207684"><ele>158.0</ele><time>2026-04-19T06:41:19Z</time></trkpt><trkpt lat="44.81903106765979" lon="8.060990361196083"><ele>158.0</ele><time>2026-04-19T06:41:20Z</time></trkpt><trkpt lat="44.81897492857133" lon="8.061099439990455"><ele>158.0</ele><time>2026-04-19T06:41:21Z</time></trkpt><trkpt lat="44.81893850986832" lon="8.061193024567688"><ele>158.0</ele><time>2026-04-19T06:41:22Z</time></trkpt><trkpt lat="44.818928987774434" lon="8.061291584276164"><ele>158.0</ele><time>2026-04-19T06:41:23Z</time></trkpt><trkpt lat="44.81895010385154" lon="8.061399352282955"><ele>158.0</ele><time>2026-04-19T06:41:24Z</time></trkpt><trkpt lat="44.81898363189723" lon="8.061505345304054"><ele>158.0</ele><time>2026-04-19T06:41:25Z</time></trkpt><trkpt lat="44.819020460438445" lon="8.061582685446366"><ele>157.6</ele><time>2026-04-19T06:41:26Z</time></trkpt><trkpt lat="44.81907433734465" lon="8.061708437491243"><ele>157.20000000000002</ele><time>2026-04-19T06:41:28Z</time></trkpt><trkpt lat="44.81903178595186" lon="8.061861933815562"><ele>156.8</ele><time>2026-04-19T06:41:30Z</time></trkpt><trkpt lat="44.81896385708185" lon="8.061965478299697"><ele>156.4</ele><time>2026-04-19T06:41:31Z</time></trkpt><trkpt lat="44.818880372219795" lon="8.062092645704052"><ele>156.0</ele><time>2026-04-19T06:41:32Z</time></trkpt><trkpt lat="44.8188061395745" lon="8.062206711312616"><ele>156.0</ele><time>2026-04-19T06:41:33Z</time></trkpt><trkpt lat="44.81873910512694" lon="8.062318154181318"><ele>156.0</ele><time>2026-04-19T06:41:34Z</time></trkpt><trkpt lat="44.81868055370629" lon="8.06241926365284"><ele>156.0</ele><time>2026-04-19T06:41:35Z</time></trkpt><trkpt lat="44.81861759088679" lon="8.062535269370063"><ele>156.0</ele><time>2026-04-19T06:41:36Z</time></trkpt><trkpt lat="44.81855196428723" lon="8.062655491163689"><ele>156.0</ele><time>2026-04-19T06:41:37Z</time></trkpt><trkpt lat="44.81848647801339" lon="8.062772625095317"><ele>156.0</ele><time>2026-04-19T06:41:38Z</time></trkpt><trkpt lat="44.81842104970391" lon="8.062893441791017"><ele>156.0</ele><time>2026-04-19T06:41:39Z</time></trkpt><trkpt lat="44.81835418392146" lon="8.063006191468281"><ele>156.0</ele><time>2026-04-19T06:41:40Z</time></trkpt><trkpt lat="44.81828630027273" lon="8.063128617356458"><ele>156.0</ele><time>2026-04-19T06:41:41Z</time></trkpt><trkpt lat="44.81822367915183" lon="8.063237665724714"><ele>156.0</ele><time>2026-04-19T06:41:42Z</time></trkpt><trkpt lat="44.81816299944303" lon="8.063331706204496"><ele>156.0</ele><time>2026-04-19T06:41:43Z</time></trkpt><trkpt lat="44.81810361449275" lon="8.063426124883003"><ele>156.0</ele><time>2026-04-19T06:41:44Z</time></trkpt><trkpt lat="44.818046180237324" lon="8.063521365164473"><ele>156.0</ele><time>2026-04-19T06:41:45Z</time></trkpt><trkpt lat="44.817995636827376" lon="8.06360504356775"><ele>156.0</ele><time>2026-04-19T06:41:46Z</time></trkpt><trkpt lat="44.817944729925195" lon="8.063694938023827"><ele>156.0</ele><time>2026-04-19T06:41:47Z</time></trkpt><trkpt lat="44.817901401734666" lon="8.06378168499041"><ele>156.0</ele><time>2026-04-19T06:41:48Z</time></trkpt><trkpt lat="44.81782002827019" lon="8.06396607066523"><ele>156.0</ele><time>2026-04-19T06:41:50Z</time></trkpt><trkpt lat="44.81776445826497" lon="8.064069069600333"><ele>156.0</ele><time>2026-04-19T06:41:51Z</time></trkpt><trkpt lat="44.8177033866122" lon="8.064182630797996"><ele>156.0</ele><time>2026-04-19T06:41:52Z</time></trkpt><trkpt lat="44.8176515248371" lon="8.064274595326788"><ele>156.0</ele><time>2026-04-19T06:41:53Z</time></trkpt><trkpt lat="44.81761714051377" lon="8.064400622955148"><ele>156.0</ele><time>2026-04-19T06:41:55Z</time></trkpt><trkpt lat="44.81767072926294" lon="8.064497272601544"><ele>156.5</ele><time>2026-04-19T06:41:57Z</time></trkpt><trkpt lat="44.81774369988412" lon="8.064564219058639"><ele>157.0</ele><time>2026-04-19T06:41:58Z</time></trkpt><trkpt lat="44.81786196844499" lon="8.06462808757606"><ele>157.5</ele><time>2026-04-19T06:41:59Z</time></trkpt><trkpt lat="44.81799881685966" lon="8.064665463454585"><ele>158.0</ele><time>2026-04-19T06:42:00Z</time></trkpt><trkpt lat="44.818152386975804" lon="8.064677174306626"><ele>158.0</ele><time>2026-04-19T06:42:01Z</time></trkpt><trkpt lat="44.81831470842399" lon="8.064669303009994"><ele>158.0</ele><time>2026-04-19T06:42:02Z</time></trkpt><trkpt lat="44.81847992830252" lon="8.064647281028698"><ele>158.0</ele><time>2026-04-19T06:42:03Z</time></trkpt><trkpt lat="44.818639599964015" lon="8.064627793948654"><ele>158.0</ele><time>2026-04-19T06:42:04Z</time></trkpt><trkpt lat="44.81879718837887" lon="8.064610196710738"><ele>158.0</ele><time>2026-04-19T06:42:05Z</time></trkpt><trkpt lat="44.81893192758597" lon="8.064592636822766"><ele>158.0</ele><time>2026-04-19T06:42:06Z</time></trkpt><trkpt lat="44.81905697239697" lon="8.064585882851663"><ele>158.0</ele><time>2026-04-19T06:42:07Z</time></trkpt><trkpt lat="44.819172985232406" lon="8.064571643365428"><ele>158.0</ele><time>2026-04-19T06:42:08Z</time></trkpt><trkpt lat="44.819281371802184" lon="8.064569352066522"><ele>158.0</ele><time>2026-04-19T06:42:09Z</time></trkpt><trkpt lat="44.8193642944121" lon="8.06455813968991"><ele>158.0</ele><time>2026-04-19T06:42:10Z</time></trkpt><trkpt lat="44.819449455890016" lon="8.06458532827799"><ele>158.0</ele><time>2026-04-19T06:42:12Z</time></trkpt><trkpt lat="44.819478618141545" lon="8.064693208527022"><ele>158.0</ele><time>2026-04-19T06:42:14Z</time></trkpt><trkpt lat="44.81948251471657" lon="8.06478671599191"><ele>158.0</ele><time>2026-04-19T06:42:15Z</time></trkpt><trkpt lat="44.819432958904436" lon="8.064937304089508"><ele>158.16666666666666</ele><time>2026-04-19T06:42:17Z</time></trkpt><trkpt lat="44.819384764798286" lon="8.064997378670618"><ele>158.33333333333331</ele><time>2026-04-19T06:42:18Z</time></trkpt><trkpt lat="44.81930750486317" lon="8.065127211354401"><ele>158.5</ele><time>2026-04-19T06:42:20Z</time></trkpt><trkpt lat="44.81927037193231" lon="8.065216956385378"><ele>158.66666666666666</ele><time>2026-04-19T06:42:21Z</time></trkpt><trkpt lat="44.81923345474071" lon="8.065306038651832"><ele>158.83333333333334</ele><time>2026-04-19T06:42:22Z</time></trkpt><trkpt lat="44.81920591490479" lon="8.065386503400573"><ele>159.0</ele><time>2026-04-19T06:42:23Z</time></trkpt><trkpt lat="44.81916727453106" lon="8.065518496543861"><ele>159.0</ele><time>2026-04-19T06:42:25Z</time></trkpt><trkpt lat="44.81908818137535" lon="8.065601672375035"><ele>159.0</ele><time>2026-04-19T06:42:27Z</time></trkpt><trkpt lat="44.81902414656781" lon="8.065627250658025"><ele>159.0</ele><time>2026-04-19T06:42:27.999Z</time></trkpt><trkpt lat="44.81888798162659" lon="8.06565540076991"><ele>159.0</ele><time>2026-04-19T06:42:29.999Z</time></trkpt><trkpt lat="44.81880708737399" lon="8.065670338213847"><ele>159.0</ele><time>2026-04-19T06:42:30.999Z</time></trkpt><trkpt lat="44.81872363200656" lon="8.065688659873159"><ele>159.0</ele><time>2026-04-19T06:42:31.999Z</time></trkpt><trkpt lat="44.81864504235182" lon="8.065709045093328"><ele>159.0</ele><time>2026-04-19T06:42:32.999Z</time></trkpt><trkpt lat="44.81858192670177" lon="8.065717660148687"><ele>159.0</ele><time>2026-04-19T06:42:33.999Z</time></trkpt><trkpt lat="44.81851181388023" lon="8.06573398580715"><ele>159.0</ele><time>2026-04-19T06:42:35.999Z</time></trkpt><trkpt lat="44.818420589597004" lon="8.065770424062768"><ele>159.0</ele><time>2026-04-19T06:42:38.999Z</time></trkpt><trkpt lat="44.81832581008254" lon="8.065778344567944"><ele>159.0</ele><time>2026-04-19T06:42:40.999Z</time></trkpt><trkpt lat="44.81824614150038" lon="8.065839815950998"><ele>160.0</ele><time>2026-04-19T06:42:42.999Z</time></trkpt><trkpt lat="44.81829592973825" lon="8.065999611213876"><ele>161.0</ele><time>2026-04-19T06:42:44.999Z</time></trkpt><trkpt lat="44.81833938437541" lon="8.0660670118642"><ele>162.0</ele><time>2026-04-19T06:42:45.999Z</time></trkpt><trkpt lat="44.81838239568493" lon="8.066141817453044"><ele>163.0</ele><time>2026-04-19T06:42:46.999Z</time></trkpt><trkpt lat="44.81842043985641" lon="8.066212694664095"><ele>164.0</ele><time>2026-04-19T06:42:47.999Z</time></trkpt><trkpt lat="44.818497811657565" lon="8.06633643990444"><ele>165.0</ele><time>2026-04-19T06:42:49.999Z</time></trkpt><trkpt lat="44.81857140128743" lon="8.066463058369976"><ele>165.0</ele><time>2026-04-19T06:42:51.999Z</time></trkpt><trkpt lat="44.81865229387503" lon="8.066525590895875"><ele>165.0</ele><time>2026-04-19T06:42:53.999Z</time></trkpt><trkpt lat="44.818750920422254" lon="8.06662114967046"><ele>165.0</ele><time>2026-04-19T06:42:55.999Z</time></trkpt><trkpt lat="44.81880190201475" lon="8.0666759173577"><ele>165.0</ele><time>2026-04-19T06:42:56.999Z</time></trkpt><trkpt lat="44.818855484311186" lon="8.0667233752728"><ele>165.0</ele><time>2026-04-19T06:42:57.999Z</time></trkpt><trkpt lat="44.81893786048907" lon="8.066834637834102"><ele>168.0</ele><time>2026-04-19T06:42:59.999Z</time></trkpt><trkpt lat="44.81901772143141" lon="8.066950914242446"><ele>171.0</ele><time>2026-04-19T06:43:01.999Z</time></trkpt><trkpt lat="44.81906306531389" lon="8.067039707354477"><ele>174.0</ele><time>2026-04-19T06:43:02.999Z</time></trkpt><trkpt lat="44.81909061005205" lon="8.06712094059319"><ele>177.0</ele><time>2026-04-19T06:43:03.999Z</time></trkpt><trkpt lat="44.81915465908637" lon="8.067282758572725"><ele>180.0</ele><time>2026-04-19T06:43:05.999Z</time></trkpt><trkpt lat="44.819197843467634" lon="8.067378002363382"><ele>182.5</ele><time>2026-04-19T06:43:06.999Z</time></trkpt><trkpt lat="44.819230146144854" lon="8.067497968079293"><ele>185.0</ele><time>2026-04-19T06:43:07.999Z</time></trkpt><trkpt lat="44.81926381610017" lon="8.067582511620925"><ele>187.5</ele><time>2026-04-19T06:43:08.999Z</time></trkpt><trkpt lat="44.81928886572106" lon="8.067729700408703"><ele>190.0</ele><time>2026-04-19T06:43:11Z</time></trkpt><trkpt lat="44.81929031643436" lon="8.067840833813497"><ele>192.5</ele><time>2026-04-19T06:43:13Z</time></trkpt><trkpt lat="44.819286049576384" lon="8.067946422221786"><ele>195.0</ele><time>2026-04-19T06:43:15Z</time></trkpt><trkpt lat="44.81919259867862" lon="8.067897320095312"><ele>195.0</ele><time>2026-04-19T06:43:18Z</time></trkpt><trkpt lat="44.81911167599237" lon="8.06788722756206"><ele>195.0</ele><time>2026-04-19T06:43:19Z</time></trkpt><trkpt lat="44.81900415079673" lon="8.067875882693004"><ele>195.0</ele><time>2026-04-19T06:43:20Z</time></trkpt><trkpt lat="44.81888548166543" lon="8.067873220732247"><ele>195.0</ele><time>2026-04-19T06:43:21Z</time></trkpt><trkpt lat="44.818780568859275" lon="8.067871703288736"><ele>195.0</ele><time>2026-04-19T06:43:22Z</time></trkpt><trkpt lat="44.818679721565324" lon="8.06785666262809"><ele>195.0</ele><time>2026-04-19T06:43:23Z</time></trkpt><trkpt lat="44.81857308377583" lon="8.067850530902094"><ele>195.0</ele><time>2026-04-19T06:43:24Z</time></trkpt><trkpt lat="44.81845280590108" lon="8.067835907157455"><ele>195.0</ele><time>2026-04-19T06:43:25Z</time></trkpt><trkpt lat="44.81833180876859" lon="8.06782363699784"><ele>195.0</ele><time>2026-04-19T06:43:26Z</time></trkpt><trkpt lat="44.818231639797375" lon="8.06781825833515"><ele>195.0</ele><time>2026-04-19T06:43:27Z</time></trkpt><trkpt lat="44.81813831151178" lon="8.06782381284805"><ele>197.8</ele><time>2026-04-19T06:43:28Z</time></trkpt><trkpt lat="44.81802732768666" lon="8.067839870045795"><ele>200.6</ele><time>2026-04-19T06:43:29Z</time></trkpt><trkpt lat="44.81792867583514" lon="8.067882777846508"><ele>203.39999999999998</ele><time>2026-04-19T06:43:30Z</time></trkpt><trkpt lat="44.81783367549166" lon="8.067916133713284"><ele>206.2</ele><time>2026-04-19T06:43:31Z</time></trkpt><trkpt lat="44.81774310364068" lon="8.067944068488236"><ele>209.0</ele><time>2026-04-19T06:43:32Z</time></trkpt><trkpt lat="44.81765806468563" lon="8.067958564068288"><ele>209.79999999999998</ele><time>2026-04-19T06:43:33Z</time></trkpt><trkpt lat="44.81757758225086" lon="8.067947002788463"><ele>210.6</ele><time>2026-04-19T06:43:34Z</time></trkpt><trkpt lat="44.81748098803265" lon="8.067939205827235"><ele>211.4</ele><time>2026-04-19T06:43:35Z</time></trkpt><trkpt lat="44.81737814078465" lon="8.067976308275737"><ele>212.2</ele><time>2026-04-19T06:43:36Z</time></trkpt><trkpt lat="44.81728121922837" lon="8.068050976447894"><ele>213.0</ele><time>2026-04-19T06:43:37Z</time></trkpt><trkpt lat="44.81719177655763" lon="8.06815210556807"><ele>213.0</ele><time>2026-04-19T06:43:38Z</time></trkpt><trkpt lat="44.817106639078354" lon="8.068260519740559"><ele>213.0</ele><time>2026-04-19T06:43:39Z</time></trkpt><trkpt lat="44.81702058395965" lon="8.068383579129675"><ele>213.0</ele><time>2026-04-19T06:43:40Z</time></trkpt><trkpt lat="44.81694601998297" lon="8.068491915622856"><ele>213.0</ele><time>2026-04-19T06:43:41Z</time></trkpt><trkpt lat="44.81687950870885" lon="8.068582793742609"><ele>213.0</ele><time>2026-04-19T06:43:42Z</time></trkpt><trkpt lat="44.81680848508845" lon="8.068666625242665"><ele>214.4</ele><time>2026-04-19T06:43:43Z</time></trkpt><trkpt lat="44.816734341424876" lon="8.068766321670592"><ele>215.8</ele><time>2026-04-19T06:43:44Z</time></trkpt><trkpt lat="44.81666027455618" lon="8.068857151468865"><ele>217.2</ele><time>2026-04-19T06:43:45Z</time></trkpt><trkpt lat="44.81657946553782" lon="8.068971565663594"><ele>218.6</ele><time>2026-04-19T06:43:46Z</time></trkpt><trkpt lat="44.81650151467625" lon="8.069104162568118"><ele>220.0</ele><time>2026-04-19T06:43:47Z</time></trkpt><trkpt lat="44.81643509571023" lon="8.06921957956958"><ele>220.75</ele><time>2026-04-19T06:43:48Z</time></trkpt><trkpt lat="44.81637314747696" lon="8.06934462296339"><ele>221.5</ele><time>2026-04-19T06:43:49Z</time></trkpt><trkpt lat="44.816318931530894" lon="8.069490497499725"><ele>222.25</ele><time>2026-04-19T06:43:50Z</time></trkpt><trkpt lat="44.81625417905415" lon="8.06962949033202"><ele>223.0</ele><time>2026-04-19T06:43:51Z</time></trkpt><trkpt lat="44.816200982441906" lon="8.06978400226205"><ele>223.0</ele><time>2026-04-19T06:43:52Z</time></trkpt><trkpt lat="44.816155124830445" lon="8.069958649081196"><ele>223.0</ele><time>2026-04-19T06:43:53Z</time></trkpt><trkpt lat="44.816118261927286" lon="8.070119262270554"><ele>223.0</ele><time>2026-04-19T06:43:54Z</time></trkpt><trkpt lat="44.81608025270691" lon="8.070252469115422"><ele>223.0</ele><time>2026-04-19T06:43:55Z</time></trkpt><trkpt lat="44.81603742815917" lon="8.070352669383851"><ele>223.0</ele><time>2026-04-19T06:43:56Z</time></trkpt><trkpt lat="44.81598283160248" lon="8.070443702966447"><ele>224.33333333333331</ele><time>2026-04-19T06:43:57Z</time></trkpt><trkpt lat="44.81588333695755" lon="8.070533187916462"><ele>225.66666666666666</ele><time>2026-04-19T06:43:58Z</time></trkpt><trkpt lat="44.815829207703906" lon="8.070620526577068"><ele>227.0</ele><time>2026-04-19T06:43:59Z</time></trkpt><trkpt lat="44.815769562054385" lon="8.070692179586128"><ele>228.33333333333331</ele><time>2026-04-19T06:44:00Z</time></trkpt><trkpt lat="44.815715573117195" lon="8.070776008023547"><ele>229.66666666666666</ele><time>2026-04-19T06:44:01Z</time></trkpt><trkpt lat="44.81565919932533" lon="8.070874641858255"><ele>231.0</ele><time>2026-04-19T06:44:02Z</time></trkpt><trkpt lat="44.815608548946244" lon="8.070993150112052"><ele>232.66666666666666</ele><time>2026-04-19T06:44:03Z</time></trkpt><trkpt lat="44.81556313560397" lon="8.07110095270082"><ele>234.33333333333331</ele><time>2026-04-19T06:44:04Z</time></trkpt><trkpt lat="44.81551392149332" lon="8.071209129656797"><ele>236.0</ele><time>2026-04-19T06:44:05Z</time></trkpt><trkpt lat="44.81548052588215" lon="8.071299629939489"><ele>237.66666666666666</ele><time>2026-04-19T06:44:06Z</time></trkpt><trkpt lat="44.8154449004369" lon="8.071387007312085"><ele>239.33333333333331</ele><time>2026-04-19T06:44:07Z</time></trkpt><trkpt lat="44.81540025860845" lon="8.07146891514365"><ele>241.0</ele><time>2026-04-19T06:44:08Z</time></trkpt><trkpt lat="44.81536221641672" lon="8.071548311363694"><ele>241.20000000000002</ele><time>2026-04-19T06:44:09Z</time></trkpt><trkpt lat="44.81531367788037" lon="8.07164068624603"><ele>241.40000000000003</ele><time>2026-04-19T06:44:10Z</time></trkpt><trkpt lat="44.815257018761024" lon="8.071738598718651"><ele>241.6</ele><time>2026-04-19T06:44:11Z</time></trkpt><trkpt lat="44.81518768737543" lon="8.071823947165988"><ele>241.8</ele><time>2026-04-19T06:44:12Z</time></trkpt><trkpt lat="44.81511015460169" lon="8.071882916003748"><ele>242.0</ele><time>2026-04-19T06:44:13Z</time></trkpt><trkpt lat="44.815002831975214" lon="8.071933392659286"><ele>240.75</ele><time>2026-04-19T06:44:14Z</time></trkpt><trkpt lat="44.81489751576958" lon="8.071998035751024"><ele>239.5</ele><time>2026-04-19T06:44:15Z</time></trkpt><trkpt lat="44.814786708010494" lon="8.0720625733862"><ele>238.25</ele><time>2026-04-19T06:44:16Z</time></trkpt><trkpt lat="44.81468871645061" lon="8.072140020650783"><ele>237.0</ele><time>2026-04-19T06:44:17Z</time></trkpt><trkpt lat="44.81460571247617" lon="8.072231078158435"><ele>237.0</ele><time>2026-04-19T06:44:18Z</time></trkpt><trkpt lat="44.814527290314786" lon="8.07231517692088"><ele>237.0</ele><time>2026-04-19T06:44:19Z</time></trkpt><trkpt lat="44.81445936951896" lon="8.072395060655847"><ele>237.0</ele><time>2026-04-19T06:44:20Z</time></trkpt><trkpt lat="44.814393656021586" lon="8.072468280883594"><ele>237.0</ele><time>2026-04-19T06:44:21Z</time></trkpt><trkpt lat="44.81432439276743" lon="8.072554277932266"><ele>237.0</ele><time>2026-04-19T06:44:22Z</time></trkpt><trkpt lat="44.81425290972246" lon="8.072629623381195"><ele>236.6</ele><time>2026-04-19T06:44:23Z</time></trkpt><trkpt lat="44.814179974072545" lon="8.072696127083713"><ele>236.2</ele><time>2026-04-19T06:44:24Z</time></trkpt><trkpt lat="44.814095878836405" lon="8.072765047010884"><ele>235.8</ele><time>2026-04-19T06:44:25Z</time></trkpt><trkpt lat="44.81400363557076" lon="8.072834620930886"><ele>235.4</ele><time>2026-04-19T06:44:26Z</time></trkpt><trkpt lat="44.81389769500101" lon="8.07288840009511"><ele>235.0</ele><time>2026-04-19T06:44:27Z</time></trkpt><trkpt lat="44.813801203324296" lon="8.07293807252878"><ele>235.0</ele><time>2026-04-19T06:44:28Z</time></trkpt><trkpt lat="44.81371079284466" lon="8.072970440088842"><ele>235.0</ele><time>2026-04-19T06:44:29Z</time></trkpt><trkpt lat="44.81361296365798" lon="8.073011497081332"><ele>235.0</ele><time>2026-04-19T06:44:30Z</time></trkpt><trkpt lat="44.813522558910954" lon="8.073071695363694"><ele>235.0</ele><time>2026-04-19T06:44:31Z</time></trkpt><trkpt lat="44.81342583983707" lon="8.073124842386171"><ele>235.0</ele><time>2026-04-19T06:44:32Z</time></trkpt><trkpt lat="44.813333324096355" lon="8.073160271786247"><ele>233.6</ele><time>2026-04-19T06:44:33Z</time></trkpt><trkpt lat="44.813238854214305" lon="8.073186963001044"><ele>232.2</ele><time>2026-04-19T06:44:34Z</time></trkpt><trkpt lat="44.813139430721655" lon="8.073213067298182"><ele>230.8</ele><time>2026-04-19T06:44:35Z</time></trkpt><trkpt lat="44.81304484750933" lon="8.073251748491458"><ele>229.4</ele><time>2026-04-19T06:44:36Z</time></trkpt><trkpt lat="44.81294100930408" lon="8.073290291152869"><ele>228.0</ele><time>2026-04-19T06:44:37Z</time></trkpt><trkpt lat="44.81283823586579" lon="8.073348481975145"><ele>228.0</ele><time>2026-04-19T06:44:38Z</time></trkpt><trkpt lat="44.81273776755561" lon="8.0734248841812"><ele>228.0</ele><time>2026-04-19T06:44:39Z</time></trkpt><trkpt lat="44.81264746386677" lon="8.073493354816167"><ele>228.0</ele><time>2026-04-19T06:44:40Z</time></trkpt><trkpt lat="44.81256385697153" lon="8.073541732444593"><ele>228.0</ele><time>2026-04-19T06:44:41Z</time></trkpt><trkpt lat="44.812480340980365" lon="8.073574423303045"><ele>228.0</ele><time>2026-04-19T06:44:41.999Z</time></trkpt><trkpt lat="44.81240054277646" lon="8.073585563815698"><ele>228.0</ele><time>2026-04-19T06:44:42.999Z</time></trkpt><trkpt lat="44.81233215579349" lon="8.073573726569236"><ele>228.0</ele><time>2026-04-19T06:44:43.999Z</time></trkpt><trkpt lat="44.81226477804261" lon="8.073488429469549"><ele>228.0</ele><time>2026-04-19T06:44:44.999Z</time></trkpt><trkpt lat="44.812171652999545" lon="8.073530030819125"><ele>228.0</ele><time>2026-04-19T06:44:46.999Z</time></trkpt><trkpt lat="44.812091298754666" lon="8.07353241746522"><ele>228.0</ele><time>2026-04-19T06:44:47.999Z</time></trkpt><trkpt lat="44.811997629838345" lon="8.073532852925537"><ele>228.0</ele><time>2026-04-19T06:44:48.999Z</time></trkpt><trkpt lat="44.81189092991454" lon="8.073518671226509"><ele>229.0</ele><time>2026-04-19T06:44:49.999Z</time></trkpt><trkpt lat="44.81178113868337" lon="8.073524034437645"><ele>230.0</ele><time>2026-04-19T06:44:50.999Z</time></trkpt><trkpt lat="44.81165812590666" lon="8.073517480792331"><ele>231.0</ele><time>2026-04-19T06:44:51.999Z</time></trkpt><trkpt lat="44.81154831257313" lon="8.073554520547649"><ele>232.0</ele><time>2026-04-19T06:44:52.999Z</time></trkpt><trkpt lat="44.811449450886464" lon="8.07356620010571"><ele>233.0</ele><time>2026-04-19T06:44:53.999Z</time></trkpt><trkpt lat="44.81136882673039" lon="8.073599338789343"><ele>233.0</ele><time>2026-04-19T06:44:54.999Z</time></trkpt><trkpt lat="44.8112796376879" lon="8.07363496494359"><ele>233.0</ele><time>2026-04-19T06:44:55.999Z</time></trkpt><trkpt lat="44.81118813549989" lon="8.073681470238284"><ele>233.0</ele><time>2026-04-19T06:44:56.999Z</time></trkpt><trkpt lat="44.81109094159486" lon="8.07374137112288"><ele>233.0</ele><time>2026-04-19T06:44:57.999Z</time></trkpt><trkpt lat="44.81098174840386" lon="8.073788146344146"><ele>233.0</ele><time>2026-04-19T06:44:58.999Z</time></trkpt><trkpt lat="44.81090288672596" lon="8.073834715978132"><ele>234.16666666666669</ele><time>2026-04-19T06:44:59.999Z</time></trkpt><trkpt lat="44.810828427829875" lon="8.07387655433308"><ele>235.33333333333334</ele><time>2026-04-19T06:45:00.999Z</time></trkpt><trkpt lat="44.81074352837432" lon="8.073900616720714"><ele>236.5</ele><time>2026-04-19T06:45:01.999Z</time></trkpt><trkpt lat="44.81066024860296" lon="8.073919505151634"><ele>237.66666666666669</ele><time>2026-04-19T06:45:02.999Z</time></trkpt><trkpt lat="44.81057284686123" lon="8.07394788324315"><ele>238.83333333333334</ele><time>2026-04-19T06:45:03.999Z</time></trkpt><trkpt lat="44.81048044465608" lon="8.073984666597601"><ele>240.0</ele><time>2026-04-19T06:45:04.999Z</time></trkpt><trkpt lat="44.81038668262215" lon="8.074015952445432"><ele>240.0</ele><time>2026-04-19T06:45:05.999Z</time></trkpt><trkpt lat="44.810295228428835" lon="8.074042274974934"><ele>240.0</ele><time>2026-04-19T06:45:06.999Z</time></trkpt><trkpt lat="44.8102105039352" lon="8.074051522656154"><ele>240.0</ele><time>2026-04-19T06:45:07.999Z</time></trkpt><trkpt lat="44.810120894275805" lon="8.074049686266322"><ele>240.0</ele><time>2026-04-19T06:45:08.999Z</time></trkpt><trkpt lat="44.81002467884001" lon="8.074054857014566"><ele>240.0</ele><time>2026-04-19T06:45:09.999Z</time></trkpt><trkpt lat="44.80991922932469" lon="8.074034840300161"><ele>240.6</ele><time>2026-04-19T06:45:10.999Z</time></trkpt><trkpt lat="44.80982655603597" lon="8.074016871483753"><ele>241.2</ele><time>2026-04-19T06:45:11.999Z</time></trkpt><trkpt lat="44.80972324071841" lon="8.073980803340795"><ele>241.8</ele><time>2026-04-19T06:45:12.999Z</time></trkpt><trkpt lat="44.809625787384" lon="8.073960183484363"><ele>242.4</ele><time>2026-04-19T06:45:13.999Z</time></trkpt><trkpt lat="44.809537698823995" lon="8.073938183645359"><ele>243.0</ele><time>2026-04-19T06:45:14.999Z</time></trkpt><trkpt lat="44.809454175251844" lon="8.073953021780477"><ele>243.0</ele><time>2026-04-19T06:45:16Z</time></trkpt><trkpt lat="44.809377072749356" lon="8.073992310376685"><ele>243.0</ele><time>2026-04-19T06:45:17Z</time></trkpt><trkpt lat="44.80931261104716" lon="8.074048788758159"><ele>243.0</ele><time>2026-04-19T06:45:18Z</time></trkpt><trkpt lat="44.80924009126439" lon="8.074137997087464"><ele>243.0</ele><time>2026-04-19T06:45:19Z</time></trkpt><trkpt lat="44.80917521697202" lon="8.074229595833275"><ele>243.0</ele><time>2026-04-19T06:45:20Z</time></trkpt><trkpt lat="44.809094661010334" lon="8.07431631707584"><ele>243.0</ele><time>2026-04-19T06:45:21Z</time></trkpt><trkpt lat="44.80902892876672" lon="8.074401925222983"><ele>243.0</ele><time>2026-04-19T06:45:22Z</time></trkpt><trkpt lat="44.80895071247636" lon="8.074503420456367"><ele>243.0</ele><time>2026-04-19T06:45:23Z</time></trkpt><trkpt lat="44.80888717565087" lon="8.07461397015238"><ele>243.0</ele><time>2026-04-19T06:45:24Z</time></trkpt><trkpt lat="44.80883323686824" lon="8.074710316828844"><ele>243.0</ele><time>2026-04-19T06:45:25Z</time></trkpt><trkpt lat="44.80879272898739" lon="8.074810306291546"><ele>243.0</ele><time>2026-04-19T06:45:26Z</time></trkpt><trkpt lat="44.80875047411989" lon="8.07491672217762"><ele>243.4</ele><time>2026-04-19T06:45:27Z</time></trkpt><trkpt lat="44.80869583845312" lon="8.075031735782401"><ele>243.8</ele><time>2026-04-19T06:45:28Z</time></trkpt><trkpt lat="44.80863829430526" lon="8.07516920894563"><ele>244.2</ele><time>2026-04-19T06:45:29Z</time></trkpt><trkpt lat="44.80859703637662" lon="8.07528860483523"><ele>244.6</ele><time>2026-04-19T06:45:30Z</time></trkpt><trkpt lat="44.80854179880963" lon="8.075395373588128"><ele>245.0</ele><time>2026-04-19T06:45:31Z</time></trkpt><trkpt lat="44.80847247955263" lon="8.075500746742025"><ele>245.0</ele><time>2026-04-19T06:45:32Z</time></trkpt><trkpt lat="44.80839061975653" lon="8.07562692330899"><ele>245.0</ele><time>2026-04-19T06:45:33Z</time></trkpt><trkpt lat="44.80831241501234" lon="8.0757588808323"><ele>245.0</ele><time>2026-04-19T06:45:34Z</time></trkpt><trkpt lat="44.8082483072353" lon="8.07589480279766"><ele>245.0</ele><time>2026-04-19T06:45:35Z</time></trkpt><trkpt lat="44.80819934809797" lon="8.076033674574576"><ele>245.75</ele><time>2026-04-19T06:45:36Z</time></trkpt><trkpt lat="44.80815424108106" lon="8.076187039746385"><ele>246.5</ele><time>2026-04-19T06:45:37Z</time></trkpt><trkpt lat="44.808101022269746" lon="8.076352233368166"><ele>247.25</ele><time>2026-04-19T06:45:38Z</time></trkpt><trkpt lat="44.80804455972248" lon="8.076520445168919"><ele>248.0</ele><time>2026-04-19T06:45:39Z</time></trkpt><trkpt lat="44.80797974940989" lon="8.07668485326905"><ele>248.0</ele><time>2026-04-19T06:45:40Z</time></trkpt><trkpt lat="44.807916109711925" lon="8.076842867588708"><ele>248.0</ele><time>2026-04-19T06:45:41Z</time></trkpt><trkpt lat="44.807850801293256" lon="8.076985197388595"><ele>248.0</ele><time>2026-04-19T06:45:42Z</time></trkpt><trkpt lat="44.80778192228739" lon="8.077125087154492"><ele>248.0</ele><time>2026-04-19T06:45:43Z</time></trkpt><trkpt lat="44.80770665959685" lon="8.077258432481319"><ele>247.75</ele><time>2026-04-19T06:45:44Z</time></trkpt><trkpt lat="44.807644023231745" lon="8.07740793197717"><ele>247.5</ele><time>2026-04-19T06:45:45Z</time></trkpt><trkpt lat="44.807588221403655" lon="8.077547652121092"><ele>247.25</ele><time>2026-04-19T06:45:46Z</time></trkpt><trkpt lat="44.80753869507963" lon="8.077695655800234"><ele>247.0</ele><time>2026-04-19T06:45:47Z</time></trkpt><trkpt lat="44.80749490310244" lon="8.077839424755856"><ele>248.8</ele><time>2026-04-19T06:45:48Z</time></trkpt><trkpt lat="44.80745726773631" lon="8.077981638251048"><ele>250.6</ele><time>2026-04-19T06:45:49Z</time></trkpt><trkpt lat="44.807431071559584" lon="8.078109077747312"><ele>252.40000000000003</ele><time>2026-04-19T06:45:50Z</time></trkpt><trkpt lat="44.80738993989864" lon="8.07822873675002"><ele>254.20000000000002</ele><time>2026-04-19T06:45:51Z</time></trkpt><trkpt lat="44.807357352077645" lon="8.078339160296116"><ele>256.0</ele><time>2026-04-19T06:45:52Z</time></trkpt><trkpt lat="44.807333651771835" lon="8.0784464812867"><ele>256.16666666666663</ele><time>2026-04-19T06:45:53Z</time></trkpt><trkpt lat="44.807314125540366" lon="8.078549343366406"><ele>256.3333333333333</ele><time>2026-04-19T06:45:54Z</time></trkpt><trkpt lat="44.807285480911574" lon="8.07867060725309"><ele>256.5</ele><time>2026-04-19T06:45:56Z</time></trkpt><trkpt lat="44.807299853225786" lon="8.07875867797546"><ele>256.6666666666667</ele><time>2026-04-19T06:45:58Z</time></trkpt><trkpt lat="44.80738955804164" lon="8.078753861848075"><ele>256.83333333333337</ele><time>2026-04-19T06:45:59Z</time></trkpt><trkpt lat="44.80748387786068" lon="8.0787159904207"><ele>257.0</ele><time>2026-04-19T06:46:00Z</time></trkpt><trkpt lat="44.80758956628618" lon="8.078704861677698"><ele>254.8</ele><time>2026-04-19T06:46:01Z</time></trkpt><trkpt lat="44.80771898619242" lon="8.078711485345647"><ele>252.6</ele><time>2026-04-19T06:46:02Z</time></trkpt><trkpt lat="44.80782405319168" lon="8.078733028913257"><ele>250.40000000000003</ele><time>2026-04-19T06:46:03Z</time></trkpt><trkpt lat="44.80792921927304" lon="8.078736550486255"><ele>248.20000000000002</ele><time>2026-04-19T06:46:04Z</time></trkpt><trkpt lat="44.808027612238526" lon="8.078722216088163"><ele>246.0</ele><time>2026-04-19T06:46:05Z</time></trkpt><trkpt lat="44.80811877086911" lon="8.078711149793302"><ele>246.0</ele><time>2026-04-19T06:46:06Z</time></trkpt><trkpt lat="44.8082130106004" lon="8.078702091696595"><ele>246.0</ele><time>2026-04-19T06:46:07Z</time></trkpt><trkpt lat="44.8082998978987" lon="8.07869341713615"><ele>246.0</ele><time>2026-04-19T06:46:08Z</time></trkpt><trkpt lat="44.80839068945743" lon="8.07868925007103"><ele>246.0</ele><time>2026-04-19T06:46:09Z</time></trkpt><trkpt lat="44.80847861056625" lon="8.07866292920164"><ele>246.0</ele><time>2026-04-19T06:46:10Z</time></trkpt><trkpt lat="44.8085497637941" lon="8.078674821710507"><ele>246.0</ele><time>2026-04-19T06:46:11Z</time></trkpt><trkpt lat="44.8086427886944" lon="8.07871569172092"><ele>246.4</ele><time>2026-04-19T06:46:12Z</time></trkpt><trkpt lat="44.80874172884817" lon="8.078780822107452"><ele>246.8</ele><time>2026-04-19T06:46:13Z</time></trkpt><trkpt lat="44.808844076894474" lon="8.078862526637968"><ele>247.20000000000002</ele><time>2026-04-19T06:46:14Z</time></trkpt><trkpt lat="44.808917414648654" lon="8.078934743083554"><ele>247.60000000000002</ele><time>2026-04-19T06:46:15Z</time></trkpt><trkpt lat="44.80897886676715" lon="8.079007027927466"><ele>248.0</ele><time>2026-04-19T06:46:16Z</time></trkpt><trkpt lat="44.80903158408305" lon="8.079099724414487"><ele>246.8</ele><time>2026-04-19T06:46:17Z</time></trkpt><trkpt lat="44.80909391676605" lon="8.079169818175204"><ele>245.60000000000002</ele><time>2026-04-19T06:46:18Z</time></trkpt><trkpt lat="44.8091879400361" lon="8.079243927661604"><ele>244.39999999999998</ele><time>2026-04-19T06:46:19Z</time></trkpt><trkpt lat="44.80927488842816" lon="8.079300333613157"><ele>243.2</ele><time>2026-04-19T06:46:20Z</time></trkpt><trkpt lat="44.80935479953805" lon="8.079358639853295"><ele>242.0</ele><time>2026-04-19T06:46:21Z</time></trkpt><trkpt lat="44.80943583718176" lon="8.07941963119293"><ele>242.0</ele><time>2026-04-19T06:46:22Z</time></trkpt><trkpt lat="44.80950967216077" lon="8.079475971938288"><ele>242.0</ele><time>2026-04-19T06:46:23Z</time></trkpt><trkpt lat="44.80958178875864" lon="8.079525867364739"><ele>242.0</ele><time>2026-04-19T06:46:24Z</time></trkpt><trkpt lat="44.809669958223985" lon="8.079563565974597"><ele>242.0</ele><time>2026-04-19T06:46:25Z</time></trkpt><trkpt lat="44.80976719768976" lon="8.079602258350313"><ele>242.0</ele><time>2026-04-19T06:46:26Z</time></trkpt><trkpt lat="44.80987005737359" lon="8.079606994604914"><ele>242.0</ele><time>2026-04-19T06:46:27Z</time></trkpt><trkpt lat="44.809968093417666" lon="8.079665662986466"><ele>242.0</ele><time>2026-04-19T06:46:28Z</time></trkpt><trkpt lat="44.81005727438511" lon="8.079706371640398"><ele>242.0</ele><time>2026-04-19T06:46:29Z</time></trkpt><trkpt lat="44.810144348893374" lon="8.07975984242474"><ele>242.0</ele><time>2026-04-19T06:46:30Z</time></trkpt><trkpt lat="44.81022137389778" lon="8.079817498071485"><ele>242.0</ele><time>2026-04-19T06:46:31Z</time></trkpt><trkpt lat="44.81028478976265" lon="8.079883776196974"><ele>238.39999999999998</ele><time>2026-04-19T06:46:32Z</time></trkpt><trkpt lat="44.810357164948144" lon="8.079841158954144"><ele>234.79999999999998</ele><time>2026-04-19T06:46:35Z</time></trkpt><trkpt lat="44.81036410536713" lon="8.079752238284636"><ele>231.2</ele><time>2026-04-19T06:46:36Z</time></trkpt><trkpt lat="44.81035577872338" lon="8.079620457831505"><ele>227.6</ele><time>2026-04-19T06:46:37Z</time></trkpt><trkpt lat="44.81035376812616" lon="8.07947205325962"><ele>224.0</ele><time>2026-04-19T06:46:38Z</time></trkpt><trkpt lat="44.810361003345385" lon="8.079295764681286"><ele>226.0</ele><time>2026-04-19T06:46:39Z</time></trkpt><trkpt lat="44.81035486420844" lon="8.0790949206603"><ele>228.0</ele><time>2026-04-19T06:46:40Z</time></trkpt><trkpt lat="44.810376477695215" lon="8.078912791672684"><ele>230.0</ele><time>2026-04-19T06:46:41Z</time></trkpt><trkpt lat="44.810420684181445" lon="8.078771580798433"><ele>232.0</ele><time>2026-04-19T06:46:42Z</time></trkpt><trkpt lat="44.810488133360984" lon="8.078641091680229"><ele>232.0</ele><time>2026-04-19T06:46:43Z</time></trkpt><trkpt lat="44.810562114986844" lon="8.078510495774829"><ele>232.0</ele><time>2026-04-19T06:46:44Z</time></trkpt><trkpt lat="44.81064423189126" lon="8.078397975401877"><ele>232.0</ele><time>2026-04-19T06:46:45Z</time></trkpt><trkpt lat="44.8107280949203" lon="8.078291705595545"><ele>232.0</ele><time>2026-04-19T06:46:46Z</time></trkpt><trkpt lat="44.81080530488256" lon="8.078183701981088"><ele>231.16666666666666</ele><time>2026-04-19T06:46:47Z</time></trkpt><trkpt lat="44.8108641709562" lon="8.078079636730072"><ele>230.33333333333331</ele><time>2026-04-19T06:46:48Z</time></trkpt><trkpt lat="44.81091743969641" lon="8.07798980476611"><ele>229.5</ele><time>2026-04-19T06:46:49Z</time></trkpt><trkpt lat="44.810979583876" lon="8.077922370898762"><ele>228.66666666666669</ele><time>2026-04-19T06:46:49.999Z</time></trkpt><trkpt lat="44.811064652228325" lon="8.077907194444983"><ele>227.83333333333334</ele><time>2026-04-19T06:46:50.999Z</time></trkpt><trkpt lat="44.81115172426468" lon="8.077890428775552"><ele>227.0</ele><time>2026-04-19T06:46:51.999Z</time></trkpt><trkpt lat="44.811261083710406" lon="8.077862937765824"><ele>226.5</ele><time>2026-04-19T06:46:52.999Z</time></trkpt><trkpt lat="44.81137123139746" lon="8.077808751513738"><ele>226.0</ele><time>2026-04-19T06:46:53.999Z</time></trkpt><trkpt lat="44.81148671275099" lon="8.07779530835267"><ele>225.5</ele><time>2026-04-19T06:46:54.999Z</time></trkpt><trkpt lat="44.81160053095242" lon="8.07782304429953"><ele>225.0</ele><time>2026-04-19T06:46:55.999Z</time></trkpt><trkpt lat="44.81171279193725" lon="8.07782189064353"><ele>224.0</ele><time>2026-04-19T06:46:56.999Z</time></trkpt><trkpt lat="44.81183104608281" lon="8.07784012839209"><ele>223.0</ele><time>2026-04-19T06:46:57.999Z</time></trkpt><trkpt lat="44.81195810064611" lon="8.077869392388987"><ele>222.0</ele><time>2026-04-19T06:46:58.999Z</time></trkpt><trkpt lat="44.81209033463528" lon="8.077904836834021"><ele>221.0</ele><time>2026-04-19T06:46:59.999Z</time></trkpt><trkpt lat="44.8122230109463" lon="8.077941185016105"><ele>221.0</ele><time>2026-04-19T06:47:00.999Z</time></trkpt><trkpt lat="44.81235864715863" lon="8.077981582652326"><ele>221.0</ele><time>2026-04-19T06:47:01.999Z</time></trkpt><trkpt lat="44.812491901358406" lon="8.077990386837296"><ele>221.0</ele><time>2026-04-19T06:47:02.999Z</time></trkpt><trkpt lat="44.812616358276706" lon="8.078000053037323"><ele>221.0</ele><time>2026-04-19T06:47:03.999Z</time></trkpt><trkpt lat="44.8127343123005" lon="8.078036544004208"><ele>221.0</ele><time>2026-04-19T06:47:04.999Z</time></trkpt><trkpt lat="44.812851151344944" lon="8.078052066671948"><ele>221.0</ele><time>2026-04-19T06:47:05.999Z</time></trkpt><trkpt lat="44.812969426029916" lon="8.078053552328317"><ele>221.0</ele><time>2026-04-19T06:47:06.999Z</time></trkpt><trkpt lat="44.813085032080615" lon="8.078073976709808"><ele>221.0</ele><time>2026-04-19T06:47:07.999Z</time></trkpt><trkpt lat="44.81321532565281" lon="8.078118031756576"><ele>221.0</ele><time>2026-04-19T06:47:08.999Z</time></trkpt><trkpt lat="44.81334596227862" lon="8.07814191112716"><ele>221.0</ele><time>2026-04-19T06:47:09.999Z</time></trkpt><trkpt lat="44.81347680883512" lon="8.078149677057496"><ele>221.0</ele><time>2026-04-19T06:47:10.999Z</time></trkpt><trkpt lat="44.81360542452061" lon="8.078185774201186"><ele>221.0</ele><time>2026-04-19T06:47:11.999Z</time></trkpt><trkpt lat="44.81373578272214" lon="8.078205461721234"><ele>220.75</ele><time>2026-04-19T06:47:12.999Z</time></trkpt><trkpt lat="44.813864637175584" lon="8.078227401614482"><ele>220.5</ele><time>2026-04-19T06:47:13.999Z</time></trkpt><trkpt lat="44.81399582326462" lon="8.078237681408108"><ele>220.25</ele><time>2026-04-19T06:47:14.999Z</time></trkpt><trkpt lat="44.814123694689314" lon="8.078287625749155"><ele>220.0</ele><time>2026-04-19T06:47:15.999Z</time></trkpt><trkpt lat="44.814245457926795" lon="8.078348538931037"><ele>224.75</ele><time>2026-04-19T06:47:16.999Z</time></trkpt><trkpt lat="44.81435065802922" lon="8.078437374386498"><ele>229.5</ele><time>2026-04-19T06:47:17.999Z</time></trkpt><trkpt lat="44.814463237960574" lon="8.078534199664908"><ele>234.25</ele><time>2026-04-19T06:47:18.999Z</time></trkpt><trkpt lat="44.81455892250005" lon="8.078638695194101"><ele>239.0</ele><time>2026-04-19T06:47:19.999Z</time></trkpt><trkpt lat="44.814645852950555" lon="8.07875348560451"><ele>239.0</ele><time>2026-04-19T06:47:20.999Z</time></trkpt><trkpt lat="44.814733648346945" lon="8.078846004519008"><ele>238.99999999999997</ele><time>2026-04-19T06:47:22Z</time></trkpt><trkpt lat="44.814806641995524" lon="8.07892636938263"><ele>238.99999999999997</ele><time>2026-04-19T06:47:23Z</time></trkpt><trkpt lat="44.81487501783387" lon="8.078997738536057"><ele>239.0</ele><time>2026-04-19T06:47:24Z</time></trkpt><trkpt lat="44.81494223020979" lon="8.079060317233315"><ele>239.0</ele><time>2026-04-19T06:47:25Z</time></trkpt><trkpt lat="44.81502110550558" lon="8.079103978206243"><ele>238.79999999999998</ele><time>2026-04-19T06:47:26Z</time></trkpt><trkpt lat="44.81509499398029" lon="8.079167368493883"><ele>238.59999999999997</ele><time>2026-04-19T06:47:27Z</time></trkpt><trkpt lat="44.81516448015271" lon="8.079244901630723"><ele>238.4</ele><time>2026-04-19T06:47:28Z</time></trkpt><trkpt lat="44.81525432014479" lon="8.07930198021317"><ele>238.2</ele><time>2026-04-19T06:47:29Z</time></trkpt><trkpt lat="44.815340955264155" lon="8.07935081728148"><ele>238.0</ele><time>2026-04-19T06:47:30Z</time></trkpt><trkpt lat="44.81543726843615" lon="8.079394727700025"><ele>236.2</ele><time>2026-04-19T06:47:31Z</time></trkpt><trkpt lat="44.815529561511205" lon="8.079438441255434"><ele>234.4</ele><time>2026-04-19T06:47:32Z</time></trkpt><trkpt lat="44.815622609456106" lon="8.07946888854805"><ele>232.59999999999997</ele><time>2026-04-19T06:47:33Z</time></trkpt><trkpt lat="44.815685732420725" lon="8.079577547600588"><ele>230.79999999999998</ele><time>2026-04-19T06:47:34Z</time></trkpt><trkpt lat="44.81575908016133" lon="8.079689839634518"><ele>229.0</ele><time>2026-04-19T06:47:35Z</time></trkpt><trkpt lat="44.81582914072689" lon="8.079800771485353"><ele>229.0</ele><time>2026-04-19T06:47:36Z</time></trkpt><trkpt lat="44.81591801233464" lon="8.079920718879452"><ele>229.0</ele><time>2026-04-19T06:47:37Z</time></trkpt><trkpt lat="44.81598942182059" lon="8.080072383330002"><ele>229.0</ele><time>2026-04-19T06:47:38Z</time></trkpt><trkpt lat="44.81607711427689" lon="8.080186052595293"><ele>229.0</ele><time>2026-04-19T06:47:39Z</time></trkpt><trkpt lat="44.81616838916094" lon="8.08029630617824"><ele>227.5</ele><time>2026-04-19T06:47:40Z</time></trkpt><trkpt lat="44.81626514496743" lon="8.080390122485953"><ele>226.0</ele><time>2026-04-19T06:47:41Z</time></trkpt><trkpt lat="44.81637956103693" lon="8.080473359494516"><ele>224.5</ele><time>2026-04-19T06:47:42Z</time></trkpt><trkpt lat="44.81648707621747" lon="8.080522992324875"><ele>223.0</ele><time>2026-04-19T06:47:43Z</time></trkpt><trkpt lat="44.81660597934322" lon="8.080542306427892"><ele>223.0</ele><time>2026-04-19T06:47:44Z</time></trkpt><trkpt lat="44.81672818160291" lon="8.080551447340923"><ele>223.0</ele><time>2026-04-19T06:47:45Z</time></trkpt><trkpt lat="44.816836292792686" lon="8.080573978058858"><ele>223.0</ele><time>2026-04-19T06:47:46Z</time></trkpt><trkpt lat="44.816943893677184" lon="8.080585999683187"><ele>223.0</ele><time>2026-04-19T06:47:47Z</time></trkpt><trkpt lat="44.81704512349807" lon="8.080612903817732"><ele>223.0</ele><time>2026-04-19T06:47:48Z</time></trkpt><trkpt lat="44.81713657118838" lon="8.080620595455574"><ele>221.49999999999997</ele><time>2026-04-19T06:47:49Z</time></trkpt><trkpt lat="44.8172170701673" lon="8.080610768617237"><ele>220.0</ele><time>2026-04-19T06:47:50Z</time></trkpt><trkpt lat="44.817291268519405" lon="8.080609251464365"><ele>218.5</ele><time>2026-04-19T06:47:51Z</time></trkpt><trkpt lat="44.81735758667421" lon="8.080665474888407"><ele>217.0</ele><time>2026-04-19T06:47:52Z</time></trkpt><trkpt lat="44.8174574409414" lon="8.08069159708617"><ele>215.49999999999997</ele><time>2026-04-19T06:47:53Z</time></trkpt><trkpt lat="44.817565426804876" lon="8.080744785781787"><ele>214.0</ele><time>2026-04-19T06:47:54Z</time></trkpt><trkpt lat="44.8176710243833" lon="8.08078416910409"><ele>215.5</ele><time>2026-04-19T06:47:55Z</time></trkpt><trkpt lat="44.81779178223791" lon="8.080791462342482"><ele>217.0</ele><time>2026-04-19T06:47:56Z</time></trkpt><trkpt lat="44.81792196615448" lon="8.0807723318462"><ele>218.5</ele><time>2026-04-19T06:47:57Z</time></trkpt><trkpt lat="44.818062671719005" lon="8.080726540391206"><ele>220.0</ele><time>2026-04-19T06:47:58Z</time></trkpt><trkpt lat="44.8181957665939" lon="8.080672508438383"><ele>220.0</ele><time>2026-04-19T06:47:59Z</time></trkpt><trkpt lat="44.818302678159" lon="8.08061690458112"><ele>220.0</ele><time>2026-04-19T06:48:00Z</time></trkpt><trkpt lat="44.818411495689965" lon="8.080562149636913"><ele>220.0</ele><time>2026-04-19T06:48:01Z</time></trkpt><trkpt lat="44.81851735578617" lon="8.08047268043502"><ele>220.0</ele><time>2026-04-19T06:48:02Z</time></trkpt><trkpt lat="44.81861625867243" lon="8.080346071430538"><ele>220.75</ele><time>2026-04-19T06:48:03Z</time></trkpt><trkpt lat="44.81871471577308" lon="8.080206998627135"><ele>221.5</ele><time>2026-04-19T06:48:04Z</time></trkpt><trkpt lat="44.81881309665912" lon="8.080077970219598"><ele>222.25</ele><time>2026-04-19T06:48:05Z</time></trkpt><trkpt lat="44.81890805330707" lon="8.079988870640104"><ele>223.0</ele><time>2026-04-19T06:48:06Z</time></trkpt><trkpt lat="44.81901776197435" lon="8.07991906548377"><ele>222.99999999999997</ele><time>2026-04-19T06:48:07Z</time></trkpt><trkpt lat="44.81911817576642" lon="8.079844385368716"><ele>223.0</ele><time>2026-04-19T06:48:08Z</time></trkpt><trkpt lat="44.81920838854001" lon="8.079772499173886"><ele>223.0</ele><time>2026-04-19T06:48:09Z</time></trkpt><trkpt lat="44.8192745419261" lon="8.07970048337238"><ele>223.0</ele><time>2026-04-19T06:48:10Z</time></trkpt><trkpt lat="44.81933752800092" lon="8.079677600597245"><ele>222.99999999999997</ele><time>2026-04-19T06:48:11Z</time></trkpt><trkpt lat="44.81941012074557" lon="8.079729236319219"><ele>223.0</ele><time>2026-04-19T06:48:12Z</time></trkpt><trkpt lat="44.819500888450705" lon="8.07974578581587"><ele>224.60000000000002</ele><time>2026-04-19T06:48:13Z</time></trkpt><trkpt lat="44.8195977205485" lon="8.07973648722916"><ele>226.20000000000002</ele><time>2026-04-19T06:48:14Z</time></trkpt><trkpt lat="44.81969016481927" lon="8.07969466852971"><ele>227.8</ele><time>2026-04-19T06:48:15Z</time></trkpt><trkpt lat="44.81978610462085" lon="8.079609065772562"><ele>229.4</ele><time>2026-04-19T06:48:16Z</time></trkpt><trkpt lat="44.819883059864594" lon="8.079516474058062"><ele>231.0</ele><time>2026-04-19T06:48:17Z</time></trkpt><trkpt lat="44.81996086380767" lon="8.079441179862442"><ele>231.0</ele><time>2026-04-19T06:48:18Z</time></trkpt><trkpt lat="44.82003322516276" lon="8.079378254035882"><ele>231.0</ele><time>2026-04-19T06:48:19Z</time></trkpt><trkpt lat="44.820106340481395" lon="8.079352047507102"><ele>231.0</ele><time>2026-04-19T06:48:20Z</time></trkpt><trkpt lat="44.82017748001632" lon="8.07931040710086"><ele>231.0</ele><time>2026-04-19T06:48:21Z</time></trkpt><trkpt lat="44.82025461614508" lon="8.079272921472645"><ele>231.0</ele><time>2026-04-19T06:48:22Z</time></trkpt><trkpt lat="44.82033503700732" lon="8.079245700445105"><ele>231.0</ele><time>2026-04-19T06:48:23Z</time></trkpt><trkpt lat="44.820422064181415" lon="8.079229312649645"><ele>229.8</ele><time>2026-04-19T06:48:24Z</time></trkpt><trkpt lat="44.82050914963617" lon="8.079227687792583"><ele>228.60000000000002</ele><time>2026-04-19T06:48:25Z</time></trkpt><trkpt lat="44.82060259297296" lon="8.079255573910883"><ele>227.4</ele><time>2026-04-19T06:48:26Z</time></trkpt><trkpt lat="44.82070560779868" lon="8.079293620425409"><ele>226.2</ele><time>2026-04-19T06:48:27Z</time></trkpt><trkpt lat="44.82082398031962" lon="8.079301586355706"><ele>225.0</ele><time>2026-04-19T06:48:28Z</time></trkpt><trkpt lat="44.820933767607904" lon="8.079345991269436"><ele>224.25</ele><time>2026-04-19T06:48:29Z</time></trkpt><trkpt lat="44.821053284550786" lon="8.079376551666753"><ele>223.5</ele><time>2026-04-19T06:48:30Z</time></trkpt><trkpt lat="44.821182981290036" lon="8.079403873105472"><ele>222.75</ele><time>2026-04-19T06:48:31Z</time></trkpt><trkpt lat="44.82131378848265" lon="8.079405413590559"><ele>222.0</ele><time>2026-04-19T06:48:32Z</time></trkpt><trkpt lat="44.8214501260508" lon="8.079392736865396"><ele>222.0</ele><time>2026-04-19T06:48:33Z</time></trkpt><trkpt lat="44.82157880432899" lon="8.079376320488313"><ele>222.0</ele><time>2026-04-19T06:48:34Z</time></trkpt><trkpt lat="44.8216951432526" lon="8.07936575194847"><ele>222.0</ele><time>2026-04-19T06:48:35Z</time></trkpt><trkpt lat="44.82180860680161" lon="8.079358921545628"><ele>222.0</ele><time>2026-04-19T06:48:36Z</time></trkpt><trkpt lat="44.82191765505444" lon="8.079335601820656"><ele>222.25</ele><time>2026-04-19T06:48:37Z</time></trkpt><trkpt lat="44.82202416258088" lon="8.079297608003994"><ele>222.5</ele><time>2026-04-19T06:48:38Z</time></trkpt><trkpt lat="44.82213543748357" lon="8.07924004446633"><ele>222.75</ele><time>2026-04-19T06:48:39Z</time></trkpt><trkpt lat="44.82225868017115" lon="8.079161195422587"><ele>223.0</ele><time>2026-04-19T06:48:40Z</time></trkpt><trkpt lat="44.822374215128846" lon="8.079074061415527"><ele>223.0</ele><time>2026-04-19T06:48:41Z</time></trkpt><trkpt lat="44.822479199948035" lon="8.079006183239935"><ele>223.0</ele><time>2026-04-19T06:48:42Z</time></trkpt><trkpt lat="44.82257695985037" lon="8.07895761831794"><ele>223.0</ele><time>2026-04-19T06:48:43Z</time></trkpt><trkpt lat="44.82267354495045" lon="8.078911257265604"><ele>223.0</ele><time>2026-04-19T06:48:44Z</time></trkpt><trkpt lat="44.822771344649794" lon="8.078875196685182"><ele>223.0</ele><time>2026-04-19T06:48:45Z</time></trkpt><trkpt lat="44.82287831081049" lon="8.078841390149151"><ele>223.0</ele><time>2026-04-19T06:48:46Z</time></trkpt><trkpt lat="44.82299349553266" lon="8.078800221332019"><ele>223.0</ele><time>2026-04-19T06:48:47Z</time></trkpt><trkpt lat="44.82310877756293" lon="8.078762647295783"><ele>223.0</ele><time>2026-04-19T06:48:48Z</time></trkpt><trkpt lat="44.82321605709085" lon="8.078740760561631"><ele>223.0</ele><time>2026-04-19T06:48:49Z</time></trkpt><trkpt lat="44.823318881519775" lon="8.078726392725097"><ele>223.0</ele><time>2026-04-19T06:48:50Z</time></trkpt><trkpt lat="44.82342032030513" lon="8.078707567749573"><ele>222.0</ele><time>2026-04-19T06:48:51Z</time></trkpt><trkpt lat="44.82350846673002" lon="8.078683694739983"><ele>221.0</ele><time>2026-04-19T06:48:52Z</time></trkpt><trkpt lat="44.8235934190686" lon="8.078649728018583"><ele>220.0</ele><time>2026-04-19T06:48:53Z</time></trkpt><trkpt lat="44.82367150005576" lon="8.078597597979206"><ele>219.0</ele><time>2026-04-19T06:48:54Z</time></trkpt><trkpt lat="44.82377707010725" lon="8.078512647709715"><ele>218.0</ele><time>2026-04-19T06:48:56Z</time></trkpt><trkpt lat="44.823820193393715" lon="8.078440208209773"><ele>218.0</ele><time>2026-04-19T06:48:57Z</time></trkpt><trkpt lat="44.8238650787375" lon="8.078331470253554"><ele>218.0</ele><time>2026-04-19T06:48:58Z</time></trkpt><trkpt lat="44.823889408047435" lon="8.0782000649741"><ele>218.0</ele><time>2026-04-19T06:48:59Z</time></trkpt><trkpt lat="44.82389625611548" lon="8.078073124444023"><ele>218.0</ele><time>2026-04-19T06:49:00Z</time></trkpt><trkpt lat="44.82390229356986" lon="8.077947789180135"><ele>218.0</ele><time>2026-04-19T06:49:01Z</time></trkpt><trkpt lat="44.82391126504694" lon="8.077827238262639"><ele>216.8</ele><time>2026-04-19T06:49:02Z</time></trkpt><trkpt lat="44.82392222624845" lon="8.077709785859454"><ele>215.60000000000002</ele><time>2026-04-19T06:49:03Z</time></trkpt><trkpt lat="44.82396723908426" lon="8.077607212462103"><ele>214.39999999999998</ele><time>2026-04-19T06:49:05Z</time></trkpt><trkpt lat="44.82409940338076" lon="8.077638690764081"><ele>213.2</ele><time>2026-04-19T06:49:07Z</time></trkpt><trkpt lat="44.82419845668072" lon="8.077729764168042"><ele>212.0</ele><time>2026-04-19T06:49:08Z</time></trkpt><trkpt lat="44.82431928190428" lon="8.077800519981087"><ele>209.39999999999998</ele><time>2026-04-19T06:49:09Z</time></trkpt><trkpt lat="44.82443018058001" lon="8.07784179125342"><ele>206.79999999999998</ele><time>2026-04-19T06:49:10Z</time></trkpt><trkpt lat="44.824528841841826" lon="8.07786815572375"><ele>204.2</ele><time>2026-04-19T06:49:11Z</time></trkpt><trkpt lat="44.82461290727621" lon="8.077892114937464"><ele>201.6</ele><time>2026-04-19T06:49:12Z</time></trkpt><trkpt lat="44.82469258374429" lon="8.077903290205507"><ele>199.0</ele><time>2026-04-19T06:49:13Z</time></trkpt><trkpt lat="44.8247712952668" lon="8.077909648248575"><ele>198.99999999999997</ele><time>2026-04-19T06:49:14Z</time></trkpt><trkpt lat="44.82483839217201" lon="8.077888853388927"><ele>199.0</ele><time>2026-04-19T06:49:15Z</time></trkpt><trkpt lat="44.82490827387527" lon="8.077836631653183"><ele>199.0</ele><time>2026-04-19T06:49:16Z</time></trkpt><trkpt lat="44.82498146080429" lon="8.077763618814163"><ele>199.0</ele><time>2026-04-19T06:49:16.999Z</time></trkpt><trkpt lat="44.82505245558039" lon="8.077673078086415"><ele>198.99999999999997</ele><time>2026-04-19T06:49:17.999Z</time></trkpt><trkpt lat="44.82512838743342" lon="8.077583760610128"><ele>199.0</ele><time>2026-04-19T06:49:18.999Z</time></trkpt><trkpt lat="44.8252095103393" lon="8.077494392147617"><ele>195.39999999999998</ele><time>2026-04-19T06:49:19.999Z</time></trkpt><trkpt lat="44.82529540826717" lon="8.077395763822429"><ele>191.8</ele><time>2026-04-19T06:49:20.999Z</time></trkpt><trkpt lat="44.82539142836889" lon="8.077311688569987"><ele>188.2</ele><time>2026-04-19T06:49:21.999Z</time></trkpt><trkpt lat="44.82546974604113" lon="8.077251549466457"><ele>184.60000000000002</ele><time>2026-04-19T06:49:22.999Z</time></trkpt><trkpt lat="44.825546060623566" lon="8.07720347008638"><ele>181.0</ele><time>2026-04-19T06:49:23.999Z</time></trkpt><trkpt lat="44.82563546178476" lon="8.077168059028088"><ele>181.0</ele><time>2026-04-19T06:49:24.999Z</time></trkpt><trkpt lat="44.82573445886152" lon="8.077131674650662"><ele>181.0</ele><time>2026-04-19T06:49:25.999Z</time></trkpt><trkpt lat="44.82583546358139" lon="8.07711183306533"><ele>181.0</ele><time>2026-04-19T06:49:26.999Z</time></trkpt><trkpt lat="44.82594869301959" lon="8.077096330106597"><ele>181.0</ele><time>2026-04-19T06:49:28Z</time></trkpt><trkpt lat="44.826077172048905" lon="8.077084467017709"><ele>181.0</ele><time>2026-04-19T06:49:29Z</time></trkpt><trkpt lat="44.8262133176487" lon="8.077059449151271"><ele>178.0</ele><time>2026-04-19T06:49:30Z</time></trkpt><trkpt lat="44.82635687128882" lon="8.077036233964611"><ele>175.0</ele><time>2026-04-19T06:49:31Z</time></trkpt><trkpt lat="44.826496271457806" lon="8.07701046525089"><ele>172.0</ele><time>2026-04-19T06:49:32Z</time></trkpt><trkpt lat="44.82662991774425" lon="8.076971193954982"><ele>169.0</ele><time>2026-04-19T06:49:33Z</time></trkpt><trkpt lat="44.82674490175009" lon="8.076948761620548"><ele>168.0</ele><time>2026-04-19T06:49:34Z</time></trkpt><trkpt lat="44.82685658461701" lon="8.076950080111287"><ele>167.0</ele><time>2026-04-19T06:49:35Z</time></trkpt><trkpt lat="44.8269640365907" lon="8.076970678718967"><ele>166.0</ele><time>2026-04-19T06:49:36Z</time></trkpt><trkpt lat="44.8270724487955" lon="8.077023627177555"><ele>165.0</ele><time>2026-04-19T06:49:37Z</time></trkpt><trkpt lat="44.82718332718778" lon="8.07695567260767"><ele>165.0</ele><time>2026-04-19T06:49:38Z</time></trkpt><trkpt lat="44.8273031542629" lon="8.076931998583584"><ele>165.0</ele><time>2026-04-19T06:49:39Z</time></trkpt><trkpt lat="44.82741148008004" lon="8.076912468841936"><ele>165.0</ele><time>2026-04-19T06:49:40Z</time></trkpt><trkpt lat="44.82750921892349" lon="8.076907594021947"><ele>165.0</ele><time>2026-04-19T06:49:41Z</time></trkpt><trkpt lat="44.827582210941976" lon="8.076882316704229"><ele>165.0</ele><time>2026-04-19T06:49:42Z</time></trkpt><trkpt lat="44.82765717374148" lon="8.076893711810053"><ele>164.5</ele><time>2026-04-19T06:49:44Z</time></trkpt><trkpt lat="44.82770325059407" lon="8.07697982397729"><ele>164.0</ele><time>2026-04-19T06:49:46Z</time></trkpt><trkpt lat="44.82775143293843" lon="8.077093123602161"><ele>163.5</ele><time>2026-04-19T06:49:47Z</time></trkpt><trkpt lat="44.82782183906496" lon="8.077211450645699"><ele>163.0</ele><time>2026-04-19T06:49:48Z</time></trkpt><trkpt lat="44.827864711240366" lon="8.077329184752953"><ele>162.5</ele><time>2026-04-19T06:49:49Z</time></trkpt><trkpt lat="44.82789504980597" lon="8.077419545050336"><ele>162.0</ele><time>2026-04-19T06:49:50Z</time></trkpt><trkpt lat="44.82795018840563" lon="8.077505364597016"><ele>160.33333333333334</ele><time>2026-04-19T06:49:52Z</time></trkpt><trkpt lat="44.828115944821135" lon="8.07734373880884"><ele>158.66666666666669</ele><time>2026-04-19T06:49:55Z</time></trkpt><trkpt lat="44.82819963461269" lon="8.077194732079546"><ele>157.0</ele><time>2026-04-19T06:49:56Z</time></trkpt><trkpt lat="44.82832079031784" lon="8.077058029464904"><ele>157.0</ele><time>2026-04-19T06:49:57Z</time></trkpt><trkpt lat="44.82846220705559" lon="8.07692712405767"><ele>157.0</ele><time>2026-04-19T06:49:58Z</time></trkpt><trkpt lat="44.828631671673776" lon="8.076839213164789"><ele>157.0</ele><time>2026-04-19T06:49:59Z</time></trkpt><trkpt lat="44.828779035428035" lon="8.076762737104966"><ele>156.25</ele><time>2026-04-19T06:50:00Z</time></trkpt><trkpt lat="44.828917119231775" lon="8.076683632803254"><ele>155.5</ele><time>2026-04-19T06:50:01Z</time></trkpt><trkpt lat="44.82904469474859" lon="8.076600949181573"><ele>154.75</ele><time>2026-04-19T06:50:02Z</time></trkpt><trkpt lat="44.82918164685636" lon="8.076521442746724"><ele>154.0</ele><time>2026-04-19T06:50:03Z</time></trkpt><trkpt lat="44.82932477351673" lon="8.076440242350728"><ele>153.33333333333334</ele><time>2026-04-19T06:50:04Z</time></trkpt><trkpt lat="44.82947224014054" lon="8.076347494528878"><ele>152.66666666666666</ele><time>2026-04-19T06:50:05Z</time></trkpt><trkpt lat="44.829620220100274" lon="8.076256253859311"><ele>152.0</ele><time>2026-04-19T06:50:06Z</time></trkpt><trkpt lat="44.82976551627397" lon="8.076168168029223"><ele>152.0</ele><time>2026-04-19T06:50:07Z</time></trkpt><trkpt lat="44.82990229732941" lon="8.07608923974171"><ele>152.0</ele><time>2026-04-19T06:50:08Z</time></trkpt><trkpt lat="44.83002959996258" lon="8.07601760271644"><ele>152.0</ele><time>2026-04-19T06:50:09Z</time></trkpt><trkpt lat="44.83016189033214" lon="8.07593876298627"><ele>152.0</ele><time>2026-04-19T06:50:10Z</time></trkpt><trkpt lat="44.83029855270408" lon="8.075858365554462"><ele>152.0</ele><time>2026-04-19T06:50:11Z</time></trkpt><trkpt lat="44.830433382678756" lon="8.075781647066767"><ele>152.0</ele><time>2026-04-19T06:50:12Z</time></trkpt><trkpt lat="44.83055948009492" lon="8.075701394562468"><ele>152.0</ele><time>2026-04-19T06:50:13Z</time></trkpt><trkpt lat="44.83068803147509" lon="8.075622244135582"><ele>152.0</ele><time>2026-04-19T06:50:14Z</time></trkpt><trkpt lat="44.830807837018234" lon="8.075551363309174"><ele>152.25</ele><time>2026-04-19T06:50:15Z</time></trkpt><trkpt lat="44.830928897014324" lon="8.075481131771475"><ele>152.5</ele><time>2026-04-19T06:50:16Z</time></trkpt><trkpt lat="44.831059043619376" lon="8.075406535637585"><ele>152.75</ele><time>2026-04-19T06:50:17Z</time></trkpt><trkpt lat="44.83118304965346" lon="8.075332310696655"><ele>153.0</ele><time>2026-04-19T06:50:18Z</time></trkpt><trkpt lat="44.83129493647793" lon="8.075267582535123"><ele>153.0</ele><time>2026-04-19T06:50:19Z</time></trkpt><trkpt lat="44.83139097950607" lon="8.075210221531966"><ele>153.0</ele><time>2026-04-19T06:50:20Z</time></trkpt><trkpt lat="44.83148715058326" lon="8.075153947910476"><ele>153.0</ele><time>2026-04-19T06:50:21Z</time></trkpt><trkpt lat="44.8315737896656" lon="8.075099423726268"><ele>153.0</ele><time>2026-04-19T06:50:22Z</time></trkpt><trkpt lat="44.83165247569272" lon="8.075052626994239"><ele>153.0</ele><time>2026-04-19T06:50:23Z</time></trkpt><trkpt lat="44.83172072709319" lon="8.075004553745776"><ele>153.0</ele><time>2026-04-19T06:50:24Z</time></trkpt><trkpt lat="44.83181246629292" lon="8.07496849711139"><ele>153.0</ele><time>2026-04-19T06:50:26Z</time></trkpt><trkpt lat="44.83173732573421" lon="8.075102056468102"><ele>153.0</ele><time>2026-04-19T06:50:30Z</time></trkpt><trkpt lat="44.831664714386235" lon="8.075162163857948"><ele>153.0</ele><time>2026-04-19T06:50:31Z</time></trkpt><trkpt lat="44.831615998125784" lon="8.07527084839289"><ele>153.0</ele><time>2026-04-19T06:50:32Z</time></trkpt><trkpt lat="44.83160452841701" lon="8.07539259354867"><ele>153.0</ele><time>2026-04-19T06:50:33Z</time></trkpt><trkpt lat="44.831616140981446" lon="8.075495887926927"><ele>153.0</ele><time>2026-04-19T06:50:34Z</time></trkpt><trkpt lat="44.831645747257745" lon="8.075590947722679"><ele>153.0</ele><time>2026-04-19T06:50:35Z</time></trkpt><trkpt lat="44.83169662921821" lon="8.07566613358472"><ele>153.0</ele><time>2026-04-19T06:50:36Z</time></trkpt><trkpt lat="44.83177540358128" lon="8.075722932437733"><ele>153.0</ele><time>2026-04-19T06:50:37Z</time></trkpt><trkpt lat="44.83187178245869" lon="8.07579439650899"><ele>153.0</ele><time>2026-04-19T06:50:38Z</time></trkpt><trkpt lat="44.83196525655024" lon="8.075840550436768"><ele>153.4</ele><time>2026-04-19T06:50:39Z</time></trkpt><trkpt lat="44.8320553926706" lon="8.075906938657042"><ele>153.8</ele><time>2026-04-19T06:50:40Z</time></trkpt><trkpt lat="44.832138754973634" lon="8.075987250567136"><ele>154.2</ele><time>2026-04-19T06:50:41Z</time></trkpt><trkpt lat="44.83223362014969" lon="8.076059785429205"><ele>154.6</ele><time>2026-04-19T06:50:42Z</time></trkpt><trkpt lat="44.83232883556078" lon="8.076144167829018"><ele>155.0</ele><time>2026-04-19T06:50:43Z</time></trkpt><trkpt lat="44.83242872110974" lon="8.07621970018799"><ele>155.0</ele><time>2026-04-19T06:50:44Z</time></trkpt><trkpt lat="44.8325141944615" lon="8.07629426781026"><ele>155.0</ele><time>2026-04-19T06:50:45Z</time></trkpt><trkpt lat="44.8325911621556" lon="8.076365392651685"><ele>155.0</ele><time>2026-04-19T06:50:46Z</time></trkpt><trkpt lat="44.83266109159414" lon="8.076464792426883"><ele>155.0</ele><time>2026-04-19T06:50:47Z</time></trkpt><trkpt lat="44.83273067404327" lon="8.076570635388695"><ele>155.0</ele><time>2026-04-19T06:50:48Z</time></trkpt><trkpt lat="44.83282025849843" lon="8.076662360955297"><ele>154.25</ele><time>2026-04-19T06:50:49Z</time></trkpt><trkpt lat="44.832933528189194" lon="8.076734700252306"><ele>153.5</ele><time>2026-04-19T06:50:50Z</time></trkpt><trkpt lat="44.83306055119955" lon="8.076808668175888"><ele>152.75</ele><time>2026-04-19T06:50:51Z</time></trkpt><trkpt lat="44.833175830660295" lon="8.076873860334741"><ele>152.0</ele><time>2026-04-19T06:50:52Z</time></trkpt><trkpt lat="44.833268771256236" lon="8.076935784276769"><ele>152.0</ele><time>2026-04-19T06:50:53Z</time></trkpt><trkpt lat="44.8333528952172" lon="8.076988189312319"><ele>152.0</ele><time>2026-04-19T06:50:54Z</time></trkpt><trkpt lat="44.833429530168104" lon="8.077037895271648"><ele>152.0</ele><time>2026-04-19T06:50:55Z</time></trkpt><trkpt lat="44.83352948167172" lon="8.077065487038515"><ele>152.0</ele><time>2026-04-19T06:50:56Z</time></trkpt><trkpt lat="44.833635708380186" lon="8.077081692058833"><ele>152.0</ele><time>2026-04-19T06:50:57Z</time></trkpt><trkpt lat="44.83372836884195" lon="8.077078007140557"><ele>151.66666666666666</ele><time>2026-04-19T06:50:58Z</time></trkpt><trkpt lat="44.83380306164985" lon="8.077069967364258"><ele>151.33333333333331</ele><time>2026-04-19T06:50:59Z</time></trkpt><trkpt lat="44.83389294581208" lon="8.077057231174402"><ele>151.0</ele><time>2026-04-19T06:51:01Z</time></trkpt><trkpt lat="44.83395689517094" lon="8.077048900248746"><ele>150.66666666666666</ele><time>2026-04-19T06:51:15Z</time></trkpt><trkpt lat="44.83403578877064" lon="8.07706731022867"><ele>150.33333333333334</ele><time>2026-04-19T06:51:25Z</time></trkpt><trkpt lat="44.83413258691156" lon="8.07712895470597"><ele>150.0</ele><time>2026-04-19T06:51:29Z</time></trkpt><trkpt lat="44.83419731159279" lon="8.077179544703082"><ele>150.0</ele><time>2026-04-19T06:51:31Z</time></trkpt><trkpt lat="44.83429095145849" lon="8.077164514511898"><ele>150.0</ele><time>2026-04-19T06:51:33Z</time></trkpt><trkpt lat="44.83435368039274" lon="8.07708710858631"><ele>150.0</ele><time>2026-04-19T06:51:34Z</time></trkpt><trkpt lat="44.834408420772725" lon="8.07697999985402"><ele>150.0</ele><time>2026-04-19T06:51:35Z</time></trkpt><trkpt lat="44.834475629631235" lon="8.076893050134995"><ele>150.0</ele><time>2026-04-19T06:51:36Z</time></trkpt><trkpt lat="44.83455765172474" lon="8.076815580671946"><ele>150.4</ele><time>2026-04-19T06:51:37Z</time></trkpt><trkpt lat="44.834649068541324" lon="8.07675118785621"><ele>150.8</ele><time>2026-04-19T06:51:38Z</time></trkpt><trkpt lat="44.834747824143406" lon="8.076705702105178"><ele>151.2</ele><time>2026-04-19T06:51:39Z</time></trkpt><trkpt lat="44.834809734537" lon="8.076647297171919"><ele>151.6</ele><time>2026-04-19T06:51:40Z</time></trkpt><trkpt lat="44.834898295947575" lon="8.076614139384143"><ele>152.0</ele><time>2026-04-19T06:51:41Z</time></trkpt><trkpt lat="44.83499824897566" lon="8.07659304291017"><ele>152.0</ele><time>2026-04-19T06:51:42Z</time></trkpt><trkpt lat="44.83509854429558" lon="8.076573191849759"><ele>152.0</ele><time>2026-04-19T06:51:43Z</time></trkpt><trkpt lat="44.835177308159665" lon="8.076558550403162"><ele>152.0</ele><time>2026-04-19T06:51:44Z</time></trkpt><trkpt lat="44.83526451317631" lon="8.076542244463958"><ele>152.0</ele><time>2026-04-19T06:51:45Z</time></trkpt><trkpt lat="44.835338466086476" lon="8.076540541837645"><ele>152.0</ele><time>2026-04-19T06:51:46Z</time></trkpt><trkpt lat="44.83542355407225" lon="8.076516202909984"><ele>152.0</ele><time>2026-04-19T06:51:47Z</time></trkpt><trkpt lat="44.83550697725309" lon="8.076503663827697"><ele>151.83333333333331</ele><time>2026-04-19T06:51:48Z</time></trkpt><trkpt lat="44.83558071485937" lon="8.076508135003488"><ele>151.66666666666666</ele><time>2026-04-19T06:51:49Z</time></trkpt><trkpt lat="44.83564862583614" lon="8.076532714758958"><ele>151.5</ele><time>2026-04-19T06:51:50Z</time></trkpt><trkpt lat="44.8357120124323" lon="8.076544384523089"><ele>151.33333333333334</ele><time>2026-04-19T06:51:51Z</time></trkpt><trkpt lat="44.835783647084355" lon="8.076522276530593"><ele>151.16666666666669</ele><time>2026-04-19T06:51:52Z</time></trkpt><trkpt lat="44.83588041891261" lon="8.076473455498192"><ele>151.0</ele><time>2026-04-19T06:51:53Z</time></trkpt><trkpt lat="44.83599725014557" lon="8.076430435032837"><ele>150.8</ele><time>2026-04-19T06:51:54Z</time></trkpt><trkpt lat="44.83610673808228" lon="8.076422759595932"><ele>150.6</ele><time>2026-04-19T06:51:55Z</time></trkpt><trkpt lat="44.836195504789686" lon="8.07644580807181"><ele>150.4</ele><time>2026-04-19T06:51:56Z</time></trkpt><trkpt lat="44.836281925439536" lon="8.07650559614986"><ele>150.2</ele><time>2026-04-19T06:51:57Z</time></trkpt><trkpt lat="44.83639189798621" lon="8.07656895637052"><ele>150.0</ele><time>2026-04-19T06:51:58Z</time></trkpt><trkpt lat="44.83651214063871" lon="8.07661065540715"><ele>149.75</ele><time>2026-04-19T06:51:59Z</time></trkpt><trkpt lat="44.83662759989609" lon="8.076628209378633"><ele>149.5</ele><time>2026-04-19T06:52:00Z</time></trkpt><trkpt lat="44.83674491139868" lon="8.076654372411559"><ele>149.25</ele><time>2026-04-19T06:52:01Z</time></trkpt><trkpt lat="44.83685254734029" lon="8.076721334469042"><ele>149.0</ele><time>2026-04-19T06:52:02Z</time></trkpt><trkpt lat="44.83695645258958" lon="8.07679473753393"><ele>148.6</ele><time>2026-04-19T06:52:03Z</time></trkpt><trkpt lat="44.83708037863904" lon="8.076834022882919"><ele>148.2</ele><time>2026-04-19T06:52:04Z</time></trkpt><trkpt lat="44.83718645876077" lon="8.076867296618918"><ele>147.79999999999998</ele><time>2026-04-19T06:52:05Z</time></trkpt><trkpt lat="44.837281008871166" lon="8.07690430850931"><ele>147.4</ele><time>2026-04-19T06:52:06Z</time></trkpt><trkpt lat="44.837391772810435" lon="8.07692819281235"><ele>147.0</ele><time>2026-04-19T06:52:07Z</time></trkpt><trkpt lat="44.837522887552474" lon="8.076930289519295"><ele>147.5</ele><time>2026-04-19T06:52:08Z</time></trkpt><trkpt lat="44.83765368149733" lon="8.076934478552188"><ele>148.0</ele><time>2026-04-19T06:52:09Z</time></trkpt><trkpt lat="44.837782427437894" lon="8.076934299969857"><ele>148.5</ele><time>2026-04-19T06:52:10Z</time></trkpt><trkpt lat="44.83790600651239" lon="8.076948139764202"><ele>149.0</ele><time>2026-04-19T06:52:11Z</time></trkpt><trkpt lat="44.83803382674504" lon="8.076982536858333"><ele>149.0</ele><time>2026-04-19T06:52:12Z</time></trkpt><trkpt lat="44.838163590830355" lon="8.077032220259008"><ele>149.0</ele><time>2026-04-19T06:52:13Z</time></trkpt><trkpt lat="44.83827915854814" lon="8.07709441210397"><ele>149.0</ele><time>2026-04-19T06:52:14Z</time></trkpt><trkpt lat="44.838388145705004" lon="8.077165313294113"><ele>149.0</ele><time>2026-04-19T06:52:15Z</time></trkpt><trkpt lat="44.83850130134737" lon="8.077237855685814"><ele>149.0</ele><time>2026-04-19T06:52:16Z</time></trkpt><trkpt lat="44.838628684474585" lon="8.07725741816346"><ele>149.0</ele><time>2026-04-19T06:52:17Z</time></trkpt><trkpt lat="44.83872626233208" lon="8.077346355476456"><ele>149.0</ele><time>2026-04-19T06:52:18Z</time></trkpt><trkpt lat="44.83885643068409" lon="8.077413692284171"><ele>149.0</ele><time>2026-04-19T06:52:19Z</time></trkpt><trkpt lat="44.83899706862176" lon="8.077484708351735"><ele>148.5</ele><time>2026-04-19T06:52:20Z</time></trkpt><trkpt lat="44.83913598835507" lon="8.077559048447474"><ele>148.0</ele><time>2026-04-19T06:52:21Z</time></trkpt><trkpt lat="44.83927665341296" lon="8.077647335537874"><ele>147.5</ele><time>2026-04-19T06:52:22Z</time></trkpt><trkpt lat="44.83940090330102" lon="8.077725475855797"><ele>147.0</ele><time>2026-04-19T06:52:23Z</time></trkpt><trkpt lat="44.8395061897652" lon="8.0778013799088"><ele>146.75</ele><time>2026-04-19T06:52:24Z</time></trkpt><trkpt lat="44.83961750164093" lon="8.077893846345013"><ele>146.5</ele><time>2026-04-19T06:52:25Z</time></trkpt><trkpt lat="44.83973403876359" lon="8.077999887652787"><ele>146.25</ele><time>2026-04-19T06:52:26Z</time></trkpt><trkpt lat="44.83985336597766" lon="8.078110779849974"><ele>146.0</ele><time>2026-04-19T06:52:27Z</time></trkpt><trkpt lat="44.83995960148287" lon="8.078205403174477"><ele>146.4</ele><time>2026-04-19T06:52:28Z</time></trkpt><trkpt lat="44.8400507345524" lon="8.078298517790262"><ele>146.8</ele><time>2026-04-19T06:52:29Z</time></trkpt><trkpt lat="44.840129570235995" lon="8.078390931933773"><ele>147.20000000000002</ele><time>2026-04-19T06:52:30Z</time></trkpt><trkpt lat="44.84021392167579" lon="8.078480853173293"><ele>147.6</ele><time>2026-04-19T06:52:31Z</time></trkpt><trkpt lat="44.840299901239405" lon="8.078553738387505"><ele>148.0</ele><time>2026-04-19T06:52:32Z</time></trkpt><trkpt lat="44.84038707982687" lon="8.078657524840732"><ele>148.4</ele><time>2026-04-19T06:52:33Z</time></trkpt><trkpt lat="44.840467464271796" lon="8.07876456744931"><ele>148.8</ele><time>2026-04-19T06:52:34Z</time></trkpt><trkpt lat="44.840558269167325" lon="8.078854447246147"><ele>149.2</ele><time>2026-04-19T06:52:35Z</time></trkpt><trkpt lat="44.84064903854831" lon="8.078942845456917"><ele>149.6</ele><time>2026-04-19T06:52:36Z</time></trkpt><trkpt lat="44.840730872760325" lon="8.079048595733743"><ele>150.0</ele><time>2026-04-19T06:52:37Z</time></trkpt><trkpt lat="44.840804964409216" lon="8.079175357143475"><ele>150.2</ele><time>2026-04-19T06:52:38Z</time></trkpt><trkpt lat="44.84088184479813" lon="8.079301380543914"><ele>150.4</ele><time>2026-04-19T06:52:39Z</time></trkpt><trkpt lat="44.84093644591388" lon="8.079417804629918"><ele>150.6</ele><time>2026-04-19T06:52:40Z</time></trkpt><trkpt lat="44.841016038693546" lon="8.07952448974872"><ele>150.8</ele><time>2026-04-19T06:52:41Z</time></trkpt><trkpt lat="44.84109175653666" lon="8.079606628027276"><ele>151.0</ele><time>2026-04-19T06:52:42Z</time></trkpt><trkpt lat="44.84115694743556" lon="8.079691142757635"><ele>151.16666666666669</ele><time>2026-04-19T06:52:43Z</time></trkpt><trkpt lat="44.84121560800223" lon="8.079768256950677"><ele>151.33333333333334</ele><time>2026-04-19T06:52:44Z</time></trkpt><trkpt lat="44.84126213149963" lon="8.079844177050314"><ele>151.5</ele><time>2026-04-19T06:52:45Z</time></trkpt><trkpt lat="44.841307278423514" lon="8.079937387838564"><ele>151.66666666666666</ele><time>2026-04-19T06:52:46Z</time></trkpt><trkpt lat="44.84135709965616" lon="8.080051086414567"><ele>151.83333333333331</ele><time>2026-04-19T06:52:47Z</time></trkpt><trkpt lat="44.84138799257013" lon="8.080163333966949"><ele>152.0</ele><time>2026-04-19T06:52:48Z</time></trkpt><trkpt lat="44.841436316312" lon="8.080329325872494"><ele>152.0</ele><time>2026-04-19T06:52:49Z</time></trkpt><trkpt lat="44.84151764492948" lon="8.080469245620783"><ele>152.0</ele><time>2026-04-19T06:52:50Z</time></trkpt><trkpt lat="44.84158447642202" lon="8.080594842797112"><ele>152.0</ele><time>2026-04-19T06:52:51Z</time></trkpt><trkpt lat="44.84164607944582" lon="8.080720156009068"><ele>152.0</ele><time>2026-04-19T06:52:52Z</time></trkpt><trkpt lat="44.84170745008054" lon="8.080840639642092"><ele>152.0</ele><time>2026-04-19T06:52:53Z</time></trkpt><trkpt lat="44.84175984363529" lon="8.080953352140533"><ele>152.0</ele><time>2026-04-19T06:52:54Z</time></trkpt><trkpt lat="44.84179936072567" lon="8.081048389745614"><ele>152.0</ele><time>2026-04-19T06:52:55Z</time></trkpt><trkpt lat="44.84186394932868" lon="8.081135070581198"><ele>152.0</ele><time>2026-04-19T06:52:56Z</time></trkpt><trkpt lat="44.84190356886909" lon="8.081277891487902"><ele>152.0</ele><time>2026-04-19T06:52:58Z</time></trkpt><trkpt lat="44.841917870207574" lon="8.081372124116108"><ele>152.0</ele><time>2026-04-19T06:53:00Z</time></trkpt><trkpt lat="44.8418209140351" lon="8.081480149966685"><ele>152.0</ele><time>2026-04-19T06:53:02Z</time></trkpt><trkpt lat="44.84173419697212" lon="8.081562447062383"><ele>152.0</ele><time>2026-04-19T06:53:03Z</time></trkpt><trkpt lat="44.84166409816277" lon="8.081676415237181"><ele>152.0</ele><time>2026-04-19T06:53:04Z</time></trkpt><trkpt lat="44.841635474257174" lon="8.081829082989945"><ele>152.0</ele><time>2026-04-19T06:53:05Z</time></trkpt><trkpt lat="44.84163931327053" lon="8.081933597097303"><ele>152.0</ele><time>2026-04-19T06:53:06Z</time></trkpt><trkpt lat="44.841727040680404" lon="8.081901563525353"><ele>152.25</ele><time>2026-04-19T06:53:09Z</time></trkpt><trkpt lat="44.84176799025426" lon="8.081803974681657"><ele>152.5</ele><time>2026-04-19T06:53:10Z</time></trkpt><trkpt lat="44.841810506166816" lon="8.081669487292045"><ele>152.75</ele><time>2026-04-19T06:53:11Z</time></trkpt><trkpt lat="44.84189086994086" lon="8.081541729679742"><ele>153.0</ele><time>2026-04-19T06:53:12Z</time></trkpt><trkpt lat="44.84201374383811" lon="8.081435996696744"><ele>151.33333333333334</ele><time>2026-04-19T06:53:13Z</time></trkpt><trkpt lat="44.842155777158126" lon="8.081324382428958"><ele>149.66666666666669</ele><time>2026-04-19T06:53:14Z</time></trkpt><trkpt lat="44.84229526343409" lon="8.081195938335112"><ele>148.0</ele><time>2026-04-19T06:53:15Z</time></trkpt><trkpt lat="44.842432339736014" lon="8.08108351600209"><ele>148.0</ele><time>2026-04-19T06:53:16Z</time></trkpt><trkpt lat="44.84256896807638" lon="8.080986093119106"><ele>148.0</ele><time>2026-04-19T06:53:17Z</time></trkpt><trkpt lat="44.84267850862643" lon="8.080873545192386"><ele>148.0</ele><time>2026-04-19T06:53:18Z</time></trkpt><trkpt lat="44.84278213577654" lon="8.080713987483476"><ele>148.0</ele><time>2026-04-19T06:53:19Z</time></trkpt><trkpt lat="44.84286586183631" lon="8.080545148505948"><ele>147.75</ele><time>2026-04-19T06:53:20Z</time></trkpt><trkpt lat="44.8429320415774" lon="8.08035150126844"><ele>147.5</ele><time>2026-04-19T06:53:21Z</time></trkpt><trkpt lat="44.84299066390867" lon="8.08016770516141"><ele>147.25</ele><time>2026-04-19T06:53:22Z</time></trkpt><trkpt lat="44.84305643374403" lon="8.079988022148353"><ele>147.0</ele><time>2026-04-19T06:53:23Z</time></trkpt><trkpt lat="44.84312536050857" lon="8.079806930558652"><ele>148.0</ele><time>2026-04-19T06:53:24Z</time></trkpt><trkpt lat="44.843186526837115" lon="8.07962660766633"><ele>149.0</ele><time>2026-04-19T06:53:25Z</time></trkpt><trkpt lat="44.8432346448803" lon="8.079454795319345"><ele>150.0</ele><time>2026-04-19T06:53:26Z</time></trkpt><trkpt lat="44.84327649986818" lon="8.0792993129182"><ele>151.0</ele><time>2026-04-19T06:53:27Z</time></trkpt><trkpt lat="44.84333036187891" lon="8.079157775706053"><ele>151.5</ele><time>2026-04-19T06:53:28Z</time></trkpt><trkpt lat="44.84337919842608" lon="8.079012269031715"><ele>152.0</ele><time>2026-04-19T06:53:29Z</time></trkpt><trkpt lat="44.84343324115867" lon="8.078853188486608"><ele>152.5</ele><time>2026-04-19T06:53:30Z</time></trkpt><trkpt lat="44.843482224565975" lon="8.078687483174107"><ele>153.0</ele><time>2026-04-19T06:53:31Z</time></trkpt><trkpt lat="44.843540696554705" lon="8.078509676074244"><ele>152.75</ele><time>2026-04-19T06:53:32Z</time></trkpt><trkpt lat="44.84360228343324" lon="8.078341715695075"><ele>152.5</ele><time>2026-04-19T06:53:33Z</time></trkpt><trkpt lat="44.84364767528577" lon="8.078185453690846"><ele>152.25</ele><time>2026-04-19T06:53:34Z</time></trkpt><trkpt lat="44.843668265158165" lon="8.078021395376503"><ele>152.0</ele><time>2026-04-19T06:53:35Z</time></trkpt><trkpt lat="44.84364598025212" lon="8.077882990749742"><ele>152.0</ele><time>2026-04-19T06:53:36Z</time></trkpt><trkpt lat="44.843596234064606" lon="8.077752749021835"><ele>152.0</ele><time>2026-04-19T06:53:37Z</time></trkpt><trkpt lat="44.843558690894454" lon="8.077648485643222"><ele>152.0</ele><time>2026-04-19T06:53:38Z</time></trkpt><trkpt lat="44.84355673208297" lon="8.07755060554231"><ele>152.0</ele><time>2026-04-19T06:53:39Z</time></trkpt><trkpt lat="44.843586167145645" lon="8.077464173744385"><ele>152.0</ele><time>2026-04-19T06:53:40Z</time></trkpt><trkpt lat="44.84365528130968" lon="8.07740679255902"><ele>152.0</ele><time>2026-04-19T06:53:41Z</time></trkpt><trkpt lat="44.843749692456036" lon="8.077394016014702"><ele>152.0</ele><time>2026-04-19T06:53:42Z</time></trkpt><trkpt lat="44.8438486638001" lon="8.077414965620676"><ele>152.0</ele><time>2026-04-19T06:53:43Z</time></trkpt><trkpt lat="44.843965552926065" lon="8.07747574410549"><ele>152.0</ele><time>2026-04-19T06:53:44Z</time></trkpt><trkpt lat="44.84408374790377" lon="8.0775867608976"><ele>152.0</ele><time>2026-04-19T06:53:45Z</time></trkpt><trkpt lat="44.84420454508998" lon="8.077732210341637"><ele>151.33333333333331</ele><time>2026-04-19T06:53:46Z</time></trkpt><trkpt lat="44.84433455298296" lon="8.077904136238718"><ele>150.66666666666666</ele><time>2026-04-19T06:53:47Z</time></trkpt><trkpt lat="44.844465987010395" lon="8.078068599830935"><ele>150.0</ele><time>2026-04-19T06:53:48Z</time></trkpt><trkpt lat="44.84458463044282" lon="8.078209324922634"><ele>150.0</ele><time>2026-04-19T06:53:49Z</time></trkpt><trkpt lat="44.844705426918104" lon="8.07835424689482"><ele>150.0</ele><time>2026-04-19T06:53:50Z</time></trkpt><trkpt lat="44.84482652369037" lon="8.07849827348812"><ele>150.0</ele><time>2026-04-19T06:53:51Z</time></trkpt><trkpt lat="44.84494951367951" lon="8.078637558320148"><ele>150.0</ele><time>2026-04-19T06:53:52Z</time></trkpt><trkpt lat="44.845067374853926" lon="8.078774553271183"><ele>150.0</ele><time>2026-04-19T06:53:53Z</time></trkpt><trkpt lat="44.84518918990798" lon="8.078914493508321"><ele>150.0</ele><time>2026-04-19T06:53:54Z</time></trkpt><trkpt lat="44.84531319560793" lon="8.079059086922987"><ele>150.33333333333334</ele><time>2026-04-19T06:53:55Z</time></trkpt><trkpt lat="44.845438719774265" lon="8.079202031935228"><ele>150.66666666666669</ele><time>2026-04-19T06:53:56Z</time></trkpt><trkpt lat="44.845560495713926" lon="8.079344030215715"><ele>151.0</ele><time>2026-04-19T06:53:57Z</time></trkpt><trkpt lat="44.84567950968953" lon="8.079485357813493"><ele>151.0</ele><time>2026-04-19T06:53:58Z</time></trkpt><trkpt lat="44.845797926487364" lon="8.079625846985905"><ele>151.0</ele><time>2026-04-19T06:53:59Z</time></trkpt><trkpt lat="44.845918013967605" lon="8.079761939883767"><ele>151.0</ele><time>2026-04-19T06:54:00Z</time></trkpt><trkpt lat="44.846036345883874" lon="8.079901241130122"><ele>151.0</ele><time>2026-04-19T06:54:01Z</time></trkpt><trkpt lat="44.84614639947268" lon="8.080033639344453"><ele>151.0</ele><time>2026-04-19T06:54:02Z</time></trkpt><trkpt lat="44.84626223246024" lon="8.080170460754859"><ele>151.0</ele><time>2026-04-19T06:54:03Z</time></trkpt><trkpt lat="44.8463774397038" lon="8.08030552067333"><ele>151.0</ele><time>2026-04-19T06:54:04Z</time></trkpt><trkpt lat="44.84649763256728" lon="8.08044894603401"><ele>151.0</ele><time>2026-04-19T06:54:05Z</time></trkpt><trkpt lat="44.84660740963449" lon="8.080587594302964"><ele>151.0</ele><time>2026-04-19T06:54:06Z</time></trkpt><trkpt lat="44.8467330434151" lon="8.080727192094894"><ele>151.0</ele><time>2026-04-19T06:54:07Z</time></trkpt><trkpt lat="44.84685196158757" lon="8.08086736253765"><ele>150.5</ele><time>2026-04-19T06:54:08Z</time></trkpt><trkpt lat="44.84696973494482" lon="8.081009257422979"><ele>150.0</ele><time>2026-04-19T06:54:09Z</time></trkpt><trkpt lat="44.84708124275331" lon="8.081150455466815"><ele>149.5</ele><time>2026-04-19T06:54:10Z</time></trkpt><trkpt lat="44.847180306922105" lon="8.081292169626686"><ele>149.0</ele><time>2026-04-19T06:54:11Z</time></trkpt><trkpt lat="44.84728929783938" lon="8.081445734571925"><ele>148.33333333333331</ele><time>2026-04-19T06:54:12Z</time></trkpt><trkpt lat="44.84740280461423" lon="8.081610306215222"><ele>147.66666666666666</ele><time>2026-04-19T06:54:13Z</time></trkpt><trkpt lat="44.847516715875905" lon="8.081780862484639"><ele>147.0</ele><time>2026-04-19T06:54:14Z</time></trkpt><trkpt lat="44.84761932100665" lon="8.081946453020482"><ele>148.66666666666666</ele><time>2026-04-19T06:54:15Z</time></trkpt><trkpt lat="44.84771687365919" lon="8.082112743885641"><ele>150.33333333333331</ele><time>2026-04-19T06:54:16Z</time></trkpt><trkpt lat="44.847815260703065" lon="8.082286298746705"><ele>152.0</ele><time>2026-04-19T06:54:17Z</time></trkpt><trkpt lat="44.847911636547465" lon="8.082459610794963"><ele>152.0</ele><time>2026-04-19T06:54:18Z</time></trkpt><trkpt lat="44.84800295859703" lon="8.082637821935162"><ele>152.0</ele><time>2026-04-19T06:54:19Z</time></trkpt><trkpt lat="44.84809029577037" lon="8.08282013836028"><ele>152.0</ele><time>2026-04-19T06:54:20Z</time></trkpt><trkpt lat="44.84817909826161" lon="8.083001495768793"><ele>152.0</ele><time>2026-04-19T06:54:21Z</time></trkpt><trkpt lat="44.84826689742131" lon="8.083187242238967"><ele>152.0</ele><time>2026-04-19T06:54:22Z</time></trkpt><trkpt lat="44.848347881368774" lon="8.08337844478398"><ele>152.0</ele><time>2026-04-19T06:54:23Z</time></trkpt><trkpt lat="44.848424905295666" lon="8.083576639716592"><ele>152.33333333333331</ele><time>2026-04-19T06:54:24Z</time></trkpt><trkpt lat="44.84849955471378" lon="8.083774535096913"><ele>152.66666666666666</ele><time>2026-04-19T06:54:25Z</time></trkpt><trkpt lat="44.84856838053958" lon="8.083959766783984"><ele>153.0</ele><time>2026-04-19T06:54:26Z</time></trkpt><trkpt lat="44.84863437504252" lon="8.084138621029581"><ele>153.0</ele><time>2026-04-19T06:54:27Z</time></trkpt><trkpt lat="44.84869927510167" lon="8.084321221761183"><ele>153.0</ele><time>2026-04-19T06:54:28Z</time></trkpt><trkpt lat="44.84876407641456" lon="8.084488900313518"><ele>153.0</ele><time>2026-04-19T06:54:29Z</time></trkpt><trkpt lat="44.84882501043465" lon="8.084657487345552"><ele>153.0</ele><time>2026-04-19T06:54:30Z</time></trkpt><trkpt lat="44.84888642944834" lon="8.08483058795323"><ele>152.5</ele><time>2026-04-19T06:54:31Z</time></trkpt><trkpt lat="44.84895219312438" lon="8.085005191985076"><ele>152.0</ele><time>2026-04-19T06:54:32Z</time></trkpt><trkpt lat="44.84901929847976" lon="8.085179392857262"><ele>151.5</ele><time>2026-04-19T06:54:33Z</time></trkpt><trkpt lat="44.849086203468495" lon="8.085343611853192"><ele>151.0</ele><time>2026-04-19T06:54:34Z</time></trkpt><trkpt lat="44.84915162567026" lon="8.085514052658617"><ele>151.0</ele><time>2026-04-19T06:54:35Z</time></trkpt><trkpt lat="44.849213353702964" lon="8.085686658761414"><ele>151.0</ele><time>2026-04-19T06:54:36Z</time></trkpt><trkpt lat="44.849280872875475" lon="8.085863518667942"><ele>151.0</ele><time>2026-04-19T06:54:37Z</time></trkpt><trkpt lat="44.849344814985734" lon="8.086038339344142"><ele>151.0</ele><time>2026-04-19T06:54:38Z</time></trkpt><trkpt lat="44.84941156742503" lon="8.086213635413896"><ele>152.25</ele><time>2026-04-19T06:54:39Z</time></trkpt><trkpt lat="44.84947921291853" lon="8.086389693027055"><ele>153.5</ele><time>2026-04-19T06:54:40Z</time></trkpt><trkpt lat="44.84954055309722" lon="8.086549952539158"><ele>154.75</ele><time>2026-04-19T06:54:41Z</time></trkpt><trkpt lat="44.849604011872074" lon="8.086716650630613"><ele>156.0</ele><time>2026-04-19T06:54:42Z</time></trkpt><trkpt lat="44.8496690601267" lon="8.086888363332903"><ele>156.0</ele><time>2026-04-19T06:54:43Z</time></trkpt><trkpt lat="44.8497348021042" lon="8.087059835698648"><ele>156.0</ele><time>2026-04-19T06:54:44Z</time></trkpt><trkpt lat="44.84980315807798" lon="8.087235816273939"><ele>156.0</ele><time>2026-04-19T06:54:45Z</time></trkpt><trkpt lat="44.84986798819812" lon="8.087413751723124"><ele>156.0</ele><time>2026-04-19T06:54:46Z</time></trkpt><trkpt lat="44.84994015253089" lon="8.08758354865272"><ele>157.0</ele><time>2026-04-19T06:54:47Z</time></trkpt><trkpt lat="44.85000114504413" lon="8.087754077699929"><ele>158.0</ele><time>2026-04-19T06:54:48Z</time></trkpt><trkpt lat="44.85006525734736" lon="8.087920589803185"><ele>159.0</ele><time>2026-04-19T06:54:49Z</time></trkpt><trkpt lat="44.85012834588713" lon="8.08808732877949"><ele>160.0</ele><time>2026-04-19T06:54:50Z</time></trkpt><trkpt lat="44.85019358714479" lon="8.088257005633425"><ele>158.25</ele><time>2026-04-19T06:54:51Z</time></trkpt><trkpt lat="44.850255132293064" lon="8.088422879587375"><ele>156.5</ele><time>2026-04-19T06:54:52Z</time></trkpt><trkpt lat="44.850317819164474" lon="8.08858033509689"><ele>154.75</ele><time>2026-04-19T06:54:53Z</time></trkpt><trkpt lat="44.85037979916753" lon="8.088743413933182"><ele>153.0</ele><time>2026-04-19T06:54:54Z</time></trkpt><trkpt lat="44.85044317205308" lon="8.088900990699766"><ele>153.0</ele><time>2026-04-19T06:54:55Z</time></trkpt><trkpt lat="44.85050520148275" lon="8.089056042771233"><ele>153.0</ele><time>2026-04-19T06:54:56Z</time></trkpt><trkpt lat="44.85056618094107" lon="8.089214732560214"><ele>153.0</ele><time>2026-04-19T06:54:57Z</time></trkpt><trkpt lat="44.85062899224845" lon="8.089368495307493"><ele>153.0</ele><time>2026-04-19T06:54:58Z</time></trkpt><trkpt lat="44.850684489356134" lon="8.089514348404728"><ele>152.0</ele><time>2026-04-19T06:54:59Z</time></trkpt><trkpt lat="44.85072408863935" lon="8.089661035549211"><ele>151.0</ele><time>2026-04-19T06:55:00Z</time></trkpt><trkpt lat="44.85077054957374" lon="8.089785279220848"><ele>150.0</ele><time>2026-04-19T06:55:01Z</time></trkpt><trkpt lat="44.850812894425836" lon="8.089898515788501"><ele>149.0</ele><time>2026-04-19T06:55:02Z</time></trkpt><trkpt lat="44.850853991359585" lon="8.090008415261316"><ele>148.0</ele><time>2026-04-19T06:55:03Z</time></trkpt><trkpt lat="44.8508914128767" lon="8.090107734623606"><ele>147.75</ele><time>2026-04-19T06:55:04Z</time></trkpt><trkpt lat="44.85092177182892" lon="8.090186465466877"><ele>147.5</ele><time>2026-04-19T06:55:05Z</time></trkpt><trkpt lat="44.85096324128321" lon="8.090292167148252"><ele>147.25</ele><time>2026-04-19T06:55:07Z</time></trkpt><trkpt lat="44.85114095518416" lon="8.090129613813085"><ele>147.0</ele><time>2026-04-19T06:55:10Z</time></trkpt><trkpt lat="44.851201620420134" lon="8.090020402079936"><ele>148.0</ele><time>2026-04-19T06:55:11Z</time></trkpt><trkpt lat="44.851267152461666" lon="8.089908055410058"><ele>149.0</ele><time>2026-04-19T06:55:12Z</time></trkpt><trkpt lat="44.85132612807922" lon="8.0897958009159"><ele>150.0</ele><time>2026-04-19T06:55:13Z</time></trkpt><trkpt lat="44.851383962538065" lon="8.089660209758463"><ele>151.0</ele><time>2026-04-19T06:55:14Z</time></trkpt><trkpt lat="44.8514324494106" lon="8.089521376695869"><ele>152.0</ele><time>2026-04-19T06:55:15Z</time></trkpt><trkpt lat="44.85146586932621" lon="8.08941017659531"><ele>152.0</ele><time>2026-04-19T06:55:16Z</time></trkpt><trkpt lat="44.851474642387025" lon="8.089293739098627"><ele>152.0</ele><time>2026-04-19T06:55:17Z</time></trkpt><trkpt lat="44.85147693780076" lon="8.089156859712455"><ele>152.0</ele><time>2026-04-19T06:55:18Z</time></trkpt><trkpt lat="44.851477484770385" lon="8.0890014806365"><ele>152.0</ele><time>2026-04-19T06:55:19Z</time></trkpt><trkpt lat="44.851474612677706" lon="8.088827015899737"><ele>152.0</ele><time>2026-04-19T06:55:20Z</time></trkpt><trkpt lat="44.85146723075711" lon="8.088657117540496"><ele>152.6</ele><time>2026-04-19T06:55:21Z</time></trkpt><trkpt lat="44.85145900251993" lon="8.088485193578956"><ele>153.2</ele><time>2026-04-19T06:55:22Z</time></trkpt><trkpt lat="44.851448702893485" lon="8.088323571910923"><ele>153.8</ele><time>2026-04-19T06:55:23Z</time></trkpt><trkpt lat="44.85144779921608" lon="8.088182215801183"><ele>154.4</ele><time>2026-04-19T06:55:24Z</time></trkpt><trkpt lat="44.85143348216041" lon="8.0880420714651"><ele>155.0</ele><time>2026-04-19T06:55:25Z</time></trkpt><trkpt lat="44.85142231659401" lon="8.087903124815766"><ele>155.75</ele><time>2026-04-19T06:55:26Z</time></trkpt><trkpt lat="44.851408691448064" lon="8.087742640415401"><ele>156.5</ele><time>2026-04-19T06:55:27Z</time></trkpt><trkpt lat="44.85139332715299" lon="8.087567781921422"><ele>157.25</ele><time>2026-04-19T06:55:28Z</time></trkpt><trkpt lat="44.851374286452895" lon="8.087397558697361"><ele>158.0</ele><time>2026-04-19T06:55:29Z</time></trkpt><trkpt lat="44.85134555783651" lon="8.087237774450871"><ele>158.25</ele><time>2026-04-19T06:55:30Z</time></trkpt><trkpt lat="44.851311539250666" lon="8.087087710202772"><ele>158.5</ele><time>2026-04-19T06:55:31Z</time></trkpt><trkpt lat="44.851264446438094" lon="8.086930520256841"><ele>158.75</ele><time>2026-04-19T06:55:32Z</time></trkpt><trkpt lat="44.85120813262144" lon="8.086774020251525"><ele>159.0</ele><time>2026-04-19T06:55:33Z</time></trkpt><trkpt lat="44.85115148872692" lon="8.086615125259648"><ele>158.6</ele><time>2026-04-19T06:55:34Z</time></trkpt><trkpt lat="44.851101294631036" lon="8.086454654039985"><ele>158.2</ele><time>2026-04-19T06:55:35Z</time></trkpt><trkpt lat="44.8510648017847" lon="8.086322892783755"><ele>157.79999999999998</ele><time>2026-04-19T06:55:36Z</time></trkpt><trkpt lat="44.85102693118368" lon="8.086191053658766"><ele>157.4</ele><time>2026-04-19T06:55:37Z</time></trkpt><trkpt lat="44.85097323142989" lon="8.0860573436025"><ele>157.0</ele><time>2026-04-19T06:55:38Z</time></trkpt><trkpt lat="44.850906066145114" lon="8.085938820236445"><ele>158.39999999999998</ele><time>2026-04-19T06:55:39Z</time></trkpt><trkpt lat="44.850843298963035" lon="8.085791339222153"><ele>159.79999999999998</ele><time>2026-04-19T06:55:40Z</time></trkpt><trkpt lat="44.850786531301296" lon="8.085663429072884"><ele>161.2</ele><time>2026-04-19T06:55:41Z</time></trkpt><trkpt lat="44.85072451573475" lon="8.085550799734461"><ele>162.6</ele><time>2026-04-19T06:55:42Z</time></trkpt><trkpt lat="44.85066090833353" lon="8.085420561263007"><ele>164.0</ele><time>2026-04-19T06:55:43Z</time></trkpt><trkpt lat="44.850597096421474" lon="8.085287270477352"><ele>164.0</ele><time>2026-04-19T06:55:44Z</time></trkpt><trkpt lat="44.850542304396726" lon="8.085152118735138"><ele>164.0</ele><time>2026-04-19T06:55:45Z</time></trkpt><trkpt lat="44.85049852511133" lon="8.085013437217691"><ele>164.0</ele><time>2026-04-19T06:55:46Z</time></trkpt><trkpt lat="44.85044776666858" lon="8.084877661963484"><ele>164.0</ele><time>2026-04-19T06:55:47Z</time></trkpt><trkpt lat="44.85036935018761" lon="8.084732467256375"><ele>164.0</ele><time>2026-04-19T06:55:48Z</time></trkpt><trkpt lat="44.85030194488815" lon="8.084607116292805"><ele>164.0</ele><time>2026-04-19T06:55:49Z</time></trkpt><trkpt lat="44.85023019972933" lon="8.084467845424554"><ele>164.0</ele><time>2026-04-19T06:55:50Z</time></trkpt><trkpt lat="44.850170961924675" lon="8.084322182965272"><ele>164.0</ele><time>2026-04-19T06:55:51Z</time></trkpt><trkpt lat="44.85010584519681" lon="8.084174001161763"><ele>164.25</ele><time>2026-04-19T06:55:52Z</time></trkpt><trkpt lat="44.850042289621214" lon="8.083999696439921"><ele>164.5</ele><time>2026-04-19T06:55:53Z</time></trkpt><trkpt lat="44.8499848636455" lon="8.08386772562429"><ele>164.75</ele><time>2026-04-19T06:55:54Z</time></trkpt><trkpt lat="44.849924332592934" lon="8.083705244668675"><ele>165.0</ele><time>2026-04-19T06:55:55Z</time></trkpt><trkpt lat="44.84987862593355" lon="8.083557098920997"><ele>165.0</ele><time>2026-04-19T06:55:56Z</time></trkpt><trkpt lat="44.84984791545487" lon="8.083416982721122"><ele>165.0</ele><time>2026-04-19T06:55:57Z</time></trkpt><trkpt lat="44.84983340853305" lon="8.083283961239113"><ele>165.0</ele><time>2026-04-19T06:55:58Z</time></trkpt><trkpt lat="44.84983940564492" lon="8.08309571518623"><ele>165.0</ele><time>2026-04-19T06:55:59Z</time></trkpt><trkpt lat="44.8498387889041" lon="8.082899318670846"><ele>165.75</ele><time>2026-04-19T06:56:00Z</time></trkpt><trkpt lat="44.849828621924" lon="8.082707940634108"><ele>166.5</ele><time>2026-04-19T06:56:01Z</time></trkpt><trkpt lat="44.8498195205928" lon="8.082515150323061"><ele>167.25</ele><time>2026-04-19T06:56:02Z</time></trkpt><trkpt lat="44.849810703107885" lon="8.082317325901142"><ele>168.0</ele><time>2026-04-19T06:56:03Z</time></trkpt><trkpt lat="44.849794084209364" lon="8.082148969744363"><ele>168.2</ele><time>2026-04-19T06:56:04Z</time></trkpt><trkpt lat="44.849774243527136" lon="8.081991419077566"><ele>168.4</ele><time>2026-04-19T06:56:05Z</time></trkpt><trkpt lat="44.84975570109171" lon="8.081824683698555"><ele>168.6</ele><time>2026-04-19T06:56:06Z</time></trkpt><trkpt lat="44.84974107998693" lon="8.081665631321359"><ele>168.79999999999998</ele><time>2026-04-19T06:56:07Z</time></trkpt><trkpt lat="44.84971969082789" lon="8.081532298564701"><ele>169.0</ele><time>2026-04-19T06:56:08Z</time></trkpt><trkpt lat="44.849679856785386" lon="8.081412986671285"><ele>169.25</ele><time>2026-04-19T06:56:09Z</time></trkpt><trkpt lat="44.8496097076272" lon="8.081286336932957"><ele>169.5</ele><time>2026-04-19T06:56:10Z</time></trkpt><trkpt lat="44.84953665019376" lon="8.081119703849698"><ele>169.75</ele><time>2026-04-19T06:56:11Z</time></trkpt><trkpt lat="44.84945773896974" lon="8.080968533464596"><ele>170.0</ele><time>2026-04-19T06:56:12Z</time></trkpt><trkpt lat="44.84937136464187" lon="8.080799710880456"><ele>171.0</ele><time>2026-04-19T06:56:13Z</time></trkpt><trkpt lat="44.84927789845486" lon="8.080617671191913"><ele>172.0</ele><time>2026-04-19T06:56:14Z</time></trkpt><trkpt lat="44.849185773453215" lon="8.080444037044753"><ele>173.0</ele><time>2026-04-19T06:56:15Z</time></trkpt><trkpt lat="44.84909822661791" lon="8.08027824336632"><ele>173.0</ele><time>2026-04-19T06:56:16Z</time></trkpt><trkpt lat="44.84902941942812" lon="8.080141682240297"><ele>173.0</ele><time>2026-04-19T06:56:17Z</time></trkpt><trkpt lat="44.84896453574231" lon="8.079990623602564"><ele>173.0</ele><time>2026-04-19T06:56:18Z</time></trkpt><trkpt lat="44.84890166897482" lon="8.079820845356599"><ele>173.0</ele><time>2026-04-19T06:56:19Z</time></trkpt><trkpt lat="44.84881875514438" lon="8.079660705733568"><ele>173.0</ele><time>2026-04-19T06:56:20Z</time></trkpt><trkpt lat="44.84874023272214" lon="8.079503537129966"><ele>173.0</ele><time>2026-04-19T06:56:21Z</time></trkpt><trkpt lat="44.84866115743739" lon="8.079350420369424"><ele>173.0</ele><time>2026-04-19T06:56:22Z</time></trkpt><trkpt lat="44.84855680216964" lon="8.079188797288769"><ele>173.0</ele><time>2026-04-19T06:56:23Z</time></trkpt><trkpt lat="44.84846314577114" lon="8.07904530308135"><ele>172.4</ele><time>2026-04-19T06:56:24Z</time></trkpt><trkpt lat="44.848408115875266" lon="8.078924194397905"><ele>171.8</ele><time>2026-04-19T06:56:25Z</time></trkpt><trkpt lat="44.84838694516049" lon="8.07880121768917"><ele>171.2</ele><time>2026-04-19T06:56:26Z</time></trkpt><trkpt lat="44.8483879106797" lon="8.07868675189533"><ele>170.6</ele><time>2026-04-19T06:56:27Z</time></trkpt><trkpt lat="44.848405791815566" lon="8.078562700760676"><ele>170.0</ele><time>2026-04-19T06:56:28Z</time></trkpt><trkpt lat="44.8484518652016" lon="8.07843952903714"><ele>170.5</ele><time>2026-04-19T06:56:29Z</time></trkpt><trkpt lat="44.848513955548256" lon="8.07828927225502"><ele>171.0</ele><time>2026-04-19T06:56:30Z</time></trkpt><trkpt lat="44.84858962816821" lon="8.078128805844706"><ele>171.5</ele><time>2026-04-19T06:56:31Z</time></trkpt><trkpt lat="44.84865899604952" lon="8.077973119320667"><ele>172.0</ele><time>2026-04-19T06:56:32Z</time></trkpt><trkpt lat="44.84871410079081" lon="8.077785720941868"><ele>172.0</ele><time>2026-04-19T06:56:33Z</time></trkpt><trkpt lat="44.84878262167142" lon="8.077589017237168"><ele>172.0</ele><time>2026-04-19T06:56:34Z</time></trkpt><trkpt lat="44.848848015636136" lon="8.077390090729043"><ele>172.0</ele><time>2026-04-19T06:56:35Z</time></trkpt><trkpt lat="44.84891599673961" lon="8.077206749281265"><ele>172.75</ele><time>2026-04-19T06:56:36Z</time></trkpt><trkpt lat="44.84896923770525" lon="8.07704248573949"><ele>173.5</ele><time>2026-04-19T06:56:37Z</time></trkpt><trkpt lat="44.849000372236965" lon="8.076890502163783"><ele>174.25</ele><time>2026-04-19T06:56:38Z</time></trkpt><trkpt lat="44.8490143808083" lon="8.076731290221616"><ele>175.0</ele><time>2026-04-19T06:56:39Z</time></trkpt><trkpt lat="44.84900838933418" lon="8.076562408057235"><ele>175.75</ele><time>2026-04-19T06:56:40Z</time></trkpt><trkpt lat="44.84898124244097" lon="8.076384707049774"><ele>176.5</ele><time>2026-04-19T06:56:41Z</time></trkpt><trkpt lat="44.84894461418903" lon="8.076202743051427"><ele>177.25</ele><time>2026-04-19T06:56:42Z</time></trkpt><trkpt lat="44.84890846154759" lon="8.076006475307777"><ele>178.0</ele><time>2026-04-19T06:56:43Z</time></trkpt><trkpt lat="44.84887369470266" lon="8.075804461748909"><ele>178.0</ele><time>2026-04-19T06:56:44Z</time></trkpt><trkpt lat="44.84884421919742" lon="8.075600138066733"><ele>178.0</ele><time>2026-04-19T06:56:45Z</time></trkpt><trkpt lat="44.848828831076545" lon="8.075410929792877"><ele>178.0</ele><time>2026-04-19T06:56:46Z</time></trkpt><trkpt lat="44.848805232937984" lon="8.075227526123403"><ele>178.0</ele><time>2026-04-19T06:56:47Z</time></trkpt><trkpt lat="44.84879397858731" lon="8.075066109866242"><ele>177.5</ele><time>2026-04-19T06:56:48Z</time></trkpt><trkpt lat="44.84879145590739" lon="8.07491407595057"><ele>177.0</ele><time>2026-04-19T06:56:49Z</time></trkpt><trkpt lat="44.8487970904256" lon="8.074748586308806"><ele>176.5</ele><time>2026-04-19T06:56:50Z</time></trkpt><trkpt lat="44.84881599103531" lon="8.074568034691325"><ele>176.0</ele><time>2026-04-19T06:56:51Z</time></trkpt><trkpt lat="44.84883444190425" lon="8.074380250462896"><ele>176.0</ele><time>2026-04-19T06:56:52Z</time></trkpt><trkpt lat="44.8488593748471" lon="8.074217347133887"><ele>176.0</ele><time>2026-04-19T06:56:53Z</time></trkpt><trkpt lat="44.84890071469393" lon="8.074079353809822"><ele>176.0</ele><time>2026-04-19T06:56:54Z</time></trkpt><trkpt lat="44.84894723090375" lon="8.073943688680115"><ele>176.0</ele><time>2026-04-19T06:56:55Z</time></trkpt><trkpt lat="44.84901357503782" lon="8.073781047046719"><ele>176.0</ele><time>2026-04-19T06:56:56Z</time></trkpt><trkpt lat="44.849093272319045" lon="8.073617565497626"><ele>176.0</ele><time>2026-04-19T06:56:57Z</time></trkpt><trkpt lat="44.84917514403113" lon="8.073461634106458"><ele>176.0</ele><time>2026-04-19T06:56:58Z</time></trkpt><trkpt lat="44.84924768137455" lon="8.073319269074998"><ele>176.0</ele><time>2026-04-19T06:56:59Z</time></trkpt><trkpt lat="44.849296291323824" lon="8.07317305985866"><ele>175.8</ele><time>2026-04-19T06:57:00Z</time></trkpt><trkpt lat="44.849354032471965" lon="8.073051199105969"><ele>175.60000000000002</ele><time>2026-04-19T06:57:01Z</time></trkpt><trkpt lat="44.84939138690489" lon="8.072928762714772"><ele>175.4</ele><time>2026-04-19T06:57:02Z</time></trkpt><trkpt lat="44.849416080143854" lon="8.072828774331818"><ele>175.2</ele><time>2026-04-19T06:57:03Z</time></trkpt><trkpt lat="44.84943012980397" lon="8.072730794268344"><ele>175.0</ele><time>2026-04-19T06:57:05Z</time></trkpt><trkpt lat="44.84957091933575" lon="8.07272790390351"><ele>175.0</ele><time>2026-04-19T06:57:09Z</time></trkpt><trkpt lat="44.849685393358094" lon="8.072780240160853"><ele>175.0</ele><time>2026-04-19T06:57:10Z</time></trkpt><trkpt lat="44.84982088973172" lon="8.072850729501646"><ele>175.0</ele><time>2026-04-19T06:57:11Z</time></trkpt><trkpt lat="44.84996076276108" lon="8.072930841385297"><ele>175.0</ele><time>2026-04-19T06:57:12Z</time></trkpt><trkpt lat="44.85010825011723" lon="8.07301342595354"><ele>175.66666666666669</ele><time>2026-04-19T06:57:13Z</time></trkpt><trkpt lat="44.8502752579392" lon="8.073114359067395"><ele>176.33333333333334</ele><time>2026-04-19T06:57:14Z</time></trkpt><trkpt lat="44.85044623207402" lon="8.073217239153543"><ele>177.0</ele><time>2026-04-19T06:57:15Z</time></trkpt><trkpt lat="44.850611596272635" lon="8.073330580426783"><ele>177.0</ele><time>2026-04-19T06:57:16Z</time></trkpt><trkpt lat="44.85078083363193" lon="8.073421728001398"><ele>177.0</ele><time>2026-04-19T06:57:17Z</time></trkpt><trkpt lat="44.8509486003688" lon="8.073504720386874"><ele>177.0</ele><time>2026-04-19T06:57:18Z</time></trkpt><trkpt lat="44.851093318353705" lon="8.073561114646646"><ele>177.0</ele><time>2026-04-19T06:57:19Z</time></trkpt><trkpt lat="44.85125412838921" lon="8.073591560131678"><ele>177.0</ele><time>2026-04-19T06:57:20Z</time></trkpt><trkpt lat="44.85142831505874" lon="8.073596875793703"><ele>177.0</ele><time>2026-04-19T06:57:21Z</time></trkpt><trkpt lat="44.85160523579023" lon="8.073588614254522"><ele>177.0</ele><time>2026-04-19T06:57:22Z</time></trkpt><trkpt lat="44.85178039938374" lon="8.073584399433633"><ele>177.0</ele><time>2026-04-19T06:57:23Z</time></trkpt><trkpt lat="44.85195033423842" lon="8.073578922958767"><ele>177.0</ele><time>2026-04-19T06:57:24Z</time></trkpt><trkpt lat="44.8521241128282" lon="8.073579997631086"><ele>177.66666666666666</ele><time>2026-04-19T06:57:25Z</time></trkpt><trkpt lat="44.8522956187661" lon="8.073582963089205"><ele>178.33333333333331</ele><time>2026-04-19T06:57:26Z</time></trkpt><trkpt lat="44.852465292732035" lon="8.073590303679529"><ele>179.0</ele><time>2026-04-19T06:57:27Z</time></trkpt><trkpt lat="44.85263807245887" lon="8.073600926554862"><ele>179.33333333333331</ele><time>2026-04-19T06:57:28Z</time></trkpt><trkpt lat="44.8528060472371" lon="8.073610273332273"><ele>179.66666666666666</ele><time>2026-04-19T06:57:29Z</time></trkpt><trkpt lat="44.85297113080076" lon="8.073619980593902"><ele>180.0</ele><time>2026-04-19T06:57:30Z</time></trkpt><trkpt lat="44.853134211248374" lon="8.073629958517987"><ele>180.0</ele><time>2026-04-19T06:57:31Z</time></trkpt><trkpt lat="44.85330282642433" lon="8.073635989840675"><ele>180.0</ele><time>2026-04-19T06:57:32Z</time></trkpt><trkpt lat="44.853458125049336" lon="8.07364650745966"><ele>180.0</ele><time>2026-04-19T06:57:33Z</time></trkpt><trkpt lat="44.85360542353712" lon="8.073653987321169"><ele>181.66666666666666</ele><time>2026-04-19T06:57:34Z</time></trkpt><trkpt lat="44.85375044947115" lon="8.073675063274681"><ele>183.33333333333331</ele><time>2026-04-19T06:57:35Z</time></trkpt><trkpt lat="44.85389828716726" lon="8.073715766729062"><ele>185.0</ele><time>2026-04-19T06:57:36Z</time></trkpt><trkpt lat="44.85404656974195" lon="8.073781449491353"><ele>185.0</ele><time>2026-04-19T06:57:37Z</time></trkpt><trkpt lat="44.85418812365079" lon="8.073870911403537"><ele>185.0</ele><time>2026-04-19T06:57:38Z</time></trkpt><trkpt lat="44.8543240698843" lon="8.073965587771239"><ele>185.0</ele><time>2026-04-19T06:57:39Z</time></trkpt><trkpt lat="44.854454814701434" lon="8.074044888987736"><ele>185.0</ele><time>2026-04-19T06:57:40Z</time></trkpt><trkpt lat="44.85457604700932" lon="8.074097763422841"><ele>186.0</ele><time>2026-04-19T06:57:41Z</time></trkpt><trkpt lat="44.85470202271876" lon="8.074097424893724"><ele>187.0</ele><time>2026-04-19T06:57:42Z</time></trkpt><trkpt lat="44.85483299037181" lon="8.074041297715949"><ele>188.0</ele><time>2026-04-19T06:57:43Z</time></trkpt><trkpt lat="44.85494816693453" lon="8.073927320783415"><ele>189.0</ele><time>2026-04-19T06:57:44Z</time></trkpt><trkpt lat="44.85504986038132" lon="8.073780608501501"><ele>189.33333333333334</ele><time>2026-04-19T06:57:45Z</time></trkpt><trkpt lat="44.85516578271028" lon="8.073612294465548"><ele>189.66666666666669</ele><time>2026-04-19T06:57:46Z</time></trkpt><trkpt lat="44.85529595557695" lon="8.07346659663163"><ele>190.0</ele><time>2026-04-19T06:57:47Z</time></trkpt><trkpt lat="44.85542035966514" lon="8.073338182419326"><ele>190.5</ele><time>2026-04-19T06:57:48Z</time></trkpt><trkpt lat="44.85553169024155" lon="8.07324484886458"><ele>191.0</ele><time>2026-04-19T06:57:49Z</time></trkpt><trkpt lat="44.85563748906773" lon="8.073178192425308"><ele>191.5</ele><time>2026-04-19T06:57:50Z</time></trkpt><trkpt lat="44.85575765590036" lon="8.073136737975844"><ele>192.0</ele><time>2026-04-19T06:57:51Z</time></trkpt><trkpt lat="44.85589382002449" lon="8.073132264534008"><ele>192.33333333333331</ele><time>2026-04-19T06:57:52Z</time></trkpt><trkpt lat="44.85603510018154" lon="8.073195091097395"><ele>192.66666666666666</ele><time>2026-04-19T06:57:53Z</time></trkpt><trkpt lat="44.856187286150856" lon="8.073256526556255"><ele>193.0</ele><time>2026-04-19T06:57:54Z</time></trkpt><trkpt lat="44.85633283322353" lon="8.07335600883336"><ele>191.33333333333331</ele><time>2026-04-19T06:57:55Z</time></trkpt><trkpt lat="44.856481095691905" lon="8.073470175525118"><ele>189.66666666666666</ele><time>2026-04-19T06:57:56Z</time></trkpt><trkpt lat="44.85660897284015" lon="8.073611065316307"><ele>188.0</ele><time>2026-04-19T06:57:57Z</time></trkpt><trkpt lat="44.856719736275096" lon="8.073755298127068"><ele>188.5</ele><time>2026-04-19T06:57:58Z</time></trkpt><trkpt lat="44.85683070046054" lon="8.073880878038354"><ele>189.0</ele><time>2026-04-19T06:57:59Z</time></trkpt><trkpt lat="44.85695904428043" lon="8.073983457249698"><ele>189.5</ele><time>2026-04-19T06:58:00Z</time></trkpt><trkpt lat="44.8570924949949" lon="8.074066748017719"><ele>190.0</ele><time>2026-04-19T06:58:01Z</time></trkpt><trkpt lat="44.8572261117477" lon="8.07414577580114"><ele>188.33333333333334</ele><time>2026-04-19T06:58:02Z</time></trkpt><trkpt lat="44.857362230217575" lon="8.074226930460654"><ele>186.66666666666666</ele><time>2026-04-19T06:58:03Z</time></trkpt><trkpt lat="44.85750203910461" lon="8.074309570456233"><ele>185.0</ele><time>2026-04-19T06:58:04Z</time></trkpt><trkpt lat="44.85766151155997" lon="8.074385242934005"><ele>184.0</ele><time>2026-04-19T06:58:05Z</time></trkpt><trkpt lat="44.857771147420436" lon="8.074453412537641"><ele>183.0</ele><time>2026-04-19T06:58:06Z</time></trkpt><trkpt lat="44.85790421841495" lon="8.07453892324858"><ele>182.0</ele><time>2026-04-19T06:58:07Z</time></trkpt><trkpt lat="44.85803891541985" lon="8.074618282699298"><ele>181.0</ele><time>2026-04-19T06:58:08Z</time></trkpt><trkpt lat="44.85817409165736" lon="8.07470126063777"><ele>181.0</ele><time>2026-04-19T06:58:09Z</time></trkpt><trkpt lat="44.85830097908248" lon="8.074781008662924"><ele>181.0</ele><time>2026-04-19T06:58:10Z</time></trkpt><trkpt lat="44.858434450098756" lon="8.07486009260818"><ele>181.0</ele><time>2026-04-19T06:58:11Z</time></trkpt><trkpt lat="44.85858176048019" lon="8.074921244036478"><ele>181.0</ele><time>2026-04-19T06:58:12Z</time></trkpt><trkpt lat="44.8587349111809" lon="8.07495877784144"><ele>179.0</ele><time>2026-04-19T06:58:13Z</time></trkpt><trkpt lat="44.85888308065675" lon="8.07499337300586"><ele>177.0</ele><time>2026-04-19T06:58:14Z</time></trkpt><trkpt lat="44.85902481287509" lon="8.075021533563996"><ele>175.0</ele><time>2026-04-19T06:58:15Z</time></trkpt><trkpt lat="44.859165082063654" lon="8.075040053880054"><ele>173.0</ele><time>2026-04-19T06:58:16Z</time></trkpt><trkpt lat="44.85930116297597" lon="8.075064066497157"><ele>172.25</ele><time>2026-04-19T06:58:17Z</time></trkpt><trkpt lat="44.85943839276354" lon="8.075084215462304"><ele>171.5</ele><time>2026-04-19T06:58:18Z</time></trkpt><trkpt lat="44.85957631990799" lon="8.075100452419498"><ele>170.75</ele><time>2026-04-19T06:58:19Z</time></trkpt><trkpt lat="44.85971512736749" lon="8.075120938839587"><ele>170.0</ele><time>2026-04-19T06:58:20Z</time></trkpt><trkpt lat="44.85985827142079" lon="8.075138115247276"><ele>170.0</ele><time>2026-04-19T06:58:21Z</time></trkpt><trkpt lat="44.85999747555733" lon="8.075158923263185"><ele>170.0</ele><time>2026-04-19T06:58:22Z</time></trkpt><trkpt lat="44.86013730554338" lon="8.075176926570988"><ele>170.0</ele><time>2026-04-19T06:58:23Z</time></trkpt><trkpt lat="44.860276047853446" lon="8.075194541964859"><ele>170.0</ele><time>2026-04-19T06:58:24Z</time></trkpt><trkpt lat="44.86041367862009" lon="8.075210685778039"><ele>170.33333333333331</ele><time>2026-04-19T06:58:25Z</time></trkpt><trkpt lat="44.860557491827905" lon="8.07520606943968"><ele>170.66666666666666</ele><time>2026-04-19T06:58:26Z</time></trkpt><trkpt lat="44.86071278537544" lon="8.075179445753287"><ele>171.0</ele><time>2026-04-19T06:58:27Z</time></trkpt><trkpt lat="44.860870872455315" lon="8.07512407626542"><ele>172.5</ele><time>2026-04-19T06:58:28Z</time></trkpt><trkpt lat="44.86101385222611" lon="8.075063302272655"><ele>174.0</ele><time>2026-04-19T06:58:29Z</time></trkpt><trkpt lat="44.86113660771413" lon="8.075010134939388"><ele>175.5</ele><time>2026-04-19T06:58:30Z</time></trkpt><trkpt lat="44.861248539503414" lon="8.074963529495687"><ele>177.0</ele><time>2026-04-19T06:58:31Z</time></trkpt><trkpt lat="44.8613493837923" lon="8.074923230218383"><ele>177.0</ele><time>2026-04-19T06:58:32Z</time></trkpt><trkpt lat="44.861444854563956" lon="8.074863838174299"><ele>177.0</ele><time>2026-04-19T06:58:33Z</time></trkpt><trkpt lat="44.86154373491629" lon="8.074795248153842"><ele>177.0</ele><time>2026-04-19T06:58:34Z</time></trkpt><trkpt lat="44.86164151666378" lon="8.074738748565839"><ele>177.0</ele><time>2026-04-19T06:58:35Z</time></trkpt><trkpt lat="44.86171533787373" lon="8.07467366973272"><ele>177.0</ele><time>2026-04-19T06:58:36Z</time></trkpt><trkpt lat="44.86177239351093" lon="8.07462006815892"><ele>179.0</ele><time>2026-04-19T06:58:37Z</time></trkpt><trkpt lat="44.861831918608026" lon="8.074561133896905"><ele>181.0</ele><time>2026-04-19T06:58:39Z</time></trkpt><trkpt lat="44.86190171760316" lon="8.074552337738293"><ele>183.0</ele><time>2026-04-19T06:58:44Z</time></trkpt><trkpt lat="44.862022797907684" lon="8.074787465146304"><ele>185.0</ele><time>2026-04-19T06:58:45Z</time></trkpt><trkpt lat="44.8620663061395" lon="8.074944960671948"><ele>186.2</ele><time>2026-04-19T06:58:47Z</time></trkpt><trkpt lat="44.86216207973052" lon="8.075024358569841"><ele>187.4</ele><time>2026-04-19T06:58:49Z</time></trkpt><trkpt lat="44.86229523454373" lon="8.075036446050975"><ele>188.60000000000002</ele><time>2026-04-19T06:58:51Z</time></trkpt><trkpt lat="44.86238059564161" lon="8.075007174778467"><ele>189.8</ele><time>2026-04-19T06:58:53Z</time></trkpt><trkpt lat="44.862469017916446" lon="8.074990052318226"><ele>191.0</ele><time>2026-04-19T06:59:00Z</time></trkpt><trkpt lat="44.86241468651234" lon="8.075104327760876"><ele>191.0</ele><time>2026-04-19T06:59:04Z</time></trkpt><trkpt lat="44.862323259071495" lon="8.075173871587875"><ele>191.0</ele><time>2026-04-19T06:59:05Z</time></trkpt><trkpt lat="44.862223740681365" lon="8.075252553816279"><ele>191.0</ele><time>2026-04-19T06:59:06Z</time></trkpt><trkpt lat="44.86214112536091" lon="8.075336629622027"><ele>191.0</ele><time>2026-04-19T06:59:07Z</time></trkpt><trkpt lat="44.86208481452647" lon="8.075422025553994"><ele>191.0</ele><time>2026-04-19T06:59:08Z</time></trkpt><trkpt lat="44.86204206110801" lon="8.075509524243452"><ele>191.0</ele><time>2026-04-19T06:59:09Z</time></trkpt><trkpt lat="44.86201200674578" lon="8.075609675518082"><ele>191.0</ele><time>2026-04-19T06:59:10Z</time></trkpt><trkpt lat="44.861980108891444" lon="8.075720262455302"><ele>191.0</ele><time>2026-04-19T06:59:11Z</time></trkpt><trkpt lat="44.86194034372254" lon="8.075822748184304"><ele>191.0</ele><time>2026-04-19T06:59:12Z</time></trkpt><trkpt lat="44.86190943412401" lon="8.075915035223778"><ele>191.0</ele><time>2026-04-19T06:59:13Z</time></trkpt><trkpt lat="44.86188631611426" lon="8.076052827612216"><ele>191.0</ele><time>2026-04-19T06:59:15Z</time></trkpt><trkpt lat="44.86193725522243" lon="8.076124836352976"><ele>191.4</ele><time>2026-04-19T06:59:19Z</time></trkpt><trkpt lat="44.862002319191184" lon="8.076172580844457"><ele>191.8</ele><time>2026-04-19T06:59:29Z</time></trkpt><trkpt lat="44.86212530897289" lon="8.076231142810899"><ele>192.20000000000002</ele><time>2026-04-19T06:59:31Z</time></trkpt><trkpt lat="44.86219586503973" lon="8.076279105163406"><ele>192.60000000000002</ele><time>2026-04-19T06:59:32Z</time></trkpt><trkpt lat="44.86227326457684" lon="8.076342224060358"><ele>193.0</ele><time>2026-04-19T06:59:33Z</time></trkpt><trkpt lat="44.862349079786384" lon="8.076378375481315"><ele>193.0</ele><time>2026-04-19T06:59:34Z</time></trkpt><trkpt lat="44.86244255329841" lon="8.076443695868951"><ele>193.0</ele><time>2026-04-19T06:59:36Z</time></trkpt><trkpt lat="44.86246676609325" lon="8.07659720472051"><ele>193.0</ele><time>2026-04-19T06:59:38Z</time></trkpt><trkpt lat="44.86243453052332" lon="8.07671913425937"><ele>193.0</ele><time>2026-04-19T06:59:39Z</time></trkpt><trkpt lat="44.8623852682023" lon="8.076865648872351"><ele>193.0</ele><time>2026-04-19T06:59:40Z</time></trkpt><trkpt lat="44.862340487190394" lon="8.077026602317453"><ele>192.8</ele><time>2026-04-19T06:59:41Z</time></trkpt><trkpt lat="44.8623142516944" lon="8.077176140458594"><ele>192.60000000000002</ele><time>2026-04-19T06:59:42Z</time></trkpt><trkpt lat="44.8622997537352" lon="8.077301358827414"><ele>192.39999999999998</ele><time>2026-04-19T06:59:43Z</time></trkpt><trkpt lat="44.86229675732808" lon="8.07740362850075"><ele>192.2</ele><time>2026-04-19T06:59:44Z</time></trkpt><trkpt lat="44.86231427074996" lon="8.077502578388858"><ele>192.0</ele><time>2026-04-19T06:59:45Z</time></trkpt><trkpt lat="44.8623856591881" lon="8.077673600514238"><ele>192.0</ele><time>2026-04-19T06:59:47Z</time></trkpt><trkpt lat="44.86242285259307" lon="8.077775557541862"><ele>192.0</ele><time>2026-04-19T06:59:48Z</time></trkpt><trkpt lat="44.86242563048814" lon="8.07788194941174"><ele>192.0</ele><time>2026-04-19T06:59:49Z</time></trkpt><trkpt lat="44.86240537121477" lon="8.078018969498798"><ele>192.0</ele><time>2026-04-19T06:59:50Z</time></trkpt><trkpt lat="44.862367752863875" lon="8.078180424303639"><ele>192.0</ele><time>2026-04-19T06:59:51Z</time></trkpt><trkpt lat="44.86232887518014" lon="8.078341483943136"><ele>192.0</ele><time>2026-04-19T06:59:52Z</time></trkpt><trkpt lat="44.86229245321894" lon="8.0785162566928"><ele>192.0</ele><time>2026-04-19T06:59:53Z</time></trkpt><trkpt lat="44.86225303828454" lon="8.078696549679448"><ele>192.0</ele><time>2026-04-19T06:59:54Z</time></trkpt><trkpt lat="44.86221311015997" lon="8.07886728318656"><ele>192.0</ele><time>2026-04-19T06:59:55Z</time></trkpt><trkpt lat="44.862178413017055" lon="8.079015822322855"><ele>191.5</ele><time>2026-04-19T06:59:56Z</time></trkpt><trkpt lat="44.86214763946915" lon="8.079180715994196"><ele>191.0</ele><time>2026-04-19T06:59:57Z</time></trkpt><trkpt lat="44.86212054289017" lon="8.079334989164105"><ele>190.5</ele><time>2026-04-19T06:59:58Z</time></trkpt><trkpt lat="44.86208619167346" lon="8.079493049593385"><ele>190.0</ele><time>2026-04-19T06:59:59Z</time></trkpt><trkpt lat="44.86204940688797" lon="8.079650222484238"><ele>190.0</ele><time>2026-04-19T07:00:00Z</time></trkpt><trkpt lat="44.862014517775116" lon="8.079821850206518"><ele>190.0</ele><time>2026-04-19T07:00:01Z</time></trkpt><trkpt lat="44.86195435224414" lon="8.08001305362791"><ele>190.0</ele><time>2026-04-19T07:00:02Z</time></trkpt><trkpt lat="44.86191264620398" lon="8.080187170901507"><ele>190.0</ele><time>2026-04-19T07:00:03Z</time></trkpt><trkpt lat="44.861874914831915" lon="8.080376249975044"><ele>189.75</ele><time>2026-04-19T07:00:04Z</time></trkpt><trkpt lat="44.861835673159916" lon="8.080561962486883"><ele>189.5</ele><time>2026-04-19T07:00:05Z</time></trkpt><trkpt lat="44.86179867167194" lon="8.08075444988681"><ele>189.25</ele><time>2026-04-19T07:00:06Z</time></trkpt><trkpt lat="44.861769369028785" lon="8.080937772543072"><ele>189.0</ele><time>2026-04-19T07:00:07Z</time></trkpt><trkpt lat="44.86175334819763" lon="8.081115387761264"><ele>189.5</ele><time>2026-04-19T07:00:08Z</time></trkpt><trkpt lat="44.86175558631105" lon="8.081306754354415"><ele>190.0</ele><time>2026-04-19T07:00:09Z</time></trkpt><trkpt lat="44.861749096368975" lon="8.081502072360374"><ele>190.5</ele><time>2026-04-19T07:00:10Z</time></trkpt><trkpt lat="44.86174661725093" lon="8.081701693883009"><ele>191.0</ele><time>2026-04-19T07:00:11Z</time></trkpt><trkpt lat="44.8617424810836" lon="8.08189107373977"><ele>191.0</ele><time>2026-04-19T07:00:12Z</time></trkpt><trkpt lat="44.8617392774254" lon="8.08205157910953"><ele>191.0</ele><time>2026-04-19T07:00:13Z</time></trkpt><trkpt lat="44.86172041638092" lon="8.08220270236408"><ele>191.0</ele><time>2026-04-19T07:00:14Z</time></trkpt><trkpt lat="44.86171703313464" lon="8.082344928785819"><ele>191.0</ele><time>2026-04-19T07:00:15Z</time></trkpt><trkpt lat="44.861721384115825" lon="8.082464533707059"><ele>191.0</ele><time>2026-04-19T07:00:16Z</time></trkpt><trkpt lat="44.86172473647138" lon="8.082555493267689"><ele>191.0</ele><time>2026-04-19T07:00:17Z</time></trkpt><trkpt lat="44.86170819353976" lon="8.082670410087854"><ele>191.0</ele><time>2026-04-19T07:00:20Z</time></trkpt><trkpt lat="44.86180860277802" lon="8.082766927528805"><ele>191.0</ele><time>2026-04-19T07:00:22Z</time></trkpt><trkpt lat="44.86188220823149" lon="8.082810546652277"><ele>191.0</ele><time>2026-04-19T07:00:23Z</time></trkpt><trkpt lat="44.86196546214516" lon="8.082889917206465"><ele>191.0</ele><time>2026-04-19T07:00:24Z</time></trkpt><trkpt lat="44.86204102026214" lon="8.082984943648167"><ele>191.0</ele><time>2026-04-19T07:00:25Z</time></trkpt><trkpt lat="44.86210424935971" lon="8.083117691313879"><ele>191.0</ele><time>2026-04-19T07:00:26Z</time></trkpt><trkpt lat="44.8621789044434" lon="8.083245169303918"><ele>191.0</ele><time>2026-04-19T07:00:27Z</time></trkpt><trkpt lat="44.862236736414275" lon="8.083397984487023"><ele>191.0</ele><time>2026-04-19T07:00:28Z</time></trkpt><trkpt lat="44.862301248547816" lon="8.083506050211755"><ele>190.66666666666666</ele><time>2026-04-19T07:00:29Z</time></trkpt><trkpt lat="44.86238019931855" lon="8.083598450430479"><ele>190.33333333333331</ele><time>2026-04-19T07:00:30Z</time></trkpt><trkpt lat="44.86247302018193" lon="8.083696602535658"><ele>190.0</ele><time>2026-04-19T07:00:31Z</time></trkpt><trkpt lat="44.86252963764035" lon="8.083768084405756"><ele>189.66666666666666</ele><time>2026-04-19T07:00:32Z</time></trkpt><trkpt lat="44.8625541402129" lon="8.083852491651907"><ele>189.33333333333334</ele><time>2026-04-19T07:00:34Z</time></trkpt><trkpt lat="44.86253689086199" lon="8.08394135978319"><ele>189.0</ele><time>2026-04-19T07:00:36Z</time></trkpt><trkpt lat="44.862500878853005" lon="8.084063069203973"><ele>188.25</ele><time>2026-04-19T07:00:37Z</time></trkpt><trkpt lat="44.86244481127553" lon="8.08419660219459"><ele>187.5</ele><time>2026-04-19T07:00:38Z</time></trkpt><trkpt lat="44.86236078909406" lon="8.0843326398009"><ele>186.75</ele><time>2026-04-19T07:00:39Z</time></trkpt><trkpt lat="44.862286704516826" lon="8.08445319390124"><ele>186.0</ele><time>2026-04-19T07:00:40Z</time></trkpt><trkpt lat="44.862165800562245" lon="8.084539255352063"><ele>186.0</ele><time>2026-04-19T07:00:41Z</time></trkpt><trkpt lat="44.86204052368178" lon="8.084627725114467"><ele>186.0</ele><time>2026-04-19T07:00:42Z</time></trkpt><trkpt lat="44.86194756472571" lon="8.084714446801957"><ele>186.0</ele><time>2026-04-19T07:00:43Z</time></trkpt><trkpt lat="44.861870757075906" lon="8.084845210784525"><ele>186.0</ele><time>2026-04-19T07:00:44Z</time></trkpt><trkpt lat="44.86179460612804" lon="8.085019691517195"><ele>183.0</ele><time>2026-04-19T07:00:45Z</time></trkpt><trkpt lat="44.861726830225706" lon="8.085213964011842"><ele>180.0</ele><time>2026-04-19T07:00:46Z</time></trkpt><trkpt lat="44.86163413211092" lon="8.085419325201133"><ele>177.0</ele><time>2026-04-19T07:00:47Z</time></trkpt><trkpt lat="44.86153767618169" lon="8.08561199707912"><ele>176.33333333333334</ele><time>2026-04-19T07:00:48Z</time></trkpt><trkpt lat="44.86141396244812" lon="8.085825876856624"><ele>175.66666666666669</ele><time>2026-04-19T07:00:49Z</time></trkpt><trkpt lat="44.861304905319464" lon="8.086024011301745"><ele>175.0</ele><time>2026-04-19T07:00:50Z</time></trkpt><trkpt lat="44.86120560150589" lon="8.086208451654258"><ele>175.0</ele><time>2026-04-19T07:00:51Z</time></trkpt><trkpt lat="44.86110853312269" lon="8.086388985243621"><ele>175.0</ele><time>2026-04-19T07:00:52Z</time></trkpt><trkpt lat="44.86102021021331" lon="8.08655413504508"><ele>175.0</ele><time>2026-04-19T07:00:53Z</time></trkpt><trkpt lat="44.86094218495073" lon="8.086707713119166"><ele>175.0</ele><time>2026-04-19T07:00:54Z</time></trkpt><trkpt lat="44.860872143523764" lon="8.086844877921685"><ele>174.66666666666669</ele><time>2026-04-19T07:00:55Z</time></trkpt><trkpt lat="44.86082044218972" lon="8.086944298681304"><ele>174.33333333333334</ele><time>2026-04-19T07:00:56Z</time></trkpt><trkpt lat="44.86079327033032" lon="8.087025067997127"><ele>174.0</ele><time>2026-04-19T07:00:57Z</time></trkpt><trkpt lat="44.86087275648437" lon="8.087116831468276"><ele>173.66666666666666</ele><time>2026-04-19T07:01:00Z</time></trkpt><trkpt lat="44.86094038647374" lon="8.087097998544708"><ele>173.33333333333331</ele><time>2026-04-19T07:01:01Z</time></trkpt><trkpt lat="44.86102566029916" lon="8.08709290987729"><ele>173.0</ele><time>2026-04-19T07:01:02Z</time></trkpt><trkpt lat="44.86112161953079" lon="8.087096909458586"><ele>172.75</ele><time>2026-04-19T07:01:03Z</time></trkpt><trkpt lat="44.86124404228083" lon="8.087097886575261"><ele>172.5</ele><time>2026-04-19T07:01:04Z</time></trkpt><trkpt lat="44.86138273594637" lon="8.08711251284109"><ele>172.25</ele><time>2026-04-19T07:01:05Z</time></trkpt><trkpt lat="44.861530146140915" lon="8.087151813614433"><ele>172.0</ele><time>2026-04-19T07:01:06Z</time></trkpt><trkpt lat="44.86168426224472" lon="8.087208954384634"><ele>171.75</ele><time>2026-04-19T07:01:07Z</time></trkpt><trkpt lat="44.861817966456385" lon="8.0872757400343"><ele>171.5</ele><time>2026-04-19T07:01:08Z</time></trkpt><trkpt lat="44.86195547655715" lon="8.087344624349205"><ele>171.25</ele><time>2026-04-19T07:01:09Z</time></trkpt><trkpt lat="44.86209051192866" lon="8.087437671467217"><ele>171.0</ele><time>2026-04-19T07:01:10Z</time></trkpt><trkpt lat="44.86224838479392" lon="8.08748846395609"><ele>171.0</ele><time>2026-04-19T07:01:11Z</time></trkpt><trkpt lat="44.862394718554874" lon="8.087547717270292"><ele>171.0</ele><time>2026-04-19T07:01:12Z</time></trkpt><trkpt lat="44.86254523802334" lon="8.087604484630198"><ele>171.0</ele><time>2026-04-19T07:01:13Z</time></trkpt><trkpt lat="44.86270851341384" lon="8.087666086682805"><ele>172.0</ele><time>2026-04-19T07:01:14Z</time></trkpt><trkpt lat="44.86285431918739" lon="8.087715248742796"><ele>173.0</ele><time>2026-04-19T07:01:15Z</time></trkpt><trkpt lat="44.862989089950325" lon="8.087753236074946"><ele>174.0</ele><time>2026-04-19T07:01:16Z</time></trkpt><trkpt lat="44.863134902657066" lon="8.08779815970657"><ele>175.0</ele><time>2026-04-19T07:01:17Z</time></trkpt><trkpt lat="44.86327434652627" lon="8.08784020749784"><ele>175.0</ele><time>2026-04-19T07:01:18Z</time></trkpt><trkpt lat="44.86339954682296" lon="8.087868727660885"><ele>175.0</ele><time>2026-04-19T07:01:19Z</time></trkpt><trkpt lat="44.86351969899343" lon="8.087885252923849"><ele>175.0</ele><time>2026-04-19T07:01:20Z</time></trkpt><trkpt lat="44.86362924107667" lon="8.087897478298053"><ele>175.0</ele><time>2026-04-19T07:01:21Z</time></trkpt><trkpt lat="44.86373280105136" lon="8.087908206385025"><ele>175.0</ele><time>2026-04-19T07:01:22Z</time></trkpt><trkpt lat="44.86381822214604" lon="8.087940608209793"><ele>175.0</ele><time>2026-04-19T07:01:23Z</time></trkpt><trkpt lat="44.86389558677143" lon="8.087951447338313"><ele>175.0</ele><time>2026-04-19T07:01:24Z</time></trkpt><trkpt lat="44.8639617917811" lon="8.08795833025029"><ele>175.0</ele><time>2026-04-19T07:01:25Z</time></trkpt><trkpt lat="44.8640326158501" lon="8.08796532114912"><ele>175.0</ele><time>2026-04-19T07:01:27Z</time></trkpt><trkpt lat="44.86398555920509" lon="8.088118798519798"><ele>175.0</ele><time>2026-04-19T07:01:28Z</time></trkpt><trkpt lat="44.86397426969147" lon="8.088249188976267"><ele>174.75</ele><time>2026-04-19T07:01:29Z</time></trkpt><trkpt lat="44.863961286128806" lon="8.088399972590574"><ele>174.5</ele><time>2026-04-19T07:01:30Z</time></trkpt><trkpt lat="44.86394704217331" lon="8.088586794487423"><ele>174.25</ele><time>2026-04-19T07:01:31Z</time></trkpt><trkpt lat="44.86393267375851" lon="8.088795170551357"><ele>174.0</ele><time>2026-04-19T07:01:32Z</time></trkpt><trkpt lat="44.86391442071902" lon="8.088986301272593"><ele>174.0</ele><time>2026-04-19T07:01:33Z</time></trkpt><trkpt lat="44.863900385572656" lon="8.08911563740836"><ele>174.0</ele><time>2026-04-19T07:01:34Z</time></trkpt><trkpt lat="44.86389396031395" lon="8.089245220257792"><ele>174.0</ele><time>2026-04-19T07:01:36Z</time></trkpt><trkpt lat="44.86403025697838" lon="8.089241924879031"><ele>174.0</ele><time>2026-04-19T07:01:38Z</time></trkpt><trkpt lat="44.864090312992346" lon="8.089180139108414"><ele>174.0</ele><time>2026-04-19T07:01:39Z</time></trkpt><trkpt lat="44.86414115318338" lon="8.089088130507786"><ele>174.0</ele><time>2026-04-19T07:01:40Z</time></trkpt><trkpt lat="44.86421860925481" lon="8.088971734058877"><ele>174.0</ele><time>2026-04-19T07:01:41Z</time></trkpt><trkpt lat="44.86431933445285" lon="8.088854458828708"><ele>174.0</ele><time>2026-04-19T07:01:42Z</time></trkpt><trkpt lat="44.86441673239886" lon="8.088757757281483"><ele>174.0</ele><time>2026-04-19T07:01:43Z</time></trkpt><trkpt lat="44.86448863648902" lon="8.088715754245401"><ele>174.0</ele><time>2026-04-19T07:01:44Z</time></trkpt><trkpt lat="44.864556247980744" lon="8.088723710311188"><ele>174.0</ele><time>2026-04-19T07:01:45Z</time></trkpt><trkpt lat="44.864641109836796" lon="8.08878132176172"><ele>174.0</ele><time>2026-04-19T07:01:46Z</time></trkpt><trkpt lat="44.864726775391375" lon="8.088893795353089"><ele>174.0</ele><time>2026-04-19T07:01:47Z</time></trkpt><trkpt lat="44.86483090145229" lon="8.089039438907188"><ele>174.0</ele><time>2026-04-19T07:01:48Z</time></trkpt><trkpt lat="44.86494259407246" lon="8.089177389986443"><ele>173.75</ele><time>2026-04-19T07:01:49Z</time></trkpt><trkpt lat="44.8650663769715" lon="8.08932810047338"><ele>173.5</ele><time>2026-04-19T07:01:50Z</time></trkpt><trkpt lat="44.86518688619551" lon="8.089463115754352"><ele>173.25</ele><time>2026-04-19T07:01:51Z</time></trkpt><trkpt lat="44.86529389715252" lon="8.089563634845877"><ele>173.0</ele><time>2026-04-19T07:01:52Z</time></trkpt><trkpt lat="44.86539903354307" lon="8.089668225693075"><ele>173.0</ele><time>2026-04-19T07:01:53Z</time></trkpt><trkpt lat="44.86551514816547" lon="8.089780237207451"><ele>173.0</ele><time>2026-04-19T07:01:54Z</time></trkpt><trkpt lat="44.86562341629071" lon="8.089885360905676"><ele>173.0</ele><time>2026-04-19T07:01:55Z</time></trkpt><trkpt lat="44.86573582881727" lon="8.089996187126275"><ele>173.0</ele><time>2026-04-19T07:01:56Z</time></trkpt><trkpt lat="44.86585094368053" lon="8.090106331782888"><ele>173.0</ele><time>2026-04-19T07:01:57Z</time></trkpt><trkpt lat="44.86596489702715" lon="8.090239382717654"><ele>173.0</ele><time>2026-04-19T07:01:58Z</time></trkpt><trkpt lat="44.866082504504995" lon="8.090381723836357"><ele>173.0</ele><time>2026-04-19T07:01:59Z</time></trkpt><trkpt lat="44.86620929402064" lon="8.090511758363398"><ele>173.0</ele><time>2026-04-19T07:02:00Z</time></trkpt><trkpt lat="44.86633223042787" lon="8.0906417310563"><ele>173.0</ele><time>2026-04-19T07:02:01Z</time></trkpt><trkpt lat="44.86641772508176" lon="8.090726004663626"><ele>173.0</ele><time>2026-04-19T07:02:02Z</time></trkpt><trkpt lat="44.866512463585856" lon="8.090801756580719"><ele>173.0</ele><time>2026-04-19T07:02:03Z</time></trkpt><trkpt lat="44.866641371196344" lon="8.090848707861854"><ele>173.66666666666666</ele><time>2026-04-19T07:02:04Z</time></trkpt><trkpt lat="44.86679023806699" lon="8.090889835608428"><ele>174.33333333333334</ele><time>2026-04-19T07:02:05Z</time></trkpt><trkpt lat="44.86695166527841" lon="8.090934227919568"><ele>175.0</ele><time>2026-04-19T07:02:06Z</time></trkpt><trkpt lat="44.8671050002783" lon="8.090989058372648"><ele>175.0</ele><time>2026-04-19T07:02:07Z</time></trkpt><trkpt lat="44.86724253562408" lon="8.091044130385752"><ele>175.0</ele><time>2026-04-19T07:02:08Z</time></trkpt><trkpt lat="44.86736328700836" lon="8.09108968254048"><ele>175.0</ele><time>2026-04-19T07:02:09Z</time></trkpt><trkpt lat="44.867458934394705" lon="8.0911075018571"><ele>175.0</ele><time>2026-04-19T07:02:10Z</time></trkpt><trkpt lat="44.86753698510462" lon="8.091104937284607"><ele>175.0</ele><time>2026-04-19T07:02:11Z</time></trkpt><trkpt lat="44.8676055909637" lon="8.091104312847367"><ele>173.6</ele><time>2026-04-19T07:02:12Z</time></trkpt><trkpt lat="44.86772265576412" lon="8.091118331675304"><ele>172.2</ele><time>2026-04-19T07:02:14Z</time></trkpt><trkpt lat="44.86776565677612" lon="8.091291357440834"><ele>170.8</ele><time>2026-04-19T07:02:16Z</time></trkpt><trkpt lat="44.86778625771677" lon="8.09142005181865"><ele>169.4</ele><time>2026-04-19T07:02:17Z</time></trkpt><trkpt lat="44.86783243052388" lon="8.091551453023602"><ele>168.0</ele><time>2026-04-19T07:02:18Z</time></trkpt><trkpt lat="44.86790442956751" lon="8.091674351166057"><ele>168.0</ele><time>2026-04-19T07:02:19Z</time></trkpt><trkpt lat="44.86800557608275" lon="8.091797181157766"><ele>168.0</ele><time>2026-04-19T07:02:20Z</time></trkpt><trkpt lat="44.86810089462317" lon="8.09187497434849"><ele>168.0</ele><time>2026-04-19T07:02:21Z</time></trkpt><trkpt lat="44.86819305224976" lon="8.091924719395628"><ele>168.0</ele><time>2026-04-19T07:02:22Z</time></trkpt><trkpt lat="44.86827707992078" lon="8.09196758254386"><ele>168.0</ele><time>2026-04-19T07:02:23Z</time></trkpt><trkpt lat="44.86839002802717" lon="8.092010100320879"><ele>165.75</ele><time>2026-04-19T07:02:24Z</time></trkpt><trkpt lat="44.868516043207144" lon="8.092051617115802"><ele>163.5</ele><time>2026-04-19T07:02:25Z</time></trkpt><trkpt lat="44.868632048494206" lon="8.092127713461482"><ele>161.25</ele><time>2026-04-19T07:02:26Z</time></trkpt><trkpt lat="44.868726680996915" lon="8.09220384791527"><ele>159.0</ele><time>2026-04-19T07:02:27Z</time></trkpt><trkpt lat="44.868810307503274" lon="8.09229991028384"><ele>159.0</ele><time>2026-04-19T07:02:28Z</time></trkpt><trkpt lat="44.86886837331283" lon="8.092401979283476"><ele>159.0</ele><time>2026-04-19T07:02:29Z</time></trkpt><trkpt lat="44.868939201349164" lon="8.092437882795656"><ele>159.0</ele><time>2026-04-19T07:02:30Z</time></trkpt><trkpt lat="44.86904531672331" lon="8.09242733588191"><ele>159.0</ele><time>2026-04-19T07:02:32Z</time></trkpt><trkpt lat="44.869134618642796" lon="8.092358375983945"><ele>159.0</ele><time>2026-04-19T07:02:33Z</time></trkpt><trkpt lat="44.86924508980462" lon="8.09225440092352"><ele>159.0</ele><time>2026-04-19T07:02:34Z</time></trkpt><trkpt lat="44.86938870441923" lon="8.092169723720124"><ele>159.0</ele><time>2026-04-19T07:02:35Z</time></trkpt><trkpt lat="44.8695416222843" lon="8.092099316233822"><ele>159.0</ele><time>2026-04-19T07:02:36Z</time></trkpt><trkpt lat="44.86967236320506" lon="8.092025062835251"><ele>159.0</ele><time>2026-04-19T07:02:37Z</time></trkpt><trkpt lat="44.86980552214804" lon="8.091968043115322"><ele>159.0</ele><time>2026-04-19T07:02:38Z</time></trkpt><trkpt lat="44.86991991029423" lon="8.091919554095348"><ele>159.0</ele><time>2026-04-19T07:02:39Z</time></trkpt><trkpt lat="44.87003139574468" lon="8.091866111807361"><ele>159.0</ele><time>2026-04-19T07:02:40Z</time></trkpt><trkpt lat="44.870155958565256" lon="8.091804279206443"><ele>160.5</ele><time>2026-04-19T07:02:41Z</time></trkpt><trkpt lat="44.87028571550816" lon="8.091741828806683"><ele>162.0</ele><time>2026-04-19T07:02:42Z</time></trkpt><trkpt lat="44.87041628542661" lon="8.091689074419827"><ele>163.5</ele><time>2026-04-19T07:02:43Z</time></trkpt><trkpt lat="44.87055538096189" lon="8.09164011232789"><ele>165.0</ele><time>2026-04-19T07:02:44Z</time></trkpt><trkpt lat="44.87069352781375" lon="8.091596297577981"><ele>165.6</ele><time>2026-04-19T07:02:45Z</time></trkpt><trkpt lat="44.87081623873722" lon="8.09155112458909"><ele>166.2</ele><time>2026-04-19T07:02:46Z</time></trkpt><trkpt lat="44.87091938865367" lon="8.091514051546639"><ele>166.8</ele><time>2026-04-19T07:02:47Z</time></trkpt><trkpt lat="44.87101028815417" lon="8.09148904715312"><ele>167.4</ele><time>2026-04-19T07:02:48Z</time></trkpt><trkpt lat="44.87108024097552" lon="8.09149171464761"><ele>168.0</ele><time>2026-04-19T07:02:49Z</time></trkpt><trkpt lat="44.871191641715306" lon="8.091543034654716"><ele>168.0</ele><time>2026-04-19T07:02:51Z</time></trkpt><trkpt lat="44.87126789877711" lon="8.091538622760426"><ele>168.0</ele><time>2026-04-19T07:02:52Z</time></trkpt><trkpt lat="44.87136459637926" lon="8.091515690503348"><ele>168.0</ele><time>2026-04-19T07:02:53Z</time></trkpt><trkpt lat="44.87144741296489" lon="8.09149914606932"><ele>168.0</ele><time>2026-04-19T07:02:54Z</time></trkpt><trkpt lat="44.87154808970112" lon="8.091524895665632"><ele>168.0</ele><time>2026-04-19T07:02:56Z</time></trkpt><trkpt lat="44.871622229752774" lon="8.091588681236635"><ele>168.0</ele><time>2026-04-19T07:02:57Z</time></trkpt><trkpt lat="44.87169039700701" lon="8.091716123317132"><ele>167.75</ele><time>2026-04-19T07:02:58Z</time></trkpt><trkpt lat="44.871744382577674" lon="8.091843029626244"><ele>167.5</ele><time>2026-04-19T07:02:59Z</time></trkpt><trkpt lat="44.87180346204542" lon="8.09199950484167"><ele>167.25</ele><time>2026-04-19T07:03:00Z</time></trkpt><trkpt lat="44.871873551873875" lon="8.092136096158587"><ele>167.0</ele><time>2026-04-19T07:03:01Z</time></trkpt><trkpt lat="44.87194875780495" lon="8.092230973440959"><ele>167.0</ele><time>2026-04-19T07:03:02Z</time></trkpt><trkpt lat="44.87204147227215" lon="8.09227602772211"><ele>167.0</ele><time>2026-04-19T07:03:03Z</time></trkpt><trkpt lat="44.87215669420639" lon="8.092288974282086"><ele>167.0</ele><time>2026-04-19T07:03:04Z</time></trkpt><trkpt lat="44.872279577514476" lon="8.092263009006755"><ele>167.0</ele><time>2026-04-19T07:03:05Z</time></trkpt><trkpt lat="44.87240909692831" lon="8.092206942047495"><ele>167.0</ele><time>2026-04-19T07:03:06Z</time></trkpt><trkpt lat="44.87254795889816" lon="8.09215138730983"><ele>167.0</ele><time>2026-04-19T07:03:07Z</time></trkpt><trkpt lat="44.872691241464565" lon="8.092103921624954"><ele>167.0</ele><time>2026-04-19T07:03:08Z</time></trkpt><trkpt lat="44.87284657158069" lon="8.092086847095514"><ele>167.0</ele><time>2026-04-19T07:03:09Z</time></trkpt><trkpt lat="44.8729959055945" lon="8.092072375196791"><ele>166.75</ele><time>2026-04-19T07:03:10Z</time></trkpt><trkpt lat="44.87315329127489" lon="8.092048589170195"><ele>166.5</ele><time>2026-04-19T07:03:11Z</time></trkpt><trkpt lat="44.873300024282095" lon="8.092024589595473"><ele>166.25</ele><time>2026-04-19T07:03:12Z</time></trkpt><trkpt lat="44.87343953729694" lon="8.09200166682743"><ele>166.0</ele><time>2026-04-19T07:03:13Z</time></trkpt><trkpt lat="44.87356399661042" lon="8.09198107443071"><ele>166.0</ele><time>2026-04-19T07:03:14Z</time></trkpt><trkpt lat="44.87367232028861" lon="8.09196031562562"><ele>166.0</ele><time>2026-04-19T07:03:15Z</time></trkpt><trkpt lat="44.87377191812819" lon="8.09194323403412"><ele>166.0</ele><time>2026-04-19T07:03:16Z</time></trkpt><trkpt lat="44.87386577100437" lon="8.091928720731662"><ele>166.0</ele><time>2026-04-19T07:03:17Z</time></trkpt><trkpt lat="44.87395523487747" lon="8.091914987712052"><ele>166.0</ele><time>2026-04-19T07:03:18Z</time></trkpt><trkpt lat="44.87403764057619" lon="8.09190399229574"><ele>166.0</ele><time>2026-04-19T07:03:19Z</time></trkpt><trkpt lat="44.874116015556126" lon="8.091896855443306"><ele>166.0</ele><time>2026-04-19T07:03:20Z</time></trkpt><trkpt lat="44.87419444346138" lon="8.091875459885122"><ele>166.0</ele><time>2026-04-19T07:03:21Z</time></trkpt><trkpt lat="44.87427196144779" lon="8.091865180693375"><ele>166.0</ele><time>2026-04-19T07:03:22Z</time></trkpt><trkpt lat="44.87435892420007" lon="8.091846187572276"><ele>166.0</ele><time>2026-04-19T07:03:23Z</time></trkpt><trkpt lat="44.87444762958008" lon="8.091831975834575"><ele>166.0</ele><time>2026-04-19T07:03:24Z</time></trkpt><trkpt lat="44.87454695535347" lon="8.09181376434729"><ele>166.25</ele><time>2026-04-19T07:03:25Z</time></trkpt><trkpt lat="44.87465044001369" lon="8.09178918280595"><ele>166.5</ele><time>2026-04-19T07:03:26Z</time></trkpt><trkpt lat="44.874767920719655" lon="8.091818567902017"><ele>166.75</ele><time>2026-04-19T07:03:27Z</time></trkpt><trkpt lat="44.87488329866252" lon="8.091795454876534"><ele>167.0</ele><time>2026-04-19T07:03:28Z</time></trkpt><trkpt lat="44.87499669507658" lon="8.091771941588323"><ele>167.0</ele><time>2026-04-19T07:03:29Z</time></trkpt><trkpt lat="44.87510240557728" lon="8.09172785041474"><ele>167.0</ele><time>2026-04-19T07:03:30Z</time></trkpt><trkpt lat="44.87520201214106" lon="8.091653690417143"><ele>167.0</ele><time>2026-04-19T07:03:31Z</time></trkpt><trkpt lat="44.875302122219516" lon="8.09155471648347"><ele>167.0</ele><time>2026-04-19T07:03:32Z</time></trkpt><trkpt lat="44.875389879271566" lon="8.09144645421157"><ele>166.5</ele><time>2026-04-19T07:03:33Z</time></trkpt><trkpt lat="44.875458508735626" lon="8.091351041780072"><ele>166.0</ele><time>2026-04-19T07:03:34Z</time></trkpt><trkpt lat="44.875498596372516" lon="8.091260377731881"><ele>165.5</ele><time>2026-04-19T07:03:35Z</time></trkpt><trkpt lat="44.87555708530806" lon="8.091187118699976"><ele>165.0</ele><time>2026-04-19T07:03:37Z</time></trkpt><trkpt lat="44.8756221484593" lon="8.091092005711225"><ele>164.5</ele><time>2026-04-19T07:03:40Z</time></trkpt><trkpt lat="44.87566613919223" lon="8.091016409884588"><ele>164.0</ele><time>2026-04-19T07:03:41Z</time></trkpt><trkpt lat="44.87557220675935" lon="8.090919302479666"><ele>163.66666666666666</ele><time>2026-04-19T07:03:43Z</time></trkpt><trkpt lat="44.875548013938094" lon="8.09075502163335"><ele>163.33333333333334</ele><time>2026-04-19T07:03:44Z</time></trkpt><trkpt lat="44.87552803175941" lon="8.090586444168876"><ele>163.0</ele><time>2026-04-19T07:03:45Z</time></trkpt><trkpt lat="44.87592112672216" lon="8.090329601625415"><ele>165.75</ele><time>2026-04-19T07:03:46Z</time></trkpt><trkpt lat="44.87594649321022" lon="8.0901463687277"><ele>168.5</ele><time>2026-04-19T07:03:47Z</time></trkpt><trkpt lat="44.87597081741594" lon="8.089962273654393"><ele>171.25</ele><time>2026-04-19T07:03:48Z</time></trkpt><trkpt lat="44.876000284275406" lon="8.089802039462734"><ele>174.0</ele><time>2026-04-19T07:03:49Z</time></trkpt><trkpt lat="44.876034381149815" lon="8.089638736523094"><ele>175.0</ele><time>2026-04-19T07:03:50Z</time></trkpt><trkpt lat="44.876081610490715" lon="8.089444826255809"><ele>176.0</ele><time>2026-04-19T07:03:51Z</time></trkpt><trkpt lat="44.876134819333096" lon="8.089231804911554"><ele>177.0</ele><time>2026-04-19T07:03:52Z</time></trkpt><trkpt lat="44.87618781866734" lon="8.089019163701334"><ele>175.25</ele><time>2026-04-19T07:03:53Z</time></trkpt><trkpt lat="44.876237389553566" lon="8.088819870353635"><ele>173.5</ele><time>2026-04-19T07:03:54Z</time></trkpt><trkpt lat="44.87628009212645" lon="8.088639875850523"><ele>171.75</ele><time>2026-04-19T07:03:55Z</time></trkpt><trkpt lat="44.87631228315836" lon="8.08846351086469"><ele>170.0</ele><time>2026-04-19T07:03:56Z</time></trkpt><trkpt lat="44.876326396615454" lon="8.088255028603085"><ele>170.0</ele><time>2026-04-19T07:03:57Z</time></trkpt><trkpt lat="44.87633095832743" lon="8.088032138103925"><ele>170.0</ele><time>2026-04-19T07:03:58Z</time></trkpt><trkpt lat="44.87633550866112" lon="8.087804641329262"><ele>170.0</ele><time>2026-04-19T07:03:59Z</time></trkpt><trkpt lat="44.87633678162611" lon="8.087587906633756"><ele>171.0</ele><time>2026-04-19T07:04:00Z</time></trkpt><trkpt lat="44.87633869478807" lon="8.087373319694859"><ele>172.0</ele><time>2026-04-19T07:04:01Z</time></trkpt><trkpt lat="44.87634098449291" lon="8.087165747130852"><ele>173.0</ele><time>2026-04-19T07:04:02Z</time></trkpt><trkpt lat="44.87633885874734" lon="8.086953508952012"><ele>173.0</ele><time>2026-04-19T07:04:03Z</time></trkpt><trkpt lat="44.87633301019049" lon="8.086726467812142"><ele>173.0</ele><time>2026-04-19T07:04:04Z</time></trkpt><trkpt lat="44.87632902920107" lon="8.086486190277233"><ele>173.0</ele><time>2026-04-19T07:04:05Z</time></trkpt><trkpt lat="44.876323397329976" lon="8.086267640009426"><ele>172.66666666666666</ele><time>2026-04-19T07:04:06Z</time></trkpt><trkpt lat="44.876320912690325" lon="8.086044876021425"><ele>172.33333333333334</ele><time>2026-04-19T07:04:06.999Z</time></trkpt><trkpt lat="44.876320583375794" lon="8.085820248595736"><ele>172.0</ele><time>2026-04-19T07:04:07.999Z</time></trkpt><trkpt lat="44.876323550392335" lon="8.085621757189562"><ele>172.0</ele><time>2026-04-19T07:04:08.999Z</time></trkpt><trkpt lat="44.87632018511228" lon="8.085429100992137"><ele>172.0</ele><time>2026-04-19T07:04:10Z</time></trkpt><trkpt lat="44.87630365006533" lon="8.08522942059097"><ele>172.0</ele><time>2026-04-19T07:04:11Z</time></trkpt><trkpt lat="44.87628300565845" lon="8.085046792299707"><ele>172.0</ele><time>2026-04-19T07:04:12Z</time></trkpt><trkpt lat="44.87627045439117" lon="8.0848779997665"><ele>172.0</ele><time>2026-04-19T07:04:13Z</time></trkpt><trkpt lat="44.876269843742826" lon="8.084709161344842"><ele>172.0</ele><time>2026-04-19T07:04:14Z</time></trkpt><trkpt lat="44.876287804927195" lon="8.084532195088373"><ele>172.0</ele><time>2026-04-19T07:04:15Z</time></trkpt><trkpt lat="44.87633230453311" lon="8.08434028355463"><ele>172.0</ele><time>2026-04-19T07:04:16Z</time></trkpt><trkpt lat="44.87638538935308" lon="8.084152595273066"><ele>172.25</ele><time>2026-04-19T07:04:17Z</time></trkpt><trkpt lat="44.87643051899598" lon="8.083963534959246"><ele>172.5</ele><time>2026-04-19T07:04:18Z</time></trkpt><trkpt lat="44.87646650801192" lon="8.083789675762368"><ele>172.75</ele><time>2026-04-19T07:04:19Z</time></trkpt><trkpt lat="44.87650132388829" lon="8.083627788159978"><ele>173.0</ele><time>2026-04-19T07:04:20Z</time></trkpt><trkpt lat="44.87655168144966" lon="8.083481094377241"><ele>173.0</ele><time>2026-04-19T07:04:21Z</time></trkpt><trkpt lat="44.876611510033214" lon="8.083355820663822"><ele>173.0</ele><time>2026-04-19T07:04:22Z</time></trkpt><trkpt lat="44.87665369817874" lon="8.083239123536313"><ele>173.0</ele><time>2026-04-19T07:04:23Z</time></trkpt><trkpt lat="44.876656375313026" lon="8.08309412262546"><ele>173.0</ele><time>2026-04-19T07:04:24Z</time></trkpt><trkpt lat="44.87665050075462" lon="8.082928956261897"><ele>173.0</ele><time>2026-04-19T07:04:25Z</time></trkpt><trkpt lat="44.876655416638364" lon="8.082768194650214"><ele>173.60000000000002</ele><time>2026-04-19T07:04:26Z</time></trkpt><trkpt lat="44.876673361271095" lon="8.082599014683053"><ele>174.20000000000002</ele><time>2026-04-19T07:04:27Z</time></trkpt><trkpt lat="44.87669758435274" lon="8.082434631721593"><ele>174.8</ele><time>2026-04-19T07:04:28Z</time></trkpt><trkpt lat="44.87671459780367" lon="8.082289784576014"><ele>175.4</ele><time>2026-04-19T07:04:29Z</time></trkpt><trkpt lat="44.87672622478208" lon="8.082161154418825"><ele>176.0</ele><time>2026-04-19T07:04:30Z</time></trkpt><trkpt lat="44.87674455300737" lon="8.08205323519257"><ele>177.4</ele><time>2026-04-19T07:04:31Z</time></trkpt><trkpt lat="44.87672200357162" lon="8.081962943972162"><ele>178.8</ele><time>2026-04-19T07:04:33Z</time></trkpt><trkpt lat="44.87657079832838" lon="8.081893571703857"><ele>180.20000000000002</ele><time>2026-04-19T07:04:35Z</time></trkpt><trkpt lat="44.87647172663172" lon="8.081835784627021"><ele>181.60000000000002</ele><time>2026-04-19T07:04:36Z</time></trkpt><trkpt lat="44.8763800330545" lon="8.08176802685479"><ele>183.0</ele><time>2026-04-19T07:04:37Z</time></trkpt><trkpt lat="44.87630608371545" lon="8.081660891558757"><ele>183.60000000000002</ele><time>2026-04-19T07:04:38Z</time></trkpt><trkpt lat="44.87624125230537" lon="8.081546114826116"><ele>184.20000000000002</ele><time>2026-04-19T07:04:39Z</time></trkpt><trkpt lat="44.876187900477056" lon="8.081461491360159"><ele>184.8</ele><time>2026-04-19T07:04:40Z</time></trkpt><trkpt lat="44.876161315897946" lon="8.081373838522813"><ele>185.4</ele><time>2026-04-19T07:04:41Z</time></trkpt><trkpt lat="44.87613633782579" lon="8.081265481074869"><ele>186.0</ele><time>2026-04-19T07:04:42Z</time></trkpt><trkpt lat="44.8761171493695" lon="8.081102283506283"><ele>186.0</ele><time>2026-04-19T07:04:43Z</time></trkpt><trkpt lat="44.87609095488561" lon="8.080966208153548"><ele>186.0</ele><time>2026-04-19T07:04:44Z</time></trkpt><trkpt lat="44.87606766721981" lon="8.080852592349533"><ele>186.0</ele><time>2026-04-19T07:04:45Z</time></trkpt><trkpt lat="44.87604179282227" lon="8.080756129788867"><ele>186.0</ele><time>2026-04-19T07:04:46Z</time></trkpt><trkpt lat="44.876015801770414" lon="8.080640666598365"><ele>186.0</ele><time>2026-04-19T07:04:47Z</time></trkpt><trkpt lat="44.87599141532823" lon="8.080533715757214"><ele>186.0</ele><time>2026-04-19T07:04:48Z</time></trkpt><trkpt lat="44.87596675096314" lon="8.080411251118235"><ele>186.20000000000002</ele><time>2026-04-19T07:04:49Z</time></trkpt><trkpt lat="44.87594846948971" lon="8.08030316633275"><ele>186.4</ele><time>2026-04-19T07:04:50Z</time></trkpt><trkpt lat="44.87593366389814" lon="8.080187975603184"><ele>186.6</ele><time>2026-04-19T07:04:51Z</time></trkpt><trkpt lat="44.875913445006304" lon="8.080088271745824"><ele>186.8</ele><time>2026-04-19T07:04:52Z</time></trkpt><trkpt lat="44.8759235022683" lon="8.079946732415207"><ele>187.0</ele><time>2026-04-19T07:04:54Z</time></trkpt><trkpt lat="44.8759185455036" lon="8.079763798500021"><ele>189.66666666666669</ele><time>2026-04-19T07:04:56Z</time></trkpt><trkpt lat="44.87589967398307" lon="8.07966154622502"><ele>192.33333333333334</ele><time>2026-04-19T07:04:57Z</time></trkpt><trkpt lat="44.87590145028511" lon="8.079559473721659"><ele>195.0</ele><time>2026-04-19T07:04:58Z</time></trkpt><trkpt lat="44.875910511779324" lon="8.079386645942936"><ele>197.66666666666669</ele><time>2026-04-19T07:05:00Z</time></trkpt><trkpt lat="44.87589610548941" lon="8.079275725683102"><ele>200.33333333333334</ele><time>2026-04-19T07:05:01Z</time></trkpt><trkpt lat="44.87588817553715" lon="8.079165200468623"><ele>203.0</ele><time>2026-04-19T07:05:02Z</time></trkpt><trkpt lat="44.87590553546288" lon="8.07903155485379"><ele>204.2</ele><time>2026-04-19T07:05:03Z</time></trkpt><trkpt lat="44.875897024339025" lon="8.078893541074617"><ele>205.4</ele><time>2026-04-19T07:05:04Z</time></trkpt><trkpt lat="44.875897730708274" lon="8.078756792078947"><ele>206.6</ele><time>2026-04-19T07:05:05Z</time></trkpt><trkpt lat="44.87591354592729" lon="8.078619611751861"><ele>207.79999999999998</ele><time>2026-04-19T07:05:06Z</time></trkpt><trkpt lat="44.87592058545331" lon="8.07848309281901"><ele>209.0</ele><time>2026-04-19T07:05:07Z</time></trkpt><trkpt lat="44.87592942562229" lon="8.07832977848008"><ele>210.2</ele><time>2026-04-19T07:05:08Z</time></trkpt><trkpt lat="44.87593096260529" lon="8.078159684978306"><ele>211.39999999999998</ele><time>2026-04-19T07:05:09Z</time></trkpt><trkpt lat="44.875921380879575" lon="8.077992711679258"><ele>212.6</ele><time>2026-04-19T07:05:10Z</time></trkpt><trkpt lat="44.87589886806133" lon="8.07787734247065"><ele>213.8</ele><time>2026-04-19T07:05:11Z</time></trkpt><trkpt lat="44.87586266762761" lon="8.077780537589591"><ele>215.0</ele><time>2026-04-19T07:05:12Z</time></trkpt><trkpt lat="44.875801971641486" lon="8.077676275947988"><ele>215.00000000000003</ele><time>2026-04-19T07:05:13Z</time></trkpt><trkpt lat="44.875735438574644" lon="8.077594371278101"><ele>215.0</ele><time>2026-04-19T07:05:14Z</time></trkpt><trkpt lat="44.875670023421584" lon="8.0775538360117"><ele>215.0</ele><time>2026-04-19T07:05:15Z</time></trkpt><trkpt lat="44.875591273029265" lon="8.07750451260948"><ele>215.0</ele><time>2026-04-19T07:05:17Z</time></trkpt><trkpt lat="44.87561077781413" lon="8.077372215214565"><ele>215.00000000000003</ele><time>2026-04-19T07:05:19Z</time></trkpt><trkpt lat="44.87565087612906" lon="8.077297012304406"><ele>215.0</ele><time>2026-04-19T07:05:20Z</time></trkpt><trkpt lat="44.87570771086833" lon="8.077161870530741"><ele>215.66666666666669</ele><time>2026-04-19T07:05:22Z</time></trkpt><trkpt lat="44.87559132646797" lon="8.077150747923529"><ele>216.33333333333334</ele><time>2026-04-19T07:05:29Z</time></trkpt><trkpt lat="44.87555414434455" lon="8.077226820267347"><ele>217.0</ele><time>2026-04-19T07:05:30Z</time></trkpt><trkpt lat="44.87550175685721" lon="8.077339610686726"><ele>217.66666666666669</ele><time>2026-04-19T07:05:32Z</time></trkpt><trkpt lat="44.87543673320722" lon="8.077330247578328"><ele>218.33333333333334</ele><time>2026-04-19T07:05:34Z</time></trkpt><trkpt lat="44.8753769352113" lon="8.077266698642257"><ele>219.0</ele><time>2026-04-19T07:05:37Z</time></trkpt><trkpt lat="44.875313148182975" lon="8.077185346998517"><ele>219.0</ele><time>2026-04-19T07:05:39Z</time></trkpt><trkpt lat="44.875237706092086" lon="8.07707410235712"><ele>218.99999999999997</ele><time>2026-04-19T07:05:41Z</time></trkpt><trkpt lat="44.87513136860217" lon="8.077006126797809"><ele>218.99999999999997</ele><time>2026-04-19T07:05:43Z</time></trkpt><trkpt lat="44.875059929617656" lon="8.076937995114072"><ele>219.0</ele><time>2026-04-19T07:05:45Z</time></trkpt><trkpt lat="44.875015346403984" lon="8.076853293248794"><ele>219.0</ele><time>2026-04-19T07:05:47Z</time></trkpt><trkpt lat="44.87496472148183" lon="8.076725092461706"><ele>217.16666666666666</ele><time>2026-04-19T07:05:49Z</time></trkpt><trkpt lat="44.874938479353354" lon="8.076638628898229"><ele>215.33333333333331</ele><time>2026-04-19T07:05:50Z</time></trkpt><trkpt lat="44.8749036987627" lon="8.076542661745709"><ele>213.5</ele><time>2026-04-19T07:05:51Z</time></trkpt><trkpt lat="44.87486907242133" lon="8.076453542689894"><ele>211.66666666666666</ele><time>2026-04-19T07:05:52Z</time></trkpt><trkpt lat="44.87483941737518" lon="8.07637322409591"><ele>209.83333333333331</ele><time>2026-04-19T07:05:53Z</time></trkpt><trkpt lat="44.87477471676334" lon="8.076186818301409"><ele>208.0</ele><time>2026-04-19T07:05:55Z</time></trkpt><trkpt lat="44.87474019210585" lon="8.076090237969677"><ele>207.66666666666666</ele><time>2026-04-19T07:05:56Z</time></trkpt><trkpt lat="44.87471623428574" lon="8.07598104566041"><ele>207.33333333333331</ele><time>2026-04-19T07:05:57Z</time></trkpt><trkpt lat="44.87469347033484" lon="8.075874025898413"><ele>207.0</ele><time>2026-04-19T07:05:58Z</time></trkpt><trkpt lat="44.87467786433925" lon="8.075767972848121"><ele>206.66666666666669</ele><time>2026-04-19T07:05:59Z</time></trkpt><trkpt lat="44.87465530363468" lon="8.075648668539857"><ele>206.33333333333334</ele><time>2026-04-19T07:06:00Z</time></trkpt><trkpt lat="44.874630244203395" lon="8.07552349560208"><ele>206.0</ele><time>2026-04-19T07:06:01Z</time></trkpt><trkpt lat="44.8746067105834" lon="8.0753781506923"><ele>204.60000000000002</ele><time>2026-04-19T07:06:02Z</time></trkpt><trkpt lat="44.87457805890874" lon="8.075229264078969"><ele>203.2</ele><time>2026-04-19T07:06:03Z</time></trkpt><trkpt lat="44.874553449068024" lon="8.075097296564484"><ele>201.8</ele><time>2026-04-19T07:06:04Z</time></trkpt><trkpt lat="44.87453058476464" lon="8.075006055398074"><ele>200.39999999999998</ele><time>2026-04-19T07:06:05Z</time></trkpt><trkpt lat="44.87446946783865" lon="8.074956153352625"><ele>199.0</ele><time>2026-04-19T07:06:07Z</time></trkpt><trkpt lat="44.87440339578385" lon="8.075108326943884"><ele>199.0</ele><time>2026-04-19T07:06:09Z</time></trkpt><trkpt lat="44.87436825389534" lon="8.075225745619848"><ele>199.0</ele><time>2026-04-19T07:06:10Z</time></trkpt><trkpt lat="44.8743090705301" lon="8.075345249769535"><ele>199.0</ele><time>2026-04-19T07:06:11Z</time></trkpt><trkpt lat="44.874258933397975" lon="8.075456845950505"><ele>199.0</ele><time>2026-04-19T07:06:12Z</time></trkpt><trkpt lat="44.87419964700193" lon="8.075557487498344"><ele>199.0</ele><time>2026-04-19T07:06:13Z</time></trkpt><trkpt lat="44.87410534445653" lon="8.075651708415455"><ele>199.0</ele><time>2026-04-19T07:06:14Z</time></trkpt><trkpt lat="44.87403681152341" lon="8.075753251940949"><ele>199.0</ele><time>2026-04-19T07:06:15Z</time></trkpt><trkpt lat="44.87397185736183" lon="8.075865991136231"><ele>199.0</ele><time>2026-04-19T07:06:16Z</time></trkpt><trkpt lat="44.87390447479408" lon="8.0759975116755"><ele>199.0</ele><time>2026-04-19T07:06:17Z</time></trkpt><trkpt lat="44.87383868985719" lon="8.076105437101821"><ele>199.0</ele><time>2026-04-19T07:06:18Z</time></trkpt><trkpt lat="44.873770589321154" lon="8.076186729192091"><ele>199.0</ele><time>2026-04-19T07:06:19Z</time></trkpt><trkpt lat="44.873691836410536" lon="8.07625312783024"><ele>199.0</ele><time>2026-04-19T07:06:20Z</time></trkpt><trkpt lat="44.87359784307706" lon="8.076322934638714"><ele>199.0</ele><time>2026-04-19T07:06:21Z</time></trkpt><trkpt lat="44.87348670766092" lon="8.07639593506887"><ele>199.0</ele><time>2026-04-19T07:06:22Z</time></trkpt><trkpt lat="44.87336678866363" lon="8.076475222297875"><ele>198.39999999999998</ele><time>2026-04-19T07:06:23Z</time></trkpt><trkpt lat="44.87325390482381" lon="8.076546232659018"><ele>197.8</ele><time>2026-04-19T07:06:24Z</time></trkpt><trkpt lat="44.87315766546304" lon="8.076582172281132"><ele>197.2</ele><time>2026-04-19T07:06:25Z</time></trkpt><trkpt lat="44.87305714649418" lon="8.076593935434254"><ele>196.60000000000002</ele><time>2026-04-19T07:06:26Z</time></trkpt><trkpt lat="44.87295050813085" lon="8.076610770227958"><ele>196.0</ele><time>2026-04-19T07:06:27Z</time></trkpt><trkpt lat="44.87285727173591" lon="8.076632497875215"><ele>196.0</ele><time>2026-04-19T07:06:28Z</time></trkpt><trkpt lat="44.87278722585321" lon="8.076655747522455"><ele>196.0</ele><time>2026-04-19T07:06:29Z</time></trkpt><trkpt lat="44.872717952259585" lon="8.076670102064229"><ele>196.0</ele><time>2026-04-19T07:06:30Z</time></trkpt><trkpt lat="44.87263772596517" lon="8.076631242835354"><ele>196.0</ele><time>2026-04-19T07:06:31Z</time></trkpt><trkpt lat="44.87252164418177" lon="8.076542869921349"><ele>196.0</ele><time>2026-04-19T07:06:32Z</time></trkpt><trkpt lat="44.872386449641986" lon="8.076506253993319"><ele>197.25</ele><time>2026-04-19T07:06:33Z</time></trkpt><trkpt lat="44.87224531316044" lon="8.076498173507531"><ele>198.5</ele><time>2026-04-19T07:06:34Z</time></trkpt><trkpt lat="44.87211739241642" lon="8.076482241287867"><ele>199.75</ele><time>2026-04-19T07:06:35Z</time></trkpt><trkpt lat="44.87201084103751" lon="8.076465197853794"><ele>201.0</ele><time>2026-04-19T07:06:36Z</time></trkpt><trkpt lat="44.87189908147537" lon="8.076427380830713"><ele>201.0</ele><time>2026-04-19T07:06:37Z</time></trkpt><trkpt lat="44.871803128949026" lon="8.076432361785164"><ele>201.0</ele><time>2026-04-19T07:06:38Z</time></trkpt><trkpt lat="44.87171712814867" lon="8.076465492095098"><ele>201.0</ele><time>2026-04-19T07:06:39Z</time></trkpt><trkpt lat="44.87163337272992" lon="8.076514031674707"><ele>201.0</ele><time>2026-04-19T07:06:40Z</time></trkpt><trkpt lat="44.871537353905076" lon="8.076579827372763"><ele>201.0</ele><time>2026-04-19T07:06:41Z</time></trkpt><trkpt lat="44.871433567659835" lon="8.076618998288561"><ele>200.8</ele><time>2026-04-19T07:06:42Z</time></trkpt><trkpt lat="44.87133896285028" lon="8.076635799029493"><ele>200.60000000000002</ele><time>2026-04-19T07:06:43Z</time></trkpt><trkpt lat="44.871233797683075" lon="8.076637874780644"><ele>200.4</ele><time>2026-04-19T07:06:44Z</time></trkpt><trkpt lat="44.871134489666986" lon="8.076629904520493"><ele>200.2</ele><time>2026-04-19T07:06:45Z</time></trkpt><trkpt lat="44.87101790303384" lon="8.07659478461802"><ele>200.0</ele><time>2026-04-19T07:06:46Z</time></trkpt><trkpt lat="44.8709014044766" lon="8.076563699583936"><ele>199.4</ele><time>2026-04-19T07:06:47Z</time></trkpt><trkpt lat="44.870788345276" lon="8.076545357886712"><ele>198.8</ele><time>2026-04-19T07:06:48Z</time></trkpt><trkpt lat="44.870677115440046" lon="8.076540294220043"><ele>198.2</ele><time>2026-04-19T07:06:49Z</time></trkpt><trkpt lat="44.8705766093573" lon="8.076537823299192"><ele>197.6</ele><time>2026-04-19T07:06:50Z</time></trkpt><trkpt lat="44.870471278627214" lon="8.076545394805894"><ele>197.0</ele><time>2026-04-19T07:06:51Z</time></trkpt><trkpt lat="44.870372335484134" lon="8.076579714100454"><ele>197.00000000000003</ele><time>2026-04-19T07:06:52Z</time></trkpt><trkpt lat="44.87029655020623" lon="8.076608378534255"><ele>197.0</ele><time>2026-04-19T07:06:53Z</time></trkpt><trkpt lat="44.87020992105023" lon="8.076643638761263"><ele>197.0</ele><time>2026-04-19T07:06:55Z</time></trkpt><trkpt lat="44.8701568136255" lon="8.0764883174327"><ele>197.0</ele><time>2026-04-19T07:06:58Z</time></trkpt><trkpt lat="44.87015368966801" lon="8.076379969981502"><ele>197.00000000000003</ele><time>2026-04-19T07:06:59Z</time></trkpt><trkpt lat="44.87015285930913" lon="8.076279718637764"><ele>197.0</ele><time>2026-04-19T07:07:00Z</time></trkpt><trkpt lat="44.870145832801974" lon="8.07618339076105"><ele>197.00000000000003</ele><time>2026-04-19T07:07:01Z</time></trkpt><trkpt lat="44.870131211843805" lon="8.076083545342817"><ele>197.0</ele><time>2026-04-19T07:07:02Z</time></trkpt><trkpt lat="44.87012020595636" lon="8.075958262154588"><ele>197.0</ele><time>2026-04-19T07:07:03Z</time></trkpt><trkpt lat="44.87011997231932" lon="8.075850687065333"><ele>197.0</ele><time>2026-04-19T07:07:04Z</time></trkpt><trkpt lat="44.87011603294119" lon="8.075728690589695"><ele>197.00000000000003</ele><time>2026-04-19T07:07:06Z</time></trkpt><trkpt lat="44.870174548903584" lon="8.075602818740991"><ele>197.0</ele><time>2026-04-19T07:07:09Z</time></trkpt><trkpt lat="44.87023458415018" lon="8.075548058444776"><ele>197.39999999999998</ele><time>2026-04-19T07:07:10Z</time></trkpt><trkpt lat="44.87029340333319" lon="8.07548999224467"><ele>197.79999999999998</ele><time>2026-04-19T07:07:12Z</time></trkpt><trkpt lat="44.87040606828914" lon="8.07548589618482"><ele>198.2</ele><time>2026-04-19T07:07:14Z</time></trkpt><trkpt lat="44.87048691051723" lon="8.075515956382919"><ele>198.6</ele><time>2026-04-19T07:07:15Z</time></trkpt><trkpt lat="44.87059060410426" lon="8.075499289215987"><ele>199.0</ele><time>2026-04-19T07:07:16Z</time></trkpt><trkpt lat="44.870704235860956" lon="8.075482121377583"><ele>199.0</ele><time>2026-04-19T07:07:17Z</time></trkpt><trkpt lat="44.870811340647144" lon="8.075454784458016"><ele>199.0</ele><time>2026-04-19T07:07:18Z</time></trkpt><trkpt lat="44.87090152270163" lon="8.075465471868133"><ele>199.0</ele><time>2026-04-19T07:07:19Z</time></trkpt><trkpt lat="44.87100443199773" lon="8.075499440585325"><ele>199.0</ele><time>2026-04-19T07:07:20Z</time></trkpt><trkpt lat="44.871076062758455" lon="8.075538365517092"><ele>199.0</ele><time>2026-04-19T07:07:21Z</time></trkpt><trkpt lat="44.87116302844077" lon="8.075510903760016"><ele>200.79999999999998</ele><time>2026-04-19T07:07:22Z</time></trkpt><trkpt lat="44.87126420629872" lon="8.07545372856848"><ele>202.6</ele><time>2026-04-19T07:07:23Z</time></trkpt><trkpt lat="44.871361127052324" lon="8.075412834638733"><ele>204.4</ele><time>2026-04-19T07:07:24Z</time></trkpt><trkpt lat="44.87147671437609" lon="8.075390949935832"><ele>206.2</ele><time>2026-04-19T07:07:25Z</time></trkpt><trkpt lat="44.871588251635664" lon="8.075358881486896"><ele>208.0</ele><time>2026-04-19T07:07:26Z</time></trkpt><trkpt lat="44.87168377193827" lon="8.075303425211661"><ele>208.5</ele><time>2026-04-19T07:07:27Z</time></trkpt><trkpt lat="44.871785175403076" lon="8.075181496572903"><ele>209.0</ele><time>2026-04-19T07:07:28Z</time></trkpt><trkpt lat="44.87187707959021" lon="8.075037540530792"><ele>209.5</ele><time>2026-04-19T07:07:29Z</time></trkpt><trkpt lat="44.87194503033189" lon="8.074920084562097"><ele>210.0</ele><time>2026-04-19T07:07:30Z</time></trkpt><trkpt lat="44.87202459112124" lon="8.074818809598357"><ele>210.6</ele><time>2026-04-19T07:07:31Z</time></trkpt><trkpt lat="44.87210266862847" lon="8.074719392470744"><ele>211.2</ele><time>2026-04-19T07:07:32Z</time></trkpt><trkpt lat="44.872218494109866" lon="8.074687210012542"><ele>211.8</ele><time>2026-04-19T07:07:33Z</time></trkpt><trkpt lat="44.872320022288925" lon="8.07464702429433"><ele>212.4</ele><time>2026-04-19T07:07:34Z</time></trkpt><trkpt lat="44.87242640823428" lon="8.074608823901457"><ele>213.0</ele><time>2026-04-19T07:07:35Z</time></trkpt><trkpt lat="44.87250344221534" lon="8.074551495545236"><ele>213.0</ele><time>2026-04-19T07:07:36Z</time></trkpt><trkpt lat="44.87257311585094" lon="8.074462011441002"><ele>213.0</ele><time>2026-04-19T07:07:37Z</time></trkpt><trkpt lat="44.8726503702407" lon="8.074362320065617"><ele>213.0</ele><time>2026-04-19T07:07:38Z</time></trkpt><trkpt lat="44.8727413753307" lon="8.074242201193725"><ele>213.0</ele><time>2026-04-19T07:07:39Z</time></trkpt><trkpt lat="44.872822813715125" lon="8.074139354932301"><ele>213.0</ele><time>2026-04-19T07:07:40Z</time></trkpt><trkpt lat="44.872886700495904" lon="8.074049129319699"><ele>214.8</ele><time>2026-04-19T07:07:41Z</time></trkpt><trkpt lat="44.87294279182394" lon="8.073949565514832"><ele>216.60000000000002</ele><time>2026-04-19T07:07:42Z</time></trkpt><trkpt lat="44.87300434891962" lon="8.073822110013325"><ele>218.39999999999998</ele><time>2026-04-19T07:07:43Z</time></trkpt><trkpt lat="44.87306801986801" lon="8.073673297171057"><ele>220.2</ele><time>2026-04-19T07:07:44Z</time></trkpt><trkpt lat="44.873114947255026" lon="8.073553726675627"><ele>222.0</ele><time>2026-04-19T07:07:45Z</time></trkpt><trkpt lat="44.87316649359636" lon="8.073466251726924"><ele>222.0</ele><time>2026-04-19T07:07:46Z</time></trkpt><trkpt lat="44.87322132639555" lon="8.07336127971256"><ele>222.0</ele><time>2026-04-19T07:07:47Z</time></trkpt><trkpt lat="44.87330481671298" lon="8.073301953062243"><ele>222.0</ele><time>2026-04-19T07:07:48Z</time></trkpt><trkpt lat="44.87335304540781" lon="8.073243704266808"><ele>222.0</ele><time>2026-04-19T07:07:49Z</time></trkpt><trkpt lat="44.87341779360686" lon="8.073204634518328"><ele>222.0</ele><time>2026-04-19T07:07:50Z</time></trkpt><trkpt lat="44.87354404583175" lon="8.073167581201774"><ele>222.0</ele><time>2026-04-19T07:07:52Z</time></trkpt><trkpt lat="44.873634243835355" lon="8.073100154635771"><ele>222.83333333333334</ele><time>2026-04-19T07:07:54Z</time></trkpt><trkpt lat="44.87370086224198" lon="8.073075696644178"><ele>223.66666666666669</ele><time>2026-04-19T07:07:55Z</time></trkpt><trkpt lat="44.87377998901064" lon="8.07303371560787"><ele>224.5</ele><time>2026-04-19T07:07:56Z</time></trkpt><trkpt lat="44.873855466311646" lon="8.072972344099648"><ele>225.33333333333334</ele><time>2026-04-19T07:07:57Z</time></trkpt><trkpt lat="44.87392793871366" lon="8.07290162108419"><ele>226.16666666666669</ele><time>2026-04-19T07:07:58Z</time></trkpt><trkpt lat="44.874008887633984" lon="8.07278452968633"><ele>227.0</ele><time>2026-04-19T07:07:59Z</time></trkpt><trkpt lat="44.874098527148504" lon="8.07268707072391"><ele>227.0</ele><time>2026-04-19T07:08:00Z</time></trkpt><trkpt lat="44.87419097619539" lon="8.072580757265202"><ele>227.0</ele><time>2026-04-19T07:08:01Z</time></trkpt><trkpt lat="44.874284252590186" lon="8.072482099542459"><ele>227.0</ele><time>2026-04-19T07:08:02Z</time></trkpt><trkpt lat="44.87435026705116" lon="8.072408123595956"><ele>227.0</ele><time>2026-04-19T07:08:03Z</time></trkpt><trkpt lat="44.87441793086124" lon="8.072352259045207"><ele>227.0</ele><time>2026-04-19T07:08:04Z</time></trkpt><trkpt lat="44.874503080594344" lon="8.072305149607665"><ele>226.8</ele><time>2026-04-19T07:08:05Z</time></trkpt><trkpt lat="44.87459178427428" lon="8.072299347062364"><ele>226.6</ele><time>2026-04-19T07:08:06Z</time></trkpt><trkpt lat="44.874692256160124" lon="8.072333986626946"><ele>226.40000000000003</ele><time>2026-04-19T07:08:07Z</time></trkpt><trkpt lat="44.87479216168909" lon="8.072350948654444"><ele>226.20000000000002</ele><time>2026-04-19T07:08:08Z</time></trkpt><trkpt lat="44.87487441069078" lon="8.072325537824463"><ele>226.0</ele><time>2026-04-19T07:08:09Z</time></trkpt><trkpt lat="44.874963425521905" lon="8.072258495846153"><ele>226.0</ele><time>2026-04-19T07:08:10Z</time></trkpt><trkpt lat="44.875038739089185" lon="8.072120763088499"><ele>226.0</ele><time>2026-04-19T07:08:11Z</time></trkpt><trkpt lat="44.87513580257539" lon="8.071973382021659"><ele>226.0</ele><time>2026-04-19T07:08:12Z</time></trkpt><trkpt lat="44.875231244149454" lon="8.07186233571093"><ele>226.0</ele><time>2026-04-19T07:08:13Z</time></trkpt><trkpt lat="44.8753139765746" lon="8.071758370786803"><ele>225.33333333333331</ele><time>2026-04-19T07:08:14Z</time></trkpt><trkpt lat="44.87537772861804" lon="8.07166343631211"><ele>224.66666666666666</ele><time>2026-04-19T07:08:15Z</time></trkpt><trkpt lat="44.87542055330516" lon="8.071575030550072"><ele>224.0</ele><time>2026-04-19T07:08:16Z</time></trkpt><trkpt lat="44.87547870895203" lon="8.071513498785977"><ele>223.33333333333331</ele><time>2026-04-19T07:08:17Z</time></trkpt><trkpt lat="44.87555439863638" lon="8.071471254765491"><ele>222.66666666666666</ele><time>2026-04-19T07:08:18Z</time></trkpt><trkpt lat="44.8756161985627" lon="8.07139938454563"><ele>222.0</ele><time>2026-04-19T07:08:19Z</time></trkpt><trkpt lat="44.87566827343546" lon="8.071299927511935"><ele>221.39999999999998</ele><time>2026-04-19T07:08:20Z</time></trkpt><trkpt lat="44.875737038038466" lon="8.071165367508415"><ele>220.79999999999998</ele><time>2026-04-19T07:08:21Z</time></trkpt><trkpt lat="44.8758148144012" lon="8.071038899362874"><ele>220.2</ele><time>2026-04-19T07:08:22Z</time></trkpt><trkpt lat="44.875880336768354" lon="8.070926766926688"><ele>219.6</ele><time>2026-04-19T07:08:23Z</time></trkpt><trkpt lat="44.875950399322264" lon="8.070814412933114"><ele>219.0</ele><time>2026-04-19T07:08:24Z</time></trkpt><trkpt lat="44.87600337907136" lon="8.070693965903027"><ele>220.79999999999998</ele><time>2026-04-19T07:08:25Z</time></trkpt><trkpt lat="44.87604692288955" lon="8.070585462033044"><ele>222.59999999999997</ele><time>2026-04-19T07:08:26Z</time></trkpt><trkpt lat="44.87610691802821" lon="8.070484001664218"><ele>224.4</ele><time>2026-04-19T07:08:27Z</time></trkpt><trkpt lat="44.87618384425182" lon="8.070373902224729"><ele>226.2</ele><time>2026-04-19T07:08:28Z</time></trkpt><trkpt lat="44.876243741479776" lon="8.070264712564304"><ele>228.0</ele><time>2026-04-19T07:08:29Z</time></trkpt><trkpt lat="44.87629898493867" lon="8.070174683705352"><ele>228.0</ele><time>2026-04-19T07:08:30Z</time></trkpt><trkpt lat="44.876345480060195" lon="8.070079537905327"><ele>228.0</ele><time>2026-04-19T07:08:31Z</time></trkpt><trkpt lat="44.876387873239096" lon="8.069966487846164"><ele>228.0</ele><time>2026-04-19T07:08:32Z</time></trkpt><trkpt lat="44.8764329418482" lon="8.069856623454053"><ele>228.0</ele><time>2026-04-19T07:08:33Z</time></trkpt><trkpt lat="44.87648777844041" lon="8.069703878637014"><ele>228.0</ele><time>2026-04-19T07:08:34Z</time></trkpt><trkpt lat="44.87655345649013" lon="8.0695700228452"><ele>227.8</ele><time>2026-04-19T07:08:35Z</time></trkpt><trkpt lat="44.87662464002837" lon="8.069452325706601"><ele>227.60000000000002</ele><time>2026-04-19T07:08:36Z</time></trkpt><trkpt lat="44.876679448865964" lon="8.069355298979886"><ele>227.39999999999998</ele><time>2026-04-19T07:08:37Z</time></trkpt><trkpt lat="44.876726470844766" lon="8.069238138308263"><ele>227.2</ele><time>2026-04-19T07:08:38Z</time></trkpt><trkpt lat="44.876761232923414" lon="8.069102960958558"><ele>227.0</ele><time>2026-04-19T07:08:39Z</time></trkpt><trkpt lat="44.87679313304459" lon="8.068973499338883"><ele>227.0</ele><time>2026-04-19T07:08:40Z</time></trkpt><trkpt lat="44.87683535578577" lon="8.068847466194711"><ele>227.0</ele><time>2026-04-19T07:08:41Z</time></trkpt><trkpt lat="44.87687979512863" lon="8.068730027501108"><ele>227.0</ele><time>2026-04-19T07:08:42Z</time></trkpt><trkpt lat="44.876920871983074" lon="8.068606051199998"><ele>227.0</ele><time>2026-04-19T07:08:43Z</time></trkpt><trkpt lat="44.876940205376066" lon="8.06848030290446"><ele>227.0</ele><time>2026-04-19T07:08:44Z</time></trkpt><trkpt lat="44.87697745761362" lon="8.068367297936478"><ele>227.0</ele><time>2026-04-19T07:08:45Z</time></trkpt><trkpt lat="44.87700581305788" lon="8.068280968377605"><ele>227.0</ele><time>2026-04-19T07:08:46Z</time></trkpt><trkpt lat="44.87703560148509" lon="8.068142923455746"><ele>227.0</ele><time>2026-04-19T07:08:48Z</time></trkpt><trkpt lat="44.87708609915497" lon="8.067972862160236"><ele>227.0</ele><time>2026-04-19T07:08:50Z</time></trkpt><trkpt lat="44.87711128968042" lon="8.06787298883674"><ele>227.0</ele><time>2026-04-19T07:08:51Z</time></trkpt><trkpt lat="44.87713131069774" lon="8.067753456399508"><ele>228.8</ele><time>2026-04-19T07:08:52Z</time></trkpt><trkpt lat="44.87716484842573" lon="8.06763601081256"><ele>230.6</ele><time>2026-04-19T07:08:53Z</time></trkpt><trkpt lat="44.877199173030064" lon="8.067515233973479"><ele>232.40000000000003</ele><time>2026-04-19T07:08:54Z</time></trkpt><trkpt lat="44.87722162007041" lon="8.067391966453176"><ele>234.20000000000002</ele><time>2026-04-19T07:08:55Z</time></trkpt><trkpt lat="44.877253577139705" lon="8.067265778639843"><ele>236.0</ele><time>2026-04-19T07:08:56Z</time></trkpt><trkpt lat="44.8772759247861" lon="8.06713507329234"><ele>238.0</ele><time>2026-04-19T07:08:57Z</time></trkpt><trkpt lat="44.877293513041096" lon="8.066994508664232"><ele>240.00000000000003</ele><time>2026-04-19T07:08:58Z</time></trkpt><trkpt lat="44.87729829035542" lon="8.066852646204309"><ele>242.00000000000003</ele><time>2026-04-19T07:08:59Z</time></trkpt><trkpt lat="44.87729511653579" lon="8.066674322443763"><ele>244.0</ele><time>2026-04-19T07:09:00Z</time></trkpt><trkpt lat="44.8772874597064" lon="8.066568707099057"><ele>246.0</ele><time>2026-04-19T07:09:01Z</time></trkpt><trkpt lat="44.87726228101494" lon="8.066450560053358"><ele>248.4</ele><time>2026-04-19T07:09:02Z</time></trkpt><trkpt lat="44.87723509549635" lon="8.06632449183857"><ele>250.8</ele><time>2026-04-19T07:09:03Z</time></trkpt><trkpt lat="44.877212591790446" lon="8.066195227545775"><ele>253.20000000000002</ele><time>2026-04-19T07:09:04Z</time></trkpt><trkpt lat="44.87719958582316" lon="8.066080634466802"><ele>255.60000000000002</ele><time>2026-04-19T07:09:05Z</time></trkpt><trkpt lat="44.877213503253685" lon="8.065901728854117"><ele>258.0</ele><time>2026-04-19T07:09:07Z</time></trkpt><trkpt lat="44.877247026970004" lon="8.065785711051292"><ele>258.8</ele><time>2026-04-19T07:09:08Z</time></trkpt><trkpt lat="44.87729013271335" lon="8.065655378661118"><ele>259.6</ele><time>2026-04-19T07:09:09Z</time></trkpt><trkpt lat="44.87732538570914" lon="8.065511989545687"><ele>260.4</ele><time>2026-04-19T07:09:10Z</time></trkpt><trkpt lat="44.87733907207815" lon="8.065371975686288"><ele>261.2</ele><time>2026-04-19T07:09:11Z</time></trkpt><trkpt lat="44.87737930551813" lon="8.065213821363166"><ele>262.0</ele><time>2026-04-19T07:09:12Z</time></trkpt><trkpt lat="44.87743876654681" lon="8.065070902509232"><ele>262.0</ele><time>2026-04-19T07:09:13Z</time></trkpt><trkpt lat="44.87747932378649" lon="8.064974667697602"><ele>262.0</ele><time>2026-04-19T07:09:14Z</time></trkpt><trkpt lat="44.87749017217841" lon="8.064842471772469"><ele>262.0</ele><time>2026-04-19T07:09:15Z</time></trkpt><trkpt lat="44.87749973476692" lon="8.06468563727974"><ele>262.0</ele><time>2026-04-19T07:09:16Z</time></trkpt><trkpt lat="44.87753898079233" lon="8.064569041202324"><ele>262.0</ele><time>2026-04-19T07:09:17Z</time></trkpt><trkpt lat="44.87762244824481" lon="8.06444320996636"><ele>259.8</ele><time>2026-04-19T07:09:18Z</time></trkpt><trkpt lat="44.877717374871345" lon="8.064323042696566"><ele>257.6</ele><time>2026-04-19T07:09:19Z</time></trkpt><trkpt lat="44.877803590751554" lon="8.064211340852566"><ele>255.40000000000003</ele><time>2026-04-19T07:09:20Z</time></trkpt><trkpt lat="44.877870922429764" lon="8.064132478270883"><ele>253.20000000000002</ele><time>2026-04-19T07:09:21Z</time></trkpt><trkpt lat="44.87790663745986" lon="8.064024365594372"><ele>251.0</ele><time>2026-04-19T07:09:22Z</time></trkpt><trkpt lat="44.877899192268956" lon="8.063869004136128"><ele>250.0</ele><time>2026-04-19T07:09:23Z</time></trkpt><trkpt lat="44.87787842430206" lon="8.063739739538741"><ele>249.00000000000003</ele><time>2026-04-19T07:09:24Z</time></trkpt><trkpt lat="44.87788194702488" lon="8.063602060070243"><ele>248.00000000000003</ele><time>2026-04-19T07:09:25Z</time></trkpt><trkpt lat="44.877893251916966" lon="8.063474407205245"><ele>247.0</ele><time>2026-04-19T07:09:26Z</time></trkpt><trkpt lat="44.877902936607434" lon="8.063349385805799"><ele>246.0</ele><time>2026-04-19T07:09:27Z</time></trkpt><trkpt lat="44.87791670626478" lon="8.063224228836413"><ele>244.60000000000002</ele><time>2026-04-19T07:09:28Z</time></trkpt><trkpt lat="44.87791206626928" lon="8.063093232926564"><ele>243.20000000000002</ele><time>2026-04-19T07:09:29Z</time></trkpt><trkpt lat="44.87788304855653" lon="8.062946627027394"><ele>241.79999999999998</ele><time>2026-04-19T07:09:30Z</time></trkpt><trkpt lat="44.877864047867455" lon="8.06278243198036"><ele>240.39999999999998</ele><time>2026-04-19T07:09:32Z</time></trkpt><trkpt lat="44.877843325997624" lon="8.062687448669777"><ele>239.0</ele><time>2026-04-19T07:09:33Z</time></trkpt><trkpt lat="44.8778080351874" lon="8.062542692540674"><ele>237.75</ele><time>2026-04-19T07:09:34Z</time></trkpt><trkpt lat="44.877766476562776" lon="8.062366858487465"><ele>236.5</ele><time>2026-04-19T07:09:35Z</time></trkpt><trkpt lat="44.87772491009358" lon="8.062211957552876"><ele>235.25</ele><time>2026-04-19T07:09:36Z</time></trkpt><trkpt lat="44.8776677127997" lon="8.062074818673066"><ele>234.0</ele><time>2026-04-19T07:09:37Z</time></trkpt><trkpt lat="44.87759910226005" lon="8.06192999838475"><ele>239.75</ele><time>2026-04-19T07:09:38Z</time></trkpt><trkpt lat="44.877523573334656" lon="8.061765503004304"><ele>245.5</ele><time>2026-04-19T07:09:39Z</time></trkpt><trkpt lat="44.87745635983496" lon="8.061616391714171"><ele>251.25</ele><time>2026-04-19T07:09:40Z</time></trkpt><trkpt lat="44.877387815048856" lon="8.061503660565007"><ele>257.0</ele><time>2026-04-19T07:09:41Z</time></trkpt><trkpt lat="44.87736322099918" lon="8.061368475190722"><ele>257.0</ele><time>2026-04-19T07:09:42Z</time></trkpt><trkpt lat="44.87737948565441" lon="8.06119772087396"><ele>257.0</ele><time>2026-04-19T07:09:43Z</time></trkpt><trkpt lat="44.877391869176805" lon="8.061013155230539"><ele>257.0</ele><time>2026-04-19T07:09:44Z</time></trkpt><trkpt lat="44.87738271659944" lon="8.060832869624909"><ele>257.0</ele><time>2026-04-19T07:09:45Z</time></trkpt><trkpt lat="44.877375159193186" lon="8.060652556707298"><ele>256.6</ele><time>2026-04-19T07:09:46Z</time></trkpt><trkpt lat="44.87738201053387" lon="8.060471656036354"><ele>256.2</ele><time>2026-04-19T07:09:47Z</time></trkpt><trkpt lat="44.87737715556615" lon="8.060341277397132"><ele>255.8</ele><time>2026-04-19T07:09:48Z</time></trkpt><trkpt lat="44.87738879082312" lon="8.060205130409805"><ele>255.4</ele><time>2026-04-19T07:09:49Z</time></trkpt><trkpt lat="44.877402911587005" lon="8.060073162500881"><ele>255.0</ele><time>2026-04-19T07:09:50Z</time></trkpt><trkpt lat="44.87742711292684" lon="8.05992603601329"><ele>254.4</ele><time>2026-04-19T07:09:51Z</time></trkpt><trkpt lat="44.87748165345744" lon="8.05980026450057"><ele>253.8</ele><time>2026-04-19T07:09:52Z</time></trkpt><trkpt lat="44.87755000601567" lon="8.0597042018958"><ele>253.2</ele><time>2026-04-19T07:09:53Z</time></trkpt><trkpt lat="44.87762667065093" lon="8.059629034607322"><ele>252.6</ele><time>2026-04-19T07:09:54Z</time></trkpt><trkpt lat="44.877712523491894" lon="8.05951776551015"><ele>252.0</ele><time>2026-04-19T07:09:55Z</time></trkpt><trkpt lat="44.87777533720583" lon="8.059403188597893"><ele>252.25</ele><time>2026-04-19T07:09:56Z</time></trkpt><trkpt lat="44.877815214129754" lon="8.059275162197887"><ele>252.5</ele><time>2026-04-19T07:09:57Z</time></trkpt><trkpt lat="44.87785144757493" lon="8.059118220849024"><ele>252.75</ele><time>2026-04-19T07:09:58Z</time></trkpt><trkpt lat="44.87786996538739" lon="8.058937225573656"><ele>253.0</ele><time>2026-04-19T07:09:59Z</time></trkpt><trkpt lat="44.877898756072" lon="8.058754879269111"><ele>253.0</ele><time>2026-04-19T07:10:00Z</time></trkpt><trkpt lat="44.87792697355455" lon="8.05859064541741"><ele>253.0</ele><time>2026-04-19T07:10:01Z</time></trkpt><trkpt lat="44.877964297327544" lon="8.0584230928862"><ele>253.0</ele><time>2026-04-19T07:10:02Z</time></trkpt><trkpt lat="44.87796936625525" lon="8.058242158628058"><ele>253.0</ele><time>2026-04-19T07:10:03Z</time></trkpt><trkpt lat="44.877988126804766" lon="8.05808403813839"><ele>254.60000000000002</ele><time>2026-04-19T07:10:04Z</time></trkpt><trkpt lat="44.87802375896588" lon="8.057925498359008"><ele>256.20000000000005</ele><time>2026-04-19T07:10:05Z</time></trkpt><trkpt lat="44.87806863231295" lon="8.057784766033357"><ele>257.8</ele><time>2026-04-19T07:10:06Z</time></trkpt><trkpt lat="44.878118246890516" lon="8.057657266079536"><ele>259.40000000000003</ele><time>2026-04-19T07:10:07Z</time></trkpt><trkpt lat="44.878164908888145" lon="8.0575432247979"><ele>261.0</ele><time>2026-04-19T07:10:08Z</time></trkpt><trkpt lat="44.8782135267664" lon="8.057416529755981"><ele>261.0</ele><time>2026-04-19T07:10:09Z</time></trkpt><trkpt lat="44.87826526418211" lon="8.05729179385071"><ele>261.0</ele><time>2026-04-19T07:10:10Z</time></trkpt><trkpt lat="44.878305256418145" lon="8.057168206018376"><ele>261.0</ele><time>2026-04-19T07:10:11Z</time></trkpt><trkpt lat="44.87837180338878" lon="8.057046696288973"><ele>261.0</ele><time>2026-04-19T07:10:12Z</time></trkpt><trkpt lat="44.87841678942193" lon="8.056915503633737"><ele>261.0</ele><time>2026-04-19T07:10:13Z</time></trkpt><trkpt lat="44.87846141468663" lon="8.056759211844016"><ele>261.0</ele><time>2026-04-19T07:10:14Z</time></trkpt><trkpt lat="44.878506848177715" lon="8.056575655043105"><ele>261.0</ele><time>2026-04-19T07:10:15Z</time></trkpt><trkpt lat="44.87855764161342" lon="8.056396857621987"><ele>261.0</ele><time>2026-04-19T07:10:16Z</time></trkpt><trkpt lat="44.878607525722664" lon="8.056229053759619"><ele>261.0</ele><time>2026-04-19T07:10:17Z</time></trkpt><trkpt lat="44.87865914895438" lon="8.056066412894303"><ele>261.0</ele><time>2026-04-19T07:10:18Z</time></trkpt><trkpt lat="44.878718956489436" lon="8.055916039081275"><ele>261.0</ele><time>2026-04-19T07:10:19Z</time></trkpt><trkpt lat="44.878748074074956" lon="8.055818426436689"><ele>261.0</ele><time>2026-04-19T07:10:20Z</time></trkpt><trkpt lat="44.87882228748686" lon="8.055682055965507"><ele>261.0</ele><time>2026-04-19T07:10:21Z</time></trkpt><trkpt lat="44.8789025237733" lon="8.055555242248628"><ele>261.0</ele><time>2026-04-19T07:10:22Z</time></trkpt><trkpt lat="44.879002302503224" lon="8.055416381729238"><ele>261.5</ele><time>2026-04-19T07:10:23Z</time></trkpt><trkpt lat="44.87909715750337" lon="8.055280391784626"><ele>262.0</ele><time>2026-04-19T07:10:24Z</time></trkpt><trkpt lat="44.879186797304726" lon="8.055146447398077"><ele>262.5</ele><time>2026-04-19T07:10:25Z</time></trkpt><trkpt lat="44.87927369327592" lon="8.055018194210689"><ele>263.0</ele><time>2026-04-19T07:10:26Z</time></trkpt><trkpt lat="44.879366580350734" lon="8.05489082716107"><ele>264.6</ele><time>2026-04-19T07:10:27Z</time></trkpt><trkpt lat="44.87945200266581" lon="8.05476485943112"><ele>266.20000000000005</ele><time>2026-04-19T07:10:28Z</time></trkpt><trkpt lat="44.879512491674234" lon="8.054668695909303"><ele>267.8</ele><time>2026-04-19T07:10:29Z</time></trkpt><trkpt lat="44.879606841855214" lon="8.054597999911767"><ele>269.40000000000003</ele><time>2026-04-19T07:10:31Z</time></trkpt><trkpt lat="44.87966402239753" lon="8.054559382023834"><ele>271.0</ele><time>2026-04-19T07:10:34Z</time></trkpt><trkpt lat="44.87973612142272" lon="8.054589195586997"><ele>271.0</ele><time>2026-04-19T07:10:35Z</time></trkpt><trkpt lat="44.87981417593143" lon="8.054617558711294"><ele>271.0</ele><time>2026-04-19T07:10:36Z</time></trkpt><trkpt lat="44.87990853919422" lon="8.054595617702603"><ele>271.0</ele><time>2026-04-19T07:10:37Z</time></trkpt><trkpt lat="44.87998824052333" lon="8.054571049395495"><ele>271.0</ele><time>2026-04-19T07:10:38Z</time></trkpt><trkpt lat="44.88009526990967" lon="8.05452624316619"><ele>271.0</ele><time>2026-04-19T07:10:40Z</time></trkpt><trkpt lat="44.88016494191464" lon="8.054488394610132"><ele>271.0</ele><time>2026-04-19T07:10:41Z</time></trkpt><trkpt lat="44.88024009849177" lon="8.054467659002023"><ele>270.0</ele><time>2026-04-19T07:10:42Z</time></trkpt><trkpt lat="44.88032232313941" lon="8.054501637014068"><ele>269.0</ele><time>2026-04-19T07:10:43Z</time></trkpt><trkpt lat="44.8804020569329" lon="8.054578621572482"><ele>268.0</ele><time>2026-04-19T07:10:44Z</time></trkpt><trkpt lat="44.88046648523256" lon="8.054691285072167"><ele>267.0</ele><time>2026-04-19T07:10:45Z</time></trkpt><trkpt lat="44.88051567796878" lon="8.054834467590993"><ele>266.0</ele><time>2026-04-19T07:10:46Z</time></trkpt><trkpt lat="44.88053656156574" lon="8.054991571645772"><ele>266.0</ele><time>2026-04-19T07:10:47Z</time></trkpt><trkpt lat="44.88057296589018" lon="8.055134253238291"><ele>266.0</ele><time>2026-04-19T07:10:48Z</time></trkpt><trkpt lat="44.88058668235625" lon="8.055269172413528"><ele>266.0</ele><time>2026-04-19T07:10:49Z</time></trkpt><trkpt lat="44.88059562741392" lon="8.05538599796274"><ele>266.0</ele><time>2026-04-19T07:10:50Z</time></trkpt><trkpt lat="44.88059634907658" lon="8.055506880994008"><ele>266.0</ele><time>2026-04-19T07:10:51Z</time></trkpt><trkpt lat="44.88059633913476" lon="8.055643751969148"><ele>267.2</ele><time>2026-04-19T07:10:52Z</time></trkpt><trkpt lat="44.880598762818856" lon="8.05579141326554"><ele>268.40000000000003</ele><time>2026-04-19T07:10:53Z</time></trkpt><trkpt lat="44.88061299904466" lon="8.055950014918576"><ele>269.6</ele><time>2026-04-19T07:10:54Z</time></trkpt><trkpt lat="44.88062069579234" lon="8.05610013733758"><ele>270.8</ele><time>2026-04-19T07:10:55Z</time></trkpt><trkpt lat="44.88063160774449" lon="8.056248598171589"><ele>272.0</ele><time>2026-04-19T07:10:56Z</time></trkpt><trkpt lat="44.88064361379975" lon="8.056394559631494"><ele>272.0</ele><time>2026-04-19T07:10:57Z</time></trkpt><trkpt lat="44.880661241450404" lon="8.056523718982799"><ele>272.0</ele><time>2026-04-19T07:10:58Z</time></trkpt><trkpt lat="44.88068987939272" lon="8.056633449248498"><ele>272.0</ele><time>2026-04-19T07:10:59Z</time></trkpt><trkpt lat="44.88071560729357" lon="8.056715952269355"><ele>272.0</ele><time>2026-04-19T07:11:00Z</time></trkpt><trkpt lat="44.88078300192571" lon="8.056859073463194"><ele>272.0</ele><time>2026-04-19T07:11:02Z</time></trkpt><trkpt lat="44.88077265075632" lon="8.056996298200367"><ele>272.0</ele><time>2026-04-19T07:11:03Z</time></trkpt><trkpt lat="44.88075172682911" lon="8.057131632187428"><ele>272.0</ele><time>2026-04-19T07:11:04Z</time></trkpt><trkpt lat="44.88073874761079" lon="8.057285152800972"><ele>272.0</ele><time>2026-04-19T07:11:05Z</time></trkpt><trkpt lat="44.880721612126926" lon="8.057455865089322"><ele>272.0</ele><time>2026-04-19T07:11:06Z</time></trkpt><trkpt lat="44.88070438953077" lon="8.057646762490256"><ele>271.33333333333337</ele><time>2026-04-19T07:11:07Z</time></trkpt><trkpt lat="44.88069283955916" lon="8.057807586591084"><ele>270.6666666666667</ele><time>2026-04-19T07:11:08Z</time></trkpt><trkpt lat="44.88068651427114" lon="8.057937658827512"><ele>270.0</ele><time>2026-04-19T07:11:09Z</time></trkpt><trkpt lat="44.880688225979874" lon="8.058034139175106"><ele>269.3333333333333</ele><time>2026-04-19T07:11:10Z</time></trkpt><trkpt lat="44.88068196832567" lon="8.05818384228948"><ele>268.66666666666663</ele><time>2026-04-19T07:11:12Z</time></trkpt><trkpt lat="44.88065637754917" lon="8.058268620963622"><ele>268.0</ele><time>2026-04-19T07:11:15Z</time></trkpt><trkpt lat="44.88056124024256" lon="8.058014352451638"><ele>268.0</ele><time>2026-04-19T07:11:17Z</time></trkpt><trkpt lat="44.880479726162505" lon="8.058019706834468"><ele>268.0</ele><time>2026-04-19T07:11:19Z</time></trkpt><trkpt lat="44.88040886391738" lon="8.05803232773687"><ele>268.0</ele><time>2026-04-19T07:11:21Z</time></trkpt><trkpt lat="44.88033505059022" lon="8.058015338187122"><ele>268.0</ele><time>2026-04-19T07:11:22Z</time></trkpt><trkpt lat="44.880205173479624" lon="8.057995808696319"><ele>268.0</ele><time>2026-04-19T07:11:24Z</time></trkpt><trkpt lat="44.88012491265914" lon="8.05823836915618"><ele>265.66666666666663</ele><time>2026-04-19T07:11:25Z</time></trkpt><trkpt lat="44.88002780693285" lon="8.05828015506092"><ele>263.3333333333333</ele><time>2026-04-19T07:11:27Z</time></trkpt><trkpt lat="44.87996459206372" lon="8.058323835787755"><ele>261.0</ele><time>2026-04-19T07:11:28Z</time></trkpt><trkpt lat="44.87989751561333" lon="8.058382862815998"><ele>258.6666666666667</ele><time>2026-04-19T07:11:29Z</time></trkpt><trkpt lat="44.87982639143714" lon="8.058441637937538"><ele>256.33333333333337</ele><time>2026-04-19T07:11:30Z</time></trkpt><trkpt lat="44.87976238908858" lon="8.058494137073009"><ele>254.0</ele><time>2026-04-19T07:11:31Z</time></trkpt><trkpt lat="44.879669250746836" lon="8.058568894730778"><ele>253.66666666666669</ele><time>2026-04-19T07:11:33Z</time></trkpt><trkpt lat="44.879609734480084" lon="8.05862689352598"><ele>253.33333333333334</ele><time>2026-04-19T07:11:34Z</time></trkpt><trkpt lat="44.879542892316906" lon="8.0586871866557"><ele>253.0</ele><time>2026-04-19T07:11:35Z</time></trkpt><trkpt lat="44.87948917195929" lon="8.058758059300343"><ele>252.66666666666669</ele><time>2026-04-19T07:11:36Z</time></trkpt><trkpt lat="44.87943792439233" lon="8.058831873085206"><ele>252.33333333333334</ele><time>2026-04-19T07:11:37Z</time></trkpt><trkpt lat="44.87938402131454" lon="8.05890162161568"><ele>252.0</ele><time>2026-04-19T07:11:38Z</time></trkpt><trkpt lat="44.87929654615499" lon="8.05898318034582"><ele>249.0</ele><time>2026-04-19T07:11:40Z</time></trkpt><trkpt lat="44.87921200714892" lon="8.058944605185554"><ele>246.0</ele><time>2026-04-19T07:11:42Z</time></trkpt><trkpt lat="44.879170888442715" lon="8.058870949864826"><ele>243.0</ele><time>2026-04-19T07:11:43Z</time></trkpt><trkpt lat="44.87916794086474" lon="8.058763974085041"><ele>240.0</ele><time>2026-04-19T07:11:44Z</time></trkpt><trkpt lat="44.8791840473376" lon="8.058654471857066"><ele>237.0</ele><time>2026-04-19T07:11:45Z</time></trkpt><trkpt lat="44.87920605659599" lon="8.05856418724036"><ele>234.0</ele><time>2026-04-19T07:11:46Z</time></trkpt><trkpt lat="44.87921551433078" lon="8.058392944037337"><ele>234.75</ele><time>2026-04-19T07:11:48Z</time></trkpt><trkpt lat="44.87923843914636" lon="8.058235817802968"><ele>235.5</ele><time>2026-04-19T07:11:50Z</time></trkpt><trkpt lat="44.87925162225937" lon="8.058058944523912"><ele>236.25</ele><time>2026-04-19T07:11:52Z</time></trkpt><trkpt lat="44.87918841970407" lon="8.057916512316849"><ele>237.0</ele><time>2026-04-19T07:11:54Z</time></trkpt><trkpt lat="44.879093510278196" lon="8.05790779122506"><ele>237.0</ele><time>2026-04-19T07:11:55Z</time></trkpt><trkpt lat="44.87902758275121" lon="8.057923143837266"><ele>237.0</ele><time>2026-04-19T07:11:56Z</time></trkpt><trkpt lat="44.87895217254216" lon="8.058082555384706"><ele>237.0</ele><time>2026-04-19T07:11:58Z</time></trkpt><trkpt lat="44.87891829578445" lon="8.058168042199275"><ele>237.0</ele><time>2026-04-19T07:11:59Z</time></trkpt><trkpt lat="44.87889422938765" lon="8.058311715384207"><ele>237.0</ele><time>2026-04-19T07:12:00Z</time></trkpt><trkpt lat="44.87887513994111" lon="8.058421425948351"><ele>236.25</ele><time>2026-04-19T07:12:01Z</time></trkpt><trkpt lat="44.878800392312705" lon="8.05863301895056"><ele>235.5</ele><time>2026-04-19T07:12:03Z</time></trkpt><trkpt lat="44.87877267031206" lon="8.058795592430739"><ele>234.75</ele><time>2026-04-19T07:12:04Z</time></trkpt><trkpt lat="44.87880183068905" lon="8.058928533392343"><ele>234.0</ele><time>2026-04-19T07:12:05Z</time></trkpt><trkpt lat="44.87881453241423" lon="8.05904724941865"><ele>232.5</ele><time>2026-04-19T07:12:06Z</time></trkpt><trkpt lat="44.8787947553063" lon="8.05922719435214"><ele>231.0</ele><time>2026-04-19T07:12:08Z</time></trkpt><trkpt lat="44.87873003297628" lon="8.059348201445793"><ele>229.5</ele><time>2026-04-19T07:12:09Z</time></trkpt><trkpt lat="44.87870317928291" lon="8.059539288918144"><ele>228.0</ele><time>2026-04-19T07:12:10Z</time></trkpt><trkpt lat="44.87870217256705" lon="8.059654436453911"><ele>228.0</ele><time>2026-04-19T07:12:11Z</time></trkpt><trkpt lat="44.87868091018632" lon="8.059795333616332"><ele>228.0</ele><time>2026-04-19T07:12:12Z</time></trkpt><trkpt lat="44.87864597121948" lon="8.059948849710507"><ele>228.0</ele><time>2026-04-19T07:12:13Z</time></trkpt><trkpt lat="44.87856012223202" lon="8.060135023560418"><ele>228.0</ele><time>2026-04-19T07:12:14Z</time></trkpt><trkpt lat="44.87850917214564" lon="8.060305553425215"><ele>228.2</ele><time>2026-04-19T07:12:15Z</time></trkpt><trkpt lat="44.87847894463714" lon="8.060468856984052"><ele>228.4</ele><time>2026-04-19T07:12:16Z</time></trkpt><trkpt lat="44.87844381016366" lon="8.060606363237632"><ele>228.59999999999997</ele><time>2026-04-19T07:12:17Z</time></trkpt><trkpt lat="44.87840166988709" lon="8.06071518625444"><ele>228.79999999999998</ele><time>2026-04-19T07:12:18Z</time></trkpt><trkpt lat="44.87836846909375" lon="8.060810029526507"><ele>229.0</ele><time>2026-04-19T07:12:19Z</time></trkpt><trkpt lat="44.87836788706217" lon="8.060909425661235"><ele>229.39999999999998</ele><time>2026-04-19T07:12:20Z</time></trkpt><trkpt lat="44.87839641675344" lon="8.060991114339666"><ele>229.79999999999998</ele><time>2026-04-19T07:12:21Z</time></trkpt><trkpt lat="44.87844952498968" lon="8.061055191099086"><ele>230.20000000000002</ele><time>2026-04-19T07:12:22Z</time></trkpt><trkpt lat="44.878507623837024" lon="8.06114830358472"><ele>230.60000000000002</ele><time>2026-04-19T07:12:23Z</time></trkpt><trkpt lat="44.878549647532715" lon="8.061351249165382"><ele>231.0</ele><time>2026-04-19T07:12:25Z</time></trkpt><trkpt lat="44.87855069974841" lon="8.06150524579613"><ele>230.20000000000002</ele><time>2026-04-19T07:12:26Z</time></trkpt><trkpt lat="44.87857910495201" lon="8.061659870090303"><ele>229.40000000000003</ele><time>2026-04-19T07:12:27Z</time></trkpt><trkpt lat="44.8786228966575" lon="8.061803810310437"><ele>228.6</ele><time>2026-04-19T07:12:28Z</time></trkpt><trkpt lat="44.87867362450303" lon="8.061925622434488"><ele>227.8</ele><time>2026-04-19T07:12:29Z</time></trkpt><trkpt lat="44.87873138478689" lon="8.062017909284844"><ele>227.0</ele><time>2026-04-19T07:12:30Z</time></trkpt><trkpt lat="44.87880090613986" lon="8.062135614282747"><ele>227.0</ele><time>2026-04-19T07:12:31Z</time></trkpt><trkpt lat="44.8788463010211" lon="8.062287833454238"><ele>227.0</ele><time>2026-04-19T07:12:32Z</time></trkpt><trkpt lat="44.878869834285126" lon="8.062439340145643"><ele>227.0</ele><time>2026-04-19T07:12:33Z</time></trkpt><trkpt lat="44.878869539453916" lon="8.062562117820297"><ele>227.0</ele><time>2026-04-19T07:12:34Z</time></trkpt><trkpt lat="44.878868773978965" lon="8.06267083322359"><ele>227.0</ele><time>2026-04-19T07:12:35Z</time></trkpt><trkpt lat="44.87885546707478" lon="8.06276664970628"><ele>226.6</ele><time>2026-04-19T07:12:36Z</time></trkpt><trkpt lat="44.878910514124904" lon="8.062934695364294"><ele>226.2</ele><time>2026-04-19T07:12:38Z</time></trkpt><trkpt lat="44.87893636317665" lon="8.063022582208424"><ele>225.8</ele><time>2026-04-19T07:12:39Z</time></trkpt><trkpt lat="44.87897534123261" lon="8.063119265209421"><ele>225.4</ele><time>2026-04-19T07:12:40Z</time></trkpt><trkpt lat="44.87903251059487" lon="8.063219696371519"><ele>225.0</ele><time>2026-04-19T07:12:41Z</time></trkpt><trkpt lat="44.879096508077254" lon="8.063338274211539"><ele>225.0</ele><time>2026-04-19T07:12:42Z</time></trkpt><trkpt lat="44.87915582104506" lon="8.063455007309416"><ele>225.0</ele><time>2026-04-19T07:12:43Z</time></trkpt><trkpt lat="44.879181480499874" lon="8.063575931992307"><ele>225.0</ele><time>2026-04-19T07:12:44Z</time></trkpt><trkpt lat="44.879200116768224" lon="8.063679355932356"><ele>225.0</ele><time>2026-04-19T07:12:45Z</time></trkpt><trkpt lat="44.879193816835404" lon="8.063794502291348"><ele>225.0</ele><time>2026-04-19T07:12:46Z</time></trkpt><trkpt lat="44.87909585227916" lon="8.063967940648073"><ele>225.0</ele><time>2026-04-19T07:12:48Z</time></trkpt><trkpt lat="44.87906219009634" lon="8.064044724598672"><ele>225.0</ele><time>2026-04-19T07:12:49Z</time></trkpt><trkpt lat="44.87911995868433" lon="8.064224444659692"><ele>225.0</ele><time>2026-04-19T07:12:51Z</time></trkpt><trkpt lat="44.879172239219116" lon="8.064332695060424"><ele>225.0</ele><time>2026-04-19T07:12:52Z</time></trkpt><trkpt lat="44.87920891156604" lon="8.064446289674953"><ele>225.0</ele><time>2026-04-19T07:12:53Z</time></trkpt><trkpt lat="44.87923125668635" lon="8.064575596579237"><ele>224.6</ele><time>2026-04-19T07:12:54Z</time></trkpt><trkpt lat="44.87925127391423" lon="8.064748130302812"><ele>224.2</ele><time>2026-04-19T07:12:55Z</time></trkpt><trkpt lat="44.87925702815457" lon="8.06488728658301"><ele>223.8</ele><time>2026-04-19T07:12:56Z</time></trkpt><trkpt lat="44.87924036898852" lon="8.065011159920806"><ele>223.4</ele><time>2026-04-19T07:12:57Z</time></trkpt><trkpt lat="44.879230022898255" lon="8.065121281335143"><ele>223.0</ele><time>2026-04-19T07:12:58Z</time></trkpt><trkpt lat="44.87922129001181" lon="8.065214171942943"><ele>222.99999999999997</ele><time>2026-04-19T07:12:59Z</time></trkpt><trkpt lat="44.87917009524927" lon="8.065294715834359"><ele>223.0</ele><time>2026-04-19T07:13:00Z</time></trkpt><trkpt lat="44.87908683571231" lon="8.065352435257225"><ele>223.0</ele><time>2026-04-19T07:13:01Z</time></trkpt><trkpt lat="44.87900278318864" lon="8.06542552514166"><ele>223.0</ele><time>2026-04-19T07:13:02Z</time></trkpt><trkpt lat="44.878960948287705" lon="8.065524447500378"><ele>222.99999999999997</ele><time>2026-04-19T07:13:03Z</time></trkpt><trkpt lat="44.87893558371722" lon="8.06564770701654"><ele>223.0</ele><time>2026-04-19T07:13:04Z</time></trkpt><trkpt lat="44.87892468737339" lon="8.065777841767966"><ele>222.2</ele><time>2026-04-19T07:13:05Z</time></trkpt><trkpt lat="44.87890676096656" lon="8.065886750098239"><ele>221.4</ele><time>2026-04-19T07:13:06Z</time></trkpt><trkpt lat="44.87887627176671" lon="8.066000691116518"><ele>220.59999999999997</ele><time>2026-04-19T07:13:07Z</time></trkpt><trkpt lat="44.878838622918614" lon="8.066135535099738"><ele>219.79999999999998</ele><time>2026-04-19T07:13:08Z</time></trkpt><trkpt lat="44.87880699713855" lon="8.066277120843933"><ele>219.0</ele><time>2026-04-19T07:13:09Z</time></trkpt><trkpt lat="44.87877999042064" lon="8.066390241719304"><ele>219.0</ele><time>2026-04-19T07:13:10Z</time></trkpt><trkpt lat="44.878764021551525" lon="8.066512071234607"><ele>219.0</ele><time>2026-04-19T07:13:12Z</time></trkpt><trkpt lat="44.87884579573381" lon="8.066556723821458"><ele>219.0</ele><time>2026-04-19T07:13:15Z</time></trkpt><trkpt lat="44.87890969911411" lon="8.06658452017157"><ele>219.0</ele><time>2026-04-19T07:13:16Z</time></trkpt><trkpt lat="44.87898846866369" lon="8.0665924028119"><ele>219.0</ele><time>2026-04-19T07:13:17Z</time></trkpt><trkpt lat="44.879056788843414" lon="8.066622168548694"><ele>219.0</ele><time>2026-04-19T07:13:18Z</time></trkpt><trkpt lat="44.8791223775997" lon="8.066653889391562"><ele>218.5</ele><time>2026-04-19T07:13:19Z</time></trkpt><trkpt lat="44.8792504267481" lon="8.066701348308948"><ele>218.0</ele><time>2026-04-19T07:13:21Z</time></trkpt><trkpt lat="44.8793273520825" lon="8.066726950435454"><ele>217.5</ele><time>2026-04-19T07:13:22Z</time></trkpt><trkpt lat="44.879392526714" lon="8.066769175172528"><ele>217.0</ele><time>2026-04-19T07:13:23Z</time></trkpt><trkpt lat="44.87945340784103" lon="8.06683463155884"><ele>216.5</ele><time>2026-04-19T07:13:24Z</time></trkpt><trkpt lat="44.87951967811775" lon="8.066914283847698"><ele>216.0</ele><time>2026-04-19T07:13:25Z</time></trkpt><trkpt lat="44.87960487420831" lon="8.067005209419396"><ele>218.16666666666666</ele><time>2026-04-19T07:13:26Z</time></trkpt><trkpt lat="44.87967479773894" lon="8.067067817564553"><ele>220.33333333333331</ele><time>2026-04-19T07:13:27Z</time></trkpt><trkpt lat="44.879741379618785" lon="8.067123572794621"><ele>222.5</ele><time>2026-04-19T07:13:28Z</time></trkpt><trkpt lat="44.87981385088477" lon="8.067170650512994"><ele>224.66666666666666</ele><time>2026-04-19T07:13:29Z</time></trkpt><trkpt lat="44.87992367137448" lon="8.067205756030976"><ele>226.83333333333331</ele><time>2026-04-19T07:13:30Z</time></trkpt><trkpt lat="44.88001376273115" lon="8.067237562918137"><ele>229.0</ele><time>2026-04-19T07:13:31Z</time></trkpt><trkpt lat="44.880095949536596" lon="8.067259124367535"><ele>229.2</ele><time>2026-04-19T07:13:32Z</time></trkpt><trkpt lat="44.88019273700406" lon="8.067274447634777"><ele>229.39999999999998</ele><time>2026-04-19T07:13:33Z</time></trkpt><trkpt lat="44.880294846931534" lon="8.067288904667178"><ele>229.6</ele><time>2026-04-19T07:13:34Z</time></trkpt><trkpt lat="44.88037767050849" lon="8.06729091277403"><ele>229.8</ele><time>2026-04-19T07:13:35Z</time></trkpt><trkpt lat="44.88048389235544" lon="8.067243171626439"><ele>230.0</ele><time>2026-04-19T07:13:37Z</time></trkpt><trkpt lat="44.88053683740741" lon="8.067193802309413"><ele>230.00000000000003</ele><time>2026-04-19T07:13:38Z</time></trkpt><trkpt lat="44.88059811628483" lon="8.067149171638642"><ele>230.0</ele><time>2026-04-19T07:13:39Z</time></trkpt><trkpt lat="44.88066404427296" lon="8.067069422332887"><ele>230.0</ele><time>2026-04-19T07:13:40Z</time></trkpt><trkpt lat="44.880732216560126" lon="8.066993318129276"><ele>230.0</ele><time>2026-04-19T07:13:41Z</time></trkpt><trkpt lat="44.880787246152934" lon="8.066925827214797"><ele>230.00000000000003</ele><time>2026-04-19T07:13:42Z</time></trkpt><trkpt lat="44.88087186305042" lon="8.066779568784574"><ele>230.0</ele><time>2026-04-19T07:13:44Z</time></trkpt><trkpt lat="44.88090761432777" lon="8.066669909222703"><ele>232.83333333333334</ele><time>2026-04-19T07:13:45Z</time></trkpt><trkpt lat="44.88094766934727" lon="8.066562847207019"><ele>235.66666666666669</ele><time>2026-04-19T07:13:46Z</time></trkpt><trkpt lat="44.880986478119915" lon="8.066458930334274"><ele>238.5</ele><time>2026-04-19T07:13:47Z</time></trkpt><trkpt lat="44.88100071781373" lon="8.066346449188886"><ele>241.33333333333331</ele><time>2026-04-19T07:13:48Z</time></trkpt><trkpt lat="44.8809976524547" lon="8.066203402191235"><ele>244.16666666666666</ele><time>2026-04-19T07:13:49Z</time></trkpt><trkpt lat="44.88099140073086" lon="8.066094731080696"><ele>247.0</ele><time>2026-04-19T07:13:50Z</time></trkpt><trkpt lat="44.880964560543994" lon="8.065993620172339"><ele>247.0</ele><time>2026-04-19T07:13:51Z</time></trkpt><trkpt lat="44.88092591363221" lon="8.065884493503345"><ele>247.0</ele><time>2026-04-19T07:13:52Z</time></trkpt><trkpt lat="44.88092230436887" lon="8.06572331303446"><ele>247.0</ele><time>2026-04-19T07:13:54Z</time></trkpt><trkpt lat="44.88103797975706" lon="8.065724896425717"><ele>247.0</ele><time>2026-04-19T07:13:56Z</time></trkpt><trkpt lat="44.88109491594504" lon="8.06581277309478"><ele>247.0</ele><time>2026-04-19T07:13:57Z</time></trkpt><trkpt lat="44.881151039224726" lon="8.06591778730298"><ele>247.0</ele><time>2026-04-19T07:13:58Z</time></trkpt><trkpt lat="44.88122216889898" lon="8.066002024875804"><ele>247.0</ele><time>2026-04-19T07:13:59Z</time></trkpt><trkpt lat="44.88129178685841" lon="8.066116490160601"><ele>247.0</ele><time>2026-04-19T07:14:01Z</time></trkpt><trkpt lat="44.88134610765748" lon="8.066165676831352"><ele>247.0</ele><time>2026-04-19T07:14:02Z</time></trkpt><trkpt lat="44.88140546658981" lon="8.066203307865871"><ele>247.0</ele><time>2026-04-19T07:14:03Z</time></trkpt><trkpt lat="44.88150990067197" lon="8.06631776375967"><ele>246.99999999999997</ele><time>2026-04-19T07:14:05Z</time></trkpt><trkpt lat="44.88152979573216" lon="8.066420677578162"><ele>247.0</ele><time>2026-04-19T07:14:06Z</time></trkpt><trkpt lat="44.881517632001035" lon="8.066602447714926"><ele>247.0</ele><time>2026-04-19T07:14:08Z</time></trkpt><trkpt lat="44.88156991557119" lon="8.066700729278846"><ele>247.0</ele><time>2026-04-19T07:14:10Z</time></trkpt><trkpt lat="44.88164268178637" lon="8.066684216134945"><ele>246.99999999999997</ele><time>2026-04-19T07:14:11Z</time></trkpt><trkpt lat="44.88171472169586" lon="8.066680591335873"><ele>247.0</ele><time>2026-04-19T07:14:12Z</time></trkpt><trkpt lat="44.88179211024968" lon="8.06669170392236"><ele>245.99999999999997</ele><time>2026-04-19T07:14:14Z</time></trkpt><trkpt lat="44.88180228029255" lon="8.0668128165885"><ele>245.0</ele><time>2026-04-19T07:14:16Z</time></trkpt><trkpt lat="44.881791247677235" lon="8.066906223629768"><ele>244.0</ele><time>2026-04-19T07:14:17Z</time></trkpt><trkpt lat="44.881811832562555" lon="8.067028124867319"><ele>243.0</ele><time>2026-04-19T07:14:19Z</time></trkpt><trkpt lat="44.881851230789565" lon="8.06714613173789"><ele>241.99999999999997</ele><time>2026-04-19T07:14:21Z</time></trkpt><trkpt lat="44.88186791031368" lon="8.06727323996745"><ele>241.0</ele><time>2026-04-19T07:14:23Z</time></trkpt><trkpt lat="44.88187990380647" lon="8.0673725351635"><ele>239.0</ele><time>2026-04-19T07:14:24Z</time></trkpt><trkpt lat="44.88189330224187" lon="8.067460767765951"><ele>237.00000000000003</ele><time>2026-04-19T07:14:25Z</time></trkpt><trkpt lat="44.88191686057689" lon="8.067564174297813"><ele>235.00000000000003</ele><time>2026-04-19T07:14:26Z</time></trkpt><trkpt lat="44.88200737920995" lon="8.067702825396138"><ele>233.0</ele><time>2026-04-19T07:14:28Z</time></trkpt><trkpt lat="44.88208341197193" lon="8.067783321007349"><ele>231.0</ele><time>2026-04-19T07:14:29Z</time></trkpt><trkpt lat="44.88214172270593" lon="8.067863568076158"><ele>231.0</ele><time>2026-04-19T07:14:30Z</time></trkpt><trkpt lat="44.882193482885626" lon="8.067951563672143"><ele>231.0</ele><time>2026-04-19T07:14:31Z</time></trkpt><trkpt lat="44.88225876652874" lon="8.068030510898152"><ele>231.0</ele><time>2026-04-19T07:14:32Z</time></trkpt><trkpt lat="44.88230603180126" lon="8.068120038339893"><ele>231.0</ele><time>2026-04-19T07:14:33Z</time></trkpt><trkpt lat="44.88234739403446" lon="8.068192441742415"><ele>231.0</ele><time>2026-04-19T07:14:34Z</time></trkpt><trkpt lat="44.88237733008452" lon="8.068293064224887"><ele>231.0</ele><time>2026-04-19T07:14:35Z</time></trkpt><trkpt lat="44.882412983290806" lon="8.068404619949293"><ele>231.5</ele><time>2026-04-19T07:14:36Z</time></trkpt><trkpt lat="44.88242784329583" lon="8.068537353876325"><ele>232.0</ele><time>2026-04-19T07:14:37Z</time></trkpt><trkpt lat="44.882432363867316" lon="8.068656638892726"><ele>232.5</ele><time>2026-04-19T07:14:38Z</time></trkpt><trkpt lat="44.88244437994388" lon="8.068753737312024"><ele>233.0</ele><time>2026-04-19T07:14:39Z</time></trkpt><trkpt lat="44.882465526466596" lon="8.068857694572772"><ele>233.5</ele><time>2026-04-19T07:14:40Z</time></trkpt><trkpt lat="44.882498700249755" lon="8.068983330669127"><ele>234.0</ele><time>2026-04-19T07:14:41Z</time></trkpt><trkpt lat="44.88253716538657" lon="8.069106510710718"><ele>234.0</ele><time>2026-04-19T07:14:42Z</time></trkpt><trkpt lat="44.88256452078817" lon="8.06920760324538"><ele>234.0</ele><time>2026-04-19T07:14:43Z</time></trkpt><trkpt lat="44.882583157182324" lon="8.069310129227766"><ele>234.0</ele><time>2026-04-19T07:14:44Z</time></trkpt><trkpt lat="44.88258006215267" lon="8.069412335643111"><ele>234.0</ele><time>2026-04-19T07:14:45Z</time></trkpt><trkpt lat="44.88256356299533" lon="8.069520587869473"><ele>234.0</ele><time>2026-04-19T07:14:46Z</time></trkpt><trkpt lat="44.88254832555116" lon="8.069624830726902"><ele>234.0</ele><time>2026-04-19T07:14:47Z</time></trkpt><trkpt lat="44.88251525935212" lon="8.069746103768098"><ele>234.0</ele><time>2026-04-19T07:14:48Z</time></trkpt><trkpt lat="44.88243521990782" lon="8.06990065705178"><ele>233.99999999999997</ele><time>2026-04-19T07:14:50Z</time></trkpt><trkpt lat="44.882357535667275" lon="8.069989972406377"><ele>233.99999999999997</ele><time>2026-04-19T07:14:51Z</time></trkpt><trkpt lat="44.88231224896138" lon="8.070071704947537"><ele>234.0</ele><time>2026-04-19T07:14:52Z</time></trkpt><trkpt lat="44.88232923708213" lon="8.070205211925892"><ele>234.0</ele><time>2026-04-19T07:14:54Z</time></trkpt><trkpt lat="44.88237044704228" lon="8.070278761467565"><ele>233.83333333333334</ele><time>2026-04-19T07:14:55Z</time></trkpt><trkpt lat="44.88243501082885" lon="8.070352790564845"><ele>233.66666666666669</ele><time>2026-04-19T07:14:56Z</time></trkpt><trkpt lat="44.88251330134353" lon="8.070405153800657"><ele>233.5</ele><time>2026-04-19T07:14:57Z</time></trkpt><trkpt lat="44.882601652749884" lon="8.070439977253391"><ele>233.33333333333334</ele><time>2026-04-19T07:14:58Z</time></trkpt><trkpt lat="44.88267587899833" lon="8.070442799571032"><ele>233.16666666666669</ele><time>2026-04-19T07:14:59Z</time></trkpt><trkpt lat="44.88275879238243" lon="8.07040794819205"><ele>233.0</ele><time>2026-04-19T07:15:00Z</time></trkpt><trkpt lat="44.88284328722866" lon="8.070325323450524"><ele>228.60000000000002</ele><time>2026-04-19T07:15:01Z</time></trkpt><trkpt lat="44.88296405388138" lon="8.070272438513053"><ele>224.20000000000002</ele><time>2026-04-19T07:15:02Z</time></trkpt><trkpt lat="44.88308776774599" lon="8.07021698739843"><ele>219.8</ele><time>2026-04-19T07:15:03Z</time></trkpt><trkpt lat="44.88317433655285" lon="8.070157775407061"><ele>215.4</ele><time>2026-04-19T07:15:04Z</time></trkpt><trkpt lat="44.88325658113623" lon="8.070144789278302"><ele>211.0</ele><time>2026-04-19T07:15:05Z</time></trkpt><trkpt lat="44.88332867725625" lon="8.07015583556608"><ele>211.0</ele><time>2026-04-19T07:15:06Z</time></trkpt><trkpt lat="44.883384525457316" lon="8.070199512951147"><ele>211.0</ele><time>2026-04-19T07:15:07Z</time></trkpt><trkpt lat="44.88345413842651" lon="8.070280497823038"><ele>211.0</ele><time>2026-04-19T07:15:08Z</time></trkpt><trkpt lat="44.88356194275599" lon="8.070389189974128"><ele>211.0</ele><time>2026-04-19T07:15:09Z</time></trkpt><trkpt lat="44.88366785256193" lon="8.070486194755016"><ele>211.0</ele><time>2026-04-19T07:15:10Z</time></trkpt><trkpt lat="44.88375884705391" lon="8.070568878988006"><ele>211.4</ele><time>2026-04-19T07:15:11Z</time></trkpt><trkpt lat="44.88382296925689" lon="8.070634284968754"><ele>211.8</ele><time>2026-04-19T07:15:12Z</time></trkpt><trkpt lat="44.88388256534475" lon="8.070699159502981"><ele>212.20000000000002</ele><time>2026-04-19T07:15:13Z</time></trkpt><trkpt lat="44.88395414602935" lon="8.070793632909254"><ele>212.60000000000002</ele><time>2026-04-19T07:15:14Z</time></trkpt><trkpt lat="44.884037046288874" lon="8.070906217470448"><ele>213.0</ele><time>2026-04-19T07:15:15Z</time></trkpt><trkpt lat="44.88409076990622" lon="8.07104951295037"><ele>213.4</ele><time>2026-04-19T07:15:16Z</time></trkpt><trkpt lat="44.88415155159899" lon="8.0711735792626"><ele>213.8</ele><time>2026-04-19T07:15:17Z</time></trkpt><trkpt lat="44.8842133798193" lon="8.071292725854049"><ele>214.2</ele><time>2026-04-19T07:15:18Z</time></trkpt><trkpt lat="44.88427611765475" lon="8.07141713633775"><ele>214.6</ele><time>2026-04-19T07:15:19Z</time></trkpt><trkpt lat="44.88433143142246" lon="8.071535013832326"><ele>215.0</ele><time>2026-04-19T07:15:20Z</time></trkpt><trkpt lat="44.88438278400619" lon="8.0716576755223"><ele>215.0</ele><time>2026-04-19T07:15:21Z</time></trkpt><trkpt lat="44.884437463583296" lon="8.071792599733294"><ele>215.0</ele><time>2026-04-19T07:15:22Z</time></trkpt><trkpt lat="44.88450958445975" lon="8.071875105609845"><ele>215.0</ele><time>2026-04-19T07:15:23Z</time></trkpt><trkpt lat="44.88459564584621" lon="8.071959954381716"><ele>215.0</ele><time>2026-04-19T07:15:24Z</time></trkpt><trkpt lat="44.88467943545983" lon="8.07205182768318"><ele>215.0</ele><time>2026-04-19T07:15:25Z</time></trkpt><trkpt lat="44.884748627631815" lon="8.072132674749891"><ele>215.00000000000003</ele><time>2026-04-19T07:15:26Z</time></trkpt><trkpt lat="44.8847992702473" lon="8.072225275985081"><ele>215.0</ele><time>2026-04-19T07:15:27Z</time></trkpt><trkpt lat="44.88485511714475" lon="8.072320441680532"><ele>215.0</ele><time>2026-04-19T07:15:28Z</time></trkpt><trkpt lat="44.884899459568494" lon="8.072391461367078"><ele>215.0</ele><time>2026-04-19T07:15:29Z</time></trkpt><trkpt lat="44.884955584113904" lon="8.072484269822432"><ele>215.00000000000003</ele><time>2026-04-19T07:15:30Z</time></trkpt><trkpt lat="44.88499593306178" lon="8.07255546402107"><ele>215.0</ele><time>2026-04-19T07:15:31Z</time></trkpt><trkpt lat="44.885048586050594" lon="8.072607770452784"><ele>216.50000000000003</ele><time>2026-04-19T07:15:32Z</time></trkpt><trkpt lat="44.885102616868856" lon="8.072654614179688"><ele>218.0</ele><time>2026-04-19T07:15:33Z</time></trkpt><trkpt lat="44.88516758998383" lon="8.072723514374587"><ele>219.5</ele><time>2026-04-19T07:15:34Z</time></trkpt><trkpt lat="44.8852432987407" lon="8.07278084530743"><ele>221.0</ele><time>2026-04-19T07:15:35Z</time></trkpt><trkpt lat="44.8853323738209" lon="8.072850854450847"><ele>222.50000000000003</ele><time>2026-04-19T07:15:36Z</time></trkpt><trkpt lat="44.885389463968394" lon="8.07294513769441"><ele>224.0</ele><time>2026-04-19T07:15:37Z</time></trkpt><trkpt lat="44.88544855473525" lon="8.073058786275524"><ele>224.0</ele><time>2026-04-19T07:15:38Z</time></trkpt><trkpt lat="44.8855070769775" lon="8.073176960643863"><ele>223.99999999999997</ele><time>2026-04-19T07:15:39Z</time></trkpt><trkpt lat="44.88557429304249" lon="8.073296028106872"><ele>223.99999999999997</ele><time>2026-04-19T07:15:40Z</time></trkpt><trkpt lat="44.88563643371351" lon="8.073428076745484"><ele>224.0</ele><time>2026-04-19T07:15:41Z</time></trkpt><trkpt lat="44.88569133736057" lon="8.073553109104708"><ele>224.0</ele><time>2026-04-19T07:15:42Z</time></trkpt><trkpt lat="44.88573349468625" lon="8.07368670239319"><ele>222.16666666666669</ele><time>2026-04-19T07:15:43Z</time></trkpt><trkpt lat="44.88577221543172" lon="8.073799584463904"><ele>220.33333333333334</ele><time>2026-04-19T07:15:44Z</time></trkpt><trkpt lat="44.88580579853965" lon="8.073892053592168"><ele>218.5</ele><time>2026-04-19T07:15:45Z</time></trkpt><trkpt lat="44.8858358663764" lon="8.073995848078724"><ele>216.66666666666669</ele><time>2026-04-19T07:15:46Z</time></trkpt><trkpt lat="44.88586679148905" lon="8.074076642994184"><ele>214.83333333333334</ele><time>2026-04-19T07:15:47Z</time></trkpt><trkpt lat="44.88580341867445" lon="8.074148218408054"><ele>213.0</ele><time>2026-04-19T07:15:58Z</time></trkpt><trkpt lat="44.8857927058122" lon="8.074251325242066"><ele>212.16666666666666</ele><time>2026-04-19T07:15:59Z</time></trkpt><trkpt lat="44.88577981236283" lon="8.074340107856862"><ele>211.33333333333331</ele><time>2026-04-19T07:16:00Z</time></trkpt><trkpt lat="44.88576186810757" lon="8.074448920707379"><ele>210.5</ele><time>2026-04-19T07:16:01Z</time></trkpt><trkpt lat="44.885743193387114" lon="8.074558593833054"><ele>209.66666666666666</ele><time>2026-04-19T07:16:02Z</time></trkpt><trkpt lat="44.885721998281774" lon="8.074672395977515"><ele>208.83333333333331</ele><time>2026-04-19T07:16:03Z</time></trkpt><trkpt lat="44.88569104874444" lon="8.074776641895289"><ele>208.0</ele><time>2026-04-19T07:16:04Z</time></trkpt><trkpt lat="44.885661200969196" lon="8.07487648311429"><ele>207.4</ele><time>2026-04-19T07:16:05Z</time></trkpt><trkpt lat="44.885635507266294" lon="8.07497093257657"><ele>206.8</ele><time>2026-04-19T07:16:06Z</time></trkpt><trkpt lat="44.88560538852084" lon="8.075056394261265"><ele>206.2</ele><time>2026-04-19T07:16:07Z</time></trkpt><trkpt lat="44.885499563227576" lon="8.07515504626377"><ele>205.6</ele><time>2026-04-19T07:16:09Z</time></trkpt><trkpt lat="44.885410437093135" lon="8.075182427053893"><ele>205.0</ele><time>2026-04-19T07:16:10Z</time></trkpt><trkpt lat="44.88531667100097" lon="8.075208407978954"><ele>204.99999999999997</ele><time>2026-04-19T07:16:11Z</time></trkpt><trkpt lat="44.885236915048836" lon="8.075237230872709"><ele>205.0</ele><time>2026-04-19T07:16:12Z</time></trkpt><trkpt lat="44.885163706753474" lon="8.07527119590061"><ele>205.0</ele><time>2026-04-19T07:16:13Z</time></trkpt><trkpt lat="44.88509091337177" lon="8.075319227655175"><ele>205.0</ele><time>2026-04-19T07:16:14Z</time></trkpt><trkpt lat="44.88502246621575" lon="8.075388470452667"><ele>204.99999999999997</ele><time>2026-04-19T07:16:15Z</time></trkpt><trkpt lat="44.884966371672476" lon="8.07545146248412"><ele>205.0</ele><time>2026-04-19T07:16:16Z</time></trkpt><trkpt lat="44.884872228772636" lon="8.075484906622323"><ele>202.16666666666666</ele><time>2026-04-19T07:16:18Z</time></trkpt><trkpt lat="44.88478697082654" lon="8.075524424818292"><ele>199.33333333333331</ele><time>2026-04-19T07:16:20Z</time></trkpt><trkpt lat="44.88483289169852" lon="8.075706000091637"><ele>196.5</ele><time>2026-04-19T07:16:22Z</time></trkpt><trkpt lat="44.88487624969449" lon="8.075776178944787"><ele>193.66666666666666</ele><time>2026-04-19T07:16:23Z</time></trkpt><trkpt lat="44.88491788466334" lon="8.075866866762706"><ele>190.83333333333331</ele><time>2026-04-19T07:16:24Z</time></trkpt><trkpt lat="44.88494525248895" lon="8.075969488847665"><ele>188.0</ele><time>2026-04-19T07:16:25Z</time></trkpt><trkpt lat="44.88498668468592" lon="8.076048418141552"><ele>187.71428571428572</ele><time>2026-04-19T07:16:26Z</time></trkpt><trkpt lat="44.88499177213582" lon="8.076137702692654"><ele>187.42857142857142</ele><time>2026-04-19T07:16:27Z</time></trkpt><trkpt lat="44.88500743102295" lon="8.076236864013552"><ele>187.14285714285717</ele><time>2026-04-19T07:16:28Z</time></trkpt><trkpt lat="44.88502471409925" lon="8.07632965802509"><ele>186.85714285714286</ele><time>2026-04-19T07:16:29Z</time></trkpt><trkpt lat="44.88503584621041" lon="8.076422102407408"><ele>186.57142857142858</ele><time>2026-04-19T07:16:30Z</time></trkpt><trkpt lat="44.88504041481359" lon="8.076518013418497"><ele>186.2857142857143</ele><time>2026-04-19T07:16:31Z</time></trkpt><trkpt lat="44.885039044634475" lon="8.076630882744874"><ele>186.0</ele><time>2026-04-19T07:16:32Z</time></trkpt><trkpt lat="44.88505796435394" lon="8.076745999231482"><ele>187.33333333333334</ele><time>2026-04-19T07:16:33Z</time></trkpt><trkpt lat="44.885057686734314" lon="8.076845726759952"><ele>188.66666666666669</ele><time>2026-04-19T07:16:34Z</time></trkpt><trkpt lat="44.885100239415415" lon="8.07697612691673"><ele>190.0</ele><time>2026-04-19T07:16:36Z</time></trkpt><trkpt lat="44.88516088705738" lon="8.077033078591416"><ele>191.33333333333334</ele><time>2026-04-19T07:16:38Z</time></trkpt><trkpt lat="44.88520072783169" lon="8.077102641665354"><ele>192.66666666666669</ele><time>2026-04-19T07:16:40Z</time></trkpt><trkpt lat="44.8851406758446" lon="8.077157846448845"><ele>194.0</ele><time>2026-04-19T07:16:42Z</time></trkpt><trkpt lat="44.885141603192174" lon="8.077271860999689"><ele>193.79999999999998</ele><time>2026-04-19T07:16:44Z</time></trkpt><trkpt lat="44.88519475680728" lon="8.077383848153074"><ele>193.6</ele><time>2026-04-19T07:16:45Z</time></trkpt><trkpt lat="44.885219103714306" lon="8.07749412870101"><ele>193.4</ele><time>2026-04-19T07:16:46Z</time></trkpt><trkpt lat="44.885242169738575" lon="8.077635351413573"><ele>193.2</ele><time>2026-04-19T07:16:47Z</time></trkpt><trkpt lat="44.88526064160458" lon="8.07777724807598"><ele>193.0</ele><time>2026-04-19T07:16:48Z</time></trkpt><trkpt lat="44.88528834616842" lon="8.077881299518257"><ele>192.99999999999997</ele><time>2026-04-19T07:16:49Z</time></trkpt><trkpt lat="44.88533341028968" lon="8.077976088688693"><ele>193.0</ele><time>2026-04-19T07:16:50Z</time></trkpt><trkpt lat="44.885374822470354" lon="8.07808900306123"><ele>193.0</ele><time>2026-04-19T07:16:51Z</time></trkpt><trkpt lat="44.885413934288216" lon="8.078187028015366"><ele>193.0</ele><time>2026-04-19T07:16:52Z</time></trkpt><trkpt lat="44.88544064766518" lon="8.078306307097899"><ele>192.99999999999997</ele><time>2026-04-19T07:16:53Z</time></trkpt><trkpt lat="44.8854371937209" lon="8.078411967914422"><ele>193.0</ele><time>2026-04-19T07:16:54Z</time></trkpt><trkpt lat="44.88546582733882" lon="8.078501866746869"><ele>191.83333333333331</ele><time>2026-04-19T07:16:55Z</time></trkpt><trkpt lat="44.88551295268791" lon="8.07856129634188"><ele>190.66666666666666</ele><time>2026-04-19T07:16:57Z</time></trkpt><trkpt lat="44.88556788247434" lon="8.078509487687956"><ele>189.5</ele><time>2026-04-19T07:17:03Z</time></trkpt><trkpt lat="44.88566004848659" lon="8.078465364250148"><ele>188.33333333333331</ele><time>2026-04-19T07:17:06Z</time></trkpt><trkpt lat="44.885751985190886" lon="8.078414444341156"><ele>187.16666666666666</ele><time>2026-04-19T07:17:08Z</time></trkpt><trkpt lat="44.88583705280204" lon="8.078384911169566"><ele>186.0</ele><time>2026-04-19T07:17:10Z</time></trkpt><trkpt lat="44.88591786507925" lon="8.078362489761496"><ele>189.66666666666666</ele><time>2026-04-19T07:17:12Z</time></trkpt><trkpt lat="44.88597771186553" lon="8.07840485590479"><ele>193.33333333333331</ele><time>2026-04-19T07:17:29Z</time></trkpt><trkpt lat="44.88598816749739" lon="8.078496441004644"><ele>197.0</ele><time>2026-04-19T07:17:30Z</time></trkpt><trkpt lat="44.8860005453225" lon="8.078593278064298"><ele>200.66666666666666</ele><time>2026-04-19T07:17:31Z</time></trkpt><trkpt lat="44.88601020489532" lon="8.078683803554108"><ele>204.33333333333331</ele><time>2026-04-19T07:17:32Z</time></trkpt><trkpt lat="44.88604379705958" lon="8.078845490007856"><ele>208.0</ele><time>2026-04-19T07:17:34Z</time></trkpt><trkpt lat="44.886079120968404" lon="8.078944803257125"><ele>208.0</ele><time>2026-04-19T07:17:35Z</time></trkpt><trkpt lat="44.886109098877554" lon="8.07904155793986"><ele>208.0</ele><time>2026-04-19T07:17:36Z</time></trkpt><trkpt lat="44.88613088906621" lon="8.07913341496971"><ele>208.0</ele><time>2026-04-19T07:17:37Z</time></trkpt><trkpt lat="44.88616296923959" lon="8.07925889993298"><ele>208.0</ele><time>2026-04-19T07:17:39Z</time></trkpt><trkpt lat="44.886181964777315" lon="8.079355984342122"><ele>208.0</ele><time>2026-04-19T07:17:42Z</time></trkpt><trkpt lat="44.88622646153177" lon="8.079600221958254"><ele>206.49999999999997</ele><time>2026-04-19T07:18:43Z</time></trkpt><trkpt lat="44.88624361867995" lon="8.079719302212471"><ele>205.0</ele><time>2026-04-19T07:18:44Z</time></trkpt><trkpt lat="44.88626348164133" lon="8.079845104127498"><ele>203.5</ele><time>2026-04-19T07:18:45Z</time></trkpt><trkpt lat="44.886273128300694" lon="8.079967774063745"><ele>202.0</ele><time>2026-04-19T07:18:46Z</time></trkpt><trkpt lat="44.886298368021215" lon="8.080078758437454"><ele>200.49999999999997</ele><time>2026-04-19T07:18:47Z</time></trkpt><trkpt lat="44.88631945529648" lon="8.080169373059473"><ele>199.0</ele><time>2026-04-19T07:18:48Z</time></trkpt><trkpt lat="44.88635187133354" lon="8.080248259532688"><ele>198.6</ele><time>2026-04-19T07:18:49Z</time></trkpt><trkpt lat="44.88641662852011" lon="8.080362372112747"><ele>198.2</ele><time>2026-04-19T07:18:51Z</time></trkpt><trkpt lat="44.886457223386714" lon="8.080443555468616"><ele>197.79999999999998</ele><time>2026-04-19T07:18:52Z</time></trkpt><trkpt lat="44.886481602395364" lon="8.080533760620536"><ele>197.39999999999998</ele><time>2026-04-19T07:18:53Z</time></trkpt><trkpt lat="44.88653756310935" lon="8.08066174440068"><ele>197.0</ele><time>2026-04-19T07:18:55Z</time></trkpt><trkpt lat="44.886660429923715" lon="8.080727574457784"><ele>197.00000000000003</ele><time>2026-04-19T07:19:25Z</time></trkpt><trkpt lat="44.88672326306049" lon="8.080739308758725"><ele>197.0</ele><time>2026-04-19T07:19:27Z</time></trkpt><trkpt lat="44.88678188140828" lon="8.080775367379323"><ele>197.0</ele><time>2026-04-19T07:19:29Z</time></trkpt><trkpt lat="44.88676440166748" lon="8.080907232087286"><ele>197.0</ele><time>2026-04-19T07:19:31Z</time></trkpt><trkpt lat="44.886738408862946" lon="8.081002579788924"><ele>197.00000000000003</ele><time>2026-04-19T07:19:33Z</time></trkpt><trkpt lat="44.886717193112865" lon="8.08113985444042"><ele>197.0</ele><time>2026-04-19T07:19:35Z</time></trkpt><trkpt lat="44.886701007328455" lon="8.081280341016733"><ele>196.6</ele><time>2026-04-19T07:19:37Z</time></trkpt><trkpt lat="44.88667878415657" lon="8.08139891578645"><ele>196.2</ele><time>2026-04-19T07:19:38Z</time></trkpt><trkpt lat="44.88665278484756" lon="8.081535538709103"><ele>195.8</ele><time>2026-04-19T07:19:39Z</time></trkpt><trkpt lat="44.88663279477158" lon="8.081644160552667"><ele>195.4</ele><time>2026-04-19T07:19:40Z</time></trkpt><trkpt lat="44.886612839403455" lon="8.081786056071662"><ele>195.0</ele><time>2026-04-19T07:19:42Z</time></trkpt><trkpt lat="44.8865932754884" lon="8.081898417439783"><ele>194.6</ele><time>2026-04-19T07:19:44Z</time></trkpt><trkpt lat="44.8866636421338" lon="8.081971488525411"><ele>194.2</ele><time>2026-04-19T07:20:18Z</time></trkpt><trkpt lat="44.88672561523025" lon="8.0820388761405"><ele>193.8</ele><time>2026-04-19T07:20:20Z</time></trkpt><trkpt lat="44.88673332903472" lon="8.082170053817904"><ele>193.4</ele><time>2026-04-19T07:20:22Z</time></trkpt><trkpt lat="44.88669352523418" lon="8.082316397787416"><ele>193.0</ele><time>2026-04-19T07:20:24Z</time></trkpt><trkpt lat="44.88649287029221" lon="8.082403304311935"><ele>192.75</ele><time>2026-04-19T07:20:26Z</time></trkpt><trkpt lat="44.88646822450465" lon="8.082499064699777"><ele>192.5</ele><time>2026-04-19T07:20:27Z</time></trkpt><trkpt lat="44.88644212210386" lon="8.082595770600008"><ele>192.25</ele><time>2026-04-19T07:20:28Z</time></trkpt><trkpt lat="44.88641391225509" lon="8.082700284308295"><ele>192.0</ele><time>2026-04-19T07:20:29Z</time></trkpt><trkpt lat="44.88662630892" lon="8.082918632304448"><ele>192.0</ele><time>2026-04-19T07:20:30Z</time></trkpt><trkpt lat="44.886656063138716" lon="8.083034818538472"><ele>192.0</ele><time>2026-04-19T07:20:31Z</time></trkpt><trkpt lat="44.88666008520096" lon="8.08313355552699"><ele>192.0</ele><time>2026-04-19T07:20:32Z</time></trkpt><trkpt lat="44.88669956825315" lon="8.083249266098983"><ele>192.0</ele><time>2026-04-19T07:20:33Z</time></trkpt><trkpt lat="44.886749114785694" lon="8.08338828894059"><ele>192.0</ele><time>2026-04-19T07:20:34Z</time></trkpt><trkpt lat="44.88679415802294" lon="8.083508416624674"><ele>186.6</ele><time>2026-04-19T07:20:35Z</time></trkpt><trkpt lat="44.88684486078163" lon="8.083664230124695"><ele>181.2</ele><time>2026-04-19T07:20:36Z</time></trkpt><trkpt lat="44.88688762155567" lon="8.083778332369457"><ele>175.8</ele><time>2026-04-19T07:20:37Z</time></trkpt><trkpt lat="44.88692912294328" lon="8.083888573843968"><ele>170.4</ele><time>2026-04-19T07:20:38Z</time></trkpt><trkpt lat="44.886966883023774" lon="8.083999880304326"><ele>165.0</ele><time>2026-04-19T07:20:39Z</time></trkpt><trkpt lat="44.886979583714705" lon="8.084133518789244"><ele>164.66666666666666</ele><time>2026-04-19T07:20:40Z</time></trkpt><trkpt lat="44.88698820574122" lon="8.084236388675272"><ele>164.33333333333334</ele><time>2026-04-19T07:20:41Z</time></trkpt><trkpt lat="44.88700750582035" lon="8.084351178434781"><ele>164.0</ele><time>2026-04-19T07:20:42Z</time></trkpt><trkpt lat="44.88702828521501" lon="8.084467678312956"><ele>163.66666666666669</ele><time>2026-04-19T07:20:43Z</time></trkpt><trkpt lat="44.887036730590964" lon="8.0845747950287"><ele>163.33333333333334</ele><time>2026-04-19T07:20:44Z</time></trkpt><trkpt lat="44.887029615917754" lon="8.084694715917289"><ele>163.0</ele><time>2026-04-19T07:20:45Z</time></trkpt><trkpt lat="44.88701570284033" lon="8.084820918126322"><ele>163.60000000000002</ele><time>2026-04-19T07:20:46Z</time></trkpt><trkpt lat="44.88697584598405" lon="8.084946893285146"><ele>164.20000000000002</ele><time>2026-04-19T07:20:47Z</time></trkpt><trkpt lat="44.886927642011" lon="8.08509429759925"><ele>164.8</ele><time>2026-04-19T07:20:48Z</time></trkpt><trkpt lat="44.8868896854595" lon="8.085235481028393"><ele>165.4</ele><time>2026-04-19T07:20:49Z</time></trkpt><trkpt lat="44.88688540355838" lon="8.085364011377193"><ele>166.0</ele><time>2026-04-19T07:20:50Z</time></trkpt><trkpt lat="44.886919753238644" lon="8.085497675866833"><ele>166.0</ele><time>2026-04-19T07:20:51Z</time></trkpt><trkpt lat="44.886960206680286" lon="8.085616233131965"><ele>166.0</ele><time>2026-04-19T07:20:52Z</time></trkpt><trkpt lat="44.886986820263765" lon="8.085717641585155"><ele>166.0</ele><time>2026-04-19T07:20:53Z</time></trkpt><trkpt lat="44.88700052582355" lon="8.085832245832728"><ele>166.0</ele><time>2026-04-19T07:20:54Z</time></trkpt><trkpt lat="44.88701713181089" lon="8.085977958291707"><ele>166.0</ele><time>2026-04-19T07:20:55Z</time></trkpt><trkpt lat="44.88703910785255" lon="8.08612581601467"><ele>166.0</ele><time>2026-04-19T07:20:56Z</time></trkpt><trkpt lat="44.88708239879042" lon="8.086247776544592"><ele>166.0</ele><time>2026-04-19T07:20:57Z</time></trkpt><trkpt lat="44.88714040641925" lon="8.086336415142272"><ele>166.0</ele><time>2026-04-19T07:20:58Z</time></trkpt><trkpt lat="44.887187623042934" lon="8.086404532212041"><ele>166.0</ele><time>2026-04-19T07:20:59Z</time></trkpt><trkpt lat="44.887262217388184" lon="8.086549132293284"><ele>166.0</ele><time>2026-04-19T07:21:01Z</time></trkpt><trkpt lat="44.88734132445204" lon="8.086587409719677"><ele>165.0</ele><time>2026-04-19T07:21:02Z</time></trkpt><trkpt lat="44.88745056055571" lon="8.086617281936183"><ele>164.0</ele><time>2026-04-19T07:21:03Z</time></trkpt><trkpt lat="44.88755139356317" lon="8.086656018481483"><ele>163.0</ele><time>2026-04-19T07:21:04Z</time></trkpt><trkpt lat="44.887633562058795" lon="8.086731616650859"><ele>162.0</ele><time>2026-04-19T07:21:05Z</time></trkpt><trkpt lat="44.88769551666193" lon="8.086827518415083"><ele>161.0</ele><time>2026-04-19T07:21:06Z</time></trkpt><trkpt lat="44.887738187995744" lon="8.086930745529042"><ele>162.60000000000002</ele><time>2026-04-19T07:21:07Z</time></trkpt><trkpt lat="44.88777175607344" lon="8.08703651943558"><ele>164.2</ele><time>2026-04-19T07:21:08Z</time></trkpt><trkpt lat="44.88779585101324" lon="8.087158250360378"><ele>165.8</ele><time>2026-04-19T07:21:09Z</time></trkpt><trkpt lat="44.8878025311502" lon="8.087287868329625"><ele>167.39999999999998</ele><time>2026-04-19T07:21:10Z</time></trkpt><trkpt lat="44.88779897858682" lon="8.08742656005976"><ele>169.0</ele><time>2026-04-19T07:21:11Z</time></trkpt><trkpt lat="44.88780817171123" lon="8.087552138660863"><ele>169.0</ele><time>2026-04-19T07:21:12Z</time></trkpt><trkpt lat="44.887881267380685" lon="8.087649523616218"><ele>169.0</ele><time>2026-04-19T07:21:14Z</time></trkpt><trkpt lat="44.88794360815123" lon="8.087744411713539"><ele>169.0</ele><time>2026-04-19T07:21:15Z</time></trkpt><trkpt lat="44.88801980767558" lon="8.087771800504738"><ele>169.0</ele><time>2026-04-19T07:21:16Z</time></trkpt><trkpt lat="44.88810165179329" lon="8.087786574614691"><ele>169.0</ele><time>2026-04-19T07:21:17Z</time></trkpt><trkpt lat="44.88819371961141" lon="8.08779268572924"><ele>169.0</ele><time>2026-04-19T07:21:18Z</time></trkpt><trkpt lat="44.888291566471445" lon="8.087810479062759"><ele>169.0</ele><time>2026-04-19T07:21:19Z</time></trkpt><trkpt lat="44.88838652590005" lon="8.087829698689708"><ele>169.0</ele><time>2026-04-19T07:21:20Z</time></trkpt><trkpt lat="44.888488345900704" lon="8.08786225369586"><ele>169.0</ele><time>2026-04-19T07:21:21Z</time></trkpt><trkpt lat="44.888591073615274" lon="8.087916273176388"><ele>169.0</ele><time>2026-04-19T07:21:22Z</time></trkpt><trkpt lat="44.88867798080932" lon="8.087958463667768"><ele>169.0</ele><time>2026-04-19T07:21:23Z</time></trkpt><trkpt lat="44.88875372397949" lon="8.087972019555226"><ele>171.66666666666669</ele><time>2026-04-19T07:21:24Z</time></trkpt><trkpt lat="44.88882241329578" lon="8.087981080970609"><ele>174.33333333333334</ele><time>2026-04-19T07:21:25Z</time></trkpt><trkpt lat="44.88890228579772" lon="8.08796161515306"><ele>177.0</ele><time>2026-04-19T07:21:26Z</time></trkpt><trkpt lat="44.88898797749672" lon="8.087970126740055"><ele>179.66666666666666</ele><time>2026-04-19T07:21:27Z</time></trkpt><trkpt lat="44.88907634328449" lon="8.087989059285956"><ele>182.33333333333331</ele><time>2026-04-19T07:21:28Z</time></trkpt><trkpt lat="44.88916978136383" lon="8.087990763191325"><ele>185.0</ele><time>2026-04-19T07:21:29Z</time></trkpt><trkpt lat="44.8892768034686" lon="8.087990945103293"><ele>188.8</ele><time>2026-04-19T07:21:30Z</time></trkpt><trkpt lat="44.88936278841307" lon="8.088012826459577"><ele>192.6</ele><time>2026-04-19T07:21:31Z</time></trkpt><trkpt lat="44.8894631186826" lon="8.08802364627952"><ele>196.39999999999998</ele><time>2026-04-19T07:21:32Z</time></trkpt><trkpt lat="44.889575097582636" lon="8.088019792746406"><ele>200.2</ele><time>2026-04-19T07:21:33Z</time></trkpt><trkpt lat="44.88968818172442" lon="8.088001939171184"><ele>204.0</ele><time>2026-04-19T07:21:34Z</time></trkpt><trkpt lat="44.88979157170473" lon="8.087979073693381"><ele>204.0</ele><time>2026-04-19T07:21:35Z</time></trkpt><trkpt lat="44.889893892356255" lon="8.087923948032609"><ele>204.0</ele><time>2026-04-19T07:21:36Z</time></trkpt><trkpt lat="44.88999265432633" lon="8.087926539865972"><ele>204.0</ele><time>2026-04-19T07:21:37Z</time></trkpt><trkpt lat="44.890068434817294" lon="8.087977224900705"><ele>204.0</ele><time>2026-04-19T07:21:38Z</time></trkpt><trkpt lat="44.89016383668509" lon="8.088032510070931"><ele>204.0</ele><time>2026-04-19T07:21:39Z</time></trkpt><trkpt lat="44.89025230201038" lon="8.088089933589684"><ele>207.0</ele><time>2026-04-19T07:21:40Z</time></trkpt><trkpt lat="44.89032044422158" lon="8.088083599504882"><ele>210.0</ele><time>2026-04-19T07:21:41Z</time></trkpt><trkpt lat="44.89043182670529" lon="8.08805123076956"><ele>212.99999999999997</ele><time>2026-04-19T07:21:43Z</time></trkpt><trkpt lat="44.89050783342678" lon="8.088035548772822"><ele>216.0</ele><time>2026-04-19T07:21:44Z</time></trkpt><trkpt lat="44.89063353824888" lon="8.08804165329161"><ele>219.0</ele><time>2026-04-19T07:21:46Z</time></trkpt><trkpt lat="44.890713393093" lon="8.088078809912247"><ele>219.0</ele><time>2026-04-19T07:21:47Z</time></trkpt><trkpt lat="44.89078565817461" lon="8.088125287829248"><ele>219.0</ele><time>2026-04-19T07:21:48Z</time></trkpt><trkpt lat="44.890863467130096" lon="8.088223361738283"><ele>219.0</ele><time>2026-04-19T07:21:49Z</time></trkpt><trkpt lat="44.8909297936741" lon="8.088297804207322"><ele>219.0</ele><time>2026-04-19T07:21:50Z</time></trkpt><trkpt lat="44.89099475421962" lon="8.088352235523907"><ele>219.0</ele><time>2026-04-19T07:21:51Z</time></trkpt><trkpt lat="44.89108790965901" lon="8.088380058206342"><ele>219.0</ele><time>2026-04-19T07:21:52Z</time></trkpt><trkpt lat="44.891166595986434" lon="8.088363866475849"><ele>218.33333333333334</ele><time>2026-04-19T07:21:53Z</time></trkpt><trkpt lat="44.891235243695824" lon="8.08829748046694"><ele>217.66666666666669</ele><time>2026-04-19T07:21:54Z</time></trkpt><trkpt lat="44.89130222898627" lon="8.08832379341007"><ele>217.0</ele><time>2026-04-19T07:21:55Z</time></trkpt><trkpt lat="44.89136509755062" lon="8.088265799462446"><ele>216.33333333333334</ele><time>2026-04-19T07:21:58Z</time></trkpt><trkpt lat="44.89148171419433" lon="8.088204399621409"><ele>215.66666666666669</ele><time>2026-04-19T07:22:00Z</time></trkpt><trkpt lat="44.89152169752227" lon="8.088131802108471"><ele>215.0</ele><time>2026-04-19T07:22:01Z</time></trkpt><trkpt lat="44.89156197036665" lon="8.088052829413314"><ele>215.0</ele><time>2026-04-19T07:22:02Z</time></trkpt><trkpt lat="44.891621951878115" lon="8.088006330583905"><ele>215.0</ele><time>2026-04-19T07:22:03Z</time></trkpt><trkpt lat="44.891686069708534" lon="8.088006841539661"><ele>215.0</ele><time>2026-04-19T07:22:04Z</time></trkpt><trkpt lat="44.891734711926546" lon="8.088072277313827"><ele>215.0</ele><time>2026-04-19T07:22:05Z</time></trkpt><trkpt lat="44.89176435918706" lon="8.088159161740727"><ele>215.0</ele><time>2026-04-19T07:22:06Z</time></trkpt><trkpt lat="44.891753740373105" lon="8.088248102601893"><ele>215.0</ele><time>2026-04-19T07:22:07Z</time></trkpt><trkpt lat="44.89170750786314" lon="8.08832421121218"><ele>215.0</ele><time>2026-04-19T07:22:08Z</time></trkpt><trkpt lat="44.89165137784108" lon="8.088392112706067"><ele>214.66666666666669</ele><time>2026-04-19T07:22:09Z</time></trkpt><trkpt lat="44.89160691928054" lon="8.088463938763757"><ele>214.33333333333334</ele><time>2026-04-19T07:22:10Z</time></trkpt><trkpt lat="44.891562662349116" lon="8.088532811557155"><ele>214.0</ele><time>2026-04-19T07:22:11Z</time></trkpt><trkpt lat="44.89150766476455" lon="8.08861173701632"><ele>213.66666666666669</ele><time>2026-04-19T07:22:12Z</time></trkpt><trkpt lat="44.891471108690425" lon="8.088693572684999"><ele>213.33333333333334</ele><time>2026-04-19T07:22:13Z</time></trkpt><trkpt lat="44.89144833558421" lon="8.088776848105333"><ele>213.0</ele><time>2026-04-19T07:22:14Z</time></trkpt><trkpt lat="44.89139293061099" lon="8.088922952508335"><ele>213.0</ele><time>2026-04-19T07:22:16Z</time></trkpt><trkpt lat="44.89137550076335" lon="8.089039506843095"><ele>213.0</ele><time>2026-04-19T07:22:18Z</time></trkpt><trkpt lat="44.89145401837495" lon="8.089027326876058"><ele>213.0</ele><time>2026-04-19T07:22:23Z</time></trkpt><trkpt lat="44.89152028970081" lon="8.088947729702664"><ele>213.0</ele><time>2026-04-19T07:22:24Z</time></trkpt><trkpt lat="44.89159560937051" lon="8.08889050630247"><ele>213.0</ele><time>2026-04-19T07:22:26Z</time></trkpt><trkpt lat="44.89171256967878" lon="8.088802811742443"><ele>210.5</ele><time>2026-04-19T07:22:28Z</time></trkpt><trkpt lat="44.89178304437346" lon="8.088727966493538"><ele>208.0</ele><time>2026-04-19T07:22:29Z</time></trkpt><trkpt lat="44.89185166614097" lon="8.088648618294068"><ele>205.5</ele><time>2026-04-19T07:22:30Z</time></trkpt><trkpt lat="44.89191679853496" lon="8.088574869783905"><ele>203.0</ele><time>2026-04-19T07:22:31Z</time></trkpt><trkpt lat="44.89197726644278" lon="8.08852029075655"><ele>200.5</ele><time>2026-04-19T07:22:32Z</time></trkpt><trkpt lat="44.89204035146973" lon="8.088492147987429"><ele>198.0</ele><time>2026-04-19T07:22:33Z</time></trkpt><trkpt lat="44.892112709741085" lon="8.088480643883601"><ele>198.0</ele><time>2026-04-19T07:22:34Z</time></trkpt><trkpt lat="44.89218461293019" lon="8.088486557313527"><ele>198.0</ele><time>2026-04-19T07:22:35Z</time></trkpt><trkpt lat="44.89227350011561" lon="8.088495014562191"><ele>198.0</ele><time>2026-04-19T07:22:36Z</time></trkpt><trkpt lat="44.892370367405675" lon="8.088505555335319"><ele>198.0</ele><time>2026-04-19T07:22:37Z</time></trkpt><trkpt lat="44.892464549495855" lon="8.088518107056345"><ele>198.0</ele><time>2026-04-19T07:22:38Z</time></trkpt><trkpt lat="44.89256258709673" lon="8.088533644664087"><ele>195.4</ele><time>2026-04-19T07:22:39Z</time></trkpt><trkpt lat="44.89266128680797" lon="8.08855160234066"><ele>192.8</ele><time>2026-04-19T07:22:40Z</time></trkpt><trkpt lat="44.89274495559754" lon="8.088584448381793"><ele>190.2</ele><time>2026-04-19T07:22:41Z</time></trkpt><trkpt lat="44.89283169707116" lon="8.088654968738249"><ele>187.6</ele><time>2026-04-19T07:22:42Z</time></trkpt><trkpt lat="44.89292829518804" lon="8.088721862362398"><ele>185.0</ele><time>2026-04-19T07:22:43Z</time></trkpt><trkpt lat="44.893031018307845" lon="8.088824998004528"><ele>185.0</ele><time>2026-04-19T07:22:44Z</time></trkpt><trkpt lat="44.89311165647121" lon="8.088899824621173"><ele>185.0</ele><time>2026-04-19T07:22:45Z</time></trkpt><trkpt lat="44.893192170033274" lon="8.088946800086651"><ele>185.0</ele><time>2026-04-19T07:22:46Z</time></trkpt><trkpt lat="44.89330359012222" lon="8.08895444245775"><ele>185.0</ele><time>2026-04-19T07:22:47Z</time></trkpt><trkpt lat="44.89339387708763" lon="8.088901280166898"><ele>185.0</ele><time>2026-04-19T07:22:48Z</time></trkpt><trkpt lat="44.893478018714994" lon="8.088876838382953"><ele>182.4</ele><time>2026-04-19T07:22:49Z</time></trkpt><trkpt lat="44.893559501016085" lon="8.088788676363052"><ele>179.8</ele><time>2026-04-19T07:22:50Z</time></trkpt><trkpt lat="44.893628098604836" lon="8.08871242445411"><ele>177.2</ele><time>2026-04-19T07:22:51Z</time></trkpt><trkpt lat="44.89369638306546" lon="8.088650648213482"><ele>174.6</ele><time>2026-04-19T07:22:52Z</time></trkpt><trkpt lat="44.893786827738666" lon="8.088618962451227"><ele>172.0</ele><time>2026-04-19T07:22:53Z</time></trkpt><trkpt lat="44.8938776068888" lon="8.088591003114521"><ele>172.0</ele><time>2026-04-19T07:22:54Z</time></trkpt><trkpt lat="44.893977478377934" lon="8.088557298580902"><ele>172.0</ele><time>2026-04-19T07:22:55Z</time></trkpt><trkpt lat="44.89406890669558" lon="8.088568080138861"><ele>172.0</ele><time>2026-04-19T07:22:56Z</time></trkpt><trkpt lat="44.89414701029692" lon="8.088566935894468"><ele>172.0</ele><time>2026-04-19T07:22:57Z</time></trkpt><trkpt lat="44.89420939607268" lon="8.088552270749199"><ele>172.0</ele><time>2026-04-19T07:22:58Z</time></trkpt><trkpt lat="44.8942739884719" lon="8.088591665422769"><ele>172.0</ele><time>2026-04-19T07:22:59Z</time></trkpt><trkpt lat="44.89433661357762" lon="8.08867182961696"><ele>172.0</ele><time>2026-04-19T07:23:00Z</time></trkpt><trkpt lat="44.89442117797357" lon="8.08869737520226"><ele>172.0</ele><time>2026-04-19T07:23:01Z</time></trkpt><trkpt lat="44.89448763519984" lon="8.08873193088945"><ele>172.0</ele><time>2026-04-19T07:23:02Z</time></trkpt><trkpt lat="44.894585024523394" lon="8.088609810466892"><ele>172.0</ele><time>2026-04-19T07:23:03Z</time></trkpt><trkpt lat="44.89467758593761" lon="8.088544122863414"><ele>172.0</ele><time>2026-04-19T07:23:04Z</time></trkpt><trkpt lat="44.89474508491134" lon="8.08848053534571"><ele>172.0</ele><time>2026-04-19T07:23:05Z</time></trkpt><trkpt lat="44.89481234892995" lon="8.088437153527"><ele>172.0</ele><time>2026-04-19T07:23:06Z</time></trkpt><trkpt lat="44.89488799880549" lon="8.088402940486134"><ele>172.0</ele><time>2026-04-19T07:23:07Z</time></trkpt><trkpt lat="44.89497942890735" lon="8.088379359503083"><ele>172.0</ele><time>2026-04-19T07:23:09Z</time></trkpt><trkpt lat="44.89504711092111" lon="8.088384629559828"><ele>172.0</ele><time>2026-04-19T07:23:11Z</time></trkpt><trkpt lat="44.89514148797496" lon="8.088373230378119"><ele>172.0</ele><time>2026-04-19T07:23:14Z</time></trkpt><trkpt lat="44.89520140564195" lon="8.088267335641424"><ele>172.66666666666669</ele><time>2026-04-19T07:23:15Z</time></trkpt><trkpt lat="44.89525379407361" lon="8.08818574945264"><ele>173.33333333333334</ele><time>2026-04-19T07:23:16Z</time></trkpt><trkpt lat="44.895308020062814" lon="8.088093915142915"><ele>174.0</ele><time>2026-04-19T07:23:17Z</time></trkpt><trkpt lat="44.89535441237388" lon="8.088009565738902"><ele>174.66666666666666</ele><time>2026-04-19T07:23:18Z</time></trkpt><trkpt lat="44.895403193260776" lon="8.08791769679406"><ele>175.33333333333331</ele><time>2026-04-19T07:23:19Z</time></trkpt><trkpt lat="44.895442137333134" lon="8.087816259421874"><ele>176.0</ele><time>2026-04-19T07:23:20Z</time></trkpt><trkpt lat="44.89549407418817" lon="8.087703931035177"><ele>176.0</ele><time>2026-04-19T07:23:21Z</time></trkpt><trkpt lat="44.895546184436" lon="8.087587294953906"><ele>176.0</ele><time>2026-04-19T07:23:22Z</time></trkpt><trkpt lat="44.895599989691476" lon="8.087461145601122"><ele>176.0</ele><time>2026-04-19T07:23:23Z</time></trkpt><trkpt lat="44.89565481221304" lon="8.087321770989874"><ele>176.0</ele><time>2026-04-19T07:23:24Z</time></trkpt><trkpt lat="44.89568914680293" lon="8.087173508165899"><ele>176.0</ele><time>2026-04-19T07:23:25Z</time></trkpt><trkpt lat="44.89568306430208" lon="8.087033252799461"><ele>176.0</ele><time>2026-04-19T07:23:26Z</time></trkpt><trkpt lat="44.89570424615432" lon="8.086869643783784"><ele>176.0</ele><time>2026-04-19T07:23:27Z</time></trkpt><trkpt lat="44.89565581138785" lon="8.086754640114302"><ele>176.0</ele><time>2026-04-19T07:23:28Z</time></trkpt><trkpt lat="44.895951915803266" lon="8.086635098338501"><ele>178.0</ele><time>2026-04-19T07:23:29Z</time></trkpt><trkpt lat="44.89601164300847" lon="8.086530930475064"><ele>180.0</ele><time>2026-04-19T07:23:30Z</time></trkpt><trkpt lat="44.8960695082153" lon="8.086403492513291"><ele>182.0</ele><time>2026-04-19T07:23:31Z</time></trkpt><trkpt lat="44.8961338971419" lon="8.08628727156682"><ele>184.0</ele><time>2026-04-19T07:23:32Z</time></trkpt><trkpt lat="44.89618395306066" lon="8.08616592301979"><ele>186.0</ele><time>2026-04-19T07:23:33Z</time></trkpt><trkpt lat="44.896238047904845" lon="8.086043065329738"><ele>186.0</ele><time>2026-04-19T07:23:34Z</time></trkpt><trkpt lat="44.89626805313365" lon="8.085930923879355"><ele>186.0</ele><time>2026-04-19T07:23:35Z</time></trkpt><trkpt lat="44.896280525346924" lon="8.085799357201584"><ele>186.0</ele><time>2026-04-19T07:23:36Z</time></trkpt><trkpt lat="44.896283067886074" lon="8.085658406909374"><ele>186.0</ele><time>2026-04-19T07:23:37Z</time></trkpt><trkpt lat="44.89628476379499" lon="8.08551136297561"><ele>186.0</ele><time>2026-04-19T07:23:38Z</time></trkpt><trkpt lat="44.896278460774596" lon="8.085351266152882"><ele>186.25</ele><time>2026-04-19T07:23:39Z</time></trkpt><trkpt lat="44.896264391089666" lon="8.085177147710468"><ele>186.5</ele><time>2026-04-19T07:23:40Z</time></trkpt><trkpt lat="44.89627036772858" lon="8.08499092427473"><ele>186.75</ele><time>2026-04-19T07:23:41Z</time></trkpt><trkpt lat="44.8962429170079" lon="8.08480204662989"><ele>187.0</ele><time>2026-04-19T07:23:42Z</time></trkpt><trkpt lat="44.896214700516815" lon="8.084613881432928"><ele>186.39999999999998</ele><time>2026-04-19T07:23:43Z</time></trkpt><trkpt lat="44.89620003271634" lon="8.084425044856198"><ele>185.79999999999998</ele><time>2026-04-19T07:23:44Z</time></trkpt><trkpt lat="44.896203690387814" lon="8.084254778688377"><ele>185.2</ele><time>2026-04-19T07:23:45Z</time></trkpt><trkpt lat="44.89621535861832" lon="8.084126859508432"><ele>184.6</ele><time>2026-04-19T07:23:46Z</time></trkpt><trkpt lat="44.89621761759827" lon="8.084030173792508"><ele>184.0</ele><time>2026-04-19T07:23:47Z</time></trkpt><trkpt lat="44.89627569221613" lon="8.083890847689325"><ele>184.0</ele><time>2026-04-19T07:23:49Z</time></trkpt><trkpt lat="44.89636367359029" lon="8.083825068432983"><ele>184.0</ele><time>2026-04-19T07:23:50Z</time></trkpt><trkpt lat="44.89641651641283" lon="8.083757220149554"><ele>184.0</ele><time>2026-04-19T07:23:51Z</time></trkpt><trkpt lat="44.89652424610568" lon="8.083659658116192"><ele>184.0</ele><time>2026-04-19T07:23:53Z</time></trkpt><trkpt lat="44.896557295385406" lon="8.083552283911486"><ele>184.0</ele><time>2026-04-19T07:23:55Z</time></trkpt><trkpt lat="44.89668137424335" lon="8.083575697576078"><ele>179.6</ele><time>2026-04-19T07:23:57Z</time></trkpt><trkpt lat="44.896758256602524" lon="8.083619419265183"><ele>175.2</ele><time>2026-04-19T07:23:58Z</time></trkpt><trkpt lat="44.896865365419444" lon="8.083670213794425"><ele>170.79999999999998</ele><time>2026-04-19T07:23:59Z</time></trkpt><trkpt lat="44.89695616184086" lon="8.083697859409835"><ele>166.39999999999998</ele><time>2026-04-19T07:24:00Z</time></trkpt><trkpt lat="44.89704150660862" lon="8.083789091230301"><ele>162.0</ele><time>2026-04-19T07:24:01Z</time></trkpt><trkpt lat="44.89711874490997" lon="8.08384241623552"><ele>162.0</ele><time>2026-04-19T07:24:02Z</time></trkpt><trkpt lat="44.89719775188066" lon="8.083853932822677"><ele>162.0</ele><time>2026-04-19T07:24:03Z</time></trkpt><trkpt lat="44.89726363947579" lon="8.083923114873718"><ele>162.0</ele><time>2026-04-19T07:24:04Z</time></trkpt><trkpt lat="44.89735769699732" lon="8.083990874038186"><ele>162.0</ele><time>2026-04-19T07:24:05Z</time></trkpt><trkpt lat="44.89745092196493" lon="8.084046398861306"><ele>162.0</ele><time>2026-04-19T07:24:06Z</time></trkpt><trkpt lat="44.897532941962005" lon="8.084120534160109"><ele>160.0</ele><time>2026-04-19T07:24:07Z</time></trkpt><trkpt lat="44.89759564264839" lon="8.084214413169784"><ele>158.0</ele><time>2026-04-19T07:24:08Z</time></trkpt><trkpt lat="44.89765305428989" lon="8.084335738426685"><ele>156.0</ele><time>2026-04-19T07:24:09Z</time></trkpt><trkpt lat="44.897726157995024" lon="8.084446775626235"><ele>154.0</ele><time>2026-04-19T07:24:10Z</time></trkpt><trkpt lat="44.89777325291313" lon="8.084536714031355"><ele>152.0</ele><time>2026-04-19T07:24:11Z</time></trkpt><trkpt lat="44.89784056447169" lon="8.084626852743648"><ele>152.0</ele><time>2026-04-19T07:24:12Z</time></trkpt><trkpt lat="44.89794509846453" lon="8.084714059546203"><ele>152.0</ele><time>2026-04-19T07:24:14Z</time></trkpt><trkpt lat="44.89805332249233" lon="8.08473746705033"><ele>152.0</ele><time>2026-04-19T07:24:16Z</time></trkpt><trkpt lat="44.89817224686868" lon="8.084725887855496"><ele>152.0</ele><time>2026-04-19T07:24:19Z</time></trkpt><trkpt lat="44.89823420148123" lon="8.084614898377298"><ele>152.0</ele><time>2026-04-19T07:24:20Z</time></trkpt><trkpt lat="44.89833157649221" lon="8.084540474818533"><ele>152.0</ele><time>2026-04-19T07:24:21Z</time></trkpt><trkpt lat="44.898447665183674" lon="8.084464156336493"><ele>152.0</ele><time>2026-04-19T07:24:22Z</time></trkpt><trkpt lat="44.89857706370059" lon="8.084367178863682"><ele>152.0</ele><time>2026-04-19T07:24:23Z</time></trkpt><trkpt lat="44.89869935423661" lon="8.084258254423926"><ele>151.2</ele><time>2026-04-19T07:24:24Z</time></trkpt><trkpt lat="44.89880681779497" lon="8.084155103694947"><ele>150.39999999999998</ele><time>2026-04-19T07:24:25Z</time></trkpt><trkpt lat="44.898897537604" lon="8.08407030928744"><ele>149.60000000000002</ele><time>2026-04-19T07:24:26Z</time></trkpt><trkpt lat="44.898955384322015" lon="8.083994568593209"><ele>148.8</ele><time>2026-04-19T07:24:27Z</time></trkpt><trkpt lat="44.89899188372383" lon="8.083815677947648"><ele>148.0</ele><time>2026-04-19T07:24:29Z</time></trkpt><trkpt lat="44.898972999858216" lon="8.083650812245235"><ele>148.0</ele><time>2026-04-19T07:24:30Z</time></trkpt><trkpt lat="44.89892536789424" lon="8.083493823017674"><ele>148.0</ele><time>2026-04-19T07:24:31Z</time></trkpt><trkpt lat="44.898880747838746" lon="8.083325661827844"><ele>148.0</ele><time>2026-04-19T07:24:32Z</time></trkpt><trkpt lat="44.89884804054673" lon="8.08317392669116"><ele>148.0</ele><time>2026-04-19T07:24:33Z</time></trkpt><trkpt lat="44.89881503888658" lon="8.083010198560777"><ele>147.75</ele><time>2026-04-19T07:24:34Z</time></trkpt><trkpt lat="44.89878799068825" lon="8.082845400331347"><ele>147.5</ele><time>2026-04-19T07:24:35Z</time></trkpt><trkpt lat="44.89875208203801" lon="8.082704426109444"><ele>147.25</ele><time>2026-04-19T07:24:36Z</time></trkpt><trkpt lat="44.89870208568686" lon="8.082569209920896"><ele>147.0</ele><time>2026-04-19T07:24:37Z</time></trkpt><trkpt lat="44.89864360433439" lon="8.082427830241947"><ele>146.83333333333334</ele><time>2026-04-19T07:24:38Z</time></trkpt><trkpt lat="44.89858201900726" lon="8.082290604334839"><ele>146.66666666666666</ele><time>2026-04-19T07:24:39Z</time></trkpt><trkpt lat="44.89852385944674" lon="8.082184818599083"><ele>146.5</ele><time>2026-04-19T07:24:40Z</time></trkpt><trkpt lat="44.898469313755406" lon="8.082111677881244"><ele>146.33333333333331</ele><time>2026-04-19T07:24:41Z</time></trkpt><trkpt lat="44.89840744048174" lon="8.082081366621823"><ele>146.16666666666666</ele><time>2026-04-19T07:24:42Z</time></trkpt><trkpt lat="44.89831274388848" lon="8.082100745230358"><ele>146.0</ele><time>2026-04-19T07:24:43Z</time></trkpt><trkpt lat="44.89819626661815" lon="8.082123767271229"><ele>146.4</ele><time>2026-04-19T07:24:44Z</time></trkpt><trkpt lat="44.89809372716003" lon="8.082087231580285"><ele>146.8</ele><time>2026-04-19T07:24:45Z</time></trkpt><trkpt lat="44.89803116297756" lon="8.082003968032389"><ele>147.20000000000002</ele><time>2026-04-19T07:24:46Z</time></trkpt><trkpt lat="44.89799198371446" lon="8.081895214834113"><ele>147.6</ele><time>2026-04-19T07:24:47Z</time></trkpt><trkpt lat="44.8979659964796" lon="8.081768148231525"><ele>148.0</ele><time>2026-04-19T07:24:48Z</time></trkpt><trkpt lat="44.89793488822728" lon="8.081631755223466"><ele>148.0</ele><time>2026-04-19T07:24:49Z</time></trkpt><trkpt lat="44.897901329969194" lon="8.081496062669993"><ele>148.0</ele><time>2026-04-19T07:24:50Z</time></trkpt><trkpt lat="44.89786881739406" lon="8.081387799060582"><ele>148.0</ele><time>2026-04-19T07:24:51Z</time></trkpt><trkpt lat="44.897843129245196" lon="8.081288034879783"><ele>148.0</ele><time>2026-04-19T07:24:52Z</time></trkpt><trkpt lat="44.89781900093738" lon="8.081166724051766"><ele>148.0</ele><time>2026-04-19T07:24:53Z</time></trkpt><trkpt lat="44.897806847239885" lon="8.081019993693351"><ele>148.0</ele><time>2026-04-19T07:24:54Z</time></trkpt><trkpt lat="44.89779711792173" lon="8.08086028634597"><ele>148.0</ele><time>2026-04-19T07:24:55Z</time></trkpt><trkpt lat="44.897784950631916" lon="8.080687056091767"><ele>148.0</ele><time>2026-04-19T07:24:56Z</time></trkpt><trkpt lat="44.897764640949376" lon="8.080513805792032"><ele>148.0</ele><time>2026-04-19T07:24:57Z</time></trkpt><trkpt lat="44.89774834408017" lon="8.080348144262365"><ele>148.4</ele><time>2026-04-19T07:24:58Z</time></trkpt><trkpt lat="44.89773553010187" lon="8.080200550659596"><ele>148.8</ele><time>2026-04-19T07:24:59Z</time></trkpt><trkpt lat="44.89772476827433" lon="8.080074760480008"><ele>149.2</ele><time>2026-04-19T07:25:00Z</time></trkpt><trkpt lat="44.897705647324365" lon="8.079955874563016"><ele>149.6</ele><time>2026-04-19T07:25:01Z</time></trkpt><trkpt lat="44.8976956075858" lon="8.079830826792248"><ele>150.0</ele><time>2026-04-19T07:25:02Z</time></trkpt><trkpt lat="44.89769405379767" lon="8.079674330577994"><ele>150.0</ele><time>2026-04-19T07:25:03Z</time></trkpt><trkpt lat="44.89770630373805" lon="8.079541832664752"><ele>150.0</ele><time>2026-04-19T07:25:04Z</time></trkpt><trkpt lat="44.897731508952894" lon="8.07941024291621"><ele>150.0</ele><time>2026-04-19T07:25:05Z</time></trkpt><trkpt lat="44.89777393809677" lon="8.07928028420395"><ele>150.0</ele><time>2026-04-19T07:25:06Z</time></trkpt><trkpt lat="44.89780921471292" lon="8.079142332527642"><ele>150.0</ele><time>2026-04-19T07:25:07Z</time></trkpt><trkpt lat="44.89782677432866" lon="8.078994628583574"><ele>150.25</ele><time>2026-04-19T07:25:08Z</time></trkpt><trkpt lat="44.89783526588894" lon="8.07884478188264"><ele>150.5</ele><time>2026-04-19T07:25:09Z</time></trkpt><trkpt lat="44.897846774415264" lon="8.078694513690333"><ele>150.75</ele><time>2026-04-19T07:25:10Z</time></trkpt><trkpt lat="44.8978762657215" lon="8.078532489337785"><ele>151.0</ele><time>2026-04-19T07:25:11Z</time></trkpt><trkpt lat="44.89790927306355" lon="8.078365216709686"><ele>151.0</ele><time>2026-04-19T07:25:12Z</time></trkpt><trkpt lat="44.89794756443805" lon="8.078204520717163"><ele>151.0</ele><time>2026-04-19T07:25:13Z</time></trkpt><trkpt lat="44.89797932844213" lon="8.078056957949542"><ele>151.0</ele><time>2026-04-19T07:25:14Z</time></trkpt><trkpt lat="44.89800993120939" lon="8.077921561041025"><ele>151.0</ele><time>2026-04-19T07:25:15Z</time></trkpt><trkpt lat="44.8980318145312" lon="8.077774709979002"><ele>151.0</ele><time>2026-04-19T07:25:16Z</time></trkpt><trkpt lat="44.89804176907451" lon="8.077607367192272"><ele>151.0</ele><time>2026-04-19T07:25:17Z</time></trkpt><trkpt lat="44.898035580683135" lon="8.077437809003483"><ele>151.0</ele><time>2026-04-19T07:25:18Z</time></trkpt><trkpt lat="44.898018484264384" lon="8.077268861802649"><ele>151.0</ele><time>2026-04-19T07:25:19Z</time></trkpt><trkpt lat="44.89800084337003" lon="8.077113704393206"><ele>151.0</ele><time>2026-04-19T07:25:20Z</time></trkpt><trkpt lat="44.89799560512733" lon="8.076954799533953"><ele>151.0</ele><time>2026-04-19T07:25:21Z</time></trkpt><trkpt lat="44.897990730419714" lon="8.076790550803315"><ele>151.0</ele><time>2026-04-19T07:25:22Z</time></trkpt><trkpt lat="44.89798260068564" lon="8.07663765362322"><ele>151.0</ele><time>2026-04-19T07:25:23Z</time></trkpt><trkpt lat="44.89797353259454" lon="8.07649203478527"><ele>151.0</ele><time>2026-04-19T07:25:24Z</time></trkpt><trkpt lat="44.897969614834416" lon="8.076356038112047"><ele>151.0</ele><time>2026-04-19T07:25:25Z</time></trkpt><trkpt lat="44.89796720513365" lon="8.076216520029392"><ele>151.0</ele><time>2026-04-19T07:25:26Z</time></trkpt><trkpt lat="44.897970765056854" lon="8.076066927270643"><ele>151.0</ele><time>2026-04-19T07:25:27Z</time></trkpt><trkpt lat="44.89798668610928" lon="8.075908507264247"><ele>151.0</ele><time>2026-04-19T07:25:28Z</time></trkpt><trkpt lat="44.898013633228" lon="8.075750607337806"><ele>151.0</ele><time>2026-04-19T07:25:29Z</time></trkpt><trkpt lat="44.89803991785626" lon="8.075616722306487"><ele>151.0</ele><time>2026-04-19T07:25:30Z</time></trkpt><trkpt lat="44.89806172969279" lon="8.075504911999355"><ele>151.0</ele><time>2026-04-19T07:25:31Z</time></trkpt><trkpt lat="44.898063981411454" lon="8.075404680160446"><ele>151.0</ele><time>2026-04-19T07:25:32Z</time></trkpt><trkpt lat="44.89803927692584" lon="8.07531809635954"><ele>151.0</ele><time>2026-04-19T07:25:33Z</time></trkpt><trkpt lat="44.89797157163049" lon="8.075236451078698"><ele>151.0</ele><time>2026-04-19T07:25:34Z</time></trkpt><trkpt lat="44.89787086575694" lon="8.07515941057992"><ele>151.0</ele><time>2026-04-19T07:25:35Z</time></trkpt><trkpt lat="44.89776417283618" lon="8.075086121108166"><ele>151.0</ele><time>2026-04-19T07:25:36Z</time></trkpt><trkpt lat="44.89763581420891" lon="8.075000634018368"><ele>151.0</ele><time>2026-04-19T07:25:37Z</time></trkpt><trkpt lat="44.897519035581475" lon="8.074918537054186"><ele>151.0</ele><time>2026-04-19T07:25:38Z</time></trkpt><trkpt lat="44.89742661921442" lon="8.074854963797758"><ele>151.0</ele><time>2026-04-19T07:25:39Z</time></trkpt><trkpt lat="44.89735528258856" lon="8.07480710340324"><ele>152.2</ele><time>2026-04-19T07:25:40Z</time></trkpt><trkpt lat="44.89730016729582" lon="8.074705319969814"><ele>153.39999999999998</ele><time>2026-04-19T07:25:42Z</time></trkpt><trkpt lat="44.89728624365489" lon="8.0746143793462"><ele>154.6</ele><time>2026-04-19T07:25:43Z</time></trkpt><trkpt lat="44.89728752318699" lon="8.074484011722733"><ele>155.79999999999998</ele><time>2026-04-19T07:25:44Z</time></trkpt><trkpt lat="44.89731408219563" lon="8.07434522782046"><ele>157.0</ele><time>2026-04-19T07:25:45Z</time></trkpt><trkpt lat="44.89735181204994" lon="8.074172663833469"><ele>156.75</ele><time>2026-04-19T07:25:46Z</time></trkpt><trkpt lat="44.897370752151616" lon="8.07398221043763"><ele>156.5</ele><time>2026-04-19T07:25:47Z</time></trkpt><trkpt lat="44.89737889258944" lon="8.07379532580184"><ele>156.25</ele><time>2026-04-19T07:25:48Z</time></trkpt><trkpt lat="44.8973855199529" lon="8.073614052493364"><ele>156.0</ele><time>2026-04-19T07:25:49Z</time></trkpt><trkpt lat="44.8974005976749" lon="8.073437684537327"><ele>157.75</ele><time>2026-04-19T07:25:50Z</time></trkpt><trkpt lat="44.897418224596144" lon="8.073260262666048"><ele>159.5</ele><time>2026-04-19T07:25:51Z</time></trkpt><trkpt lat="44.89742945791558" lon="8.07309113970072"><ele>161.25</ele><time>2026-04-19T07:25:52Z</time></trkpt><trkpt lat="44.89745555688271" lon="8.072947480608129"><ele>163.0</ele><time>2026-04-19T07:25:53Z</time></trkpt><trkpt lat="44.89749045281813" lon="8.07278235579575"><ele>163.0</ele><time>2026-04-19T07:25:54Z</time></trkpt><trkpt lat="44.897531027264996" lon="8.072619891372382"><ele>163.0</ele><time>2026-04-19T07:25:55Z</time></trkpt><trkpt lat="44.897595155629496" lon="8.072474528673657"><ele>163.0</ele><time>2026-04-19T07:25:56Z</time></trkpt><trkpt lat="44.89767262435127" lon="8.072327309539371"><ele>163.0</ele><time>2026-04-19T07:25:57Z</time></trkpt><trkpt lat="44.89776614494065" lon="8.072183492873643"><ele>159.75</ele><time>2026-04-19T07:25:58Z</time></trkpt><trkpt lat="44.8978560772818" lon="8.072052604524501"><ele>156.5</ele><time>2026-04-19T07:25:59Z</time></trkpt><trkpt lat="44.89792539126278" lon="8.071922273506837"><ele>153.25</ele><time>2026-04-19T07:26:00Z</time></trkpt><trkpt lat="44.897988575928125" lon="8.071766492857467"><ele>150.0</ele><time>2026-04-19T07:26:01Z</time></trkpt><trkpt lat="44.89804513873589" lon="8.07160128362894"><ele>150.0</ele><time>2026-04-19T07:26:02Z</time></trkpt><trkpt lat="44.89808429288472" lon="8.071452512027532"><ele>150.0</ele><time>2026-04-19T07:26:03Z</time></trkpt><trkpt lat="44.898106451949204" lon="8.07130627293502"><ele>150.0</ele><time>2026-04-19T07:26:04Z</time></trkpt><trkpt lat="44.89811309466167" lon="8.071164729882254"><ele>150.0</ele><time>2026-04-19T07:26:05Z</time></trkpt><trkpt lat="44.89810790997491" lon="8.07102188208669"><ele>150.0</ele><time>2026-04-19T07:26:06Z</time></trkpt><trkpt lat="44.89809149997228" lon="8.070865224082167"><ele>149.75</ele><time>2026-04-19T07:26:07Z</time></trkpt><trkpt lat="44.898067357482056" lon="8.070708027912795"><ele>149.5</ele><time>2026-04-19T07:26:08Z</time></trkpt><trkpt lat="44.89804039699104" lon="8.070544479492531"><ele>149.25</ele><time>2026-04-19T07:26:09Z</time></trkpt><trkpt lat="44.89800804961081" lon="8.070383843346725"><ele>149.0</ele><time>2026-04-19T07:26:10Z</time></trkpt><trkpt lat="44.897967682721344" lon="8.070216207129159"><ele>149.0</ele><time>2026-04-19T07:26:11Z</time></trkpt><trkpt lat="44.89792021098197" lon="8.070035439321524"><ele>149.0</ele><time>2026-04-19T07:26:12Z</time></trkpt><trkpt lat="44.89788336141035" lon="8.069865298090946"><ele>149.0</ele><time>2026-04-19T07:26:13Z</time></trkpt><trkpt lat="44.89785947303409" lon="8.06970474569751"><ele>149.0</ele><time>2026-04-19T07:26:14Z</time></trkpt><trkpt lat="44.897840351858186" lon="8.06955058901134"><ele>149.75</ele><time>2026-04-19T07:26:15Z</time></trkpt><trkpt lat="44.897825418395186" lon="8.069391262668145"><ele>150.5</ele><time>2026-04-19T07:26:16Z</time></trkpt><trkpt lat="44.89779527869823" lon="8.0692232428734"><ele>151.25</ele><time>2026-04-19T07:26:17Z</time></trkpt><trkpt lat="44.89774834954032" lon="8.069060986815336"><ele>152.0</ele><time>2026-04-19T07:26:18Z</time></trkpt><trkpt lat="44.89773043273721" lon="8.068894398095471"><ele>152.2</ele><time>2026-04-19T07:26:19Z</time></trkpt><trkpt lat="44.897683884764994" lon="8.068757181277302"><ele>152.39999999999998</ele><time>2026-04-19T07:26:20Z</time></trkpt><trkpt lat="44.89765132130249" lon="8.068632811941828"><ele>152.60000000000002</ele><time>2026-04-19T07:26:21Z</time></trkpt><trkpt lat="44.89763332809504" lon="8.068498420979852"><ele>152.8</ele><time>2026-04-19T07:26:22Z</time></trkpt><trkpt lat="44.8976090583376" lon="8.068378226523409"><ele>153.0</ele><time>2026-04-19T07:26:23Z</time></trkpt><trkpt lat="44.89758919342733" lon="8.068241664367546"><ele>154.0</ele><time>2026-04-19T07:26:25Z</time></trkpt><trkpt lat="44.89744937026694" lon="8.068241502842728"><ele>155.0</ele><time>2026-04-19T07:26:30Z</time></trkpt><trkpt lat="44.89747403196485" lon="8.068361413431456"><ele>156.0</ele><time>2026-04-19T07:26:32Z</time></trkpt><trkpt lat="44.89734975332163" lon="8.06827950141868"><ele>157.0</ele><time>2026-04-19T07:26:34Z</time></trkpt><trkpt lat="44.897177525456044" lon="8.068230943697142"><ele>157.4</ele><time>2026-04-19T07:26:36Z</time></trkpt><trkpt lat="44.89708763827555" lon="8.068256246169799"><ele>157.79999999999998</ele><time>2026-04-19T07:26:37Z</time></trkpt><trkpt lat="44.89698867508952" lon="8.06820274703167"><ele>158.2</ele><time>2026-04-19T07:26:38Z</time></trkpt><trkpt lat="44.89690303586701" lon="8.06817254452146"><ele>158.6</ele><time>2026-04-19T07:26:39Z</time></trkpt><trkpt lat="44.89685037519532" lon="8.068123320710816"><ele>159.0</ele><time>2026-04-19T07:26:40Z</time></trkpt><trkpt lat="44.896809671579" lon="8.067955462886575"><ele>159.0</ele><time>2026-04-19T07:26:42Z</time></trkpt><trkpt lat="44.89678255607121" lon="8.0678543735388"><ele>159.0</ele><time>2026-04-19T07:26:43Z</time></trkpt><trkpt lat="44.89677784277015" lon="8.067753385459758"><ele>159.0</ele><time>2026-04-19T07:26:44Z</time></trkpt><trkpt lat="44.896770794078854" lon="8.067634850842296"><ele>159.0</ele><time>2026-04-19T07:26:45Z</time></trkpt><trkpt lat="44.89678313329039" lon="8.067507368269368"><ele>159.0</ele><time>2026-04-19T07:26:46Z</time></trkpt><trkpt lat="44.89678021221773" lon="8.067389866618358"><ele>159.0</ele><time>2026-04-19T07:26:47Z</time></trkpt><trkpt lat="44.89678727040075" lon="8.067287719855273"><ele>159.5</ele><time>2026-04-19T07:26:48Z</time></trkpt><trkpt lat="44.89678961745748" lon="8.067169101161412"><ele>160.0</ele><time>2026-04-19T07:26:49Z</time></trkpt><trkpt lat="44.89678189077225" lon="8.067055796167907"><ele>160.5</ele><time>2026-04-19T07:26:50Z</time></trkpt><trkpt lat="44.896775200440345" lon="8.066940790794515"><ele>161.0</ele><time>2026-04-19T07:26:51Z</time></trkpt><trkpt lat="44.89675147964479" lon="8.066820395582312"><ele>161.5</ele><time>2026-04-19T07:26:52Z</time></trkpt><trkpt lat="44.89672043026559" lon="8.066705715133645"><ele>162.0</ele><time>2026-04-19T07:26:53Z</time></trkpt><trkpt lat="44.89668741142779" lon="8.066605174879758"><ele>164.66666666666666</ele><time>2026-04-19T07:26:54Z</time></trkpt><trkpt lat="44.896655117157266" lon="8.066483406400264"><ele>167.33333333333334</ele><time>2026-04-19T07:26:55Z</time></trkpt><trkpt lat="44.89661930881323" lon="8.066361888795685"><ele>170.0</ele><time>2026-04-19T07:26:56Z</time></trkpt><trkpt lat="44.89657231207725" lon="8.066289344139395"><ele>172.66666666666669</ele><time>2026-04-19T07:26:57Z</time></trkpt><trkpt lat="44.89645356011508" lon="8.066270780619957"><ele>175.33333333333334</ele><time>2026-04-19T07:26:59Z</time></trkpt><trkpt lat="44.89640828071678" lon="8.066352968548244"><ele>178.0</ele><time>2026-04-19T07:27:00Z</time></trkpt><trkpt lat="44.896404492781045" lon="8.066477410641678"><ele>178.0</ele><time>2026-04-19T07:27:01Z</time></trkpt><trkpt lat="44.896397996713766" lon="8.066605816820486"><ele>178.0</ele><time>2026-04-19T07:27:02Z</time></trkpt><trkpt lat="44.89637866447036" lon="8.066723582897676"><ele>178.0</ele><time>2026-04-19T07:27:03Z</time></trkpt><trkpt lat="44.89634758440378" lon="8.06682801003087"><ele>178.0</ele><time>2026-04-19T07:27:04Z</time></trkpt><trkpt lat="44.896336329184805" lon="8.066946442969392"><ele>178.0</ele><time>2026-04-19T07:27:05Z</time></trkpt><trkpt lat="44.89631537295529" lon="8.067045578752353"><ele>178.0</ele><time>2026-04-19T07:27:06Z</time></trkpt><trkpt lat="44.89625891253789" lon="8.067162312398303"><ele>179.8</ele><time>2026-04-19T07:27:07Z</time></trkpt><trkpt lat="44.89620123509248" lon="8.067271618693384"><ele>181.60000000000002</ele><time>2026-04-19T07:27:08Z</time></trkpt><trkpt lat="44.89613227999883" lon="8.067342458925339"><ele>183.39999999999998</ele><time>2026-04-19T07:27:09Z</time></trkpt><trkpt lat="44.89604940433527" lon="8.067398053097557"><ele>185.2</ele><time>2026-04-19T07:27:10Z</time></trkpt><trkpt lat="44.895957765704104" lon="8.067423127097838"><ele>187.0</ele><time>2026-04-19T07:27:11Z</time></trkpt><trkpt lat="44.895859937114004" lon="8.06744186644732"><ele>190.8</ele><time>2026-04-19T07:27:12Z</time></trkpt><trkpt lat="44.8957431958638" lon="8.067453362252724"><ele>194.6</ele><time>2026-04-19T07:27:13Z</time></trkpt><trkpt lat="44.8956434944025" lon="8.067474216982829"><ele>198.4</ele><time>2026-04-19T07:27:14Z</time></trkpt><trkpt lat="44.89555475495735" lon="8.067501568670508"><ele>202.20000000000002</ele><time>2026-04-19T07:27:15Z</time></trkpt><trkpt lat="44.895476431055215" lon="8.067541527393862"><ele>206.0</ele><time>2026-04-19T07:27:16Z</time></trkpt><trkpt lat="44.895408184729575" lon="8.067612442206189"><ele>206.00000000000003</ele><time>2026-04-19T07:27:17Z</time></trkpt><trkpt lat="44.89534055800648" lon="8.067701475624405"><ele>206.0</ele><time>2026-04-19T07:27:18Z</time></trkpt><trkpt lat="44.895281285401786" lon="8.067790271696142"><ele>206.0</ele><time>2026-04-19T07:27:19Z</time></trkpt><trkpt lat="44.895235781957886" lon="8.067863281827957"><ele>206.0</ele><time>2026-04-19T07:27:20Z</time></trkpt><trkpt lat="44.8951823364089" lon="8.06794236939939"><ele>206.00000000000003</ele><time>2026-04-19T07:27:21Z</time></trkpt><trkpt lat="44.895128164929964" lon="8.068038827516325"><ele>206.0</ele><time>2026-04-19T07:27:22Z</time></trkpt><trkpt lat="44.89508134043134" lon="8.068158627634284"><ele>207.33333333333334</ele><time>2026-04-19T07:27:23Z</time></trkpt><trkpt lat="44.895030416368485" lon="8.06828284339203"><ele>208.66666666666669</ele><time>2026-04-19T07:27:24Z</time></trkpt><trkpt lat="44.894964106305544" lon="8.068377884563388"><ele>210.0</ele><time>2026-04-19T07:27:25Z</time></trkpt><trkpt lat="44.894933549991094" lon="8.068499819898324"><ele>211.33333333333331</ele><time>2026-04-19T07:27:26Z</time></trkpt><trkpt lat="44.89489041246047" lon="8.068603936237983"><ele>212.66666666666666</ele><time>2026-04-19T07:27:27Z</time></trkpt><trkpt lat="44.89485763342295" lon="8.068682262839095"><ele>214.0</ele><time>2026-04-19T07:27:28Z</time></trkpt><trkpt lat="44.89478976949918" lon="8.068720385866326"><ele>214.0</ele><time>2026-04-19T07:27:29Z</time></trkpt><trkpt lat="44.89469938290347" lon="8.068780337973777"><ele>213.99999999999997</ele><time>2026-04-19T07:27:30Z</time></trkpt><trkpt lat="44.894581770621144" lon="8.068804663381977"><ele>213.99999999999997</ele><time>2026-04-19T07:27:31Z</time></trkpt><trkpt lat="44.894482384755214" lon="8.068850981096599"><ele>214.0</ele><time>2026-04-19T07:27:32Z</time></trkpt><trkpt lat="44.8943946636772" lon="8.068892227922689"><ele>214.0</ele><time>2026-04-19T07:27:33Z</time></trkpt><trkpt lat="44.89433411021128" lon="8.068933154129311"><ele>213.99999999999997</ele><time>2026-04-19T07:27:34Z</time></trkpt><trkpt lat="44.894242648295396" lon="8.068997990424581"><ele>214.0</ele><time>2026-04-19T07:27:36Z</time></trkpt><trkpt lat="44.89417974649101" lon="8.068945046246995"><ele>214.0</ele><time>2026-04-19T07:27:40Z</time></trkpt><trkpt lat="44.89414950169993" lon="8.068838161383582"><ele>214.0</ele><time>2026-04-19T07:27:42Z</time></trkpt><trkpt lat="44.894099227644794" lon="8.068754052204536"><ele>213.99999999999997</ele><time>2026-04-19T07:27:44Z</time></trkpt><trkpt lat="44.89403991485549" lon="8.068660198287235"><ele>214.0</ele><time>2026-04-19T07:27:46Z</time></trkpt><trkpt lat="44.89394635868879" lon="8.068532960639883"><ele>213.99999999999997</ele><time>2026-04-19T07:27:48Z</time></trkpt><trkpt lat="44.893884645018225" lon="8.06845069769721"><ele>214.0</ele><time>2026-04-19T07:27:49Z</time></trkpt><trkpt lat="44.89383966677224" lon="8.068366364913993"><ele>214.0</ele><time>2026-04-19T07:27:50Z</time></trkpt><trkpt lat="44.893846764868314" lon="8.068275320693685"><ele>214.0</ele><time>2026-04-19T07:28:03Z</time></trkpt><trkpt lat="44.89383982455126" lon="8.068170993308463"><ele>213.99999999999997</ele><time>2026-04-19T07:28:06Z</time></trkpt><trkpt lat="44.89382757670515" lon="8.068078538551177"><ele>214.0</ele><time>2026-04-19T07:28:07Z</time></trkpt><trkpt lat="44.89380100221302" lon="8.067954228129704"><ele>213.2</ele><time>2026-04-19T07:28:08Z</time></trkpt><trkpt lat="44.89377561703411" lon="8.06780357948079"><ele>212.39999999999998</ele><time>2026-04-19T07:28:09Z</time></trkpt><trkpt lat="44.89376538160599" lon="8.067618890780567"><ele>211.6</ele><time>2026-04-19T07:28:10Z</time></trkpt><trkpt lat="44.893728057881866" lon="8.067459203638371"><ele>210.8</ele><time>2026-04-19T07:28:11Z</time></trkpt><trkpt lat="44.89370486087982" lon="8.067363702536055"><ele>210.0</ele><time>2026-04-19T07:28:12Z</time></trkpt><trkpt lat="44.893661030381296" lon="8.067220950900433"><ele>210.0</ele><time>2026-04-19T07:28:14Z</time></trkpt><trkpt lat="44.893607957751925" lon="8.067130070828457"><ele>210.0</ele><time>2026-04-19T07:28:17Z</time></trkpt><trkpt lat="44.893593729590414" lon="8.067297120371757"><ele>210.0</ele><time>2026-04-19T07:28:20Z</time></trkpt><trkpt lat="44.893629805443666" lon="8.067418700852665"><ele>210.0</ele><time>2026-04-19T07:28:21Z</time></trkpt><trkpt lat="44.893659151421076" lon="8.06759321032415"><ele>210.0</ele><time>2026-04-19T07:28:22Z</time></trkpt><trkpt lat="44.89369474749305" lon="8.067786767806854"><ele>210.0</ele><time>2026-04-19T07:28:23Z</time></trkpt><trkpt lat="44.89372899969014" lon="8.06798385343907"><ele>210.0</ele><time>2026-04-19T07:28:24Z</time></trkpt><trkpt lat="44.8937532192695" lon="8.068162439428566"><ele>210.0</ele><time>2026-04-19T07:28:25Z</time></trkpt><trkpt lat="44.89377389273942" lon="8.068318285088575"><ele>210.0</ele><time>2026-04-19T07:28:26Z</time></trkpt><trkpt lat="44.89379477352023" lon="8.068447642334242"><ele>210.66666666666666</ele><time>2026-04-19T07:28:27Z</time></trkpt><trkpt lat="44.89382173712302" lon="8.068561149292092"><ele>211.33333333333331</ele><time>2026-04-19T07:28:28Z</time></trkpt><trkpt lat="44.89387019223542" lon="8.06865678806173"><ele>212.0</ele><time>2026-04-19T07:28:29Z</time></trkpt><trkpt lat="44.89393465885352" lon="8.068745762708406"><ele>212.66666666666666</ele><time>2026-04-19T07:28:30Z</time></trkpt><trkpt lat="44.89399864150597" lon="8.068842488879348"><ele>213.33333333333331</ele><time>2026-04-19T07:28:31Z</time></trkpt><trkpt lat="44.8940415898834" lon="8.068910374922705"><ele>214.0</ele><time>2026-04-19T07:28:32Z</time></trkpt><trkpt lat="44.89403210559843" lon="8.06906642738627"><ele>214.2</ele><time>2026-04-19T07:28:34Z</time></trkpt><trkpt lat="44.89397720684255" lon="8.069171523618836"><ele>214.39999999999998</ele><time>2026-04-19T07:28:35Z</time></trkpt><trkpt lat="44.89390603782081" lon="8.069271725892003"><ele>214.6</ele><time>2026-04-19T07:28:36Z</time></trkpt><trkpt lat="44.89381763324886" lon="8.069337864338081"><ele>214.8</ele><time>2026-04-19T07:28:37Z</time></trkpt><trkpt lat="44.89372154512393" lon="8.069400517337908"><ele>215.0</ele><time>2026-04-19T07:28:38Z</time></trkpt><trkpt lat="44.89362863407731" lon="8.069435606032863"><ele>215.0</ele><time>2026-04-19T07:28:39Z</time></trkpt><trkpt lat="44.89354887971307" lon="8.069458886244348"><ele>215.0</ele><time>2026-04-19T07:28:40Z</time></trkpt><trkpt lat="44.893483165041346" lon="8.069632940335373"><ele>215.0</ele><time>2026-04-19T07:28:42Z</time></trkpt><trkpt lat="44.89347060684152" lon="8.069793650496889"><ele>215.0</ele><time>2026-04-19T07:28:43Z</time></trkpt><trkpt lat="44.89345230298611" lon="8.069956548936975"><ele>214.66666666666669</ele><time>2026-04-19T07:28:44Z</time></trkpt><trkpt lat="44.89344184446895" lon="8.070096871278784"><ele>214.33333333333334</ele><time>2026-04-19T07:28:45Z</time></trkpt><trkpt lat="44.89343627140229" lon="8.070196039643355"><ele>214.0</ele><time>2026-04-19T07:28:46Z</time></trkpt><trkpt lat="44.89349537700106" lon="8.070287265955933"><ele>213.66666666666669</ele><time>2026-04-19T07:28:48Z</time></trkpt><trkpt lat="44.893572690490195" lon="8.07028079746316"><ele>213.33333333333334</ele><time>2026-04-19T07:28:49Z</time></trkpt><trkpt lat="44.89364934100318" lon="8.070230568104959"><ele>213.0</ele><time>2026-04-19T07:28:50Z</time></trkpt><trkpt lat="44.893702068727436" lon="8.070174552496375"><ele>213.0</ele><time>2026-04-19T07:28:51Z</time></trkpt><trkpt lat="44.89374737367167" lon="8.070278890861326"><ele>213.0</ele><time>2026-04-19T07:28:53Z</time></trkpt><trkpt lat="44.89369014852256" lon="8.07039547186008"><ele>213.0</ele><time>2026-04-19T07:28:54Z</time></trkpt><trkpt lat="44.8936247816428" lon="8.07051417075096"><ele>213.0</ele><time>2026-04-19T07:28:55Z</time></trkpt><trkpt lat="44.893551248760375" lon="8.070646699338912"><ele>213.0</ele><time>2026-04-19T07:28:56Z</time></trkpt><trkpt lat="44.89347340827859" lon="8.070757955447242"><ele>213.4</ele><time>2026-04-19T07:28:57Z</time></trkpt><trkpt lat="44.89342871575522" lon="8.070886538908882"><ele>213.8</ele><time>2026-04-19T07:28:58Z</time></trkpt><trkpt lat="44.89338130222459" lon="8.070956538583717"><ele>214.2</ele><time>2026-04-19T07:28:59Z</time></trkpt><trkpt lat="44.89328158402781" lon="8.070916953598097"><ele>214.6</ele><time>2026-04-19T07:29:02Z</time></trkpt><trkpt lat="44.89322402725478" lon="8.070831977018004"><ele>215.0</ele><time>2026-04-19T07:29:03Z</time></trkpt><trkpt lat="44.89316151255812" lon="8.07071816981402"><ele>211.2</ele><time>2026-04-19T07:29:04Z</time></trkpt><trkpt lat="44.89311787743021" lon="8.070601681356287"><ele>207.4</ele><time>2026-04-19T07:29:05Z</time></trkpt><trkpt lat="44.89306332133917" lon="8.070470733172083"><ele>203.60000000000002</ele><time>2026-04-19T07:29:07Z</time></trkpt><trkpt lat="44.89300959233446" lon="8.070345381843865"><ele>199.8</ele><time>2026-04-19T07:29:09Z</time></trkpt><trkpt lat="44.89293276964382" lon="8.070306965941416"><ele>196.0</ele><time>2026-04-19T07:29:10Z</time></trkpt><trkpt lat="44.89286858880641" lon="8.070282781116381"><ele>196.0</ele><time>2026-04-19T07:29:11Z</time></trkpt><trkpt lat="44.89283431878804" lon="8.070106917452835"><ele>196.0</ele><time>2026-04-19T07:29:13Z</time></trkpt><trkpt lat="44.8928536743607" lon="8.069972368362482"><ele>196.0</ele><time>2026-04-19T07:29:14Z</time></trkpt><trkpt lat="44.89288965571183" lon="8.069841438405735"><ele>196.0</ele><time>2026-04-19T07:29:15Z</time></trkpt><trkpt lat="44.89290706174836" lon="8.069711036531666"><ele>196.0</ele><time>2026-04-19T07:29:16Z</time></trkpt><trkpt lat="44.89292834291639" lon="8.06958056449616"><ele>195.66666666666666</ele><time>2026-04-19T07:29:17Z</time></trkpt><trkpt lat="44.892939757910575" lon="8.06945059052814"><ele>195.33333333333331</ele><time>2026-04-19T07:29:18Z</time></trkpt><trkpt lat="44.892861919182344" lon="8.069300527376065"><ele>195.0</ele><time>2026-04-19T07:29:20Z</time></trkpt><trkpt lat="44.892829034245764" lon="8.069199346168936"><ele>194.66666666666669</ele><time>2026-04-19T07:29:21Z</time></trkpt><trkpt lat="44.89283124948701" lon="8.069098761482257"><ele>194.33333333333334</ele><time>2026-04-19T07:29:22Z</time></trkpt><trkpt lat="44.892833381943426" lon="8.069002717963242"><ele>194.0</ele><time>2026-04-19T07:29:23Z</time></trkpt><trkpt lat="44.89281889421597" lon="8.068899444372448"><ele>194.83333333333334</ele><time>2026-04-19T07:29:24Z</time></trkpt><trkpt lat="44.892813197746186" lon="8.068793873586129"><ele>195.66666666666669</ele><time>2026-04-19T07:29:25Z</time></trkpt><trkpt lat="44.89279131457642" lon="8.068693177453715"><ele>196.5</ele><time>2026-04-19T07:29:26Z</time></trkpt><trkpt lat="44.892753892107194" lon="8.068611091453064"><ele>197.33333333333331</ele><time>2026-04-19T07:29:27Z</time></trkpt><trkpt lat="44.89269343619297" lon="8.06852625085925"><ele>198.16666666666666</ele><time>2026-04-19T07:29:28Z</time></trkpt><trkpt lat="44.89264003208757" lon="8.068414615119686"><ele>199.0</ele><time>2026-04-19T07:29:29Z</time></trkpt><trkpt lat="44.89259270360243" lon="8.068300127856972"><ele>199.66666666666666</ele><time>2026-04-19T07:29:30Z</time></trkpt><trkpt lat="44.892492432374944" lon="8.06827873632237"><ele>200.33333333333331</ele><time>2026-04-19T07:29:32Z</time></trkpt><trkpt lat="44.89254410595417" lon="8.068138894165"><ele>201.0</ele><time>2026-04-19T07:29:34Z</time></trkpt><trkpt lat="44.892604985452806" lon="8.068104976777478"><ele>201.66666666666669</ele><time>2026-04-19T07:29:35Z</time></trkpt><trkpt lat="44.89266747480111" lon="8.068071550750226"><ele>202.33333333333334</ele><time>2026-04-19T07:29:37Z</time></trkpt><trkpt lat="44.89266980506162" lon="8.067979036561596"><ele>203.0</ele><time>2026-04-19T07:29:38Z</time></trkpt><trkpt lat="44.892688235878694" lon="8.067850051047095"><ele>203.33333333333334</ele><time>2026-04-19T07:29:39Z</time></trkpt><trkpt lat="44.89266126902663" lon="8.067694515731809"><ele>203.66666666666669</ele><time>2026-04-19T07:29:41Z</time></trkpt><trkpt lat="44.89262987718101" lon="8.067611947546457"><ele>204.0</ele><time>2026-04-19T07:29:42Z</time></trkpt><trkpt lat="44.892607207776635" lon="8.067473802322983"><ele>204.33333333333331</ele><time>2026-04-19T07:29:43Z</time></trkpt><trkpt lat="44.892591882081554" lon="8.067365729345852"><ele>204.66666666666666</ele><time>2026-04-19T07:29:44Z</time></trkpt><trkpt lat="44.89258528865125" lon="8.067252593506884"><ele>205.0</ele><time>2026-04-19T07:29:45Z</time></trkpt><trkpt lat="44.892581597248565" lon="8.06711924982036"><ele>204.4</ele><time>2026-04-19T07:29:46Z</time></trkpt><trkpt lat="44.89255557465679" lon="8.066997274833275"><ele>203.8</ele><time>2026-04-19T07:29:47Z</time></trkpt><trkpt lat="44.892529416618316" lon="8.066890081258956"><ele>203.2</ele><time>2026-04-19T07:29:48Z</time></trkpt><trkpt lat="44.89247037231661" lon="8.06680691453268"><ele>202.6</ele><time>2026-04-19T07:29:50Z</time></trkpt><trkpt lat="44.89236790459371" lon="8.066695377401766"><ele>202.0</ele><time>2026-04-19T07:29:52Z</time></trkpt><trkpt lat="44.89231532473893" lon="8.066598240257242"><ele>201.99999999999997</ele><time>2026-04-19T07:29:53Z</time></trkpt><trkpt lat="44.89226992594288" lon="8.066519086065263"><ele>202.0</ele><time>2026-04-19T07:29:54Z</time></trkpt><trkpt lat="44.89224572555879" lon="8.06642869311152"><ele>202.0</ele><time>2026-04-19T07:29:55Z</time></trkpt><trkpt lat="44.89221129253826" lon="8.066263316615002"><ele>202.0</ele><time>2026-04-19T07:29:56Z</time></trkpt><trkpt lat="44.89219221398802" lon="8.066128833650167"><ele>201.99999999999997</ele><time>2026-04-19T07:29:57Z</time></trkpt><trkpt lat="44.89218573967367" lon="8.066017705792236"><ele>202.0</ele><time>2026-04-19T07:29:58Z</time></trkpt><trkpt lat="44.89269343619297" lon="8.06852625085925"><ele>202.2</ele><time>2026-04-19T07:29:28Z</time></trkpt><trkpt lat="44.89264003208757" lon="8.068414615119686"><ele>202.39999999999998</ele><time>2026-04-19T07:29:29Z</time></trkpt><trkpt lat="44.89259270360243" lon="8.068300127856972"><ele>202.60000000000002</ele><time>2026-04-19T07:29:30Z</time></trkpt><trkpt lat="44.892492432374944" lon="8.06827873632237"><ele>202.8</ele><time>2026-04-19T07:29:32Z</time></trkpt><trkpt lat="44.89254410595417" lon="8.068138894165"><ele>203.0</ele><time>2026-04-19T07:29:34Z</time></trkpt><trkpt lat="44.892604985452806" lon="8.068104976777478"><ele>203.33333333333334</ele><time>2026-04-19T07:29:35Z</time></trkpt><trkpt lat="44.89266747480111" lon="8.068071550750226"><ele>203.66666666666669</ele><time>2026-04-19T07:29:37Z</time></trkpt><trkpt lat="44.89266980506162" lon="8.067979036561596"><ele>204.0</ele><time>2026-04-19T07:29:38Z</time></trkpt><trkpt lat="44.892688235878694" lon="8.067850051047095"><ele>204.33333333333331</ele><time>2026-04-19T07:29:39Z</time></trkpt><trkpt lat="44.89266126902663" lon="8.067694515731809"><ele>204.66666666666666</ele><time>2026-04-19T07:29:41Z</time></trkpt><trkpt lat="44.89262987718101" lon="8.067611947546457"><ele>205.0</ele><time>2026-04-19T07:29:42Z</time></trkpt><trkpt lat="44.892607207776635" lon="8.067473802322983"><ele>204.16666666666666</ele><time>2026-04-19T07:29:43Z</time></trkpt><trkpt lat="44.892591882081554" lon="8.067365729345852"><ele>203.33333333333331</ele><time>2026-04-19T07:29:44Z</time></trkpt><trkpt lat="44.89258528865125" lon="8.067252593506884"><ele>202.5</ele><time>2026-04-19T07:29:45Z</time></trkpt><trkpt lat="44.892581597248565" lon="8.06711924982036"><ele>201.66666666666669</ele><time>2026-04-19T07:29:46Z</time></trkpt><trkpt lat="44.89255557465679" lon="8.066997274833275"><ele>200.83333333333334</ele><time>2026-04-19T07:29:47Z</time></trkpt><trkpt lat="44.892529416618316" lon="8.066890081258956"><ele>200.0</ele><time>2026-04-19T07:29:48Z</time></trkpt><trkpt lat="44.89247037231661" lon="8.06680691453268"><ele>200.0</ele><time>2026-04-19T07:29:50Z</time></trkpt><trkpt lat="44.89236790459371" lon="8.066695377401766"><ele>200.0</ele><time>2026-04-19T07:29:52Z</time></trkpt><trkpt lat="44.89231532473893" lon="8.066598240257242"><ele>200.0</ele><time>2026-04-19T07:29:53Z</time></trkpt><trkpt lat="44.89226992594288" lon="8.066519086065263"><ele>200.0</ele><time>2026-04-19T07:29:54Z</time></trkpt><trkpt lat="44.89224572555879" lon="8.06642869311152"><ele>200.0</ele><time>2026-04-19T07:29:55Z</time></trkpt><trkpt lat="44.89221129253826" lon="8.066263316615002"><ele>200.4</ele><time>2026-04-19T07:29:56Z</time></trkpt><trkpt lat="44.89219221398802" lon="8.066128833650167"><ele>200.8</ele><time>2026-04-19T07:29:57Z</time></trkpt><trkpt lat="44.89218573967367" lon="8.066017705792236"><ele>201.2</ele><time>2026-04-19T07:29:58Z</time></trkpt><trkpt lat="44.892178398095325" lon="8.065887848807694"><ele>201.6</ele><time>2026-04-19T07:29:59Z</time></trkpt><trkpt lat="44.89215332704936" lon="8.065782814750918"><ele>202.0</ele><time>2026-04-19T07:30:00Z</time></trkpt><trkpt lat="44.89206160435696" lon="8.06568197686742"><ele>203.6</ele><time>2026-04-19T07:30:02Z</time></trkpt><trkpt lat="44.89192274499785" lon="8.065716313026826"><ele>205.2</ele><time>2026-04-19T07:30:04Z</time></trkpt><trkpt lat="44.89186069074411" lon="8.065771989208327"><ele>206.8</ele><time>2026-04-19T07:30:05Z</time></trkpt><trkpt lat="44.89177236883399" lon="8.065723733465484"><ele>208.4</ele><time>2026-04-19T07:30:07Z</time></trkpt><trkpt lat="44.891776890467106" lon="8.065616445179021"><ele>210.0</ele><time>2026-04-19T07:30:08Z</time></trkpt><trkpt lat="44.891820286221716" lon="8.06549627176896"><ele>210.0</ele><time>2026-04-19T07:30:09Z</time></trkpt><trkpt lat="44.89187283014977" lon="8.06539378735435"><ele>210.0</ele><time>2026-04-19T07:30:10Z</time></trkpt><trkpt lat="44.89192834536593" lon="8.065293858975208"><ele>210.0</ele><time>2026-04-19T07:30:11Z</time></trkpt><trkpt lat="44.8919256487866" lon="8.065201828400562"><ele>210.0</ele><time>2026-04-19T07:30:12Z</time></trkpt><trkpt lat="44.891900977898516" lon="8.065100232322072"><ele>210.0</ele><time>2026-04-19T07:30:13Z</time></trkpt><trkpt lat="44.89187268182622" lon="8.06498186253219"><ele>210.0</ele><time>2026-04-19T07:30:14Z</time></trkpt><trkpt lat="44.891840913793985" lon="8.064862459283507"><ele>210.6</ele><time>2026-04-19T07:30:15Z</time></trkpt><trkpt lat="44.89182889171044" lon="8.064733158012617"><ele>211.2</ele><time>2026-04-19T07:30:16Z</time></trkpt><trkpt lat="44.891848822229775" lon="8.064592942211664"><ele>211.8</ele><time>2026-04-19T07:30:17Z</time></trkpt><trkpt lat="44.89187031272074" lon="8.064472331687863"><ele>212.4</ele><time>2026-04-19T07:30:18Z</time></trkpt><trkpt lat="44.89187268114447" lon="8.06435718815879"><ele>213.0</ele><time>2026-04-19T07:30:19Z</time></trkpt><trkpt lat="44.891855303168555" lon="8.064226020109716"><ele>212.60000000000002</ele><time>2026-04-19T07:30:20Z</time></trkpt><trkpt lat="44.89183992870293" lon="8.064075930041952"><ele>212.20000000000002</ele><time>2026-04-19T07:30:21Z</time></trkpt><trkpt lat="44.89183224137302" lon="8.063952298763514"><ele>211.8</ele><time>2026-04-19T07:30:22Z</time></trkpt><trkpt lat="44.891845431801535" lon="8.063829935001626"><ele>211.4</ele><time>2026-04-19T07:30:23Z</time></trkpt><trkpt lat="44.891860001417534" lon="8.063709771401106"><ele>211.0</ele><time>2026-04-19T07:30:24Z</time></trkpt><trkpt lat="44.891874686889594" lon="8.063596397942101"><ele>210.99999999999997</ele><time>2026-04-19T07:30:25Z</time></trkpt><trkpt lat="44.89185508069003" lon="8.063465247017986"><ele>211.0</ele><time>2026-04-19T07:30:26Z</time></trkpt><trkpt lat="44.89186297946676" lon="8.063363536780722"><ele>211.0</ele><time>2026-04-19T07:30:27Z</time></trkpt><trkpt lat="44.89185794486853" lon="8.06322364422088"><ele>211.0</ele><time>2026-04-19T07:30:28Z</time></trkpt><trkpt lat="44.89182149248624" lon="8.063113561520874"><ele>210.99999999999997</ele><time>2026-04-19T07:30:29Z</time></trkpt><trkpt lat="44.89176639901138" lon="8.063014038427168"><ele>211.0</ele><time>2026-04-19T07:30:30Z</time></trkpt><trkpt lat="44.891729285346706" lon="8.062908936953743"><ele>211.4</ele><time>2026-04-19T07:30:31Z</time></trkpt><trkpt lat="44.8917013689032" lon="8.062790771501133"><ele>211.8</ele><time>2026-04-19T07:30:32Z</time></trkpt><trkpt lat="44.89161200417301" lon="8.062662403871723"><ele>212.20000000000002</ele><time>2026-04-19T07:30:34Z</time></trkpt><trkpt lat="44.89158004869942" lon="8.062558421593899"><ele>212.60000000000002</ele><time>2026-04-19T07:30:35Z</time></trkpt><trkpt lat="44.89152506897618" lon="8.062472788832975"><ele>213.0</ele><time>2026-04-19T07:30:36Z</time></trkpt><trkpt lat="44.891456897640886" lon="8.062387286103478"><ele>213.0</ele><time>2026-04-19T07:30:37Z</time></trkpt><trkpt lat="44.89140911832397" lon="8.06230562772924"><ele>213.0</ele><time>2026-04-19T07:30:38Z</time></trkpt><trkpt lat="44.89138338173862" lon="8.062172114994429"><ele>213.0</ele><time>2026-04-19T07:30:39Z</time></trkpt><trkpt lat="44.891386162950624" lon="8.062079177669041"><ele>213.0</ele><time>2026-04-19T07:30:40Z</time></trkpt><trkpt lat="44.89136515807079" lon="8.061961171676229"><ele>213.0</ele><time>2026-04-19T07:30:41Z</time></trkpt><trkpt lat="44.89133545441669" lon="8.061840425993545"><ele>213.0</ele><time>2026-04-19T07:30:42Z</time></trkpt><trkpt lat="44.89130531684917" lon="8.06173351023445"><ele>213.0</ele><time>2026-04-19T07:30:43Z</time></trkpt><trkpt lat="44.891275852342076" lon="8.061635554724457"><ele>213.0</ele><time>2026-04-19T07:30:44Z</time></trkpt><trkpt lat="44.89124995449397" lon="8.061548917846268"><ele>213.0</ele><time>2026-04-19T07:30:45Z</time></trkpt><trkpt lat="44.891241789128635" lon="8.061376139102551"><ele>213.0</ele><time>2026-04-19T07:30:47Z</time></trkpt><trkpt lat="44.8912211625342" lon="8.061265120863718"><ele>213.0</ele><time>2026-04-19T07:30:48Z</time></trkpt><trkpt lat="44.891178280633056" lon="8.061134351119563"><ele>213.0</ele><time>2026-04-19T07:30:49Z</time></trkpt><trkpt lat="44.891141776083366" lon="8.061046482671257"><ele>213.0</ele><time>2026-04-19T07:30:50Z</time></trkpt><trkpt lat="44.891077056782166" lon="8.060970796761747"><ele>213.0</ele><time>2026-04-19T07:30:51Z</time></trkpt><trkpt lat="44.89103381485381" lon="8.060886178448538"><ele>213.0</ele><time>2026-04-19T07:30:52Z</time></trkpt><trkpt lat="44.89102461230332" lon="8.06077289545907"><ele>213.0</ele><time>2026-04-19T07:30:53Z</time></trkpt><trkpt lat="44.89099255513287" lon="8.060652920663133"><ele>213.0</ele><time>2026-04-19T07:30:54Z</time></trkpt><trkpt lat="44.89095241969702" lon="8.060564167935018"><ele>213.0</ele><time>2026-04-19T07:30:55Z</time></trkpt><trkpt lat="44.890895803267576" lon="8.060480879976284"><ele>213.0</ele><time>2026-04-19T07:30:56Z</time></trkpt><trkpt lat="44.89082015527288" lon="8.060373405499186"><ele>213.0</ele><time>2026-04-19T07:30:57Z</time></trkpt><trkpt lat="44.89076716355333" lon="8.060286651464837"><ele>213.0</ele><time>2026-04-19T07:30:58Z</time></trkpt><trkpt lat="44.89070551054729" lon="8.060239677287337"><ele>213.0</ele><time>2026-04-19T07:30:59Z</time></trkpt><trkpt lat="44.890673156683256" lon="8.060162939043481"><ele>213.0</ele><time>2026-04-19T07:31:00Z</time></trkpt><trkpt lat="44.89062677258794" lon="8.060092462898366"><ele>213.0</ele><time>2026-04-19T07:31:01Z</time></trkpt><trkpt lat="44.89058387257747" lon="8.060017875895467"><ele>214.5</ele><time>2026-04-19T07:31:02Z</time></trkpt><trkpt lat="44.890562759596826" lon="8.059919477132988"><ele>216.0</ele><time>2026-04-19T07:31:03Z</time></trkpt><trkpt lat="44.89056112647566" lon="8.059820750040766"><ele>217.5</ele><time>2026-04-19T07:31:04Z</time></trkpt><trkpt lat="44.89055070783091" lon="8.059731556246792"><ele>219.0</ele><time>2026-04-19T07:31:05Z</time></trkpt><trkpt lat="44.89053169280359" lon="8.059639243352407"><ele>220.5</ele><time>2026-04-19T07:31:06Z</time></trkpt><trkpt lat="44.89048111846683" lon="8.059532898425973"><ele>222.0</ele><time>2026-04-19T07:31:07Z</time></trkpt><trkpt lat="44.89041471816356" lon="8.05942100158671"><ele>222.0</ele><time>2026-04-19T07:31:08Z</time></trkpt><trkpt lat="44.89036820812661" lon="8.059299295661793"><ele>222.0</ele><time>2026-04-19T07:31:09Z</time></trkpt><trkpt lat="44.89032916322592" lon="8.059183609744132"><ele>222.0</ele><time>2026-04-19T07:31:10Z</time></trkpt><trkpt lat="44.890274092293915" lon="8.059086727777563"><ele>222.0</ele><time>2026-04-19T07:31:11Z</time></trkpt><trkpt lat="44.8902382068129" lon="8.058988236349336"><ele>222.0</ele><time>2026-04-19T07:31:12Z</time></trkpt><trkpt lat="44.890191563444844" lon="8.058875986189369"><ele>222.0</ele><time>2026-04-19T07:31:13Z</time></trkpt><trkpt lat="44.89012644459295" lon="8.058770636327134"><ele>222.33333333333334</ele><time>2026-04-19T07:31:14Z</time></trkpt><trkpt lat="44.89006943188754" lon="8.058677265624741"><ele>222.66666666666669</ele><time>2026-04-19T07:31:15Z</time></trkpt><trkpt lat="44.8900055095467" lon="8.058596989117069"><ele>223.0</ele><time>2026-04-19T07:31:16Z</time></trkpt><trkpt lat="44.889957265872646" lon="8.058504734490933"><ele>223.33333333333334</ele><time>2026-04-19T07:31:17Z</time></trkpt><trkpt lat="44.88990426946959" lon="8.058412737147634"><ele>223.66666666666669</ele><time>2026-04-19T07:31:18Z</time></trkpt><trkpt lat="44.8898409103073" lon="8.058303823587012"><ele>224.0</ele><time>2026-04-19T07:31:19Z</time></trkpt><trkpt lat="44.88978091647742" lon="8.058201838706385"><ele>224.00000000000003</ele><time>2026-04-19T07:31:20Z</time></trkpt><trkpt lat="44.88971504318401" lon="8.058112004916085"><ele>224.0</ele><time>2026-04-19T07:31:21Z</time></trkpt><trkpt lat="44.88966463965695" lon="8.058052449736332"><ele>224.0</ele><time>2026-04-19T07:31:22Z</time></trkpt><trkpt lat="44.88958307686555" lon="8.058083944091617"><ele>224.0</ele><time>2026-04-19T07:31:24Z</time></trkpt><trkpt lat="44.88950446249755" lon="8.058051122198885"><ele>224.00000000000003</ele><time>2026-04-19T07:31:26Z</time></trkpt><trkpt lat="44.88947914392623" lon="8.057899313367468"><ele>224.0</ele><time>2026-04-19T07:31:28Z</time></trkpt><trkpt lat="44.88947823949609" lon="8.057792456214784"><ele>224.0</ele><time>2026-04-19T07:31:29Z</time></trkpt><trkpt lat="44.889413247469754" lon="8.057629491269658"><ele>223.99999999999997</ele><time>2026-04-19T07:31:31Z</time></trkpt><trkpt lat="44.88935848781606" lon="8.057539930423555"><ele>223.99999999999997</ele><time>2026-04-19T07:31:32Z</time></trkpt><trkpt lat="44.88929643084025" lon="8.057446979673028"><ele>224.0</ele><time>2026-04-19T07:31:33Z</time></trkpt><trkpt lat="44.889238684652" lon="8.057368177494983"><ele>224.0</ele><time>2026-04-19T07:31:34Z</time></trkpt><trkpt lat="44.88917794153296" lon="8.057297609873688"><ele>224.16666666666669</ele><time>2026-04-19T07:31:35Z</time></trkpt><trkpt lat="44.88911148719018" lon="8.05723063542869"><ele>224.33333333333334</ele><time>2026-04-19T07:31:36Z</time></trkpt><trkpt lat="44.88903973563836" lon="8.057166467421554"><ele>224.5</ele><time>2026-04-19T07:31:37Z</time></trkpt><trkpt lat="44.88896438358572" lon="8.057093892848687"><ele>224.66666666666669</ele><time>2026-04-19T07:31:38Z</time></trkpt><trkpt lat="44.88889499767984" lon="8.057030168452574"><ele>224.83333333333334</ele><time>2026-04-19T07:31:39Z</time></trkpt><trkpt lat="44.888823007375684" lon="8.056977468424794"><ele>225.0</ele><time>2026-04-19T07:31:40Z</time></trkpt><trkpt lat="44.888752774674025" lon="8.05690739841347"><ele>225.0</ele><time>2026-04-19T07:31:41Z</time></trkpt><trkpt lat="44.888671438979735" lon="8.056829690043365"><ele>225.0</ele><time>2026-04-19T07:31:42Z</time></trkpt><trkpt lat="44.88860394658858" lon="8.056762225458368"><ele>225.0</ele><time>2026-04-19T07:31:43Z</time></trkpt><trkpt lat="44.88854010511002" lon="8.056673110004942"><ele>225.0</ele><time>2026-04-19T07:31:44Z</time></trkpt><trkpt lat="44.88846354403609" lon="8.056617699595053"><ele>225.0</ele><time>2026-04-19T07:31:45Z</time></trkpt><trkpt lat="44.88841057096951" lon="8.05652390719935"><ele>225.0</ele><time>2026-04-19T07:31:46Z</time></trkpt><trkpt lat="44.88838604933864" lon="8.056423404343695"><ele>224.83333333333334</ele><time>2026-04-19T07:31:47Z</time></trkpt><trkpt lat="44.88832008011707" lon="8.056294243322952"><ele>224.66666666666669</ele><time>2026-04-19T07:31:49Z</time></trkpt><trkpt lat="44.888232070975306" lon="8.056232282216765"><ele>224.5</ele><time>2026-04-19T07:31:51Z</time></trkpt><trkpt lat="44.88816661108809" lon="8.056264304854832"><ele>224.33333333333334</ele><time>2026-04-19T07:31:52Z</time></trkpt><trkpt lat="44.888098975848244" lon="8.056285798570118"><ele>224.16666666666669</ele><time>2026-04-19T07:31:53Z</time></trkpt><trkpt lat="44.88804178941771" lon="8.056239467490725"><ele>224.0</ele><time>2026-04-19T07:31:54Z</time></trkpt><trkpt lat="44.88797483780605" lon="8.05616902133827"><ele>224.00000000000003</ele><time>2026-04-19T07:31:55Z</time></trkpt><trkpt lat="44.88792825386196" lon="8.056081102549992"><ele>224.0</ele><time>2026-04-19T07:31:56Z</time></trkpt><trkpt lat="44.887906394804766" lon="8.055950077082905"><ele>224.0</ele><time>2026-04-19T07:31:57Z</time></trkpt><trkpt lat="44.88786286163957" lon="8.055845949831546"><ele>224.0</ele><time>2026-04-19T07:31:58Z</time></trkpt><trkpt lat="44.88783659217958" lon="8.055750946411925"><ele>224.00000000000003</ele><time>2026-04-19T07:31:59Z</time></trkpt><trkpt lat="44.887804275814176" lon="8.055650552226831"><ele>224.0</ele><time>2026-04-19T07:32:00Z</time></trkpt><trkpt lat="44.88774673345714" lon="8.055540120209217"><ele>224.00000000000003</ele><time>2026-04-19T07:32:01Z</time></trkpt><trkpt lat="44.887684532745205" lon="8.055421370190203"><ele>224.0</ele><time>2026-04-19T07:32:02Z</time></trkpt><trkpt lat="44.887634491641364" lon="8.055319680882638"><ele>224.0</ele><time>2026-04-19T07:32:03Z</time></trkpt><trkpt lat="44.88757975391898" lon="8.05522886297527"><ele>224.0</ele><time>2026-04-19T07:32:04Z</time></trkpt><trkpt lat="44.8875213565755" lon="8.055152546111607"><ele>224.00000000000003</ele><time>2026-04-19T07:32:05Z</time></trkpt><trkpt lat="44.88745316486548" lon="8.05509190180713"><ele>224.0</ele><time>2026-04-19T07:32:06Z</time></trkpt><trkpt lat="44.88737294916545" lon="8.055014124900168"><ele>227.2</ele><time>2026-04-19T07:32:07Z</time></trkpt><trkpt lat="44.88728978502841" lon="8.054931522696599"><ele>230.39999999999998</ele><time>2026-04-19T07:32:08Z</time></trkpt><trkpt lat="44.88720387358934" lon="8.05483863619526"><ele>233.6</ele><time>2026-04-19T07:32:09Z</time></trkpt><trkpt lat="44.88713911566288" lon="8.05470775115353"><ele>236.8</ele><time>2026-04-19T07:32:10Z</time></trkpt><trkpt lat="44.887060793692555" lon="8.054603609372842"><ele>240.0</ele><time>2026-04-19T07:32:11Z</time></trkpt><trkpt lat="44.88700529724707" lon="8.054488010794605"><ele>240.0</ele><time>2026-04-19T07:32:12Z</time></trkpt><trkpt lat="44.88690911001252" lon="8.05445184764093"><ele>240.0</ele><time>2026-04-19T07:32:13Z</time></trkpt><trkpt lat="44.886856980342834" lon="8.054400838421685"><ele>240.0</ele><time>2026-04-19T07:32:14Z</time></trkpt><trkpt lat="44.88676660548362" lon="8.05434403584316"><ele>240.0</ele><time>2026-04-19T07:32:16Z</time></trkpt><trkpt lat="44.886719938338565" lon="8.054202664932543"><ele>240.0</ele><time>2026-04-19T07:32:18Z</time></trkpt><trkpt lat="44.88669612891217" lon="8.05410643424529"><ele>240.0</ele><time>2026-04-19T07:32:19Z</time></trkpt><trkpt lat="44.886670152752394" lon="8.054004222236"><ele>240.0</ele><time>2026-04-19T07:32:20Z</time></trkpt><trkpt lat="44.886635050227746" lon="8.053921443062876"><ele>240.0</ele><time>2026-04-19T07:32:21Z</time></trkpt><trkpt lat="44.886612106404876" lon="8.053823680436201"><ele>240.0</ele><time>2026-04-19T07:32:22Z</time></trkpt><trkpt lat="44.886602979599246" lon="8.053728053206704"><ele>240.0</ele><time>2026-04-19T07:32:23Z</time></trkpt><trkpt lat="44.88660438151726" lon="8.053630465904494"><ele>240.0</ele><time>2026-04-19T07:32:24Z</time></trkpt><trkpt lat="44.88658247211159" lon="8.053542515097616"><ele>240.0</ele><time>2026-04-19T07:32:25Z</time></trkpt><trkpt lat="44.88646489283265" lon="8.053430898387813"><ele>240.0</ele><time>2026-04-19T07:32:27Z</time></trkpt><trkpt lat="44.886402801865295" lon="8.0533603832906"><ele>240.0</ele><time>2026-04-19T07:32:28Z</time></trkpt><trkpt lat="44.88636658344812" lon="8.053282605370386"><ele>240.0</ele><time>2026-04-19T07:32:29Z</time></trkpt><trkpt lat="44.8863335023188" lon="8.053123629221897"><ele>240.0</ele><time>2026-04-19T07:32:31Z</time></trkpt><trkpt lat="44.886433174563955" lon="8.053234421662761"><ele>240.0</ele><time>2026-04-19T07:32:40Z</time></trkpt><trkpt lat="44.88650944107193" lon="8.05330206369767"><ele>240.25</ele><time>2026-04-19T07:32:42Z</time></trkpt><trkpt lat="44.88665003500485" lon="8.053190417024558"><ele>240.5</ele><time>2026-04-19T07:32:45Z</time></trkpt><trkpt lat="44.88674168893387" lon="8.053073339137788"><ele>240.75</ele><time>2026-04-19T07:32:47Z</time></trkpt><trkpt lat="44.88681881898978" lon="8.052967361900487"><ele>241.0</ele><time>2026-04-19T07:32:49Z</time></trkpt><trkpt lat="44.88687843723668" lon="8.05282080314828"><ele>240.99999999999997</ele><time>2026-04-19T07:32:51Z</time></trkpt><trkpt lat="44.88691606766912" lon="8.052740440628755"><ele>241.0</ele><time>2026-04-19T07:32:52Z</time></trkpt><trkpt lat="44.88696214444063" lon="8.052647988433716"><ele>241.0</ele><time>2026-04-19T07:32:53Z</time></trkpt><trkpt lat="44.88700499403909" lon="8.052566050209808"><ele>241.0</ele><time>2026-04-19T07:32:54Z</time></trkpt><trkpt lat="44.88703097276073" lon="8.052471158462572"><ele>240.99999999999997</ele><time>2026-04-19T07:32:55Z</time></trkpt><trkpt lat="44.887059594552284" lon="8.052369784246643"><ele>241.0</ele><time>2026-04-19T07:32:56Z</time></trkpt><trkpt lat="44.88710550959319" lon="8.052260395863657"><ele>239.33333333333331</ele><time>2026-04-19T07:32:57Z</time></trkpt><trkpt lat="44.88715568546355" lon="8.052157621913961"><ele>237.66666666666666</ele><time>2026-04-19T07:32:58Z</time></trkpt><trkpt lat="44.88720073481111" lon="8.052049209772589"><ele>236.0</ele><time>2026-04-19T07:32:59Z</time></trkpt><trkpt lat="44.887246365975976" lon="8.051984852087452"><ele>234.33333333333331</ele><time>2026-04-19T07:33:00Z</time></trkpt><trkpt lat="44.88728565958164" lon="8.051880169871229"><ele>232.66666666666666</ele><time>2026-04-19T07:33:01Z</time></trkpt><trkpt lat="44.88727446404229" lon="8.051745635534722"><ele>231.0</ele><time>2026-04-19T07:33:02Z</time></trkpt><trkpt lat="44.88729471074542" lon="8.051629716349272"><ele>229.0</ele><time>2026-04-19T07:33:03Z</time></trkpt><trkpt lat="44.88728424318897" lon="8.051497286664883"><ele>227.0</ele><time>2026-04-19T07:33:04Z</time></trkpt><trkpt lat="44.88729708256025" lon="8.051367240893939"><ele>225.0</ele><time>2026-04-19T07:33:05Z</time></trkpt><trkpt lat="44.88729524718336" lon="8.051259160147872"><ele>223.0</ele><time>2026-04-19T07:33:06Z</time></trkpt><trkpt lat="44.88730441966669" lon="8.051168495927996"><ele>221.0</ele><time>2026-04-19T07:33:07Z</time></trkpt><trkpt lat="44.887336742660636" lon="8.051082587825517"><ele>219.0</ele><time>2026-04-19T07:33:08Z</time></trkpt><trkpt lat="44.887393337086" lon="8.050983333542984"><ele>219.0</ele><time>2026-04-19T07:33:09Z</time></trkpt><trkpt lat="44.887437677802374" lon="8.050858199564486"><ele>219.0</ele><time>2026-04-19T07:33:10Z</time></trkpt><trkpt lat="44.88747719486794" lon="8.050745905882746"><ele>219.0</ele><time>2026-04-19T07:33:11Z</time></trkpt><trkpt lat="44.88750861550575" lon="8.05065288263627"><ele>219.0</ele><time>2026-04-19T07:33:12Z</time></trkpt><trkpt lat="44.88752967970462" lon="8.050561758899656"><ele>219.0</ele><time>2026-04-19T07:33:13Z</time></trkpt><trkpt lat="44.887571906405235" lon="8.050479714104974"><ele>219.0</ele><time>2026-04-19T07:33:14Z</time></trkpt><trkpt lat="44.88762891794361" lon="8.050390954966781"><ele>220.16666666666666</ele><time>2026-04-19T07:33:15Z</time></trkpt><trkpt lat="44.88768715262285" lon="8.050292599979608"><ele>221.33333333333331</ele><time>2026-04-19T07:33:16Z</time></trkpt><trkpt lat="44.887753273500905" lon="8.050207279387429"><ele>222.5</ele><time>2026-04-19T07:33:17Z</time></trkpt><trkpt lat="44.887807294361146" lon="8.050105715183816"><ele>223.66666666666666</ele><time>2026-04-19T07:33:18Z</time></trkpt><trkpt lat="44.88785762538436" lon="8.050009662364813"><ele>224.83333333333331</ele><time>2026-04-19T07:33:19Z</time></trkpt><trkpt lat="44.887909635735646" lon="8.049931268610202"><ele>226.0</ele><time>2026-04-19T07:33:20Z</time></trkpt><trkpt lat="44.88797070997951" lon="8.049857558446254"><ele>223.66666666666666</ele><time>2026-04-19T07:33:21Z</time></trkpt><trkpt lat="44.88802009649612" lon="8.049746086728875"><ele>221.33333333333331</ele><time>2026-04-19T07:33:22Z</time></trkpt><trkpt lat="44.88806223824168" lon="8.049622782158512"><ele>219.0</ele><time>2026-04-19T07:33:23Z</time></trkpt><trkpt lat="44.88808964144942" lon="8.049507205388412"><ele>216.66666666666669</ele><time>2026-04-19T07:33:24Z</time></trkpt><trkpt lat="44.888108806946626" lon="8.049396487242134"><ele>214.33333333333334</ele><time>2026-04-19T07:33:25Z</time></trkpt><trkpt lat="44.88812973187495" lon="8.049286307550913"><ele>212.0</ele><time>2026-04-19T07:33:26Z</time></trkpt><trkpt lat="44.888152408912624" lon="8.049162989283335"><ele>210.50000000000003</ele><time>2026-04-19T07:33:27Z</time></trkpt><trkpt lat="44.888168970551824" lon="8.049059873616072"><ele>209.0</ele><time>2026-04-19T07:33:28Z</time></trkpt><trkpt lat="44.88819722763883" lon="8.048957957410405"><ele>207.5</ele><time>2026-04-19T07:33:29Z</time></trkpt><trkpt lat="44.888218061382005" lon="8.048858859409389"><ele>206.0</ele><time>2026-04-19T07:33:30Z</time></trkpt><trkpt lat="44.88821461583839" lon="8.048752621906551"><ele>204.50000000000003</ele><time>2026-04-19T07:33:31Z</time></trkpt><trkpt lat="44.88826546622608" lon="8.048587831615784"><ele>203.0</ele><time>2026-04-19T07:33:33Z</time></trkpt><trkpt lat="44.8883024471834" lon="8.04851364462252"><ele>203.00000000000003</ele><time>2026-04-19T07:33:34Z</time></trkpt><trkpt lat="44.88832890732524" lon="8.048421604035738"><ele>203.0</ele><time>2026-04-19T07:33:35Z</time></trkpt><trkpt lat="44.88837971607387" lon="8.048342077396844"><ele>203.0</ele><time>2026-04-19T07:33:36Z</time></trkpt><trkpt lat="44.888409911002" lon="8.048221821062052"><ele>203.0</ele><time>2026-04-19T07:33:37Z</time></trkpt><trkpt lat="44.88846930520149" lon="8.04812516270171"><ele>203.00000000000003</ele><time>2026-04-19T07:33:38Z</time></trkpt><trkpt lat="44.888541991117165" lon="8.04805611896118"><ele>203.0</ele><time>2026-04-19T07:33:39Z</time></trkpt><trkpt lat="44.88860124885006" lon="8.04799123370504"><ele>202.00000000000003</ele><time>2026-04-19T07:33:40Z</time></trkpt><trkpt lat="44.888649943871236" lon="8.047900332447176"><ele>201.0</ele><time>2026-04-19T07:33:41Z</time></trkpt><trkpt lat="44.888692405448545" lon="8.047795140770402"><ele>200.0</ele><time>2026-04-19T07:33:42Z</time></trkpt><trkpt lat="44.888752811025356" lon="8.047664557927167"><ele>199.0</ele><time>2026-04-19T07:33:44Z</time></trkpt><trkpt lat="44.888777593281716" lon="8.047579352428668"><ele>198.00000000000003</ele><time>2026-04-19T07:33:47Z</time></trkpt><trkpt lat="44.888761442738485" lon="8.047463423230154"><ele>197.0</ele><time>2026-04-19T07:33:50Z</time></trkpt><trkpt lat="44.88867768058141" lon="8.047353135621869"><ele>197.00000000000003</ele><time>2026-04-19T07:33:52Z</time></trkpt><trkpt lat="44.88861464273336" lon="8.047298950671014"><ele>197.0</ele><time>2026-04-19T07:33:53Z</time></trkpt><trkpt lat="44.88854340399382" lon="8.04726862932993"><ele>197.0</ele><time>2026-04-19T07:33:54Z</time></trkpt><trkpt lat="44.88845767698625" lon="8.047130939540436"><ele>197.0</ele><time>2026-04-19T07:33:56Z</time></trkpt><trkpt lat="44.8884216341182" lon="8.047014490301654"><ele>197.00000000000003</ele><time>2026-04-19T07:33:57Z</time></trkpt><trkpt lat="44.888381060913204" lon="8.046930063185204"><ele>197.0</ele><time>2026-04-19T07:33:58Z</time></trkpt><trkpt lat="44.8883471096212" lon="8.046835449849665"><ele>197.39999999999998</ele><time>2026-04-19T07:33:59Z</time></trkpt><trkpt lat="44.88832881731609" lon="8.0467210344931"><ele>197.79999999999998</ele><time>2026-04-19T07:34:00Z</time></trkpt><trkpt lat="44.88830370583513" lon="8.046608685983575"><ele>198.2</ele><time>2026-04-19T07:34:01Z</time></trkpt><trkpt lat="44.888248138943744" lon="8.046458678639855"><ele>198.6</ele><time>2026-04-19T07:34:03Z</time></trkpt><trkpt lat="44.88813746393276" lon="8.046358957670773"><ele>199.0</ele><time>2026-04-19T07:34:05Z</time></trkpt><trkpt lat="44.888071817056236" lon="8.046289461482571"><ele>201.49999999999997</ele><time>2026-04-19T07:34:06Z</time></trkpt><trkpt lat="44.88802058452495" lon="8.046200176230057"><ele>204.0</ele><time>2026-04-19T07:34:07Z</time></trkpt><trkpt lat="44.88796044084436" lon="8.046139605107694"><ele>206.5</ele><time>2026-04-19T07:34:08Z</time></trkpt><trkpt lat="44.887900024126054" lon="8.04607412057478"><ele>209.0</ele><time>2026-04-19T07:34:09Z</time></trkpt><trkpt lat="44.88778244040829" lon="8.045993314393824"><ele>211.49999999999997</ele><time>2026-04-19T07:34:11Z</time></trkpt><trkpt lat="44.88770302388246" lon="8.045956657737102"><ele>214.0</ele><time>2026-04-19T07:34:12Z</time></trkpt><trkpt lat="44.88761425990428" lon="8.045943782175772"><ele>215.33333333333331</ele><time>2026-04-19T07:34:13Z</time></trkpt><trkpt lat="44.88751838618038" lon="8.045916367722986"><ele>216.66666666666666</ele><time>2026-04-19T07:34:14Z</time></trkpt><trkpt lat="44.88744561042988" lon="8.045868970260798"><ele>218.0</ele><time>2026-04-19T07:34:15Z</time></trkpt><trkpt lat="44.887372595157224" lon="8.045823009311356"><ele>219.33333333333331</ele><time>2026-04-19T07:34:16Z</time></trkpt><trkpt lat="44.88730489371622" lon="8.045762807722888"><ele>220.66666666666666</ele><time>2026-04-19T07:34:17Z</time></trkpt><trkpt lat="44.88723549529694" lon="8.045693591345804"><ele>222.0</ele><time>2026-04-19T07:34:18Z</time></trkpt><trkpt lat="44.88717267832356" lon="8.045611345274729"><ele>222.0</ele><time>2026-04-19T07:34:19Z</time></trkpt><trkpt lat="44.887060259244144" lon="8.045456945778446"><ele>222.0</ele><time>2026-04-19T07:34:21Z</time></trkpt><trkpt lat="44.88699292236756" lon="8.045378448595061"><ele>222.0</ele><time>2026-04-19T07:34:22Z</time></trkpt><trkpt lat="44.88693383077182" lon="8.04530250834942"><ele>222.0</ele><time>2026-04-19T07:34:23Z</time></trkpt><trkpt lat="44.88688414895885" lon="8.04522485769176"><ele>222.0</ele><time>2026-04-19T07:34:24Z</time></trkpt><trkpt lat="44.88683867817693" lon="8.045151570862068"><ele>222.0</ele><time>2026-04-19T07:34:25Z</time></trkpt><trkpt lat="44.88680029880464" lon="8.045075819242502"><ele>222.0</ele><time>2026-04-19T07:34:26Z</time></trkpt><trkpt lat="44.886699743247746" lon="8.045013027957701"><ele>222.0</ele><time>2026-04-19T07:34:28Z</time></trkpt><trkpt lat="44.886632538148" lon="8.044982200159621"><ele>222.0</ele><time>2026-04-19T07:34:29Z</time></trkpt><trkpt lat="44.88656302620447" lon="8.044882109522424"><ele>222.0</ele><time>2026-04-19T07:34:31Z</time></trkpt><trkpt lat="44.88653205239927" lon="8.044718312014753"><ele>220.66666666666666</ele><time>2026-04-19T07:34:33Z</time></trkpt><trkpt lat="44.88650373062536" lon="8.044615786466682"><ele>219.33333333333331</ele><time>2026-04-19T07:34:34Z</time></trkpt><trkpt lat="44.88647350663504" lon="8.044529942236009"><ele>218.0</ele><time>2026-04-19T07:34:35Z</time></trkpt><trkpt lat="44.886373995366085" lon="8.044429295219231"><ele>216.66666666666666</ele><time>2026-04-19T07:34:37Z</time></trkpt><trkpt lat="44.88629882992444" lon="8.044378643834783"><ele>215.33333333333331</ele><time>2026-04-19T07:34:38Z</time></trkpt><trkpt lat="44.886221423986434" lon="8.044341222429965"><ele>214.0</ele><time>2026-04-19T07:34:39Z</time></trkpt><trkpt lat="44.88613097232592" lon="8.04430663044029"><ele>214.0</ele><time>2026-04-19T07:34:40Z</time></trkpt><trkpt lat="44.88604818450151" lon="8.044284940465984"><ele>213.99999999999997</ele><time>2026-04-19T07:34:41Z</time></trkpt><trkpt lat="44.885974956007125" lon="8.044254445699428"><ele>213.99999999999997</ele><time>2026-04-19T07:34:42Z</time></trkpt><trkpt lat="44.885904924095506" lon="8.044221645462393"><ele>214.0</ele><time>2026-04-19T07:34:43Z</time></trkpt><trkpt lat="44.885826214271354" lon="8.04420609741598"><ele>214.0</ele><time>2026-04-19T07:34:44Z</time></trkpt><trkpt lat="44.88570405838539" lon="8.044096341932157"><ele>214.00000000000003</ele><time>2026-04-19T07:34:46Z</time></trkpt><trkpt lat="44.885649372142396" lon="8.0440314354905"><ele>214.0</ele><time>2026-04-19T07:34:47Z</time></trkpt><trkpt lat="44.88559576671311" lon="8.043984780892826"><ele>214.0</ele><time>2026-04-19T07:34:49Z</time></trkpt><trkpt lat="44.88556006778649" lon="8.044058542909491"><ele>214.0</ele><time>2026-04-19T07:34:51Z</time></trkpt><trkpt lat="44.88552472677808" lon="8.044141687829963"><ele>214.0</ele><time>2026-04-19T07:34:52Z</time></trkpt><trkpt lat="44.885489541854724" lon="8.044228886797658"><ele>214.00000000000003</ele><time>2026-04-19T07:34:53Z</time></trkpt><trkpt lat="44.88549464862984" lon="8.044368519931345"><ele>214.0</ele><time>2026-04-19T07:34:55Z</time></trkpt><trkpt lat="44.885517783081156" lon="8.044473284749506"><ele>212.33333333333331</ele><time>2026-04-19T07:34:57Z</time></trkpt><trkpt lat="44.885564913072706" lon="8.044533888289198"><ele>210.66666666666666</ele><time>2026-04-19T07:35:08Z</time></trkpt><trkpt lat="44.88562724717094" lon="8.04460514223365"><ele>209.0</ele><time>2026-04-19T07:35:11Z</time></trkpt><trkpt lat="44.88569463255481" lon="8.044692185144138"><ele>207.33333333333331</ele><time>2026-04-19T07:35:14Z</time></trkpt><trkpt lat="44.885731548861926" lon="8.044773590842155"><ele>205.66666666666666</ele><time>2026-04-19T07:35:17Z</time></trkpt><trkpt lat="44.885782103120086" lon="8.04485898509003"><ele>204.0</ele><time>2026-04-19T07:35:19Z</time></trkpt><trkpt lat="44.885854753785864" lon="8.044885999250843"><ele>206.0</ele><time>2026-04-19T07:35:21Z</time></trkpt><trkpt lat="44.88588745349024" lon="8.044971878497066"><ele>208.0</ele><time>2026-04-19T07:35:23Z</time></trkpt><trkpt lat="44.885892282833844" lon="8.045073701574529"><ele>209.99999999999997</ele><time>2026-04-19T07:35:26Z</time></trkpt><trkpt lat="44.88590185825144" lon="8.04518956157634"><ele>212.0</ele><time>2026-04-19T07:35:30Z</time></trkpt><trkpt lat="44.88588566687552" lon="8.045331715130205"><ele>214.0</ele><time>2026-04-19T07:35:35Z</time></trkpt><trkpt lat="44.88573760255084" lon="8.045624421436873"><ele>213.99999999999997</ele><time>2026-04-19T07:35:47Z</time></trkpt><trkpt lat="44.88568590716236" lon="8.045689689818753"><ele>214.0</ele><time>2026-04-19T07:35:48Z</time></trkpt><trkpt lat="44.88562737408996" lon="8.045755847735032"><ele>214.0</ele><time>2026-04-19T07:35:49Z</time></trkpt><trkpt lat="44.88558114461641" lon="8.045832577211657"><ele>214.0</ele><time>2026-04-19T07:35:50Z</time></trkpt><trkpt lat="44.88550316460091" lon="8.045902153918872"><ele>213.99999999999997</ele><time>2026-04-19T07:35:52Z</time></trkpt><trkpt lat="44.88545327688936" lon="8.045988810328076"><ele>214.0</ele><time>2026-04-19T07:35:53Z</time></trkpt><trkpt lat="44.88541331487831" lon="8.046059277317623"><ele>213.99999999999997</ele><time>2026-04-19T07:35:54Z</time></trkpt><trkpt lat="44.88535449072607" lon="8.046099258572411"><ele>214.0</ele><time>2026-04-19T07:35:55Z</time></trkpt><trkpt lat="44.88526693113799" lon="8.046126457058035"><ele>214.0</ele><time>2026-04-19T07:35:57Z</time></trkpt><trkpt lat="44.885200398788264" lon="8.046111969458847"><ele>214.0</ele><time>2026-04-19T07:35:59Z</time></trkpt><trkpt lat="44.885076502484026" lon="8.046180016712908"><ele>213.99999999999997</ele><time>2026-04-19T07:36:02Z</time></trkpt><trkpt lat="44.88503521173893" lon="8.046268315993276"><ele>214.0</ele><time>2026-04-19T07:36:04Z</time></trkpt><trkpt lat="44.88499042683203" lon="8.046349425678136"><ele>217.33333333333331</ele><time>2026-04-19T07:36:06Z</time></trkpt><trkpt lat="44.88491855239621" lon="8.046333692268682"><ele>220.66666666666666</ele><time>2026-04-19T07:36:10Z</time></trkpt><trkpt lat="44.884936995473346" lon="8.046189371623143"><ele>224.0</ele><time>2026-04-19T07:36:13Z</time></trkpt><trkpt lat="44.88500121702846" lon="8.046080320081973"><ele>227.33333333333331</ele><time>2026-04-19T07:36:15Z</time></trkpt><trkpt lat="44.885032117038875" lon="8.04597611431067"><ele>230.66666666666666</ele><time>2026-04-19T07:36:18Z</time></trkpt><trkpt lat="44.88503066361593" lon="8.045883478279237"><ele>234.0</ele><time>2026-04-19T07:36:21Z</time></trkpt><trkpt lat="44.884955182286156" lon="8.045891049558719"><ele>234.0</ele><time>2026-04-19T07:36:24Z</time></trkpt><trkpt lat="44.88486577411255" lon="8.045909900047391"><ele>234.0</ele><time>2026-04-19T07:36:27Z</time></trkpt><trkpt lat="44.88484256140768" lon="8.046009418154027"><ele>234.0</ele><time>2026-04-19T07:36:30Z</time></trkpt><trkpt lat="44.884768869357245" lon="8.046048076505038"><ele>234.0</ele><time>2026-04-19T07:36:33Z</time></trkpt><trkpt lat="44.884673685290934" lon="8.046035120382916"><ele>234.0</ele><time>2026-04-19T07:36:53Z</time></trkpt><trkpt lat="44.88461560839633" lon="8.046103691502392"><ele>234.0</ele><time>2026-04-19T07:36:56Z</time></trkpt><trkpt lat="44.884574728632614" lon="8.046204926638227"><ele>234.0</ele><time>2026-04-19T07:36:59Z</time></trkpt><trkpt lat="44.884539149830985" lon="8.046292203534755"><ele>234.0</ele><time>2026-04-19T07:37:01Z</time></trkpt><trkpt lat="44.88446201482037" lon="8.046329505238907"><ele>234.0</ele><time>2026-04-19T07:37:04Z</time></trkpt><trkpt lat="44.88437276749183" lon="8.046440944710167"><ele>234.0</ele><time>2026-04-19T07:37:07Z</time></trkpt><trkpt lat="44.88429529942504" lon="8.04647129833105"><ele>234.0</ele><time>2026-04-19T07:37:10Z</time></trkpt><trkpt lat="44.88421684713394" lon="8.046470936410461"><ele>234.0</ele><time>2026-04-19T07:37:13Z</time></trkpt><trkpt lat="44.88413043255678" lon="8.046492368446675"><ele>237.0</ele><time>2026-04-19T07:37:19Z</time></trkpt><trkpt lat="44.88407307832723" lon="8.046564363701528"><ele>239.99999999999997</ele><time>2026-04-19T07:37:22Z</time></trkpt><trkpt lat="44.88402802097218" lon="8.046627284499543"><ele>242.99999999999997</ele><time>2026-04-19T07:37:23Z</time></trkpt><trkpt lat="44.88396292141703" lon="8.04673746118953"><ele>246.0</ele><time>2026-04-19T07:37:25Z</time></trkpt><trkpt lat="44.88389666346948" lon="8.046842735393199"><ele>249.0</ele><time>2026-04-19T07:37:27Z</time></trkpt><trkpt lat="44.88380156727973" lon="8.046930719268255"><ele>251.0</ele><time>2026-04-19T07:37:29Z</time></trkpt><trkpt lat="44.88370749780765" lon="8.047051403199166"><ele>252.99999999999997</ele><time>2026-04-19T07:37:31Z</time></trkpt><trkpt lat="44.88366392551888" lon="8.04711555861619"><ele>254.99999999999997</ele><time>2026-04-19T07:37:33Z</time></trkpt><trkpt lat="44.88362111882774" lon="8.047230867819783"><ele>257.0</ele><time>2026-04-19T07:37:36Z</time></trkpt><trkpt lat="44.88365672787818" lon="8.04713019143754"><ele>259.0</ele><time>2026-04-19T07:44:29Z</time></trkpt><trkpt lat="44.883685636915885" lon="8.047009959407704"><ele>259.0</ele><time>2026-04-19T07:44:35Z</time></trkpt><trkpt lat="44.88367989435294" lon="8.04691932299466"><ele>259.0</ele><time>2026-04-19T07:44:39Z</time></trkpt><trkpt lat="44.88367419137845" lon="8.046828452164146"><ele>259.0</ele><time>2026-04-19T07:44:44Z</time></trkpt><trkpt lat="44.88360955126667" lon="8.046730509600962"><ele>259.0</ele><time>2026-04-19T07:44:47Z</time></trkpt><trkpt lat="44.88352146801063" lon="8.046611360024114"><ele>259.0</ele><time>2026-04-19T07:44:49Z</time></trkpt><trkpt lat="44.88347371011129" lon="8.046543249018544"><ele>259.0</ele><time>2026-04-19T07:44:50Z</time></trkpt><trkpt lat="44.88341103870529" lon="8.046475461088797"><ele>260.16666666666663</ele><time>2026-04-19T07:44:51Z</time></trkpt><trkpt lat="44.88335543509965" lon="8.046399292919823"><ele>261.3333333333333</ele><time>2026-04-19T07:44:52Z</time></trkpt><trkpt lat="44.88331078449825" lon="8.046330234106538"><ele>262.5</ele><time>2026-04-19T07:44:53Z</time></trkpt><trkpt lat="44.883247879828886" lon="8.046188313052076"><ele>263.6666666666667</ele><time>2026-04-19T07:44:55Z</time></trkpt><trkpt lat="44.88321423836918" lon="8.046098009139593"><ele>264.83333333333337</ele><time>2026-04-19T07:44:56Z</time></trkpt><trkpt lat="44.883176446893984" lon="8.046025208940756"><ele>266.0</ele><time>2026-04-19T07:44:57Z</time></trkpt><trkpt lat="44.88308850902514" lon="8.045913277198986"><ele>266.0</ele><time>2026-04-19T07:44:59Z</time></trkpt><trkpt lat="44.88302792983354" lon="8.045860427477761"><ele>266.0</ele><time>2026-04-19T07:45:00Z</time></trkpt><trkpt lat="44.882950637696936" lon="8.045725474050533"><ele>266.0</ele><time>2026-04-19T07:45:02Z</time></trkpt><trkpt lat="44.88289293876363" lon="8.045616047471418"><ele>266.0</ele><time>2026-04-19T07:45:04Z</time></trkpt><trkpt lat="44.8828041568416" lon="8.045569790723041"><ele>266.0</ele><time>2026-04-19T07:45:06Z</time></trkpt><trkpt lat="44.88277767998358" lon="8.045382775920608"><ele>266.6</ele><time>2026-04-19T07:45:08Z</time></trkpt><trkpt lat="44.88275165757324" lon="8.045295701109042"><ele>267.20000000000005</ele><time>2026-04-19T07:45:09Z</time></trkpt><trkpt lat="44.88270596260957" lon="8.045169523816847"><ele>267.79999999999995</ele><time>2026-04-19T07:45:11Z</time></trkpt><trkpt lat="44.88266075960276" lon="8.04505540855599"><ele>268.4</ele><time>2026-04-19T07:45:13Z</time></trkpt><trkpt lat="44.88259000934885" lon="8.044966967090895"><ele>269.0</ele><time>2026-04-19T07:45:15Z</time></trkpt><trkpt lat="44.8825321478109" lon="8.044830941890012"><ele>269.0</ele><time>2026-04-19T07:45:17Z</time></trkpt><trkpt lat="44.88248830918" lon="8.044701188621888"><ele>269.0</ele><time>2026-04-19T07:45:19Z</time></trkpt><trkpt lat="44.88241425984363" lon="8.044685063911095"><ele>269.0</ele><time>2026-04-19T07:45:23Z</time></trkpt><trkpt lat="44.8823824952158" lon="8.04476589563722"><ele>269.0</ele><time>2026-04-19T07:45:25Z</time></trkpt><trkpt lat="44.88229226542472" lon="8.044836916357934"><ele>269.0</ele><time>2026-04-19T07:45:26Z</time></trkpt><trkpt lat="44.88220499106953" lon="8.044904175164731"><ele>269.0</ele><time>2026-04-19T07:45:27Z</time></trkpt><trkpt lat="44.88213810251172" lon="8.044973738379854"><ele>269.0</ele><time>2026-04-19T07:45:28Z</time></trkpt><trkpt lat="44.882056568874056" lon="8.045056638781965"><ele>269.0</ele><time>2026-04-19T07:45:29Z</time></trkpt><trkpt lat="44.88199644166837" lon="8.045105814869673"><ele>269.0</ele><time>2026-04-19T07:45:32Z</time></trkpt><trkpt lat="44.882007173330855" lon="8.045195911251566"><ele>269.0</ele><time>2026-04-19T07:45:34Z</time></trkpt><trkpt lat="44.88203320254881" lon="8.045333830793801"><ele>269.0</ele><time>2026-04-19T07:45:35Z</time></trkpt><trkpt lat="44.882067170433565" lon="8.045473778444219"><ele>269.0</ele><time>2026-04-19T07:45:36Z</time></trkpt><trkpt lat="44.8821189431883" lon="8.045648635598507"><ele>269.0</ele><time>2026-04-19T07:45:37Z</time></trkpt><trkpt lat="44.88213768749507" lon="8.045789892898407"><ele>269.0</ele><time>2026-04-19T07:45:38Z</time></trkpt><trkpt lat="44.88216617431573" lon="8.045929011452909"><ele>269.0</ele><time>2026-04-19T07:45:39Z</time></trkpt><trkpt lat="44.882213566203866" lon="8.046078519471658"><ele>269.0</ele><time>2026-04-19T07:45:40Z</time></trkpt><trkpt lat="44.88226897369134" lon="8.046206091827173"><ele>269.0</ele><time>2026-04-19T07:45:41Z</time></trkpt><trkpt lat="44.88230771870557" lon="8.046326564356516"><ele>270.4</ele><time>2026-04-19T07:45:42Z</time></trkpt><trkpt lat="44.88236322947926" lon="8.046451853045928"><ele>271.79999999999995</ele><time>2026-04-19T07:45:43Z</time></trkpt><trkpt lat="44.88238455736647" lon="8.046596728156139"><ele>273.20000000000005</ele><time>2026-04-19T07:45:44Z</time></trkpt><trkpt lat="44.882453765545925" lon="8.046701622635332"><ele>274.6</ele><time>2026-04-19T07:45:45Z</time></trkpt><trkpt lat="44.88248689209162" lon="8.046828168720523"><ele>276.0</ele><time>2026-04-19T07:45:46Z</time></trkpt><trkpt lat="44.88251578578614" lon="8.047025422042909"><ele>276.57142857142856</ele><time>2026-04-19T07:45:48Z</time></trkpt><trkpt lat="44.88254626950575" lon="8.047136342997502"><ele>277.14285714285717</ele><time>2026-04-19T07:45:49Z</time></trkpt><trkpt lat="44.8825572593117" lon="8.047244549535892"><ele>277.7142857142857</ele><time>2026-04-19T07:45:50Z</time></trkpt><trkpt lat="44.8825621473814" lon="8.047349222289574"><ele>278.2857142857143</ele><time>2026-04-19T07:45:51Z</time></trkpt><trkpt lat="44.88256633581773" lon="8.047441083151769"><ele>278.8571428571429</ele><time>2026-04-19T07:45:52Z</time></trkpt><trkpt lat="44.88256171723255" lon="8.04754018008699"><ele>279.42857142857144</ele><time>2026-04-19T07:45:53Z</time></trkpt><trkpt lat="44.88254681135237" lon="8.047631628753138"><ele>280.0</ele><time>2026-04-19T07:45:54Z</time></trkpt><trkpt lat="44.88249147118899" lon="8.047720376641296"><ele>280.6</ele><time>2026-04-19T07:45:55Z</time></trkpt><trkpt lat="44.882422091938835" lon="8.047794324641108"><ele>281.2</ele><time>2026-04-19T07:45:56Z</time></trkpt><trkpt lat="44.88233459099662" lon="8.047882352116313"><ele>281.8</ele><time>2026-04-19T07:45:57Z</time></trkpt><trkpt lat="44.88226381892073" lon="8.04796123790149"><ele>282.4</ele><time>2026-04-19T07:45:58Z</time></trkpt><trkpt lat="44.882186681845965" lon="8.048015310001617"><ele>283.0</ele><time>2026-04-19T07:45:59Z</time></trkpt><trkpt lat="44.882075895905416" lon="8.048079307218346"><ele>283.0</ele><time>2026-04-19T07:46:01Z</time></trkpt><trkpt lat="44.88202017845964" lon="8.048161717557953"><ele>283.0</ele><time>2026-04-19T07:46:02Z</time></trkpt><trkpt lat="44.88196552509051" lon="8.048239900577288"><ele>283.0</ele><time>2026-04-19T07:46:03Z</time></trkpt><trkpt lat="44.881882846824716" lon="8.048314612785278"><ele>283.0</ele><time>2026-04-19T07:46:04Z</time></trkpt><trkpt lat="44.88179984677262" lon="8.048403010778065"><ele>283.0</ele><time>2026-04-19T07:46:05Z</time></trkpt><trkpt lat="44.881719782736376" lon="8.048481869614118"><ele>283.4</ele><time>2026-04-19T07:46:06Z</time></trkpt><trkpt lat="44.88163747144566" lon="8.048555681566262"><ele>283.8</ele><time>2026-04-19T07:46:07Z</time></trkpt><trkpt lat="44.88154657338287" lon="8.048625823074287"><ele>284.2</ele><time>2026-04-19T07:46:08Z</time></trkpt><trkpt lat="44.881458924687216" lon="8.048695530974202"><ele>284.6</ele><time>2026-04-19T07:46:09Z</time></trkpt><trkpt lat="44.88136711843774" lon="8.048779745011387"><ele>285.0</ele><time>2026-04-19T07:46:10Z</time></trkpt><trkpt lat="44.88128659951599" lon="8.048875228143418"><ele>285.0</ele><time>2026-04-19T07:46:11Z</time></trkpt><trkpt lat="44.88121451602046" lon="8.048970544478456"><ele>285.0</ele><time>2026-04-19T07:46:12Z</time></trkpt><trkpt lat="44.88115006880313" lon="8.049060223648233"><ele>285.0</ele><time>2026-04-19T07:46:13Z</time></trkpt><trkpt lat="44.88109671898094" lon="8.049168629392257"><ele>285.0</ele><time>2026-04-19T07:46:15Z</time></trkpt><trkpt lat="44.88105566352061" lon="8.049238805519735"><ele>285.0</ele><time>2026-04-19T07:46:17Z</time></trkpt><trkpt lat="44.88108761824467" lon="8.049069589842631"><ele>285.0</ele><time>2026-04-19T07:46:24Z</time></trkpt><trkpt lat="44.88102379329293" lon="8.048943308932918"><ele>285.0</ele><time>2026-04-19T07:46:26Z</time></trkpt><trkpt lat="44.880937442751936" lon="8.048876684315179"><ele>285.0</ele><time>2026-04-19T07:46:27Z</time></trkpt><trkpt lat="44.88085296979495" lon="8.048814276605851"><ele>285.0</ele><time>2026-04-19T07:46:28Z</time></trkpt><trkpt lat="44.8807675361318" lon="8.048752364179045"><ele>285.0</ele><time>2026-04-19T07:46:29Z</time></trkpt><trkpt lat="44.88068747587441" lon="8.048676619934488"><ele>283.2</ele><time>2026-04-19T07:46:30Z</time></trkpt><trkpt lat="44.88059716323956" lon="8.048582950400101"><ele>281.4</ele><time>2026-04-19T07:46:31Z</time></trkpt><trkpt lat="44.88051478807867" lon="8.04850690154318"><ele>279.6</ele><time>2026-04-19T07:46:32Z</time></trkpt><trkpt lat="44.88043686285533" lon="8.0484195180924"><ele>277.8</ele><time>2026-04-19T07:46:33Z</time></trkpt><trkpt lat="44.88036190354158" lon="8.048344596186014"><ele>276.0</ele><time>2026-04-19T07:46:34Z</time></trkpt><trkpt lat="44.880289823898806" lon="8.048275604913059"><ele>273.2</ele><time>2026-04-19T07:46:35Z</time></trkpt><trkpt lat="44.88021411589685" lon="8.048188232134613"><ele>270.40000000000003</ele><time>2026-04-19T07:46:36Z</time></trkpt><trkpt lat="44.880122757624726" lon="8.04810191365777"><ele>267.6</ele><time>2026-04-19T07:46:37Z</time></trkpt><trkpt lat="44.88003597903545" lon="8.048018297359182"><ele>264.8</ele><time>2026-04-19T07:46:38Z</time></trkpt><trkpt lat="44.87994436397025" lon="8.047957940686167"><ele>262.0</ele><time>2026-04-19T07:46:39Z</time></trkpt><trkpt lat="44.87986709950919" lon="8.047894044510135"><ele>262.0</ele><time>2026-04-19T07:46:40Z</time></trkpt><trkpt lat="44.87982793579706" lon="8.04782071163319"><ele>262.0</ele><time>2026-04-19T07:46:41Z</time></trkpt><trkpt lat="44.87975816853539" lon="8.047793050148858"><ele>262.0</ele><time>2026-04-19T07:46:44Z</time></trkpt><trkpt lat="44.87972205865585" lon="8.047885215704513"><ele>262.0</ele><time>2026-04-19T07:46:46Z</time></trkpt><trkpt lat="44.879668609189935" lon="8.048004083818212"><ele>262.0</ele><time>2026-04-19T07:46:48Z</time></trkpt><trkpt lat="44.87962674309673" lon="8.048084078711629"><ele>262.0</ele><time>2026-04-19T07:46:49Z</time></trkpt><trkpt lat="44.87960135351797" lon="8.04816547994472"><ele>262.0</ele><time>2026-04-19T07:46:50Z</time></trkpt><trkpt lat="44.87953209799321" lon="8.048264958494954"><ele>262.0</ele><time>2026-04-19T07:46:52Z</time></trkpt><trkpt lat="44.87938673243085" lon="8.048283857472217"><ele>262.0</ele><time>2026-04-19T07:46:54Z</time></trkpt><trkpt lat="44.87930186612636" lon="8.048289948112007"><ele>262.0</ele><time>2026-04-19T07:46:55Z</time></trkpt><trkpt lat="44.87923592455395" lon="8.048286191776983"><ele>262.0</ele><time>2026-04-19T07:46:56Z</time></trkpt><trkpt lat="44.879150005551374" lon="8.048327402893939"><ele>262.0</ele><time>2026-04-19T07:46:57Z</time></trkpt><trkpt lat="44.87908549354321" lon="8.048333328604325"><ele>262.6</ele><time>2026-04-19T07:46:58Z</time></trkpt><trkpt lat="44.87896005509119" lon="8.04825556470005"><ele>263.2</ele><time>2026-04-19T07:47:00Z</time></trkpt><trkpt lat="44.87891563471501" lon="8.048138602344487"><ele>263.8</ele><time>2026-04-19T07:47:01Z</time></trkpt><trkpt lat="44.87885761385804" lon="8.048077670739675"><ele>264.4</ele><time>2026-04-19T07:47:02Z</time></trkpt><trkpt lat="44.87878108878199" lon="8.048025894000178"><ele>265.0</ele><time>2026-04-19T07:47:03Z</time></trkpt><trkpt lat="44.87871948372759" lon="8.047982701311858"><ele>265.0</ele><time>2026-04-19T07:47:04Z</time></trkpt><trkpt lat="44.87866080827098" lon="8.047921453679436"><ele>265.0</ele><time>2026-04-19T07:47:05Z</time></trkpt><trkpt lat="44.878607571513314" lon="8.047866431269906"><ele>265.0</ele><time>2026-04-19T07:47:06Z</time></trkpt><trkpt lat="44.878545462845985" lon="8.047808828891556"><ele>265.0</ele><time>2026-04-19T07:47:07Z</time></trkpt><trkpt lat="44.87848063259928" lon="8.047780288842137"><ele>265.0</ele><time>2026-04-19T07:47:08Z</time></trkpt><trkpt lat="44.878379527025594" lon="8.047686807170775"><ele>265.0</ele><time>2026-04-19T07:47:10Z</time></trkpt><trkpt lat="44.87832973374329" lon="8.047611858476133"><ele>262.8</ele><time>2026-04-19T07:47:11Z</time></trkpt><trkpt lat="44.87821511019141" lon="8.047545661229547"><ele>260.6</ele><time>2026-04-19T07:47:13Z</time></trkpt><trkpt lat="44.87809844021502" lon="8.047515851795575"><ele>258.4</ele><time>2026-04-19T07:47:15Z</time></trkpt><trkpt lat="44.87802432893742" lon="8.047465192026886"><ele>256.2</ele><time>2026-04-19T07:47:16Z</time></trkpt><trkpt lat="44.877981154903125" lon="8.047372608058847"><ele>254.0</ele><time>2026-04-19T07:47:18Z</time></trkpt><trkpt lat="44.87798877888818" lon="8.047283425464062"><ele>252.33333333333334</ele><time>2026-04-19T07:47:19Z</time></trkpt><trkpt lat="44.87800696161955" lon="8.047183715927934"><ele>250.66666666666669</ele><time>2026-04-19T07:47:20Z</time></trkpt><trkpt lat="44.87800855680729" lon="8.047072552478653"><ele>249.0</ele><time>2026-04-19T07:47:22Z</time></trkpt><trkpt lat="44.87794856231023" lon="8.047013677132625"><ele>247.33333333333331</ele><time>2026-04-19T07:47:25Z</time></trkpt><trkpt lat="44.87788024010787" lon="8.046827191248473"><ele>245.66666666666666</ele><time>2026-04-19T07:47:27Z</time></trkpt><trkpt lat="44.87782015072977" lon="8.046771337954409"><ele>244.0</ele><time>2026-04-19T07:47:28Z</time></trkpt><trkpt lat="44.87775661610171" lon="8.046658793080136"><ele>241.33333333333331</ele><time>2026-04-19T07:47:30Z</time></trkpt><trkpt lat="44.87777610579914" lon="8.046528095964225"><ele>238.66666666666666</ele><time>2026-04-19T07:47:32Z</time></trkpt><trkpt lat="44.877823211227295" lon="8.046456430360076"><ele>236.0</ele><time>2026-04-19T07:47:34Z</time></trkpt><trkpt lat="44.877830312525724" lon="8.04636469167345"><ele>233.33333333333331</ele><time>2026-04-19T07:47:38Z</time></trkpt><trkpt lat="44.87774315018029" lon="8.046295898236586"><ele>230.66666666666666</ele><time>2026-04-19T07:47:41Z</time></trkpt><trkpt lat="44.87767848647374" lon="8.046306455613992"><ele>228.0</ele><time>2026-04-19T07:47:46Z</time></trkpt><trkpt lat="44.877597234348976" lon="8.046288129414428"><ele>228.33333333333334</ele><time>2026-04-19T07:47:49Z</time></trkpt><trkpt lat="44.877534261303" lon="8.046281978909276"><ele>228.66666666666669</ele><time>2026-04-19T07:47:53Z</time></trkpt><trkpt lat="44.877458046166964" lon="8.046304659288676"><ele>229.0</ele><time>2026-04-19T07:47:57Z</time></trkpt><trkpt lat="44.87740204818137" lon="8.046414315180963"><ele>229.33333333333334</ele><time>2026-04-19T07:48:01Z</time></trkpt><trkpt lat="44.87731135836324" lon="8.04648078280701"><ele>229.66666666666669</ele><time>2026-04-19T07:48:03Z</time></trkpt><trkpt lat="44.877247227060806" lon="8.046544721971117"><ele>230.0</ele><time>2026-04-19T07:48:06Z</time></trkpt><trkpt lat="44.87720949783239" lon="8.046638110666345"><ele>230.00000000000003</ele><time>2026-04-19T07:48:08Z</time></trkpt><trkpt lat="44.877205881841924" lon="8.046751485159666"><ele>230.0</ele><time>2026-04-19T07:48:10Z</time></trkpt><trkpt lat="44.8771391684528" lon="8.046810596146939"><ele>230.0</ele><time>2026-04-19T07:48:13Z</time></trkpt><trkpt lat="44.877102209306734" lon="8.046906694579807"><ele>230.0</ele><time>2026-04-19T07:48:15Z</time></trkpt><trkpt lat="44.87704882302179" lon="8.047020960177752"><ele>230.00000000000003</ele><time>2026-04-19T07:48:18Z</time></trkpt><trkpt lat="44.87701810333962" lon="8.04709914839473"><ele>230.0</ele><time>2026-04-19T07:48:20Z</time></trkpt><trkpt lat="44.876956667958034" lon="8.047155880835394"><ele>230.00000000000003</ele><time>2026-04-19T07:48:22Z</time></trkpt><trkpt lat="44.87694317367075" lon="8.047252639965668"><ele>230.0</ele><time>2026-04-19T07:48:24Z</time></trkpt><trkpt lat="44.87687878196702" lon="8.047314608814373"><ele>230.0</ele><time>2026-04-19T07:48:25Z</time></trkpt><trkpt lat="44.876843017165456" lon="8.047395804424335"><ele>230.0</ele><time>2026-04-19T07:48:26Z</time></trkpt><trkpt lat="44.87680538116887" lon="8.047488942475281"><ele>230.00000000000003</ele><time>2026-04-19T07:48:28Z</time></trkpt><trkpt lat="44.87682910301479" lon="8.047592613252696"><ele>230.0</ele><time>2026-04-19T07:48:32Z</time></trkpt><trkpt lat="44.876730005023134" lon="8.047524790485426"><ele>226.6</ele><time>2026-04-19T07:48:40Z</time></trkpt><trkpt lat="44.87659222818255" lon="8.04749498241993"><ele>223.2</ele><time>2026-04-19T07:48:41Z</time></trkpt><trkpt lat="44.8764895798476" lon="8.047470234631463"><ele>219.8</ele><time>2026-04-19T07:48:42Z</time></trkpt><trkpt lat="44.87642664682835" lon="8.047450545289877"><ele>216.4</ele><time>2026-04-19T07:48:43Z</time></trkpt><trkpt lat="44.87637422036711" lon="8.047335472228042"><ele>213.0</ele><time>2026-04-19T07:48:45Z</time></trkpt><trkpt lat="44.87638690587193" lon="8.047237133447096"><ele>213.0</ele><time>2026-04-19T07:48:46Z</time></trkpt><trkpt lat="44.87641810792204" lon="8.047112967953911"><ele>213.0</ele><time>2026-04-19T07:48:47Z</time></trkpt><trkpt lat="44.87645481534759" lon="8.046986304943648"><ele>213.0</ele><time>2026-04-19T07:48:48Z</time></trkpt><trkpt lat="44.8764798162775" lon="8.046874850247923"><ele>213.0</ele><time>2026-04-19T07:48:49Z</time></trkpt><trkpt lat="44.87651651694254" lon="8.046762348243593"><ele>213.0</ele><time>2026-04-19T07:48:50Z</time></trkpt><trkpt lat="44.8765579712579" lon="8.046623797936244"><ele>213.8</ele><time>2026-04-19T07:48:51Z</time></trkpt><trkpt lat="44.87660756516177" lon="8.0464881157458"><ele>214.60000000000002</ele><time>2026-04-19T07:48:52Z</time></trkpt><trkpt lat="44.876664306808046" lon="8.04634491961488"><ele>215.39999999999998</ele><time>2026-04-19T07:48:53Z</time></trkpt><trkpt lat="44.876716820491524" lon="8.046203493932996"><ele>216.2</ele><time>2026-04-19T07:48:54Z</time></trkpt><trkpt lat="44.87677776194893" lon="8.04607139624156"><ele>217.0</ele><time>2026-04-19T07:48:55Z</time></trkpt><trkpt lat="44.87685570655469" lon="8.04595667682491"><ele>217.2</ele><time>2026-04-19T07:48:56Z</time></trkpt><trkpt lat="44.8769243443044" lon="8.045836168482406"><ele>217.39999999999998</ele><time>2026-04-19T07:48:57Z</time></trkpt><trkpt lat="44.87697833253444" lon="8.045713739014163"><ele>217.60000000000002</ele><time>2026-04-19T07:48:58Z</time></trkpt><trkpt lat="44.877015204267316" lon="8.045564473565529"><ele>217.8</ele><time>2026-04-19T07:48:59Z</time></trkpt><trkpt lat="44.87704623435709" lon="8.045417230376508"><ele>218.0</ele><time>2026-04-19T07:49:00Z</time></trkpt><trkpt lat="44.87707484524948" lon="8.045281091464393"><ele>218.00000000000003</ele><time>2026-04-19T07:49:01Z</time></trkpt><trkpt lat="44.8770910137156" lon="8.045148884364933"><ele>218.0</ele><time>2026-04-19T07:49:02Z</time></trkpt><trkpt lat="44.8770788206143" lon="8.045039693904812"><ele>218.0</ele><time>2026-04-19T07:49:03Z</time></trkpt><trkpt lat="44.877062260217926" lon="8.044936953742447"><ele>218.0</ele><time>2026-04-19T07:49:04Z</time></trkpt><trkpt lat="44.87703307973622" lon="8.044830509260622"><ele>218.00000000000003</ele><time>2026-04-19T07:49:05Z</time></trkpt><trkpt lat="44.877021088449304" lon="8.044698090928781"><ele>218.0</ele><time>2026-04-19T07:49:06Z</time></trkpt><trkpt lat="44.877031213696355" lon="8.044576780977556"><ele>218.00000000000003</ele><time>2026-04-19T07:49:07Z</time></trkpt><trkpt lat="44.877057787306484" lon="8.04445836278395"><ele>218.0</ele><time>2026-04-19T07:49:08Z</time></trkpt><trkpt lat="44.877065200131184" lon="8.04432952017267"><ele>218.0</ele><time>2026-04-19T07:49:09Z</time></trkpt><trkpt lat="44.87708786225691" lon="8.0441979104476"><ele>218.0</ele><time>2026-04-19T07:49:10Z</time></trkpt><trkpt lat="44.877105218726676" lon="8.04407601562938"><ele>218.00000000000003</ele><time>2026-04-19T07:49:11Z</time></trkpt><trkpt lat="44.87712483303554" lon="8.043966885855387"><ele>218.0</ele><time>2026-04-19T07:49:12Z</time></trkpt><trkpt lat="44.877162577927635" lon="8.043861705204181"><ele>218.0</ele><time>2026-04-19T07:49:13Z</time></trkpt><trkpt lat="44.87722705565231" lon="8.043743937597643"><ele>218.0</ele><time>2026-04-19T07:49:14Z</time></trkpt><trkpt lat="44.87727427163999" lon="8.043626391773568"><ele>218.0</ele><time>2026-04-19T07:49:15Z</time></trkpt><trkpt lat="44.877313832721704" lon="8.04348670035691"><ele>218.0</ele><time>2026-04-19T07:49:16Z</time></trkpt><trkpt lat="44.87733455662074" lon="8.043345246185194"><ele>218.0</ele><time>2026-04-19T07:49:17Z</time></trkpt><trkpt lat="44.87735310213136" lon="8.043198220168064"><ele>218.2</ele><time>2026-04-19T07:49:18Z</time></trkpt><trkpt lat="44.877362770349386" lon="8.043032150509097"><ele>218.4</ele><time>2026-04-19T07:49:19Z</time></trkpt><trkpt lat="44.877384463003885" lon="8.042876140206296"><ele>218.59999999999997</ele><time>2026-04-19T07:49:20Z</time></trkpt><trkpt lat="44.8774252382822" lon="8.042734011660446"><ele>218.79999999999998</ele><time>2026-04-19T07:49:21Z</time></trkpt><trkpt lat="44.877457975669785" lon="8.04260116220954"><ele>219.0</ele><time>2026-04-19T07:49:22Z</time></trkpt><trkpt lat="44.877491005744155" lon="8.042481232677725"><ele>219.79999999999998</ele><time>2026-04-19T07:49:23Z</time></trkpt><trkpt lat="44.87750588883492" lon="8.04234701787808"><ele>220.59999999999997</ele><time>2026-04-19T07:49:24Z</time></trkpt><trkpt lat="44.877511112697334" lon="8.042210148218135"><ele>221.4</ele><time>2026-04-19T07:49:25Z</time></trkpt><trkpt lat="44.877516563731014" lon="8.042078124674427"><ele>222.2</ele><time>2026-04-19T07:49:26Z</time></trkpt><trkpt lat="44.877522238946284" lon="8.04194100577924"><ele>223.0</ele><time>2026-04-19T07:49:27Z</time></trkpt><trkpt lat="44.87753496003923" lon="8.041823178049297"><ele>222.99999999999997</ele><time>2026-04-19T07:49:28Z</time></trkpt><trkpt lat="44.877561582275234" lon="8.041705626728032"><ele>223.0</ele><time>2026-04-19T07:49:29Z</time></trkpt><trkpt lat="44.87755904158174" lon="8.041600075203979"><ele>223.0</ele><time>2026-04-19T07:49:30Z</time></trkpt><trkpt lat="44.87753389889142" lon="8.041490208484797"><ele>223.0</ele><time>2026-04-19T07:49:31Z</time></trkpt><trkpt lat="44.87751790389484" lon="8.041389327246426"><ele>222.99999999999997</ele><time>2026-04-19T07:49:32Z</time></trkpt><trkpt lat="44.87752020573765" lon="8.041288495877666"><ele>223.0</ele><time>2026-04-19T07:49:33Z</time></trkpt><trkpt lat="44.87754317588232" lon="8.04119709636452"><ele>224.2</ele><time>2026-04-19T07:49:34Z</time></trkpt><trkpt lat="44.877575310018265" lon="8.041090197303026"><ele>225.4</ele><time>2026-04-19T07:49:35Z</time></trkpt><trkpt lat="44.87761562868929" lon="8.04096158081963"><ele>226.59999999999997</ele><time>2026-04-19T07:49:36Z</time></trkpt><trkpt lat="44.877632620688864" lon="8.04084441292032"><ele>227.79999999999998</ele><time>2026-04-19T07:49:37Z</time></trkpt><trkpt lat="44.87764856978591" lon="8.040710421668662"><ele>229.0</ele><time>2026-04-19T07:49:38Z</time></trkpt><trkpt lat="44.877630058875994" lon="8.040557256096303"><ele>229.2</ele><time>2026-04-19T07:49:39Z</time></trkpt><trkpt lat="44.87762393664353" lon="8.040400625154842"><ele>229.39999999999998</ele><time>2026-04-19T07:49:40Z</time></trkpt><trkpt lat="44.877624604442225" lon="8.040263913305752"><ele>229.6</ele><time>2026-04-19T07:49:41Z</time></trkpt><trkpt lat="44.87764303272226" lon="8.04011176895776"><ele>229.8</ele><time>2026-04-19T07:49:42Z</time></trkpt><trkpt lat="44.877678854285946" lon="8.039951641054316"><ele>230.0</ele><time>2026-04-19T07:49:43Z</time></trkpt><trkpt lat="44.87767697662036" lon="8.039821033104769"><ele>229.8</ele><time>2026-04-19T07:49:44Z</time></trkpt><trkpt lat="44.877638970061014" lon="8.039699150055252"><ele>229.6</ele><time>2026-04-19T07:49:45Z</time></trkpt><trkpt lat="44.87759566284236" lon="8.039596061116521"><ele>229.39999999999998</ele><time>2026-04-19T07:49:46Z</time></trkpt><trkpt lat="44.87751620393977" lon="8.039497865333676"><ele>229.2</ele><time>2026-04-19T07:49:47Z</time></trkpt><trkpt lat="44.8774437922675" lon="8.039398300775218"><ele>229.0</ele><time>2026-04-19T07:49:48Z</time></trkpt><trkpt lat="44.87734963650124" lon="8.039309642697201"><ele>229.0</ele><time>2026-04-19T07:49:49Z</time></trkpt><trkpt lat="44.87727278764613" lon="8.039230580930239"><ele>228.99999999999997</ele><time>2026-04-19T07:49:50Z</time></trkpt><trkpt lat="44.877206554996334" lon="8.039160892252184"><ele>228.99999999999997</ele><time>2026-04-19T07:49:51Z</time></trkpt><trkpt lat="44.87715919977085" lon="8.039039560279441"><ele>229.0</ele><time>2026-04-19T07:49:52Z</time></trkpt><trkpt lat="44.87712890532982" lon="8.038907022538591"><ele>229.0</ele><time>2026-04-19T07:49:53Z</time></trkpt><trkpt lat="44.877083336014984" lon="8.038751347206851"><ele>231.2</ele><time>2026-04-19T07:49:54Z</time></trkpt><trkpt lat="44.877027314093944" lon="8.038635831147776"><ele>233.39999999999998</ele><time>2026-04-19T07:49:55Z</time></trkpt><trkpt lat="44.87695258757773" lon="8.038562577791183"><ele>235.6</ele><time>2026-04-19T07:49:56Z</time></trkpt><trkpt lat="44.876867594415344" lon="8.038484257684093"><ele>237.8</ele><time>2026-04-19T07:49:57Z</time></trkpt><trkpt lat="44.876776612008904" lon="8.038402949402093"><ele>240.0</ele><time>2026-04-19T07:49:58Z</time></trkpt><trkpt lat="44.87671338199921" lon="8.038290768369148"><ele>240.0</ele><time>2026-04-19T07:49:59Z</time></trkpt><trkpt lat="44.876651961746816" lon="8.038161180410189"><ele>240.0</ele><time>2026-04-19T07:50:00Z</time></trkpt><trkpt lat="44.87659164713892" lon="8.038041097030026"><ele>240.0</ele><time>2026-04-19T07:50:01Z</time></trkpt><trkpt lat="44.87654555259083" lon="8.037951310718917"><ele>240.0</ele><time>2026-04-19T07:50:02Z</time></trkpt><trkpt lat="44.87647133533504" lon="8.037911786628593"><ele>240.0</ele><time>2026-04-19T07:50:03Z</time></trkpt><trkpt lat="44.87636484674598" lon="8.037815866268058"><ele>240.0</ele><time>2026-04-19T07:50:05Z</time></trkpt><trkpt lat="44.8763311887395" lon="8.037733070351234"><ele>240.0</ele><time>2026-04-19T07:50:06Z</time></trkpt><trkpt lat="44.87630920274656" lon="8.037638700545536"><ele>240.0</ele><time>2026-04-19T07:50:07Z</time></trkpt><trkpt lat="44.87630392779441" lon="8.037456816824458"><ele>240.0</ele><time>2026-04-19T07:50:09Z</time></trkpt><trkpt lat="44.87629974106805" lon="8.037364966233557"><ele>240.0</ele><time>2026-04-19T07:50:10Z</time></trkpt><trkpt lat="44.87627276048565" lon="8.037280287417177"><ele>240.0</ele><time>2026-04-19T07:50:11Z</time></trkpt><trkpt lat="44.87622869517707" lon="8.037182721363868"><ele>241.66666666666666</ele><time>2026-04-19T07:50:12Z</time></trkpt><trkpt lat="44.876187938764005" lon="8.037089687198062"><ele>243.33333333333331</ele><time>2026-04-19T07:50:13Z</time></trkpt><trkpt lat="44.87615056454536" lon="8.036976046998989"><ele>245.0</ele><time>2026-04-19T07:50:14Z</time></trkpt><trkpt lat="44.87611109267925" lon="8.036882327557104"><ele>246.66666666666666</ele><time>2026-04-19T07:50:15Z</time></trkpt><trkpt lat="44.87605127394261" lon="8.036813281997336"><ele>248.33333333333331</ele><time>2026-04-19T07:50:16Z</time></trkpt><trkpt lat="44.87599384048212" lon="8.036746731349071"><ele>250.0</ele><time>2026-04-19T07:50:17Z</time></trkpt><trkpt lat="44.87594634811723" lon="8.036678576651749"><ele>249.2</ele><time>2026-04-19T07:50:18Z</time></trkpt><trkpt lat="44.87593687986715" lon="8.036516216059926"><ele>248.4</ele><time>2026-04-19T07:50:20Z</time></trkpt><trkpt lat="44.87594188164955" lon="8.036400154616572"><ele>247.60000000000002</ele><time>2026-04-19T07:50:21Z</time></trkpt><trkpt lat="44.87592213623433" lon="8.036303728500867"><ele>246.8</ele><time>2026-04-19T07:50:22Z</time></trkpt><trkpt lat="44.87589292662225" lon="8.036216168233725"><ele>246.0</ele><time>2026-04-19T07:50:23Z</time></trkpt><trkpt lat="44.87588483226623" lon="8.036050510787408"><ele>245.60000000000002</ele><time>2026-04-19T07:50:25Z</time></trkpt><trkpt lat="44.87588292626284" lon="8.03588550168883"><ele>245.20000000000002</ele><time>2026-04-19T07:50:27Z</time></trkpt><trkpt lat="44.875858477168975" lon="8.035800682280534"><ele>244.79999999999998</ele><time>2026-04-19T07:50:28Z</time></trkpt><trkpt lat="44.87579994052361" lon="8.035740934740677"><ele>244.39999999999998</ele><time>2026-04-19T07:50:29Z</time></trkpt><trkpt lat="44.87575668452522" lon="8.035597356999904"><ele>244.0</ele><time>2026-04-19T07:50:31Z</time></trkpt><trkpt lat="44.875692754887794" lon="8.035453366146417"><ele>243.99999999999997</ele><time>2026-04-19T07:50:33Z</time></trkpt><trkpt lat="44.875620011431536" lon="8.035411903149633"><ele>244.0</ele><time>2026-04-19T07:50:34Z</time></trkpt><trkpt lat="44.8755554657008" lon="8.03537119417284"><ele>244.0</ele><time>2026-04-19T07:50:35Z</time></trkpt><trkpt lat="44.87548486567982" lon="8.035329446970911"><ele>244.0</ele><time>2026-04-19T07:50:36Z</time></trkpt><trkpt lat="44.875411805886166" lon="8.035271602547935"><ele>243.99999999999997</ele><time>2026-04-19T07:50:37Z</time></trkpt><trkpt lat="44.87532855255112" lon="8.035181619170872"><ele>244.0</ele><time>2026-04-19T07:50:39Z</time></trkpt><trkpt lat="44.8753288060526" lon="8.035039496348512"><ele>245.16666666666666</ele><time>2026-04-19T07:50:40Z</time></trkpt><trkpt lat="44.87526609484378" lon="8.03488630730882"><ele>246.33333333333331</ele><time>2026-04-19T07:50:42Z</time></trkpt><trkpt lat="44.87521217313925" lon="8.034804760301109"><ele>247.5</ele><time>2026-04-19T07:50:43Z</time></trkpt><trkpt lat="44.87513687987304" lon="8.034741250225942"><ele>248.66666666666669</ele><time>2026-04-19T07:50:44Z</time></trkpt><trkpt lat="44.87506447441007" lon="8.034689433660523"><ele>249.83333333333334</ele><time>2026-04-19T07:50:45Z</time></trkpt><trkpt lat="44.87499770853863" lon="8.034675496166749"><ele>251.0</ele><time>2026-04-19T07:50:46Z</time></trkpt><trkpt lat="44.87491027135575" lon="8.034607564928178"><ele>251.0</ele><time>2026-04-19T07:50:48Z</time></trkpt><trkpt lat="44.87480762960397" lon="8.034458134681506"><ele>251.00000000000003</ele><time>2026-04-19T07:50:50Z</time></trkpt><trkpt lat="44.87473955542092" lon="8.034398773210103"><ele>251.00000000000003</ele><time>2026-04-19T07:50:51Z</time></trkpt><trkpt lat="44.874646512336184" lon="8.034370508285226"><ele>251.0</ele><time>2026-04-19T07:50:52Z</time></trkpt><trkpt lat="44.874562309843284" lon="8.034338028488397"><ele>251.0</ele><time>2026-04-19T07:50:53Z</time></trkpt><trkpt lat="44.874506759288295" lon="8.034291541971635"><ele>251.0</ele><time>2026-04-19T07:50:54Z</time></trkpt><trkpt lat="44.87440475613473" lon="8.034199351713056"><ele>251.00000000000003</ele><time>2026-04-19T07:50:56Z</time></trkpt><trkpt lat="44.874368607171526" lon="8.034109930538532"><ele>251.00000000000003</ele><time>2026-04-19T07:50:57Z</time></trkpt><trkpt lat="44.87429119358737" lon="8.033983838709363"><ele>251.0</ele><time>2026-04-19T07:50:59Z</time></trkpt><trkpt lat="44.87421261128954" lon="8.033961170035955"><ele>251.0</ele><time>2026-04-19T07:51:00Z</time></trkpt><trkpt lat="44.874148839433694" lon="8.03388827544806"><ele>249.50000000000003</ele><time>2026-04-19T07:51:01Z</time></trkpt><trkpt lat="44.874055737786186" lon="8.033752257505217"><ele>248.0</ele><time>2026-04-19T07:51:03Z</time></trkpt><trkpt lat="44.87398732574003" lon="8.033694089436814"><ele>246.5</ele><time>2026-04-19T07:51:04Z</time></trkpt><trkpt lat="44.87391227512321" lon="8.033637514635625"><ele>245.0</ele><time>2026-04-19T07:51:05Z</time></trkpt><trkpt lat="44.87383639846825" lon="8.033615614351266"><ele>243.50000000000003</ele><time>2026-04-19T07:51:06Z</time></trkpt><trkpt lat="44.87377284956953" lon="8.03357265379745"><ele>242.0</ele><time>2026-04-19T07:51:07Z</time></trkpt><trkpt lat="44.873800596162" lon="8.033459749761567"><ele>242.0</ele><time>2026-04-19T07:51:09Z</time></trkpt><trkpt lat="44.87387377952956" lon="8.033316437298687"><ele>242.0</ele><time>2026-04-19T07:51:11Z</time></trkpt><trkpt lat="44.87386056051355" lon="8.033165732979903"><ele>242.0</ele><time>2026-04-19T07:51:13Z</time></trkpt><trkpt lat="44.87381045030724" lon="8.033052472639863"><ele>242.0</ele><time>2026-04-19T07:51:14Z</time></trkpt><trkpt lat="44.87377668194386" lon="8.03291980899828"><ele>242.0</ele><time>2026-04-19T07:51:15Z</time></trkpt><trkpt lat="44.87373131772956" lon="8.032825890165109"><ele>242.7142857142857</ele><time>2026-04-19T07:51:16Z</time></trkpt><trkpt lat="44.87368024317486" lon="8.032732601472787"><ele>243.4285714285714</ele><time>2026-04-19T07:51:17Z</time></trkpt><trkpt lat="44.873632304078974" lon="8.032643963446759"><ele>244.14285714285714</ele><time>2026-04-19T07:51:18Z</time></trkpt><trkpt lat="44.873603095701185" lon="8.032559254356572"><ele>244.85714285714283</ele><time>2026-04-19T07:51:19Z</time></trkpt><trkpt lat="44.87355108026587" lon="8.032501855041339"><ele>245.57142857142856</ele><time>2026-04-19T07:51:20Z</time></trkpt><trkpt lat="44.87352654979581" lon="8.032407503096302"><ele>246.28571428571428</ele><time>2026-04-19T07:51:21Z</time></trkpt><trkpt lat="44.87348916679734" lon="8.032335500949543"><ele>247.0</ele><time>2026-04-19T07:51:22Z</time></trkpt><trkpt lat="44.87339245455265" lon="8.032308886397253"><ele>246.99999999999997</ele><time>2026-04-19T07:51:23Z</time></trkpt><trkpt lat="44.8733075588024" lon="8.032275559525354"><ele>247.0</ele><time>2026-04-19T07:51:24Z</time></trkpt><trkpt lat="44.87318382634908" lon="8.032237010261774"><ele>247.0</ele><time>2026-04-19T07:51:26Z</time></trkpt><trkpt lat="44.87313167959318" lon="8.032184076259751"><ele>247.0</ele><time>2026-04-19T07:51:27Z</time></trkpt><trkpt lat="44.87305815661946" lon="8.032103713393647"><ele>246.99999999999997</ele><time>2026-04-19T07:51:29Z</time></trkpt><trkpt lat="44.87302157471853" lon="8.032015963170263"><ele>247.0</ele><time>2026-04-19T07:51:33Z</time></trkpt><trkpt lat="44.872959536140684" lon="8.03203746970348"><ele>246.99999999999997</ele><time>2026-04-19T07:51:36Z</time></trkpt><trkpt lat="44.872885427224176" lon="8.032025941635833"><ele>247.0</ele><time>2026-04-19T07:51:39Z</time></trkpt><trkpt lat="44.87281847472197" lon="8.032002985340519"><ele>247.0</ele><time>2026-04-19T07:51:41Z</time></trkpt><trkpt lat="44.872807002680126" lon="8.03184456279328"><ele>247.0</ele><time>2026-04-19T07:51:47Z</time></trkpt><trkpt lat="44.87278159186782" lon="8.031761328886763"><ele>246.99999999999997</ele><time>2026-04-19T07:51:48Z</time></trkpt><trkpt lat="44.872735698661884" lon="8.031657953653673"><ele>247.0</ele><time>2026-04-19T07:51:50Z</time></trkpt><trkpt lat="44.87274772948229" lon="8.031540490356113"><ele>249.2</ele><time>2026-04-19T07:51:53Z</time></trkpt><trkpt lat="44.872739417290006" lon="8.031406765895598"><ele>251.39999999999998</ele><time>2026-04-19T07:51:56Z</time></trkpt><trkpt lat="44.87267211568265" lon="8.031258247445976"><ele>253.60000000000002</ele><time>2026-04-19T07:51:58Z</time></trkpt><trkpt lat="44.87268125994032" lon="8.031161141602247"><ele>255.8</ele><time>2026-04-19T07:51:59Z</time></trkpt><trkpt lat="44.87276763395022" lon="8.030977152111712"><ele>258.0</ele><time>2026-04-19T07:52:00Z</time></trkpt><trkpt lat="44.8727774014443" lon="8.030803195169403"><ele>259.71428571428567</ele><time>2026-04-19T07:52:02Z</time></trkpt><trkpt lat="44.872782718421625" lon="8.030694118659676"><ele>261.42857142857144</ele><time>2026-04-19T07:52:03Z</time></trkpt><trkpt lat="44.87278488514259" lon="8.030595474957703"><ele>263.1428571428571</ele><time>2026-04-19T07:52:04Z</time></trkpt><trkpt lat="44.87278435056042" lon="8.030501969007647"><ele>264.85714285714283</ele><time>2026-04-19T07:52:05Z</time></trkpt><trkpt lat="44.872786897268064" lon="8.030407886631926"><ele>266.57142857142856</ele><time>2026-04-19T07:52:07Z</time></trkpt><trkpt lat="44.87279727413868" lon="8.030293915215157"><ele>268.2857142857143</ele><time>2026-04-19T07:52:09Z</time></trkpt><trkpt lat="44.87281144252588" lon="8.03017739957684"><ele>270.0</ele><time>2026-04-19T07:52:11Z</time></trkpt><trkpt lat="44.87280767150856" lon="8.030062723633689"><ele>271.0</ele><time>2026-04-19T07:52:13Z</time></trkpt><trkpt lat="44.87278470832865" lon="8.02988225000239"><ele>272.0</ele><time>2026-04-19T07:52:15Z</time></trkpt><trkpt lat="44.872736994710024" lon="8.029774349544537"><ele>273.0</ele><time>2026-04-19T07:52:17Z</time></trkpt><trkpt lat="44.87267179979638" lon="8.029852531569713"><ele>274.0</ele><time>2026-04-19T07:52:19Z</time></trkpt><trkpt lat="44.872650509442934" lon="8.02994807599925"><ele>275.0</ele><time>2026-04-19T07:52:21Z</time></trkpt><trkpt lat="44.87257392952777" lon="8.030030054632181"><ele>275.0</ele><time>2026-04-19T07:52:24Z</time></trkpt><trkpt lat="44.872495593308486" lon="8.030087881946137"><ele>275.0</ele><time>2026-04-19T07:52:25Z</time></trkpt><trkpt lat="44.872384187587635" lon="8.030022457686993"><ele>275.0</ele><time>2026-04-19T07:52:28Z</time></trkpt><trkpt lat="44.87234084787384" lon="8.0298934197169"><ele>275.0</ele><time>2026-04-19T07:52:30Z</time></trkpt><trkpt lat="44.872302876431945" lon="8.029813909370377"><ele>275.0</ele><time>2026-04-19T07:52:31Z</time></trkpt><trkpt lat="44.87223691598122" lon="8.029787441980263"><ele>275.0</ele><time>2026-04-19T07:52:36Z</time></trkpt><trkpt lat="44.87219746448358" lon="8.029717723958502"><ele>275.6</ele><time>2026-04-19T07:52:38Z</time></trkpt><trkpt lat="44.872121334383884" lon="8.02963922061785"><ele>276.2</ele><time>2026-04-19T07:52:40Z</time></trkpt><trkpt lat="44.87214764723039" lon="8.029525560014616"><ele>276.8</ele><time>2026-04-19T07:52:42Z</time></trkpt><trkpt lat="44.87221849054086" lon="8.029441538556625"><ele>277.4</ele><time>2026-04-19T07:52:44Z</time></trkpt><trkpt lat="44.872270939078696" lon="8.02934476684461"><ele>278.0</ele><time>2026-04-19T07:53:09Z</time></trkpt><trkpt lat="44.87236828254342" lon="8.029228332654576"><ele>278.0</ele><time>2026-04-19T07:53:11Z</time></trkpt><trkpt lat="44.87243395021485" lon="8.02917742966192"><ele>278.0</ele><time>2026-04-19T07:53:12Z</time></trkpt><trkpt lat="44.87248973145686" lon="8.029129218047348"><ele>278.0</ele><time>2026-04-19T07:53:13Z</time></trkpt><trkpt lat="44.872563242160886" lon="8.029096927294121"><ele>278.0</ele><time>2026-04-19T07:53:14Z</time></trkpt><trkpt lat="44.87263595623815" lon="8.029040855094872"><ele>278.0</ele><time>2026-04-19T07:53:15Z</time></trkpt><trkpt lat="44.872717794642085" lon="8.029008868963922"><ele>278.0</ele><time>2026-04-19T07:53:16Z</time></trkpt><trkpt lat="44.87282186606523" lon="8.02898246703388"><ele>277.33333333333337</ele><time>2026-04-19T07:53:17Z</time></trkpt><trkpt lat="44.872909961006144" lon="8.028958246692103"><ele>276.6666666666667</ele><time>2026-04-19T07:53:18Z</time></trkpt><trkpt lat="44.87297537174566" lon="8.028924717349943"><ele>276.0</ele><time>2026-04-19T07:53:19Z</time></trkpt><trkpt lat="44.87306747990467" lon="8.028916009170002"><ele>275.3333333333333</ele><time>2026-04-19T07:53:20Z</time></trkpt><trkpt lat="44.87314482687837" lon="8.028948113691598"><ele>274.66666666666663</ele><time>2026-04-19T07:53:21Z</time></trkpt><trkpt lat="44.87322525282225" lon="8.028947610509668"><ele>274.0</ele><time>2026-04-19T07:53:22Z</time></trkpt><trkpt lat="44.873296245463976" lon="8.028962886152941"><ele>274.0</ele><time>2026-04-19T07:53:23Z</time></trkpt><trkpt lat="44.87337104827115" lon="8.028987844263481"><ele>274.0</ele><time>2026-04-19T07:53:24Z</time></trkpt><trkpt lat="44.87344106015957" lon="8.028980220717655"><ele>274.0</ele><time>2026-04-19T07:53:25Z</time></trkpt><trkpt lat="44.8735080561023" lon="8.029017338250489"><ele>274.0</ele><time>2026-04-19T07:53:26Z</time></trkpt><trkpt lat="44.87359214254643" lon="8.02906514373989"><ele>274.0</ele><time>2026-04-19T07:53:27Z</time></trkpt><trkpt lat="44.87368511409404" lon="8.029131610583883"><ele>274.0</ele><time>2026-04-19T07:53:28Z</time></trkpt><trkpt lat="44.87377624882524" lon="8.02920786321273"><ele>276.2</ele><time>2026-04-19T07:53:29Z</time></trkpt><trkpt lat="44.873866876466785" lon="8.02928591311375"><ele>278.4</ele><time>2026-04-19T07:53:30Z</time></trkpt><trkpt lat="44.87395277334028" lon="8.029367324047906"><ele>280.6</ele><time>2026-04-19T07:53:31Z</time></trkpt><trkpt lat="44.87403726812908" lon="8.029445350229397"><ele>282.8</ele><time>2026-04-19T07:53:32Z</time></trkpt><trkpt lat="44.874119816253554" lon="8.029522711805896"><ele>285.0</ele><time>2026-04-19T07:53:33Z</time></trkpt><trkpt lat="44.874199539997015" lon="8.029597349939625"><ele>285.0</ele><time>2026-04-19T07:53:34Z</time></trkpt><trkpt lat="44.87426354847284" lon="8.029696906908292"><ele>285.0</ele><time>2026-04-19T07:53:35Z</time></trkpt><trkpt lat="44.87433990144222" lon="8.029763375863023"><ele>285.0</ele><time>2026-04-19T07:53:36Z</time></trkpt><trkpt lat="44.87442018809616" lon="8.029803595628916"><ele>285.0</ele><time>2026-04-19T07:53:37Z</time></trkpt><trkpt lat="44.87451356393215" lon="8.029828603140519"><ele>285.0</ele><time>2026-04-19T07:53:38Z</time></trkpt><trkpt lat="44.874599829215995" lon="8.029844641243514"><ele>285.0</ele><time>2026-04-19T07:53:39Z</time></trkpt><trkpt lat="44.874685699150525" lon="8.02983798631749"><ele>285.0</ele><time>2026-04-19T07:53:40Z</time></trkpt><trkpt lat="44.87476952703359" lon="8.029872866519451"><ele>285.0</ele><time>2026-04-19T07:53:41Z</time></trkpt><trkpt lat="44.87486553300767" lon="8.029888317570753"><ele>285.0</ele><time>2026-04-19T07:53:42Z</time></trkpt><trkpt lat="44.87495941355799" lon="8.029908443231854"><ele>285.0</ele><time>2026-04-19T07:53:43Z</time></trkpt><trkpt lat="44.875045050991524" lon="8.029925501932425"><ele>284.1666666666667</ele><time>2026-04-19T07:53:44Z</time></trkpt><trkpt lat="44.875120953636404" lon="8.029941504311278"><ele>283.3333333333333</ele><time>2026-04-19T07:53:45Z</time></trkpt><trkpt lat="44.875185789766135" lon="8.029958309805114"><ele>282.5</ele><time>2026-04-19T07:53:46Z</time></trkpt><trkpt lat="44.875256634588794" lon="8.029982034757436"><ele>281.66666666666663</ele><time>2026-04-19T07:53:47Z</time></trkpt><trkpt lat="44.875333922224925" lon="8.03001490585878"><ele>280.8333333333333</ele><time>2026-04-19T07:53:48Z</time></trkpt><trkpt lat="44.87541568931905" lon="8.030053567219948"><ele>280.0</ele><time>2026-04-19T07:53:49Z</time></trkpt><trkpt lat="44.87550051305194" lon="8.03009955966126"><ele>281.8</ele><time>2026-04-19T07:53:50Z</time></trkpt><trkpt lat="44.87557549915738" lon="8.030144913705074"><ele>283.6</ele><time>2026-04-19T07:53:51Z</time></trkpt><trkpt lat="44.87567276887899" lon="8.030211485144402"><ele>285.4</ele><time>2026-04-19T07:53:52Z</time></trkpt><trkpt lat="44.875764278321924" lon="8.030284261075982"><ele>287.2</ele><time>2026-04-19T07:53:53Z</time></trkpt><trkpt lat="44.875857199458174" lon="8.030363396887001"><ele>289.0</ele><time>2026-04-19T07:53:54Z</time></trkpt><trkpt lat="44.87594705886634" lon="8.030440187971806"><ele>289.0</ele><time>2026-04-19T07:53:55Z</time></trkpt><trkpt lat="44.87602586521234" lon="8.030507533384524"><ele>289.0</ele><time>2026-04-19T07:53:56Z</time></trkpt><trkpt lat="44.87610339336439" lon="8.03057268790167"><ele>289.0</ele><time>2026-04-19T07:53:57Z</time></trkpt><trkpt lat="44.876178201880776" lon="8.030629387933924"><ele>289.0</ele><time>2026-04-19T07:53:58Z</time></trkpt><trkpt lat="44.87623587587403" lon="8.030670674493075"><ele>289.0</ele><time>2026-04-19T07:53:59Z</time></trkpt><trkpt lat="44.87630719708658" lon="8.030683471883199"><ele>289.0</ele><time>2026-04-19T07:54:00Z</time></trkpt><trkpt lat="44.876415593485405" lon="8.03077565778419"><ele>289.2</ele><time>2026-04-19T07:54:02Z</time></trkpt><trkpt lat="44.87649394540451" lon="8.030827546981609"><ele>289.4</ele><time>2026-04-19T07:54:03Z</time></trkpt><trkpt lat="44.87658528504415" lon="8.030891004042198"><ele>289.6</ele><time>2026-04-19T07:54:04Z</time></trkpt><trkpt lat="44.87667775874966" lon="8.030960557653499"><ele>289.8</ele><time>2026-04-19T07:54:05Z</time></trkpt><trkpt lat="44.87676275951515" lon="8.031029953520648"><ele>290.0</ele><time>2026-04-19T07:54:06Z</time></trkpt><trkpt lat="44.87684147282335" lon="8.031102501571194"><ele>287.33333333333337</ele><time>2026-04-19T07:54:07Z</time></trkpt><trkpt lat="44.87691697463559" lon="8.031174810096253"><ele>284.6666666666667</ele><time>2026-04-19T07:54:08Z</time></trkpt><trkpt lat="44.876985653155764" lon="8.031242578709161"><ele>282.0</ele><time>2026-04-19T07:54:09Z</time></trkpt><trkpt lat="44.87705582445678" lon="8.031312749993978"><ele>279.3333333333333</ele><time>2026-04-19T07:54:10Z</time></trkpt><trkpt lat="44.8771328652805" lon="8.031365241872264"><ele>276.66666666666663</ele><time>2026-04-19T07:54:11Z</time></trkpt><trkpt lat="44.877192270728585" lon="8.031456146620116"><ele>274.0</ele><time>2026-04-19T07:54:12Z</time></trkpt><trkpt lat="44.87726815225409" lon="8.031516237386299"><ele>274.0</ele><time>2026-04-19T07:54:13Z</time></trkpt><trkpt lat="44.87732113373989" lon="8.031597566972739"><ele>274.0</ele><time>2026-04-19T07:54:14Z</time></trkpt><trkpt lat="44.877382993628345" lon="8.03166611848202"><ele>274.0</ele><time>2026-04-19T07:54:15Z</time></trkpt><trkpt lat="44.87744506307289" lon="8.031736003011682"><ele>274.0</ele><time>2026-04-19T07:54:16Z</time></trkpt><trkpt lat="44.877516386398554" lon="8.031816308200398"><ele>274.0</ele><time>2026-04-19T07:54:17Z</time></trkpt><trkpt lat="44.87757330657447" lon="8.031863379592574"><ele>274.0</ele><time>2026-04-19T07:54:18Z</time></trkpt><trkpt lat="44.87762113587107" lon="8.031921709743456"><ele>273.5</ele><time>2026-04-19T07:54:21Z</time></trkpt><trkpt lat="44.87775499329508" lon="8.03226304667747"><ele>273.0</ele><time>2026-04-19T07:54:33Z</time></trkpt><trkpt lat="44.877744727507924" lon="8.031703163337829"><ele>273.0</ele><time>2026-04-19T07:54:34Z</time></trkpt><trkpt lat="44.87788458694363" lon="8.031742112291568"><ele>273.0</ele><time>2026-04-19T07:54:37Z</time></trkpt><trkpt lat="44.877954401541544" lon="8.03183277728871"><ele>273.0</ele><time>2026-04-19T07:54:39Z</time></trkpt><trkpt lat="44.87801397247914" lon="8.031902370661795"><ele>273.0</ele><time>2026-04-19T07:54:41Z</time></trkpt><trkpt lat="44.878087591158554" lon="8.031821538211865"><ele>273.0</ele><time>2026-04-19T07:54:44Z</time></trkpt><trkpt lat="44.87813162325274" lon="8.031708357577541"><ele>271.0</ele><time>2026-04-19T07:54:46Z</time></trkpt><trkpt lat="44.87815864231019" lon="8.031618430288601"><ele>269.0</ele><time>2026-04-19T07:54:47Z</time></trkpt><trkpt lat="44.87817550665849" lon="8.031514745772348"><ele>267.0</ele><time>2026-04-19T07:54:48Z</time></trkpt><trkpt lat="44.878232297732794" lon="8.031362199891065"><ele>265.0</ele><time>2026-04-19T07:54:50Z</time></trkpt><trkpt lat="44.87827516848273" lon="8.031294445028362"><ele>263.0</ele><time>2026-04-19T07:54:51Z</time></trkpt><trkpt lat="44.87833001859843" lon="8.031221563411414"><ele>261.0</ele><time>2026-04-19T07:54:52Z</time></trkpt><trkpt lat="44.87835436032743" lon="8.031120614672778"><ele>261.0</ele><time>2026-04-19T07:54:55Z</time></trkpt><trkpt lat="44.878365614634355" lon="8.030983153570453"><ele>261.0</ele><time>2026-04-19T07:54:57Z</time></trkpt><trkpt lat="44.87836287607332" lon="8.030830260665798"><ele>261.0</ele><time>2026-04-19T07:54:59Z</time></trkpt><trkpt lat="44.87828976857319" lon="8.030712781180426"><ele>261.0</ele><time>2026-04-19T07:55:01Z</time></trkpt><trkpt lat="44.87823399998103" lon="8.03060215031592"><ele>261.0</ele><time>2026-04-19T07:55:03Z</time></trkpt><trkpt lat="44.878202308232396" lon="8.03050021781998"><ele>258.6666666666667</ele><time>2026-04-19T07:55:06Z</time></trkpt><trkpt lat="44.87823191291398" lon="8.030391096629627"><ele>256.3333333333333</ele><time>2026-04-19T07:55:09Z</time></trkpt><trkpt lat="44.87827034434332" lon="8.030307888022953"><ele>254.0</ele><time>2026-04-19T07:55:12Z</time></trkpt><trkpt lat="44.87831080059421" lon="8.030166100087115"><ele>251.66666666666666</ele><time>2026-04-19T07:55:14Z</time></trkpt><trkpt lat="44.87836296324403" lon="8.03009950298871"><ele>249.33333333333331</ele><time>2026-04-19T07:55:15Z</time></trkpt><trkpt lat="44.87839873884359" lon="8.029951015701192"><ele>247.0</ele><time>2026-04-19T07:55:17Z</time></trkpt><trkpt lat="44.87841903290257" lon="8.02983644807096"><ele>244.16666666666666</ele><time>2026-04-19T07:55:19Z</time></trkpt><trkpt lat="44.87844489560948" lon="8.029699294081471"><ele>241.33333333333331</ele><time>2026-04-19T07:55:21Z</time></trkpt><trkpt lat="44.878496820284255" lon="8.029606789894366"><ele>238.5</ele><time>2026-04-19T07:55:23Z</time></trkpt><trkpt lat="44.878534717478765" lon="8.029498435684031"><ele>235.66666666666669</ele><time>2026-04-19T07:55:26Z</time></trkpt><trkpt lat="44.87854522165155" lon="8.029402963320246"><ele>232.83333333333334</ele><time>2026-04-19T07:55:28Z</time></trkpt><trkpt lat="44.878560933517996" lon="8.029292368723903"><ele>230.0</ele><time>2026-04-19T07:55:31Z</time></trkpt><trkpt lat="44.87855898958161" lon="8.029149881547628"><ele>229.33333333333334</ele><time>2026-04-19T07:55:33Z</time></trkpt><trkpt lat="44.87858745530286" lon="8.02900804702508"><ele>228.66666666666669</ele><time>2026-04-19T07:55:34Z</time></trkpt><trkpt lat="44.87859780951264" lon="8.02891120512362"><ele>228.0</ele><time>2026-04-19T07:55:35Z</time></trkpt><trkpt lat="44.87861572591232" lon="8.028821950297893"><ele>227.33333333333331</ele><time>2026-04-19T07:55:36Z</time></trkpt><trkpt lat="44.8786514893202" lon="8.028701464887373"><ele>226.66666666666666</ele><time>2026-04-19T07:55:38Z</time></trkpt><trkpt lat="44.87868634927465" lon="8.028599292721024"><ele>226.0</ele><time>2026-04-19T07:55:41Z</time></trkpt><trkpt lat="44.878724226020616" lon="8.028474079671009"><ele>225.99999999999997</ele><time>2026-04-19T07:55:44Z</time></trkpt><trkpt lat="44.87876652925983" lon="8.028401383574476"><ele>226.0</ele><time>2026-04-19T07:55:45Z</time></trkpt><trkpt lat="44.87878888091822" lon="8.028313326512224"><ele>226.0</ele><time>2026-04-19T07:55:46Z</time></trkpt><trkpt lat="44.87883421600049" lon="8.028244589468564"><ele>226.0</ele><time>2026-04-19T07:55:49Z</time></trkpt><trkpt lat="44.87889631192954" lon="8.028161927800427"><ele>225.99999999999997</ele><time>2026-04-19T07:55:51Z</time></trkpt><trkpt lat="44.87897503461561" lon="8.028089857056061"><ele>226.0</ele><time>2026-04-19T07:55:53Z</time></trkpt><trkpt lat="44.87905526950791" lon="8.028064041899201"><ele>227.60000000000002</ele><time>2026-04-19T07:55:55Z</time></trkpt><trkpt lat="44.879125833713346" lon="8.028053433321572"><ele>229.20000000000002</ele><time>2026-04-19T07:55:57Z</time></trkpt><trkpt lat="44.87919728528027" lon="8.028094030491479"><ele>230.79999999999998</ele><time>2026-04-19T07:55:59Z</time></trkpt><trkpt lat="44.87928965426972" lon="8.02813760332763"><ele>232.39999999999998</ele><time>2026-04-19T07:56:01Z</time></trkpt><trkpt lat="44.87939347622289" lon="8.028172063626382"><ele>234.0</ele><time>2026-04-19T07:56:03Z</time></trkpt><trkpt lat="44.87952259061832" lon="8.028191427147437"><ele>234.0</ele><time>2026-04-19T07:56:05Z</time></trkpt><trkpt lat="44.87959393667704" lon="8.028280265503346"><ele>234.0</ele><time>2026-04-19T07:56:07Z</time></trkpt><trkpt lat="44.879729431880946" lon="8.028354211386572"><ele>234.0</ele><time>2026-04-19T07:56:09Z</time></trkpt><trkpt lat="44.87997953230954" lon="8.028388158653584"><ele>232.33333333333334</ele><time>2026-04-19T07:56:11Z</time></trkpt><trkpt lat="44.88006372978524" lon="8.028345306964058"><ele>230.66666666666669</ele><time>2026-04-19T07:56:12Z</time></trkpt><trkpt lat="44.880133009099616" lon="8.02829846673871"><ele>229.0</ele><time>2026-04-19T07:56:13Z</time></trkpt><trkpt lat="44.880209846789086" lon="8.028247536115297"><ele>227.33333333333334</ele><time>2026-04-19T07:56:14Z</time></trkpt><trkpt lat="44.88027607763093" lon="8.028213201442844"><ele>225.66666666666669</ele><time>2026-04-19T07:56:15Z</time></trkpt><trkpt lat="44.88038067672533" lon="8.028267535236308"><ele>224.0</ele><time>2026-04-19T07:56:17Z</time></trkpt><trkpt lat="44.88045074115694" lon="8.028252147519181"><ele>223.2</ele><time>2026-04-19T07:56:19Z</time></trkpt><trkpt lat="44.8805549371874" lon="8.02814159904226"><ele>222.39999999999998</ele><time>2026-04-19T07:56:21Z</time></trkpt><trkpt lat="44.88063021924623" lon="8.028066894192245"><ele>221.6</ele><time>2026-04-19T07:56:22Z</time></trkpt><trkpt lat="44.88066623058466" lon="8.027989883772229"><ele>220.8</ele><time>2026-04-19T07:56:23Z</time></trkpt><trkpt lat="44.88080197780781" lon="8.02801433738843"><ele>220.0</ele><time>2026-04-19T07:56:28Z</time></trkpt><trkpt lat="44.88088137583167" lon="8.028129502382418"><ele>219.99999999999997</ele><time>2026-04-19T07:56:30Z</time></trkpt><trkpt lat="44.880924968488216" lon="8.028214014318637"><ele>220.0</ele><time>2026-04-19T07:56:31Z</time></trkpt><trkpt lat="44.88094922456323" lon="8.028299026780816"><ele>220.0</ele><time>2026-04-19T07:56:32Z</time></trkpt><trkpt lat="44.88099909077788" lon="8.028409965169034"><ele>220.0</ele><time>2026-04-19T07:56:33Z</time></trkpt><trkpt lat="44.88105154017344" lon="8.028487671536665"><ele>219.99999999999997</ele><time>2026-04-19T07:56:34Z</time></trkpt><trkpt lat="44.88110001230895" lon="8.028556674556764"><ele>220.0</ele><time>2026-04-19T07:56:35Z</time></trkpt><trkpt lat="44.88120589609077" lon="8.028654335796094"><ele>222.8</ele><time>2026-04-19T07:56:37Z</time></trkpt><trkpt lat="44.881268613204846" lon="8.028687591803713"><ele>225.6</ele><time>2026-04-19T07:56:38Z</time></trkpt><trkpt lat="44.88138212507028" lon="8.028768924787798"><ele>228.39999999999998</ele><time>2026-04-19T07:56:40Z</time></trkpt><trkpt lat="44.88144127271089" lon="8.028870909231944"><ele>231.2</ele><time>2026-04-19T07:56:42Z</time></trkpt><trkpt lat="44.88153576282548" lon="8.028934709673353"><ele>234.0</ele><time>2026-04-19T07:56:44Z</time></trkpt><trkpt lat="44.881606464811405" lon="8.029028796219478"><ele>234.0</ele><time>2026-04-19T07:56:46Z</time></trkpt><trkpt lat="44.881678181434566" lon="8.02912954945236"><ele>234.0</ele><time>2026-04-19T07:56:48Z</time></trkpt><trkpt lat="44.8817671025287" lon="8.029222848134546"><ele>234.0</ele><time>2026-04-19T07:56:50Z</time></trkpt><trkpt lat="44.88183020973896" lon="8.02930450461227"><ele>234.0</ele><time>2026-04-19T07:56:52Z</time></trkpt><trkpt lat="44.88181420528993" lon="8.029394842321844"><ele>234.0</ele><time>2026-04-19T07:56:54Z</time></trkpt><trkpt lat="44.881801229649604" lon="8.0295050805241"><ele>234.0</ele><time>2026-04-19T07:56:56Z</time></trkpt><trkpt lat="44.88176234155336" lon="8.02966920151168"><ele>235.33333333333334</ele><time>2026-04-19T07:56:58Z</time></trkpt><trkpt lat="44.88173465922948" lon="8.029781462682942"><ele>236.66666666666669</ele><time>2026-04-19T07:56:59Z</time></trkpt><trkpt lat="44.88171052517917" lon="8.029868431654943"><ele>238.0</ele><time>2026-04-19T07:57:00Z</time></trkpt><trkpt lat="44.881782620066026" lon="8.029842389662448"><ele>239.33333333333334</ele><time>2026-04-19T07:57:06Z</time></trkpt><trkpt lat="44.88184296550107" lon="8.029751162029669"><ele>240.66666666666669</ele><time>2026-04-19T07:57:08Z</time></trkpt><trkpt lat="44.88190872762255" lon="8.0296376020894"><ele>242.0</ele><time>2026-04-19T07:57:10Z</time></trkpt><trkpt lat="44.88194447908865" lon="8.029474284044278"><ele>243.33333333333334</ele><time>2026-04-19T07:57:11Z</time></trkpt><trkpt lat="44.88200306081284" lon="8.029379871717511"><ele>244.66666666666669</ele><time>2026-04-19T07:57:12Z</time></trkpt><trkpt lat="44.88204591343439" lon="8.029284670449238"><ele>246.0</ele><time>2026-04-19T07:57:13Z</time></trkpt><trkpt lat="44.88209966113867" lon="8.029188243377758"><ele>247.33333333333331</ele><time>2026-04-19T07:57:14Z</time></trkpt><trkpt lat="44.882166233693354" lon="8.029063031820675"><ele>248.66666666666666</ele><time>2026-04-19T07:57:15Z</time></trkpt><trkpt lat="44.882209145243145" lon="8.028974128649242"><ele>250.0</ele><time>2026-04-19T07:57:16Z</time></trkpt><trkpt lat="44.88215344299444" lon="8.02883045842621"><ele>250.85714285714283</ele><time>2026-04-19T07:57:18Z</time></trkpt><trkpt lat="44.88211313302471" lon="8.028734860218595"><ele>251.71428571428572</ele><time>2026-04-19T07:57:19Z</time></trkpt><trkpt lat="44.88209747905953" lon="8.02864508629503"><ele>252.57142857142856</ele><time>2026-04-19T07:57:20Z</time></trkpt><trkpt lat="44.88210667558545" lon="8.028510527568399"><ele>253.42857142857142</ele><time>2026-04-19T07:57:22Z</time></trkpt><trkpt lat="44.882175469355616" lon="8.028467673996222"><ele>254.28571428571428</ele><time>2026-04-19T07:57:24Z</time></trkpt><trkpt lat="44.88224111763942" lon="8.02845731664319"><ele>255.14285714285714</ele><time>2026-04-19T07:57:38Z</time></trkpt><trkpt lat="44.88219695863372" lon="8.028387365710726"><ele>256.0</ele><time>2026-04-19T07:57:44Z</time></trkpt><trkpt lat="44.88210241302258" lon="8.028369653088612"><ele>253.0</ele><time>2026-04-19T07:57:48Z</time></trkpt><trkpt lat="44.88207288185582" lon="8.028289519747561"><ele>250.00000000000003</ele><time>2026-04-19T07:57:51Z</time></trkpt><trkpt lat="44.88213261588173" lon="8.028181380723185"><ele>247.00000000000003</ele><time>2026-04-19T07:57:53Z</time></trkpt><trkpt lat="44.88219518501482" lon="8.02807889206485"><ele>244.0</ele><time>2026-04-19T07:57:55Z</time></trkpt><trkpt lat="44.88227961634299" lon="8.027982733139753"><ele>241.0</ele><time>2026-04-19T07:57:57Z</time></trkpt><trkpt lat="44.88234641707045" lon="8.027833965351565"><ele>240.99999999999997</ele><time>2026-04-19T07:57:59Z</time></trkpt><trkpt lat="44.882424292435445" lon="8.027739641073838"><ele>241.0</ele><time>2026-04-19T07:58:01Z</time></trkpt><trkpt lat="44.88252586329802" lon="8.027727959311614"><ele>241.0</ele><time>2026-04-19T07:58:05Z</time></trkpt><trkpt lat="44.88262202996283" lon="8.02769838048529"><ele>241.0</ele><time>2026-04-19T07:58:07Z</time></trkpt><trkpt lat="44.88268965057558" lon="8.0276684664727"><ele>240.99999999999997</ele><time>2026-04-19T07:58:09Z</time></trkpt><trkpt lat="44.88274778653372" lon="8.027617406306105"><ele>241.0</ele><time>2026-04-19T07:58:11Z</time></trkpt><trkpt lat="44.88276363229356" lon="8.02752598107418"><ele>238.99999999999997</ele><time>2026-04-19T07:58:13Z</time></trkpt><trkpt lat="44.88278866063981" lon="8.027400759598953"><ele>237.0</ele><time>2026-04-19T07:58:15Z</time></trkpt><trkpt lat="44.88280405427222" lon="8.027293198487419"><ele>235.0</ele><time>2026-04-19T07:58:17Z</time></trkpt><trkpt lat="44.882826236915186" lon="8.027187258715177"><ele>233.0</ele><time>2026-04-19T07:58:21Z</time></trkpt><trkpt lat="44.882837576635595" lon="8.027074210749337"><ele>230.99999999999997</ele><time>2026-04-19T07:58:23Z</time></trkpt><trkpt lat="44.882842395603824" lon="8.026914237315426"><ele>229.0</ele><time>2026-04-19T07:58:25Z</time></trkpt><trkpt lat="44.88284372867907" lon="8.026786200592692"><ele>228.99999999999997</ele><time>2026-04-19T07:58:27Z</time></trkpt><trkpt lat="44.8828219345794" lon="8.026699868990802"><ele>229.0</ele><time>2026-04-19T07:58:28Z</time></trkpt><trkpt lat="44.88280568293094" lon="8.026580023290265"><ele>229.0</ele><time>2026-04-19T07:58:30Z</time></trkpt><trkpt lat="44.88276592257362" lon="8.026444733255962"><ele>229.0</ele><time>2026-04-19T07:58:32Z</time></trkpt><trkpt lat="44.88274391632205" lon="8.026347819643128"><ele>228.99999999999997</ele><time>2026-04-19T07:58:34Z</time></trkpt><trkpt lat="44.88268934679902" lon="8.026303259110062"><ele>229.0</ele><time>2026-04-19T07:58:36Z</time></trkpt><trkpt lat="44.88262117182345" lon="8.026239123166025"><ele>227.66666666666666</ele><time>2026-04-19T07:58:40Z</time></trkpt><trkpt lat="44.8825980122892" lon="8.026127538908371"><ele>226.33333333333331</ele><time>2026-04-19T07:58:42Z</time></trkpt><trkpt lat="44.88256196124073" lon="8.026041156212267"><ele>225.0</ele><time>2026-04-19T07:58:44Z</time></trkpt><trkpt lat="44.88248575181085" lon="8.026007596446004"><ele>223.66666666666669</ele><time>2026-04-19T07:58:47Z</time></trkpt><trkpt lat="44.88245044454203" lon="8.0259236420063"><ele>222.33333333333334</ele><time>2026-04-19T07:58:54Z</time></trkpt><trkpt lat="44.88248889367042" lon="8.025734760908938"><ele>221.0</ele><time>2026-04-19T07:58:56Z</time></trkpt><trkpt lat="44.88250112061089" lon="8.025643652137264"><ele>221.0</ele><time>2026-04-19T07:58:57Z</time></trkpt><trkpt lat="44.88252655503512" lon="8.025543330444162"><ele>221.00000000000003</ele><time>2026-04-19T07:58:59Z</time></trkpt><trkpt lat="44.882579524215906" lon="8.025444679084227"><ele>221.00000000000003</ele><time>2026-04-19T07:59:00Z</time></trkpt><trkpt lat="44.88269464087381" lon="8.02541473024296"><ele>221.0</ele><time>2026-04-19T07:59:01Z</time></trkpt><trkpt lat="44.88278758139881" lon="8.025326476196668"><ele>221.0</ele><time>2026-04-19T07:59:02Z</time></trkpt><trkpt lat="44.88287099469362" lon="8.025266103400911"><ele>218.8</ele><time>2026-04-19T07:59:03Z</time></trkpt><trkpt lat="44.88295769382632" lon="8.025175007763666"><ele>216.60000000000002</ele><time>2026-04-19T07:59:04Z</time></trkpt><trkpt lat="44.88306170173745" lon="8.025114061879115"><ele>214.4</ele><time>2026-04-19T07:59:05Z</time></trkpt><trkpt lat="44.88315240327934" lon="8.02506329759273"><ele>212.2</ele><time>2026-04-19T07:59:06Z</time></trkpt><trkpt lat="44.88324809051946" lon="8.02503229777551"><ele>210.0</ele><time>2026-04-19T07:59:07Z</time></trkpt><trkpt lat="44.88336189607657" lon="8.02501337217931"><ele>210.2</ele><time>2026-04-19T07:59:08Z</time></trkpt><trkpt lat="44.88346417329882" lon="8.024976203379321"><ele>210.4</ele><time>2026-04-19T07:59:09Z</time></trkpt><trkpt lat="44.88356599052628" lon="8.024945515031213"><ele>210.60000000000002</ele><time>2026-04-19T07:59:10Z</time></trkpt><trkpt lat="44.88368041245023" lon="8.024955461750578"><ele>210.8</ele><time>2026-04-19T07:59:11Z</time></trkpt><trkpt lat="44.883783600403156" lon="8.024981458309513"><ele>211.0</ele><time>2026-04-19T07:59:12Z</time></trkpt><trkpt lat="44.88386109042075" lon="8.024952425885072"><ele>211.0</ele><time>2026-04-19T07:59:13Z</time></trkpt><trkpt lat="44.88394647443159" lon="8.02492528147918"><ele>211.0</ele><time>2026-04-19T07:59:14Z</time></trkpt><trkpt lat="44.88402700271024" lon="8.024890659366674"><ele>211.0</ele><time>2026-04-19T07:59:15Z</time></trkpt><trkpt lat="44.8841209516312" lon="8.024816158366221"><ele>211.0</ele><time>2026-04-19T07:59:16Z</time></trkpt><trkpt lat="44.884214459205396" lon="8.024715244339326"><ele>211.0</ele><time>2026-04-19T07:59:17Z</time></trkpt><trkpt lat="44.88431870470798" lon="8.024568947323765"><ele>210.20000000000002</ele><time>2026-04-19T07:59:18Z</time></trkpt><trkpt lat="44.884418415661074" lon="8.024507839163844"><ele>209.4</ele><time>2026-04-19T07:59:19Z</time></trkpt><trkpt lat="44.8844900847673" lon="8.024443118374034"><ele>208.6</ele><time>2026-04-19T07:59:20Z</time></trkpt><trkpt lat="44.884548077036335" lon="8.024348458810653"><ele>207.8</ele><time>2026-04-19T07:59:21Z</time></trkpt><trkpt lat="44.884621756698245" lon="8.02424015889354"><ele>207.0</ele><time>2026-04-19T07:59:22Z</time></trkpt><trkpt lat="44.88470035330564" lon="8.024110730490031"><ele>207.0</ele><time>2026-04-19T07:59:23Z</time></trkpt><trkpt lat="44.884780495454976" lon="8.023997402981259"><ele>207.0</ele><time>2026-04-19T07:59:24Z</time></trkpt><trkpt lat="44.88486870734937" lon="8.023886189077068"><ele>207.0</ele><time>2026-04-19T07:59:25Z</time></trkpt><trkpt lat="44.88494585164884" lon="8.023758552930687"><ele>207.0</ele><time>2026-04-19T07:59:26Z</time></trkpt><trkpt lat="44.88503586534627" lon="8.023650908518187"><ele>206.75</ele><time>2026-04-19T07:59:27Z</time></trkpt><trkpt lat="44.88512882099929" lon="8.023503676963864"><ele>206.5</ele><time>2026-04-19T07:59:28Z</time></trkpt><trkpt lat="44.885209072547575" lon="8.023365353171114"><ele>206.25</ele><time>2026-04-19T07:59:29Z</time></trkpt><trkpt lat="44.88528634380899" lon="8.023197765580493"><ele>206.0</ele><time>2026-04-19T07:59:30Z</time></trkpt><trkpt lat="44.885371305717605" lon="8.023067367294034"><ele>204.25</ele><time>2026-04-19T07:59:31Z</time></trkpt><trkpt lat="44.88544578445696" lon="8.02295893791163"><ele>202.5</ele><time>2026-04-19T07:59:32Z</time></trkpt><trkpt lat="44.88551480943517" lon="8.02282878132051"><ele>200.75</ele><time>2026-04-19T07:59:33Z</time></trkpt><trkpt lat="44.885587907704505" lon="8.02269420876221"><ele>199.0</ele><time>2026-04-19T07:59:34Z</time></trkpt><trkpt lat="44.88566337586029" lon="8.022530757575128"><ele>198.99999999999997</ele><time>2026-04-19T07:59:35Z</time></trkpt><trkpt lat="44.88573696324273" lon="8.022421750679216"><ele>199.0</ele><time>2026-04-19T07:59:36Z</time></trkpt><trkpt lat="44.88579485175277" lon="8.02232521523931"><ele>199.0</ele><time>2026-04-19T07:59:37Z</time></trkpt><trkpt lat="44.885848574217256" lon="8.02223043747529"><ele>199.0</ele><time>2026-04-19T07:59:38Z</time></trkpt><trkpt lat="44.88587984510155" lon="8.022134832320486"><ele>198.99999999999997</ele><time>2026-04-19T07:59:39Z</time></trkpt><trkpt lat="44.88593601168112" lon="8.022032266758373"><ele>199.0</ele><time>2026-04-19T07:59:41Z</time></trkpt><trkpt lat="44.885894653577466" lon="8.0219406822495"><ele>198.79999999999998</ele><time>2026-04-19T07:59:45Z</time></trkpt><trkpt lat="44.88581564153843" lon="8.021918330149392"><ele>198.6</ele><time>2026-04-19T07:59:47Z</time></trkpt><trkpt lat="44.88574915948856" lon="8.021866622646955"><ele>198.4</ele><time>2026-04-19T07:59:48Z</time></trkpt><trkpt lat="44.88566496631225" lon="8.021790862888675"><ele>198.2</ele><time>2026-04-19T07:59:49Z</time></trkpt><trkpt lat="44.88556825256295" lon="8.02171908218074"><ele>198.0</ele><time>2026-04-19T07:59:50Z</time></trkpt><trkpt lat="44.88547406120157" lon="8.02164883543056"><ele>197.8</ele><time>2026-04-19T07:59:51Z</time></trkpt><trkpt lat="44.885372628853204" lon="8.02158112984017"><ele>197.60000000000002</ele><time>2026-04-19T07:59:52Z</time></trkpt><trkpt lat="44.885270991468495" lon="8.02151721965505"><ele>197.39999999999998</ele><time>2026-04-19T07:59:53Z</time></trkpt><trkpt lat="44.88516987494069" lon="8.021449140873315"><ele>197.2</ele><time>2026-04-19T07:59:54Z</time></trkpt><trkpt lat="44.88507742127914" lon="8.021383780256734"><ele>197.0</ele><time>2026-04-19T07:59:55Z</time></trkpt><trkpt lat="44.88499881814147" lon="8.021337664683053"><ele>199.39999999999998</ele><time>2026-04-19T07:59:56Z</time></trkpt><trkpt lat="44.884915302074184" lon="8.021314834460147"><ele>201.79999999999998</ele><time>2026-04-19T07:59:57Z</time></trkpt><trkpt lat="44.8848212133977" lon="8.021319775649568"><ele>204.2</ele><time>2026-04-19T07:59:58Z</time></trkpt><trkpt lat="44.88472042693935" lon="8.021333574970674"><ele>206.6</ele><time>2026-04-19T07:59:59Z</time></trkpt><trkpt lat="44.884621941578835" lon="8.021335476297748"><ele>209.0</ele><time>2026-04-19T08:00:00Z</time></trkpt><trkpt lat="44.88451525575163" lon="8.02130935367694"><ele>209.0</ele><time>2026-04-19T08:00:01Z</time></trkpt><trkpt lat="44.88441149338308" lon="8.021282513839479"><ele>209.0</ele><time>2026-04-19T08:00:02Z</time></trkpt><trkpt lat="44.88429951979897" lon="8.021260950319137"><ele>209.0</ele><time>2026-04-19T08:00:03Z</time></trkpt><trkpt lat="44.884219810219314" lon="8.021266629227053"><ele>209.0</ele><time>2026-04-19T08:00:04Z</time></trkpt><trkpt lat="44.88412564115412" lon="8.021262748876682"><ele>209.0</ele><time>2026-04-19T08:00:05Z</time></trkpt><trkpt lat="44.88403765655812" lon="8.021260880701576"><ele>210.0</ele><time>2026-04-19T08:00:06Z</time></trkpt><trkpt lat="44.88395590881107" lon="8.021357752822347"><ele>211.0</ele><time>2026-04-19T08:00:07Z</time></trkpt><trkpt lat="44.883855427733195" lon="8.021414231392107"><ele>211.99999999999997</ele><time>2026-04-19T08:00:08Z</time></trkpt><trkpt lat="44.88375840521306" lon="8.02145224617261"><ele>213.0</ele><time>2026-04-19T08:00:09Z</time></trkpt><trkpt lat="44.883675790177236" lon="8.021513733175153"><ele>214.0</ele><time>2026-04-19T08:00:10Z</time></trkpt><trkpt lat="44.88362451260048" lon="8.021611734290504"><ele>213.75</ele><time>2026-04-19T08:00:11Z</time></trkpt><trkpt lat="44.88350618495917" lon="8.021707399306086"><ele>213.5</ele><time>2026-04-19T08:00:13Z</time></trkpt><trkpt lat="44.88342445511471" lon="8.021715252259845"><ele>213.25</ele><time>2026-04-19T08:00:14Z</time></trkpt><trkpt lat="44.88328730696766" lon="8.021749739336203"><ele>213.0</ele><time>2026-04-19T08:00:15Z</time></trkpt><trkpt lat="44.88317472546987" lon="8.021791702742654"><ele>213.0</ele><time>2026-04-19T08:00:16Z</time></trkpt><trkpt lat="44.88305454674395" lon="8.021844411761514"><ele>213.0</ele><time>2026-04-19T08:00:17Z</time></trkpt><trkpt lat="44.88292394626898" lon="8.021884098389789"><ele>213.0</ele><time>2026-04-19T08:00:18Z</time></trkpt><trkpt lat="44.88281369312503" lon="8.02193676880366"><ele>213.0</ele><time>2026-04-19T08:00:19Z</time></trkpt><trkpt lat="44.8826947968744" lon="8.021969876792916"><ele>213.0</ele><time>2026-04-19T08:00:20Z</time></trkpt><trkpt lat="44.88260170251642" lon="8.021977109301647"><ele>213.0</ele><time>2026-04-19T08:00:21Z</time></trkpt><trkpt lat="44.88250770051171" lon="8.02197921122196"><ele>213.0</ele><time>2026-04-19T08:00:22Z</time></trkpt><trkpt lat="44.882400073238514" lon="8.021989131937215"><ele>213.0</ele><time>2026-04-19T08:00:23Z</time></trkpt><trkpt lat="44.88231019578782" lon="8.02197193405951"><ele>213.0</ele><time>2026-04-19T08:00:24Z</time></trkpt><trkpt lat="44.88224990884147" lon="8.021942759953381"><ele>213.83333333333334</ele><time>2026-04-19T08:00:25Z</time></trkpt><trkpt lat="44.882171729550066" lon="8.021890116357666"><ele>214.66666666666669</ele><time>2026-04-19T08:00:26Z</time></trkpt><trkpt lat="44.882084575237805" lon="8.021833161648958"><ele>215.5</ele><time>2026-04-19T08:00:27Z</time></trkpt><trkpt lat="44.881988827246126" lon="8.021766266634897"><ele>216.33333333333334</ele><time>2026-04-19T08:00:28Z</time></trkpt><trkpt lat="44.88192872516242" lon="8.021726546553806"><ele>217.16666666666669</ele><time>2026-04-19T08:00:29Z</time></trkpt><trkpt lat="44.88184947411478" lon="8.021683387247768"><ele>218.0</ele><time>2026-04-19T08:00:30Z</time></trkpt><trkpt lat="44.88176048002677" lon="8.021632103113745"><ele>222.0</ele><time>2026-04-19T08:00:31Z</time></trkpt><trkpt lat="44.881655888116526" lon="8.02157723363713"><ele>226.0</ele><time>2026-04-19T08:00:33Z</time></trkpt><trkpt lat="44.88165872750552" lon="8.0214674111115"><ele>230.0</ele><time>2026-04-19T08:00:35Z</time></trkpt><trkpt lat="44.88160944660066" lon="8.021346111145945"><ele>234.0</ele><time>2026-04-19T08:00:37Z</time></trkpt><trkpt lat="44.881530864170585" lon="8.021259697337175"><ele>238.0</ele><time>2026-04-19T08:00:39Z</time></trkpt><trkpt lat="44.881465909323175" lon="8.021254832981286"><ele>238.0</ele><time>2026-04-19T08:00:41Z</time></trkpt><trkpt lat="44.88135874632967" lon="8.021244600345407"><ele>238.0</ele><time>2026-04-19T08:00:43Z</time></trkpt><trkpt lat="44.88129182236923" lon="8.021203101457473"><ele>238.0</ele><time>2026-04-19T08:00:44Z</time></trkpt><trkpt lat="44.881214635482564" lon="8.02117480369057"><ele>238.0</ele><time>2026-04-19T08:00:45Z</time></trkpt><trkpt lat="44.88111341958023" lon="8.021183021587303"><ele>238.0</ele><time>2026-04-19T08:00:47Z</time></trkpt><trkpt lat="44.88101188892673" lon="8.021208544709097"><ele>240.60000000000002</ele><time>2026-04-19T08:00:49Z</time></trkpt><trkpt lat="44.88088519971363" lon="8.021244305148482"><ele>243.20000000000002</ele><time>2026-04-19T08:00:51Z</time></trkpt><trkpt lat="44.88080352445195" lon="8.02126069094807"><ele>245.8</ele><time>2026-04-19T08:00:52Z</time></trkpt><trkpt lat="44.88072274618248" lon="8.021314814905434"><ele>248.4</ele><time>2026-04-19T08:00:53Z</time></trkpt><trkpt lat="44.88064517205231" lon="8.021345476088527"><ele>251.0</ele><time>2026-04-19T08:00:54Z</time></trkpt><trkpt lat="44.88057852135957" lon="8.021363710093903"><ele>251.0</ele><time>2026-04-19T08:00:55Z</time></trkpt><trkpt lat="44.88048777202191" lon="8.02138956954475"><ele>251.00000000000003</ele><time>2026-04-19T08:00:57Z</time></trkpt><trkpt lat="44.88039901707234" lon="8.021365750941067"><ele>251.00000000000003</ele><time>2026-04-19T08:00:59Z</time></trkpt><trkpt lat="44.880332138966985" lon="8.021336027348557"><ele>251.0</ele><time>2026-04-19T08:01:00Z</time></trkpt><trkpt lat="44.88022061432622" lon="8.021299294048795"><ele>251.0</ele><time>2026-04-19T08:01:02Z</time></trkpt><trkpt lat="44.88011754726637" lon="8.021297406827124"><ele>253.00000000000003</ele><time>2026-04-19T08:01:04Z</time></trkpt><trkpt lat="44.88005369106144" lon="8.021320385534743"><ele>255.0</ele><time>2026-04-19T08:01:05Z</time></trkpt><trkpt lat="44.87998648087826" lon="8.021375716730127"><ele>257.0</ele><time>2026-04-19T08:01:06Z</time></trkpt><trkpt lat="44.87992843594208" lon="8.021418244682303"><ele>259.0</ele><time>2026-04-19T08:01:07Z</time></trkpt><trkpt lat="44.87985602982511" lon="8.021340713877061"><ele>261.0</ele><time>2026-04-19T08:01:09Z</time></trkpt><trkpt lat="44.87984438738072" lon="8.021224124736916"><ele>263.0</ele><time>2026-04-19T08:01:11Z</time></trkpt><trkpt lat="44.87984661837124" lon="8.02111267506719"><ele>263.0</ele><time>2026-04-19T08:01:13Z</time></trkpt><trkpt lat="44.87989995308351" lon="8.02102366750096"><ele>263.0</ele><time>2026-04-19T08:01:15Z</time></trkpt><trkpt lat="44.879887424015756" lon="8.02091708820673"><ele>263.0</ele><time>2026-04-19T08:01:17Z</time></trkpt><trkpt lat="44.879903587120516" lon="8.020826984610325"><ele>263.0</ele><time>2026-04-19T08:01:19Z</time></trkpt><trkpt lat="44.87995084813554" lon="8.020749575980986"><ele>263.0</ele><time>2026-04-19T08:01:20Z</time></trkpt><trkpt lat="44.88001969756504" lon="8.020659539476782"><ele>263.0</ele><time>2026-04-19T08:01:21Z</time></trkpt><trkpt lat="44.880084735866276" lon="8.020569584273634"><ele>261.8</ele><time>2026-04-19T08:01:22Z</time></trkpt><trkpt lat="44.88012982799887" lon="8.020504138990503"><ele>260.6</ele><time>2026-04-19T08:01:23Z</time></trkpt><trkpt lat="44.880110325069275" lon="8.020348343299027"><ele>259.4</ele><time>2026-04-19T08:01:25Z</time></trkpt><trkpt lat="44.88004930699592" lon="8.020244730979694"><ele>258.2</ele><time>2026-04-19T08:01:26Z</time></trkpt><trkpt lat="44.87996972416512" lon="8.020153716554912"><ele>257.0</ele><time>2026-04-19T08:01:27Z</time></trkpt><trkpt lat="44.879886016445376" lon="8.020097471589539"><ele>256.6</ele><time>2026-04-19T08:01:28Z</time></trkpt><trkpt lat="44.879813905843534" lon="8.020038929329605"><ele>256.2</ele><time>2026-04-19T08:01:29Z</time></trkpt><trkpt lat="44.8797438065341" lon="8.019980097204083"><ele>255.8</ele><time>2026-04-19T08:01:30Z</time></trkpt><trkpt lat="44.8796461205422" lon="8.01989103783185"><ele>255.4</ele><time>2026-04-19T08:01:32Z</time></trkpt><trkpt lat="44.8795490401322" lon="8.019826829481502"><ele>255.0</ele><time>2026-04-19T08:01:34Z</time></trkpt><trkpt lat="44.87949850931493" lon="8.019754479622373"><ele>252.66666666666666</ele><time>2026-04-19T08:01:36Z</time></trkpt><trkpt lat="44.87946419618788" lon="8.01966912179588"><ele>250.33333333333331</ele><time>2026-04-19T08:01:38Z</time></trkpt><trkpt lat="44.87942513411629" lon="8.019589835834626"><ele>248.0</ele><time>2026-04-19T08:01:39Z</time></trkpt><trkpt lat="44.87942605857249" lon="8.019455369061042"><ele>245.66666666666666</ele><time>2026-04-19T08:01:41Z</time></trkpt><trkpt lat="44.87942963472573" lon="8.019359955101473"><ele>243.33333333333331</ele><time>2026-04-19T08:01:44Z</time></trkpt><trkpt lat="44.87937341686668" lon="8.019296889047682"><ele>241.0</ele><time>2026-04-19T08:01:46Z</time></trkpt><trkpt lat="44.879283420992586" lon="8.019228059838525"><ele>239.60000000000002</ele><time>2026-04-19T08:01:48Z</time></trkpt><trkpt lat="44.87920442819381" lon="8.01913692950478"><ele>238.20000000000002</ele><time>2026-04-19T08:01:50Z</time></trkpt><trkpt lat="44.87912468272983" lon="8.019142434056924"><ele>236.79999999999998</ele><time>2026-04-19T08:01:52Z</time></trkpt><trkpt lat="44.87907187556232" lon="8.01919770697802"><ele>235.39999999999998</ele><time>2026-04-19T08:01:54Z</time></trkpt><trkpt lat="44.87897189617766" lon="8.019100745789297"><ele>234.0</ele><time>2026-04-19T08:01:56Z</time></trkpt><trkpt lat="44.878891280797" lon="8.01903921966713"><ele>234.0</ele><time>2026-04-19T08:01:58Z</time></trkpt><trkpt lat="44.87878342706807" lon="8.019031071231327"><ele>233.99999999999997</ele><time>2026-04-19T08:02:00Z</time></trkpt><trkpt lat="44.878707313467515" lon="8.019081085231642"><ele>233.99999999999997</ele><time>2026-04-19T08:02:01Z</time></trkpt><trkpt lat="44.87859532665429" lon="8.019105848659184"><ele>234.0</ele><time>2026-04-19T08:02:02Z</time></trkpt><trkpt lat="44.87851160059101" lon="8.019082116546217"><ele>234.0</ele><time>2026-04-19T08:02:03Z</time></trkpt><trkpt lat="44.87843163584059" lon="8.01905834853703"><ele>233.83333333333334</ele><time>2026-04-19T08:02:04Z</time></trkpt><trkpt lat="44.87836601136555" lon="8.01904443506455"><ele>233.66666666666669</ele><time>2026-04-19T08:02:05Z</time></trkpt><trkpt lat="44.87829136267863" lon="8.019145235423716"><ele>233.5</ele><time>2026-04-19T08:02:07Z</time></trkpt><trkpt lat="44.87823356854706" lon="8.01921005035325"><ele>233.33333333333334</ele><time>2026-04-19T08:02:08Z</time></trkpt><trkpt lat="44.878210423435156" lon="8.019343480575486"><ele>233.16666666666669</ele><time>2026-04-19T08:02:10Z</time></trkpt><trkpt lat="44.87823628599761" lon="8.019443375417891"><ele>233.0</ele><time>2026-04-19T08:02:11Z</time></trkpt><trkpt lat="44.87826193868085" lon="8.019564803091821"><ele>236.4</ele><time>2026-04-19T08:02:12Z</time></trkpt><trkpt lat="44.878283310738986" lon="8.0197117755497"><ele>239.8</ele><time>2026-04-19T08:02:13Z</time></trkpt><trkpt lat="44.87830158590147" lon="8.019859791267272"><ele>243.2</ele><time>2026-04-19T08:02:14Z</time></trkpt><trkpt lat="44.87836142162014" lon="8.020028804887646"><ele>246.6</ele><time>2026-04-19T08:02:16Z</time></trkpt><trkpt lat="44.878388678552625" lon="8.020126618044726"><ele>250.0</ele><time>2026-04-19T08:02:17Z</time></trkpt><trkpt lat="44.878421112923284" lon="8.020218086169374"><ele>251.16666666666666</ele><time>2026-04-19T08:02:18Z</time></trkpt><trkpt lat="44.87843290594173" lon="8.02035509530943"><ele>252.33333333333331</ele><time>2026-04-19T08:02:19Z</time></trkpt><trkpt lat="44.87847030734767" lon="8.020463597520932"><ele>253.5</ele><time>2026-04-19T08:02:20Z</time></trkpt><trkpt lat="44.87851386153968" lon="8.02053955270548"><ele>254.66666666666669</ele><time>2026-04-19T08:02:21Z</time></trkpt><trkpt lat="44.87853201286498" lon="8.02063530182458"><ele>255.83333333333334</ele><time>2026-04-19T08:02:22Z</time></trkpt><trkpt lat="44.878527906007136" lon="8.020767962601822"><ele>257.0</ele><time>2026-04-19T08:02:23Z</time></trkpt><trkpt lat="44.87853461571165" lon="8.020897623156806"><ele>257.0</ele><time>2026-04-19T08:02:24Z</time></trkpt><trkpt lat="44.87853419587464" lon="8.021001180081177"><ele>257.0</ele><time>2026-04-19T08:02:25Z</time></trkpt><trkpt lat="44.87848445281765" lon="8.021163869013373"><ele>257.0</ele><time>2026-04-19T08:02:27Z</time></trkpt><trkpt lat="44.87843175698944" lon="8.02125101685896"><ele>257.0</ele><time>2026-04-19T08:02:28Z</time></trkpt><trkpt lat="44.8783722524835" lon="8.021336274850878"><ele>257.0</ele><time>2026-04-19T08:02:29Z</time></trkpt><trkpt lat="44.87831865133262" lon="8.02140058107365"><ele>257.0</ele><time>2026-04-19T08:02:30Z</time></trkpt><trkpt lat="44.878215085057654" lon="8.02149936967102"><ele>257.0</ele><time>2026-04-19T08:02:32Z</time></trkpt><trkpt lat="44.87819771236088" lon="8.021613082069909"><ele>257.0</ele><time>2026-04-19T08:02:34Z</time></trkpt><trkpt lat="44.87822445171878" lon="8.021706089861855"><ele>257.0</ele><time>2026-04-19T08:02:35Z</time></trkpt><trkpt lat="44.87829272662228" lon="8.021810723859112"><ele>257.0</ele><time>2026-04-19T08:02:36Z</time></trkpt><trkpt lat="44.87835795866942" lon="8.021895093651537"><ele>257.0</ele><time>2026-04-19T08:02:37Z</time></trkpt><trkpt lat="44.87838259069189" lon="8.022026350636446"><ele>257.0</ele><time>2026-04-19T08:02:39Z</time></trkpt><trkpt lat="44.87835742984778" lon="8.022152822394167"><ele>258.6</ele><time>2026-04-19T08:02:40Z</time></trkpt><trkpt lat="44.87834960344971" lon="8.022251667388671"><ele>260.2</ele><time>2026-04-19T08:02:42Z</time></trkpt><trkpt lat="44.87836740179568" lon="8.022378250976438"><ele>261.8</ele><time>2026-04-19T08:02:45Z</time></trkpt><trkpt lat="44.87833635356562" lon="8.022488279437294"><ele>263.4</ele><time>2026-04-19T08:02:47Z</time></trkpt><trkpt lat="44.87826324773337" lon="8.022587507660733"><ele>265.0</ele><time>2026-04-19T08:02:49Z</time></trkpt><trkpt lat="44.878234952065085" lon="8.022740743284896"><ele>265.0</ele><time>2026-04-19T08:02:50Z</time></trkpt><trkpt lat="44.87821902106366" lon="8.022911326030663"><ele>265.0</ele><time>2026-04-19T08:02:52Z</time></trkpt><trkpt lat="44.87821873303438" lon="8.0230700451032"><ele>265.0</ele><time>2026-04-19T08:02:54Z</time></trkpt><trkpt lat="44.878275052038184" lon="8.023121306310049"><ele>265.0</ele><time>2026-04-19T08:02:56Z</time></trkpt><trkpt lat="44.878232994679955" lon="8.02321347822968"><ele>265.0</ele><time>2026-04-19T08:02:58Z</time></trkpt><trkpt lat="44.87819178049046" lon="8.023291227389729"><ele>265.0</ele><time>2026-04-19T08:02:59Z</time></trkpt><trkpt lat="44.87816231457069" lon="8.023414181173589"><ele>265.2</ele><time>2026-04-19T08:03:00Z</time></trkpt><trkpt lat="44.87811602637874" lon="8.02355019955078"><ele>265.4</ele><time>2026-04-19T08:03:01Z</time></trkpt><trkpt lat="44.8780823231829" lon="8.02363060344506"><ele>265.6</ele><time>2026-04-19T08:03:02Z</time></trkpt><trkpt lat="44.87798260439232" lon="8.023740691524342"><ele>265.8</ele><time>2026-04-19T08:03:04Z</time></trkpt><trkpt lat="44.87789857761645" lon="8.023801116234623"><ele>266.0</ele><time>2026-04-19T08:03:05Z</time></trkpt><trkpt lat="44.87782033060635" lon="8.023848779399202"><ele>266.0</ele><time>2026-04-19T08:03:06Z</time></trkpt><trkpt lat="44.877735179975254" lon="8.023912369169553"><ele>266.0</ele><time>2026-04-19T08:03:07Z</time></trkpt><trkpt lat="44.877662990566265" lon="8.0239671174575"><ele>266.0</ele><time>2026-04-19T08:03:08Z</time></trkpt><trkpt lat="44.877591048998546" lon="8.024019824076559"><ele>266.0</ele><time>2026-04-19T08:03:09Z</time></trkpt><trkpt lat="44.877520067721534" lon="8.024076355955447"><ele>266.0</ele><time>2026-04-19T08:03:10Z</time></trkpt><trkpt lat="44.87743368058223" lon="8.024193691635304"><ele>268.0</ele><time>2026-04-19T08:03:12Z</time></trkpt><trkpt lat="44.8773702717552" lon="8.024280786073776"><ele>270.0</ele><time>2026-04-19T08:03:13Z</time></trkpt><trkpt lat="44.877332807602016" lon="8.02441034556294"><ele>272.0</ele><time>2026-04-19T08:03:14Z</time></trkpt><trkpt lat="44.87728791838318" lon="8.024527833236265"><ele>274.0</ele><time>2026-04-19T08:03:15Z</time></trkpt><trkpt lat="44.877250758869806" lon="8.024660729783223"><ele>276.0</ele><time>2026-04-19T08:03:16Z</time></trkpt><trkpt lat="44.877232100073144" lon="8.02480183885664"><ele>276.0</ele><time>2026-04-19T08:03:17Z</time></trkpt><trkpt lat="44.87720827984922" lon="8.024899966120014"><ele>276.0</ele><time>2026-04-19T08:03:18Z</time></trkpt><trkpt lat="44.87718020978124" lon="8.025023016576219"><ele>276.0</ele><time>2026-04-19T08:03:19Z</time></trkpt><trkpt lat="44.87712897477524" lon="8.025117751965686"><ele>276.0</ele><time>2026-04-19T08:03:20Z</time></trkpt><trkpt lat="44.87709399968067" lon="8.025210763115995"><ele>276.0</ele><time>2026-04-19T08:03:21Z</time></trkpt><trkpt lat="44.87706240177235" lon="8.025306188850902"><ele>276.0</ele><time>2026-04-19T08:03:22Z</time></trkpt><trkpt lat="44.87702262687883" lon="8.025400520404888"><ele>276.2</ele><time>2026-04-19T08:03:23Z</time></trkpt><trkpt lat="44.87697266844533" lon="8.025490546897114"><ele>276.40000000000003</ele><time>2026-04-19T08:03:24Z</time></trkpt><trkpt lat="44.87693505821605" lon="8.025570896838511"><ele>276.6</ele><time>2026-04-19T08:03:25Z</time></trkpt><trkpt lat="44.87684069656796" lon="8.02566393841744"><ele>276.8</ele><time>2026-04-19T08:03:27Z</time></trkpt><trkpt lat="44.87677262000455" lon="8.02577052979559"><ele>277.0</ele><time>2026-04-19T08:03:29Z</time></trkpt><trkpt lat="44.87669143492203" lon="8.025878822366597"><ele>277.0</ele><time>2026-04-19T08:03:31Z</time></trkpt><trkpt lat="44.87665640888232" lon="8.025953629008432"><ele>277.0</ele><time>2026-04-19T08:03:32Z</time></trkpt><trkpt lat="44.876611169170076" lon="8.026053671264172"><ele>277.0</ele><time>2026-04-19T08:03:33Z</time></trkpt><trkpt lat="44.8765667374555" lon="8.026155185058759"><ele>277.0</ele><time>2026-04-19T08:03:34Z</time></trkpt><trkpt lat="44.87650419503532" lon="8.026297552763843"><ele>277.0</ele><time>2026-04-19T08:03:36Z</time></trkpt><trkpt lat="44.87643622216173" lon="8.026455718684614"><ele>277.0</ele><time>2026-04-19T08:03:38Z</time></trkpt><trkpt lat="44.87638943777898" lon="8.026554661076524"><ele>277.0</ele><time>2026-04-19T08:03:39Z</time></trkpt><trkpt lat="44.87636131908253" lon="8.026650812758737"><ele>277.0</ele><time>2026-04-19T08:03:40Z</time></trkpt><trkpt lat="44.87633456258837" lon="8.026742047627545"><ele>277.0</ele><time>2026-04-19T08:03:41Z</time></trkpt><trkpt lat="44.87632545433428" lon="8.026849616752392"><ele>277.0</ele><time>2026-04-19T08:03:44Z</time></trkpt><trkpt lat="44.87634040250522" lon="8.026954045512564"><ele>277.0</ele><time>2026-04-19T08:03:46Z</time></trkpt><trkpt lat="44.876345514734666" lon="8.027168732943892"><ele>275.6</ele><time>2026-04-19T08:03:48Z</time></trkpt><trkpt lat="44.87634372436245" lon="8.027297937740576"><ele>274.2</ele><time>2026-04-19T08:03:49Z</time></trkpt><trkpt lat="44.87632255830838" lon="8.02746713392768"><ele>272.8</ele><time>2026-04-19T08:03:50Z</time></trkpt><trkpt lat="44.87632060618752" lon="8.027628254330727"><ele>271.4</ele><time>2026-04-19T08:03:51Z</time></trkpt><trkpt lat="44.87633717297069" lon="8.027750320537356"><ele>270.0</ele><time>2026-04-19T08:03:52Z</time></trkpt><trkpt lat="44.87631732505549" lon="8.027845240901566"><ele>268.4</ele><time>2026-04-19T08:03:53Z</time></trkpt><trkpt lat="44.876250324688506" lon="8.027991254154054"><ele>266.8</ele><time>2026-04-19T08:03:55Z</time></trkpt><trkpt lat="44.876197227864004" lon="8.028097699053886"><ele>265.2</ele><time>2026-04-19T08:03:57Z</time></trkpt><trkpt lat="44.87616957061394" lon="8.028240660463062"><ele>263.6</ele><time>2026-04-19T08:03:59Z</time></trkpt><trkpt lat="44.87620120247761" lon="8.028344953619643"><ele>262.0</ele><time>2026-04-19T08:04:00Z</time></trkpt><trkpt lat="44.87623830670871" lon="8.028462774922742"><ele>262.0</ele><time>2026-04-19T08:04:01Z</time></trkpt><trkpt lat="44.87616911336847" lon="8.028455516491166"><ele>262.0</ele><time>2026-04-19T08:04:09Z</time></trkpt><trkpt lat="44.87611980916546" lon="8.028353791940974"><ele>262.0</ele><time>2026-04-19T08:04:13Z</time></trkpt><trkpt lat="44.87605086734124" lon="8.028289739919272"><ele>262.0</ele><time>2026-04-19T08:04:15Z</time></trkpt><trkpt lat="44.87599315695691" lon="8.028231239207535"><ele>262.0</ele><time>2026-04-19T08:04:17Z</time></trkpt><trkpt lat="44.87594781416548" lon="8.028327008207237"><ele>262.0</ele><time>2026-04-19T08:04:21Z</time></trkpt><trkpt lat="44.87586412829354" lon="8.02828125740115"><ele>261.0</ele><time>2026-04-19T08:04:25Z</time></trkpt><trkpt lat="44.875795722110546" lon="8.028297881606061"><ele>260.0</ele><time>2026-04-19T08:04:27Z</time></trkpt><trkpt lat="44.87570566978013" lon="8.028251939463688"><ele>259.0</ele><time>2026-04-19T08:04:30Z</time></trkpt><trkpt lat="44.875657798670424" lon="8.028169412648335"><ele>258.0</ele><time>2026-04-19T08:04:32Z</time></trkpt><trkpt lat="44.87559541363049" lon="8.028044549193915"><ele>257.0</ele><time>2026-04-19T08:04:35Z</time></trkpt><trkpt lat="44.87558838745894" lon="8.027908901070854"><ele>256.0</ele><time>2026-04-19T08:04:37Z</time></trkpt><trkpt lat="44.875556294941255" lon="8.027831966514398"><ele>255.99999999999997</ele><time>2026-04-19T08:04:38Z</time></trkpt><trkpt lat="44.875492701861994" lon="8.02779198929724"><ele>256.0</ele><time>2026-04-19T08:04:41Z</time></trkpt><trkpt lat="44.875478058166756" lon="8.027643015673718"><ele>256.0</ele><time>2026-04-19T08:04:44Z</time></trkpt><trkpt lat="44.87542773175193" lon="8.027537368618733"><ele>256.0</ele><time>2026-04-19T08:04:47Z</time></trkpt><trkpt lat="44.875415829178095" lon="8.027427438874112"><ele>255.99999999999997</ele><time>2026-04-19T08:04:49Z</time></trkpt><trkpt lat="44.87535261249472" lon="8.02737954128939"><ele>256.0</ele><time>2026-04-19T08:04:50Z</time></trkpt><trkpt lat="44.87519583149407" lon="8.026958096313392"><ele>255.8</ele><time>2026-04-19T08:04:53Z</time></trkpt><trkpt lat="44.87516347605567" lon="8.026869371519375"><ele>255.60000000000002</ele><time>2026-04-19T08:04:55Z</time></trkpt><trkpt lat="44.875214405024565" lon="8.02677854532656"><ele>255.4</ele><time>2026-04-19T08:04:59Z</time></trkpt><trkpt lat="44.875258510809786" lon="8.026662627114074"><ele>255.2</ele><time>2026-04-19T08:05:01Z</time></trkpt><trkpt lat="44.875325349536" lon="8.026530700254739"><ele>255.0</ele><time>2026-04-19T08:05:03Z</time></trkpt><trkpt lat="44.875401558008164" lon="8.02641314759117"><ele>254.6</ele><time>2026-04-19T08:05:05Z</time></trkpt><trkpt lat="44.87538532925653" lon="8.026254994237615"><ele>254.2</ele><time>2026-04-19T08:05:07Z</time></trkpt><trkpt lat="44.8753369740482" lon="8.026128857234228"><ele>253.8</ele><time>2026-04-19T08:05:08Z</time></trkpt><trkpt lat="44.87525399136606" lon="8.02608904169428"><ele>253.4</ele><time>2026-04-19T08:05:10Z</time></trkpt><trkpt lat="44.8751351719584" lon="8.026209238894733"><ele>253.0</ele><time>2026-04-19T08:05:11Z</time></trkpt><trkpt lat="44.8750776517428" lon="8.026134999504508"><ele>248.4</ele><time>2026-04-19T08:05:16Z</time></trkpt><trkpt lat="44.87504118147334" lon="8.026050672803521"><ele>243.8</ele><time>2026-04-19T08:05:20Z</time></trkpt><trkpt lat="44.874975598335695" lon="8.025902510912617"><ele>239.2</ele><time>2026-04-19T08:05:22Z</time></trkpt><trkpt lat="44.874941064899176" lon="8.02579903367424"><ele>234.6</ele><time>2026-04-19T08:05:23Z</time></trkpt><trkpt lat="44.87488800783586" lon="8.025660758043117"><ele>230.0</ele><time>2026-04-19T08:05:24Z</time></trkpt><trkpt lat="44.874830602974804" lon="8.025550086768574"><ele>228.66666666666669</ele><time>2026-04-19T08:05:25Z</time></trkpt><trkpt lat="44.874771557924625" lon="8.025456045137682"><ele>227.33333333333334</ele><time>2026-04-19T08:05:26Z</time></trkpt><trkpt lat="44.87472487243833" lon="8.025374807890216"><ele>226.0</ele><time>2026-04-19T08:05:27Z</time></trkpt><trkpt lat="44.87468382817766" lon="8.02524660902021"><ele>224.66666666666669</ele><time>2026-04-19T08:05:28Z</time></trkpt><trkpt lat="44.874697945421396" lon="8.025117825727003"><ele>223.33333333333334</ele><time>2026-04-19T08:05:29Z</time></trkpt><trkpt lat="44.87470916423523" lon="8.024990179528292"><ele>222.0</ele><time>2026-04-19T08:05:30Z</time></trkpt><trkpt lat="44.874717720459586" lon="8.024867074819243"><ele>221.0</ele><time>2026-04-19T08:05:31Z</time></trkpt><trkpt lat="44.874719569957456" lon="8.024731409896425"><ele>220.0</ele><time>2026-04-19T08:05:32Z</time></trkpt><trkpt lat="44.87472168437757" lon="8.024599471387608"><ele>219.0</ele><time>2026-04-19T08:05:33Z</time></trkpt><trkpt lat="44.87470392502185" lon="8.024467715581283"><ele>218.0</ele><time>2026-04-19T08:05:34Z</time></trkpt><trkpt lat="44.8746632005396" lon="8.024339921160761"><ele>217.0</ele><time>2026-04-19T08:05:35Z</time></trkpt><trkpt lat="44.87462896124546" lon="8.024204445424825"><ele>217.16666666666666</ele><time>2026-04-19T08:05:36Z</time></trkpt><trkpt lat="44.874635511626494" lon="8.024112239015448"><ele>217.33333333333331</ele><time>2026-04-19T08:05:37Z</time></trkpt><trkpt lat="44.874660238838445" lon="8.024014793690423"><ele>217.5</ele><time>2026-04-19T08:05:38Z</time></trkpt><trkpt lat="44.874671895738864" lon="8.023925083841483"><ele>217.66666666666669</ele><time>2026-04-19T08:05:39Z</time></trkpt><trkpt lat="44.87473006875814" lon="8.023820947799496"><ele>217.83333333333334</ele><time>2026-04-19T08:05:40Z</time></trkpt><trkpt lat="44.874755642975074" lon="8.023678384660993"><ele>218.0</ele><time>2026-04-19T08:05:41Z</time></trkpt><trkpt lat="44.87482143101349" lon="8.023580458176196"><ele>218.0</ele><time>2026-04-19T08:05:42Z</time></trkpt><trkpt lat="44.874861412964776" lon="8.023425992775826"><ele>218.0</ele><time>2026-04-19T08:05:43Z</time></trkpt><trkpt lat="44.87495097159337" lon="8.023288436222746"><ele>218.0</ele><time>2026-04-19T08:05:44Z</time></trkpt><trkpt lat="44.87496146786847" lon="8.023124835531167"><ele>218.0</ele><time>2026-04-19T08:05:45Z</time></trkpt><trkpt lat="44.87503261983171" lon="8.023016459827017"><ele>217.60000000000002</ele><time>2026-04-19T08:05:46Z</time></trkpt><trkpt lat="44.87509055256295" lon="8.022903365930134"><ele>217.20000000000002</ele><time>2026-04-19T08:05:47Z</time></trkpt><trkpt lat="44.875144535796586" lon="8.022776776404303"><ele>216.8</ele><time>2026-04-19T08:05:48Z</time></trkpt><trkpt lat="44.87518829621751" lon="8.022627130524066"><ele>216.4</ele><time>2026-04-19T08:05:49Z</time></trkpt><trkpt lat="44.875223823171744" lon="8.022508599532989"><ele>216.0</ele><time>2026-04-19T08:05:50Z</time></trkpt><trkpt lat="44.87525934342241" lon="8.022384203954323"><ele>215.33333333333334</ele><time>2026-04-19T08:05:51Z</time></trkpt><trkpt lat="44.875319903200705" lon="8.022295872964719"><ele>214.66666666666669</ele><time>2026-04-19T08:05:52Z</time></trkpt><trkpt lat="44.87539136490178" lon="8.022210947133948"><ele>214.0</ele><time>2026-04-19T08:05:53Z</time></trkpt><trkpt lat="44.87545347030326" lon="8.022133012433816"><ele>213.33333333333334</ele><time>2026-04-19T08:05:54Z</time></trkpt><trkpt lat="44.87552254037806" lon="8.022060601596246"><ele>212.66666666666669</ele><time>2026-04-19T08:05:55Z</time></trkpt><trkpt lat="44.8755122036539" lon="8.021956236307155"><ele>212.0</ele><time>2026-04-19T08:05:56Z</time></trkpt><trkpt lat="44.87553793151316" lon="8.021750781397756"><ele>211.6</ele><time>2026-04-19T08:05:57Z</time></trkpt><trkpt lat="44.875550274719195" lon="8.021543315160873"><ele>211.2</ele><time>2026-04-19T08:05:58Z</time></trkpt><trkpt lat="44.875572452393435" lon="8.021365904344632"><ele>210.8</ele><time>2026-04-19T08:05:59Z</time></trkpt><trkpt lat="44.87559430246551" lon="8.02126972111873"><ele>210.4</ele><time>2026-04-19T08:06:00Z</time></trkpt><trkpt lat="44.87564975738612" lon="8.02122007359024"><ele>210.0</ele><time>2026-04-19T08:06:02Z</time></trkpt><trkpt lat="44.87575210720111" lon="8.020988187793737"><ele>208.66666666666669</ele><time>2026-04-19T08:06:04Z</time></trkpt><trkpt lat="44.87564631199356" lon="8.020707129582402"><ele>207.33333333333334</ele><time>2026-04-19T08:06:05Z</time></trkpt><trkpt lat="44.875608045211564" lon="8.020458686294132"><ele>206.0</ele><time>2026-04-19T08:06:06Z</time></trkpt><trkpt lat="44.875608817466826" lon="8.020275233849016"><ele>205.99999999999997</ele><time>2026-04-19T08:06:07Z</time></trkpt><trkpt lat="44.875596244669175" lon="8.020186580621754"><ele>206.0</ele><time>2026-04-19T08:06:09Z</time></trkpt><trkpt lat="44.875559747878626" lon="8.020103481044242"><ele>206.0</ele><time>2026-04-19T08:06:10Z</time></trkpt><trkpt lat="44.875486261841225" lon="8.02005025711987"><ele>206.0</ele><time>2026-04-19T08:06:12Z</time></trkpt><trkpt lat="44.875464126888374" lon="8.019959596056973"><ele>206.0</ele><time>2026-04-19T08:06:16Z</time></trkpt><trkpt lat="44.87551790246196" lon="8.019913062861255"><ele>205.99999999999997</ele><time>2026-04-19T08:06:17Z</time></trkpt><trkpt lat="44.87560760661336" lon="8.019877516003406"><ele>206.0</ele><time>2026-04-19T08:06:18Z</time></trkpt><trkpt lat="44.87567686988584" lon="8.019830243759369"><ele>206.0</ele><time>2026-04-19T08:06:19Z</time></trkpt><trkpt lat="44.875743621033635" lon="8.019749983768532"><ele>206.0</ele><time>2026-04-19T08:06:20Z</time></trkpt><trkpt lat="44.87580591708243" lon="8.019677267854187"><ele>206.0</ele><time>2026-04-19T08:06:21Z</time></trkpt><trkpt lat="44.87591307162207" lon="8.019529220527604"><ele>206.0</ele><time>2026-04-19T08:06:23Z</time></trkpt><trkpt lat="44.8759509380623" lon="8.019454006686223"><ele>206.0</ele><time>2026-04-19T08:06:24Z</time></trkpt><trkpt lat="44.87598490645395" lon="8.019334601027355"><ele>206.66666666666669</ele><time>2026-04-19T08:06:25Z</time></trkpt><trkpt lat="44.876029536553645" lon="8.019255231178581"><ele>207.33333333333334</ele><time>2026-04-19T08:06:26Z</time></trkpt><trkpt lat="44.87607062338317" lon="8.019165835731265"><ele>208.0</ele><time>2026-04-19T08:06:27Z</time></trkpt><trkpt lat="44.876110386063075" lon="8.01908014839831"><ele>208.66666666666669</ele><time>2026-04-19T08:06:28Z</time></trkpt><trkpt lat="44.87614057536612" lon="8.018958442211972"><ele>209.33333333333334</ele><time>2026-04-19T08:06:29Z</time></trkpt><trkpt lat="44.876187750274156" lon="8.018807606389082"><ele>210.0</ele><time>2026-04-19T08:06:30Z</time></trkpt><trkpt lat="44.8762388745585" lon="8.018661516086075"><ele>210.0</ele><time>2026-04-19T08:06:31Z</time></trkpt><trkpt lat="44.8762843143969" lon="8.01850981774985"><ele>210.0</ele><time>2026-04-19T08:06:32Z</time></trkpt><trkpt lat="44.876330228438974" lon="8.018354802371874"><ele>210.0</ele><time>2026-04-19T08:06:33Z</time></trkpt><trkpt lat="44.87637811184719" lon="8.018204319545207"><ele>210.0</ele><time>2026-04-19T08:06:34Z</time></trkpt><trkpt lat="44.876432163343694" lon="8.018051268506545"><ele>208.25</ele><time>2026-04-19T08:06:35Z</time></trkpt><trkpt lat="44.87649416662171" lon="8.017904111897845"><ele>206.5</ele><time>2026-04-19T08:06:36Z</time></trkpt><trkpt lat="44.87655476913375" lon="8.01777289932244"><ele>204.75</ele><time>2026-04-19T08:06:37Z</time></trkpt><trkpt lat="44.876621236192875" lon="8.017652372458974"><ele>203.0</ele><time>2026-04-19T08:06:38Z</time></trkpt><trkpt lat="44.87669943995294" lon="8.017539201160472"><ele>202.0</ele><time>2026-04-19T08:06:39Z</time></trkpt><trkpt lat="44.876786232438754" lon="8.017440007602797"><ele>201.0</ele><time>2026-04-19T08:06:40Z</time></trkpt><trkpt lat="44.87688184389515" lon="8.017362285529215"><ele>200.0</ele><time>2026-04-19T08:06:41Z</time></trkpt><trkpt lat="44.87697981921891" lon="8.017300042783319"><ele>199.0</ele><time>2026-04-19T08:06:42Z</time></trkpt><trkpt lat="44.877094870104" lon="8.017267379338321"><ele>198.0</ele><time>2026-04-19T08:06:43Z</time></trkpt><trkpt lat="44.877204488753826" lon="8.017237278802655"><ele>198.0</ele><time>2026-04-19T08:06:44Z</time></trkpt><trkpt lat="44.87731778982704" lon="8.017232088490122"><ele>198.0</ele><time>2026-04-19T08:06:45Z</time></trkpt><trkpt lat="44.87742633114421" lon="8.017222989644901"><ele>198.0</ele><time>2026-04-19T08:06:46Z</time></trkpt><trkpt lat="44.87751917444915" lon="8.017196828328272"><ele>198.0</ele><time>2026-04-19T08:06:47Z</time></trkpt><trkpt lat="44.877632038615005" lon="8.01716092953002"><ele>198.0</ele><time>2026-04-19T08:06:48Z</time></trkpt><trkpt lat="44.87772852095378" lon="8.017113278364661"><ele>199.25</ele><time>2026-04-19T08:06:49Z</time></trkpt><trkpt lat="44.877830610135874" lon="8.01704237820558"><ele>200.5</ele><time>2026-04-19T08:06:50Z</time></trkpt><trkpt lat="44.87793117970297" lon="8.016951758067682"><ele>201.75</ele><time>2026-04-19T08:06:51Z</time></trkpt><trkpt lat="44.87802903221911" lon="8.01684136015712"><ele>203.0</ele><time>2026-04-19T08:06:52Z</time></trkpt><trkpt lat="44.8781090741554" lon="8.0167353488989"><ele>201.8</ele><time>2026-04-19T08:06:53Z</time></trkpt><trkpt lat="44.8781840775668" lon="8.016647305072803"><ele>200.60000000000002</ele><time>2026-04-19T08:06:54Z</time></trkpt><trkpt lat="44.878261542289906" lon="8.016558455483354"><ele>199.39999999999998</ele><time>2026-04-19T08:06:55Z</time></trkpt><trkpt lat="44.878342203493254" lon="8.0164785117484"><ele>198.2</ele><time>2026-04-19T08:06:56Z</time></trkpt><trkpt lat="44.878431328830274" lon="8.016415192928672"><ele>197.0</ele><time>2026-04-19T08:06:57Z</time></trkpt><trkpt lat="44.87853364916978" lon="8.016354713243283"><ele>197.0</ele><time>2026-04-19T08:06:58Z</time></trkpt><trkpt lat="44.87863430115782" lon="8.016333438022771"><ele>197.0</ele><time>2026-04-19T08:06:59Z</time></trkpt><trkpt lat="44.8787372751765" lon="8.016332875463087"><ele>197.0</ele><time>2026-04-19T08:07:00Z</time></trkpt><trkpt lat="44.87884658662938" lon="8.016332833220803"><ele>197.0</ele><time>2026-04-19T08:07:01Z</time></trkpt><trkpt lat="44.878964966380565" lon="8.016340978585482"><ele>197.0</ele><time>2026-04-19T08:07:02Z</time></trkpt><trkpt lat="44.87908618536411" lon="8.01633710163599"><ele>197.0</ele><time>2026-04-19T08:07:03Z</time></trkpt><trkpt lat="44.87921261328219" lon="8.016333693523173"><ele>197.0</ele><time>2026-04-19T08:07:04Z</time></trkpt><trkpt lat="44.87933711596816" lon="8.01633447266814"><ele>197.0</ele><time>2026-04-19T08:07:05Z</time></trkpt><trkpt lat="44.87945891077994" lon="8.016313511160691"><ele>197.0</ele><time>2026-04-19T08:07:06Z</time></trkpt><trkpt lat="44.879561459201454" lon="8.016285839944992"><ele>197.50000000000003</ele><time>2026-04-19T08:07:07Z</time></trkpt><trkpt lat="44.879658950455664" lon="8.016260005597902"><ele>198.0</ele><time>2026-04-19T08:07:08Z</time></trkpt><trkpt lat="44.879744150597766" lon="8.016236707789895"><ele>198.5</ele><time>2026-04-19T08:07:09Z</time></trkpt><trkpt lat="44.8798198442168" lon="8.016215434192672"><ele>199.0</ele><time>2026-04-19T08:07:10Z</time></trkpt><trkpt lat="44.87989576825662" lon="8.016208498546849"><ele>199.50000000000003</ele><time>2026-04-19T08:07:11Z</time></trkpt><trkpt lat="44.87998445631468" lon="8.016214317720516"><ele>200.0</ele><time>2026-04-19T08:07:12Z</time></trkpt><trkpt lat="44.88005324293715" lon="8.016232800469831"><ele>200.4</ele><time>2026-04-19T08:07:13Z</time></trkpt><trkpt lat="44.88014428782454" lon="8.016226522233767"><ele>200.8</ele><time>2026-04-19T08:07:14Z</time></trkpt><trkpt lat="44.88024155649676" lon="8.01623788228009"><ele>201.2</ele><time>2026-04-19T08:07:15Z</time></trkpt><trkpt lat="44.88033228403473" lon="8.016250529958652"><ele>201.6</ele><time>2026-04-19T08:07:16Z</time></trkpt><trkpt lat="44.880405556400945" lon="8.016264104999392"><ele>202.0</ele><time>2026-04-19T08:07:17Z</time></trkpt><trkpt lat="44.88049734736248" lon="8.016389213095762"><ele>202.0</ele><time>2026-04-19T08:07:19Z</time></trkpt><trkpt lat="44.880521818775996" lon="8.016494938293157"><ele>202.0</ele><time>2026-04-19T08:07:20Z</time></trkpt><trkpt lat="44.88051489692404" lon="8.016624695258159"><ele>202.0</ele><time>2026-04-19T08:07:21Z</time></trkpt><trkpt lat="44.88048683165119" lon="8.016767236770503"><ele>202.0</ele><time>2026-04-19T08:07:22Z</time></trkpt><trkpt lat="44.880436337349856" lon="8.016931532149073"><ele>202.0</ele><time>2026-04-19T08:07:23Z</time></trkpt><trkpt lat="44.88040962057451" lon="8.017089599832339"><ele>204.39999999999998</ele><time>2026-04-19T08:07:24Z</time></trkpt><trkpt lat="44.88039667783866" lon="8.017261694431948"><ele>206.79999999999998</ele><time>2026-04-19T08:07:25Z</time></trkpt><trkpt lat="44.88040793266293" lon="8.017426050972897"><ele>209.2</ele><time>2026-04-19T08:07:26Z</time></trkpt><trkpt lat="44.880431771651295" lon="8.017567199390967"><ele>211.6</ele><time>2026-04-19T08:07:27Z</time></trkpt><trkpt lat="44.88047878412995" lon="8.017684356283915"><ele>214.0</ele><time>2026-04-19T08:07:28Z</time></trkpt><trkpt lat="44.88054551698038" lon="8.017783821707217"><ele>215.16666666666666</ele><time>2026-04-19T08:07:29Z</time></trkpt><trkpt lat="44.88060963080232" lon="8.017851769654218"><ele>216.33333333333331</ele><time>2026-04-19T08:07:30Z</time></trkpt><trkpt lat="44.88066405181723" lon="8.017899609459352"><ele>217.5</ele><time>2026-04-19T08:07:31Z</time></trkpt><trkpt lat="44.880729974005995" lon="8.017982128606109"><ele>218.66666666666669</ele><time>2026-04-19T08:07:33Z</time></trkpt><trkpt lat="44.880798008966536" lon="8.018053814939213"><ele>219.83333333333334</ele><time>2026-04-19T08:07:35Z</time></trkpt><trkpt lat="44.88089112214146" lon="8.018038920371746"><ele>221.0</ele><time>2026-04-19T08:07:38Z</time></trkpt><trkpt lat="44.88096900228452" lon="8.018011798273315"><ele>221.00000000000003</ele><time>2026-04-19T08:07:40Z</time></trkpt><trkpt lat="44.88102970614032" lon="8.017980863499325"><ele>221.0</ele><time>2026-04-19T08:07:41Z</time></trkpt><trkpt lat="44.881123800047085" lon="8.017938766376712"><ele>221.0</ele><time>2026-04-19T08:07:42Z</time></trkpt><trkpt lat="44.881195641525935" lon="8.017896715875468"><ele>221.0</ele><time>2026-04-19T08:07:43Z</time></trkpt><trkpt lat="44.881287435393155" lon="8.01782716488615"><ele>221.00000000000003</ele><time>2026-04-19T08:07:45Z</time></trkpt><trkpt lat="44.881338296719704" lon="8.017771727423339"><ele>221.0</ele><time>2026-04-19T08:07:46Z</time></trkpt><trkpt lat="44.88139094786529" lon="8.017718186879941"><ele>221.0</ele><time>2026-04-19T08:07:47Z</time></trkpt><trkpt lat="44.8814865467166" lon="8.017585622750573"><ele>221.00000000000003</ele><time>2026-04-19T08:07:49Z</time></trkpt><trkpt lat="44.88155072311153" lon="8.017541141746706"><ele>221.00000000000003</ele><time>2026-04-19T08:07:50Z</time></trkpt><trkpt lat="44.88161696183157" lon="8.017483511885715"><ele>221.0</ele><time>2026-04-19T08:07:51Z</time></trkpt><trkpt lat="44.88166091914974" lon="8.017405683167754"><ele>221.0</ele><time>2026-04-19T08:07:52Z</time></trkpt><trkpt lat="44.881784857122355" lon="8.017326770800082"><ele>220.2857142857143</ele><time>2026-04-19T08:07:54Z</time></trkpt><trkpt lat="44.88184678121789" lon="8.017276505467681"><ele>219.57142857142858</ele><time>2026-04-19T08:07:55Z</time></trkpt><trkpt lat="44.88190945841959" lon="8.017237472246622"><ele>218.85714285714286</ele><time>2026-04-19T08:07:56Z</time></trkpt><trkpt lat="44.88197641994103" lon="8.017184931600081"><ele>218.14285714285717</ele><time>2026-04-19T08:07:57Z</time></trkpt><trkpt lat="44.88205137886112" lon="8.01714974756932"><ele>217.42857142857142</ele><time>2026-04-19T08:07:58Z</time></trkpt><trkpt lat="44.882116982353566" lon="8.017119160992209"><ele>216.71428571428572</ele><time>2026-04-19T08:07:59Z</time></trkpt><trkpt lat="44.882185333804465" lon="8.017075794273442"><ele>216.0</ele><time>2026-04-19T08:08:00Z</time></trkpt><trkpt lat="44.882257531728484" lon="8.01702867574535"><ele>216.0</ele><time>2026-04-19T08:08:01Z</time></trkpt><trkpt lat="44.882339201502134" lon="8.016986880966455"><ele>216.0</ele><time>2026-04-19T08:08:02Z</time></trkpt><trkpt lat="44.882418621108016" lon="8.01694218168576"><ele>216.0</ele><time>2026-04-19T08:08:03Z</time></trkpt><trkpt lat="44.882497582356244" lon="8.016923219182923"><ele>216.0</ele><time>2026-04-19T08:08:04Z</time></trkpt><trkpt lat="44.88257706984319" lon="8.016913869692862"><ele>216.0</ele><time>2026-04-19T08:08:05Z</time></trkpt><trkpt lat="44.882640285845476" lon="8.01688267801036"><ele>216.0</ele><time>2026-04-19T08:08:06Z</time></trkpt><trkpt lat="44.88275284935243" lon="8.01680526002655"><ele>215.14285714285714</ele><time>2026-04-19T08:08:08Z</time></trkpt><trkpt lat="44.88282126155812" lon="8.016797883252442"><ele>214.28571428571428</ele><time>2026-04-19T08:08:09Z</time></trkpt><trkpt lat="44.8828884649953" lon="8.01677761024267"><ele>213.42857142857144</ele><time>2026-04-19T08:08:10Z</time></trkpt><trkpt lat="44.882953038448655" lon="8.016745365884624"><ele>212.57142857142856</ele><time>2026-04-19T08:08:11Z</time></trkpt><trkpt lat="44.88302511647307" lon="8.016703602102226"><ele>211.71428571428572</ele><time>2026-04-19T08:08:12Z</time></trkpt><trkpt lat="44.88308858429656" lon="8.016644766550375"><ele>210.85714285714286</ele><time>2026-04-19T08:08:13Z</time></trkpt><trkpt lat="44.883153765371276" lon="8.016592592824248"><ele>210.0</ele><time>2026-04-19T08:08:14Z</time></trkpt><trkpt lat="44.883234408795445" lon="8.016577158243468"><ele>210.0</ele><time>2026-04-19T08:08:15Z</time></trkpt><trkpt lat="44.88331226079344" lon="8.01656397378664"><ele>210.0</ele><time>2026-04-19T08:08:16Z</time></trkpt><trkpt lat="44.88338585886022" lon="8.016560279138579"><ele>210.0</ele><time>2026-04-19T08:08:17Z</time></trkpt><trkpt lat="44.88345645524489" lon="8.016545039636403"><ele>210.0</ele><time>2026-04-19T08:08:18Z</time></trkpt><trkpt lat="44.883556788181096" lon="8.016531590422641"><ele>210.0</ele><time>2026-04-19T08:08:19Z</time></trkpt><trkpt lat="44.88364272192157" lon="8.016516918337732"><ele>210.0</ele><time>2026-04-19T08:08:20Z</time></trkpt><trkpt lat="44.88371515878242" lon="8.01648281656162"><ele>209.0</ele><time>2026-04-19T08:08:21Z</time></trkpt><trkpt lat="44.883774219422854" lon="8.016446899756724"><ele>208.0</ele><time>2026-04-19T08:08:22Z</time></trkpt><trkpt lat="44.88384654713639" lon="8.016398494428087"><ele>207.0</ele><time>2026-04-19T08:08:23Z</time></trkpt><trkpt lat="44.88392307351839" lon="8.016341782375203"><ele>206.0</ele><time>2026-04-19T08:08:24Z</time></trkpt><trkpt lat="44.884005872318234" lon="8.016308403205763"><ele>205.0</ele><time>2026-04-19T08:08:25Z</time></trkpt><trkpt lat="44.88408795213238" lon="8.0162884767205"><ele>204.0</ele><time>2026-04-19T08:08:26Z</time></trkpt><trkpt lat="44.8841984887329" lon="8.01626929956325"><ele>202.2</ele><time>2026-04-19T08:08:27Z</time></trkpt><trkpt lat="44.88429546839984" lon="8.016247958009489"><ele>200.39999999999998</ele><time>2026-04-19T08:08:28Z</time></trkpt><trkpt lat="44.88439868101077" lon="8.01621092145804"><ele>198.6</ele><time>2026-04-19T08:08:29Z</time></trkpt><trkpt lat="44.884491105238915" lon="8.016168755483466"><ele>196.8</ele><time>2026-04-19T08:08:30Z</time></trkpt><trkpt lat="44.88458275967624" lon="8.016099818323188"><ele>195.0</ele><time>2026-04-19T08:08:31Z</time></trkpt><trkpt lat="44.8846725561245" lon="8.016021683191381"><ele>195.0</ele><time>2026-04-19T08:08:32Z</time></trkpt><trkpt lat="44.88473552775275" lon="8.015948986235943"><ele>195.0</ele><time>2026-04-19T08:08:33Z</time></trkpt><trkpt lat="44.88477718678967" lon="8.015867221475817"><ele>195.0</ele><time>2026-04-19T08:08:34Z</time></trkpt><trkpt lat="44.88483214976459" lon="8.015765527788874"><ele>195.0</ele><time>2026-04-19T08:08:35Z</time></trkpt><trkpt lat="44.88487195299161" lon="8.015634826456676"><ele>195.0</ele><time>2026-04-19T08:08:36Z</time></trkpt><trkpt lat="44.884894542232495" lon="8.01549483566573"><ele>195.0</ele><time>2026-04-19T08:08:37Z</time></trkpt><trkpt lat="44.88491102430484" lon="8.015362133025027"><ele>195.0</ele><time>2026-04-19T08:08:38Z</time></trkpt><trkpt lat="44.884933281694714" lon="8.015258740135843"><ele>195.0</ele><time>2026-04-19T08:08:39Z</time></trkpt><trkpt lat="44.88494747954061" lon="8.015170892651328"><ele>195.0</ele><time>2026-04-19T08:08:40Z</time></trkpt><trkpt lat="44.88493703463617" lon="8.01501718237313"><ele>195.0</ele><time>2026-04-19T08:08:42Z</time></trkpt><trkpt lat="44.88490161243321" lon="8.014936479309943"><ele>195.0</ele><time>2026-04-19T08:08:45Z</time></trkpt><trkpt lat="44.88498505376632" lon="8.014929598399116"><ele>195.0</ele><time>2026-04-19T08:08:47Z</time></trkpt><trkpt lat="44.885067567598874" lon="8.014969560200724"><ele>194.2</ele><time>2026-04-19T08:08:48Z</time></trkpt><trkpt lat="44.885160064184745" lon="8.015009515643944"><ele>193.4</ele><time>2026-04-19T08:08:49Z</time></trkpt><trkpt lat="44.88525772760923" lon="8.015060555043872"><ele>192.60000000000002</ele><time>2026-04-19T08:08:50Z</time></trkpt><trkpt lat="44.88533343140185" lon="8.015130278829842"><ele>191.8</ele><time>2026-04-19T08:08:51Z</time></trkpt><trkpt lat="44.88538312292659" lon="8.015220649104442"><ele>191.0</ele><time>2026-04-19T08:08:52Z</time></trkpt><trkpt lat="44.88541941375153" lon="8.015326540608797"><ele>191.0</ele><time>2026-04-19T08:08:53Z</time></trkpt><trkpt lat="44.88544689386526" lon="8.015448472732556"><ele>191.0</ele><time>2026-04-19T08:08:54Z</time></trkpt><trkpt lat="44.88547358052374" lon="8.01554194529733"><ele>191.0</ele><time>2026-04-19T08:08:55Z</time></trkpt><trkpt lat="44.88551551488516" lon="8.015612999383785"><ele>191.0</ele><time>2026-04-19T08:08:56Z</time></trkpt><trkpt lat="44.88564623751869" lon="8.015707130586515"><ele>191.0</ele><time>2026-04-19T08:08:58Z</time></trkpt><trkpt lat="44.88574946737537" lon="8.015754142015902"><ele>191.0</ele><time>2026-04-19T08:08:59Z</time></trkpt><trkpt lat="44.885867384503754" lon="8.015790709861884"><ele>191.0</ele><time>2026-04-19T08:09:00Z</time></trkpt><trkpt lat="44.88599113389992" lon="8.015822322793387"><ele>191.0</ele><time>2026-04-19T08:09:01Z</time></trkpt><trkpt lat="44.88611964956885" lon="8.015852171486406"><ele>191.0</ele><time>2026-04-19T08:09:02Z</time></trkpt><trkpt lat="44.886254524684425" lon="8.015886361505936"><ele>190.60000000000002</ele><time>2026-04-19T08:09:03Z</time></trkpt><trkpt lat="44.88637657421938" lon="8.01591819468937"><ele>190.2</ele><time>2026-04-19T08:09:04Z</time></trkpt><trkpt lat="44.88647783127337" lon="8.015947744309502"><ele>189.8</ele><time>2026-04-19T08:09:05Z</time></trkpt><trkpt lat="44.88656836045591" lon="8.015971741172061"><ele>189.39999999999998</ele><time>2026-04-19T08:09:06Z</time></trkpt><trkpt lat="44.886646846170585" lon="8.01598260062476"><ele>189.0</ele><time>2026-04-19T08:09:07Z</time></trkpt><trkpt lat="44.886716094932915" lon="8.015991619521442"><ele>188.66666666666666</ele><time>2026-04-19T08:09:08Z</time></trkpt><trkpt lat="44.88683072314451" lon="8.016004739124021"><ele>188.33333333333334</ele><time>2026-04-19T08:09:10Z</time></trkpt><trkpt lat="44.88689905977094" lon="8.016027956429085"><ele>188.0</ele><time>2026-04-19T08:09:12Z</time></trkpt><trkpt lat="44.88689457045456" lon="8.016135701277202"><ele>187.66666666666669</ele><time>2026-04-19T08:09:15Z</time></trkpt><trkpt lat="44.88690010119114" lon="8.016261869256985"><ele>187.33333333333334</ele><time>2026-04-19T08:09:30Z</time></trkpt><trkpt lat="44.88689789964534" lon="8.01638179246883"><ele>187.0</ele><time>2026-04-19T08:09:31Z</time></trkpt><trkpt lat="44.886880613496004" lon="8.016527999667927"><ele>187.75</ele><time>2026-04-19T08:09:32Z</time></trkpt><trkpt lat="44.8868746398424" lon="8.016676344900334"><ele>188.5</ele><time>2026-04-19T08:09:33Z</time></trkpt><trkpt lat="44.88686919679768" lon="8.01684461238624"><ele>189.25</ele><time>2026-04-19T08:09:34Z</time></trkpt><trkpt lat="44.88685557985107" lon="8.01701734980704"><ele>190.0</ele><time>2026-04-19T08:09:35Z</time></trkpt><trkpt lat="44.88684333433719" lon="8.017170746380833"><ele>190.0</ele><time>2026-04-19T08:09:36Z</time></trkpt><trkpt lat="44.886832368671655" lon="8.01732185356023"><ele>190.0</ele><time>2026-04-19T08:09:37Z</time></trkpt><trkpt lat="44.88682416941963" lon="8.017487704086147"><ele>190.0</ele><time>2026-04-19T08:09:38Z</time></trkpt><trkpt lat="44.886814325608235" lon="8.017670421318334"><ele>190.0</ele><time>2026-04-19T08:09:39Z</time></trkpt><trkpt lat="44.886809429207815" lon="8.0178629056985"><ele>191.5</ele><time>2026-04-19T08:09:40Z</time></trkpt><trkpt lat="44.886800263089405" lon="8.018063863140936"><ele>193.0</ele><time>2026-04-19T08:09:41Z</time></trkpt><trkpt lat="44.88679682168361" lon="8.01826317959667"><ele>194.5</ele><time>2026-04-19T08:09:42Z</time></trkpt><trkpt lat="44.88679691198364" lon="8.018461551992797"><ele>196.0</ele><time>2026-04-19T08:09:43Z</time></trkpt><trkpt lat="44.88679965889681" lon="8.018628494880359"><ele>195.8</ele><time>2026-04-19T08:09:44Z</time></trkpt><trkpt lat="44.886799166555186" lon="8.018757520873223"><ele>195.60000000000002</ele><time>2026-04-19T08:09:45Z</time></trkpt><trkpt lat="44.886795680131" lon="8.01887803211417"><ele>195.4</ele><time>2026-04-19T08:09:46Z</time></trkpt><trkpt lat="44.886784568731706" lon="8.018998740900164"><ele>195.2</ele><time>2026-04-19T08:09:47Z</time></trkpt><trkpt lat="44.88675869182312" lon="8.019122974472554"><ele>195.0</ele><time>2026-04-19T08:09:48Z</time></trkpt><trkpt lat="44.88671422779348" lon="8.019261759428561"><ele>194.5</ele><time>2026-04-19T08:09:49Z</time></trkpt><trkpt lat="44.886670617664194" lon="8.019422162657689"><ele>194.0</ele><time>2026-04-19T08:09:50Z</time></trkpt><trkpt lat="44.886628879505544" lon="8.019600257957231"><ele>193.5</ele><time>2026-04-19T08:09:51Z</time></trkpt><trkpt lat="44.88658938763589" lon="8.01977968156381"><ele>193.0</ele><time>2026-04-19T08:09:52Z</time></trkpt><trkpt lat="44.88654868004963" lon="8.019940294117738"><ele>193.0</ele><time>2026-04-19T08:09:53Z</time></trkpt><trkpt lat="44.88651336655739" lon="8.02007583696127"><ele>193.0</ele><time>2026-04-19T08:09:54Z</time></trkpt><trkpt lat="44.88648964022341" lon="8.020177527510306"><ele>193.0</ele><time>2026-04-19T08:09:55Z</time></trkpt><trkpt lat="44.886489633262784" lon="8.020288894569566"><ele>193.0</ele><time>2026-04-19T08:09:57Z</time></trkpt><trkpt lat="44.88661290140566" lon="8.020355336563519"><ele>193.0</ele><time>2026-04-19T08:09:59Z</time></trkpt><trkpt lat="44.886706255371735" lon="8.020413238027405"><ele>194.60000000000002</ele><time>2026-04-19T08:10:00Z</time></trkpt><trkpt lat="44.886795175579934" lon="8.020498845333567"><ele>196.20000000000002</ele><time>2026-04-19T08:10:01Z</time></trkpt><trkpt lat="44.88689969937651" lon="8.020607022368866"><ele>197.8</ele><time>2026-04-19T08:10:02Z</time></trkpt><trkpt lat="44.886977934113354" lon="8.020698447775658"><ele>199.4</ele><time>2026-04-19T08:10:03Z</time></trkpt><trkpt lat="44.887036478954876" lon="8.020795184659777"><ele>201.0</ele><time>2026-04-19T08:10:04Z</time></trkpt><trkpt lat="44.88709120522874" lon="8.020913244206275"><ele>203.0</ele><time>2026-04-19T08:10:05Z</time></trkpt><trkpt lat="44.88714119229555" lon="8.021045299697706"><ele>205.0</ele><time>2026-04-19T08:10:06Z</time></trkpt><trkpt lat="44.88718217269003" lon="8.021175537865755"><ele>207.0</ele><time>2026-04-19T08:10:07Z</time></trkpt><trkpt lat="44.88721969016815" lon="8.02126403042878"><ele>209.0</ele><time>2026-04-19T08:10:08Z</time></trkpt><trkpt lat="44.88726261506337" lon="8.021358666321516"><ele>211.0</ele><time>2026-04-19T08:10:10Z</time></trkpt><trkpt lat="44.887291192791245" lon="8.02146182614897"><ele>213.0</ele><time>2026-04-19T08:10:12Z</time></trkpt><trkpt lat="44.88738470107436" lon="8.021586282885215"><ele>215.0</ele><time>2026-04-19T08:10:14Z</time></trkpt><trkpt lat="44.88734777482531" lon="8.021710500443396"><ele>217.0</ele><time>2026-04-19T08:10:16Z</time></trkpt><trkpt lat="44.8872811825291" lon="8.021807013597034"><ele>219.0</ele><time>2026-04-19T08:10:18Z</time></trkpt><trkpt lat="44.88724518877191" lon="8.0219539319492"><ele>221.0</ele><time>2026-04-19T08:10:20Z</time></trkpt><trkpt lat="44.88721587564084" lon="8.022068979907488"><ele>223.0</ele><time>2026-04-19T08:10:22Z</time></trkpt><trkpt lat="44.887145222869094" lon="8.022250079235759"><ele>222.99999999999997</ele><time>2026-04-19T08:10:24Z</time></trkpt><trkpt lat="44.88711921186085" lon="8.022348232869035"><ele>223.0</ele><time>2026-04-19T08:10:25Z</time></trkpt><trkpt lat="44.88711912962348" lon="8.022451127051838"><ele>223.0</ele><time>2026-04-19T08:10:26Z</time></trkpt><trkpt lat="44.88712229168752" lon="8.022588348296498"><ele>223.0</ele><time>2026-04-19T08:10:27Z</time></trkpt><trkpt lat="44.887138512729535" lon="8.022708086435037"><ele>222.99999999999997</ele><time>2026-04-19T08:10:28Z</time></trkpt><trkpt lat="44.88715684264117" lon="8.022829895795736"><ele>223.0</ele><time>2026-04-19T08:10:29Z</time></trkpt><trkpt lat="44.887176327284635" lon="8.022946292699736"><ele>224.66666666666666</ele><time>2026-04-19T08:10:30Z</time></trkpt><trkpt lat="44.88719600826105" lon="8.023045166515894"><ele>226.33333333333331</ele><time>2026-04-19T08:10:31Z</time></trkpt><trkpt lat="44.88725505952539" lon="8.023137966485558"><ele>228.0</ele><time>2026-04-19T08:10:33Z</time></trkpt><trkpt lat="44.887317199312875" lon="8.023102820538393"><ele>229.66666666666669</ele><time>2026-04-19T08:10:34Z</time></trkpt><trkpt lat="44.88740608785929" lon="8.023023381918307"><ele>231.33333333333334</ele><time>2026-04-19T08:10:36Z</time></trkpt><trkpt lat="44.88743688177498" lon="8.022937819709131"><ele>233.0</ele><time>2026-04-19T08:10:37Z</time></trkpt><trkpt lat="44.88748137525112" lon="8.022806513552545"><ele>233.0</ele><time>2026-04-19T08:10:38Z</time></trkpt><trkpt lat="44.88751102417303" lon="8.022643757745254"><ele>233.0</ele><time>2026-04-19T08:10:39Z</time></trkpt><trkpt lat="44.88755865672972" lon="8.022492880635266"><ele>233.0</ele><time>2026-04-19T08:10:40Z</time></trkpt><trkpt lat="44.88761412299418" lon="8.02239088817983"><ele>233.0</ele><time>2026-04-19T08:10:41Z</time></trkpt><trkpt lat="44.887659490327955" lon="8.022318520397063"><ele>233.0</ele><time>2026-04-19T08:10:42Z</time></trkpt><trkpt lat="44.88776913574295" lon="8.022408362949871"><ele>233.60000000000002</ele><time>2026-04-19T08:10:46Z</time></trkpt><trkpt lat="44.88788665880998" lon="8.022433556109634"><ele>234.20000000000002</ele><time>2026-04-19T08:10:49Z</time></trkpt><trkpt lat="44.88798039214285" lon="8.022494846510362"><ele>234.8</ele><time>2026-04-19T08:10:50Z</time></trkpt><trkpt lat="44.88806188738574" lon="8.02239581230258"><ele>235.4</ele><time>2026-04-19T08:10:52Z</time></trkpt><trkpt lat="44.88811680784833" lon="8.02232765916901"><ele>236.0</ele><time>2026-04-19T08:10:53Z</time></trkpt><trkpt lat="44.88822526116515" lon="8.02233680989923"><ele>236.0</ele><time>2026-04-19T08:10:55Z</time></trkpt><trkpt lat="44.88829154984713" lon="8.022355185955501"><ele>236.00000000000003</ele><time>2026-04-19T08:10:56Z</time></trkpt><trkpt lat="44.88837431720384" lon="8.022316740570197"><ele>236.00000000000003</ele><time>2026-04-19T08:10:59Z</time></trkpt><trkpt lat="44.888518042311716" lon="8.022274067819607"><ele>236.0</ele><time>2026-04-19T08:11:01Z</time></trkpt><trkpt lat="44.888547617361176" lon="8.022156134831096"><ele>236.0</ele><time>2026-04-19T08:11:02Z</time></trkpt><trkpt lat="44.888592571479485" lon="8.021966444767278"><ele>233.0</ele><time>2026-04-19T08:11:03Z</time></trkpt><trkpt lat="44.88859388864181" lon="8.021742109934298"><ele>230.00000000000003</ele><time>2026-04-19T08:11:04Z</time></trkpt><trkpt lat="44.88862638654859" lon="8.0216457085083"><ele>227.00000000000003</ele><time>2026-04-19T08:11:05Z</time></trkpt><trkpt lat="44.88867091816174" lon="8.021515698578176"><ele>224.0</ele><time>2026-04-19T08:11:07Z</time></trkpt><trkpt lat="44.888690937449155" lon="8.02139856351928"><ele>221.0</ele><time>2026-04-19T08:11:08Z</time></trkpt><trkpt lat="44.8886941467442" lon="8.021303009598684"><ele>220.83333333333334</ele><time>2026-04-19T08:11:09Z</time></trkpt><trkpt lat="44.888716118447924" lon="8.021204900110494"><ele>220.66666666666669</ele><time>2026-04-19T08:11:10Z</time></trkpt><trkpt lat="44.88871997068301" lon="8.021113749039456"><ele>220.5</ele><time>2026-04-19T08:11:13Z</time></trkpt><trkpt lat="44.88866478203047" lon="8.021018519315458"><ele>220.33333333333331</ele><time>2026-04-19T08:11:16Z</time></trkpt><trkpt lat="44.8885672429803" lon="8.021002352509628"><ele>220.16666666666666</ele><time>2026-04-19T08:11:17Z</time></trkpt><trkpt lat="44.8884787848898" lon="8.020990196596125"><ele>220.0</ele><time>2026-04-19T08:11:19Z</time></trkpt><trkpt lat="44.888471602950105" lon="8.020895098663134"><ele>220.8</ele><time>2026-04-19T08:11:20Z</time></trkpt><trkpt lat="44.88846849874457" lon="8.020757202029614"><ele>221.6</ele><time>2026-04-19T08:11:22Z</time></trkpt><trkpt lat="44.888438900511765" lon="8.020677674771196"><ele>222.39999999999998</ele><time>2026-04-19T08:11:23Z</time></trkpt><trkpt lat="44.88838461913811" lon="8.020593408208455"><ele>223.2</ele><time>2026-04-19T08:11:24Z</time></trkpt><trkpt lat="44.88834336521285" lon="8.020512078479447"><ele>224.0</ele><time>2026-04-19T08:11:27Z</time></trkpt><trkpt lat="44.88839685243999" lon="8.02026724338678"><ele>224.0</ele><time>2026-04-19T08:11:29Z</time></trkpt><trkpt lat="44.88841203232103" lon="8.020116343184963"><ele>223.99999999999997</ele><time>2026-04-19T08:11:30Z</time></trkpt><trkpt lat="44.88840527475708" lon="8.019942173928243"><ele>223.99999999999997</ele><time>2026-04-19T08:11:31Z</time></trkpt><trkpt lat="44.88840174278518" lon="8.019779648842038"><ele>224.0</ele><time>2026-04-19T08:11:32Z</time></trkpt><trkpt lat="44.88837393091035" lon="8.019646281704937"><ele>224.0</ele><time>2026-04-19T08:11:33Z</time></trkpt><trkpt lat="44.88835412556389" lon="8.019518258087958"><ele>223.39999999999998</ele><time>2026-04-19T08:11:34Z</time></trkpt><trkpt lat="44.88835798999157" lon="8.019402693210754"><ele>222.79999999999998</ele><time>2026-04-19T08:11:35Z</time></trkpt><trkpt lat="44.88837859477154" lon="8.019298234506286"><ele>222.20000000000002</ele><time>2026-04-19T08:11:36Z</time></trkpt><trkpt lat="44.888452565167576" lon="8.019130739146458"><ele>221.60000000000002</ele><time>2026-04-19T08:11:38Z</time></trkpt><trkpt lat="44.88853296096549" lon="8.019013467831455"><ele>221.0</ele><time>2026-04-19T08:11:39Z</time></trkpt><trkpt lat="44.888595737948265" lon="8.018938489331337"><ele>224.60000000000002</ele><time>2026-04-19T08:11:40Z</time></trkpt><trkpt lat="44.888644176631374" lon="8.018855297978687"><ele>228.20000000000002</ele><time>2026-04-19T08:11:41Z</time></trkpt><trkpt lat="44.88871327363558" lon="8.018856472073761"><ele>231.79999999999998</ele><time>2026-04-19T08:11:43Z</time></trkpt><trkpt lat="44.88879256500671" lon="8.018828087838667"><ele>235.39999999999998</ele><time>2026-04-19T08:11:45Z</time></trkpt><trkpt lat="44.88891174816347" lon="8.018802167704365"><ele>239.0</ele><time>2026-04-19T08:11:47Z</time></trkpt><trkpt lat="44.88903956093886" lon="8.018767786630885"><ele>239.0</ele><time>2026-04-19T08:11:49Z</time></trkpt><trkpt lat="44.88916077635204" lon="8.018742539298488"><ele>238.99999999999997</ele><time>2026-04-19T08:11:51Z</time></trkpt><trkpt lat="44.88924427794908" lon="8.018849078115316"><ele>238.99999999999997</ele><time>2026-04-19T08:11:53Z</time></trkpt><trkpt lat="44.88935729377699" lon="8.018924650444816"><ele>239.0</ele><time>2026-04-19T08:11:55Z</time></trkpt><trkpt lat="44.889418288465784" lon="8.018972485003804"><ele>239.0</ele><time>2026-04-19T08:11:56Z</time></trkpt><trkpt lat="44.88949455491808" lon="8.018991878457504"><ele>237.50000000000003</ele><time>2026-04-19T08:11:57Z</time></trkpt><trkpt lat="44.88955180939911" lon="8.019041735219385"><ele>236.0</ele><time>2026-04-19T08:11:58Z</time></trkpt><trkpt lat="44.88958551484555" lon="8.019125562947188"><ele>234.5</ele><time>2026-04-19T08:11:59Z</time></trkpt><trkpt lat="44.88965281094822" lon="8.019184629948537"><ele>233.0</ele><time>2026-04-19T08:12:00Z</time></trkpt><trkpt lat="44.88976705990931" lon="8.019293573021468"><ele>231.50000000000003</ele><time>2026-04-19T08:12:02Z</time></trkpt><trkpt lat="44.889839942993326" lon="8.019364250003003"><ele>230.0</ele><time>2026-04-19T08:12:03Z</time></trkpt><trkpt lat="44.889909297481545" lon="8.019404570892348"><ele>228.4</ele><time>2026-04-19T08:12:04Z</time></trkpt><trkpt lat="44.889984937328315" lon="8.019423377525563"><ele>226.8</ele><time>2026-04-19T08:12:05Z</time></trkpt><trkpt lat="44.89006491564996" lon="8.019429079519448"><ele>225.2</ele><time>2026-04-19T08:12:06Z</time></trkpt><trkpt lat="44.89015694791263" lon="8.01942418849302"><ele>223.6</ele><time>2026-04-19T08:12:07Z</time></trkpt><trkpt lat="44.890232203301274" lon="8.01939668670057"><ele>222.0</ele><time>2026-04-19T08:12:08Z</time></trkpt><trkpt lat="44.89035948505098" lon="8.019384112992572"><ele>219.33333333333334</ele><time>2026-04-19T08:12:10Z</time></trkpt><trkpt lat="44.89046346116312" lon="8.019373918933349"><ele>216.66666666666669</ele><time>2026-04-19T08:12:12Z</time></trkpt><trkpt lat="44.890482276481904" lon="8.019255152862948"><ele>214.0</ele><time>2026-04-19T08:12:18Z</time></trkpt><trkpt lat="44.89041853242456" lon="8.019200667861263"><ele>211.33333333333334</ele><time>2026-04-19T08:12:20Z</time></trkpt><trkpt lat="44.890331479060706" lon="8.01913490799421"><ele>208.66666666666669</ele><time>2026-04-19T08:12:22Z</time></trkpt><trkpt lat="44.89031216124298" lon="8.019018292375156"><ele>206.0</ele><time>2026-04-19T08:12:24Z</time></trkpt><trkpt lat="44.89032196776225" lon="8.018918817619484"><ele>206.16666666666669</ele><time>2026-04-19T08:12:26Z</time></trkpt><trkpt lat="44.8902950337624" lon="8.01882806471019"><ele>206.33333333333334</ele><time>2026-04-19T08:12:28Z</time></trkpt><trkpt lat="44.89024912773437" lon="8.018710129827653"><ele>206.5</ele><time>2026-04-19T08:12:30Z</time></trkpt><trkpt lat="44.89021517664128" lon="8.018630078032514"><ele>206.66666666666669</ele><time>2026-04-19T08:12:33Z</time></trkpt><trkpt lat="44.89020015111036" lon="8.01852671476284"><ele>206.83333333333334</ele><time>2026-04-19T08:12:36Z</time></trkpt><trkpt lat="44.89020197883014" lon="8.018409415308327"><ele>207.0</ele><time>2026-04-19T08:12:38Z</time></trkpt><trkpt lat="44.890195586941175" lon="8.018306096227242"><ele>207.0</ele><time>2026-04-19T08:12:39Z</time></trkpt><trkpt lat="44.89019184279351" lon="8.018217113606424"><ele>207.0</ele><time>2026-04-19T08:12:40Z</time></trkpt><trkpt lat="44.89016848543087" lon="8.018082712474612"><ele>207.0</ele><time>2026-04-19T08:12:42Z</time></trkpt><trkpt lat="44.8902123214794" lon="8.017952407590347"><ele>207.0</ele><time>2026-04-19T08:12:44Z</time></trkpt><trkpt lat="44.89021116769746" lon="8.017830006450648"><ele>207.0</ele><time>2026-04-19T08:12:46Z</time></trkpt><trkpt lat="44.89017626283562" lon="8.01773435097391"><ele>207.0</ele><time>2026-04-19T08:12:47Z</time></trkpt><trkpt lat="44.890138308667325" lon="8.01762945717918"><ele>207.0</ele><time>2026-04-19T08:12:49Z</time></trkpt><trkpt lat="44.89015384551363" lon="8.017537850609274"><ele>207.0</ele><time>2026-04-19T08:12:51Z</time></trkpt><trkpt lat="44.8901332606001" lon="8.017448647871225"><ele>207.0</ele><time>2026-04-19T08:12:53Z</time></trkpt><trkpt lat="44.89012842197317" lon="8.017267719158673"><ele>207.0</ele><time>2026-04-19T08:12:57Z</time></trkpt><trkpt lat="44.890183209307416" lon="8.017110925748101"><ele>207.0</ele><time>2026-04-19T08:12:59Z</time></trkpt><trkpt lat="44.89019927947096" lon="8.016996727963752"><ele>209.0</ele><time>2026-04-19T08:13:00Z</time></trkpt><trkpt lat="44.890252645783484" lon="8.016839979207868"><ele>211.0</ele><time>2026-04-19T08:13:02Z</time></trkpt><trkpt lat="44.89031979639942" lon="8.016694835741859"><ele>213.0</ele><time>2026-04-19T08:13:04Z</time></trkpt><trkpt lat="44.890345569147236" lon="8.016606688346494"><ele>215.0</ele><time>2026-04-19T08:13:05Z</time></trkpt><trkpt lat="44.89039847421941" lon="8.016535675626592"><ele>217.0</ele><time>2026-04-19T08:13:06Z</time></trkpt><trkpt lat="44.89046380990916" lon="8.01642012254512"><ele>219.25</ele><time>2026-04-19T08:13:08Z</time></trkpt><trkpt lat="44.890529228903375" lon="8.016321863126704"><ele>221.5</ele><time>2026-04-19T08:13:09Z</time></trkpt><trkpt lat="44.89063913355072" lon="8.016281713224668"><ele>223.75</ele><time>2026-04-19T08:13:11Z</time></trkpt><trkpt lat="44.8907090446071" lon="8.01613928386314"><ele>226.0</ele><time>2026-04-19T08:13:14Z</time></trkpt><trkpt lat="44.890860015596886" lon="8.015821666564973"><ele>225.66666666666666</ele><time>2026-04-19T08:13:16Z</time></trkpt><trkpt lat="44.890905949047884" lon="8.015759918431257"><ele>225.33333333333331</ele><time>2026-04-19T08:13:17Z</time></trkpt><trkpt lat="44.890958868589976" lon="8.01569762062813"><ele>225.0</ele><time>2026-04-19T08:13:18Z</time></trkpt><trkpt lat="44.890931935615065" lon="8.015554982911787"><ele>224.66666666666669</ele><time>2026-04-19T08:13:20Z</time></trkpt><trkpt lat="44.89092036697362" lon="8.015458360435824"><ele>224.33333333333334</ele><time>2026-04-19T08:13:21Z</time></trkpt><trkpt lat="44.890890186298705" lon="8.015365494553826"><ele>224.0</ele><time>2026-04-19T08:13:22Z</time></trkpt><trkpt lat="44.89082198794846" lon="8.015257475984233"><ele>224.00000000000003</ele><time>2026-04-19T08:13:24Z</time></trkpt><trkpt lat="44.89077876123064" lon="8.015181558812046"><ele>224.0</ele><time>2026-04-19T08:13:28Z</time></trkpt><trkpt lat="44.890789902260906" lon="8.015090079134142"><ele>224.0</ele><time>2026-04-19T08:13:46Z</time></trkpt><trkpt lat="44.890876026710934" lon="8.014964455417807"><ele>224.0</ele><time>2026-04-19T08:13:48Z</time></trkpt><trkpt lat="44.89084627902267" lon="8.014841381192205"><ele>224.00000000000003</ele><time>2026-04-19T08:13:50Z</time></trkpt><trkpt lat="44.89084683354561" lon="8.014747644163494"><ele>224.0</ele><time>2026-04-19T08:13:52Z</time></trkpt><trkpt lat="44.89083072678751" lon="8.014605364474493"><ele>222.2</ele><time>2026-04-19T08:13:54Z</time></trkpt><trkpt lat="44.8908309871236" lon="8.01450428364324"><ele>220.39999999999998</ele><time>2026-04-19T08:13:55Z</time></trkpt><trkpt lat="44.89082126518772" lon="8.014407065748964"><ele>218.6</ele><time>2026-04-19T08:13:56Z</time></trkpt><trkpt lat="44.890817066426095" lon="8.014252911449413"><ele>216.8</ele><time>2026-04-19T08:13:58Z</time></trkpt><trkpt lat="44.89081729840306" lon="8.014123717749444"><ele>215.0</ele><time>2026-04-19T08:14:00Z</time></trkpt><trkpt lat="44.89085764762006" lon="8.013981275657498"><ele>212.66666666666669</ele><time>2026-04-19T08:14:04Z</time></trkpt><trkpt lat="44.89085123761363" lon="8.013875928821339"><ele>210.33333333333334</ele><time>2026-04-19T08:14:05Z</time></trkpt><trkpt lat="44.890860746128595" lon="8.013783565173972"><ele>208.0</ele><time>2026-04-19T08:14:06Z</time></trkpt><trkpt lat="44.890917053316265" lon="8.013643899664629"><ele>205.66666666666669</ele><time>2026-04-19T08:14:08Z</time></trkpt><trkpt lat="44.890915291961754" lon="8.013518757631493"><ele>203.33333333333334</ele><time>2026-04-19T08:14:11Z</time></trkpt><trkpt lat="44.89093746957749" lon="8.013434507003469"><ele>201.0</ele><time>2026-04-19T08:14:13Z</time></trkpt><trkpt lat="44.89093757170819" lon="8.013330602180737"><ele>197.8</ele><time>2026-04-19T08:14:15Z</time></trkpt><trkpt lat="44.89090161611218" lon="8.013230030666083"><ele>194.60000000000002</ele><time>2026-04-19T08:14:18Z</time></trkpt><trkpt lat="44.890841298229255" lon="8.013197782358098"><ele>191.4</ele><time>2026-04-19T08:14:20Z</time></trkpt><trkpt lat="44.89073341513922" lon="8.013042742498774"><ele>188.2</ele><time>2026-04-19T08:14:22Z</time></trkpt><trkpt lat="44.890627824212494" lon="8.013114158318182"><ele>185.0</ele><time>2026-04-19T08:14:24Z</time></trkpt><trkpt lat="44.89057644813098" lon="8.013170339752502"><ele>185.0</ele><time>2026-04-19T08:14:25Z</time></trkpt><trkpt lat="44.89050598992385" lon="8.013293596163265"><ele>185.0</ele><time>2026-04-19T08:14:26Z</time></trkpt><trkpt lat="44.89042903045463" lon="8.01331596189031"><ele>185.0</ele><time>2026-04-19T08:14:27Z</time></trkpt><trkpt lat="44.89036071104041" lon="8.013375587036666"><ele>185.0</ele><time>2026-04-19T08:14:28Z</time></trkpt><trkpt lat="44.890272610816695" lon="8.01342834408238"><ele>185.0</ele><time>2026-04-19T08:14:29Z</time></trkpt><trkpt lat="44.89019816340064" lon="8.013483545326137"><ele>185.66666666666666</ele><time>2026-04-19T08:14:30Z</time></trkpt><trkpt lat="44.89011939264692" lon="8.013511057574705"><ele>186.33333333333331</ele><time>2026-04-19T08:14:31Z</time></trkpt><trkpt lat="44.89006373498829" lon="8.013580468092359"><ele>187.0</ele><time>2026-04-19T08:14:32Z</time></trkpt><trkpt lat="44.88996215488593" lon="8.013562217630165"><ele>187.66666666666666</ele><time>2026-04-19T08:14:34Z</time></trkpt><trkpt lat="44.88986188438091" lon="8.013510260106662"><ele>188.33333333333334</ele><time>2026-04-19T08:14:36Z</time></trkpt><trkpt lat="44.88982362939017" lon="8.013435070938549"><ele>189.0</ele><time>2026-04-19T08:14:37Z</time></trkpt><trkpt lat="44.88982870917105" lon="8.013327667650557"><ele>188.33333333333334</ele><time>2026-04-19T08:14:39Z</time></trkpt><trkpt lat="44.88987087856062" lon="8.01325583972157"><ele>187.66666666666666</ele><time>2026-04-19T08:14:40Z</time></trkpt><trkpt lat="44.88987763450349" lon="8.013119946064464"><ele>187.0</ele><time>2026-04-19T08:14:41Z</time></trkpt><trkpt lat="44.88995640938503" lon="8.01304345766918"><ele>186.33333333333331</ele><time>2026-04-19T08:14:42Z</time></trkpt><trkpt lat="44.89000216632644" lon="8.012962984895562"><ele>185.66666666666666</ele><time>2026-04-19T08:14:43Z</time></trkpt><trkpt lat="44.89005690157922" lon="8.01288524435375"><ele>185.0</ele><time>2026-04-19T08:14:44Z</time></trkpt><trkpt lat="44.89011225706377" lon="8.012813628069239"><ele>185.0</ele><time>2026-04-19T08:14:45Z</time></trkpt><trkpt lat="44.89016514779954" lon="8.012734873529778"><ele>185.0</ele><time>2026-04-19T08:14:46Z</time></trkpt><trkpt lat="44.89023573929026" lon="8.012656785938486"><ele>185.0</ele><time>2026-04-19T08:14:47Z</time></trkpt><trkpt lat="44.890305339611814" lon="8.012602131635534"><ele>185.0</ele><time>2026-04-19T08:14:48Z</time></trkpt><trkpt lat="44.890362294213894" lon="8.012552483949687"><ele>185.0</ele><time>2026-04-19T08:14:49Z</time></trkpt><trkpt lat="44.8904122703157" lon="8.0124715879447"><ele>185.0</ele><time>2026-04-19T08:14:50Z</time></trkpt><trkpt lat="44.89045868069703" lon="8.012337389720681"><ele>184.0</ele><time>2026-04-19T08:14:51Z</time></trkpt><trkpt lat="44.89050294195292" lon="8.012191694077652"><ele>183.0</ele><time>2026-04-19T08:14:52Z</time></trkpt><trkpt lat="44.890549487520964" lon="8.0120759225283"><ele>182.0</ele><time>2026-04-19T08:14:53Z</time></trkpt><trkpt lat="44.89060447671566" lon="8.011965765434205"><ele>181.0</ele><time>2026-04-19T08:14:54Z</time></trkpt><trkpt lat="44.8906597433458" lon="8.011843624503834"><ele>180.0</ele><time>2026-04-19T08:14:55Z</time></trkpt><trkpt lat="44.89071573260682" lon="8.011704441780221"><ele>179.25</ele><time>2026-04-19T08:14:56Z</time></trkpt><trkpt lat="44.89077424609631" lon="8.011562785330701"><ele>178.5</ele><time>2026-04-19T08:14:57Z</time></trkpt><trkpt lat="44.890840061638634" lon="8.011413024125122"><ele>177.75</ele><time>2026-04-19T08:14:58Z</time></trkpt><trkpt lat="44.89090042457992" lon="8.01126270772735"><ele>177.0</ele><time>2026-04-19T08:14:59Z</time></trkpt><trkpt lat="44.890959053013965" lon="8.011130540653282"><ele>176.75</ele><time>2026-04-19T08:15:00Z</time></trkpt><trkpt lat="44.89100978711882" lon="8.011011286112101"><ele>176.5</ele><time>2026-04-19T08:15:01Z</time></trkpt><trkpt lat="44.89106919852793" lon="8.010870807551562"><ele>176.25</ele><time>2026-04-19T08:15:02Z</time></trkpt><trkpt lat="44.89113025957127" lon="8.010727800392997"><ele>176.0</ele><time>2026-04-19T08:15:03Z</time></trkpt><trkpt lat="44.89119325897373" lon="8.010577134415712"><ele>176.0</ele><time>2026-04-19T08:15:04Z</time></trkpt><trkpt lat="44.891260541027805" lon="8.010424515601189"><ele>176.0</ele><time>2026-04-19T08:15:05Z</time></trkpt><trkpt lat="44.891318545602175" lon="8.01028754279394"><ele>176.0</ele><time>2026-04-19T08:15:06Z</time></trkpt><trkpt lat="44.89137462899639" lon="8.010162467808081"><ele>176.0</ele><time>2026-04-19T08:15:07Z</time></trkpt><trkpt lat="44.89142610198021" lon="8.010045426320389"><ele>176.0</ele><time>2026-04-19T08:15:08Z</time></trkpt><trkpt lat="44.89147231779427" lon="8.009925001943957"><ele>176.20000000000002</ele><time>2026-04-19T08:15:09Z</time></trkpt><trkpt lat="44.89151249485574" lon="8.009822039120307"><ele>176.4</ele><time>2026-04-19T08:15:10Z</time></trkpt><trkpt lat="44.891551928821954" lon="8.009742739191148"><ele>176.6</ele><time>2026-04-19T08:15:11Z</time></trkpt><trkpt lat="44.89159416995276" lon="8.009667497152279"><ele>176.8</ele><time>2026-04-19T08:15:12Z</time></trkpt><trkpt lat="44.89165679869024" lon="8.009528482800283"><ele>177.0</ele><time>2026-04-19T08:15:14Z</time></trkpt><trkpt lat="44.89173177348005" lon="8.00936686277174"><ele>177.16666666666666</ele><time>2026-04-19T08:15:16Z</time></trkpt><trkpt lat="44.891763276027135" lon="8.009273651517637"><ele>177.33333333333334</ele><time>2026-04-19T08:15:17Z</time></trkpt><trkpt lat="44.89177297587505" lon="8.009172712233518"><ele>177.5</ele><time>2026-04-19T08:15:18Z</time></trkpt><trkpt lat="44.89176465189536" lon="8.009060756158961"><ele>177.66666666666669</ele><time>2026-04-19T08:15:19Z</time></trkpt><trkpt lat="44.89174433155299" lon="8.00895300136105"><ele>177.83333333333334</ele><time>2026-04-19T08:15:20Z</time></trkpt><trkpt lat="44.891734973453275" lon="8.008848164438733"><ele>178.0</ele><time>2026-04-19T08:15:21Z</time></trkpt><trkpt lat="44.89174376114518" lon="8.008740642202508"><ele>178.66666666666669</ele><time>2026-04-19T08:15:22Z</time></trkpt><trkpt lat="44.8917487702834" lon="8.008635291983685"><ele>179.33333333333334</ele><time>2026-04-19T08:15:23Z</time></trkpt><trkpt lat="44.89176376507477" lon="8.008522380033561"><ele>180.0</ele><time>2026-04-19T08:15:24Z</time></trkpt><trkpt lat="44.891776025777325" lon="8.008419767413486"><ele>180.66666666666666</ele><time>2026-04-19T08:15:25Z</time></trkpt><trkpt lat="44.89180265096281" lon="8.008315743401543"><ele>181.33333333333331</ele><time>2026-04-19T08:15:26Z</time></trkpt><trkpt lat="44.89181603527285" lon="8.008204260392494"><ele>182.0</ele><time>2026-04-19T08:15:27Z</time></trkpt><trkpt lat="44.89182710191913" lon="8.008086151381955"><ele>182.66666666666666</ele><time>2026-04-19T08:15:28Z</time></trkpt><trkpt lat="44.89185409477854" lon="8.007972540018876"><ele>183.33333333333331</ele><time>2026-04-19T08:15:29Z</time></trkpt><trkpt lat="44.891894037085216" lon="8.007869669431441"><ele>184.0</ele><time>2026-04-19T08:15:30Z</time></trkpt><trkpt lat="44.89190613724825" lon="8.007757074231359"><ele>184.66666666666666</ele><time>2026-04-19T08:15:31Z</time></trkpt><trkpt lat="44.891909025359425" lon="8.007653853185428"><ele>185.33333333333334</ele><time>2026-04-19T08:15:32Z</time></trkpt><trkpt lat="44.89191428633993" lon="8.00754902331223"><ele>186.0</ele><time>2026-04-19T08:15:33Z</time></trkpt><trkpt lat="44.891945509543525" lon="8.007428265103105"><ele>186.4</ele><time>2026-04-19T08:15:34Z</time></trkpt><trkpt lat="44.89196224932841" lon="8.007311776902856"><ele>186.8</ele><time>2026-04-19T08:15:35Z</time></trkpt><trkpt lat="44.89198776529001" lon="8.007195424508247"><ele>187.20000000000002</ele><time>2026-04-19T08:15:37Z</time></trkpt><trkpt lat="44.89197040099602" lon="8.007044277738574"><ele>187.60000000000002</ele><time>2026-04-19T08:15:51Z</time></trkpt><trkpt lat="44.89187758660085" lon="8.006972730240983"><ele>188.0</ele><time>2026-04-19T08:15:52Z</time></trkpt><trkpt lat="44.89178321304979" lon="8.006915542163437"><ele>188.0</ele><time>2026-04-19T08:15:53Z</time></trkpt><trkpt lat="44.891691083723806" lon="8.006856479342302"><ele>188.0</ele><time>2026-04-19T08:15:54Z</time></trkpt><trkpt lat="44.8916066102957" lon="8.006777393994989"><ele>188.0</ele><time>2026-04-19T08:15:55Z</time></trkpt><trkpt lat="44.891499426863916" lon="8.006713358249279"><ele>188.0</ele><time>2026-04-19T08:15:56Z</time></trkpt><trkpt lat="44.891378802713156" lon="8.006631753101573"><ele>188.0</ele><time>2026-04-19T08:15:57Z</time></trkpt><trkpt lat="44.89127320377278" lon="8.006536892869539"><ele>188.0</ele><time>2026-04-19T08:15:58Z</time></trkpt><trkpt lat="44.891160817223074" lon="8.006457465457856"><ele>188.0</ele><time>2026-04-19T08:15:59Z</time></trkpt><trkpt lat="44.89105245736288" lon="8.006375539120647"><ele>188.0</ele><time>2026-04-19T08:16:00Z</time></trkpt><trkpt lat="44.89094628790701" lon="8.006288288200896"><ele>189.25</ele><time>2026-04-19T08:16:01Z</time></trkpt><trkpt lat="44.89083285016793" lon="8.006207971083658"><ele>190.5</ele><time>2026-04-19T08:16:02Z</time></trkpt><trkpt lat="44.89072757357213" lon="8.006121325426976"><ele>191.75</ele><time>2026-04-19T08:16:03Z</time></trkpt><trkpt lat="44.8906162244639" lon="8.00603490299656"><ele>193.0</ele><time>2026-04-19T08:16:04Z</time></trkpt><trkpt lat="44.89050262287855" lon="8.005949038131261"><ele>193.0</ele><time>2026-04-19T08:16:05Z</time></trkpt><trkpt lat="44.89038483794428" lon="8.005857189574563"><ele>193.0</ele><time>2026-04-19T08:16:06Z</time></trkpt><trkpt lat="44.890256941832455" lon="8.005757358866484"><ele>193.0</ele><time>2026-04-19T08:16:07Z</time></trkpt><trkpt lat="44.89012188870025" lon="8.005654882781114"><ele>193.0</ele><time>2026-04-19T08:16:08Z</time></trkpt><trkpt lat="44.889986837792804" lon="8.005558339663542"><ele>194.0</ele><time>2026-04-19T08:16:09Z</time></trkpt><trkpt lat="44.88986452528626" lon="8.005466006708643"><ele>195.0</ele><time>2026-04-19T08:16:10Z</time></trkpt><trkpt lat="44.88974450949312" lon="8.005380502365695"><ele>196.0</ele><time>2026-04-19T08:16:11Z</time></trkpt><trkpt lat="44.88962297384388" lon="8.005293740639102"><ele>197.0</ele><time>2026-04-19T08:16:12Z</time></trkpt><trkpt lat="44.88949785730121" lon="8.005216045805705"><ele>197.0</ele><time>2026-04-19T08:16:13Z</time></trkpt><trkpt lat="44.88936850439189" lon="8.005148956160703"><ele>197.0</ele><time>2026-04-19T08:16:14Z</time></trkpt><trkpt lat="44.889242031601704" lon="8.005115545072101"><ele>197.0</ele><time>2026-04-19T08:16:15Z</time></trkpt><trkpt lat="44.88910294999038" lon="8.005051462587401"><ele>197.0</ele><time>2026-04-19T08:16:16Z</time></trkpt><trkpt lat="44.8889703280221" lon="8.005010579278833"><ele>196.0</ele><time>2026-04-19T08:16:17Z</time></trkpt><trkpt lat="44.88884464868349" lon="8.004982818361517"><ele>195.0</ele><time>2026-04-19T08:16:18Z</time></trkpt><trkpt lat="44.88872340829431" lon="8.00496161071678"><ele>194.0</ele><time>2026-04-19T08:16:19Z</time></trkpt><trkpt lat="44.88860556530029" lon="8.00495525717829"><ele>193.0</ele><time>2026-04-19T08:16:20Z</time></trkpt><trkpt lat="44.88848565056571" lon="8.004953954344666"><ele>194.0</ele><time>2026-04-19T08:16:21Z</time></trkpt><trkpt lat="44.888372794737066" lon="8.004955225220526"><ele>195.0</ele><time>2026-04-19T08:16:22Z</time></trkpt><trkpt lat="44.88825587757515" lon="8.004968644160243"><ele>196.0</ele><time>2026-04-19T08:16:23Z</time></trkpt><trkpt lat="44.888159730562585" lon="8.004984940319247"><ele>197.0</ele><time>2026-04-19T08:16:24Z</time></trkpt><trkpt lat="44.88803543718407" lon="8.00500569842228"><ele>197.0</ele><time>2026-04-19T08:16:25Z</time></trkpt><trkpt lat="44.88788755751211" lon="8.005028776317898"><ele>197.0</ele><time>2026-04-19T08:16:26Z</time></trkpt><trkpt lat="44.887759795988416" lon="8.005065049586605"><ele>197.0</ele><time>2026-04-19T08:16:27Z</time></trkpt><trkpt lat="44.8876283156874" lon="8.005097149777452"><ele>197.0</ele><time>2026-04-19T08:16:28Z</time></trkpt><trkpt lat="44.887468957355395" lon="8.005132913164013"><ele>197.25</ele><time>2026-04-19T08:16:29Z</time></trkpt><trkpt lat="44.88733226282" lon="8.005178497040143"><ele>197.5</ele><time>2026-04-19T08:16:30Z</time></trkpt><trkpt lat="44.88718188534825" lon="8.005215994698872"><ele>197.75</ele><time>2026-04-19T08:16:31Z</time></trkpt><trkpt lat="44.8870353671868" lon="8.005251461085486"><ele>198.0</ele><time>2026-04-19T08:16:32Z</time></trkpt><trkpt lat="44.88688845517291" lon="8.005289057110284"><ele>198.5</ele><time>2026-04-19T08:16:33Z</time></trkpt><trkpt lat="44.88674998079519" lon="8.00533351363049"><ele>199.0</ele><time>2026-04-19T08:16:34Z</time></trkpt><trkpt lat="44.88661284681339" lon="8.005372528996137"><ele>199.5</ele><time>2026-04-19T08:16:35Z</time></trkpt><trkpt lat="44.88647797703268" lon="8.005403786611383"><ele>200.0</ele><time>2026-04-19T08:16:36Z</time></trkpt><trkpt lat="44.88632095144574" lon="8.005439940238514"><ele>200.0</ele><time>2026-04-19T08:16:37Z</time></trkpt><trkpt lat="44.88616970387103" lon="8.00547150358957"><ele>200.0</ele><time>2026-04-19T08:16:38Z</time></trkpt><trkpt lat="44.886023647357206" lon="8.005507136405825"><ele>200.0</ele><time>2026-04-19T08:16:39Z</time></trkpt><trkpt lat="44.885887849949476" lon="8.00554469349615"><ele>200.0</ele><time>2026-04-19T08:16:40Z</time></trkpt><trkpt lat="44.88575235307187" lon="8.00557805604669"><ele>200.5</ele><time>2026-04-19T08:16:41Z</time></trkpt><trkpt lat="44.88561770854962" lon="8.00561350793314"><ele>201.0</ele><time>2026-04-19T08:16:42Z</time></trkpt><trkpt lat="44.885471486155076" lon="8.005649410603727"><ele>201.5</ele><time>2026-04-19T08:16:43Z</time></trkpt><trkpt lat="44.8853284628968" lon="8.005688931602121"><ele>202.0</ele><time>2026-04-19T08:16:44Z</time></trkpt><trkpt lat="44.885171868599606" lon="8.005733647087647"><ele>203.0</ele><time>2026-04-19T08:16:45Z</time></trkpt><trkpt lat="44.88501549774605" lon="8.005770015056715"><ele>204.0</ele><time>2026-04-19T08:16:46Z</time></trkpt><trkpt lat="44.88485802748034" lon="8.005808427645166"><ele>205.0</ele><time>2026-04-19T08:16:47Z</time></trkpt><trkpt lat="44.884705120880405" lon="8.00584654487893"><ele>204.0</ele><time>2026-04-19T08:16:48Z</time></trkpt><trkpt lat="44.88455139931081" lon="8.005885745308277"><ele>203.0</ele><time>2026-04-19T08:16:49Z</time></trkpt><trkpt lat="44.884412809935164" lon="8.005932010769175"><ele>202.0</ele><time>2026-04-19T08:16:50Z</time></trkpt><trkpt lat="44.88427174964298" lon="8.00597069274663"><ele>201.0</ele><time>2026-04-19T08:16:51Z</time></trkpt><trkpt lat="44.884121908944344" lon="8.006002881574469"><ele>201.0</ele><time>2026-04-19T08:16:52Z</time></trkpt><trkpt lat="44.883968486916366" lon="8.006039250402713"><ele>201.0</ele><time>2026-04-19T08:16:53Z</time></trkpt><trkpt lat="44.88380303978587" lon="8.006085555648568"><ele>201.0</ele><time>2026-04-19T08:16:54Z</time></trkpt><trkpt lat="44.883643181918565" lon="8.006119630904806"><ele>201.0</ele><time>2026-04-19T08:16:55Z</time></trkpt><trkpt lat="44.883481503364536" lon="8.006159823758127"><ele>201.0</ele><time>2026-04-19T08:16:56Z</time></trkpt><trkpt lat="44.88332336600066" lon="8.006199508707528"><ele>201.0</ele><time>2026-04-19T08:16:57Z</time></trkpt><trkpt lat="44.88316945905539" lon="8.006238235128299"><ele>201.33333333333331</ele><time>2026-04-19T08:16:58Z</time></trkpt><trkpt lat="44.883011611974176" lon="8.006271344016183"><ele>201.66666666666666</ele><time>2026-04-19T08:16:59Z</time></trkpt><trkpt lat="44.882861582796586" lon="8.006308470181265"><ele>202.0</ele><time>2026-04-19T08:17:00Z</time></trkpt><trkpt lat="44.88271679080406" lon="8.006350902598273"><ele>206.66666666666666</ele><time>2026-04-19T08:17:01Z</time></trkpt><trkpt lat="44.882565856953754" lon="8.006393137404428"><ele>211.33333333333331</ele><time>2026-04-19T08:17:02Z</time></trkpt><trkpt lat="44.882416006087446" lon="8.006426553753142"><ele>216.0</ele><time>2026-04-19T08:17:03Z</time></trkpt><trkpt lat="44.882263087101016" lon="8.006464017887561"><ele>216.0</ele><time>2026-04-19T08:17:04Z</time></trkpt><trkpt lat="44.882106507447624" lon="8.006495177729695"><ele>216.0</ele><time>2026-04-19T08:17:05Z</time></trkpt><trkpt lat="44.88195604168243" lon="8.006534770498588"><ele>216.0</ele><time>2026-04-19T08:17:06Z</time></trkpt><trkpt lat="44.88179700435626" lon="8.006581271748287"><ele>216.0</ele><time>2026-04-19T08:17:07Z</time></trkpt><trkpt lat="44.8816421716434" lon="8.0066258932428"><ele>216.0</ele><time>2026-04-19T08:17:08Z</time></trkpt><trkpt lat="44.881489435288906" lon="8.006662257137698"><ele>216.0</ele><time>2026-04-19T08:17:09Z</time></trkpt><trkpt lat="44.88133328936169" lon="8.006698042141688"><ele>211.66666666666669</ele><time>2026-04-19T08:17:10Z</time></trkpt><trkpt lat="44.88117446746035" lon="8.00673609844585"><ele>207.33333333333334</ele><time>2026-04-19T08:17:11Z</time></trkpt><trkpt lat="44.8810132021875" lon="8.006772484703133"><ele>203.0</ele><time>2026-04-19T08:17:12Z</time></trkpt><trkpt lat="44.880862408886" lon="8.0068127033295"><ele>202.66666666666669</ele><time>2026-04-19T08:17:13Z</time></trkpt><trkpt lat="44.8807059311903" lon="8.006851585549718"><ele>202.33333333333331</ele><time>2026-04-19T08:17:14Z</time></trkpt><trkpt lat="44.880547292304925" lon="8.006894573187372"><ele>202.0</ele><time>2026-04-19T08:17:15Z</time></trkpt><trkpt lat="44.880406755790005" lon="8.006933447590455"><ele>202.0</ele><time>2026-04-19T08:17:16Z</time></trkpt><trkpt lat="44.88026827634215" lon="8.00699471446499"><ele>202.0</ele><time>2026-04-19T08:17:17Z</time></trkpt><trkpt lat="44.88012689378087" lon="8.007063863169535"><ele>202.0</ele><time>2026-04-19T08:17:18Z</time></trkpt><trkpt lat="44.879987157334845" lon="8.007153376801769"><ele>202.0</ele><time>2026-04-19T08:17:19Z</time></trkpt><trkpt lat="44.879850669083886" lon="8.007264379884369"><ele>201.66666666666666</ele><time>2026-04-19T08:17:20Z</time></trkpt><trkpt lat="44.879716756106305" lon="8.007388406117203"><ele>201.33333333333331</ele><time>2026-04-19T08:17:21Z</time></trkpt><trkpt lat="44.87959145930402" lon="8.007519679719925"><ele>201.0</ele><time>2026-04-19T08:17:22Z</time></trkpt><trkpt lat="44.879473883438415" lon="8.007682710100916"><ele>201.0</ele><time>2026-04-19T08:17:23Z</time></trkpt><trkpt lat="44.879369839771385" lon="8.007847356631043"><ele>201.0</ele><time>2026-04-19T08:17:24Z</time></trkpt><trkpt lat="44.87927754804004" lon="8.008030001829695"><ele>201.0</ele><time>2026-04-19T08:17:25Z</time></trkpt><trkpt lat="44.87919149610321" lon="8.008204531001846"><ele>201.5</ele><time>2026-04-19T08:17:26Z</time></trkpt><trkpt lat="44.87912266836969" lon="8.008371582477338"><ele>202.0</ele><time>2026-04-19T08:17:27Z</time></trkpt><trkpt lat="44.87904170388381" lon="8.008544709581289"><ele>202.5</ele><time>2026-04-19T08:17:28Z</time></trkpt><trkpt lat="44.878945317183444" lon="8.008704920205902"><ele>203.0</ele><time>2026-04-19T08:17:29Z</time></trkpt><trkpt lat="44.87883140345786" lon="8.008851961618968"><ele>203.0</ele><time>2026-04-19T08:17:30Z</time></trkpt><trkpt lat="44.87870497731782" lon="8.008981756814114"><ele>203.0</ele><time>2026-04-19T08:17:31Z</time></trkpt><trkpt lat="44.87856442883843" lon="8.009100261930735"><ele>203.0</ele><time>2026-04-19T08:17:32Z</time></trkpt><trkpt lat="44.87843688760046" lon="8.009197499199603"><ele>203.75</ele><time>2026-04-19T08:17:33Z</time></trkpt><trkpt lat="44.87829662320653" lon="8.009263655486453"><ele>204.5</ele><time>2026-04-19T08:17:34Z</time></trkpt><trkpt lat="44.87815878177082" lon="8.009305027905038"><ele>205.25</ele><time>2026-04-19T08:17:35Z</time></trkpt><trkpt lat="44.87802580943545" lon="8.009319932327765"><ele>206.0</ele><time>2026-04-19T08:17:36Z</time></trkpt><trkpt lat="44.87789210909554" lon="8.009320207840288"><ele>206.0</ele><time>2026-04-19T08:17:37Z</time></trkpt><trkpt lat="44.87776236896891" lon="8.009298863824773"><ele>206.0</ele><time>2026-04-19T08:17:38Z</time></trkpt><trkpt lat="44.877627976305845" lon="8.009253294045761"><ele>206.0</ele><time>2026-04-19T08:17:39Z</time></trkpt><trkpt lat="44.87749090889802" lon="8.00919075480648"><ele>206.0</ele><time>2026-04-19T08:17:40Z</time></trkpt><trkpt lat="44.8773694867831" lon="8.009084726947357"><ele>208.25</ele><time>2026-04-19T08:17:41Z</time></trkpt><trkpt lat="44.87723449945999" lon="8.009011656757512"><ele>210.5</ele><time>2026-04-19T08:17:42Z</time></trkpt><trkpt lat="44.877123404846294" lon="8.00890865525842"><ele>212.75</ele><time>2026-04-19T08:17:43Z</time></trkpt><trkpt lat="44.87701628058701" lon="8.008812801766323"><ele>215.0</ele><time>2026-04-19T08:17:44Z</time></trkpt><trkpt lat="44.87691743097747" lon="8.008722466544056"><ele>215.0</ele><time>2026-04-19T08:17:45Z</time></trkpt><trkpt lat="44.87682225521701" lon="8.008632619028104"><ele>215.0</ele><time>2026-04-19T08:17:46Z</time></trkpt><trkpt lat="44.87673178062508" lon="8.008552606707612"><ele>215.0</ele><time>2026-04-19T08:17:47Z</time></trkpt><trkpt lat="44.87664718647251" lon="8.008476338386423"><ele>215.0</ele><time>2026-04-19T08:17:48Z</time></trkpt><trkpt lat="44.87656197492762" lon="8.00839749609413"><ele>215.0</ele><time>2026-04-19T08:17:49Z</time></trkpt><trkpt lat="44.87648301958353" lon="8.008328714833917"><ele>215.4</ele><time>2026-04-19T08:17:50Z</time></trkpt><trkpt lat="44.876413686986304" lon="8.008274158014167"><ele>215.8</ele><time>2026-04-19T08:17:51Z</time></trkpt><trkpt lat="44.87634906803803" lon="8.008236606348461"><ele>216.2</ele><time>2026-04-19T08:17:52Z</time></trkpt><trkpt lat="44.87625853502726" lon="8.008221845530397"><ele>216.6</ele><time>2026-04-19T08:17:54Z</time></trkpt><trkpt lat="44.87619129477682" lon="8.008278720678714"><ele>217.0</ele><time>2026-04-19T08:18:06Z</time></trkpt><trkpt lat="44.87618412139458" lon="8.008467698598578"><ele>216.33333333333331</ele><time>2026-04-19T08:18:08Z</time></trkpt><trkpt lat="44.876200080075265" lon="8.008601219820832"><ele>215.66666666666666</ele><time>2026-04-19T08:18:09Z</time></trkpt><trkpt lat="44.87622146736792" lon="8.008746953608767"><ele>215.0</ele><time>2026-04-19T08:18:10Z</time></trkpt><trkpt lat="44.87624132077177" lon="8.00884331778248"><ele>214.33333333333331</ele><time>2026-04-19T08:18:11Z</time></trkpt><trkpt lat="44.8762306090976" lon="8.008933933049766"><ele>213.66666666666666</ele><time>2026-04-19T08:18:12Z</time></trkpt><trkpt lat="44.87619661811159" lon="8.009010773240762"><ele>213.0</ele><time>2026-04-19T08:18:13Z</time></trkpt><trkpt lat="44.8761512364374" lon="8.009078042635831"><ele>213.0</ele><time>2026-04-19T08:18:14Z</time></trkpt><trkpt lat="44.87609621235638" lon="8.00917687270636"><ele>213.0</ele><time>2026-04-19T08:18:16Z</time></trkpt><trkpt lat="44.87611967225879" lon="8.009263094963869"><ele>213.0</ele><time>2026-04-19T08:19:39Z</time></trkpt><trkpt lat="44.87603582369075" lon="8.009327007474226"><ele>213.0</ele><time>2026-04-19T08:20:05Z</time></trkpt><trkpt lat="44.87612851639049" lon="8.009257198013733"><ele>213.0</ele><time>2026-04-19T08:20:54Z</time></trkpt><trkpt lat="44.87618758596149" lon="8.00920940720228"><ele>213.0</ele><time>2026-04-19T08:23:33Z</time></trkpt><trkpt lat="44.87619125615148" lon="8.00909756576115"><ele>213.0</ele><time>2026-04-19T08:23:36Z</time></trkpt><trkpt lat="44.876141433811334" lon="8.009035609767997"><ele>213.0</ele><time>2026-04-19T08:23:38Z</time></trkpt><trkpt lat="44.876054930333424" lon="8.009028514335377"><ele>213.0</ele><time>2026-04-19T08:23:40Z</time></trkpt><trkpt lat="44.87596024060247" lon="8.009092859857475"><ele>213.0</ele><time>2026-04-19T08:24:23Z</time></trkpt><trkpt lat="44.87602475631071" lon="8.009074394685912"><ele>213.0</ele><time>2026-04-19T08:24:50Z</time></trkpt><trkpt lat="44.87598784084267" lon="8.008973316782303"><ele>213.0</ele><time>2026-04-19T08:30:04Z</time></trkpt><trkpt lat="44.87605664331437" lon="8.009008100859042"><ele>213.0</ele><time>2026-04-19T08:31:50Z</time></trkpt><trkpt lat="44.87613167112002" lon="8.00903123877201"><ele>213.0</ele><time>2026-04-19T08:31:53Z</time></trkpt><trkpt lat="44.87621143922466" lon="8.009001558379895"><ele>213.0</ele><time>2026-04-19T08:31:56Z</time></trkpt><trkpt lat="44.87626612848505" lon="8.008940188502562"><ele>213.0</ele><time>2026-04-19T08:31:59Z</time></trkpt><trkpt lat="44.87629260647891" lon="8.008843113755443"><ele>213.0</ele><time>2026-04-19T08:32:00Z</time></trkpt><trkpt lat="44.87628733592773" lon="8.00873280267386"><ele>213.0</ele><time>2026-04-19T08:32:01Z</time></trkpt><trkpt lat="44.87626654549973" lon="8.008604377480767"><ele>213.0</ele><time>2026-04-19T08:32:02Z</time></trkpt><trkpt lat="44.876248236650376" lon="8.00848894207339"><ele>213.0</ele><time>2026-04-19T08:32:03Z</time></trkpt><trkpt lat="44.87628720390148" lon="8.00833442748941"><ele>213.0</ele><time>2026-04-19T08:32:05Z</time></trkpt><trkpt lat="44.876340219584705" lon="8.008276865200187"><ele>213.0</ele><time>2026-04-19T08:32:06Z</time></trkpt><trkpt lat="44.87640686346638" lon="8.00828692507594"><ele>213.0</ele><time>2026-04-19T08:32:07Z</time></trkpt><trkpt lat="44.8764693445894" lon="8.008324406699941"><ele>213.0</ele><time>2026-04-19T08:32:08Z</time></trkpt><trkpt lat="44.87651762383815" lon="8.008397078791894"><ele>213.0</ele><time>2026-04-19T08:32:09Z</time></trkpt><trkpt lat="44.87655196054558" lon="8.00849821158043"><ele>213.0</ele><time>2026-04-19T08:32:10Z</time></trkpt><trkpt lat="44.87657733422128" lon="8.008625586455567"><ele>213.0</ele><time>2026-04-19T08:32:11Z</time></trkpt><trkpt lat="44.87660421630848" lon="8.008767208499542"><ele>213.0</ele><time>2026-04-19T08:32:12Z</time></trkpt><trkpt lat="44.87662769342667" lon="8.008898729054271"><ele>213.0</ele><time>2026-04-19T08:32:13Z</time></trkpt><trkpt lat="44.87667566724367" lon="8.009024636092043"><ele>212.60000000000002</ele><time>2026-04-19T08:32:14Z</time></trkpt><trkpt lat="44.87670292569173" lon="8.009159467942194"><ele>212.20000000000002</ele><time>2026-04-19T08:32:15Z</time></trkpt><trkpt lat="44.87672909011604" lon="8.009293064194196"><ele>211.8</ele><time>2026-04-19T08:32:16Z</time></trkpt><trkpt lat="44.87676375409892" lon="8.009423351430852"><ele>211.4</ele><time>2026-04-19T08:32:17Z</time></trkpt><trkpt lat="44.87681176638628" lon="8.00955504342386"><ele>211.0</ele><time>2026-04-19T08:32:18Z</time></trkpt><trkpt lat="44.876860738625524" lon="8.009678057144932"><ele>211.0</ele><time>2026-04-19T08:32:19Z</time></trkpt><trkpt lat="44.87692033943479" lon="8.009792170397878"><ele>211.0</ele><time>2026-04-19T08:32:20Z</time></trkpt><trkpt lat="44.876967345766666" lon="8.009911021424966"><ele>211.0</ele><time>2026-04-19T08:32:21Z</time></trkpt><trkpt lat="44.877023167767874" lon="8.010023260490556"><ele>211.0</ele><time>2026-04-19T08:32:22Z</time></trkpt><trkpt lat="44.8770928192104" lon="8.010122204366475"><ele>211.0</ele><time>2026-04-19T08:32:23Z</time></trkpt><trkpt lat="44.87715991538419" lon="8.010222986925468"><ele>209.83333333333331</ele><time>2026-04-19T08:32:24Z</time></trkpt><trkpt lat="44.87722248948986" lon="8.010306382956411"><ele>208.66666666666666</ele><time>2026-04-19T08:32:25Z</time></trkpt><trkpt lat="44.877275308740884" lon="8.010394541321666"><ele>207.5</ele><time>2026-04-19T08:32:26Z</time></trkpt><trkpt lat="44.877339969811366" lon="8.010465090054204"><ele>206.33333333333331</ele><time>2026-04-19T08:32:27Z</time></trkpt><trkpt lat="44.87738458423787" lon="8.010569415091393"><ele>205.16666666666666</ele><time>2026-04-19T08:32:28Z</time></trkpt><trkpt lat="44.87741851734138" lon="8.010676556000808"><ele>204.0</ele><time>2026-04-19T08:32:29Z</time></trkpt><trkpt lat="44.87744247128103" lon="8.010772346202339"><ele>203.0</ele><time>2026-04-19T08:32:30Z</time></trkpt><trkpt lat="44.87746183651648" lon="8.010877065777866"><ele>202.0</ele><time>2026-04-19T08:32:31Z</time></trkpt><trkpt lat="44.8774825824706" lon="8.010967148561457"><ele>201.0</ele><time>2026-04-19T08:32:32Z</time></trkpt><trkpt lat="44.87751553906399" lon="8.011099553958445"><ele>200.0</ele><time>2026-04-19T08:32:34Z</time></trkpt><trkpt lat="44.877538114808154" lon="8.01119985101379"><ele>199.0</ele><time>2026-04-19T08:32:36Z</time></trkpt><trkpt lat="44.87760053250389" lon="8.011225867359204"><ele>198.0</ele><time>2026-04-19T08:32:38Z</time></trkpt><trkpt lat="44.87769903402758" lon="8.011173753805048"><ele>198.0</ele><time>2026-04-19T08:32:40Z</time></trkpt><trkpt lat="44.87780074394125" lon="8.011138179620213"><ele>198.0</ele><time>2026-04-19T08:32:42Z</time></trkpt><trkpt lat="44.87788155759501" lon="8.011120076414738"><ele>198.0</ele><time>2026-04-19T08:32:43Z</time></trkpt><trkpt lat="44.8779680726879" lon="8.011100794530241"><ele>198.0</ele><time>2026-04-19T08:32:44Z</time></trkpt><trkpt lat="44.87804718822583" lon="8.011066902498529"><ele>198.0</ele><time>2026-04-19T08:32:45Z</time></trkpt><trkpt lat="44.878128404866494" lon="8.011018246536617"><ele>198.0</ele><time>2026-04-19T08:32:46Z</time></trkpt><trkpt lat="44.87821844892841" lon="8.010971914051291"><ele>198.0</ele><time>2026-04-19T08:32:47Z</time></trkpt><trkpt lat="44.87831283847532" lon="8.010913301180256"><ele>198.0</ele><time>2026-04-19T08:32:48Z</time></trkpt><trkpt lat="44.8783961067583" lon="8.010854943289207"><ele>198.0</ele><time>2026-04-19T08:32:49Z</time></trkpt><trkpt lat="44.87848142274885" lon="8.010823967764786"><ele>198.0</ele><time>2026-04-19T08:32:50Z</time></trkpt><trkpt lat="44.878561869077636" lon="8.01081105366492"><ele>198.0</ele><time>2026-04-19T08:32:51Z</time></trkpt><trkpt lat="44.878661233631775" lon="8.010816549740806"><ele>197.60000000000002</ele><time>2026-04-19T08:32:52Z</time></trkpt><trkpt lat="44.878767019474644" lon="8.010837352526687"><ele>197.20000000000002</ele><time>2026-04-19T08:32:53Z</time></trkpt><trkpt lat="44.87885766870176" lon="8.010851227769319"><ele>196.8</ele><time>2026-04-19T08:32:54Z</time></trkpt><trkpt lat="44.8789375083727" lon="8.010853830042947"><ele>196.4</ele><time>2026-04-19T08:32:55Z</time></trkpt><trkpt lat="44.87902055791273" lon="8.010845977004493"><ele>196.0</ele><time>2026-04-19T08:32:56Z</time></trkpt><trkpt lat="44.87910850593619" lon="8.01082081608061"><ele>196.0</ele><time>2026-04-19T08:32:57Z</time></trkpt><trkpt lat="44.8792044459445" lon="8.010778083027914"><ele>196.0</ele><time>2026-04-19T08:32:58Z</time></trkpt><trkpt lat="44.87930139953123" lon="8.010736552455485"><ele>196.0</ele><time>2026-04-19T08:32:59Z</time></trkpt><trkpt lat="44.879391182698235" lon="8.010709366466974"><ele>196.0</ele><time>2026-04-19T08:33:00Z</time></trkpt><trkpt lat="44.87947431067458" lon="8.010676137216091"><ele>196.0</ele><time>2026-04-19T08:33:01Z</time></trkpt><trkpt lat="44.87955398940935" lon="8.010641917514361"><ele>195.8</ele><time>2026-04-19T08:33:02Z</time></trkpt><trkpt lat="44.87963096712501" lon="8.01060722390318"><ele>195.60000000000002</ele><time>2026-04-19T08:33:03Z</time></trkpt><trkpt lat="44.87971591793508" lon="8.010563222214634"><ele>195.4</ele><time>2026-04-19T08:33:04Z</time></trkpt><trkpt lat="44.879803049660815" lon="8.010514471664635"><ele>195.2</ele><time>2026-04-19T08:33:05Z</time></trkpt><trkpt lat="44.87989278404533" lon="8.010458178346145"><ele>195.0</ele><time>2026-04-19T08:33:06Z</time></trkpt><trkpt lat="44.87998092779362" lon="8.01039910759918"><ele>195.0</ele><time>2026-04-19T08:33:07Z</time></trkpt><trkpt lat="44.8800682939318" lon="8.010341600562093"><ele>195.0</ele><time>2026-04-19T08:33:08Z</time></trkpt><trkpt lat="44.88015291270449" lon="8.010283385722063"><ele>195.0</ele><time>2026-04-19T08:33:09Z</time></trkpt><trkpt lat="44.8802391176589" lon="8.010236462120293"><ele>195.0</ele><time>2026-04-19T08:33:10Z</time></trkpt><trkpt lat="44.88034628310273" lon="8.010214861630457"><ele>195.0</ele><time>2026-04-19T08:33:11Z</time></trkpt><trkpt lat="44.88045146774888" lon="8.01019324690305"><ele>195.16666666666666</ele><time>2026-04-19T08:33:12Z</time></trkpt><trkpt lat="44.8805422749038" lon="8.010166854676012"><ele>195.33333333333331</ele><time>2026-04-19T08:33:13Z</time></trkpt><trkpt lat="44.88063204702115" lon="8.010137511990928"><ele>195.5</ele><time>2026-04-19T08:33:14Z</time></trkpt><trkpt lat="44.8807018541621" lon="8.010094023848618"><ele>195.66666666666666</ele><time>2026-04-19T08:33:15Z</time></trkpt><trkpt lat="44.88076437906856" lon="8.010047221412067"><ele>195.83333333333331</ele><time>2026-04-19T08:33:16Z</time></trkpt><trkpt lat="44.880823913034746" lon="8.009983928856053"><ele>196.0</ele><time>2026-04-19T08:33:17Z</time></trkpt><trkpt lat="44.88087419632516" lon="8.009900157187575"><ele>195.99999999999997</ele><time>2026-04-19T08:33:18Z</time></trkpt><trkpt lat="44.88090962538412" lon="8.009801337910254"><ele>196.0</ele><time>2026-04-19T08:33:19Z</time></trkpt><trkpt lat="44.88094246425375" lon="8.009671255799274"><ele>196.0</ele><time>2026-04-19T08:33:20Z</time></trkpt><trkpt lat="44.88098139146504" lon="8.009544220803312"><ele>196.0</ele><time>2026-04-19T08:33:21Z</time></trkpt><trkpt lat="44.881020680836805" lon="8.00942211856917"><ele>195.99999999999997</ele><time>2026-04-19T08:33:22Z</time></trkpt><trkpt lat="44.88106264347007" lon="8.009326323797335"><ele>196.0</ele><time>2026-04-19T08:33:23Z</time></trkpt><trkpt lat="44.88111100707155" lon="8.009238469284256"><ele>196.8</ele><time>2026-04-19T08:33:24Z</time></trkpt><trkpt lat="44.88113579668628" lon="8.009101248103272"><ele>197.60000000000002</ele><time>2026-04-19T08:33:25Z</time></trkpt><trkpt lat="44.881149218801774" lon="8.008976874838735"><ele>198.4</ele><time>2026-04-19T08:33:26Z</time></trkpt><trkpt lat="44.88119089634493" lon="8.00880337400156"><ele>199.2</ele><time>2026-04-19T08:33:27Z</time></trkpt><trkpt lat="44.881251523080564" lon="8.008653844526442"><ele>200.0</ele><time>2026-04-19T08:33:28Z</time></trkpt><trkpt lat="44.8812784178601" lon="8.008489181826373"><ele>200.0</ele><time>2026-04-19T08:33:29Z</time></trkpt><trkpt lat="44.881324499941734" lon="8.008339724484737"><ele>200.0</ele><time>2026-04-19T08:33:30Z</time></trkpt><trkpt lat="44.881369436343924" lon="8.008187777510331"><ele>200.0</ele><time>2026-04-19T08:33:31Z</time></trkpt><trkpt lat="44.88142166932611" lon="8.008051005778102"><ele>200.0</ele><time>2026-04-19T08:33:32Z</time></trkpt><trkpt lat="44.88146537196077" lon="8.007887519039029"><ele>200.33333333333334</ele><time>2026-04-19T08:33:33Z</time></trkpt><trkpt lat="44.88150551243379" lon="8.007764360803767"><ele>200.66666666666669</ele><time>2026-04-19T08:33:34Z</time></trkpt><trkpt lat="44.881525539010234" lon="8.007636900149404"><ele>201.0</ele><time>2026-04-19T08:33:35Z</time></trkpt><trkpt lat="44.88156140670784" lon="8.007504398179929"><ele>201.33333333333331</ele><time>2026-04-19T08:33:36Z</time></trkpt><trkpt lat="44.88158021529847" lon="8.007398014572958"><ele>201.66666666666666</ele><time>2026-04-19T08:33:37Z</time></trkpt><trkpt lat="44.88160851524251" lon="8.007309233978276"><ele>202.0</ele><time>2026-04-19T08:33:38Z</time></trkpt><trkpt lat="44.88170311220777" lon="8.007286170810106"><ele>202.0</ele><time>2026-04-19T08:33:41Z</time></trkpt><trkpt lat="44.88175910227393" lon="8.007355116949425"><ele>202.0</ele><time>2026-04-19T08:33:42Z</time></trkpt><trkpt lat="44.881838027902" lon="8.007376865340232"><ele>202.0</ele><time>2026-04-19T08:33:43Z</time></trkpt><trkpt lat="44.881928191340876" lon="8.007366748018919"><ele>202.0</ele><time>2026-04-19T08:33:44Z</time></trkpt><trkpt lat="44.882024400853695" lon="8.007351765559596"><ele>202.0</ele><time>2026-04-19T08:33:45Z</time></trkpt><trkpt lat="44.88214040364292" lon="8.007338662293451"><ele>202.0</ele><time>2026-04-19T08:33:46Z</time></trkpt><trkpt lat="44.88225755894993" lon="8.007323397114712"><ele>202.0</ele><time>2026-04-19T08:33:47Z</time></trkpt><trkpt lat="44.88237072426796" lon="8.007308186028348"><ele>202.0</ele><time>2026-04-19T08:33:48Z</time></trkpt><trkpt lat="44.8824744679777" lon="8.007292665883497"><ele>202.0</ele><time>2026-04-19T08:33:49Z</time></trkpt><trkpt lat="44.88257337426539" lon="8.007277452924663"><ele>202.0</ele><time>2026-04-19T08:33:50Z</time></trkpt><trkpt lat="44.88267208640748" lon="8.007261152265455"><ele>200.8</ele><time>2026-04-19T08:33:51Z</time></trkpt><trkpt lat="44.8827622184322" lon="8.007247644478074"><ele>199.6</ele><time>2026-04-19T08:33:52Z</time></trkpt><trkpt lat="44.88287705506893" lon="8.00723893242519"><ele>198.4</ele><time>2026-04-19T08:33:53Z</time></trkpt><trkpt lat="44.88299118911852" lon="8.007224227488344"><ele>197.20000000000002</ele><time>2026-04-19T08:33:54Z</time></trkpt><trkpt lat="44.88311083747398" lon="8.007212809488532"><ele>196.0</ele><time>2026-04-19T08:33:55Z</time></trkpt><trkpt lat="44.88323646889725" lon="8.007203678796177"><ele>196.0</ele><time>2026-04-19T08:33:56Z</time></trkpt><trkpt lat="44.88336081933547" lon="8.007196459863081"><ele>196.0</ele><time>2026-04-19T08:33:57Z</time></trkpt><trkpt lat="44.88346041160848" lon="8.007167578466362"><ele>196.0</ele><time>2026-04-19T08:33:58Z</time></trkpt><trkpt lat="44.88358342087017" lon="8.007175644976844"><ele>196.0</ele><time>2026-04-19T08:33:59Z</time></trkpt><trkpt lat="44.883692011322104" lon="8.007174672851226"><ele>196.0</ele><time>2026-04-19T08:34:00Z</time></trkpt><trkpt lat="44.883792993810694" lon="8.007174675112942"><ele>196.0</ele><time>2026-04-19T08:34:01Z</time></trkpt><trkpt lat="44.88389048661383" lon="8.007173705144627"><ele>196.0</ele><time>2026-04-19T08:34:02Z</time></trkpt><trkpt lat="44.88398178873759" lon="8.007177293732905"><ele>196.0</ele><time>2026-04-19T08:34:03Z</time></trkpt><trkpt lat="44.88406988975809" lon="8.007184857700965"><ele>196.0</ele><time>2026-04-19T08:34:04Z</time></trkpt><trkpt lat="44.88414905350506" lon="8.00721749032541"><ele>196.0</ele><time>2026-04-19T08:34:05Z</time></trkpt><trkpt lat="44.88422207190209" lon="8.00727368714067"><ele>196.0</ele><time>2026-04-19T08:34:06Z</time></trkpt><trkpt lat="44.88430021829852" lon="8.007350857869746"><ele>196.0</ele><time>2026-04-19T08:34:07Z</time></trkpt><trkpt lat="44.88438155316449" lon="8.007427361220447"><ele>196.0</ele><time>2026-04-19T08:34:08Z</time></trkpt><trkpt lat="44.8844620060173" lon="8.007486696126193"><ele>196.0</ele><time>2026-04-19T08:34:09Z</time></trkpt><trkpt lat="44.8845524305919" lon="8.007533358757556"><ele>196.20000000000002</ele><time>2026-04-19T08:34:10Z</time></trkpt><trkpt lat="44.88464236396045" lon="8.00756406627504"><ele>196.4</ele><time>2026-04-19T08:34:11Z</time></trkpt><trkpt lat="44.884722945634685" lon="8.007566302449202"><ele>196.6</ele><time>2026-04-19T08:34:12Z</time></trkpt><trkpt lat="44.884809222348" lon="8.007535606108103"><ele>196.8</ele><time>2026-04-19T08:34:13Z</time></trkpt><trkpt lat="44.88490941512452" lon="8.007483813199512"><ele>197.0</ele><time>2026-04-19T08:34:14Z</time></trkpt><trkpt lat="44.885023208643595" lon="8.007426306103826"><ele>196.0</ele><time>2026-04-19T08:34:15Z</time></trkpt><trkpt lat="44.885120104888" lon="8.00734829109759"><ele>195.0</ele><time>2026-04-19T08:34:16Z</time></trkpt><trkpt lat="44.88522826900493" lon="8.007270208801664"><ele>194.0</ele><time>2026-04-19T08:34:17Z</time></trkpt><trkpt lat="44.88533413890733" lon="8.007209429784165"><ele>193.0</ele><time>2026-04-19T08:34:18Z</time></trkpt><trkpt lat="44.88543271063013" lon="8.00715182842869"><ele>193.0</ele><time>2026-04-19T08:34:19Z</time></trkpt><trkpt lat="44.88551654716081" lon="8.007096036659412"><ele>193.0</ele><time>2026-04-19T08:34:20Z</time></trkpt><trkpt lat="44.885588770864615" lon="8.00703506737445"><ele>193.0</ele><time>2026-04-19T08:34:21Z</time></trkpt><trkpt lat="44.885660778874104" lon="8.006960476974966"><ele>193.0</ele><time>2026-04-19T08:34:22Z</time></trkpt><trkpt lat="44.8857174568395" lon="8.00684118782642"><ele>193.0</ele><time>2026-04-19T08:34:23Z</time></trkpt><trkpt lat="44.8857574092635" lon="8.006723814916272"><ele>193.8</ele><time>2026-04-19T08:34:24Z</time></trkpt><trkpt lat="44.885794469951485" lon="8.006616272502797"><ele>194.60000000000002</ele><time>2026-04-19T08:34:25Z</time></trkpt><trkpt lat="44.88582987373748" lon="8.006527615099591"><ele>195.39999999999998</ele><time>2026-04-19T08:34:26Z</time></trkpt><trkpt lat="44.88593677150927" lon="8.006402351010841"><ele>196.2</ele><time>2026-04-19T08:34:28Z</time></trkpt><trkpt lat="44.88604135704918" lon="8.006364581765176"><ele>197.0</ele><time>2026-04-19T08:34:29Z</time></trkpt><trkpt lat="44.88614801297235" lon="8.006329827695813"><ele>197.0</ele><time>2026-04-19T08:34:30Z</time></trkpt><trkpt lat="44.8862551801905" lon="8.006288801903356"><ele>197.0</ele><time>2026-04-19T08:34:31Z</time></trkpt><trkpt lat="44.886367722655805" lon="8.006232729654648"><ele>197.0</ele><time>2026-04-19T08:34:32Z</time></trkpt><trkpt lat="44.88648853005381" lon="8.006195465200998"><ele>197.0</ele><time>2026-04-19T08:34:33Z</time></trkpt><trkpt lat="44.886597330942735" lon="8.006188469542735"><ele>197.0</ele><time>2026-04-19T08:34:34Z</time></trkpt><trkpt lat="44.88670394776736" lon="8.006193625080813"><ele>197.0</ele><time>2026-04-19T08:34:35Z</time></trkpt><trkpt lat="44.88680599971459" lon="8.006199553182066"><ele>197.0</ele><time>2026-04-19T08:34:36Z</time></trkpt><trkpt lat="44.886911198702016" lon="8.006183519672833"><ele>197.0</ele><time>2026-04-19T08:34:37Z</time></trkpt><trkpt lat="44.88701652006767" lon="8.0061454150297"><ele>197.0</ele><time>2026-04-19T08:34:38Z</time></trkpt><trkpt lat="44.887128942996185" lon="8.00609246042828"><ele>197.25</ele><time>2026-04-19T08:34:39Z</time></trkpt><trkpt lat="44.887237161403185" lon="8.006012987923324"><ele>197.5</ele><time>2026-04-19T08:34:40Z</time></trkpt><trkpt lat="44.88733753935631" lon="8.005939820937682"><ele>197.75</ele><time>2026-04-19T08:34:41Z</time></trkpt><trkpt lat="44.887461157157354" lon="8.005846846571012"><ele>198.0</ele><time>2026-04-19T08:34:42Z</time></trkpt><trkpt lat="44.88756230771647" lon="8.005730543637886"><ele>197.75</ele><time>2026-04-19T08:34:43Z</time></trkpt><trkpt lat="44.88768823845769" lon="8.005637590168064"><ele>197.5</ele><time>2026-04-19T08:34:44Z</time></trkpt><trkpt lat="44.88779688157537" lon="8.00555671910567"><ele>197.25</ele><time>2026-04-19T08:34:45Z</time></trkpt><trkpt lat="44.887895502595796" lon="8.00549798617243"><ele>197.0</ele><time>2026-04-19T08:34:46Z</time></trkpt><trkpt lat="44.887983149414204" lon="8.005459541183205"><ele>197.0</ele><time>2026-04-19T08:34:47Z</time></trkpt><trkpt lat="44.8880655028851" lon="8.005419521156584"><ele>197.0</ele><time>2026-04-19T08:34:48Z</time></trkpt><trkpt lat="44.88814378508956" lon="8.005381483206579"><ele>197.0</ele><time>2026-04-19T08:34:49Z</time></trkpt><trkpt lat="44.88822101137471" lon="8.005351129306725"><ele>197.0</ele><time>2026-04-19T08:34:50Z</time></trkpt><trkpt lat="44.888337334830965" lon="8.005365601651688"><ele>197.0</ele><time>2026-04-19T08:34:52Z</time></trkpt><trkpt lat="44.88842317432347" lon="8.00541701028655"><ele>195.75</ele><time>2026-04-19T08:34:53Z</time></trkpt><trkpt lat="44.88852804548891" lon="8.005490526960985"><ele>194.5</ele><time>2026-04-19T08:34:54Z</time></trkpt><trkpt lat="44.888641869101356" lon="8.00555438948745"><ele>193.25</ele><time>2026-04-19T08:34:55Z</time></trkpt><trkpt lat="44.88876493514755" lon="8.005607638568504"><ele>192.0</ele><time>2026-04-19T08:34:56Z</time></trkpt><trkpt lat="44.88887087623469" lon="8.005641925599674"><ele>192.0</ele><time>2026-04-19T08:34:57Z</time></trkpt><trkpt lat="44.88897217460054" lon="8.005659128268837"><ele>192.0</ele><time>2026-04-19T08:34:58Z</time></trkpt><trkpt lat="44.8890774455716" lon="8.005676459082162"><ele>192.0</ele><time>2026-04-19T08:34:59Z</time></trkpt><trkpt lat="44.88918172019632" lon="8.005685001474708"><ele>192.0</ele><time>2026-04-19T08:35:00Z</time></trkpt><trkpt lat="44.889285940154735" lon="8.00568077407991"><ele>192.0</ele><time>2026-04-19T08:35:01Z</time></trkpt><trkpt lat="44.88936847859913" lon="8.005682278608399"><ele>192.83333333333334</ele><time>2026-04-19T08:35:02Z</time></trkpt><trkpt lat="44.88946117360904" lon="8.005682254577675"><ele>193.66666666666669</ele><time>2026-04-19T08:35:03Z</time></trkpt><trkpt lat="44.88954334710892" lon="8.00568431170361"><ele>194.5</ele><time>2026-04-19T08:35:04Z</time></trkpt><trkpt lat="44.889633013594654" lon="8.005679113650977"><ele>195.33333333333334</ele><time>2026-04-19T08:35:05Z</time></trkpt><trkpt lat="44.88971838931925" lon="8.005664099518219"><ele>196.16666666666669</ele><time>2026-04-19T08:35:06Z</time></trkpt><trkpt lat="44.88978432265035" lon="8.00565824396069"><ele>197.0</ele><time>2026-04-19T08:35:07Z</time></trkpt><trkpt lat="44.889849622124494" lon="8.005659652483754"><ele>197.0</ele><time>2026-04-19T08:35:08Z</time></trkpt><trkpt lat="44.88994658528463" lon="8.005642620288349"><ele>197.0</ele><time>2026-04-19T08:35:10Z</time></trkpt><trkpt lat="44.89001918885603" lon="8.005645940624996"><ele>197.0</ele><time>2026-04-19T08:35:12Z</time></trkpt><trkpt lat="44.890088014338616" lon="8.005684864593336"><ele>197.0</ele><time>2026-04-19T08:35:13Z</time></trkpt><trkpt lat="44.89017406776868" lon="8.005765885366408"><ele>197.0</ele><time>2026-04-19T08:35:14Z</time></trkpt><trkpt lat="44.890278096355395" lon="8.005845906554637"><ele>195.66666666666669</ele><time>2026-04-19T08:35:15Z</time></trkpt><trkpt lat="44.89043046016628" lon="8.005957289071748"><ele>194.33333333333331</ele><time>2026-04-19T08:35:16Z</time></trkpt><trkpt lat="44.890563072751384" lon="8.006058723214254"><ele>193.0</ele><time>2026-04-19T08:35:17Z</time></trkpt><trkpt lat="44.89070891296846" lon="8.006190423455426"><ele>193.0</ele><time>2026-04-19T08:35:18Z</time></trkpt><trkpt lat="44.89087684154736" lon="8.006298729769163"><ele>193.0</ele><time>2026-04-19T08:35:19Z</time></trkpt><trkpt lat="44.8910401128141" lon="8.006415845031695"><ele>193.0</ele><time>2026-04-19T08:35:20Z</time></trkpt><trkpt lat="44.89119515577163" lon="8.006525799115606"><ele>191.33333333333331</ele><time>2026-04-19T08:35:21Z</time></trkpt><trkpt lat="44.89133937531801" lon="8.006631575762828"><ele>189.66666666666666</ele><time>2026-04-19T08:35:22Z</time></trkpt><trkpt lat="44.89146677046033" lon="8.006753933324092"><ele>188.0</ele><time>2026-04-19T08:35:23Z</time></trkpt><trkpt lat="44.8915929764103" lon="8.006849268173067"><ele>188.0</ele><time>2026-04-19T08:35:24Z</time></trkpt><trkpt lat="44.89170535234914" lon="8.006934155954992"><ele>188.0</ele><time>2026-04-19T08:35:25Z</time></trkpt><trkpt lat="44.89181436164669" lon="8.007017881077825"><ele>188.0</ele><time>2026-04-19T08:35:26Z</time></trkpt><trkpt lat="44.89191230167392" lon="8.00709281505686"><ele>188.0</ele><time>2026-04-19T08:35:27Z</time></trkpt><trkpt lat="44.8920067080741" lon="8.007165045460395"><ele>188.0</ele><time>2026-04-19T08:35:28Z</time></trkpt><trkpt lat="44.89211584750532" lon="8.007247810538423"><ele>188.0</ele><time>2026-04-19T08:35:29Z</time></trkpt><trkpt lat="44.892232936985174" lon="8.007317212974725"><ele>188.0</ele><time>2026-04-19T08:35:30Z</time></trkpt><trkpt lat="44.89234748752658" lon="8.007400264267364"><ele>188.0</ele><time>2026-04-19T08:35:31Z</time></trkpt><trkpt lat="44.8924602501886" lon="8.007492055103215"><ele>189.0</ele><time>2026-04-19T08:35:32Z</time></trkpt><trkpt lat="44.89259583414347" lon="8.007596603657552"><ele>190.0</ele><time>2026-04-19T08:35:33Z</time></trkpt><trkpt lat="44.892736442803006" lon="8.007704994709263"><ele>191.0</ele><time>2026-04-19T08:35:34Z</time></trkpt><trkpt lat="44.89288207718282" lon="8.007826346779252"><ele>191.0</ele><time>2026-04-19T08:35:35Z</time></trkpt><trkpt lat="44.89302319369711" lon="8.00794226888107"><ele>191.0</ele><time>2026-04-19T08:35:36Z</time></trkpt><trkpt lat="44.89315242600195" lon="8.008074550840957"><ele>191.0</ele><time>2026-04-19T08:35:37Z</time></trkpt><trkpt lat="44.89328712430039" lon="8.008187585073903"><ele>191.0</ele><time>2026-04-19T08:35:38Z</time></trkpt><trkpt lat="44.89341972122185" lon="8.008299875982487"><ele>191.0</ele><time>2026-04-19T08:35:39Z</time></trkpt><trkpt lat="44.893557002265354" lon="8.008388110373527"><ele>191.0</ele><time>2026-04-19T08:35:40Z</time></trkpt><trkpt lat="44.89368412958202" lon="8.008497583003386"><ele>191.0</ele><time>2026-04-19T08:35:41Z</time></trkpt><trkpt lat="44.89381149870168" lon="8.008605918363664"><ele>191.0</ele><time>2026-04-19T08:35:42Z</time></trkpt><trkpt lat="44.893938576311115" lon="8.008715092851235"><ele>191.0</ele><time>2026-04-19T08:35:43Z</time></trkpt><trkpt lat="44.89406460102084" lon="8.008819261216566"><ele>191.0</ele><time>2026-04-19T08:35:44Z</time></trkpt><trkpt lat="44.8941915938678" lon="8.008924998748649"><ele>190.5</ele><time>2026-04-19T08:35:45Z</time></trkpt><trkpt lat="44.8943254243174" lon="8.009035557839074"><ele>190.0</ele><time>2026-04-19T08:35:46Z</time></trkpt><trkpt lat="44.8944395283709" lon="8.00915837891921"><ele>189.5</ele><time>2026-04-19T08:35:47Z</time></trkpt><trkpt lat="44.89456749620026" lon="8.00926632383549"><ele>189.0</ele><time>2026-04-19T08:35:48Z</time></trkpt><trkpt lat="44.89469966011558" lon="8.009377808282858"><ele>189.0</ele><time>2026-04-19T08:35:49Z</time></trkpt><trkpt lat="44.89483244046092" lon="8.009489613645894"><ele>189.0</ele><time>2026-04-19T08:35:50Z</time></trkpt><trkpt lat="44.89496257266973" lon="8.00959881098043"><ele>189.0</ele><time>2026-04-19T08:35:51Z</time></trkpt><trkpt lat="44.89509133335965" lon="8.009706857440026"><ele>188.75</ele><time>2026-04-19T08:35:52Z</time></trkpt><trkpt lat="44.89520826265136" lon="8.009805084834404"><ele>188.5</ele><time>2026-04-19T08:35:53Z</time></trkpt><trkpt lat="44.89531000508894" lon="8.00989107002692"><ele>188.25</ele><time>2026-04-19T08:35:54Z</time></trkpt><trkpt lat="44.89540657988749" lon="8.009972686286993"><ele>188.0</ele><time>2026-04-19T08:35:55Z</time></trkpt><trkpt lat="44.89549719112167" lon="8.010049262682829"><ele>186.83333333333331</ele><time>2026-04-19T08:35:56Z</time></trkpt><trkpt lat="44.89557587572417" lon="8.010115759771846"><ele>185.66666666666666</ele><time>2026-04-19T08:35:57Z</time></trkpt><trkpt lat="44.89565257513929" lon="8.010180579161156"><ele>184.5</ele><time>2026-04-19T08:35:58Z</time></trkpt><trkpt lat="44.89572060403272" lon="8.010239608023943"><ele>183.33333333333334</ele><time>2026-04-19T08:35:59Z</time></trkpt><trkpt lat="44.895776609735165" lon="8.010288388836326"><ele>182.16666666666669</ele><time>2026-04-19T08:36:00Z</time></trkpt><trkpt lat="44.8958745085791" lon="8.01038244763246"><ele>181.0</ele><time>2026-04-19T08:36:02Z</time></trkpt><trkpt lat="44.89589204208813" lon="8.010476541269075"><ele>181.0</ele><time>2026-04-19T08:36:05Z</time></trkpt><trkpt lat="44.895704383052134" lon="8.010660816952672"><ele>181.0</ele><time>2026-04-19T08:36:07Z</time></trkpt><trkpt lat="44.895611180944044" lon="8.010723915581089"><ele>181.0</ele><time>2026-04-19T08:36:08Z</time></trkpt><trkpt lat="44.89553234786457" lon="8.01076412914547"><ele>181.0</ele><time>2026-04-19T08:36:09Z</time></trkpt><trkpt lat="44.89543123331089" lon="8.010784992996344"><ele>181.0</ele><time>2026-04-19T08:36:10Z</time></trkpt><trkpt lat="44.895322958647945" lon="8.010804893709292"><ele>181.0</ele><time>2026-04-19T08:36:11Z</time></trkpt><trkpt lat="44.8952194802817" lon="8.010835861264837"><ele>181.0</ele><time>2026-04-19T08:36:12Z</time></trkpt><trkpt lat="44.89512540606194" lon="8.01090506678933"><ele>181.0</ele><time>2026-04-19T08:36:13Z</time></trkpt><trkpt lat="44.89502424604957" lon="8.01100801191679"><ele>181.0</ele><time>2026-04-19T08:36:14Z</time></trkpt><trkpt lat="44.894937140692086" lon="8.011103205083986"><ele>180.57142857142856</ele><time>2026-04-19T08:36:15Z</time></trkpt><trkpt lat="44.894857409413234" lon="8.011146650497114"><ele>180.14285714285714</ele><time>2026-04-19T08:36:16Z</time></trkpt><trkpt lat="44.894795011210135" lon="8.011201608446187"><ele>179.71428571428572</ele><time>2026-04-19T08:36:20Z</time></trkpt><trkpt lat="44.894744847992605" lon="8.01126367211186"><ele>179.28571428571428</ele><time>2026-04-19T08:36:24Z</time></trkpt><trkpt lat="44.89475896884478" lon="8.011362337533178"><ele>178.85714285714286</ele><time>2026-04-19T08:36:27Z</time></trkpt><trkpt lat="44.89477770442672" lon="8.011453089737534"><ele>178.42857142857142</ele><time>2026-04-19T08:36:32Z</time></trkpt><trkpt lat="44.894828328170206" lon="8.01153937871981"><ele>178.0</ele><time>2026-04-19T08:36:34Z</time></trkpt><trkpt lat="44.89488971491227" lon="8.01163944237263"><ele>178.0</ele><time>2026-04-19T08:36:36Z</time></trkpt><trkpt lat="44.89491135213902" lon="8.011738405376915"><ele>178.0</ele><time>2026-04-19T08:36:38Z</time></trkpt><trkpt lat="44.89490535053249" lon="8.011860443279266"><ele>178.0</ele><time>2026-04-19T08:36:42Z</time></trkpt><trkpt lat="44.89482168191135" lon="8.011862204885524"><ele>178.0</ele><time>2026-04-19T08:36:49Z</time></trkpt><trkpt lat="44.894754180336264" lon="8.011833315180457"><ele>178.0</ele><time>2026-04-19T08:36:52Z</time></trkpt><trkpt lat="44.894683775925515" lon="8.011892731811466"><ele>178.0</ele><time>2026-04-19T08:36:54Z</time></trkpt><trkpt lat="44.89462622319699" lon="8.011929668831447"><ele>178.0</ele><time>2026-04-19T08:36:55Z</time></trkpt><trkpt lat="44.89453556498791" lon="8.011910384171781"><ele>178.0</ele><time>2026-04-19T08:36:57Z</time></trkpt><trkpt lat="44.89456268552723" lon="8.011994291059116"><ele>178.0</ele><time>2026-04-19T08:37:02Z</time></trkpt><trkpt lat="44.89462686233743" lon="8.01201002645715"><ele>178.0</ele><time>2026-04-19T08:37:03Z</time></trkpt><trkpt lat="44.894692260658765" lon="8.012035998859448"><ele>178.0</ele><time>2026-04-19T08:37:04Z</time></trkpt><trkpt lat="44.89477691133366" lon="8.012038502607266"><ele>178.0</ele><time>2026-04-19T08:37:05Z</time></trkpt><trkpt lat="44.894863063925776" lon="8.012044026331143"><ele>178.0</ele><time>2026-04-19T08:37:06Z</time></trkpt><trkpt lat="44.89495548871363" lon="8.01203992107214"><ele>178.0</ele><time>2026-04-19T08:37:07Z</time></trkpt><trkpt lat="44.89503368612306" lon="8.012051456360725"><ele>178.0</ele><time>2026-04-19T08:37:08Z</time></trkpt><trkpt lat="44.89511572725282" lon="8.012073761609722"><ele>178.0</ele><time>2026-04-19T08:37:09Z</time></trkpt><trkpt lat="44.89519521484416" lon="8.012095776250774"><ele>178.0</ele><time>2026-04-19T08:37:10Z</time></trkpt><trkpt lat="44.895282215053" lon="8.012124104322247"><ele>178.0</ele><time>2026-04-19T08:37:11Z</time></trkpt><trkpt lat="44.895367226900355" lon="8.012164084193989"><ele>177.60000000000002</ele><time>2026-04-19T08:37:12Z</time></trkpt><trkpt lat="44.89545911765313" lon="8.012211452378144"><ele>177.20000000000002</ele><time>2026-04-19T08:37:13Z</time></trkpt><trkpt lat="44.89555370174303" lon="8.012254624411405"><ele>176.8</ele><time>2026-04-19T08:37:14Z</time></trkpt><trkpt lat="44.895627557547996" lon="8.012309996356315"><ele>176.4</ele><time>2026-04-19T08:37:15Z</time></trkpt><trkpt lat="44.895712503838794" lon="8.012334396688411"><ele>176.0</ele><time>2026-04-19T08:37:16Z</time></trkpt><trkpt lat="44.89581693431772" lon="8.012367161285288"><ele>176.0</ele><time>2026-04-19T08:37:17Z</time></trkpt><trkpt lat="44.89590360015091" lon="8.012413194637778"><ele>176.0</ele><time>2026-04-19T08:37:18Z</time></trkpt><trkpt lat="44.89600672611952" lon="8.012452942973157"><ele>176.0</ele><time>2026-04-19T08:37:19Z</time></trkpt><trkpt lat="44.89610862440662" lon="8.01250982907288"><ele>176.0</ele><time>2026-04-19T08:37:20Z</time></trkpt><trkpt lat="44.89620690594061" lon="8.012580449312743"><ele>176.0</ele><time>2026-04-19T08:37:21Z</time></trkpt><trkpt lat="44.89629775126584" lon="8.012644072349485"><ele>176.60000000000002</ele><time>2026-04-19T08:37:22Z</time></trkpt><trkpt lat="44.89638107778345" lon="8.012715427612967"><ele>177.2</ele><time>2026-04-19T08:37:23Z</time></trkpt><trkpt lat="44.896460463761684" lon="8.01280738396961"><ele>177.8</ele><time>2026-04-19T08:37:24Z</time></trkpt><trkpt lat="44.89652357860792" lon="8.012902781940648"><ele>178.39999999999998</ele><time>2026-04-19T08:37:25Z</time></trkpt><trkpt lat="44.896554621053646" lon="8.013056196391924"><ele>179.0</ele><time>2026-04-19T08:37:26Z</time></trkpt><trkpt lat="44.89658669635253" lon="8.013174719099757"><ele>178.0</ele><time>2026-04-19T08:37:27Z</time></trkpt><trkpt lat="44.8966005661853" lon="8.013333764734108"><ele>177.0</ele><time>2026-04-19T08:37:28Z</time></trkpt><trkpt lat="44.896596193500486" lon="8.013478276740166"><ele>176.0</ele><time>2026-04-19T08:37:29Z</time></trkpt><trkpt lat="44.89660280452413" lon="8.013620540260316"><ele>175.0</ele><time>2026-04-19T08:37:30Z</time></trkpt><trkpt lat="44.89662350070419" lon="8.013773919191543"><ele>174.0</ele><time>2026-04-19T08:37:31Z</time></trkpt><trkpt lat="44.89667080198347" lon="8.013919897931181"><ele>174.0</ele><time>2026-04-19T08:37:32Z</time></trkpt><trkpt lat="44.89670760011355" lon="8.014044000744962"><ele>174.0</ele><time>2026-04-19T08:37:33Z</time></trkpt><trkpt lat="44.896735941735365" lon="8.014175912597883"><ele>174.0</ele><time>2026-04-19T08:37:34Z</time></trkpt><trkpt lat="44.896778518537424" lon="8.01431464513076"><ele>174.0</ele><time>2026-04-19T08:37:35Z</time></trkpt><trkpt lat="44.89682658573133" lon="8.0144315405732"><ele>174.0</ele><time>2026-04-19T08:37:36Z</time></trkpt><trkpt lat="44.896872340894916" lon="8.01453932937982"><ele>174.2</ele><time>2026-04-19T08:37:37Z</time></trkpt><trkpt lat="44.8969386256666" lon="8.01461650704285"><ele>174.39999999999998</ele><time>2026-04-19T08:37:38Z</time></trkpt><trkpt lat="44.897041931694886" lon="8.014699706168159"><ele>174.6</ele><time>2026-04-19T08:37:39Z</time></trkpt><trkpt lat="44.89711868621027" lon="8.014806835644634"><ele>174.8</ele><time>2026-04-19T08:37:40Z</time></trkpt><trkpt lat="44.89719681079826" lon="8.014940711265654"><ele>175.0</ele><time>2026-04-19T08:37:41Z</time></trkpt><trkpt lat="44.89727273552589" lon="8.01506034569419"><ele>174.4</ele><time>2026-04-19T08:37:42Z</time></trkpt><trkpt lat="44.8973458675383" lon="8.015162465372818"><ele>173.8</ele><time>2026-04-19T08:37:43Z</time></trkpt><trkpt lat="44.897409412491186" lon="8.015247050413377"><ele>173.2</ele><time>2026-04-19T08:37:44Z</time></trkpt><trkpt lat="44.89747003031781" lon="8.015340941964501"><ele>172.6</ele><time>2026-04-19T08:37:45Z</time></trkpt><trkpt lat="44.89753885226487" lon="8.015446246918202"><ele>172.0</ele><time>2026-04-19T08:37:46Z</time></trkpt><trkpt lat="44.897612984637135" lon="8.01555617172675"><ele>173.0</ele><time>2026-04-19T08:37:47Z</time></trkpt><trkpt lat="44.89768902403236" lon="8.015667234642796"><ele>174.0</ele><time>2026-04-19T08:37:48Z</time></trkpt><trkpt lat="44.897757856317504" lon="8.01577303226524"><ele>175.0</ele><time>2026-04-19T08:37:49Z</time></trkpt><trkpt lat="44.897826111167454" lon="8.015876881889465"><ele>176.0</ele><time>2026-04-19T08:37:50Z</time></trkpt><trkpt lat="44.89789120598568" lon="8.015980009292264"><ele>177.0</ele><time>2026-04-19T08:37:51Z</time></trkpt><trkpt lat="44.89797005251252" lon="8.01607023446208"><ele>177.0</ele><time>2026-04-19T08:37:52Z</time></trkpt><trkpt lat="44.89804790431435" lon="8.016184080834023"><ele>177.0</ele><time>2026-04-19T08:37:53Z</time></trkpt><trkpt lat="44.89812245803017" lon="8.016292926762768"><ele>177.0</ele><time>2026-04-19T08:37:54Z</time></trkpt><trkpt lat="44.89818961410495" lon="8.016405640134746"><ele>177.0</ele><time>2026-04-19T08:37:55Z</time></trkpt><trkpt lat="44.898264135236" lon="8.016531465581904"><ele>177.0</ele><time>2026-04-19T08:37:56Z</time></trkpt><trkpt lat="44.89834117877188" lon="8.016646141370686"><ele>176.25</ele><time>2026-04-19T08:37:57Z</time></trkpt><trkpt lat="44.89843250799979" lon="8.016764399572097"><ele>175.5</ele><time>2026-04-19T08:37:58Z</time></trkpt><trkpt lat="44.898521520341475" lon="8.016879979659441"><ele>174.75</ele><time>2026-04-19T08:37:59Z</time></trkpt><trkpt lat="44.89860902121521" lon="8.016987912318232"><ele>174.0</ele><time>2026-04-19T08:38:00Z</time></trkpt><trkpt lat="44.89868908934607" lon="8.017091730775368"><ele>174.0</ele><time>2026-04-19T08:38:01Z</time></trkpt><trkpt lat="44.89876935469608" lon="8.01720886541173"><ele>174.0</ele><time>2026-04-19T08:38:02Z</time></trkpt><trkpt lat="44.89883969560232" lon="8.01733512555447"><ele>174.0</ele><time>2026-04-19T08:38:03Z</time></trkpt><trkpt lat="44.898912628698724" lon="8.017473927216"><ele>174.0</ele><time>2026-04-19T08:38:04Z</time></trkpt><trkpt lat="44.89899373299848" lon="8.01760450732939"><ele>174.0</ele><time>2026-04-19T08:38:05Z</time></trkpt><trkpt lat="44.8990738876334" lon="8.017741922077825"><ele>174.0</ele><time>2026-04-19T08:38:06Z</time></trkpt><trkpt lat="44.89914868790463" lon="8.017868859907663"><ele>174.0</ele><time>2026-04-19T08:38:07Z</time></trkpt><trkpt lat="44.89922595375324" lon="8.018003737693466"><ele>174.0</ele><time>2026-04-19T08:38:08Z</time></trkpt><trkpt lat="44.89928299706603" lon="8.018127335188568"><ele>174.0</ele><time>2026-04-19T08:38:09Z</time></trkpt><trkpt lat="44.89933781776913" lon="8.01826468080514"><ele>174.0</ele><time>2026-04-19T08:38:10Z</time></trkpt><trkpt lat="44.899415161748664" lon="8.018395432644876"><ele>174.0</ele><time>2026-04-19T08:38:11Z</time></trkpt><trkpt lat="44.899506868203716" lon="8.018508232043434"><ele>174.0</ele><time>2026-04-19T08:38:12Z</time></trkpt><trkpt lat="44.89961459286162" lon="8.018605700879037"><ele>173.5</ele><time>2026-04-19T08:38:13Z</time></trkpt><trkpt lat="44.89973421634692" lon="8.01867620920317"><ele>173.0</ele><time>2026-04-19T08:38:14Z</time></trkpt><trkpt lat="44.899850520204104" lon="8.018744452711452"><ele>172.5</ele><time>2026-04-19T08:38:15Z</time></trkpt><trkpt lat="44.89994364682122" lon="8.018788453962598"><ele>172.0</ele><time>2026-04-19T08:38:16Z</time></trkpt><trkpt lat="44.90004037457475" lon="8.018833729742347"><ele>172.25</ele><time>2026-04-19T08:38:17Z</time></trkpt><trkpt lat="44.90014667540105" lon="8.018916541656116"><ele>172.5</ele><time>2026-04-19T08:38:18Z</time></trkpt><trkpt lat="44.90024777558491" lon="8.019000660529892"><ele>172.75</ele><time>2026-04-19T08:38:19Z</time></trkpt><trkpt lat="44.9003573704425" lon="8.019089134497657"><ele>173.0</ele><time>2026-04-19T08:38:20Z</time></trkpt><trkpt lat="44.90046117686201" lon="8.019191435589962"><ele>172.25</ele><time>2026-04-19T08:38:21Z</time></trkpt><trkpt lat="44.90057352509205" lon="8.019296711661822"><ele>171.5</ele><time>2026-04-19T08:38:22Z</time></trkpt><trkpt lat="44.90068106314549" lon="8.019396229185142"><ele>170.75</ele><time>2026-04-19T08:38:23Z</time></trkpt><trkpt lat="44.90079715601799" lon="8.019466939056553"><ele>170.0</ele><time>2026-04-19T08:38:24Z</time></trkpt><trkpt lat="44.90091030885638" lon="8.019544470906382"><ele>170.25</ele><time>2026-04-19T08:38:25Z</time></trkpt><trkpt lat="44.9010117504022" lon="8.019632049334303"><ele>170.5</ele><time>2026-04-19T08:38:26Z</time></trkpt><trkpt lat="44.9011155041041" lon="8.019720946736514"><ele>170.75</ele><time>2026-04-19T08:38:27Z</time></trkpt><trkpt lat="44.901216966540915" lon="8.019799454678564"><ele>171.0</ele><time>2026-04-19T08:38:28Z</time></trkpt><trkpt lat="44.90131933090396" lon="8.019893743983122"><ele>170.75</ele><time>2026-04-19T08:38:29Z</time></trkpt><trkpt lat="44.90142175000162" lon="8.019992038466448"><ele>170.5</ele><time>2026-04-19T08:38:30Z</time></trkpt><trkpt lat="44.90152775703774" lon="8.02010624224986"><ele>170.25</ele><time>2026-04-19T08:38:31Z</time></trkpt><trkpt lat="44.9016252349077" lon="8.02020892007237"><ele>170.0</ele><time>2026-04-19T08:38:32Z</time></trkpt><trkpt lat="44.901707143305785" lon="8.020295680417583"><ele>170.8</ele><time>2026-04-19T08:38:33Z</time></trkpt><trkpt lat="44.901772246983434" lon="8.020368353711211"><ele>171.6</ele><time>2026-04-19T08:38:34Z</time></trkpt><trkpt lat="44.90185728606531" lon="8.020399702639148"><ele>172.39999999999998</ele><time>2026-04-19T08:38:36Z</time></trkpt><trkpt lat="44.901950007223604" lon="8.020309075419156"><ele>173.2</ele><time>2026-04-19T08:38:38Z</time></trkpt><trkpt lat="44.90200919671919" lon="8.020229702299343"><ele>174.0</ele><time>2026-04-19T08:38:39Z</time></trkpt><trkpt lat="44.902090026383036" lon="8.020133460377755"><ele>174.0</ele><time>2026-04-19T08:38:40Z</time></trkpt><trkpt lat="44.90217363982232" lon="8.020043879592931"><ele>174.0</ele><time>2026-04-19T08:38:41Z</time></trkpt><trkpt lat="44.902254002845076" lon="8.01995055297347"><ele>174.0</ele><time>2026-04-19T08:38:42Z</time></trkpt><trkpt lat="44.90233490051409" lon="8.019871649587872"><ele>174.0</ele><time>2026-04-19T08:38:43Z</time></trkpt><trkpt lat="44.90241215781109" lon="8.019806395823482"><ele>174.0</ele><time>2026-04-19T08:38:44Z</time></trkpt><trkpt lat="44.902490845265056" lon="8.01974503951791"><ele>174.33333333333334</ele><time>2026-04-19T08:38:45Z</time></trkpt><trkpt lat="44.90255604910469" lon="8.01968846070837"><ele>174.66666666666666</ele><time>2026-04-19T08:38:46Z</time></trkpt><trkpt lat="44.902638076302885" lon="8.019645964788216"><ele>175.0</ele><time>2026-04-19T08:38:48Z</time></trkpt><trkpt lat="44.90270634234502" lon="8.019685137713514"><ele>175.33333333333331</ele><time>2026-04-19T08:38:50Z</time></trkpt><trkpt lat="44.90276485100963" lon="8.01975298028247"><ele>175.66666666666666</ele><time>2026-04-19T08:38:51Z</time></trkpt><trkpt lat="44.90283243510901" lon="8.019864771443387"><ele>176.0</ele><time>2026-04-19T08:38:52Z</time></trkpt><trkpt lat="44.90291877668478" lon="8.019992225508343"><ele>176.33333333333331</ele><time>2026-04-19T08:38:53Z</time></trkpt><trkpt lat="44.903022407560286" lon="8.020131355527216"><ele>176.66666666666666</ele><time>2026-04-19T08:38:54Z</time></trkpt><trkpt lat="44.90313198901614" lon="8.02027567734635"><ele>177.0</ele><time>2026-04-19T08:38:55Z</time></trkpt><trkpt lat="44.90324966258964" lon="8.020430332097245"><ele>177.0</ele><time>2026-04-19T08:38:56Z</time></trkpt><trkpt lat="44.90337855006338" lon="8.020611701511045"><ele>177.0</ele><time>2026-04-19T08:38:57Z</time></trkpt><trkpt lat="44.90351320766439" lon="8.02077614619905"><ele>177.0</ele><time>2026-04-19T08:38:58Z</time></trkpt><trkpt lat="44.90365690010625" lon="8.020938197433237"><ele>175.33333333333334</ele><time>2026-04-19T08:38:59Z</time></trkpt><trkpt lat="44.903800768312095" lon="8.021093468935112"><ele>173.66666666666669</ele><time>2026-04-19T08:39:00Z</time></trkpt><trkpt lat="44.90393368789642" lon="8.021239330357716"><ele>172.0</ele><time>2026-04-19T08:39:01Z</time></trkpt><trkpt lat="44.90405653539373" lon="8.021378635899884"><ele>172.0</ele><time>2026-04-19T08:39:02Z</time></trkpt><trkpt lat="44.9041711327057" lon="8.021512468065195"><ele>172.0</ele><time>2026-04-19T08:39:03Z</time></trkpt><trkpt lat="44.904278019744595" lon="8.02163608344187"><ele>172.0</ele><time>2026-04-19T08:39:04Z</time></trkpt><trkpt lat="44.90439455408783" lon="8.021762931316069"><ele>172.0</ele><time>2026-04-19T08:39:05Z</time></trkpt><trkpt lat="44.90451219046911" lon="8.021896500185983"><ele>171.25</ele><time>2026-04-19T08:39:06Z</time></trkpt><trkpt lat="44.90462550739533" lon="8.022025085286701"><ele>170.5</ele><time>2026-04-19T08:39:07Z</time></trkpt><trkpt lat="44.90473752442925" lon="8.022154777500075"><ele>169.75</ele><time>2026-04-19T08:39:08Z</time></trkpt><trkpt lat="44.90483613543464" lon="8.022285450714472"><ele>169.0</ele><time>2026-04-19T08:39:09Z</time></trkpt><trkpt lat="44.90493512697071" lon="8.022418873340257"><ele>169.0</ele><time>2026-04-19T08:39:10Z</time></trkpt><trkpt lat="44.9050232996986" lon="8.022548622198247"><ele>169.0</ele><time>2026-04-19T08:39:11Z</time></trkpt><trkpt lat="44.90510260884914" lon="8.022669458024822"><ele>169.0</ele><time>2026-04-19T08:39:12Z</time></trkpt><trkpt lat="44.905178121950456" lon="8.022785749018901"><ele>169.0</ele><time>2026-04-19T08:39:13Z</time></trkpt><trkpt lat="44.90525389246428" lon="8.022901908570581"><ele>170.0</ele><time>2026-04-19T08:39:14Z</time></trkpt><trkpt lat="44.90531604322466" lon="8.023000393615645"><ele>171.0</ele><time>2026-04-19T08:39:15Z</time></trkpt><trkpt lat="44.90537156190851" lon="8.023096388582607"><ele>172.0</ele><time>2026-04-19T08:39:16Z</time></trkpt><trkpt lat="44.90541911680073" lon="8.023181241527668"><ele>173.0</ele><time>2026-04-19T08:39:17Z</time></trkpt><trkpt lat="44.90548874528174" lon="8.02329539898008"><ele>174.0</ele><time>2026-04-19T08:39:19Z</time></trkpt><trkpt lat="44.90554313248706" lon="8.023364751081152"><ele>175.0</ele><time>2026-04-19T08:39:22Z</time></trkpt><trkpt lat="44.905618364304814" lon="8.023360276925006"><ele>176.0</ele><time>2026-04-19T08:39:24Z</time></trkpt><trkpt lat="44.905669616696755" lon="8.023287610180104"><ele>177.0</ele><time>2026-04-19T08:39:25Z</time></trkpt><trkpt lat="44.90572346205927" lon="8.023178746450585"><ele>178.0</ele><time>2026-04-19T08:39:26Z</time></trkpt><trkpt lat="44.905780910347346" lon="8.02304231470455"><ele>179.0</ele><time>2026-04-19T08:39:27Z</time></trkpt><trkpt lat="44.90581852544328" lon="8.022887740030741"><ele>180.0</ele><time>2026-04-19T08:39:28Z</time></trkpt><trkpt lat="44.90583194362846" lon="8.022723862156386"><ele>180.0</ele><time>2026-04-19T08:39:29Z</time></trkpt><trkpt lat="44.905835633113156" lon="8.022575316894182"><ele>180.0</ele><time>2026-04-19T08:39:30Z</time></trkpt><trkpt lat="44.90582936736744" lon="8.022440657405504"><ele>180.0</ele><time>2026-04-19T08:39:31Z</time></trkpt><trkpt lat="44.90582098842843" lon="8.02228871762391"><ele>180.0</ele><time>2026-04-19T08:39:32Z</time></trkpt><trkpt lat="44.905805197924074" lon="8.022121709913542"><ele>180.0</ele><time>2026-04-19T08:39:33Z</time></trkpt><trkpt lat="44.90578747170912" lon="8.021960920873955"><ele>180.0</ele><time>2026-04-19T08:39:34Z</time></trkpt><trkpt lat="44.90577201551501" lon="8.021834793683214"><ele>180.0</ele><time>2026-04-19T08:39:35Z</time></trkpt><trkpt lat="44.9057527688896" lon="8.02172252635952"><ele>180.0</ele><time>2026-04-19T08:39:36Z</time></trkpt><trkpt lat="44.90574003691325" lon="8.021603125286218"><ele>180.0</ele><time>2026-04-19T08:39:37Z</time></trkpt><trkpt lat="44.905720702982215" lon="8.021469717795355"><ele>180.0</ele><time>2026-04-19T08:39:38Z</time></trkpt><trkpt lat="44.90571921245698" lon="8.021321887779541"><ele>180.0</ele><time>2026-04-19T08:39:39Z</time></trkpt><trkpt lat="44.9057174561637" lon="8.021174850174738"><ele>180.0</ele><time>2026-04-19T08:39:40Z</time></trkpt><trkpt lat="44.90571638021065" lon="8.021042066682853"><ele>180.0</ele><time>2026-04-19T08:39:41Z</time></trkpt><trkpt lat="44.90570624158374" lon="8.020908199712391"><ele>180.0</ele><time>2026-04-19T08:39:42Z</time></trkpt><trkpt lat="44.90568625971334" lon="8.02076227183821"><ele>180.0</ele><time>2026-04-19T08:39:43Z</time></trkpt><trkpt lat="44.90566879648292" lon="8.020615494661271"><ele>180.0</ele><time>2026-04-19T08:39:44Z</time></trkpt><trkpt lat="44.90566132089996" lon="8.020449501819986"><ele>180.0</ele><time>2026-04-19T08:39:45Z</time></trkpt><trkpt lat="44.905656282979685" lon="8.020273730645847"><ele>180.0</ele><time>2026-04-19T08:39:46Z</time></trkpt><trkpt lat="44.905652133599865" lon="8.020121347581185"><ele>180.0</ele><time>2026-04-19T08:39:47Z</time></trkpt><trkpt lat="44.90564319794465" lon="8.01998491472431"><ele>180.0</ele><time>2026-04-19T08:39:48Z</time></trkpt><trkpt lat="44.905628664149276" lon="8.019844843505773"><ele>180.0</ele><time>2026-04-19T08:39:49Z</time></trkpt><trkpt lat="44.905627247360485" lon="8.019699001844184"><ele>180.0</ele><time>2026-04-19T08:39:50Z</time></trkpt><trkpt lat="44.905639935648274" lon="8.019569103342926"><ele>180.0</ele><time>2026-04-19T08:39:51Z</time></trkpt><trkpt lat="44.9056670478744" lon="8.01943221388566"><ele>180.0</ele><time>2026-04-19T08:39:52Z</time></trkpt><trkpt lat="44.90570427790065" lon="8.019282427672577"><ele>180.0</ele><time>2026-04-19T08:39:53Z</time></trkpt><trkpt lat="44.90575946017586" lon="8.019133091920096"><ele>179.4</ele><time>2026-04-19T08:39:54Z</time></trkpt><trkpt lat="44.905827163619996" lon="8.018988674381326"><ele>178.8</ele><time>2026-04-19T08:39:55Z</time></trkpt><trkpt lat="44.905885918989675" lon="8.018877178664685"><ele>178.2</ele><time>2026-04-19T08:39:56Z</time></trkpt><trkpt lat="44.905930827398265" lon="8.01878858880741"><ele>177.6</ele><time>2026-04-19T08:39:57Z</time></trkpt><trkpt lat="44.90600047117888" lon="8.018666315025223"><ele>177.0</ele><time>2026-04-19T08:39:59Z</time></trkpt><trkpt lat="44.90605283733521" lon="8.018598454145788"><ele>178.6</ele><time>2026-04-19T08:40:00Z</time></trkpt><trkpt lat="44.90611337708174" lon="8.018508253284333"><ele>180.2</ele><time>2026-04-19T08:40:01Z</time></trkpt><trkpt lat="44.90617906945739" lon="8.018415344435107"><ele>181.8</ele><time>2026-04-19T08:40:02Z</time></trkpt><trkpt lat="44.90624453889021" lon="8.018332258090524"><ele>183.4</ele><time>2026-04-19T08:40:03Z</time></trkpt><trkpt lat="44.90632773681161" lon="8.018213496044552"><ele>185.0</ele><time>2026-04-19T08:40:04Z</time></trkpt><trkpt lat="44.90639334812679" lon="8.018076770012419"><ele>185.0</ele><time>2026-04-19T08:40:05Z</time></trkpt><trkpt lat="44.906456631478804" lon="8.017980938431405"><ele>185.0</ele><time>2026-04-19T08:40:06Z</time></trkpt><trkpt lat="44.906540092080505" lon="8.017810268043668"><ele>185.0</ele><time>2026-04-19T08:40:07Z</time></trkpt><trkpt lat="44.90662311354094" lon="8.017702871728078"><ele>185.0</ele><time>2026-04-19T08:40:08Z</time></trkpt><trkpt lat="44.90671605171417" lon="8.017565116305786"><ele>186.6</ele><time>2026-04-19T08:40:09Z</time></trkpt><trkpt lat="44.90680004101256" lon="8.01745930787902"><ele>188.2</ele><time>2026-04-19T08:40:10Z</time></trkpt><trkpt lat="44.90688103952079" lon="8.017345099834463"><ele>189.8</ele><time>2026-04-19T08:40:11Z</time></trkpt><trkpt lat="44.90695355129704" lon="8.017237931093325"><ele>191.4</ele><time>2026-04-19T08:40:12Z</time></trkpt><trkpt lat="44.907028377628855" lon="8.01711365509348"><ele>193.0</ele><time>2026-04-19T08:40:13Z</time></trkpt><trkpt lat="44.907105137243946" lon="8.016975611356337"><ele>193.0</ele><time>2026-04-19T08:40:14Z</time></trkpt><trkpt lat="44.90718135432934" lon="8.016841687137397"><ele>193.0</ele><time>2026-04-19T08:40:15Z</time></trkpt><trkpt lat="44.907252132644345" lon="8.016711588938449"><ele>193.0</ele><time>2026-04-19T08:40:16Z</time></trkpt><trkpt lat="44.907318362768" lon="8.016603229361236"><ele>193.0</ele><time>2026-04-19T08:40:17Z</time></trkpt><trkpt lat="44.907389959385995" lon="8.016495626703232"><ele>193.0</ele><time>2026-04-19T08:40:18Z</time></trkpt><trkpt lat="44.90747313438228" lon="8.01638296446963"><ele>192.5</ele><time>2026-04-19T08:40:19Z</time></trkpt><trkpt lat="44.90754898492878" lon="8.016252641849386"><ele>192.0</ele><time>2026-04-19T08:40:20Z</time></trkpt><trkpt lat="44.90761978808881" lon="8.016092394307096"><ele>191.5</ele><time>2026-04-19T08:40:21Z</time></trkpt><trkpt lat="44.90769233547505" lon="8.015942220711608"><ele>191.0</ele><time>2026-04-19T08:40:22Z</time></trkpt><trkpt lat="44.90775485756867" lon="8.015773380166022"><ele>191.0</ele><time>2026-04-19T08:40:23Z</time></trkpt><trkpt lat="44.90781546435125" lon="8.015628510351222"><ele>191.0</ele><time>2026-04-19T08:40:24Z</time></trkpt><trkpt lat="44.90788566345331" lon="8.015480486122359"><ele>191.0</ele><time>2026-04-19T08:40:25Z</time></trkpt><trkpt lat="44.907947003042224" lon="8.015321921088328"><ele>191.0</ele><time>2026-04-19T08:40:26Z</time></trkpt><trkpt lat="44.90800795977825" lon="8.015147907196265"><ele>190.0</ele><time>2026-04-19T08:40:27Z</time></trkpt><trkpt lat="44.90807518000904" lon="8.014969531376385"><ele>189.0</ele><time>2026-04-19T08:40:28Z</time></trkpt><trkpt lat="44.908139984766606" lon="8.014785924189743"><ele>188.0</ele><time>2026-04-19T08:40:29Z</time></trkpt><trkpt lat="44.908188718745684" lon="8.014624792943854"><ele>187.0</ele><time>2026-04-19T08:40:30Z</time></trkpt><trkpt lat="44.90823638727992" lon="8.014475398835728"><ele>187.0</ele><time>2026-04-19T08:40:31Z</time></trkpt><trkpt lat="44.90828257724998" lon="8.014364059143842"><ele>187.0</ele><time>2026-04-19T08:40:32Z</time></trkpt><trkpt lat="44.90832671743786" lon="8.014277604152584"><ele>187.0</ele><time>2026-04-19T08:40:33Z</time></trkpt><trkpt lat="44.908402329309176" lon="8.014189296488176"><ele>187.0</ele><time>2026-04-19T08:40:34Z</time></trkpt><trkpt lat="44.90848404330348" lon="8.01407982215278"><ele>187.0</ele><time>2026-04-19T08:40:35Z</time></trkpt><trkpt lat="44.90854567114723" lon="8.013976861613344"><ele>189.0</ele><time>2026-04-19T08:40:36Z</time></trkpt><trkpt lat="44.90857811509238" lon="8.013843455754941"><ele>191.0</ele><time>2026-04-19T08:40:37Z</time></trkpt><trkpt lat="44.908593763260036" lon="8.013670144633819"><ele>193.0</ele><time>2026-04-19T08:40:38Z</time></trkpt><trkpt lat="44.9086190742635" lon="8.013489487911343"><ele>195.0</ele><time>2026-04-19T08:40:39Z</time></trkpt><trkpt lat="44.90864601995613" lon="8.013317947783051"><ele>195.0</ele><time>2026-04-19T08:40:40.001Z</time></trkpt><trkpt lat="44.90867374820863" lon="8.013136019765666"><ele>195.0</ele><time>2026-04-19T08:40:41.001Z</time></trkpt><trkpt lat="44.908679030632904" lon="8.012931689596574"><ele>195.0</ele><time>2026-04-19T08:40:42.001Z</time></trkpt><trkpt lat="44.9086804518223" lon="8.012763424021411"><ele>195.0</ele><time>2026-04-19T08:40:43.001Z</time></trkpt><trkpt lat="44.90869040481298" lon="8.012629816956157"><ele>195.0</ele><time>2026-04-19T08:40:44.001Z</time></trkpt><trkpt lat="44.908724257402255" lon="8.012513862925264"><ele>195.0</ele><time>2026-04-19T08:40:45Z</time></trkpt><trkpt lat="44.90875346773113" lon="8.012407467518077"><ele>195.0</ele><time>2026-04-19T08:40:46Z</time></trkpt><trkpt lat="44.90875272863427" lon="8.012295205577486"><ele>195.0</ele><time>2026-04-19T08:40:47Z</time></trkpt><trkpt lat="44.908695223459524" lon="8.012153595667495"><ele>195.0</ele><time>2026-04-19T08:40:48Z</time></trkpt><trkpt lat="44.90862702213551" lon="8.012003024327688"><ele>196.75</ele><time>2026-04-19T08:40:49Z</time></trkpt><trkpt lat="44.9085549437266" lon="8.01185951048197"><ele>198.5</ele><time>2026-04-19T08:40:50Z</time></trkpt><trkpt lat="44.908480597953876" lon="8.01170713989137"><ele>200.25</ele><time>2026-04-19T08:40:51Z</time></trkpt><trkpt lat="44.908401910982846" lon="8.011550735334241"><ele>202.0</ele><time>2026-04-19T08:40:52Z</time></trkpt><trkpt lat="44.90832617502057" lon="8.011387453488327"><ele>202.0</ele><time>2026-04-19T08:40:53Z</time></trkpt><trkpt lat="44.90825610920559" lon="8.011262241749593"><ele>202.0</ele><time>2026-04-19T08:40:54Z</time></trkpt><trkpt lat="44.90818654098318" lon="8.011108566333393"><ele>202.0</ele><time>2026-04-19T08:40:55Z</time></trkpt><trkpt lat="44.908107581995104" lon="8.010960690556216"><ele>202.0</ele><time>2026-04-19T08:40:56Z</time></trkpt><trkpt lat="44.908031468126644" lon="8.010824946515008"><ele>204.2</ele><time>2026-04-19T08:40:57Z</time></trkpt><trkpt lat="44.9079550286835" lon="8.010687926770881"><ele>206.39999999999998</ele><time>2026-04-19T08:40:58Z</time></trkpt><trkpt lat="44.907899107569264" lon="8.010555346396833"><ele>208.60000000000002</ele><time>2026-04-19T08:40:59Z</time></trkpt><trkpt lat="44.90786579474653" lon="8.010432883552738"><ele>210.8</ele><time>2026-04-19T08:41:00Z</time></trkpt><trkpt lat="44.90783477517092" lon="8.010282469481117"><ele>213.0</ele><time>2026-04-19T08:41:01Z</time></trkpt><trkpt lat="44.90781242475023" lon="8.010111106439938"><ele>215.0</ele><time>2026-04-19T08:41:02Z</time></trkpt><trkpt lat="44.907768340183445" lon="8.009956987523148"><ele>217.0</ele><time>2026-04-19T08:41:03Z</time></trkpt><trkpt lat="44.90770855244179" lon="8.0097735384803"><ele>219.0</ele><time>2026-04-19T08:41:04Z</time></trkpt><trkpt lat="44.90764048646557" lon="8.009617788080229"><ele>221.0</ele><time>2026-04-19T08:41:05Z</time></trkpt><trkpt lat="44.90757318887874" lon="8.009468736834522"><ele>217.4</ele><time>2026-04-19T08:41:06Z</time></trkpt><trkpt lat="44.9075028603982" lon="8.009305930765173"><ele>213.8</ele><time>2026-04-19T08:41:07Z</time></trkpt><trkpt lat="44.90745561569682" lon="8.009160702228344"><ele>210.20000000000002</ele><time>2026-04-19T08:41:08Z</time></trkpt><trkpt lat="44.907430395091936" lon="8.009072920014601"><ele>206.60000000000002</ele><time>2026-04-19T08:41:09Z</time></trkpt><trkpt lat="44.90741785352456" lon="8.008970641570587"><ele>203.0</ele><time>2026-04-19T08:41:10Z</time></trkpt><trkpt lat="44.90740855412699" lon="8.008852670868684"><ele>203.0</ele><time>2026-04-19T08:41:11Z</time></trkpt><trkpt lat="44.90739372183987" lon="8.008716483758779"><ele>203.0</ele><time>2026-04-19T08:41:12Z</time></trkpt><trkpt lat="44.90738459508639" lon="8.008580667563066"><ele>203.0</ele><time>2026-04-19T08:41:13Z</time></trkpt><trkpt lat="44.90736193992769" lon="8.00842284882083"><ele>203.0</ele><time>2026-04-19T08:41:14Z</time></trkpt><trkpt lat="44.90733696367794" lon="8.008268660581125"><ele>203.0</ele><time>2026-04-19T08:41:15Z</time></trkpt><trkpt lat="44.90731592850982" lon="8.008110412646419"><ele>203.0</ele><time>2026-04-19T08:41:16Z</time></trkpt><trkpt lat="44.907294676254004" lon="8.007970803979784"><ele>203.0</ele><time>2026-04-19T08:41:17Z</time></trkpt><trkpt lat="44.90728020228899" lon="8.00785421277781"><ele>203.0</ele><time>2026-04-19T08:41:18Z</time></trkpt><trkpt lat="44.90731332321752" lon="8.007698117889117"><ele>203.0</ele><time>2026-04-19T08:41:20Z</time></trkpt><trkpt lat="44.90734755798034" lon="8.00759439621855"><ele>203.0</ele><time>2026-04-19T08:41:21Z</time></trkpt><trkpt lat="44.90734968228625" lon="8.007442120833145"><ele>203.0</ele><time>2026-04-19T08:41:22Z</time></trkpt><trkpt lat="44.90736641041128" lon="8.007306298271152"><ele>203.0</ele><time>2026-04-19T08:41:23Z</time></trkpt><trkpt lat="44.90739664380065" lon="8.007208505266947"><ele>203.0</ele><time>2026-04-19T08:41:24Z</time></trkpt><trkpt lat="44.90746516401768" lon="8.007038155299746"><ele>203.0</ele><time>2026-04-19T08:41:26Z</time></trkpt><trkpt lat="44.90751375388923" lon="8.006932642299509"><ele>203.0</ele><time>2026-04-19T08:41:27Z</time></trkpt><trkpt lat="44.90756722067196" lon="8.006846573387046"><ele>203.2</ele><time>2026-04-19T08:41:28Z</time></trkpt><trkpt lat="44.90761532295267" lon="8.006738859271202"><ele>203.4</ele><time>2026-04-19T08:41:29Z</time></trkpt><trkpt lat="44.90768322508413" lon="8.006601868434855"><ele>203.6</ele><time>2026-04-19T08:41:30Z</time></trkpt><trkpt lat="44.907764768549725" lon="8.0064819315964"><ele>203.79999999999998</ele><time>2026-04-19T08:41:31Z</time></trkpt><trkpt lat="44.9078414570402" lon="8.006349449808717"><ele>204.0</ele><time>2026-04-19T08:41:32Z</time></trkpt><trkpt lat="44.907923205928434" lon="8.006227646607284"><ele>204.0</ele><time>2026-04-19T08:41:33Z</time></trkpt><trkpt lat="44.90797975103906" lon="8.00609262731613"><ele>204.0</ele><time>2026-04-19T08:41:34Z</time></trkpt><trkpt lat="44.9080281281033" lon="8.005967866303138"><ele>204.0</ele><time>2026-04-19T08:41:35Z</time></trkpt><trkpt lat="44.90805633294851" lon="8.00585242403616"><ele>204.0</ele><time>2026-04-19T08:41:36Z</time></trkpt><trkpt lat="44.90813204356272" lon="8.005748576165901"><ele>204.0</ele><time>2026-04-19T08:41:37Z</time></trkpt><trkpt lat="44.90818362257404" lon="8.005642370313604"><ele>204.75</ele><time>2026-04-19T08:41:38Z</time></trkpt><trkpt lat="44.90825632286432" lon="8.005524334221121"><ele>205.5</ele><time>2026-04-19T08:41:39Z</time></trkpt><trkpt lat="44.9083272153401" lon="8.005380044766756"><ele>206.25</ele><time>2026-04-19T08:41:40Z</time></trkpt><trkpt lat="44.908394625360884" lon="8.005254309293337"><ele>207.0</ele><time>2026-04-19T08:41:41Z</time></trkpt><trkpt lat="44.908468275559834" lon="8.005129159501363"><ele>205.75</ele><time>2026-04-19T08:41:42Z</time></trkpt><trkpt lat="44.90854408087027" lon="8.00498354697665"><ele>204.5</ele><time>2026-04-19T08:41:43Z</time></trkpt><trkpt lat="44.9086177824672" lon="8.004834897969832"><ele>203.25</ele><time>2026-04-19T08:41:44Z</time></trkpt><trkpt lat="44.90867958536291" lon="8.004688418738384"><ele>202.0</ele><time>2026-04-19T08:41:45Z</time></trkpt><trkpt lat="44.908744206208304" lon="8.004569804137123"><ele>202.0</ele><time>2026-04-19T08:41:46Z</time></trkpt><trkpt lat="44.90880948646181" lon="8.004476377373933"><ele>202.0</ele><time>2026-04-19T08:41:47Z</time></trkpt><trkpt lat="44.908882326524754" lon="8.004368999584734"><ele>202.0</ele><time>2026-04-19T08:41:48Z</time></trkpt><trkpt lat="44.908973848000514" lon="8.004259700817142"><ele>202.0</ele><time>2026-04-19T08:41:49Z</time></trkpt><trkpt lat="44.909120005712886" lon="8.00414170962447"><ele>201.99999999999997</ele><time>2026-04-19T08:41:51Z</time></trkpt><trkpt lat="44.90919791239121" lon="8.00417188056313"><ele>202.0</ele><time>2026-04-19T08:41:53Z</time></trkpt><trkpt lat="44.909273050820396" lon="8.004241935574068"><ele>202.0</ele><time>2026-04-19T08:41:54Z</time></trkpt><trkpt lat="44.90934927343098" lon="8.004315171181554"><ele>202.0</ele><time>2026-04-19T08:41:55Z</time></trkpt><trkpt lat="44.909428428963125" lon="8.004379936628267"><ele>201.99999999999997</ele><time>2026-04-19T08:41:56Z</time></trkpt><trkpt lat="44.90950625963604" lon="8.004446712896366"><ele>202.0</ele><time>2026-04-19T08:41:57Z</time></trkpt><trkpt lat="44.90958585517424" lon="8.00450630820938"><ele>204.33333333333331</ele><time>2026-04-19T08:41:58Z</time></trkpt><trkpt lat="44.90966449360097" lon="8.004567953249722"><ele>206.66666666666666</ele><time>2026-04-19T08:41:59Z</time></trkpt><trkpt lat="44.90974884438127" lon="8.00462830769973"><ele>209.0</ele><time>2026-04-19T08:42:00Z</time></trkpt><trkpt lat="44.9098125013993" lon="8.004693096263628"><ele>211.33333333333331</ele><time>2026-04-19T08:42:01Z</time></trkpt><trkpt lat="44.909872262729365" lon="8.004731903372575"><ele>213.66666666666666</ele><time>2026-04-19T08:42:02Z</time></trkpt><trkpt lat="44.90995455312856" lon="8.004813653259244"><ele>216.0</ele><time>2026-04-19T08:42:04Z</time></trkpt><trkpt lat="44.91002446752385" lon="8.004874823422087"><ele>218.4</ele><time>2026-04-19T08:42:07Z</time></trkpt><trkpt lat="44.91010585442733" lon="8.004942639921284"><ele>220.8</ele><time>2026-04-19T08:42:09Z</time></trkpt><trkpt lat="44.910216156472806" lon="8.005017398954736"><ele>223.20000000000002</ele><time>2026-04-19T08:42:11Z</time></trkpt><trkpt lat="44.91029358477835" lon="8.00506516624623"><ele>225.60000000000002</ele><time>2026-04-19T08:42:12Z</time></trkpt><trkpt lat="44.91039256371425" lon="8.00521150334336"><ele>228.0</ele><time>2026-04-19T08:42:14Z</time></trkpt><trkpt lat="44.910446683644594" lon="8.005302925817695"><ele>229.66666666666666</ele><time>2026-04-19T08:42:15Z</time></trkpt><trkpt lat="44.9104764091787" lon="8.005386472885476"><ele>231.33333333333331</ele><time>2026-04-19T08:42:16Z</time></trkpt><trkpt lat="44.9105073561587" lon="8.005469452232562"><ele>233.0</ele><time>2026-04-19T08:42:17Z</time></trkpt><trkpt lat="44.9105884174316" lon="8.00555154590868"><ele>234.66666666666666</ele><time>2026-04-19T08:42:19Z</time></trkpt><trkpt lat="44.91064814257811" lon="8.005522060573298"><ele>236.33333333333331</ele><time>2026-04-19T08:42:20Z</time></trkpt><trkpt lat="44.910715783079056" lon="8.005429076818256"><ele>238.0</ele><time>2026-04-19T08:42:21Z</time></trkpt><trkpt lat="44.91077820155236" lon="8.00529130172872"><ele>238.0</ele><time>2026-04-19T08:42:22Z</time></trkpt><trkpt lat="44.910835134537734" lon="8.005184975466548"><ele>238.0</ele><time>2026-04-19T08:42:23Z</time></trkpt><trkpt lat="44.91092891096045" lon="8.005092260028645"><ele>238.0</ele><time>2026-04-19T08:42:25Z</time></trkpt><trkpt lat="44.910994115221186" lon="8.005004127709437"><ele>238.0</ele><time>2026-04-19T08:42:26Z</time></trkpt><trkpt lat="44.91104396149799" lon="8.004920279248786"><ele>238.0</ele><time>2026-04-19T08:42:27Z</time></trkpt><trkpt lat="44.91110844780034" lon="8.004781982430691"><ele>238.60000000000002</ele><time>2026-04-19T08:42:29Z</time></trkpt><trkpt lat="44.911167499158864" lon="8.004696575286848"><ele>239.20000000000002</ele><time>2026-04-19T08:42:30Z</time></trkpt><trkpt lat="44.91127852579748" lon="8.004723080436113"><ele>239.8</ele><time>2026-04-19T08:42:32Z</time></trkpt><trkpt lat="44.91132853940647" lon="8.004797973614737"><ele>240.4</ele><time>2026-04-19T08:42:33Z</time></trkpt><trkpt lat="44.91138790629702" lon="8.004916795219076"><ele>241.0</ele><time>2026-04-19T08:42:34Z</time></trkpt><trkpt lat="44.911436218176306" lon="8.005021593417203"><ele>241.0</ele><time>2026-04-19T08:42:35.001Z</time></trkpt><trkpt lat="44.91148178436491" lon="8.005128707969712"><ele>241.00000000000003</ele><time>2026-04-19T08:42:36.001Z</time></trkpt><trkpt lat="44.91154136370068" lon="8.005233736459546"><ele>241.00000000000003</ele><time>2026-04-19T08:42:37.001Z</time></trkpt><trkpt lat="44.911602358773244" lon="8.005340322394664"><ele>241.0</ele><time>2026-04-19T08:42:38.001Z</time></trkpt><trkpt lat="44.91166541923336" lon="8.00547133473201"><ele>241.0</ele><time>2026-04-19T08:42:39.001Z</time></trkpt><trkpt lat="44.91173093190102" lon="8.005598892413321"><ele>242.20000000000002</ele><time>2026-04-19T08:42:40.001Z</time></trkpt><trkpt lat="44.91179562728819" lon="8.005720466376475"><ele>243.40000000000003</ele><time>2026-04-19T08:42:41.001Z</time></trkpt><trkpt lat="44.91186476402627" lon="8.005835547086098"><ele>244.6</ele><time>2026-04-19T08:42:42.001Z</time></trkpt><trkpt lat="44.911936126639155" lon="8.005954609127379"><ele>245.8</ele><time>2026-04-19T08:42:43.001Z</time></trkpt><trkpt lat="44.912027328225385" lon="8.006069524439198"><ele>247.0</ele><time>2026-04-19T08:42:44.001Z</time></trkpt><trkpt lat="44.912125147932834" lon="8.006144148026918"><ele>246.99999999999997</ele><time>2026-04-19T08:42:45.001Z</time></trkpt><trkpt lat="44.912235955010864" lon="8.006190364618023"><ele>247.0</ele><time>2026-04-19T08:42:46.001Z</time></trkpt><trkpt lat="44.91234796293478" lon="8.0062308072175"><ele>247.0</ele><time>2026-04-19T08:42:47.001Z</time></trkpt><trkpt lat="44.912428548050954" lon="8.006233377619726"><ele>247.0</ele><time>2026-04-19T08:42:48.001Z</time></trkpt><trkpt lat="44.91249509366562" lon="8.00621982666592"><ele>246.99999999999997</ele><time>2026-04-19T08:42:49.001Z</time></trkpt><trkpt lat="44.9125471803488" lon="8.006168932728407"><ele>247.0</ele><time>2026-04-19T08:42:50.001Z</time></trkpt><trkpt lat="44.91260057413438" lon="8.006092235294387"><ele>247.0</ele><time>2026-04-19T08:42:51Z</time></trkpt><trkpt lat="44.91266828155705" lon="8.00597389566948"><ele>247.0</ele><time>2026-04-19T08:42:52Z</time></trkpt><trkpt lat="44.91274181476462" lon="8.005861313040576"><ele>247.0</ele><time>2026-04-19T08:42:53Z</time></trkpt><trkpt lat="44.9128104204573" lon="8.005774898782263"><ele>247.0</ele><time>2026-04-19T08:42:54Z</time></trkpt><trkpt lat="44.91286538678853" lon="8.005705151012295"><ele>247.0</ele><time>2026-04-19T08:42:55Z</time></trkpt><trkpt lat="44.912915261188914" lon="8.005625151266523"><ele>246.6</ele><time>2026-04-19T08:42:56Z</time></trkpt><trkpt lat="44.91295777457911" lon="8.005549724843492"><ele>246.2</ele><time>2026-04-19T08:42:57Z</time></trkpt><trkpt lat="44.91303763446981" lon="8.005428875320845"><ele>245.8</ele><time>2026-04-19T08:42:59Z</time></trkpt><trkpt lat="44.91304905169555" lon="8.005321546511786"><ele>245.4</ele><time>2026-04-19T08:43:01Z</time></trkpt><trkpt lat="44.91315943687143" lon="8.005277663308345"><ele>245.0</ele><time>2026-04-19T08:43:03Z</time></trkpt><trkpt lat="44.91326372555518" lon="8.00527853354991"><ele>245.0</ele><time>2026-04-19T08:43:04Z</time></trkpt><trkpt lat="44.91339390784698" lon="8.005262593522824"><ele>245.0</ele><time>2026-04-19T08:43:05Z</time></trkpt><trkpt lat="44.91352639699507" lon="8.005253066788082"><ele>245.0</ele><time>2026-04-19T08:43:06Z</time></trkpt><trkpt lat="44.91362718589782" lon="8.00526051147556"><ele>245.0</ele><time>2026-04-19T08:43:07Z</time></trkpt><trkpt lat="44.913740328417454" lon="8.005283778348643"><ele>245.25</ele><time>2026-04-19T08:43:08Z</time></trkpt><trkpt lat="44.91382519816597" lon="8.00536092862261"><ele>245.5</ele><time>2026-04-19T08:43:09Z</time></trkpt><trkpt lat="44.91394696190995" lon="8.005429899938589"><ele>245.75</ele><time>2026-04-19T08:43:10Z</time></trkpt><trkpt lat="44.91407045942803" lon="8.005448269568992"><ele>246.0</ele><time>2026-04-19T08:43:11Z</time></trkpt><trkpt lat="44.91420583824667" lon="8.005452245288517"><ele>245.20000000000002</ele><time>2026-04-19T08:43:12Z</time></trkpt><trkpt lat="44.91432481412324" lon="8.005465678356904"><ele>244.40000000000003</ele><time>2026-04-19T08:43:13Z</time></trkpt><trkpt lat="44.91442964975452" lon="8.005491694250365"><ele>243.6</ele><time>2026-04-19T08:43:14Z</time></trkpt><trkpt lat="44.91453700714574" lon="8.005528902948987"><ele>242.8</ele><time>2026-04-19T08:43:15Z</time></trkpt><trkpt lat="44.914642617461276" lon="8.005533613623234"><ele>242.0</ele><time>2026-04-19T08:43:16Z</time></trkpt><trkpt lat="44.914736518720694" lon="8.00554750313097"><ele>242.00000000000003</ele><time>2026-04-19T08:43:17Z</time></trkpt><trkpt lat="44.91480043366862" lon="8.005531421607513"><ele>242.0</ele><time>2026-04-19T08:43:18Z</time></trkpt><trkpt lat="44.9149151097453" lon="8.005561141427378"><ele>242.0</ele><time>2026-04-19T08:43:20Z</time></trkpt><trkpt lat="44.91498164527159" lon="8.00556874393037"><ele>242.0</ele><time>2026-04-19T08:43:21Z</time></trkpt><trkpt lat="44.91504917784295" lon="8.005578074412297"><ele>242.00000000000003</ele><time>2026-04-19T08:43:22Z</time></trkpt><trkpt lat="44.91513410849632" lon="8.0055836379091"><ele>242.0</ele><time>2026-04-19T08:43:23Z</time></trkpt><trkpt lat="44.91521447943546" lon="8.005583743835516"><ele>239.0</ele><time>2026-04-19T08:43:24Z</time></trkpt><trkpt lat="44.91530003215571" lon="8.005586810631632"><ele>236.0</ele><time>2026-04-19T08:43:25Z</time></trkpt><trkpt lat="44.91538973468822" lon="8.005596202399323"><ele>233.0</ele><time>2026-04-19T08:43:26Z</time></trkpt><trkpt lat="44.91550110555419" lon="8.005633910219327"><ele>230.0</ele><time>2026-04-19T08:43:27Z</time></trkpt><trkpt lat="44.91560349131602" lon="8.00563517209627"><ele>227.0</ele><time>2026-04-19T08:43:28Z</time></trkpt><trkpt lat="44.91572622164663" lon="8.0056572291612"><ele>227.0</ele><time>2026-04-19T08:43:29Z</time></trkpt><trkpt lat="44.915872761915146" lon="8.005690932640634"><ele>227.0</ele><time>2026-04-19T08:43:30Z</time></trkpt><trkpt lat="44.91598519839205" lon="8.005704120343847"><ele>227.0</ele><time>2026-04-19T08:43:31Z</time></trkpt><trkpt lat="44.91610454806742" lon="8.005732587783818"><ele>227.0</ele><time>2026-04-19T08:43:32Z</time></trkpt><trkpt lat="44.91622966996222" lon="8.005758391914485"><ele>225.6</ele><time>2026-04-19T08:43:33Z</time></trkpt><trkpt lat="44.91634168946716" lon="8.005798629389615"><ele>224.2</ele><time>2026-04-19T08:43:34Z</time></trkpt><trkpt lat="44.916449508330764" lon="8.005827462245485"><ele>222.8</ele><time>2026-04-19T08:43:35Z</time></trkpt><trkpt lat="44.916576843504224" lon="8.005869107985651"><ele>221.4</ele><time>2026-04-19T08:43:36Z</time></trkpt><trkpt lat="44.91666098075521" lon="8.005918091128368"><ele>220.0</ele><time>2026-04-19T08:43:37Z</time></trkpt><trkpt lat="44.916735450599646" lon="8.005977895017148"><ele>219.4</ele><time>2026-04-19T08:43:38Z</time></trkpt><trkpt lat="44.916801503787276" lon="8.006042476738859"><ele>218.8</ele><time>2026-04-19T08:43:39Z</time></trkpt><trkpt lat="44.91686640210704" lon="8.006088773407429"><ele>218.2</ele><time>2026-04-19T08:43:40Z</time></trkpt><trkpt lat="44.91700162487363" lon="8.006064925445294"><ele>217.6</ele><time>2026-04-19T08:43:42Z</time></trkpt><trkpt lat="44.91707612779773" lon="8.005965277320627"><ele>217.0</ele><time>2026-04-19T08:43:43Z</time></trkpt><trkpt lat="44.91715060899859" lon="8.005855155179981"><ele>216.99999999999997</ele><time>2026-04-19T08:43:44Z</time></trkpt><trkpt lat="44.91719230455856" lon="8.005781028195564"><ele>217.0</ele><time>2026-04-19T08:43:45Z</time></trkpt><trkpt lat="44.91727781712512" lon="8.005800333047686"><ele>217.0</ele><time>2026-04-19T08:43:47Z</time></trkpt><trkpt lat="44.91732519635855" lon="8.005896563441537"><ele>217.0</ele><time>2026-04-19T08:43:49Z</time></trkpt><trkpt lat="44.917378442299" lon="8.005822438518674"><ele>216.99999999999997</ele><time>2026-04-19T08:44:24Z</time></trkpt><trkpt lat="44.91745091013805" lon="8.00573214085017"><ele>217.0</ele><time>2026-04-19T08:44:26Z</time></trkpt><trkpt lat="44.917569880937236" lon="8.005707758231207"><ele>212.99999999999997</ele><time>2026-04-19T08:44:28Z</time></trkpt><trkpt lat="44.91764111078182" lon="8.005685677056228"><ele>209.0</ele><time>2026-04-19T08:44:30Z</time></trkpt><trkpt lat="44.917709748881826" lon="8.005666550623523"><ele>205.0</ele><time>2026-04-19T08:44:32Z</time></trkpt><trkpt lat="44.91775636458912" lon="8.00556155483223"><ele>201.0</ele><time>2026-04-19T08:44:35Z</time></trkpt><trkpt lat="44.91783555337214" lon="8.005499503609144"><ele>196.99999999999997</ele><time>2026-04-19T08:44:37Z</time></trkpt><trkpt lat="44.917894667784616" lon="8.005431436928278"><ele>193.0</ele><time>2026-04-19T08:44:39Z</time></trkpt><trkpt lat="44.91794864715794" lon="8.005380902685042"><ele>192.99999999999997</ele><time>2026-04-19T08:44:41Z</time></trkpt><trkpt lat="44.917899643393625" lon="8.005312894670116"><ele>193.0</ele><time>2026-04-19T08:44:44.001Z</time></trkpt><trkpt lat="44.91793880974094" lon="8.00523582374437"><ele>193.0</ele><time>2026-04-19T08:44:48.001Z</time></trkpt><trkpt lat="44.91796839341086" lon="8.005156437958105"><ele>193.0</ele><time>2026-04-19T08:44:51.001Z</time></trkpt><trkpt lat="44.91801052371463" lon="8.005064498431096"><ele>192.99999999999997</ele><time>2026-04-19T08:44:55.001Z</time></trkpt><trkpt lat="44.9181030869854" lon="8.005056376062743"><ele>193.0</ele><time>2026-04-19T08:44:58Z</time></trkpt><trkpt lat="44.91813224626819" lon="8.004943134243705"><ele>191.49999999999997</ele><time>2026-04-19T08:45:01Z</time></trkpt><trkpt lat="44.918192194330445" lon="8.004824429829082"><ele>190.0</ele><time>2026-04-19T08:45:04Z</time></trkpt><trkpt lat="44.91823462965918" lon="8.004746671627773"><ele>188.5</ele><time>2026-04-19T08:45:07Z</time></trkpt><trkpt lat="44.91823895144871" lon="8.0046123993742"><ele>187.0</ele><time>2026-04-19T08:45:10Z</time></trkpt><trkpt lat="44.91821929905889" lon="8.004498951992812"><ele>185.5</ele><time>2026-04-19T08:45:13Z</time></trkpt><trkpt lat="44.91821419532023" lon="8.004386799384587"><ele>184.0</ele><time>2026-04-19T08:45:16Z</time></trkpt><trkpt lat="44.91824280894806" lon="8.004291386809461"><ele>184.0</ele><time>2026-04-19T08:45:18Z</time></trkpt><trkpt lat="44.918221307000984" lon="8.00419469275838"><ele>184.0</ele><time>2026-04-19T08:45:21Z</time></trkpt><trkpt lat="44.91820371881426" lon="8.004072428998139"><ele>184.0</ele><time>2026-04-19T08:45:24Z</time></trkpt><trkpt lat="44.918173428478056" lon="8.003964876349595"><ele>184.0</ele><time>2026-04-19T08:45:27Z</time></trkpt><trkpt lat="44.91818581857467" lon="8.003865408645394"><ele>184.0</ele><time>2026-04-19T08:45:29Z</time></trkpt><trkpt lat="44.91817695443108" lon="8.003689631479638"><ele>184.0</ele><time>2026-04-19T08:45:32Z</time></trkpt><trkpt lat="44.91820334240496" lon="8.003598232775303"><ele>182.83333333333334</ele><time>2026-04-19T08:45:34Z</time></trkpt><trkpt lat="44.91826278183337" lon="8.003512000302123"><ele>181.66666666666669</ele><time>2026-04-19T08:45:36Z</time></trkpt><trkpt lat="44.91830079144475" lon="8.003429367173798"><ele>180.5</ele><time>2026-04-19T08:45:38Z</time></trkpt><trkpt lat="44.91827846179566" lon="8.003324748235297"><ele>179.33333333333334</ele><time>2026-04-19T08:45:40Z</time></trkpt><trkpt lat="44.91823832421837" lon="8.003238901864078"><ele>178.16666666666666</ele><time>2026-04-19T08:45:41Z</time></trkpt><trkpt lat="44.918271913308836" lon="8.003076965329399"><ele>177.0</ele><time>2026-04-19T08:45:42Z</time></trkpt><trkpt lat="44.918219779590615" lon="8.002999532139883"><ele>176.2</ele><time>2026-04-19T08:45:43Z</time></trkpt><trkpt lat="44.918175866497016" lon="8.002932884256557"><ele>175.39999999999998</ele><time>2026-04-19T08:45:44Z</time></trkpt><trkpt lat="44.918102149369346" lon="8.002864152329307"><ele>174.60000000000002</ele><time>2026-04-19T08:45:46Z</time></trkpt><trkpt lat="44.91796038541941" lon="8.002845441754125"><ele>173.8</ele><time>2026-04-19T08:45:48Z</time></trkpt><trkpt lat="44.91785665823551" lon="8.002849057429778"><ele>173.0</ele><time>2026-04-19T08:45:49Z</time></trkpt><trkpt lat="44.917777859012865" lon="8.002860238876982"><ele>173.0</ele><time>2026-04-19T08:45:50Z</time></trkpt><trkpt lat="44.91767076766445" lon="8.002853337373725"><ele>173.0</ele><time>2026-04-19T08:45:52Z</time></trkpt><trkpt lat="44.91760516973828" lon="8.002830748763731"><ele>173.0</ele><time>2026-04-19T08:45:53Z</time></trkpt><trkpt lat="44.91753563891255" lon="8.002734463114209"><ele>173.0</ele><time>2026-04-19T08:45:55Z</time></trkpt><trkpt lat="44.917461301698076" lon="8.002788550628724"><ele>173.0</ele><time>2026-04-19T08:45:56Z</time></trkpt><trkpt lat="44.91739177296149" lon="8.002790110193198"><ele>173.0</ele><time>2026-04-19T08:45:57Z</time></trkpt><trkpt lat="44.91732440576185" lon="8.002750420040734"><ele>173.5</ele><time>2026-04-19T08:45:58Z</time></trkpt><trkpt lat="44.91726682634827" lon="8.00266197956379"><ele>174.0</ele><time>2026-04-19T08:45:59Z</time></trkpt><trkpt lat="44.91718482254536" lon="8.0026868122197"><ele>174.5</ele><time>2026-04-19T08:46:00Z</time></trkpt><trkpt lat="44.91714203193704" lon="8.002600419047628"><ele>175.0</ele><time>2026-04-19T08:46:13Z</time></trkpt><trkpt lat="44.91708016102514" lon="8.002547774388093"><ele>175.5</ele><time>2026-04-19T08:46:24Z</time></trkpt><trkpt lat="44.9169969233941" lon="8.002529192429064"><ele>176.0</ele><time>2026-04-19T08:46:27Z</time></trkpt><trkpt lat="44.916914270334786" lon="8.002509730463062"><ele>175.60000000000002</ele><time>2026-04-19T08:46:31Z</time></trkpt><trkpt lat="44.916891973983006" lon="8.002410003559167"><ele>175.2</ele><time>2026-04-19T08:46:33Z</time></trkpt><trkpt lat="44.916794612272895" lon="8.002405367357637"><ele>174.8</ele><time>2026-04-19T08:46:35Z</time></trkpt><trkpt lat="44.916695577108136" lon="8.0024165616902"><ele>174.39999999999998</ele><time>2026-04-19T08:46:36Z</time></trkpt><trkpt lat="44.91659873328455" lon="8.002383869412538"><ele>174.0</ele><time>2026-04-19T08:46:37Z</time></trkpt><trkpt lat="44.91651627714553" lon="8.002328262001601"><ele>174.0</ele><time>2026-04-19T08:46:38Z</time></trkpt><trkpt lat="44.91643917020028" lon="8.00226512301503"><ele>174.0</ele><time>2026-04-19T08:46:39Z</time></trkpt><trkpt lat="44.91637626236845" lon="8.002198485423662"><ele>174.0</ele><time>2026-04-19T08:46:40Z</time></trkpt><trkpt lat="44.91633211082768" lon="8.002104224546585"><ele>174.0</ele><time>2026-04-19T08:46:41Z</time></trkpt><trkpt lat="44.91626141703697" lon="8.001956150182956"><ele>174.0</ele><time>2026-04-19T08:46:42Z</time></trkpt><trkpt lat="44.91620843748016" lon="8.001799848046247"><ele>173.6</ele><time>2026-04-19T08:46:43Z</time></trkpt><trkpt lat="44.91616293296795" lon="8.001642707160187"><ele>173.2</ele><time>2026-04-19T08:46:44Z</time></trkpt><trkpt lat="44.91612774336245" lon="8.001516284721541"><ele>172.79999999999998</ele><time>2026-04-19T08:46:45Z</time></trkpt><trkpt lat="44.9160257880681" lon="8.00140787041295"><ele>172.39999999999998</ele><time>2026-04-19T08:46:47.001Z</time></trkpt><trkpt lat="44.91596108425964" lon="8.001369400476388"><ele>172.0</ele><time>2026-04-19T08:46:51.001Z</time></trkpt><trkpt lat="44.915863587739686" lon="8.001307640640526"><ele>172.8</ele><time>2026-04-19T08:46:54.001Z</time></trkpt><trkpt lat="44.91576874397564" lon="8.001253618222199"><ele>173.6</ele><time>2026-04-19T08:46:56.001Z</time></trkpt><trkpt lat="44.915647506186104" lon="8.001176995585729"><ele>174.4</ele><time>2026-04-19T08:46:58.001Z</time></trkpt><trkpt lat="44.915569668792955" lon="8.001113058714042"><ele>175.20000000000002</ele><time>2026-04-19T08:46:59.001Z</time></trkpt><trkpt lat="44.915537199454185" lon="8.001030443233626"><ele>176.0</ele><time>2026-04-19T08:47:00.001Z</time></trkpt><trkpt lat="44.91546534654141" lon="8.000955613193677"><ele>176.0</ele><time>2026-04-19T08:47:01.001Z</time></trkpt><trkpt lat="44.91539769380898" lon="8.000841055729845"><ele>176.0</ele><time>2026-04-19T08:47:02.001Z</time></trkpt><trkpt lat="44.91533930437598" lon="8.000740736182776"><ele>176.0</ele><time>2026-04-19T08:47:03Z</time></trkpt><trkpt lat="44.91530270047717" lon="8.000640472293414"><ele>176.0</ele><time>2026-04-19T08:47:04Z</time></trkpt><trkpt lat="44.91528695316639" lon="8.000549368273203"><ele>176.0</ele><time>2026-04-19T08:47:05Z</time></trkpt><trkpt lat="44.91526960090193" lon="8.000392022913802"><ele>175.0</ele><time>2026-04-19T08:47:07Z</time></trkpt><trkpt lat="44.915208218464336" lon="8.00022533310375"><ele>174.0</ele><time>2026-04-19T08:47:09Z</time></trkpt><trkpt lat="44.91512271325228" lon="8.000148805079371"><ele>173.0</ele><time>2026-04-19T08:47:10Z</time></trkpt><trkpt lat="44.91504248069268" lon="8.000074398029085"><ele>172.0</ele><time>2026-04-19T08:47:11Z</time></trkpt><trkpt lat="44.91497555328291" lon="7.999979149129067"><ele>171.0</ele><time>2026-04-19T08:47:12Z</time></trkpt><trkpt lat="44.91490677891069" lon="7.9998541180440945"><ele>173.0</ele><time>2026-04-19T08:47:13Z</time></trkpt><trkpt lat="44.914834315490786" lon="7.99972446791549"><ele>175.0</ele><time>2026-04-19T08:47:14Z</time></trkpt><trkpt lat="44.91476975946997" lon="7.999611649819745"><ele>177.0</ele><time>2026-04-19T08:47:15Z</time></trkpt><trkpt lat="44.91474400265979" lon="7.999493862021258"><ele>179.0</ele><time>2026-04-19T08:47:17Z</time></trkpt><trkpt lat="44.91471797602408" lon="7.9993701442517064"><ele>181.0</ele><time>2026-04-19T08:47:20Z</time></trkpt><trkpt lat="44.91468536930611" lon="7.999283617748542"><ele>181.0</ele><time>2026-04-19T08:47:21Z</time></trkpt><trkpt lat="44.91462731138233" lon="7.999211194028896"><ele>181.0</ele><time>2026-04-19T08:47:22Z</time></trkpt><trkpt lat="44.91455871079146" lon="7.999092006740485"><ele>181.0</ele><time>2026-04-19T08:47:24Z</time></trkpt><trkpt lat="44.91454246178773" lon="7.998900690583056"><ele>181.0</ele><time>2026-04-19T08:47:26Z</time></trkpt><trkpt lat="44.91450578768243" lon="7.998751227493697"><ele>181.0</ele><time>2026-04-19T08:47:28Z</time></trkpt><trkpt lat="44.91446719099739" lon="7.998641921488777"><ele>181.0</ele><time>2026-04-19T08:47:29Z</time></trkpt><trkpt lat="44.91443196930457" lon="7.99856440939233"><ele>181.0</ele><time>2026-04-19T08:47:30Z</time></trkpt><trkpt lat="44.914396208521076" lon="7.998469058711462"><ele>181.0</ele><time>2026-04-19T08:47:31Z</time></trkpt><trkpt lat="44.914371681646344" lon="7.9983728028350916"><ele>181.0</ele><time>2026-04-19T08:47:32Z</time></trkpt><trkpt lat="44.91434155258744" lon="7.998272965939052"><ele>181.0</ele><time>2026-04-19T08:47:33Z</time></trkpt><trkpt lat="44.914276118289" lon="7.998210589688571"><ele>181.0</ele><time>2026-04-19T08:47:35Z</time></trkpt><trkpt lat="44.914211349656156" lon="7.998253516352251"><ele>181.0</ele><time>2026-04-19T08:47:38Z</time></trkpt><trkpt lat="44.9141334900458" lon="7.9981887422598685"><ele>182.0</ele><time>2026-04-19T08:47:42Z</time></trkpt><trkpt lat="44.914066239095455" lon="7.998204766324195"><ele>183.0</ele><time>2026-04-19T08:47:48Z</time></trkpt><trkpt lat="44.91400204738386" lon="7.998240860639572"><ele>184.0</ele><time>2026-04-19T08:47:51Z</time></trkpt><trkpt lat="44.913912694750074" lon="7.9982120277238"><ele>185.0</ele><time>2026-04-19T08:47:54Z</time></trkpt><trkpt lat="44.91374647003825" lon="7.998209043537282"><ele>186.0</ele><time>2026-04-19T08:47:56Z</time></trkpt><trkpt lat="44.913631395118344" lon="7.9981767554445415"><ele>186.0</ele><time>2026-04-19T08:47:58Z</time></trkpt><trkpt lat="44.91352472526727" lon="7.998132664859885"><ele>186.0</ele><time>2026-04-19T08:48:00Z</time></trkpt><trkpt lat="44.913453253656094" lon="7.998099382448484"><ele>186.0</ele><time>2026-04-19T08:48:01Z</time></trkpt><trkpt lat="44.913379194821204" lon="7.997952226259228"><ele>186.0</ele><time>2026-04-19T08:48:03Z</time></trkpt><trkpt lat="44.9133387493189" lon="7.997816338082772"><ele>186.0</ele><time>2026-04-19T08:48:05Z</time></trkpt><trkpt lat="44.91338123567592" lon="7.997708408700506"><ele>186.00000000000003</ele><time>2026-04-19T08:48:07Z</time></trkpt><trkpt lat="44.91337420945383" lon="7.997618873441555"><ele>186.0</ele><time>2026-04-19T08:48:09Z</time></trkpt><trkpt lat="44.913433998721075" lon="7.997531953367765"><ele>186.0</ele><time>2026-04-19T08:48:10Z</time></trkpt><trkpt lat="44.91349267389824" lon="7.997474840273977"><ele>186.0</ele><time>2026-04-19T08:48:11Z</time></trkpt><trkpt lat="44.913553626450806" lon="7.99742744871787"><ele>186.0</ele><time>2026-04-19T08:48:13Z</time></trkpt><trkpt lat="44.91360269265255" lon="7.997335356445515"><ele>186.00000000000003</ele><time>2026-04-19T08:48:15Z</time></trkpt><trkpt lat="44.91354232314485" lon="7.997287548523934"><ele>186.0</ele><time>2026-04-19T08:48:18Z</time></trkpt><trkpt lat="44.91347142628182" lon="7.997293012034302"><ele>186.8</ele><time>2026-04-19T08:48:21Z</time></trkpt><trkpt lat="44.91338569470132" lon="7.997312070010129"><ele>187.60000000000002</ele><time>2026-04-19T08:48:22Z</time></trkpt><trkpt lat="44.913254233390546" lon="7.997315085306425"><ele>188.4</ele><time>2026-04-19T08:48:24Z</time></trkpt><trkpt lat="44.91319310217076" lon="7.997286152219019"><ele>189.2</ele><time>2026-04-19T08:48:25Z</time></trkpt><trkpt lat="44.913153863923625" lon="7.997172602565053"><ele>190.0</ele><time>2026-04-19T08:48:27Z</time></trkpt><trkpt lat="44.91313783188204" lon="7.997057106387673"><ele>190.0</ele><time>2026-04-19T08:48:30Z</time></trkpt><trkpt lat="44.91307210961135" lon="7.9970279391048384"><ele>190.0</ele><time>2026-04-19T08:48:33.001Z</time></trkpt><trkpt lat="44.913062775466834" lon="7.996897894880075"><ele>190.0</ele><time>2026-04-19T08:48:35.001Z</time></trkpt><trkpt lat="44.91303711703133" lon="7.996763877902186"><ele>190.0</ele><time>2026-04-19T08:48:39.001Z</time></trkpt><trkpt lat="44.913018645811704" lon="7.9966536687350835"><ele>190.0</ele><time>2026-04-19T08:48:41.001Z</time></trkpt><trkpt lat="44.913012600115515" lon="7.996555664283551"><ele>190.0</ele><time>2026-04-19T08:48:43.001Z</time></trkpt><trkpt lat="44.913028574927345" lon="7.9964650735009295"><ele>187.75</ele><time>2026-04-19T08:48:44.001Z</time></trkpt><trkpt lat="44.913023708495466" lon="7.99632068437095"><ele>185.5</ele><time>2026-04-19T08:48:46.001Z</time></trkpt><trkpt lat="44.913010491464426" lon="7.996194048955729"><ele>183.25</ele><time>2026-04-19T08:48:49.001Z</time></trkpt><trkpt lat="44.9129286196465" lon="7.995957780549339"><ele>181.0</ele><time>2026-04-19T08:48:51.001Z</time></trkpt><trkpt lat="44.91298747559075" lon="7.995878949167441"><ele>180.66666666666669</ele><time>2026-04-19T08:48:52.001Z</time></trkpt><trkpt lat="44.913020748454926" lon="7.995800552964082"><ele>180.33333333333334</ele><time>2026-04-19T08:48:53.001Z</time></trkpt><trkpt lat="44.91303707192657" lon="7.995653733833606"><ele>180.0</ele><time>2026-04-19T08:48:54.001Z</time></trkpt><trkpt lat="44.91306246099032" lon="7.9955534084485675"><ele>179.66666666666666</ele><time>2026-04-19T08:48:55.001Z</time></trkpt><trkpt lat="44.91312269214966" lon="7.995424200849233"><ele>179.33333333333331</ele><time>2026-04-19T08:48:57.001Z</time></trkpt><trkpt lat="44.91312371096339" lon="7.995318264022017"><ele>179.0</ele><time>2026-04-19T08:48:58.001Z</time></trkpt><trkpt lat="44.913112968833936" lon="7.995222218051149"><ele>179.0</ele><time>2026-04-19T08:48:59.001Z</time></trkpt><trkpt lat="44.913071779341976" lon="7.995112952975137"><ele>179.0</ele><time>2026-04-19T08:49:01.001Z</time></trkpt><trkpt lat="44.91298820010144" lon="7.995010015124333"><ele>179.0</ele><time>2026-04-19T08:49:03.001Z</time></trkpt><trkpt lat="44.913017658360815" lon="7.994915466718643"><ele>179.0</ele><time>2026-04-19T08:49:16Z</time></trkpt><trkpt lat="44.91302819862276" lon="7.994804549561858"><ele>179.0</ele><time>2026-04-19T08:49:20Z</time></trkpt><trkpt lat="44.91305550330996" lon="7.994722165657503"><ele>179.0</ele><time>2026-04-19T08:49:24Z</time></trkpt><trkpt lat="44.91308581673135" lon="7.9946142284865935"><ele>179.0</ele><time>2026-04-19T08:49:26Z</time></trkpt><trkpt lat="44.91299516538634" lon="7.9946281858386765"><ele>179.0</ele><time>2026-04-19T08:49:30Z</time></trkpt><trkpt lat="44.91292597405311" lon="7.994665758813802"><ele>179.0</ele><time>2026-04-19T08:49:31Z</time></trkpt><trkpt lat="44.91284111536567" lon="7.99466305896823"><ele>179.0</ele><time>2026-04-19T08:49:32Z</time></trkpt><trkpt lat="44.91274900437098" lon="7.994705295131661"><ele>179.0</ele><time>2026-04-19T08:49:33Z</time></trkpt><trkpt lat="44.91264679282216" lon="7.99474892740994"><ele>179.39999999999998</ele><time>2026-04-19T08:49:34Z</time></trkpt><trkpt lat="44.91254506711273" lon="7.9947767667024"><ele>179.8</ele><time>2026-04-19T08:49:35Z</time></trkpt><trkpt lat="44.91244972232092" lon="7.994818754675615"><ele>180.2</ele><time>2026-04-19T08:49:36Z</time></trkpt><trkpt lat="44.912365910979645" lon="7.9948550331333275"><ele>180.60000000000002</ele><time>2026-04-19T08:49:37Z</time></trkpt><trkpt lat="44.91227431137084" lon="7.99490412309744"><ele>181.0</ele><time>2026-04-19T08:49:38Z</time></trkpt><trkpt lat="44.912181858918345" lon="7.9949603191015015"><ele>181.5</ele><time>2026-04-19T08:49:39Z</time></trkpt><trkpt lat="44.912102533284695" lon="7.995012622895325"><ele>182.0</ele><time>2026-04-19T08:49:40Z</time></trkpt><trkpt lat="44.912041762780476" lon="7.995064758172052"><ele>182.5</ele><time>2026-04-19T08:49:41Z</time></trkpt><trkpt lat="44.91197629580705" lon="7.995094677500779"><ele>183.0</ele><time>2026-04-19T08:49:42Z</time></trkpt><trkpt lat="44.91188061456429" lon="7.995083879105762"><ele>183.5</ele><time>2026-04-19T08:49:43Z</time></trkpt><trkpt lat="44.91176766987131" lon="7.995086317248708"><ele>184.0</ele><time>2026-04-19T08:49:44Z</time></trkpt><trkpt lat="44.911652888257" lon="7.995117167700743"><ele>184.79999999999998</ele><time>2026-04-19T08:49:45Z</time></trkpt><trkpt lat="44.91155172654554" lon="7.995134159929587"><ele>185.6</ele><time>2026-04-19T08:49:46Z</time></trkpt><trkpt lat="44.911457549395855" lon="7.995170719107657"><ele>186.4</ele><time>2026-04-19T08:49:47Z</time></trkpt><trkpt lat="44.91137599597545" lon="7.995225167538876"><ele>187.2</ele><time>2026-04-19T08:49:48Z</time></trkpt><trkpt lat="44.911282712353994" lon="7.9952658615703545"><ele>188.0</ele><time>2026-04-19T08:49:49Z</time></trkpt><trkpt lat="44.91117005566537" lon="7.995259217666749"><ele>188.0</ele><time>2026-04-19T08:49:51Z</time></trkpt><trkpt lat="44.911067692613344" lon="7.995211247241027"><ele>188.0</ele><time>2026-04-19T08:49:52Z</time></trkpt><trkpt lat="44.91096112196618" lon="7.995190981165498"><ele>188.0</ele><time>2026-04-19T08:49:53Z</time></trkpt><trkpt lat="44.91088283235364" lon="7.995151925201102"><ele>188.0</ele><time>2026-04-19T08:49:54Z</time></trkpt><trkpt lat="44.91077743768566" lon="7.995194215126044"><ele>188.0</ele><time>2026-04-19T08:49:56Z</time></trkpt><trkpt lat="44.91069297801328" lon="7.995169034280362"><ele>189.25</ele><time>2026-04-19T08:49:59Z</time></trkpt><trkpt lat="44.91059792079529" lon="7.995176381428459"><ele>190.5</ele><time>2026-04-19T08:50:04Z</time></trkpt><trkpt lat="44.91051928008139" lon="7.995077321826257"><ele>191.75</ele><time>2026-04-19T08:50:07Z</time></trkpt><trkpt lat="44.91046495473257" lon="7.994928358278989"><ele>193.0</ele><time>2026-04-19T08:50:09Z</time></trkpt><trkpt lat="44.910330113461235" lon="7.994797887821307"><ele>191.33333333333331</ele><time>2026-04-19T08:50:11Z</time></trkpt><trkpt lat="44.91030775131769" lon="7.994697006374445"><ele>189.66666666666666</ele><time>2026-04-19T08:50:15Z</time></trkpt><trkpt lat="44.910276546252184" lon="7.994600475738988"><ele>188.0</ele><time>2026-04-19T08:50:20Z</time></trkpt><trkpt lat="44.9103084804429" lon="7.994505062249025"><ele>186.33333333333331</ele><time>2026-04-19T08:50:22Z</time></trkpt><trkpt lat="44.910282323903246" lon="7.994383007473346"><ele>184.66666666666666</ele><time>2026-04-19T08:50:25Z</time></trkpt><trkpt lat="44.910244604990886" lon="7.994295858488732"><ele>183.0</ele><time>2026-04-19T08:50:28Z</time></trkpt><trkpt lat="44.91017622309719" lon="7.994269266580501"><ele>183.0</ele><time>2026-04-19T08:50:32.001Z</time></trkpt><trkpt lat="44.910116742833985" lon="7.994218742151552"><ele>183.0</ele><time>2026-04-19T08:50:35.001Z</time></trkpt><trkpt lat="44.91008056451922" lon="7.994112281515473"><ele>183.0</ele><time>2026-04-19T08:50:48.001Z</time></trkpt><trkpt lat="44.91007021361279" lon="7.994022257086996"><ele>183.0</ele><time>2026-04-19T08:50:57.001Z</time></trkpt><trkpt lat="44.91001622144208" lon="7.994075832935467"><ele>183.0</ele><time>2026-04-19T08:51:01.001Z</time></trkpt><trkpt lat="44.90990546540103" lon="7.994132830100297"><ele>183.0</ele><time>2026-04-19T08:51:05.001Z</time></trkpt><trkpt lat="44.90982170924992" lon="7.994171113195923"><ele>183.60000000000002</ele><time>2026-04-19T08:51:09.001Z</time></trkpt><trkpt lat="44.909728618510606" lon="7.994159422393549"><ele>184.20000000000002</ele><time>2026-04-19T08:51:14.001Z</time></trkpt><trkpt lat="44.9096647087058" lon="7.994132489290254"><ele>184.8</ele><time>2026-04-19T08:51:17Z</time></trkpt><trkpt lat="44.90959961698575" lon="7.994189067409094"><ele>185.4</ele><time>2026-04-19T08:51:19Z</time></trkpt><trkpt lat="44.909525629032686" lon="7.9941932381960665"><ele>186.0</ele><time>2026-04-19T08:51:21Z</time></trkpt><trkpt lat="44.90938629110236" lon="7.994267489780282"><ele>186.0</ele><time>2026-04-19T08:51:23Z</time></trkpt><trkpt lat="44.90929133715147" lon="7.994288839736618"><ele>186.0</ele><time>2026-04-19T08:51:24Z</time></trkpt><trkpt lat="44.90918517608033" lon="7.9942875382488845"><ele>186.0</ele><time>2026-04-19T08:53:06.001Z</time></trkpt><trkpt lat="44.90912176419529" lon="7.994274046635941"><ele>186.0</ele><time>2026-04-19T08:53:24Z</time></trkpt><trkpt lat="44.90918245264453" lon="7.994198482968561"><ele>186.0</ele><time>2026-04-19T08:53:54Z</time></trkpt><trkpt lat="44.90920594459867" lon="7.994291109789819"><ele>186.0</ele><time>2026-04-19T08:54:17Z</time></trkpt><trkpt lat="44.90913291706713" lon="7.994291787408141"><ele>186.16666666666666</ele><time>2026-04-19T08:54:48.001Z</time></trkpt><trkpt lat="44.90910200117724" lon="7.994386891121238"><ele>186.33333333333334</ele><time>2026-04-19T08:55:14.001Z</time></trkpt><trkpt lat="44.90898645841386" lon="7.994434367591709"><ele>186.5</ele><time>2026-04-19T08:55:22.001Z</time></trkpt><trkpt lat="44.9089132237249" lon="7.994393727515456"><ele>186.66666666666669</ele><time>2026-04-19T08:55:25.001Z</time></trkpt><trkpt lat="44.90886638385401" lon="7.994486987442761"><ele>186.83333333333334</ele><time>2026-04-19T08:55:28Z</time></trkpt><trkpt lat="44.908908251749956" lon="7.994584011094788"><ele>187.0</ele><time>2026-04-19T08:55:31Z</time></trkpt><trkpt lat="44.908902748223746" lon="7.994695731689265"><ele>187.0</ele><time>2026-04-19T08:55:36Z</time></trkpt><trkpt lat="44.90884900053189" lon="7.994745121176735"><ele>187.0</ele><time>2026-04-19T08:55:40Z</time></trkpt><trkpt lat="44.90879110731247" lon="7.99469917272432"><ele>187.0</ele><time>2026-04-19T08:55:52Z</time></trkpt><trkpt lat="44.90872489900287" lon="7.994667780796214"><ele>187.0</ele><time>2026-04-19T08:55:57Z</time></trkpt><trkpt lat="44.908658569942034" lon="7.994596404691249"><ele>187.0</ele><time>2026-04-19T08:56:03Z</time></trkpt><trkpt lat="44.90857742473302" lon="7.99462825409001"><ele>187.0</ele><time>2026-04-19T08:56:05Z</time></trkpt><trkpt lat="44.90847323694295" lon="7.994636191232897"><ele>187.0</ele><time>2026-04-19T08:56:07Z</time></trkpt><trkpt lat="44.90841938902994" lon="7.994497206184522"><ele>187.0</ele><time>2026-04-19T08:56:09Z</time></trkpt><trkpt lat="44.908415210576" lon="7.994395397482692"><ele>187.0</ele><time>2026-04-19T08:56:10Z</time></trkpt><trkpt lat="44.90841048477668" lon="7.994304482735169"><ele>187.0</ele><time>2026-04-19T08:56:11Z</time></trkpt><trkpt lat="44.90842325547491" lon="7.994207691946001"><ele>187.0</ele><time>2026-04-19T08:56:15Z</time></trkpt><trkpt lat="44.90843696461531" lon="7.994069154316386"><ele>187.0</ele><time>2026-04-19T08:56:19Z</time></trkpt><trkpt lat="44.9084397812004" lon="7.993942800766628"><ele>189.66666666666669</ele><time>2026-04-19T08:56:22Z</time></trkpt><trkpt lat="44.9083621320938" lon="7.993888657406824"><ele>192.33333333333334</ele><time>2026-04-19T08:56:25Z</time></trkpt><trkpt lat="44.9081172325331" lon="7.99366922787736"><ele>195.0</ele><time>2026-04-19T08:56:28Z</time></trkpt><trkpt lat="44.90809169500096" lon="7.993563941776806"><ele>195.0</ele><time>2026-04-19T08:56:29Z</time></trkpt><trkpt lat="44.90803862135451" lon="7.993491764483679"><ele>195.0</ele><time>2026-04-19T08:56:30Z</time></trkpt><trkpt lat="44.90799601853306" lon="7.993411142081184"><ele>195.0</ele><time>2026-04-19T08:56:31Z</time></trkpt><trkpt lat="44.908018181372434" lon="7.993290286845981"><ele>195.0</ele><time>2026-04-19T08:56:32Z</time></trkpt><trkpt lat="44.90798719066427" lon="7.993186298519854"><ele>195.0</ele><time>2026-04-19T08:56:33Z</time></trkpt><trkpt lat="44.90792094459263" lon="7.993115902182817"><ele>195.0</ele><time>2026-04-19T08:56:34Z</time></trkpt><trkpt lat="44.907865326371116" lon="7.993030084836324"><ele>193.8</ele><time>2026-04-19T08:56:35Z</time></trkpt><trkpt lat="44.907838804625534" lon="7.992885004074464"><ele>192.6</ele><time>2026-04-19T08:56:36Z</time></trkpt><trkpt lat="44.90781212841987" lon="7.992710243298778"><ele>191.39999999999998</ele><time>2026-04-19T08:56:38Z</time></trkpt><trkpt lat="44.90777438402975" lon="7.992622354084979"><ele>190.2</ele><time>2026-04-19T08:56:39Z</time></trkpt><trkpt lat="44.90769755402837" lon="7.992542778696088"><ele>189.0</ele><time>2026-04-19T08:56:40Z</time></trkpt><trkpt lat="44.907649280412215" lon="7.992420095836807"><ele>188.83333333333334</ele><time>2026-04-19T08:56:41Z</time></trkpt><trkpt lat="44.90760073169522" lon="7.992318926040933"><ele>188.66666666666666</ele><time>2026-04-19T08:56:42Z</time></trkpt><trkpt lat="44.90752036355309" lon="7.992235868255966"><ele>188.5</ele><time>2026-04-19T08:56:43Z</time></trkpt><trkpt lat="44.907462973974496" lon="7.992153492344573"><ele>188.33333333333331</ele><time>2026-04-19T08:56:44Z</time></trkpt><trkpt lat="44.9074237721644" lon="7.992062294213929"><ele>188.16666666666666</ele><time>2026-04-19T08:56:45Z</time></trkpt><trkpt lat="44.90737915508532" lon="7.991972811287928"><ele>188.0</ele><time>2026-04-19T08:56:46Z</time></trkpt><trkpt lat="44.907337259872335" lon="7.991879077040718"><ele>188.0</ele><time>2026-04-19T08:56:47.001Z</time></trkpt><trkpt lat="44.907282367091526" lon="7.991792364836913"><ele>188.0</ele><time>2026-04-19T08:56:48.001Z</time></trkpt><trkpt lat="44.907219999021606" lon="7.991758806086163"><ele>188.0</ele><time>2026-04-19T08:56:49.001Z</time></trkpt><trkpt lat="44.907150628444505" lon="7.991752949217872"><ele>188.0</ele><time>2026-04-19T08:56:51.001Z</time></trkpt><trkpt lat="44.90704239867536" lon="7.991810100132059"><ele>188.0</ele><time>2026-04-19T08:56:53.001Z</time></trkpt><trkpt lat="44.906966168412836" lon="7.991860452925099"><ele>188.0</ele><time>2026-04-19T08:56:54.001Z</time></trkpt><trkpt lat="44.90688378017045" lon="7.9918989082662435"><ele>188.0</ele><time>2026-04-19T08:56:55.001Z</time></trkpt><trkpt lat="44.9068146414262" lon="7.991936702009777"><ele>188.0</ele><time>2026-04-19T08:56:56.001Z</time></trkpt><trkpt lat="44.90671973858745" lon="7.991917862629143"><ele>188.0</ele><time>2026-04-19T08:56:57.001Z</time></trkpt><trkpt lat="44.906622491894026" lon="7.991879318580183"><ele>188.0</ele><time>2026-04-19T08:56:58.001Z</time></trkpt><trkpt lat="44.90652102597741" lon="7.9918652067123075"><ele>188.0</ele><time>2026-04-19T08:56:59.001Z</time></trkpt><trkpt lat="44.906442502551876" lon="7.991844288448237"><ele>188.8</ele><time>2026-04-19T08:57:00.001Z</time></trkpt><trkpt lat="44.90635442054835" lon="7.991735694620313"><ele>189.60000000000002</ele><time>2026-04-19T08:57:02.001Z</time></trkpt><trkpt lat="44.90632844555592" lon="7.991635946085669"><ele>190.39999999999998</ele><time>2026-04-19T08:57:03.001Z</time></trkpt><trkpt lat="44.906260478636966" lon="7.991529889678426"><ele>191.2</ele><time>2026-04-19T08:57:04.001Z</time></trkpt><trkpt lat="44.90621787746977" lon="7.99141585506841"><ele>192.0</ele><time>2026-04-19T08:57:05.001Z</time></trkpt><trkpt lat="44.906129033159075" lon="7.991445482315816"><ele>192.0</ele><time>2026-04-19T08:57:09.001Z</time></trkpt><trkpt lat="44.90611944763744" lon="7.991615271765756"><ele>192.0</ele><time>2026-04-19T08:57:11.001Z</time></trkpt><trkpt lat="44.906099878784154" lon="7.991701766506293"><ele>192.0</ele><time>2026-04-19T08:57:12.001Z</time></trkpt><trkpt lat="44.90608546535802" lon="7.991790966559454"><ele>192.0</ele><time>2026-04-19T08:57:13.001Z</time></trkpt><trkpt lat="44.90607702884937" lon="7.991884275778673"><ele>192.0</ele><time>2026-04-19T08:57:14.001Z</time></trkpt><trkpt lat="44.90606994931324" lon="7.992031589037769"><ele>192.0</ele><time>2026-04-19T08:57:16.001Z</time></trkpt><trkpt lat="44.906067864539104" lon="7.992198135272476"><ele>192.0</ele><time>2026-04-19T08:57:18.001Z</time></trkpt><trkpt lat="44.906052828123016" lon="7.992312340634633"><ele>192.0</ele><time>2026-04-19T08:57:19.001Z</time></trkpt><trkpt lat="44.90605940534926" lon="7.992431850851291"><ele>192.0</ele><time>2026-04-19T08:57:20.001Z</time></trkpt><trkpt lat="44.906048621612584" lon="7.992539580136543"><ele>192.0</ele><time>2026-04-19T08:57:21.001Z</time></trkpt><trkpt lat="44.906053270732194" lon="7.992652530751133"><ele>192.0</ele><time>2026-04-19T08:57:22.001Z</time></trkpt><trkpt lat="44.90607721359133" lon="7.992740487672314"><ele>192.0</ele><time>2026-04-19T08:57:23.001Z</time></trkpt><trkpt lat="44.90612399947281" lon="7.99283588844148"><ele>195.8</ele><time>2026-04-19T08:57:25.001Z</time></trkpt><trkpt lat="44.90619847692151" lon="7.992942215708382"><ele>199.6</ele><time>2026-04-19T08:57:29.001Z</time></trkpt><trkpt lat="44.90628930116007" lon="7.993023132346175"><ele>203.4</ele><time>2026-04-19T08:57:32.001Z</time></trkpt><trkpt lat="44.90639108806245" lon="7.993116616374287"><ele>207.20000000000002</ele><time>2026-04-19T08:57:34Z</time></trkpt><trkpt lat="44.90647700096753" lon="7.99321578154795"><ele>211.0</ele><time>2026-04-19T08:57:36Z</time></trkpt><trkpt lat="44.90656549521863" lon="7.993219954407782"><ele>211.0</ele><time>2026-04-19T08:57:37Z</time></trkpt><trkpt lat="44.906644989455735" lon="7.993248553390726"><ele>211.0</ele><time>2026-04-19T08:57:38Z</time></trkpt><trkpt lat="44.906742846237854" lon="7.993348946118061"><ele>211.0</ele><time>2026-04-19T08:57:40Z</time></trkpt><trkpt lat="44.906806973767736" lon="7.993426164319271"><ele>211.0</ele><time>2026-04-19T08:57:41Z</time></trkpt><trkpt lat="44.90687296292564" lon="7.993512025064012"><ele>211.0</ele><time>2026-04-19T08:57:42Z</time></trkpt><trkpt lat="44.90694464771683" lon="7.9935960783774345"><ele>211.16666666666666</ele><time>2026-04-19T08:57:44Z</time></trkpt><trkpt lat="44.907010177530914" lon="7.9935988216124345"><ele>211.33333333333331</ele><time>2026-04-19T08:57:48Z</time></trkpt><trkpt lat="44.907089166811296" lon="7.9936425431284635"><ele>211.5</ele><time>2026-04-19T08:57:51Z</time></trkpt><trkpt lat="44.907097858969806" lon="7.993732492453973"><ele>211.66666666666669</ele><time>2026-04-19T08:58:13Z</time></trkpt><trkpt lat="44.907146375101526" lon="7.993800671188157"><ele>211.83333333333334</ele><time>2026-04-19T08:58:15Z</time></trkpt><trkpt lat="44.90715940637944" lon="7.99390416001082"><ele>212.0</ele><time>2026-04-19T08:58:17Z</time></trkpt><trkpt lat="44.907131005152465" lon="7.994047779737376"><ele>213.39999999999998</ele><time>2026-04-19T08:58:19Z</time></trkpt><trkpt lat="44.90707548759346" lon="7.994172255312697"><ele>214.79999999999998</ele><time>2026-04-19T08:58:21Z</time></trkpt><trkpt lat="44.9070377216485" lon="7.994306185179684"><ele>216.2</ele><time>2026-04-19T08:58:23Z</time></trkpt><trkpt lat="44.90703765981214" lon="7.9944782123021065"><ele>217.6</ele><time>2026-04-19T08:58:25Z</time></trkpt><trkpt lat="44.90706626883113" lon="7.994562403690326"><ele>219.0</ele><time>2026-04-19T08:58:26Z</time></trkpt><trkpt lat="44.907102683166464" lon="7.9947254837431"><ele>219.0</ele><time>2026-04-19T08:58:28Z</time></trkpt><trkpt lat="44.90715372686721" lon="7.994895582755936"><ele>218.99999999999997</ele><time>2026-04-19T08:58:30Z</time></trkpt><trkpt lat="44.90716992292794" lon="7.995016898821057"><ele>218.99999999999997</ele><time>2026-04-19T08:58:31Z</time></trkpt><trkpt lat="44.90717615896154" lon="7.995137803040299"><ele>219.0</ele><time>2026-04-19T08:58:32Z</time></trkpt><trkpt lat="44.9071642774055" lon="7.995271209602685"><ele>219.0</ele><time>2026-04-19T08:58:33Z</time></trkpt><trkpt lat="44.907177714725414" lon="7.995391192995418"><ele>219.79999999999998</ele><time>2026-04-19T08:58:34Z</time></trkpt><trkpt lat="44.907221939409915" lon="7.995513453461804"><ele>220.59999999999997</ele><time>2026-04-19T08:58:35Z</time></trkpt><trkpt lat="44.90725422072776" lon="7.995593340660927"><ele>221.4</ele><time>2026-04-19T08:58:36Z</time></trkpt><trkpt lat="44.90722484786399" lon="7.995722373107435"><ele>222.2</ele><time>2026-04-19T08:58:38Z</time></trkpt><trkpt lat="44.90714496819507" lon="7.995757094903467"><ele>223.0</ele><time>2026-04-19T08:58:40Z</time></trkpt><trkpt lat="44.90705706279022" lon="7.995662166801075"><ele>222.99999999999997</ele><time>2026-04-19T08:58:42Z</time></trkpt><trkpt lat="44.90693863651682" lon="7.995578905174257"><ele>223.0</ele><time>2026-04-19T08:58:44Z</time></trkpt><trkpt lat="44.90686118075317" lon="7.995507489615665"><ele>223.0</ele><time>2026-04-19T08:58:45Z</time></trkpt><trkpt lat="44.906802338516876" lon="7.995438266232442"><ele>223.0</ele><time>2026-04-19T08:58:46Z</time></trkpt><trkpt lat="44.906760307903554" lon="7.995371579245865"><ele>222.99999999999997</ele><time>2026-04-19T08:58:47Z</time></trkpt><trkpt lat="44.90673989840122" lon="7.995277845144644"><ele>223.0</ele><time>2026-04-19T08:58:48Z</time></trkpt><trkpt lat="44.90672447438008" lon="7.995162737737392"><ele>225.83333333333331</ele><time>2026-04-19T08:58:49Z</time></trkpt><trkpt lat="44.90669015425171" lon="7.995047964339252"><ele>228.66666666666666</ele><time>2026-04-19T08:58:50Z</time></trkpt><trkpt lat="44.9066548870774" lon="7.99492690793452"><ele>231.5</ele><time>2026-04-19T08:58:51Z</time></trkpt><trkpt lat="44.9066315095282" lon="7.99480417270556"><ele>234.33333333333331</ele><time>2026-04-19T08:58:52Z</time></trkpt><trkpt lat="44.90659930155777" lon="7.994716067580787"><ele>237.16666666666666</ele><time>2026-04-19T08:58:53Z</time></trkpt><trkpt lat="44.906502002250335" lon="7.994692255802348"><ele>240.0</ele><time>2026-04-19T08:58:55Z</time></trkpt><trkpt lat="44.90642621207871" lon="7.994794917197806"><ele>240.0</ele><time>2026-04-19T08:58:56Z</time></trkpt><trkpt lat="44.90639386329711" lon="7.994985975422671"><ele>240.0</ele><time>2026-04-19T08:58:58Z</time></trkpt><trkpt lat="44.90636778881797" lon="7.995109293998826"><ele>240.0</ele><time>2026-04-19T08:58:59Z</time></trkpt><trkpt lat="44.90634049279002" lon="7.995222418783738"><ele>240.0</ele><time>2026-04-19T08:59:00Z</time></trkpt><trkpt lat="44.90630764541386" lon="7.995331735804503"><ele>240.0</ele><time>2026-04-19T08:59:01Z</time></trkpt><trkpt lat="44.90626584965486" lon="7.995424383395277"><ele>241.4</ele><time>2026-04-19T08:59:02Z</time></trkpt><trkpt lat="44.906162607886245" lon="7.995523529906894"><ele>242.8</ele><time>2026-04-19T08:59:04Z</time></trkpt><trkpt lat="44.90609015366478" lon="7.995558737618383"><ele>244.2</ele><time>2026-04-19T08:59:05Z</time></trkpt><trkpt lat="44.90599999049151" lon="7.9955856959359295"><ele>245.6</ele><time>2026-04-19T08:59:06Z</time></trkpt><trkpt lat="44.90590972603056" lon="7.995614157915248"><ele>247.0</ele><time>2026-04-19T08:59:07Z</time></trkpt><trkpt lat="44.90581243554014" lon="7.995659531735852"><ele>247.0</ele><time>2026-04-19T08:59:08Z</time></trkpt><trkpt lat="44.90571437712542" lon="7.99571384702259"><ele>247.0</ele><time>2026-04-19T08:59:09Z</time></trkpt><trkpt lat="44.9056462984481" lon="7.995768679649173"><ele>247.0</ele><time>2026-04-19T08:59:10Z</time></trkpt><trkpt lat="44.90556637365121" lon="7.995930024797311"><ele>247.0</ele><time>2026-04-19T08:59:12Z</time></trkpt><trkpt lat="44.90553831705938" lon="7.996076602002797"><ele>247.0</ele><time>2026-04-19T08:59:13Z</time></trkpt><trkpt lat="44.90549534710692" lon="7.996196535625671"><ele>249.16666666666666</ele><time>2026-04-19T08:59:14Z</time></trkpt><trkpt lat="44.90545250550876" lon="7.996311203473376"><ele>251.33333333333331</ele><time>2026-04-19T08:59:15Z</time></trkpt><trkpt lat="44.905413029593944" lon="7.996403050109859"><ele>253.5</ele><time>2026-04-19T08:59:16Z</time></trkpt><trkpt lat="44.905324182846385" lon="7.996485780011425"><ele>255.66666666666669</ele><time>2026-04-19T08:59:17Z</time></trkpt><trkpt lat="44.905270251008965" lon="7.996557716070043"><ele>257.83333333333337</ele><time>2026-04-19T08:59:18Z</time></trkpt><trkpt lat="44.905203170555154" lon="7.996603416348174"><ele>260.0</ele><time>2026-04-19T08:59:19Z</time></trkpt><trkpt lat="44.9051268997104" lon="7.996624959736917"><ele>259.4</ele><time>2026-04-19T08:59:20Z</time></trkpt><trkpt lat="44.90503472266904" lon="7.996641032133398"><ele>258.8</ele><time>2026-04-19T08:59:21Z</time></trkpt><trkpt lat="44.90494768687193" lon="7.9966754574422785"><ele>258.2</ele><time>2026-04-19T08:59:22Z</time></trkpt><trkpt lat="44.904854804531546" lon="7.996720677174484"><ele>257.6</ele><time>2026-04-19T08:59:23Z</time></trkpt><trkpt lat="44.90477572932854" lon="7.996744172341266"><ele>257.0</ele><time>2026-04-19T08:59:24.001Z</time></trkpt><trkpt lat="44.90468783337757" lon="7.9967546125758275"><ele>257.0</ele><time>2026-04-19T08:59:26.001Z</time></trkpt><trkpt lat="44.90461672775065" lon="7.996743485375172"><ele>257.0</ele><time>2026-04-19T08:59:28.001Z</time></trkpt><trkpt lat="44.904539838202076" lon="7.996692095529342"><ele>257.0</ele><time>2026-04-19T08:59:29.001Z</time></trkpt><trkpt lat="44.90445785987627" lon="7.996621103273753"><ele>257.0</ele><time>2026-04-19T08:59:30.001Z</time></trkpt><trkpt lat="44.90439004604547" lon="7.996532361927967"><ele>257.0</ele><time>2026-04-19T08:59:31.001Z</time></trkpt><trkpt lat="44.904287565009724" lon="7.9964602682141654"><ele>256.0</ele><time>2026-04-19T08:59:32.001Z</time></trkpt><trkpt lat="44.90421341566041" lon="7.996395979637657"><ele>255.0</ele><time>2026-04-19T08:59:33.001Z</time></trkpt><trkpt lat="44.90414320207288" lon="7.996333272202497"><ele>254.0</ele><time>2026-04-19T08:59:34.001Z</time></trkpt><trkpt lat="44.90407580363258" lon="7.996276562053723"><ele>253.0</ele><time>2026-04-19T08:59:35.001Z</time></trkpt><trkpt lat="44.90400654466795" lon="7.9962130331358745"><ele>252.00000000000003</ele><time>2026-04-19T08:59:36.001Z</time></trkpt><trkpt lat="44.90393712425259" lon="7.996145876671601"><ele>251.0</ele><time>2026-04-19T08:59:37.001Z</time></trkpt><trkpt lat="44.903864039817876" lon="7.99606012821719"><ele>251.0</ele><time>2026-04-19T08:59:38.001Z</time></trkpt><trkpt lat="44.90378579823772" lon="7.995976349361027"><ele>251.00000000000003</ele><time>2026-04-19T08:59:39Z</time></trkpt><trkpt lat="44.90370516934075" lon="7.995890786032706"><ele>251.00000000000003</ele><time>2026-04-19T08:59:40Z</time></trkpt><trkpt lat="44.90362252526127" lon="7.995801075811198"><ele>251.0</ele><time>2026-04-19T08:59:41Z</time></trkpt><trkpt lat="44.9035331998529" lon="7.995725555988192"><ele>251.0</ele><time>2026-04-19T08:59:42Z</time></trkpt><trkpt lat="44.90343717723022" lon="7.9956585366257436"><ele>251.0</ele><time>2026-04-19T08:59:43Z</time></trkpt><trkpt lat="44.90332841957609" lon="7.995603077750251"><ele>251.0</ele><time>2026-04-19T08:59:44Z</time></trkpt><trkpt lat="44.90321771375945" lon="7.9955614271885835"><ele>251.0</ele><time>2026-04-19T08:59:45Z</time></trkpt><trkpt lat="44.903102809794355" lon="7.995538500989065"><ele>251.0</ele><time>2026-04-19T08:59:46Z</time></trkpt><trkpt lat="44.90298855320868" lon="7.995526962611778"><ele>251.0</ele><time>2026-04-19T08:59:47Z</time></trkpt><trkpt lat="44.902871843903405" lon="7.995505485695096"><ele>251.00000000000003</ele><time>2026-04-19T08:59:48Z</time></trkpt><trkpt lat="44.902756563360214" lon="7.995503262163787"><ele>251.00000000000003</ele><time>2026-04-19T08:59:49Z</time></trkpt><trkpt lat="44.90264969732139" lon="7.995516174495989"><ele>251.0</ele><time>2026-04-19T08:59:50Z</time></trkpt><trkpt lat="44.902555341009034" lon="7.995526789794914"><ele>251.0</ele><time>2026-04-19T08:59:51Z</time></trkpt><trkpt lat="44.902471088025685" lon="7.995523081433093"><ele>251.8</ele><time>2026-04-19T08:59:52Z</time></trkpt><trkpt lat="44.90239502028814" lon="7.995512912588815"><ele>252.60000000000002</ele><time>2026-04-19T08:59:53Z</time></trkpt><trkpt lat="44.902315544881475" lon="7.995468481553966"><ele>253.4</ele><time>2026-04-19T08:59:54Z</time></trkpt><trkpt lat="44.902234927498085" lon="7.995381287338108"><ele>254.2</ele><time>2026-04-19T08:59:55Z</time></trkpt><trkpt lat="44.90216218164808" lon="7.995250840492022"><ele>255.0</ele><time>2026-04-19T08:59:56Z</time></trkpt><trkpt lat="44.90207590338995" lon="7.995112372027453"><ele>255.0</ele><time>2026-04-19T08:59:57Z</time></trkpt><trkpt lat="44.90197048420028" lon="7.995004328719897"><ele>255.0</ele><time>2026-04-19T08:59:58Z</time></trkpt><trkpt lat="44.90184046212445" lon="7.994923623556546"><ele>255.0</ele><time>2026-04-19T08:59:59Z</time></trkpt><trkpt lat="44.901720909303485" lon="7.994844189083172"><ele>255.0</ele><time>2026-04-19T09:00:00Z</time></trkpt><trkpt lat="44.90162300938436" lon="7.994751626282687"><ele>255.8</ele><time>2026-04-19T09:00:01Z</time></trkpt><trkpt lat="44.901540068280504" lon="7.99465491703679"><ele>256.6</ele><time>2026-04-19T09:00:02Z</time></trkpt><trkpt lat="44.9014623684828" lon="7.994545863103406"><ele>257.4</ele><time>2026-04-19T09:00:03Z</time></trkpt><trkpt lat="44.901393167388655" lon="7.9944263321740765"><ele>258.2</ele><time>2026-04-19T09:00:04Z</time></trkpt><trkpt lat="44.9013333797958" lon="7.994296795533264"><ele>259.0</ele><time>2026-04-19T09:00:05Z</time></trkpt><trkpt lat="44.90128155247779" lon="7.994155021916568"><ele>259.0</ele><time>2026-04-19T09:00:06Z</time></trkpt><trkpt lat="44.9012328102049" lon="7.994005804627234"><ele>259.0</ele><time>2026-04-19T09:00:07Z</time></trkpt><trkpt lat="44.90118242667933" lon="7.993849718743488"><ele>259.0</ele><time>2026-04-19T09:00:08Z</time></trkpt><trkpt lat="44.901130026172666" lon="7.9936960038025475"><ele>259.0</ele><time>2026-04-19T09:00:09Z</time></trkpt><trkpt lat="44.90108134621943" lon="7.993540594016235"><ele>259.0</ele><time>2026-04-19T09:00:10Z</time></trkpt><trkpt lat="44.901033458472206" lon="7.993406471770339"><ele>259.0</ele><time>2026-04-19T09:00:11Z</time></trkpt><trkpt lat="44.900978239236416" lon="7.9932896156074875"><ele>259.0</ele><time>2026-04-19T09:00:12Z</time></trkpt><trkpt lat="44.90092053524576" lon="7.993180219153918"><ele>259.0</ele><time>2026-04-19T09:00:13Z</time></trkpt><trkpt lat="44.900852386673" lon="7.993072374015076"><ele>259.0</ele><time>2026-04-19T09:00:14Z</time></trkpt><trkpt lat="44.90081087040653" lon="7.992938249157924"><ele>259.2</ele><time>2026-04-19T09:00:15Z</time></trkpt><trkpt lat="44.900773573649154" lon="7.99281164110236"><ele>259.4</ele><time>2026-04-19T09:00:16Z</time></trkpt><trkpt lat="44.90073232837515" lon="7.992673088444898"><ele>259.6</ele><time>2026-04-19T09:00:17Z</time></trkpt><trkpt lat="44.90066107346923" lon="7.992523450968787"><ele>259.8</ele><time>2026-04-19T09:00:18Z</time></trkpt><trkpt lat="44.90059397632072" lon="7.992387562841858"><ele>260.0</ele><time>2026-04-19T09:00:19Z</time></trkpt><trkpt lat="44.90054558197495" lon="7.992262826294744"><ele>260.0</ele><time>2026-04-19T09:00:20Z</time></trkpt><trkpt lat="44.900479784058554" lon="7.9921470721808685"><ele>260.0</ele><time>2026-04-19T09:00:21Z</time></trkpt><trkpt lat="44.900413302689614" lon="7.992036014572005"><ele>260.0</ele><time>2026-04-19T09:00:22Z</time></trkpt><trkpt lat="44.90035499160033" lon="7.991933605496569"><ele>260.0</ele><time>2026-04-19T09:00:23Z</time></trkpt><trkpt lat="44.90031639921635" lon="7.991826030613677"><ele>260.0</ele><time>2026-04-19T09:00:24Z</time></trkpt><trkpt lat="44.90029328527186" lon="7.991709453962306"><ele>258.6666666666667</ele><time>2026-04-19T09:00:25Z</time></trkpt><trkpt lat="44.90027821826338" lon="7.99159634658505"><ele>257.33333333333337</ele><time>2026-04-19T09:00:26Z</time></trkpt><trkpt lat="44.90024686443282" lon="7.991489368474352"><ele>256.0</ele><time>2026-04-19T09:00:27Z</time></trkpt><trkpt lat="44.90020589877687" lon="7.991395682496882"><ele>254.66666666666669</ele><time>2026-04-19T09:00:28Z</time></trkpt><trkpt lat="44.90016447923323" lon="7.991315601149678"><ele>253.33333333333334</ele><time>2026-04-19T09:00:30Z</time></trkpt><trkpt lat="44.90009693168717" lon="7.991221551781489"><ele>252.0</ele><time>2026-04-19T09:01:35.001Z</time></trkpt><trkpt lat="44.90003386645042" lon="7.991129307088424"><ele>252.5</ele><time>2026-04-19T09:01:36.001Z</time></trkpt><trkpt lat="44.89995239960153" lon="7.991022048946716"><ele>253.0</ele><time>2026-04-19T09:01:37.001Z</time></trkpt><trkpt lat="44.89986976743508" lon="7.990908557674344"><ele>253.5</ele><time>2026-04-19T09:01:38.001Z</time></trkpt><trkpt lat="44.89977621577223" lon="7.990767789053782"><ele>254.0</ele><time>2026-04-19T09:01:39.001Z</time></trkpt><trkpt lat="44.89968694219093" lon="7.990590778391354"><ele>254.0</ele><time>2026-04-19T09:01:40.001Z</time></trkpt><trkpt lat="44.89960513507824" lon="7.990405477691349"><ele>254.0</ele><time>2026-04-19T09:01:41.001Z</time></trkpt><trkpt lat="44.899518743726674" lon="7.990215691459866"><ele>254.0</ele><time>2026-04-19T09:01:42.001Z</time></trkpt><trkpt lat="44.89941953039336" lon="7.990037650105193"><ele>253.0</ele><time>2026-04-19T09:01:43.001Z</time></trkpt><trkpt lat="44.89930960683968" lon="7.989862704994641"><ele>252.0</ele><time>2026-04-19T09:01:44.001Z</time></trkpt><trkpt lat="44.899224078337355" lon="7.989703050830564"><ele>251.0</ele><time>2026-04-19T09:01:45Z</time></trkpt><trkpt lat="44.899153262137" lon="7.989530375932373"><ele>250.0</ele><time>2026-04-19T09:01:46Z</time></trkpt><trkpt lat="44.89909188971174" lon="7.989353995157008"><ele>250.0</ele><time>2026-04-19T09:01:47Z</time></trkpt><trkpt lat="44.89903907739451" lon="7.989192305497704"><ele>250.0</ele><time>2026-04-19T09:01:48Z</time></trkpt><trkpt lat="44.89900351217943" lon="7.989028717856404"><ele>250.0</ele><time>2026-04-19T09:01:49Z</time></trkpt><trkpt lat="44.89897849735197" lon="7.988879698095617"><ele>250.0</ele><time>2026-04-19T09:01:50Z</time></trkpt><trkpt lat="44.898944794563434" lon="7.988774699167711"><ele>250.0</ele><time>2026-04-19T09:01:51Z</time></trkpt><trkpt lat="44.89887453818685" lon="7.988662220215241"><ele>250.0</ele><time>2026-04-19T09:01:52Z</time></trkpt><trkpt lat="44.89877623798461" lon="7.988553581758444"><ele>250.0</ele><time>2026-04-19T09:01:53Z</time></trkpt><trkpt lat="44.898660217753815" lon="7.988449440387346"><ele>250.0</ele><time>2026-04-19T09:01:54Z</time></trkpt><trkpt lat="44.898535913732424" lon="7.988332717861174"><ele>250.0</ele><time>2026-04-19T09:01:55Z</time></trkpt><trkpt lat="44.89840847866172" lon="7.988211130636219"><ele>251.0</ele><time>2026-04-19T09:01:56Z</time></trkpt><trkpt lat="44.89827962129546" lon="7.988087616196761"><ele>252.0</ele><time>2026-04-19T09:01:57Z</time></trkpt><trkpt lat="44.89817111878031" lon="7.987981058688571"><ele>253.0</ele><time>2026-04-19T09:01:58Z</time></trkpt><trkpt lat="44.89805821093137" lon="7.987892992275906"><ele>254.0</ele><time>2026-04-19T09:01:59Z</time></trkpt><trkpt lat="44.89793118879664" lon="7.98781147358099"><ele>254.0</ele><time>2026-04-19T09:02:00Z</time></trkpt><trkpt lat="44.89779437286789" lon="7.987748202609148"><ele>253.99999999999997</ele><time>2026-04-19T09:02:01Z</time></trkpt><trkpt lat="44.89769208399818" lon="7.98768222921041"><ele>253.99999999999997</ele><time>2026-04-19T09:02:02Z</time></trkpt><trkpt lat="44.89760307293247" lon="7.9876319679328995"><ele>254.0</ele><time>2026-04-19T09:02:03Z</time></trkpt><trkpt lat="44.89753328546967" lon="7.987602002345857"><ele>254.0</ele><time>2026-04-19T09:02:04Z</time></trkpt><trkpt lat="44.89747808117643" lon="7.987545137937528"><ele>253.5</ele><time>2026-04-19T09:02:06Z</time></trkpt><trkpt lat="44.89748082830804" lon="7.987392194977316"><ele>253.0</ele><time>2026-04-19T09:02:12Z</time></trkpt><trkpt lat="44.89751759727671" lon="7.987256651342857"><ele>252.5</ele><time>2026-04-19T09:02:13Z</time></trkpt><trkpt lat="44.897539853623954" lon="7.987088735450541"><ele>252.0</ele><time>2026-04-19T09:02:14Z</time></trkpt><trkpt lat="44.89754090322835" lon="7.986892836322598"><ele>250.5</ele><time>2026-04-19T09:02:15Z</time></trkpt><trkpt lat="44.89752917658416" lon="7.986674260485635"><ele>249.0</ele><time>2026-04-19T09:02:16Z</time></trkpt><trkpt lat="44.89752119375564" lon="7.986480179430502"><ele>247.5</ele><time>2026-04-19T09:02:17Z</time></trkpt><trkpt lat="44.89753193625571" lon="7.9862929533304055"><ele>246.0</ele><time>2026-04-19T09:02:18Z</time></trkpt><trkpt lat="44.8975584502994" lon="7.986108002834968"><ele>246.0</ele><time>2026-04-19T09:02:19Z</time></trkpt><trkpt lat="44.89757510876222" lon="7.985930377702302"><ele>246.0</ele><time>2026-04-19T09:02:20Z</time></trkpt><trkpt lat="44.8975770615778" lon="7.985781813758391"><ele>246.0</ele><time>2026-04-19T09:02:21Z</time></trkpt><trkpt lat="44.897549429368" lon="7.985619770460027"><ele>246.0</ele><time>2026-04-19T09:02:22Z</time></trkpt><trkpt lat="44.89752483944023" lon="7.985448229231328"><ele>244.4</ele><time>2026-04-19T09:02:23Z</time></trkpt><trkpt lat="44.89750721713554" lon="7.98532170701621"><ele>242.8</ele><time>2026-04-19T09:02:24Z</time></trkpt><trkpt lat="44.897481428633135" lon="7.985231294852318"><ele>241.20000000000002</ele><time>2026-04-19T09:02:25Z</time></trkpt><trkpt lat="44.89736359660078" lon="7.985150783115375"><ele>239.60000000000002</ele><time>2026-04-19T09:02:27Z</time></trkpt><trkpt lat="44.89726194865783" lon="7.985171681845489"><ele>238.0</ele><time>2026-04-19T09:02:28Z</time></trkpt><trkpt lat="44.89713620842708" lon="7.985214005108368"><ele>238.0</ele><time>2026-04-19T09:02:29Z</time></trkpt><trkpt lat="44.89700347306096" lon="7.985242869704279"><ele>238.0</ele><time>2026-04-19T09:02:30Z</time></trkpt><trkpt lat="44.89684415241502" lon="7.985275304948665"><ele>238.0</ele><time>2026-04-19T09:02:31Z</time></trkpt><trkpt lat="44.896690355046985" lon="7.9853123622903945"><ele>236.0</ele><time>2026-04-19T09:02:32Z</time></trkpt><trkpt lat="44.896530252950896" lon="7.985340919391536"><ele>234.0</ele><time>2026-04-19T09:02:33Z</time></trkpt><trkpt lat="44.896399180805396" lon="7.9853738853540195"><ele>232.0</ele><time>2026-04-19T09:02:34Z</time></trkpt><trkpt lat="44.89626938496091" lon="7.985372360679357"><ele>230.0</ele><time>2026-04-19T09:02:35Z</time></trkpt><trkpt lat="44.896153933409536" lon="7.985312565132143"><ele>230.00000000000003</ele><time>2026-04-19T09:02:36Z</time></trkpt><trkpt lat="44.896049804049284" lon="7.9852903419711305"><ele>230.0</ele><time>2026-04-19T09:02:37Z</time></trkpt><trkpt lat="44.895962537198955" lon="7.9852414786683505"><ele>230.0</ele><time>2026-04-19T09:02:38Z</time></trkpt><trkpt lat="44.89590006069079" lon="7.985184062518954"><ele>230.0</ele><time>2026-04-19T09:02:39Z</time></trkpt><trkpt lat="44.895864775092925" lon="7.98510666726533"><ele>230.00000000000003</ele><time>2026-04-19T09:02:40Z</time></trkpt><trkpt lat="44.895862046055306" lon="7.985013181237352"><ele>230.0</ele><time>2026-04-19T09:02:41Z</time></trkpt><trkpt lat="44.89589434119876" lon="7.984917357441729"><ele>226.4</ele><time>2026-04-19T09:02:42Z</time></trkpt><trkpt lat="44.89597775305455" lon="7.984880439152083"><ele>222.8</ele><time>2026-04-19T09:02:43Z</time></trkpt><trkpt lat="44.896043557788225" lon="7.984778381645425"><ele>219.2</ele><time>2026-04-19T09:02:44Z</time></trkpt><trkpt lat="44.89609759390778" lon="7.9846706379894945"><ele>215.6</ele><time>2026-04-19T09:02:45Z</time></trkpt><trkpt lat="44.896099801709916" lon="7.984527708229579"><ele>212.0</ele><time>2026-04-19T09:02:46Z</time></trkpt><trkpt lat="44.896075829787584" lon="7.984374781740815"><ele>212.0</ele><time>2026-04-19T09:02:47Z</time></trkpt><trkpt lat="44.896040855186875" lon="7.9842156451728075"><ele>212.0</ele><time>2026-04-19T09:02:48Z</time></trkpt><trkpt lat="44.8960099047246" lon="7.984050320276827"><ele>212.0</ele><time>2026-04-19T09:02:49Z</time></trkpt><trkpt lat="44.89598037462321" lon="7.9838933770866465"><ele>212.0</ele><time>2026-04-19T09:02:50Z</time></trkpt><trkpt lat="44.89595912303372" lon="7.9837739645748105"><ele>212.0</ele><time>2026-04-19T09:02:51Z</time></trkpt><trkpt lat="44.89593823039241" lon="7.983665798282931"><ele>208.5</ele><time>2026-04-19T09:02:53Z</time></trkpt><trkpt lat="44.895809141821424" lon="7.983578785974454"><ele>205.0</ele><time>2026-04-19T09:02:56Z</time></trkpt><trkpt lat="44.895706022215286" lon="7.983578099352747"><ele>201.5</ele><time>2026-04-19T09:02:57Z</time></trkpt><trkpt lat="44.895584755156385" lon="7.9835562049692745"><ele>198.0</ele><time>2026-04-19T09:02:58Z</time></trkpt><trkpt lat="44.89544980323411" lon="7.983542311465431"><ele>198.0</ele><time>2026-04-19T09:02:59Z</time></trkpt><trkpt lat="44.89529443234297" lon="7.983530262824997"><ele>198.0</ele><time>2026-04-19T09:03:00Z</time></trkpt><trkpt lat="44.89512289582611" lon="7.9835168265084775"><ele>198.0</ele><time>2026-04-19T09:03:01Z</time></trkpt><trkpt lat="44.894935577326386" lon="7.983499398036461"><ele>197.33333333333331</ele><time>2026-04-19T09:03:02Z</time></trkpt><trkpt lat="44.894749015842685" lon="7.983473976836974"><ele>196.66666666666666</ele><time>2026-04-19T09:03:03Z</time></trkpt><trkpt lat="44.89455242883906" lon="7.983460766039728"><ele>196.0</ele><time>2026-04-19T09:03:04Z</time></trkpt><trkpt lat="44.894345954675664" lon="7.983449683339251"><ele>196.33333333333331</ele><time>2026-04-19T09:03:05Z</time></trkpt><trkpt lat="44.8941401152141" lon="7.983443882251642"><ele>196.66666666666669</ele><time>2026-04-19T09:03:06Z</time></trkpt><trkpt lat="44.89394175380344" lon="7.983453990115408"><ele>197.0</ele><time>2026-04-19T09:03:07Z</time></trkpt><trkpt lat="44.89373929367355" lon="7.983477272794919"><ele>197.0</ele><time>2026-04-19T09:03:08Z</time></trkpt><trkpt lat="44.89353295754902" lon="7.983518890998282"><ele>197.0</ele><time>2026-04-19T09:03:09Z</time></trkpt><trkpt lat="44.89332739084411" lon="7.983570327812117"><ele>197.0</ele><time>2026-04-19T09:03:10Z</time></trkpt><trkpt lat="44.89312051434974" lon="7.983639864775618"><ele>197.0</ele><time>2026-04-19T09:03:11Z</time></trkpt><trkpt lat="44.892918701863735" lon="7.983724793980901"><ele>197.0</ele><time>2026-04-19T09:03:12Z</time></trkpt><trkpt lat="44.89272462935319" lon="7.983821094806218"><ele>197.0</ele><time>2026-04-19T09:03:13Z</time></trkpt><trkpt lat="44.89253714860342" lon="7.983929552819349"><ele>198.0</ele><time>2026-04-19T09:03:14Z</time></trkpt><trkpt lat="44.89235449024834" lon="7.984047810395456"><ele>199.0</ele><time>2026-04-19T09:03:15Z</time></trkpt><trkpt lat="44.89217464085583" lon="7.984171168272855"><ele>200.0</ele><time>2026-04-19T09:03:16Z</time></trkpt><trkpt lat="44.892002233356635" lon="7.984297799418052"><ele>200.0</ele><time>2026-04-19T09:03:17Z</time></trkpt><trkpt lat="44.89182583783195" lon="7.9844258514978"><ele>200.0</ele><time>2026-04-19T09:03:18Z</time></trkpt><trkpt lat="44.89165037205516" lon="7.9845588810619095"><ele>200.0</ele><time>2026-04-19T09:03:19Z</time></trkpt><trkpt lat="44.891473900681184" lon="7.984688668348719"><ele>199.66666666666669</ele><time>2026-04-19T09:03:20Z</time></trkpt><trkpt lat="44.89129827230661" lon="7.98482668323079"><ele>199.33333333333331</ele><time>2026-04-19T09:03:21Z</time></trkpt><trkpt lat="44.891115987240184" lon="7.984960408032406"><ele>199.0</ele><time>2026-04-19T09:03:22Z</time></trkpt><trkpt lat="44.89093206184944" lon="7.985093529629007"><ele>200.66666666666666</ele><time>2026-04-19T09:03:23Z</time></trkpt><trkpt lat="44.89074417900354" lon="7.985232745149284"><ele>202.33333333333331</ele><time>2026-04-19T09:03:24Z</time></trkpt><trkpt lat="44.89055434330557" lon="7.985374019181829"><ele>204.0</ele><time>2026-04-19T09:03:25Z</time></trkpt><trkpt lat="44.89036623546259" lon="7.985510243667114"><ele>204.0</ele><time>2026-04-19T09:03:26Z</time></trkpt><trkpt lat="44.89017491732769" lon="7.9856539985650015"><ele>204.0</ele><time>2026-04-19T09:03:27Z</time></trkpt><trkpt lat="44.88998313690675" lon="7.985793724121247"><ele>204.0</ele><time>2026-04-19T09:03:28Z</time></trkpt><trkpt lat="44.88978980842058" lon="7.985935466043978"><ele>203.33333333333331</ele><time>2026-04-19T09:03:29Z</time></trkpt><trkpt lat="44.88959673205116" lon="7.986071411057766"><ele>202.66666666666666</ele><time>2026-04-19T09:03:30Z</time></trkpt><trkpt lat="44.88941010128169" lon="7.986209463909735"><ele>202.0</ele><time>2026-04-19T09:03:31Z</time></trkpt><trkpt lat="44.88923853407241" lon="7.9863380250790525"><ele>202.0</ele><time>2026-04-19T09:03:32Z</time></trkpt><trkpt lat="44.88906972974966" lon="7.986461194573663"><ele>202.0</ele><time>2026-04-19T09:03:33Z</time></trkpt><trkpt lat="44.88891180385618" lon="7.986576305024806"><ele>202.0</ele><time>2026-04-19T09:03:34Z</time></trkpt><trkpt lat="44.88876134758791" lon="7.9866791937205495"><ele>203.0</ele><time>2026-04-19T09:03:35Z</time></trkpt><trkpt lat="44.888618186440745" lon="7.9867852563639214"><ele>204.0</ele><time>2026-04-19T09:03:36Z</time></trkpt><trkpt lat="44.888471419044656" lon="7.986895808405168"><ele>205.0</ele><time>2026-04-19T09:03:37.001Z</time></trkpt><trkpt lat="44.88832000971638" lon="7.987005340304463"><ele>205.0</ele><time>2026-04-19T09:03:38.001Z</time></trkpt><trkpt lat="44.88817104354937" lon="7.987114589333782"><ele>205.0</ele><time>2026-04-19T09:03:39.001Z</time></trkpt><trkpt lat="44.88802153897338" lon="7.98722491050994"><ele>205.0</ele><time>2026-04-19T09:03:40.001Z</time></trkpt><trkpt lat="44.88787070847744" lon="7.9873387141443395"><ele>205.0</ele><time>2026-04-19T09:03:41.001Z</time></trkpt><trkpt lat="44.887716733079166" lon="7.987449426467724"><ele>205.0</ele><time>2026-04-19T09:03:42.001Z</time></trkpt><trkpt lat="44.88756381219724" lon="7.987559765716204"><ele>205.0</ele><time>2026-04-19T09:03:43.001Z</time></trkpt><trkpt lat="44.88741651522489" lon="7.987663645257211"><ele>205.25</ele><time>2026-04-19T09:03:44.001Z</time></trkpt><trkpt lat="44.88728306046986" lon="7.987771475489266"><ele>205.5</ele><time>2026-04-19T09:03:45.001Z</time></trkpt><trkpt lat="44.88716005501503" lon="7.987855505630582"><ele>205.75</ele><time>2026-04-19T09:03:46.001Z</time></trkpt><trkpt lat="44.887044053356014" lon="7.987935705902996"><ele>206.0</ele><time>2026-04-19T09:03:47.001Z</time></trkpt><trkpt lat="44.88693598886156" lon="7.988014006191205"><ele>206.0</ele><time>2026-04-19T09:03:48.001Z</time></trkpt><trkpt lat="44.88683829126147" lon="7.9880865482287895"><ele>206.0</ele><time>2026-04-19T09:03:49.001Z</time></trkpt><trkpt lat="44.886743834677056" lon="7.988151903211439"><ele>206.0</ele><time>2026-04-19T09:03:50.001Z</time></trkpt><trkpt lat="44.88666155402102" lon="7.988204033892034"><ele>206.0</ele><time>2026-04-19T09:03:51Z</time></trkpt><trkpt lat="44.88658381793834" lon="7.988242180878297"><ele>206.0</ele><time>2026-04-19T09:03:52Z</time></trkpt><trkpt lat="44.8864901156183" lon="7.988264655381208"><ele>205.83333333333334</ele><time>2026-04-19T09:03:54Z</time></trkpt><trkpt lat="44.886430754514244" lon="7.988322727311407"><ele>205.66666666666669</ele><time>2026-04-19T09:03:58Z</time></trkpt><trkpt lat="44.88638685847898" lon="7.988416401326871"><ele>205.5</ele><time>2026-04-19T09:04:00Z</time></trkpt><trkpt lat="44.88632362764827" lon="7.988472432603093"><ele>205.33333333333331</ele><time>2026-04-19T09:04:01Z</time></trkpt><trkpt lat="44.88623358090577" lon="7.98853869776715"><ele>205.16666666666666</ele><time>2026-04-19T09:04:02Z</time></trkpt><trkpt lat="44.8861449195495" lon="7.988605553051226"><ele>205.0</ele><time>2026-04-19T09:04:03Z</time></trkpt><trkpt lat="44.88603350441266" lon="7.988663891256138"><ele>205.25</ele><time>2026-04-19T09:04:04Z</time></trkpt><trkpt lat="44.88591366523106" lon="7.988751718271164"><ele>205.5</ele><time>2026-04-19T09:04:05Z</time></trkpt><trkpt lat="44.885797110117586" lon="7.988854829886308"><ele>205.75</ele><time>2026-04-19T09:04:06Z</time></trkpt><trkpt lat="44.885659785543375" lon="7.988949644062708"><ele>206.0</ele><time>2026-04-19T09:04:07Z</time></trkpt><trkpt lat="44.88551421472221" lon="7.989057847997487"><ele>206.0</ele><time>2026-04-19T09:04:08Z</time></trkpt><trkpt lat="44.88536739597971" lon="7.989165035972589"><ele>206.0</ele><time>2026-04-19T09:04:09Z</time></trkpt><trkpt lat="44.8852145201494" lon="7.98928250296124"><ele>206.0</ele><time>2026-04-19T09:04:10Z</time></trkpt><trkpt lat="44.88505874756317" lon="7.989403630030746"><ele>207.0</ele><time>2026-04-19T09:04:11Z</time></trkpt><trkpt lat="44.8848939724127" lon="7.989523382826964"><ele>208.0</ele><time>2026-04-19T09:04:12Z</time></trkpt><trkpt lat="44.884722411382526" lon="7.98964501210712"><ele>209.0</ele><time>2026-04-19T09:04:13Z</time></trkpt><trkpt lat="44.88455980863882" lon="7.98976421976914"><ele>209.0</ele><time>2026-04-19T09:04:14Z</time></trkpt><trkpt lat="44.88438944909988" lon="7.989885814031686"><ele>209.0</ele><time>2026-04-19T09:04:15Z</time></trkpt><trkpt lat="44.884215706406955" lon="7.990012718550038"><ele>209.0</ele><time>2026-04-19T09:04:16Z</time></trkpt><trkpt lat="44.884045566963145" lon="7.990144537192533"><ele>211.0</ele><time>2026-04-19T09:04:17Z</time></trkpt><trkpt lat="44.88387054110247" lon="7.990272754286988"><ele>213.0</ele><time>2026-04-19T09:04:18Z</time></trkpt><trkpt lat="44.88369954761919" lon="7.990397463625217"><ele>215.0</ele><time>2026-04-19T09:04:19Z</time></trkpt><trkpt lat="44.88352821835324" lon="7.9905192714432465"><ele>214.33333333333334</ele><time>2026-04-19T09:04:20Z</time></trkpt><trkpt lat="44.883359383933275" lon="7.990641616583228"><ele>213.66666666666669</ele><time>2026-04-19T09:04:21Z</time></trkpt><trkpt lat="44.88319557421701" lon="7.990763277831388"><ele>213.0</ele><time>2026-04-19T09:04:22Z</time></trkpt><trkpt lat="44.88303409905547" lon="7.990883243041085"><ele>213.66666666666669</ele><time>2026-04-19T09:04:23Z</time></trkpt><trkpt lat="44.88286729526743" lon="7.991002104995453"><ele>214.33333333333334</ele><time>2026-04-19T09:04:24Z</time></trkpt><trkpt lat="44.88270569660601" lon="7.991127242472095"><ele>215.0</ele><time>2026-04-19T09:04:25Z</time></trkpt><trkpt lat="44.882535039434984" lon="7.991247332717912"><ele>215.0</ele><time>2026-04-19T09:04:26Z</time></trkpt><trkpt lat="44.88236817387002" lon="7.991364523569152"><ele>215.0</ele><time>2026-04-19T09:04:27Z</time></trkpt><trkpt lat="44.882203538168426" lon="7.991486882246093"><ele>215.0</ele><time>2026-04-19T09:04:28Z</time></trkpt><trkpt lat="44.88203471811579" lon="7.991608552810235"><ele>215.66666666666669</ele><time>2026-04-19T09:04:29Z</time></trkpt><trkpt lat="44.881866827812715" lon="7.99173197144347"><ele>216.33333333333331</ele><time>2026-04-19T09:04:30Z</time></trkpt><trkpt lat="44.8817033085389" lon="7.991852021444206"><ele>217.0</ele><time>2026-04-19T09:04:31Z</time></trkpt><trkpt lat="44.881542235178905" lon="7.991968820828811"><ele>217.0</ele><time>2026-04-19T09:04:32Z</time></trkpt><trkpt lat="44.881382005091346" lon="7.992081656316082"><ele>217.0</ele><time>2026-04-19T09:04:33Z</time></trkpt><trkpt lat="44.88122265168169" lon="7.9921930977315725"><ele>217.0</ele><time>2026-04-19T09:04:34Z</time></trkpt><trkpt lat="44.881073838678475" lon="7.992301492970503"><ele>217.0</ele><time>2026-04-19T09:04:35Z</time></trkpt><trkpt lat="44.880938805556596" lon="7.992401036070213"><ele>217.0</ele><time>2026-04-19T09:04:36Z</time></trkpt><trkpt lat="44.880813846204184" lon="7.992495162230422"><ele>217.0</ele><time>2026-04-19T09:04:37Z</time></trkpt><trkpt lat="44.880693123478935" lon="7.992580309419394"><ele>217.0</ele><time>2026-04-19T09:04:38Z</time></trkpt><trkpt lat="44.880583258845014" lon="7.9926638554711955"><ele>217.0</ele><time>2026-04-19T09:04:39Z</time></trkpt><trkpt lat="44.880484250736636" lon="7.99273765144512"><ele>217.0</ele><time>2026-04-19T09:04:40Z</time></trkpt><trkpt lat="44.880386131719355" lon="7.992802940392577"><ele>217.0</ele><time>2026-04-19T09:04:41Z</time></trkpt><trkpt lat="44.880300523013965" lon="7.992860501335581"><ele>217.0</ele><time>2026-04-19T09:04:42Z</time></trkpt><trkpt lat="44.880219081347974" lon="7.992916227657245"><ele>217.0</ele><time>2026-04-19T09:04:43Z</time></trkpt><trkpt lat="44.880137908988395" lon="7.992969923518073"><ele>216.49999999999997</ele><time>2026-04-19T09:04:44Z</time></trkpt><trkpt lat="44.880066596482216" lon="7.993028670059595"><ele>216.0</ele><time>2026-04-19T09:04:45Z</time></trkpt><trkpt lat="44.879987802215595" lon="7.99308779169649"><ele>215.5</ele><time>2026-04-19T09:04:46Z</time></trkpt><trkpt lat="44.87991043480689" lon="7.993142119483794"><ele>215.0</ele><time>2026-04-19T09:04:47Z</time></trkpt><trkpt lat="44.87983314208903" lon="7.993200379997446"><ele>214.49999999999997</ele><time>2026-04-19T09:04:48Z</time></trkpt><trkpt lat="44.879754233782464" lon="7.993258715110039"><ele>214.0</ele><time>2026-04-19T09:04:49Z</time></trkpt><trkpt lat="44.87967638585893" lon="7.9933186063375254"><ele>214.79999999999998</ele><time>2026-04-19T09:04:50Z</time></trkpt><trkpt lat="44.87959573595036" lon="7.993379775719375"><ele>215.59999999999997</ele><time>2026-04-19T09:04:51Z</time></trkpt><trkpt lat="44.87951546092174" lon="7.99343969502163"><ele>216.4</ele><time>2026-04-19T09:04:52Z</time></trkpt><trkpt lat="44.879434274374894" lon="7.993499661473103"><ele>217.2</ele><time>2026-04-19T09:04:53Z</time></trkpt><trkpt lat="44.8793508296797" lon="7.993556603722072"><ele>218.0</ele><time>2026-04-19T09:04:54Z</time></trkpt><trkpt lat="44.87926840800084" lon="7.993611582439847"><ele>218.0</ele><time>2026-04-19T09:04:55Z</time></trkpt><trkpt lat="44.879186458839335" lon="7.9936680796185335"><ele>218.0</ele><time>2026-04-19T09:04:56Z</time></trkpt><trkpt lat="44.879103619762745" lon="7.993724787684449"><ele>218.0</ele><time>2026-04-19T09:04:57Z</time></trkpt><trkpt lat="44.87902042337062" lon="7.993786848090165"><ele>218.0</ele><time>2026-04-19T09:04:58Z</time></trkpt><trkpt lat="44.87893798509516" lon="7.993852056380123"><ele>218.0</ele><time>2026-04-19T09:04:59Z</time></trkpt><trkpt lat="44.87885469809125" lon="7.993913026757929"><ele>218.0</ele><time>2026-04-19T09:05:00Z</time></trkpt><trkpt lat="44.87877900266473" lon="7.993966233377254"><ele>218.0</ele><time>2026-04-19T09:05:01Z</time></trkpt><trkpt lat="44.87870164725292" lon="7.994020206282694"><ele>218.0</ele><time>2026-04-19T09:05:02Z</time></trkpt><trkpt lat="44.878623043169256" lon="7.994084393351112"><ele>218.0</ele><time>2026-04-19T09:05:03Z</time></trkpt><trkpt lat="44.87853572386671" lon="7.99415253991509"><ele>218.0</ele><time>2026-04-19T09:05:04Z</time></trkpt><trkpt lat="44.878449766320635" lon="7.994206970800973"><ele>218.0</ele><time>2026-04-19T09:05:05Z</time></trkpt><trkpt lat="44.878368521647836" lon="7.9942638859117645"><ele>218.0</ele><time>2026-04-19T09:05:06Z</time></trkpt><trkpt lat="44.87829213963404" lon="7.994320614647444"><ele>218.0</ele><time>2026-04-19T09:05:07Z</time></trkpt><trkpt lat="44.87822344514115" lon="7.994365959393184"><ele>218.0</ele><time>2026-04-19T09:05:08Z</time></trkpt><trkpt lat="44.87812489334722" lon="7.994386409971294"><ele>218.0</ele><time>2026-04-19T09:05:10Z</time></trkpt><trkpt lat="44.87800728028798" lon="7.994159175777321"><ele>217.75</ele><time>2026-04-19T09:05:13Z</time></trkpt><trkpt lat="44.87796401492081" lon="7.994037331622151"><ele>217.5</ele><time>2026-04-19T09:05:14Z</time></trkpt><trkpt lat="44.87790164106479" lon="7.99389730878268"><ele>217.25</ele><time>2026-04-19T09:05:15Z</time></trkpt><trkpt lat="44.877835353897304" lon="7.993748718883384"><ele>217.0</ele><time>2026-04-19T09:05:16Z</time></trkpt><trkpt lat="44.87775066568685" lon="7.993581248613961"><ele>217.0</ele><time>2026-04-19T09:05:17Z</time></trkpt><trkpt lat="44.87765996574834" lon="7.99342706738389"><ele>217.0</ele><time>2026-04-19T09:05:18Z</time></trkpt><trkpt lat="44.87758303916789" lon="7.993290763237921"><ele>217.0</ele><time>2026-04-19T09:05:19Z</time></trkpt><trkpt lat="44.87751858271396" lon="7.993158290554398"><ele>217.0</ele><time>2026-04-19T09:05:20Z</time></trkpt><trkpt lat="44.87746806689716" lon="7.993042541142056"><ele>216.83333333333331</ele><time>2026-04-19T09:05:21Z</time></trkpt><trkpt lat="44.87742311951872" lon="7.992949526924224"><ele>216.66666666666666</ele><time>2026-04-19T09:05:22Z</time></trkpt><trkpt lat="44.877378953972254" lon="7.992813264278624"><ele>216.5</ele><time>2026-04-19T09:05:24Z</time></trkpt><trkpt lat="44.87738264007613" lon="7.99272206546412"><ele>216.33333333333331</ele><time>2026-04-19T09:05:25Z</time></trkpt><trkpt lat="44.87740971371946" lon="7.992605417681281"><ele>216.16666666666666</ele><time>2026-04-19T09:05:26Z</time></trkpt><trkpt lat="44.877452258069916" lon="7.992467060731216"><ele>216.0</ele><time>2026-04-19T09:05:27Z</time></trkpt><trkpt lat="44.87749631188374" lon="7.992312851264572"><ele>215.8</ele><time>2026-04-19T09:05:28Z</time></trkpt><trkpt lat="44.877531083779516" lon="7.992146071729962"><ele>215.60000000000002</ele><time>2026-04-19T09:05:29Z</time></trkpt><trkpt lat="44.87756993979254" lon="7.99201037350975"><ele>215.4</ele><time>2026-04-19T09:05:30.001Z</time></trkpt><trkpt lat="44.87761653038046" lon="7.991915075631077"><ele>215.2</ele><time>2026-04-19T09:05:31.001Z</time></trkpt><trkpt lat="44.87769631219702" lon="7.991881643553185"><ele>215.0</ele><time>2026-04-19T09:05:32.001Z</time></trkpt><trkpt lat="44.87778164407676" lon="7.991801219185622"><ele>214.75</ele><time>2026-04-19T09:05:33.001Z</time></trkpt><trkpt lat="44.87788754280661" lon="7.991732181002307"><ele>214.5</ele><time>2026-04-19T09:05:34.001Z</time></trkpt><trkpt lat="44.87800089792871" lon="7.991650349776624"><ele>214.25</ele><time>2026-04-19T09:05:35.001Z</time></trkpt><trkpt lat="44.8780988613079" lon="7.9915610811132165"><ele>214.0</ele><time>2026-04-19T09:05:36.001Z</time></trkpt><trkpt lat="44.87818177089187" lon="7.991444670772597"><ele>214.5</ele><time>2026-04-19T09:05:37.001Z</time></trkpt><trkpt lat="44.87825481578126" lon="7.9912833673035895"><ele>215.0</ele><time>2026-04-19T09:05:38.001Z</time></trkpt><trkpt lat="44.87831917602841" lon="7.991105044746062"><ele>215.5</ele><time>2026-04-19T09:05:39.001Z</time></trkpt><trkpt lat="44.87833768696767" lon="7.990914166156313"><ele>216.0</ele><time>2026-04-19T09:05:40.001Z</time></trkpt><trkpt lat="44.878333719359595" lon="7.990715313068901"><ele>217.20000000000002</ele><time>2026-04-19T09:05:41.001Z</time></trkpt><trkpt lat="44.878345724858" lon="7.990538245059837"><ele>218.40000000000003</ele><time>2026-04-19T09:05:42.001Z</time></trkpt><trkpt lat="44.87837799206038" lon="7.9904172169015935"><ele>219.6</ele><time>2026-04-19T09:05:43.001Z</time></trkpt><trkpt lat="44.87841668609124" lon="7.990305236801106"><ele>220.8</ele><time>2026-04-19T09:05:44.001Z</time></trkpt><trkpt lat="44.8784363803873" lon="7.990186776420656"><ele>222.0</ele><time>2026-04-19T09:05:45.001Z</time></trkpt><trkpt lat="44.87846056386175" lon="7.990058593392168"><ele>224.2</ele><time>2026-04-19T09:05:46.001Z</time></trkpt><trkpt lat="44.878438890391614" lon="7.98994211791627"><ele>226.39999999999998</ele><time>2026-04-19T09:05:47.001Z</time></trkpt><trkpt lat="44.87839619832718" lon="7.989838248453772"><ele>228.60000000000002</ele><time>2026-04-19T09:05:48.001Z</time></trkpt><trkpt lat="44.87832260937535" lon="7.989731668407678"><ele>230.8</ele><time>2026-04-19T09:05:49.001Z</time></trkpt><trkpt lat="44.87821705639252" lon="7.989609696672582"><ele>233.0</ele><time>2026-04-19T09:05:50.001Z</time></trkpt><trkpt lat="44.8781066103999" lon="7.989487389043612"><ele>233.0</ele><time>2026-04-19T09:05:51.001Z</time></trkpt><trkpt lat="44.87799540387084" lon="7.989358435385962"><ele>233.0</ele><time>2026-04-19T09:05:52.001Z</time></trkpt><trkpt lat="44.877878463855495" lon="7.989226325288477"><ele>233.0</ele><time>2026-04-19T09:05:53.001Z</time></trkpt><trkpt lat="44.877767528950564" lon="7.989091763667814"><ele>233.0</ele><time>2026-04-19T09:05:54.001Z</time></trkpt><trkpt lat="44.87766395471639" lon="7.988976848240241"><ele>236.0</ele><time>2026-04-19T09:05:55.001Z</time></trkpt><trkpt lat="44.87759158916836" lon="7.988844560135671"><ele>239.0</ele><time>2026-04-19T09:05:56.001Z</time></trkpt><trkpt lat="44.87753184761984" lon="7.988677465057937"><ele>242.0</ele><time>2026-04-19T09:05:57Z</time></trkpt><trkpt lat="44.8774753032594" lon="7.988492636689012"><ele>245.0</ele><time>2026-04-19T09:05:58Z</time></trkpt><trkpt lat="44.877405806940295" lon="7.988319123131113"><ele>247.75</ele><time>2026-04-19T09:05:59Z</time></trkpt><trkpt lat="44.87732262110853" lon="7.988152760955434"><ele>250.5</ele><time>2026-04-19T09:06:00Z</time></trkpt><trkpt lat="44.877217171783016" lon="7.98801685405853"><ele>253.25</ele><time>2026-04-19T09:06:01Z</time></trkpt><trkpt lat="44.877099178558886" lon="7.987916523419315"><ele>256.0</ele><time>2026-04-19T09:06:02Z</time></trkpt><trkpt lat="44.87696250346432" lon="7.987808848569291"><ele>256.0</ele><time>2026-04-19T09:06:03Z</time></trkpt><trkpt lat="44.87682390490219" lon="7.98767642783179"><ele>256.0</ele><time>2026-04-19T09:06:04Z</time></trkpt><trkpt lat="44.87669048934509" lon="7.987537105380424"><ele>256.0</ele><time>2026-04-19T09:06:05Z</time></trkpt><trkpt lat="44.876551670611974" lon="7.987398178341588"><ele>259.66666666666663</ele><time>2026-04-19T09:06:06Z</time></trkpt><trkpt lat="44.876396228021626" lon="7.987295584515913"><ele>263.3333333333333</ele><time>2026-04-19T09:06:07Z</time></trkpt><trkpt lat="44.87623160699487" lon="7.987207479584653"><ele>267.0</ele><time>2026-04-19T09:06:08Z</time></trkpt><trkpt lat="44.876048934576374" lon="7.987138066563909"><ele>270.0</ele><time>2026-04-19T09:06:09Z</time></trkpt><trkpt lat="44.8758603655122" lon="7.987046740874263"><ele>273.0</ele><time>2026-04-19T09:06:10Z</time></trkpt><trkpt lat="44.87567400874836" lon="7.986957220972197"><ele>276.0</ele><time>2026-04-19T09:06:11Z</time></trkpt><trkpt lat="44.87551035934784" lon="7.986882863321318"><ele>276.0</ele><time>2026-04-19T09:06:12Z</time></trkpt><trkpt lat="44.87535615925272" lon="7.986825164491925"><ele>276.0</ele><time>2026-04-19T09:06:13Z</time></trkpt><trkpt lat="44.87524655077939" lon="7.986737428054877"><ele>276.0</ele><time>2026-04-19T09:06:14Z</time></trkpt><trkpt lat="44.87515772248567" lon="7.986633755150766"><ele>276.0</ele><time>2026-04-19T09:06:15Z</time></trkpt><trkpt lat="44.875084572965825" lon="7.98653899289977"><ele>276.75</ele><time>2026-04-19T09:06:16Z</time></trkpt><trkpt lat="44.875032125384784" lon="7.986434518574521"><ele>277.5</ele><time>2026-04-19T09:06:17Z</time></trkpt><trkpt lat="44.87497427937354" lon="7.9863077654683945"><ele>278.25</ele><time>2026-04-19T09:06:18Z</time></trkpt><trkpt lat="44.87493410915653" lon="7.986152670527115"><ele>279.0</ele><time>2026-04-19T09:06:19Z</time></trkpt><trkpt lat="44.87488555533713" lon="7.9859738583541775"><ele>280.25</ele><time>2026-04-19T09:06:20Z</time></trkpt><trkpt lat="44.87484911750573" lon="7.985789498953265"><ele>281.5</ele><time>2026-04-19T09:06:21Z</time></trkpt><trkpt lat="44.874819015007866" lon="7.985593412227402"><ele>282.75</ele><time>2026-04-19T09:06:22Z</time></trkpt><trkpt lat="44.87476436877477" lon="7.985410083419681"><ele>284.0</ele><time>2026-04-19T09:06:23Z</time></trkpt><trkpt lat="44.87468680350294" lon="7.985246993676766"><ele>284.0</ele><time>2026-04-19T09:06:24Z</time></trkpt><trkpt lat="44.874611727633045" lon="7.985096656387701"><ele>284.0</ele><time>2026-04-19T09:06:25Z</time></trkpt><trkpt lat="44.87458860222785" lon="7.984926584378784"><ele>284.0</ele><time>2026-04-19T09:06:26Z</time></trkpt><trkpt lat="44.87458358598694" lon="7.984754463853965"><ele>284.0</ele><time>2026-04-19T09:06:27Z</time></trkpt><trkpt lat="44.87458011719563" lon="7.9845815349679725"><ele>284.2</ele><time>2026-04-19T09:06:28Z</time></trkpt><trkpt lat="44.87455840563295" lon="7.984431230375732"><ele>284.4</ele><time>2026-04-19T09:06:29Z</time></trkpt><trkpt lat="44.87453840531162" lon="7.984321944605303"><ele>284.6</ele><time>2026-04-19T09:06:30Z</time></trkpt><trkpt lat="44.874505321838605" lon="7.984229586922659"><ele>284.8</ele><time>2026-04-19T09:06:31Z</time></trkpt><trkpt lat="44.874463934658024" lon="7.9841259309069414"><ele>285.0</ele><time>2026-04-19T09:06:32Z</time></trkpt><trkpt lat="44.87439223050927" lon="7.984006307833708"><ele>286.5</ele><time>2026-04-19T09:06:33Z</time></trkpt><trkpt lat="44.874294104614805" lon="7.983906697498228"><ele>288.0</ele><time>2026-04-19T09:06:34Z</time></trkpt><trkpt lat="44.874174608098336" lon="7.983802720879272"><ele>289.5</ele><time>2026-04-19T09:06:35Z</time></trkpt><trkpt lat="44.87404021351169" lon="7.983694214240374"><ele>291.0</ele><time>2026-04-19T09:06:36Z</time></trkpt><trkpt lat="44.873899378710725" lon="7.9835880239115085"><ele>293.6666666666667</ele><time>2026-04-19T09:06:37Z</time></trkpt><trkpt lat="44.8737477307222" lon="7.983508525675701"><ele>296.33333333333337</ele><time>2026-04-19T09:06:38Z</time></trkpt><trkpt lat="44.87358438109641" lon="7.983449995396274"><ele>299.0</ele><time>2026-04-19T09:06:39Z</time></trkpt><trkpt lat="44.87341296905415" lon="7.983407638295882"><ele>299.0</ele><time>2026-04-19T09:06:40Z</time></trkpt><trkpt lat="44.873264642689584" lon="7.983381835911724"><ele>299.0</ele><time>2026-04-19T09:06:41Z</time></trkpt><trkpt lat="44.87314757689323" lon="7.983343127033419"><ele>299.0</ele><time>2026-04-19T09:06:42Z</time></trkpt><trkpt lat="44.873045500752255" lon="7.98328266357137"><ele>299.0</ele><time>2026-04-19T09:06:43Z</time></trkpt><trkpt lat="44.87295655142655" lon="7.983176863891175"><ele>299.25</ele><time>2026-04-19T09:06:44Z</time></trkpt><trkpt lat="44.87286304645067" lon="7.983049756669572"><ele>299.5</ele><time>2026-04-19T09:06:45Z</time></trkpt><trkpt lat="44.872759519503745" lon="7.982893221967517"><ele>299.75</ele><time>2026-04-19T09:06:46Z</time></trkpt><trkpt lat="44.8726616710341" lon="7.9827205425604575"><ele>300.0</ele><time>2026-04-19T09:06:47Z</time></trkpt><trkpt lat="44.872548264316194" lon="7.982534041646425"><ele>298.6666666666667</ele><time>2026-04-19T09:06:48Z</time></trkpt><trkpt lat="44.87242320083364" lon="7.982366420760134"><ele>297.33333333333337</ele><time>2026-04-19T09:06:49Z</time></trkpt><trkpt lat="44.87228045679852" lon="7.982230125417985"><ele>296.0</ele><time>2026-04-19T09:06:50Z</time></trkpt><trkpt lat="44.87211757012983" lon="7.982133184025576"><ele>296.0</ele><time>2026-04-19T09:06:51Z</time></trkpt><trkpt lat="44.87196024785862" lon="7.982052909352084"><ele>296.0</ele><time>2026-04-19T09:06:52Z</time></trkpt><trkpt lat="44.87182744777266" lon="7.981967509703468"><ele>296.0</ele><time>2026-04-19T09:06:53Z</time></trkpt><trkpt lat="44.87172747991975" lon="7.98189058348603"><ele>296.0</ele><time>2026-04-19T09:06:54Z</time></trkpt><trkpt lat="44.871642270308705" lon="7.981767082719892"><ele>294.0</ele><time>2026-04-19T09:06:55Z</time></trkpt><trkpt lat="44.871574386323964" lon="7.98160534411677"><ele>292.0</ele><time>2026-04-19T09:06:56Z</time></trkpt><trkpt lat="44.8715270029885" lon="7.981416694017051"><ele>290.0</ele><time>2026-04-19T09:06:57Z</time></trkpt><trkpt lat="44.87148214507345" lon="7.98120753960814"><ele>288.0</ele><time>2026-04-19T09:06:58Z</time></trkpt><trkpt lat="44.87139201349433" lon="7.981003521808248"><ele>286.3333333333333</ele><time>2026-04-19T09:06:59Z</time></trkpt><trkpt lat="44.87128112429707" lon="7.980809794854811"><ele>284.66666666666663</ele><time>2026-04-19T09:07:00Z</time></trkpt><trkpt lat="44.87116987520974" lon="7.9806082122146895"><ele>283.0</ele><time>2026-04-19T09:07:01Z</time></trkpt><trkpt lat="44.871065323349974" lon="7.9804031563769575"><ele>283.0</ele><time>2026-04-19T09:07:02Z</time></trkpt><trkpt lat="44.87095975878961" lon="7.980207369736712"><ele>283.0</ele><time>2026-04-19T09:07:03Z</time></trkpt><trkpt lat="44.87085489927375" lon="7.980019345268296"><ele>283.0</ele><time>2026-04-19T09:07:04Z</time></trkpt><trkpt lat="44.870751494351126" lon="7.979831960737631"><ele>286.0</ele><time>2026-04-19T09:07:05Z</time></trkpt><trkpt lat="44.87064818454598" lon="7.979647561607467"><ele>289.0</ele><time>2026-04-19T09:07:06Z</time></trkpt><trkpt lat="44.870540386791305" lon="7.979471721505556"><ele>292.0</ele><time>2026-04-19T09:07:07Z</time></trkpt><trkpt lat="44.870427152577726" lon="7.979303423836292"><ele>291.75</ele><time>2026-04-19T09:07:08Z</time></trkpt><trkpt lat="44.87033650908111" lon="7.97914880679499"><ele>291.5</ele><time>2026-04-19T09:07:09Z</time></trkpt><trkpt lat="44.87027501493197" lon="7.979002557606222"><ele>291.25</ele><time>2026-04-19T09:07:10Z</time></trkpt><trkpt lat="44.87022886026443" lon="7.978865254234487"><ele>291.0</ele><time>2026-04-19T09:07:11Z</time></trkpt><trkpt lat="44.870188095585526" lon="7.978737488557193"><ele>291.0</ele><time>2026-04-19T09:07:12Z</time></trkpt><trkpt lat="44.87013829993327" lon="7.978590711914923"><ele>291.0</ele><time>2026-04-19T09:07:13Z</time></trkpt><trkpt lat="44.870083829614906" lon="7.978431654257412"><ele>291.0</ele><time>2026-04-19T09:07:14Z</time></trkpt><trkpt lat="44.870031608920705" lon="7.978241086463489"><ele>291.0</ele><time>2026-04-19T09:07:15Z</time></trkpt><trkpt lat="44.869973955471224" lon="7.978036477619383"><ele>293.0</ele><time>2026-04-19T09:07:16Z</time></trkpt><trkpt lat="44.86991537447016" lon="7.977832801147903"><ele>295.0</ele><time>2026-04-19T09:07:17Z</time></trkpt><trkpt lat="44.86985157414103" lon="7.977619874304715"><ele>297.0</ele><time>2026-04-19T09:07:18Z</time></trkpt><trkpt lat="44.869793843333014" lon="7.977390419159886"><ele>297.0</ele><time>2026-04-19T09:07:19Z</time></trkpt><trkpt lat="44.869740285578466" lon="7.977156995422287"><ele>297.0</ele><time>2026-04-19T09:07:20Z</time></trkpt><trkpt lat="44.869689260052986" lon="7.976934474975782"><ele>297.0</ele><time>2026-04-19T09:07:21Z</time></trkpt><trkpt lat="44.869640308124744" lon="7.976738687065087"><ele>298.4</ele><time>2026-04-19T09:07:22Z</time></trkpt><trkpt lat="44.86959761152695" lon="7.976595440789371"><ele>299.79999999999995</ele><time>2026-04-19T09:07:23Z</time></trkpt><trkpt lat="44.86955588721195" lon="7.976492970289378"><ele>301.2</ele><time>2026-04-19T09:07:24.001Z</time></trkpt><trkpt lat="44.869519304106376" lon="7.976379799780586"><ele>302.59999999999997</ele><time>2026-04-19T09:07:25.001Z</time></trkpt><trkpt lat="44.86949390845069" lon="7.976234743691504"><ele>304.0</ele><time>2026-04-19T09:07:26.001Z</time></trkpt><trkpt lat="44.86949412274301" lon="7.976066955352981"><ele>304.0</ele><time>2026-04-19T09:07:27.001Z</time></trkpt><trkpt lat="44.86950696047355" lon="7.975874419509619"><ele>304.0</ele><time>2026-04-19T09:07:28.001Z</time></trkpt><trkpt lat="44.8695380274432" lon="7.975658976986178"><ele>304.0</ele><time>2026-04-19T09:07:29.001Z</time></trkpt><trkpt lat="44.8695713678248" lon="7.975441350003629"><ele>304.0</ele><time>2026-04-19T09:07:30.001Z</time></trkpt><trkpt lat="44.869605248294086" lon="7.975206981288987"><ele>304.0</ele><time>2026-04-19T09:07:31.001Z</time></trkpt><trkpt lat="44.86964160572861" lon="7.974953924067121"><ele>304.0</ele><time>2026-04-19T09:07:32.001Z</time></trkpt><trkpt lat="44.86968322080452" lon="7.974700407857457"><ele>300.3333333333333</ele><time>2026-04-19T09:07:33.001Z</time></trkpt><trkpt lat="44.86973310930136" lon="7.974445935657367"><ele>296.6666666666667</ele><time>2026-04-19T09:07:34.001Z</time></trkpt><trkpt lat="44.86977843388641" lon="7.974199910332066"><ele>293.0</ele><time>2026-04-19T09:07:35.001Z</time></trkpt><trkpt lat="44.86982062103662" lon="7.973970799312255"><ele>292.33333333333337</ele><time>2026-04-19T09:07:36.001Z</time></trkpt><trkpt lat="44.86985133630378" lon="7.973753337467101"><ele>291.6666666666667</ele><time>2026-04-19T09:07:37.001Z</time></trkpt><trkpt lat="44.86986533485649" lon="7.973534861654997"><ele>291.0</ele><time>2026-04-19T09:07:38.001Z</time></trkpt><trkpt lat="44.86986094301804" lon="7.973316222986109"><ele>290.75</ele><time>2026-04-19T09:07:39.001Z</time></trkpt><trkpt lat="44.869839714265744" lon="7.97311279070149"><ele>290.5</ele><time>2026-04-19T09:07:40.001Z</time></trkpt><trkpt lat="44.86979425494212" lon="7.972916606634587"><ele>290.25</ele><time>2026-04-19T09:07:41.001Z</time></trkpt><trkpt lat="44.869715247803505" lon="7.972728116786339"><ele>290.0</ele><time>2026-04-19T09:07:42.001Z</time></trkpt><trkpt lat="44.86961242669834" lon="7.972545543819042"><ele>291.33333333333337</ele><time>2026-04-19T09:07:43.001Z</time></trkpt><trkpt lat="44.8695016707169" lon="7.97236739948903"><ele>292.6666666666667</ele><time>2026-04-19T09:07:44.001Z</time></trkpt><trkpt lat="44.86939288489528" lon="7.972187380897914"><ele>294.0</ele><time>2026-04-19T09:07:45.001Z</time></trkpt><trkpt lat="44.8692968191865" lon="7.972007296925983"><ele>293.6666666666667</ele><time>2026-04-19T09:07:46.001Z</time></trkpt><trkpt lat="44.86921364322353" lon="7.971814974073581"><ele>293.33333333333337</ele><time>2026-04-19T09:07:47.001Z</time></trkpt><trkpt lat="44.86914147709489" lon="7.971613601015539"><ele>293.0</ele><time>2026-04-19T09:07:48.001Z</time></trkpt><trkpt lat="44.86908792749858" lon="7.971423085582016"><ele>297.0</ele><time>2026-04-19T09:07:49.001Z</time></trkpt><trkpt lat="44.86905810547252" lon="7.971225359615031"><ele>301.0</ele><time>2026-04-19T09:07:50.001Z</time></trkpt><trkpt lat="44.869051754272476" lon="7.971001452324467"><ele>305.0</ele><time>2026-04-19T09:07:51.001Z</time></trkpt><trkpt lat="44.86905340040117" lon="7.970810003556821"><ele>309.0</ele><time>2026-04-19T09:07:52.001Z</time></trkpt><trkpt lat="44.86905995087757" lon="7.970629721540391"><ele>310.4</ele><time>2026-04-19T09:07:53.001Z</time></trkpt><trkpt lat="44.86905988568741" lon="7.970460390923294"><ele>311.79999999999995</ele><time>2026-04-19T09:07:54.001Z</time></trkpt><trkpt lat="44.869048062905435" lon="7.970313064403252"><ele>313.20000000000005</ele><time>2026-04-19T09:07:55.001Z</time></trkpt><trkpt lat="44.869026160853934" lon="7.970188699003684"><ele>314.6</ele><time>2026-04-19T09:07:56.001Z</time></trkpt><trkpt lat="44.86899663954817" lon="7.97006114976771"><ele>316.0</ele><time>2026-04-19T09:07:57.001Z</time></trkpt><trkpt lat="44.86895891556344" lon="7.969907394867405"><ele>316.0</ele><time>2026-04-19T09:07:58.001Z</time></trkpt><trkpt lat="44.86891454950235" lon="7.969731801318403"><ele>316.0</ele><time>2026-04-19T09:07:59.001Z</time></trkpt><trkpt lat="44.868856591103906" lon="7.969544221940782"><ele>316.0</ele><time>2026-04-19T09:08:00.001Z</time></trkpt><trkpt lat="44.868792318477574" lon="7.969342007051236"><ele>316.0</ele><time>2026-04-19T09:08:01.001Z</time></trkpt><trkpt lat="44.86874139055806" lon="7.9691542662323895"><ele>316.3333333333333</ele><time>2026-04-19T09:08:02.001Z</time></trkpt><trkpt lat="44.868705616354404" lon="7.968952061939936"><ele>316.6666666666667</ele><time>2026-04-19T09:08:03Z</time></trkpt><trkpt lat="44.868681751749406" lon="7.968739261727861"><ele>317.0</ele><time>2026-04-19T09:08:04Z</time></trkpt><trkpt lat="44.86865607585978" lon="7.96851201587415"><ele>317.25</ele><time>2026-04-19T09:08:05Z</time></trkpt><trkpt lat="44.868619115949464" lon="7.968288792536556"><ele>317.5</ele><time>2026-04-19T09:08:06Z</time></trkpt><trkpt lat="44.86859153274331" lon="7.96809061096901"><ele>317.75</ele><time>2026-04-19T09:08:07Z</time></trkpt><trkpt lat="44.86858267544754" lon="7.967890931344858"><ele>318.0</ele><time>2026-04-19T09:08:08Z</time></trkpt><trkpt lat="44.86858859662703" lon="7.967690245260672"><ele>317.25</ele><time>2026-04-19T09:08:09Z</time></trkpt><trkpt lat="44.868610590123325" lon="7.967492331921467"><ele>316.5</ele><time>2026-04-19T09:08:10Z</time></trkpt><trkpt lat="44.86864504002854" lon="7.967286345074307"><ele>315.75</ele><time>2026-04-19T09:08:11Z</time></trkpt><trkpt lat="44.868687261091615" lon="7.96707439930133"><ele>315.0</ele><time>2026-04-19T09:08:12Z</time></trkpt><trkpt lat="44.868729754317286" lon="7.966863752445462"><ele>315.0</ele><time>2026-04-19T09:08:13Z</time></trkpt><trkpt lat="44.868769374134544" lon="7.966671248872841"><ele>315.0</ele><time>2026-04-19T09:08:14Z</time></trkpt><trkpt lat="44.868798773963434" lon="7.966491550373275"><ele>315.0</ele><time>2026-04-19T09:08:15Z</time></trkpt><trkpt lat="44.86880760389141" lon="7.966330831968117"><ele>315.0</ele><time>2026-04-19T09:08:16Z</time></trkpt><trkpt lat="44.86879976329859" lon="7.966184893062417"><ele>315.0</ele><time>2026-04-19T09:08:17Z</time></trkpt><trkpt lat="44.86876134783981" lon="7.966045793133109"><ele>315.0</ele><time>2026-04-19T09:08:18Z</time></trkpt><trkpt lat="44.868704421944265" lon="7.965923451240609"><ele>315.0</ele><time>2026-04-19T09:08:19Z</time></trkpt><trkpt lat="44.86867421413369" lon="7.965843070403493"><ele>315.0</ele><time>2026-04-19T09:08:20Z</time></trkpt><trkpt lat="44.86862634899225" lon="7.965724090392124"><ele>315.0</ele><time>2026-04-19T09:08:22Z</time></trkpt><trkpt lat="44.86858660451609" lon="7.965615868109276"><ele>315.5</ele><time>2026-04-19T09:08:23Z</time></trkpt><trkpt lat="44.868543736187654" lon="7.965485890530338"><ele>316.0</ele><time>2026-04-19T09:08:24Z</time></trkpt><trkpt lat="44.86850551274679" lon="7.965346259535604"><ele>316.5</ele><time>2026-04-19T09:08:25Z</time></trkpt><trkpt lat="44.86847101309329" lon="7.965176544822728"><ele>317.0</ele><time>2026-04-19T09:08:26Z</time></trkpt><trkpt lat="44.868455780482904" lon="7.965006971324875"><ele>317.0</ele><time>2026-04-19T09:08:27Z</time></trkpt><trkpt lat="44.86844716132958" lon="7.9648225222515485"><ele>317.0</ele><time>2026-04-19T09:08:28Z</time></trkpt><trkpt lat="44.86843535764454" lon="7.964631482706767"><ele>317.0</ele><time>2026-04-19T09:08:29Z</time></trkpt><trkpt lat="44.86843051166179" lon="7.964427381801485"><ele>317.0</ele><time>2026-04-19T09:08:30Z</time></trkpt><trkpt lat="44.86842652015593" lon="7.964248860385862"><ele>318.2</ele><time>2026-04-19T09:08:31Z</time></trkpt><trkpt lat="44.86841269605024" lon="7.964119963721179"><ele>319.4</ele><time>2026-04-19T09:08:32Z</time></trkpt><trkpt lat="44.86839336956084" lon="7.964012706201451"><ele>320.59999999999997</ele><time>2026-04-19T09:08:34Z</time></trkpt><trkpt lat="44.86838487879366" lon="7.9638967984935585"><ele>321.79999999999995</ele><time>2026-04-19T09:08:38Z</time></trkpt><trkpt lat="44.86823907461315" lon="7.9638285055225175"><ele>323.0</ele><time>2026-04-19T09:08:40Z</time></trkpt><trkpt lat="44.868151463950454" lon="7.963759282224465"><ele>323.0</ele><time>2026-04-19T09:08:42Z</time></trkpt><trkpt lat="44.86808109749662" lon="7.9637454320250765"><ele>323.0</ele><time>2026-04-19T09:08:43Z</time></trkpt><trkpt lat="44.867992853495736" lon="7.963739217160286"><ele>323.0</ele><time>2026-04-19T09:08:44Z</time></trkpt><trkpt lat="44.86788876231359" lon="7.9637353658457295"><ele>323.0</ele><time>2026-04-19T09:08:45Z</time></trkpt><trkpt lat="44.86776968256383" lon="7.963759621508777"><ele>323.0</ele><time>2026-04-19T09:08:46Z</time></trkpt><trkpt lat="44.867638781567145" lon="7.9638151176173"><ele>322.33333333333337</ele><time>2026-04-19T09:08:47Z</time></trkpt><trkpt lat="44.867482197373135" lon="7.963884583536642"><ele>321.6666666666667</ele><time>2026-04-19T09:08:48Z</time></trkpt><trkpt lat="44.867317874056944" lon="7.963952751486872"><ele>321.0</ele><time>2026-04-19T09:08:49Z</time></trkpt><trkpt lat="44.86713504777363" lon="7.964032506563496"><ele>321.0</ele><time>2026-04-19T09:08:50Z</time></trkpt><trkpt lat="44.86693780081691" lon="7.964120982914345"><ele>321.0</ele><time>2026-04-19T09:08:51Z</time></trkpt><trkpt lat="44.86673854546059" lon="7.964197632828546"><ele>321.0</ele><time>2026-04-19T09:08:52Z</time></trkpt><trkpt lat="44.86652392011183" lon="7.96426127043756"><ele>316.3333333333333</ele><time>2026-04-19T09:08:53Z</time></trkpt><trkpt lat="44.86630513051693" lon="7.964310896708043"><ele>311.66666666666663</ele><time>2026-04-19T09:08:54Z</time></trkpt><trkpt lat="44.86608612189688" lon="7.964389757365325"><ele>307.0</ele><time>2026-04-19T09:08:55Z</time></trkpt><trkpt lat="44.865873715356905" lon="7.964517078830709"><ele>307.0</ele><time>2026-04-19T09:08:56Z</time></trkpt><trkpt lat="44.86568811937437" lon="7.964646849877807"><ele>307.0</ele><time>2026-04-19T09:08:57Z</time></trkpt><trkpt lat="44.86549046562" lon="7.964732548034913"><ele>307.0</ele><time>2026-04-19T09:08:58Z</time></trkpt><trkpt lat="44.865278550846305" lon="7.964774902118173"><ele>309.3333333333333</ele><time>2026-04-19T09:08:59Z</time></trkpt><trkpt lat="44.86506292653187" lon="7.964799529507039"><ele>311.6666666666667</ele><time>2026-04-19T09:09:00Z</time></trkpt><trkpt lat="44.864850983255636" lon="7.964830771330598"><ele>314.0</ele><time>2026-04-19T09:09:01Z</time></trkpt><trkpt lat="44.864663226856656" lon="7.964859298814715"><ele>314.0</ele><time>2026-04-19T09:09:02Z</time></trkpt><trkpt lat="44.86451255007788" lon="7.964853566141227"><ele>314.0</ele><time>2026-04-19T09:09:03Z</time></trkpt><trkpt lat="44.864374393708744" lon="7.964805409471948"><ele>314.0</ele><time>2026-04-19T09:09:04Z</time></trkpt><trkpt lat="44.86425965867643" lon="7.964690454003533"><ele>314.0</ele><time>2026-04-19T09:09:05Z</time></trkpt><trkpt lat="44.8641232479296" lon="7.964584534745635"><ele>313.6666666666667</ele><time>2026-04-19T09:09:06Z</time></trkpt><trkpt lat="44.86399779626599" lon="7.964443330943043"><ele>313.3333333333333</ele><time>2026-04-19T09:09:07Z</time></trkpt><trkpt lat="44.86389279230782" lon="7.964289782159569"><ele>313.0</ele><time>2026-04-19T09:09:08Z</time></trkpt><trkpt lat="44.86384134186524" lon="7.964076921459516"><ele>315.3333333333333</ele><time>2026-04-19T09:09:09Z</time></trkpt><trkpt lat="44.8637810257714" lon="7.963836253687437"><ele>317.6666666666667</ele><time>2026-04-19T09:09:10Z</time></trkpt><trkpt lat="44.863708055541395" lon="7.9635866637761765"><ele>320.0</ele><time>2026-04-19T09:09:11Z</time></trkpt><trkpt lat="44.863654601680125" lon="7.963320477799508"><ele>320.0</ele><time>2026-04-19T09:09:12Z</time></trkpt><trkpt lat="44.86359825583613" lon="7.963083796617545"><ele>320.0</ele><time>2026-04-19T09:09:13Z</time></trkpt><trkpt lat="44.86354451219771" lon="7.962860426281806"><ele>320.0</ele><time>2026-04-19T09:09:14Z</time></trkpt><trkpt lat="44.86349539933808" lon="7.962631922906511"><ele>320.0</ele><time>2026-04-19T09:09:15Z</time></trkpt><trkpt lat="44.86343590153961" lon="7.962444694887478"><ele>320.0</ele><time>2026-04-19T09:09:16Z</time></trkpt><trkpt lat="44.86333727770795" lon="7.962321727283517"><ele>320.0</ele><time>2026-04-19T09:09:17Z</time></trkpt><trkpt lat="44.86321549299803" lon="7.96218942740429"><ele>320.0</ele><time>2026-04-19T09:09:18Z</time></trkpt><trkpt lat="44.86305526849357" lon="7.962100897281778"><ele>320.0</ele><time>2026-04-19T09:09:19Z</time></trkpt><trkpt lat="44.86287390755931" lon="7.96203121335655"><ele>320.0</ele><time>2026-04-19T09:09:20Z</time></trkpt><trkpt lat="44.86267982956495" lon="7.961989085742987"><ele>320.0</ele><time>2026-04-19T09:09:21Z</time></trkpt><trkpt lat="44.86249691561452" lon="7.961940003253372"><ele>318.0</ele><time>2026-04-19T09:09:22Z</time></trkpt><trkpt lat="44.8623200652962" lon="7.961888099877098"><ele>316.0</ele><time>2026-04-19T09:09:23Z</time></trkpt><trkpt lat="44.862152551958495" lon="7.961831743470401"><ele>314.0</ele><time>2026-04-19T09:09:24Z</time></trkpt><trkpt lat="44.86199908684766" lon="7.9617750001314365"><ele>314.0</ele><time>2026-04-19T09:09:25Z</time></trkpt><trkpt lat="44.861854023863735" lon="7.961727207179603"><ele>314.0</ele><time>2026-04-19T09:09:26Z</time></trkpt><trkpt lat="44.86170626152039" lon="7.961676985694702"><ele>314.0</ele><time>2026-04-19T09:09:27Z</time></trkpt><trkpt lat="44.861558274155335" lon="7.961622535842209"><ele>317.0</ele><time>2026-04-19T09:09:28Z</time></trkpt><trkpt lat="44.861401990195105" lon="7.961590833612331"><ele>320.0</ele><time>2026-04-19T09:09:29Z</time></trkpt><trkpt lat="44.86124438331428" lon="7.961619542468563"><ele>323.0</ele><time>2026-04-19T09:09:30Z</time></trkpt><trkpt lat="44.861068622737065" lon="7.96168653199048"><ele>320.6666666666667</ele><time>2026-04-19T09:09:31Z</time></trkpt><trkpt lat="44.86088539717588" lon="7.961758377710085"><ele>318.3333333333333</ele><time>2026-04-19T09:09:32Z</time></trkpt><trkpt lat="44.86070078105434" lon="7.9618158722976045"><ele>316.0</ele><time>2026-04-19T09:09:33Z</time></trkpt><trkpt lat="44.86050577750933" lon="7.961835604093008"><ele>316.0</ele><time>2026-04-19T09:09:34Z</time></trkpt><trkpt lat="44.860318021967316" lon="7.9618481595727495"><ele>316.0</ele><time>2026-04-19T09:09:35.001Z</time></trkpt><trkpt lat="44.86013378540951" lon="7.961850860382894"><ele>316.0</ele><time>2026-04-19T09:09:36.001Z</time></trkpt><trkpt lat="44.85995110552572" lon="7.961860283086286"><ele>317.66666666666663</ele><time>2026-04-19T09:09:37.001Z</time></trkpt><trkpt lat="44.85975553002009" lon="7.961877103686497"><ele>319.3333333333333</ele><time>2026-04-19T09:09:38.001Z</time></trkpt><trkpt lat="44.85955367822249" lon="7.961887301443382"><ele>321.0</ele><time>2026-04-19T09:09:39.001Z</time></trkpt><trkpt lat="44.8593817048976" lon="7.961883902625235"><ele>319.75</ele><time>2026-04-19T09:09:40.001Z</time></trkpt><trkpt lat="44.85924055367701" lon="7.9618829949338625"><ele>318.5</ele><time>2026-04-19T09:09:41.001Z</time></trkpt><trkpt lat="44.859110010426676" lon="7.961889619837266"><ele>317.25</ele><time>2026-04-19T09:09:42.001Z</time></trkpt><trkpt lat="44.858995948148255" lon="7.961885841826066"><ele>316.0</ele><time>2026-04-19T09:09:43.001Z</time></trkpt><trkpt lat="44.85889999117213" lon="7.961869016508732"><ele>316.0</ele><time>2026-04-19T09:09:44.001Z</time></trkpt><trkpt lat="44.858818648782616" lon="7.9618186194078575"><ele>316.0</ele><time>2026-04-19T09:09:45.001Z</time></trkpt><trkpt lat="44.85873826786848" lon="7.9617373882565845"><ele>316.0</ele><time>2026-04-19T09:09:46.001Z</time></trkpt><trkpt lat="44.85867553817587" lon="7.961639724340321"><ele>316.0</ele><time>2026-04-19T09:09:47.001Z</time></trkpt><trkpt lat="44.85862746223443" lon="7.961517762368456"><ele>316.0</ele><time>2026-04-19T09:09:48.001Z</time></trkpt><trkpt lat="44.858601851012466" lon="7.961368059471003"><ele>318.75</ele><time>2026-04-19T09:09:49.001Z</time></trkpt><trkpt lat="44.85859330295764" lon="7.9611959751884775"><ele>321.5</ele><time>2026-04-19T09:09:50.001Z</time></trkpt><trkpt lat="44.85859189300372" lon="7.961032515419241"><ele>324.25</ele><time>2026-04-19T09:09:51.001Z</time></trkpt><trkpt lat="44.858586065416226" lon="7.96087561128099"><ele>327.0</ele><time>2026-04-19T09:09:52.001Z</time></trkpt><trkpt lat="44.85857919972801" lon="7.960711949330194"><ele>327.5</ele><time>2026-04-19T09:09:53.001Z</time></trkpt><trkpt lat="44.85857249412482" lon="7.960551890872521"><ele>328.0</ele><time>2026-04-19T09:09:54.001Z</time></trkpt><trkpt lat="44.85855021761992" lon="7.960397360208288"><ele>328.5</ele><time>2026-04-19T09:09:55.001Z</time></trkpt><trkpt lat="44.858492976120345" lon="7.960251346683168"><ele>329.0</ele><time>2026-04-19T09:09:56.001Z</time></trkpt><trkpt lat="44.85841403486257" lon="7.960126882464889"><ele>327.0</ele><time>2026-04-19T09:09:57.001Z</time></trkpt><trkpt lat="44.85830728376307" lon="7.960033028363765"><ele>325.0</ele><time>2026-04-19T09:09:58.001Z</time></trkpt><trkpt lat="44.85818306967848" lon="7.959965691994686"><ele>323.0</ele><time>2026-04-19T09:09:59.001Z</time></trkpt><trkpt lat="44.85805406512443" lon="7.959905748976411"><ele>321.0</ele><time>2026-04-19T09:10:00.001Z</time></trkpt><trkpt lat="44.857925847593265" lon="7.959849189298069"><ele>321.0</ele><time>2026-04-19T09:10:01.001Z</time></trkpt><trkpt lat="44.85779368143009" lon="7.959797271667861"><ele>321.0</ele><time>2026-04-19T09:10:02.001Z</time></trkpt><trkpt lat="44.8576568872564" lon="7.959757686446953"><ele>321.0</ele><time>2026-04-19T09:10:03.001Z</time></trkpt><trkpt lat="44.857520178432374" lon="7.959736299393646"><ele>321.0</ele><time>2026-04-19T09:10:04.001Z</time></trkpt><trkpt lat="44.85737667948017" lon="7.959722926450357"><ele>321.0</ele><time>2026-04-19T09:10:05.001Z</time></trkpt><trkpt lat="44.857234849906604" lon="7.959702929861175"><ele>321.0</ele><time>2026-04-19T09:10:06.001Z</time></trkpt><trkpt lat="44.857086047365506" lon="7.95967820602982"><ele>321.0</ele><time>2026-04-19T09:10:07.001Z</time></trkpt><trkpt lat="44.85693880706294" lon="7.959658429370826"><ele>321.0</ele><time>2026-04-19T09:10:08.001Z</time></trkpt><trkpt lat="44.85679309137551" lon="7.959629027953999"><ele>320.6666666666667</ele><time>2026-04-19T09:10:09Z</time></trkpt><trkpt lat="44.8566496985017" lon="7.9595691234181025"><ele>320.33333333333337</ele><time>2026-04-19T09:10:10Z</time></trkpt><trkpt lat="44.856515193357104" lon="7.959473619911507"><ele>320.0</ele><time>2026-04-19T09:10:11Z</time></trkpt><trkpt lat="44.856391409695966" lon="7.959343300830904"><ele>320.6666666666667</ele><time>2026-04-19T09:10:12Z</time></trkpt><trkpt lat="44.85627221872375" lon="7.959189933719762"><ele>321.3333333333333</ele><time>2026-04-19T09:10:13Z</time></trkpt><trkpt lat="44.856150056354544" lon="7.959033266752184"><ele>322.0</ele><time>2026-04-19T09:10:14Z</time></trkpt><trkpt lat="44.85602463899036" lon="7.958875941390233"><ele>322.66666666666663</ele><time>2026-04-19T09:10:15Z</time></trkpt><trkpt lat="44.855900252138305" lon="7.958720344778501"><ele>323.3333333333333</ele><time>2026-04-19T09:10:16Z</time></trkpt><trkpt lat="44.85577369265502" lon="7.958561736572925"><ele>324.0</ele><time>2026-04-19T09:10:17Z</time></trkpt><trkpt lat="44.85564986224136" lon="7.958399646918018"><ele>325.3333333333333</ele><time>2026-04-19T09:10:18Z</time></trkpt><trkpt lat="44.85553314345753" lon="7.958234320025847"><ele>326.66666666666663</ele><time>2026-04-19T09:10:19Z</time></trkpt><trkpt lat="44.85542595966515" lon="7.958062506454239"><ele>328.0</ele><time>2026-04-19T09:10:20Z</time></trkpt><trkpt lat="44.855327134860076" lon="7.957883804909401"><ele>328.0</ele><time>2026-04-19T09:10:21Z</time></trkpt><trkpt lat="44.85523424087212" lon="7.957715020863633"><ele>328.0</ele><time>2026-04-19T09:10:22Z</time></trkpt><trkpt lat="44.85513735961188" lon="7.957557711052016"><ele>328.0</ele><time>2026-04-19T09:10:23Z</time></trkpt><trkpt lat="44.85503284822825" lon="7.957426501245946"><ele>328.0</ele><time>2026-04-19T09:10:24Z</time></trkpt><trkpt lat="44.85491808607031" lon="7.9573201538074505"><ele>329.25</ele><time>2026-04-19T09:10:25Z</time></trkpt><trkpt lat="44.854800326699795" lon="7.957224590016433"><ele>330.5</ele><time>2026-04-19T09:10:26Z</time></trkpt><trkpt lat="44.8546777858229" lon="7.957138722920957"><ele>331.75</ele><time>2026-04-19T09:10:27Z</time></trkpt><trkpt lat="44.85455535599129" lon="7.9570446139325295"><ele>333.0</ele><time>2026-04-19T09:10:28Z</time></trkpt><trkpt lat="44.85443783398618" lon="7.9569413145627355"><ele>333.0</ele><time>2026-04-19T09:10:29Z</time></trkpt><trkpt lat="44.85432605054128" lon="7.956833755755467"><ele>333.0</ele><time>2026-04-19T09:10:30Z</time></trkpt><trkpt lat="44.85420594458576" lon="7.956721407760184"><ele>333.0</ele><time>2026-04-19T09:10:31Z</time></trkpt><trkpt lat="44.854077056792676" lon="7.956605976915711"><ele>333.0</ele><time>2026-04-19T09:10:32Z</time></trkpt><trkpt lat="44.853943939759915" lon="7.956486236835296"><ele>334.6666666666667</ele><time>2026-04-19T09:10:33Z</time></trkpt><trkpt lat="44.85380877093719" lon="7.9563615113464525"><ele>336.33333333333337</ele><time>2026-04-19T09:10:34Z</time></trkpt><trkpt lat="44.85367009739628" lon="7.956236892442535"><ele>338.0</ele><time>2026-04-19T09:10:35Z</time></trkpt><trkpt lat="44.85353200674105" lon="7.956109179047095"><ele>337.6666666666667</ele><time>2026-04-19T09:10:36Z</time></trkpt><trkpt lat="44.853390990726936" lon="7.955976297458365"><ele>337.3333333333333</ele><time>2026-04-19T09:10:37Z</time></trkpt><trkpt lat="44.85324653613424" lon="7.9558404965179506"><ele>337.0</ele><time>2026-04-19T09:10:38Z</time></trkpt><trkpt lat="44.853096426147" lon="7.95570529736945"><ele>337.0</ele><time>2026-04-19T09:10:39Z</time></trkpt><trkpt lat="44.852939483566814" lon="7.95556904617545"><ele>337.0</ele><time>2026-04-19T09:10:40Z</time></trkpt><trkpt lat="44.85277090807106" lon="7.9554374876839535"><ele>337.0</ele><time>2026-04-19T09:10:41Z</time></trkpt><trkpt lat="44.852597172975926" lon="7.955326776781548"><ele>336.66666666666663</ele><time>2026-04-19T09:10:42Z</time></trkpt><trkpt lat="44.85241192650967" lon="7.955221777834473"><ele>336.3333333333333</ele><time>2026-04-19T09:10:43Z</time></trkpt><trkpt lat="44.85222716074757" lon="7.955105992298849"><ele>336.0</ele><time>2026-04-19T09:10:44Z</time></trkpt><trkpt lat="44.852043520192424" lon="7.954991086386548"><ele>335.6666666666667</ele><time>2026-04-19T09:10:45Z</time></trkpt><trkpt lat="44.8518551852886" lon="7.954875716930459"><ele>335.33333333333337</ele><time>2026-04-19T09:10:46Z</time></trkpt><trkpt lat="44.85166514066752" lon="7.954756256000935"><ele>335.0</ele><time>2026-04-19T09:10:47Z</time></trkpt><trkpt lat="44.851473481745266" lon="7.954637842362316"><ele>336.0</ele><time>2026-04-19T09:10:48Z</time></trkpt><trkpt lat="44.85128045948105" lon="7.95452224827251"><ele>337.0</ele><time>2026-04-19T09:10:49Z</time></trkpt><trkpt lat="44.85108843143732" lon="7.95440454619427"><ele>338.0</ele><time>2026-04-19T09:10:50Z</time></trkpt><trkpt lat="44.85090461399534" lon="7.9542924115687095"><ele>338.33333333333337</ele><time>2026-04-19T09:10:51Z</time></trkpt><trkpt lat="44.85073661142495" lon="7.954191030916897"><ele>338.6666666666667</ele><time>2026-04-19T09:10:52Z</time></trkpt><trkpt lat="44.8505803907172" lon="7.954097352155888"><ele>339.0</ele><time>2026-04-19T09:10:53Z</time></trkpt><trkpt lat="44.85042643182805" lon="7.954008000257627"><ele>339.0</ele><time>2026-04-19T09:10:54Z</time></trkpt><trkpt lat="44.850288053358675" lon="7.953923228660063"><ele>339.0</ele><time>2026-04-19T09:10:55Z</time></trkpt><trkpt lat="44.85017108102377" lon="7.953850585976662"><ele>339.0</ele><time>2026-04-19T09:10:56Z</time></trkpt><trkpt lat="44.85004813603785" lon="7.953794902965928"><ele>339.0</ele><time>2026-04-19T09:10:57Z</time></trkpt><trkpt lat="44.849910043626544" lon="7.953759513956941"><ele>338.6666666666667</ele><time>2026-04-19T09:10:58Z</time></trkpt><trkpt lat="44.84976112151283" lon="7.953758589582148"><ele>338.33333333333337</ele><time>2026-04-19T09:10:59Z</time></trkpt><trkpt lat="44.84960546294017" lon="7.953792193252506"><ele>338.0</ele><time>2026-04-19T09:11:00Z</time></trkpt><trkpt lat="44.849449272241735" lon="7.953846278093693"><ele>338.33333333333337</ele><time>2026-04-19T09:11:01Z</time></trkpt><trkpt lat="44.84929079473577" lon="7.9539113758292785"><ele>338.6666666666667</ele><time>2026-04-19T09:11:02Z</time></trkpt><trkpt lat="44.849130411646854" lon="7.953990848854574"><ele>339.0</ele><time>2026-04-19T09:11:03Z</time></trkpt><trkpt lat="44.84895836444861" lon="7.954077939104929"><ele>339.0</ele><time>2026-04-19T09:11:04Z</time></trkpt><trkpt lat="44.848785795711095" lon="7.954155600313165"><ele>339.0</ele><time>2026-04-19T09:11:05Z</time></trkpt><trkpt lat="44.84861090984876" lon="7.954221448584809"><ele>339.0</ele><time>2026-04-19T09:11:06Z</time></trkpt><trkpt lat="44.84843647330227" lon="7.954277088423295"><ele>339.3333333333333</ele><time>2026-04-19T09:11:07Z</time></trkpt><trkpt lat="44.84826204139553" lon="7.954321479886693"><ele>339.66666666666663</ele><time>2026-04-19T09:11:08Z</time></trkpt><trkpt lat="44.84808334990673" lon="7.9543509820814196"><ele>340.0</ele><time>2026-04-19T09:11:09Z</time></trkpt><trkpt lat="44.84790743345675" lon="7.954376696758794"><ele>340.0</ele><time>2026-04-19T09:11:10Z</time></trkpt><trkpt lat="44.84772827669844" lon="7.9543947883587744"><ele>340.0</ele><time>2026-04-19T09:11:11Z</time></trkpt><trkpt lat="44.84754955280542" lon="7.954406517603874"><ele>340.0</ele><time>2026-04-19T09:11:12Z</time></trkpt><trkpt lat="44.8473677394027" lon="7.95441105760211"><ele>343.0</ele><time>2026-04-19T09:11:13Z</time></trkpt><trkpt lat="44.847186380811614" lon="7.954418392063801"><ele>346.0</ele><time>2026-04-19T09:11:14Z</time></trkpt><trkpt lat="44.8470046269577" lon="7.954427157902511"><ele>349.0</ele><time>2026-04-19T09:11:15Z</time></trkpt><trkpt lat="44.846828260461216" lon="7.9544352513003975"><ele>349.3333333333333</ele><time>2026-04-19T09:11:16Z</time></trkpt><trkpt lat="44.84664972315256" lon="7.954442901229221"><ele>349.6666666666667</ele><time>2026-04-19T09:11:17Z</time></trkpt><trkpt lat="44.846467593482934" lon="7.954454752654402"><ele>350.0</ele><time>2026-04-19T09:11:18Z</time></trkpt><trkpt lat="44.84628331662243" lon="7.95447199482182"><ele>350.0</ele><time>2026-04-19T09:11:19Z</time></trkpt><trkpt lat="44.84609407250612" lon="7.954494575395038"><ele>350.0</ele><time>2026-04-19T09:11:20Z</time></trkpt><trkpt lat="44.84590149931634" lon="7.954519878316584"><ele>350.0</ele><time>2026-04-19T09:11:21Z</time></trkpt><trkpt lat="44.84570460160412" lon="7.954565746839685"><ele>348.0</ele><time>2026-04-19T09:11:22Z</time></trkpt><trkpt lat="44.84550842671152" lon="7.954621169334199"><ele>346.0</ele><time>2026-04-19T09:11:23.001Z</time></trkpt><trkpt lat="44.84531077164516" lon="7.954688490037807"><ele>344.0</ele><time>2026-04-19T09:11:24.001Z</time></trkpt><trkpt lat="44.845109933952116" lon="7.954754900489338"><ele>344.0</ele><time>2026-04-19T09:11:25.001Z</time></trkpt><trkpt lat="44.84491148239661" lon="7.954824126966691"><ele>344.0</ele><time>2026-04-19T09:11:26.001Z</time></trkpt><trkpt lat="44.844711321677416" lon="7.954898649272196"><ele>344.0</ele><time>2026-04-19T09:11:27.001Z</time></trkpt><trkpt lat="44.84452136534336" lon="7.954979270118656"><ele>344.33333333333337</ele><time>2026-04-19T09:11:28.001Z</time></trkpt><trkpt lat="44.844328287400955" lon="7.955066813463564"><ele>344.6666666666667</ele><time>2026-04-19T09:11:29.001Z</time></trkpt><trkpt lat="44.84413692811879" lon="7.955166489463809"><ele>345.0</ele><time>2026-04-19T09:11:30.001Z</time></trkpt><trkpt lat="44.8439428093637" lon="7.955256464676112"><ele>346.6666666666667</ele><time>2026-04-19T09:11:31.001Z</time></trkpt><trkpt lat="44.84375600291519" lon="7.955349926587899"><ele>348.33333333333337</ele><time>2026-04-19T09:11:32.001Z</time></trkpt><trkpt lat="44.8435706360726" lon="7.955444967773361"><ele>350.0</ele><time>2026-04-19T09:11:33.001Z</time></trkpt><trkpt lat="44.843388136034015" lon="7.955538592197987"><ele>350.0</ele><time>2026-04-19T09:11:34.001Z</time></trkpt><trkpt lat="44.84320479211402" lon="7.955637538094971"><ele>350.0</ele><time>2026-04-19T09:11:35.001Z</time></trkpt><trkpt lat="44.84301898854689" lon="7.955735442121326"><ele>350.0</ele><time>2026-04-19T09:11:36.001Z</time></trkpt><trkpt lat="44.84283402046255" lon="7.955829025566124"><ele>349.0</ele><time>2026-04-19T09:11:37.001Z</time></trkpt><trkpt lat="44.84265218916065" lon="7.955924583324726"><ele>348.0</ele><time>2026-04-19T09:11:38.001Z</time></trkpt><trkpt lat="44.84247184672226" lon="7.956018441606387"><ele>347.0</ele><time>2026-04-19T09:11:39.001Z</time></trkpt><trkpt lat="44.842293935104536" lon="7.956107649728416"><ele>346.33333333333337</ele><time>2026-04-19T09:11:40.001Z</time></trkpt><trkpt lat="44.84211864403418" lon="7.956195563131598"><ele>345.6666666666667</ele><time>2026-04-19T09:11:41.001Z</time></trkpt><trkpt lat="44.84194621478237" lon="7.956284086197022"><ele>345.0</ele><time>2026-04-19T09:11:42.001Z</time></trkpt><trkpt lat="44.841770796075245" lon="7.956373321092225"><ele>346.6666666666667</ele><time>2026-04-19T09:11:43.001Z</time></trkpt><trkpt lat="44.84159839259887" lon="7.956463218516468"><ele>348.33333333333337</ele><time>2026-04-19T09:11:44.001Z</time></trkpt><trkpt lat="44.84142236553607" lon="7.9565406727851435"><ele>350.0</ele><time>2026-04-19T09:11:45.001Z</time></trkpt><trkpt lat="44.84124236721611" lon="7.9565912599384"><ele>350.0</ele><time>2026-04-19T09:11:46.001Z</time></trkpt><trkpt lat="44.8410516196085" lon="7.956605482403829"><ele>350.0</ele><time>2026-04-19T09:11:47.001Z</time></trkpt><trkpt lat="44.84086272894953" lon="7.956604076198759"><ele>350.0</ele><time>2026-04-19T09:11:48.001Z</time></trkpt><trkpt lat="44.8406719003696" lon="7.9566098058934625"><ele>351.0</ele><time>2026-04-19T09:11:49.001Z</time></trkpt><trkpt lat="44.840497992678515" lon="7.95661744919923"><ele>352.0</ele><time>2026-04-19T09:11:50.001Z</time></trkpt><trkpt lat="44.84033656303108" lon="7.9566143713541635"><ele>353.0</ele><time>2026-04-19T09:11:51.001Z</time></trkpt><trkpt lat="44.8401766312523" lon="7.956575711377282"><ele>353.6666666666667</ele><time>2026-04-19T09:11:52.001Z</time></trkpt><trkpt lat="44.84001314140467" lon="7.956496351457381"><ele>354.3333333333333</ele><time>2026-04-19T09:11:53.001Z</time></trkpt><trkpt lat="44.83985168491223" lon="7.956388202015628"><ele>355.0</ele><time>2026-04-19T09:11:54.001Z</time></trkpt><trkpt lat="44.83968648784324" lon="7.956269895143829"><ele>355.0</ele><time>2026-04-19T09:11:55.001Z</time></trkpt><trkpt lat="44.83953115110959" lon="7.956179603198323"><ele>355.0</ele><time>2026-04-19T09:11:56.001Z</time></trkpt><trkpt lat="44.83937946190011" lon="7.956135479244419"><ele>355.0</ele><time>2026-04-19T09:11:57.001Z</time></trkpt><trkpt lat="44.83922636664794" lon="7.956136327601016"><ele>354.0</ele><time>2026-04-19T09:11:58.001Z</time></trkpt><trkpt lat="44.83907337440586" lon="7.956203738597808"><ele>353.0</ele><time>2026-04-19T09:11:59.001Z</time></trkpt><trkpt lat="44.8389297479505" lon="7.956310531485518"><ele>352.0</ele><time>2026-04-19T09:12:00.001Z</time></trkpt><trkpt lat="44.838804510725055" lon="7.956411886063493"><ele>352.0</ele><time>2026-04-19T09:12:01.001Z</time></trkpt><trkpt lat="44.838679051181394" lon="7.956480801060674"><ele>352.0</ele><time>2026-04-19T09:12:02.001Z</time></trkpt><trkpt lat="44.83854310083083" lon="7.956513204381818"><ele>352.0</ele><time>2026-04-19T09:12:03.001Z</time></trkpt><trkpt lat="44.83840972256553" lon="7.956511448645424"><ele>352.0</ele><time>2026-04-19T09:12:04.001Z</time></trkpt><trkpt lat="44.838295284888424" lon="7.956472481027209"><ele>353.3333333333333</ele><time>2026-04-19T09:12:05.001Z</time></trkpt><trkpt lat="44.83820180037279" lon="7.956429591603364"><ele>354.66666666666663</ele><time>2026-04-19T09:12:06.001Z</time></trkpt><trkpt lat="44.83811795662647" lon="7.956394754474942"><ele>356.0</ele><time>2026-04-19T09:12:07.001Z</time></trkpt><trkpt lat="44.83804372142711" lon="7.95635416203066"><ele>357.3333333333333</ele><time>2026-04-19T09:12:08.001Z</time></trkpt><trkpt lat="44.83798117306404" lon="7.956313298451088"><ele>358.6666666666667</ele><time>2026-04-19T09:12:09.001Z</time></trkpt><trkpt lat="44.837909452326535" lon="7.956270903235363"><ele>360.0</ele><time>2026-04-19T09:12:11.001Z</time></trkpt><trkpt lat="44.837859893251895" lon="7.956196153198811"><ele>360.0</ele><time>2026-04-19T09:12:13.001Z</time></trkpt><trkpt lat="44.83802327085294" lon="7.9560322781843125"><ele>360.0</ele><time>2026-04-19T09:12:14.001Z</time></trkpt><trkpt lat="44.83810176607579" lon="7.955940591268781"><ele>360.0</ele><time>2026-04-19T09:12:15Z</time></trkpt><trkpt lat="44.83819018381437" lon="7.955826891219569"><ele>360.0</ele><time>2026-04-19T09:12:16Z</time></trkpt><trkpt lat="44.83828940967444" lon="7.9556881439642"><ele>361.0</ele><time>2026-04-19T09:12:17Z</time></trkpt><trkpt lat="44.838393569496986" lon="7.955542022910505"><ele>362.0</ele><time>2026-04-19T09:12:18Z</time></trkpt><trkpt lat="44.838507577616035" lon="7.955385428656513"><ele>363.0</ele><time>2026-04-19T09:12:19Z</time></trkpt><trkpt lat="44.83863347233059" lon="7.955207407576455"><ele>364.3333333333333</ele><time>2026-04-19T09:12:20Z</time></trkpt><trkpt lat="44.83876063762792" lon="7.955035339315502"><ele>365.66666666666663</ele><time>2026-04-19T09:12:21Z</time></trkpt><trkpt lat="44.83889111049515" lon="7.954856110248891"><ele>367.0</ele><time>2026-04-19T09:12:22Z</time></trkpt><trkpt lat="44.83902950055889" lon="7.954678891158758"><ele>367.0</ele><time>2026-04-19T09:12:23Z</time></trkpt><trkpt lat="44.839172697053776" lon="7.954509774939608"><ele>367.0</ele><time>2026-04-19T09:12:24Z</time></trkpt><trkpt lat="44.839305064926435" lon="7.9543618979882895"><ele>367.0</ele><time>2026-04-19T09:12:25Z</time></trkpt><trkpt lat="44.83942489735341" lon="7.954224542606718"><ele>366.75</ele><time>2026-04-19T09:12:26Z</time></trkpt><trkpt lat="44.8395353084173" lon="7.954109309305327"><ele>366.5</ele><time>2026-04-19T09:12:27Z</time></trkpt><trkpt lat="44.83963163535905" lon="7.954014758124902"><ele>366.25</ele><time>2026-04-19T09:12:28Z</time></trkpt><trkpt lat="44.83971506597721" lon="7.9539276366245035"><ele>366.0</ele><time>2026-04-19T09:12:29Z</time></trkpt><trkpt lat="44.8397931653305" lon="7.953843107361796"><ele>366.0</ele><time>2026-04-19T09:12:30Z</time></trkpt><trkpt lat="44.839856028858684" lon="7.953781758769589"><ele>366.0</ele><time>2026-04-19T09:12:31Z</time></trkpt><trkpt lat="44.83995713188542" lon="7.953709433359287"><ele>366.0</ele><time>2026-04-19T09:12:33Z</time></trkpt><trkpt lat="44.839891727258696" lon="7.953459310640827"><ele>366.0</ele><time>2026-04-19T09:12:35Z</time></trkpt><trkpt lat="44.83982367436422" lon="7.9533303581825505"><ele>365.75</ele><time>2026-04-19T09:12:36Z</time></trkpt><trkpt lat="44.839738990918164" lon="7.953193992547963"><ele>365.5</ele><time>2026-04-19T09:12:37Z</time></trkpt><trkpt lat="44.83966422099984" lon="7.953022788650717"><ele>365.25</ele><time>2026-04-19T09:12:38Z</time></trkpt><trkpt lat="44.83959537829408" lon="7.952849629065622"><ele>365.0</ele><time>2026-04-19T09:12:39Z</time></trkpt><trkpt lat="44.839539227539795" lon="7.952659299671657"><ele>364.5</ele><time>2026-04-19T09:12:40Z</time></trkpt><trkpt lat="44.839511963867594" lon="7.952452096495381"><ele>364.0</ele><time>2026-04-19T09:12:41Z</time></trkpt><trkpt lat="44.83949989648621" lon="7.952243233359002"><ele>363.5</ele><time>2026-04-19T09:12:42Z</time></trkpt><trkpt lat="44.839497491191324" lon="7.952055213150866"><ele>363.0</ele><time>2026-04-19T09:12:43Z</time></trkpt><trkpt lat="44.83947165503428" lon="7.951883864971724"><ele>363.0</ele><time>2026-04-19T09:12:44Z</time></trkpt><trkpt lat="44.83941512275117" lon="7.951750033913187"><ele>363.0</ele><time>2026-04-19T09:12:45Z</time></trkpt><trkpt lat="44.83932111667093" lon="7.951644185321085"><ele>363.0</ele><time>2026-04-19T09:12:46Z</time></trkpt><trkpt lat="44.83920489653916" lon="7.951523295629957"><ele>363.0</ele><time>2026-04-19T09:12:47Z</time></trkpt><trkpt lat="44.83909957367398" lon="7.951367777549155"><ele>362.25</ele><time>2026-04-19T09:12:48Z</time></trkpt><trkpt lat="44.83902488792711" lon="7.9512110001276195"><ele>361.5</ele><time>2026-04-19T09:12:49Z</time></trkpt><trkpt lat="44.838990605370675" lon="7.951036722451047"><ele>360.75</ele><time>2026-04-19T09:12:50Z</time></trkpt><trkpt lat="44.838971111830006" lon="7.950816646698427"><ele>360.0</ele><time>2026-04-19T09:12:51Z</time></trkpt><trkpt lat="44.838960981783664" lon="7.950581988270438"><ele>360.3333333333333</ele><time>2026-04-19T09:12:52Z</time></trkpt><trkpt lat="44.838941142891855" lon="7.950341347058052"><ele>360.66666666666663</ele><time>2026-04-19T09:12:53Z</time></trkpt><trkpt lat="44.838887465857454" lon="7.950128513094153"><ele>361.0</ele><time>2026-04-19T09:12:54Z</time></trkpt><trkpt lat="44.83880722650492" lon="7.949904876491532"><ele>361.0</ele><time>2026-04-19T09:12:55Z</time></trkpt><trkpt lat="44.83871914221221" lon="7.9496899786570365"><ele>361.0</ele><time>2026-04-19T09:12:56Z</time></trkpt><trkpt lat="44.83861144034482" lon="7.9494718016640835"><ele>361.0</ele><time>2026-04-19T09:12:57Z</time></trkpt><trkpt lat="44.83849852435171" lon="7.949252750310199"><ele>360.3333333333333</ele><time>2026-04-19T09:12:58Z</time></trkpt><trkpt lat="44.83839388760629" lon="7.9490324353896975"><ele>359.6666666666667</ele><time>2026-04-19T09:12:59Z</time></trkpt><trkpt lat="44.83830369603254" lon="7.948797106703701"><ele>359.0</ele><time>2026-04-19T09:13:00Z</time></trkpt><trkpt lat="44.838222400925126" lon="7.948554249490188"><ele>358.0</ele><time>2026-04-19T09:13:01Z</time></trkpt><trkpt lat="44.83814308030392" lon="7.948313787883821"><ele>357.0</ele><time>2026-04-19T09:13:02Z</time></trkpt><trkpt lat="44.83807327387437" lon="7.948081333946947"><ele>356.0</ele><time>2026-04-19T09:13:03Z</time></trkpt><trkpt lat="44.83802499838204" lon="7.94786979199361"><ele>356.0</ele><time>2026-04-19T09:13:04Z</time></trkpt><trkpt lat="44.837990566915536" lon="7.947661018608629"><ele>356.0</ele><time>2026-04-19T09:13:05Z</time></trkpt><trkpt lat="44.837987847418106" lon="7.947440331185106"><ele>356.0</ele><time>2026-04-19T09:13:06Z</time></trkpt><trkpt lat="44.838041183190846" lon="7.947220544528981"><ele>356.0</ele><time>2026-04-19T09:13:07Z</time></trkpt><trkpt lat="44.838107750753856" lon="7.947009193862471"><ele>356.0</ele><time>2026-04-19T09:13:08Z</time></trkpt><trkpt lat="44.83820263694804" lon="7.9468073103609544"><ele>356.0</ele><time>2026-04-19T09:13:09Z</time></trkpt><trkpt lat="44.838318914089776" lon="7.946618746953174"><ele>356.0</ele><time>2026-04-19T09:13:10Z</time></trkpt><trkpt lat="44.83845462446058" lon="7.9464333827593405"><ele>356.0</ele><time>2026-04-19T09:13:11Z</time></trkpt><trkpt lat="44.83859935871285" lon="7.9462441776425745"><ele>356.0</ele><time>2026-04-19T09:13:12Z</time></trkpt><trkpt lat="44.83873751106804" lon="7.946070412064093"><ele>356.0</ele><time>2026-04-19T09:13:13Z</time></trkpt><trkpt lat="44.83886230589514" lon="7.945914734738064"><ele>356.0</ele><time>2026-04-19T09:13:14Z</time></trkpt><trkpt lat="44.838975573928856" lon="7.9457868071902125"><ele>356.0</ele><time>2026-04-19T09:13:15Z</time></trkpt><trkpt lat="44.8390691795365" lon="7.9456653122131495"><ele>356.0</ele><time>2026-04-19T09:13:16Z</time></trkpt><trkpt lat="44.83917584230552" lon="7.945594822847054"><ele>356.0</ele><time>2026-04-19T09:13:17Z</time></trkpt><trkpt lat="44.83929530784355" lon="7.945597809022235"><ele>356.0</ele><time>2026-04-19T09:13:18Z</time></trkpt><trkpt lat="44.839411047436" lon="7.94558389881552"><ele>356.0</ele><time>2026-04-19T09:13:19.001Z</time></trkpt><trkpt lat="44.83951834593259" lon="7.94554463236964"><ele>356.0</ele><time>2026-04-19T09:13:20.001Z</time></trkpt><trkpt lat="44.83961075805161" lon="7.9454476544830515"><ele>355.5</ele><time>2026-04-19T09:13:21.001Z</time></trkpt><trkpt lat="44.83968081056899" lon="7.945342381345982"><ele>355.0</ele><time>2026-04-19T09:13:22.001Z</time></trkpt><trkpt lat="44.83974947507645" lon="7.945230964881283"><ele>354.5</ele><time>2026-04-19T09:13:23.001Z</time></trkpt><trkpt lat="44.839817510867526" lon="7.945092191138344"><ele>354.0</ele><time>2026-04-19T09:13:24.001Z</time></trkpt><trkpt lat="44.83989577115047" lon="7.944940581669766"><ele>354.0</ele><time>2026-04-19T09:13:25.001Z</time></trkpt><trkpt lat="44.839982574129756" lon="7.944775182170641"><ele>354.0</ele><time>2026-04-19T09:13:26.001Z</time></trkpt><trkpt lat="44.84007562142587" lon="7.944607130638256"><ele>354.0</ele><time>2026-04-19T09:13:27.001Z</time></trkpt><trkpt lat="44.840173856166096" lon="7.944431248866178"><ele>353.0</ele><time>2026-04-19T09:13:28.001Z</time></trkpt><trkpt lat="44.84027150557138" lon="7.944249647838961"><ele>352.0</ele><time>2026-04-19T09:13:29.001Z</time></trkpt><trkpt lat="44.84035443327291" lon="7.944074985926348"><ele>351.0</ele><time>2026-04-19T09:13:30.001Z</time></trkpt><trkpt lat="44.84042389458175" lon="7.943915087162533"><ele>350.0</ele><time>2026-04-19T09:13:31.001Z</time></trkpt><trkpt lat="44.8404881170378" lon="7.94376860877152"><ele>349.5</ele><time>2026-04-19T09:13:32.001Z</time></trkpt><trkpt lat="44.840552201485856" lon="7.943642222886908"><ele>349.0</ele><time>2026-04-19T09:13:33.001Z</time></trkpt><trkpt lat="44.84064894849082" lon="7.943575054157443"><ele>348.5</ele><time>2026-04-19T09:13:34.001Z</time></trkpt><trkpt lat="44.840751224468846" lon="7.9434983898475116"><ele>348.0</ele><time>2026-04-19T09:13:35.001Z</time></trkpt><trkpt lat="44.84086598732213" lon="7.943427192569412"><ele>348.0</ele><time>2026-04-19T09:13:36.001Z</time></trkpt><trkpt lat="44.84099042791758" lon="7.943369142619071"><ele>348.0</ele><time>2026-04-19T09:13:37.001Z</time></trkpt><trkpt lat="44.84111877927237" lon="7.943310926781282"><ele>348.0</ele><time>2026-04-19T09:13:38.001Z</time></trkpt><trkpt lat="44.84123812189501" lon="7.943229702924855"><ele>348.0</ele><time>2026-04-19T09:13:39.001Z</time></trkpt><trkpt lat="44.84134494616952" lon="7.943160099454403"><ele>348.0</ele><time>2026-04-19T09:13:40.001Z</time></trkpt><trkpt lat="44.84143215420538" lon="7.943059419585792"><ele>348.0</ele><time>2026-04-19T09:13:41.001Z</time></trkpt><trkpt lat="44.8415028888488" lon="7.942927580727871"><ele>348.0</ele><time>2026-04-19T09:13:42.001Z</time></trkpt><trkpt lat="44.84154963434293" lon="7.942765969658648"><ele>348.0</ele><time>2026-04-19T09:13:43.001Z</time></trkpt><trkpt lat="44.84158201550957" lon="7.942583059895394"><ele>348.0</ele><time>2026-04-19T09:13:44.001Z</time></trkpt><trkpt lat="44.841624779647205" lon="7.942421011062568"><ele>348.0</ele><time>2026-04-19T09:13:45.001Z</time></trkpt><trkpt lat="44.84168815271695" lon="7.942296981756705"><ele>348.0</ele><time>2026-04-19T09:13:46.001Z</time></trkpt><trkpt lat="44.84177849143686" lon="7.942219305076067"><ele>348.0</ele><time>2026-04-19T09:13:47.001Z</time></trkpt><trkpt lat="44.84189477390993" lon="7.942160317884404"><ele>347.5</ele><time>2026-04-19T09:13:48.001Z</time></trkpt><trkpt lat="44.842029182500795" lon="7.942108749163903"><ele>347.0</ele><time>2026-04-19T09:13:49.001Z</time></trkpt><trkpt lat="44.8421635536454" lon="7.94204961198627"><ele>346.5</ele><time>2026-04-19T09:13:50.001Z</time></trkpt><trkpt lat="44.842310187341106" lon="7.9419741263056824"><ele>346.0</ele><time>2026-04-19T09:13:51.001Z</time></trkpt><trkpt lat="44.84242343048884" lon="7.941858729305664"><ele>346.0</ele><time>2026-04-19T09:13:52.001Z</time></trkpt><trkpt lat="44.84253647187421" lon="7.941732836986923"><ele>346.0</ele><time>2026-04-19T09:13:53.001Z</time></trkpt><trkpt lat="44.84264783539862" lon="7.9415818269781635"><ele>346.0</ele><time>2026-04-19T09:13:54.001Z</time></trkpt><trkpt lat="44.84276649769807" lon="7.941441805340969"><ele>347.3333333333333</ele><time>2026-04-19T09:13:55.001Z</time></trkpt><trkpt lat="44.84289401071411" lon="7.941320833516464"><ele>348.6666666666667</ele><time>2026-04-19T09:13:56.001Z</time></trkpt><trkpt lat="44.84303110601424" lon="7.941220950866289"><ele>350.0</ele><time>2026-04-19T09:13:57.001Z</time></trkpt><trkpt lat="44.84316455531139" lon="7.941140343649301"><ele>350.0</ele><time>2026-04-19T09:13:58.001Z</time></trkpt><trkpt lat="44.84327998000211" lon="7.94107514245547"><ele>350.0</ele><time>2026-04-19T09:13:59.001Z</time></trkpt><trkpt lat="44.84337380760233" lon="7.940999635752445"><ele>350.0</ele><time>2026-04-19T09:14:00.001Z</time></trkpt><trkpt lat="44.843455518146435" lon="7.940911270434053"><ele>350.0</ele><time>2026-04-19T09:14:01.001Z</time></trkpt><trkpt lat="44.84350960770641" lon="7.940800399818082"><ele>350.0</ele><time>2026-04-19T09:14:02.001Z</time></trkpt><trkpt lat="44.84354466910731" lon="7.940673414064596"><ele>349.8</ele><time>2026-04-19T09:14:03.001Z</time></trkpt><trkpt lat="44.84356196911815" lon="7.940551752727156"><ele>349.6</ele><time>2026-04-19T09:14:04.001Z</time></trkpt><trkpt lat="44.843551291798235" lon="7.940436685455732"><ele>349.4</ele><time>2026-04-19T09:14:05.001Z</time></trkpt><trkpt lat="44.84351304680883" lon="7.940330404389224"><ele>349.2</ele><time>2026-04-19T09:14:06.001Z</time></trkpt><trkpt lat="44.84343498147709" lon="7.940232161669273"><ele>349.0</ele><time>2026-04-19T09:14:07.001Z</time></trkpt><trkpt lat="44.843340210401834" lon="7.940147312804851"><ele>348.2</ele><time>2026-04-19T09:14:08.001Z</time></trkpt><trkpt lat="44.84326185001196" lon="7.94004423002064"><ele>347.4</ele><time>2026-04-19T09:14:09.001Z</time></trkpt><trkpt lat="44.8432258150054" lon="7.939913111870077"><ele>346.6</ele><time>2026-04-19T09:14:10.001Z</time></trkpt><trkpt lat="44.84320354298448" lon="7.939750681262799"><ele>345.8</ele><time>2026-04-19T09:14:11.001Z</time></trkpt><trkpt lat="44.84320174459961" lon="7.939575915505474"><ele>345.0</ele><time>2026-04-19T09:14:12.001Z</time></trkpt><trkpt lat="44.84319668093367" lon="7.939391657948"><ele>345.5</ele><time>2026-04-19T09:14:13.001Z</time></trkpt><trkpt lat="44.843178560751" lon="7.939192353467542"><ele>346.0</ele><time>2026-04-19T09:14:14.001Z</time></trkpt><trkpt lat="44.843165476945074" lon="7.93902179504953"><ele>346.5</ele><time>2026-04-19T09:14:15.001Z</time></trkpt><trkpt lat="44.84311446565874" lon="7.938830294242115"><ele>347.0</ele><time>2026-04-19T09:14:16.001Z</time></trkpt><trkpt lat="44.843036633929806" lon="7.938630705449673"><ele>347.0</ele><time>2026-04-19T09:14:17.001Z</time></trkpt><trkpt lat="44.842946097780256" lon="7.938415109135234"><ele>347.0</ele><time>2026-04-19T09:14:18.001Z</time></trkpt><trkpt lat="44.842883804299476" lon="7.938214995634684"><ele>347.0</ele><time>2026-04-19T09:14:19.001Z</time></trkpt><trkpt lat="44.84284500997135" lon="7.9380108677985115"><ele>346.8</ele><time>2026-04-19T09:14:20.001Z</time></trkpt><trkpt lat="44.84281636826405" lon="7.937832615551387"><ele>346.6</ele><time>2026-04-19T09:14:21Z</time></trkpt><trkpt lat="44.84280750447041" lon="7.937692173081936"><ele>346.40000000000003</ele><time>2026-04-19T09:14:22Z</time></trkpt><trkpt lat="44.842806406451686" lon="7.9375553363198375"><ele>346.20000000000005</ele><time>2026-04-19T09:14:23Z</time></trkpt><trkpt lat="44.842828325856644" lon="7.937397963557877"><ele>346.0</ele><time>2026-04-19T09:14:24Z</time></trkpt><trkpt lat="44.842875774377" lon="7.937221261094063"><ele>346.0</ele><time>2026-04-19T09:14:25Z</time></trkpt><trkpt lat="44.8428965402094" lon="7.937023176813658"><ele>346.0</ele><time>2026-04-19T09:14:26Z</time></trkpt><trkpt lat="44.84288591764114" lon="7.936796605472829"><ele>346.0</ele><time>2026-04-19T09:14:27Z</time></trkpt><trkpt lat="44.84287172908478" lon="7.936558540847612"><ele>346.3333333333333</ele><time>2026-04-19T09:14:28Z</time></trkpt><trkpt lat="44.84286624255624" lon="7.936348477256683"><ele>346.6666666666667</ele><time>2026-04-19T09:14:29Z</time></trkpt><trkpt lat="44.842864922962995" lon="7.936131141203046"><ele>347.0</ele><time>2026-04-19T09:14:30Z</time></trkpt><trkpt lat="44.842865599684444" lon="7.935893204630776"><ele>347.6666666666667</ele><time>2026-04-19T09:14:31Z</time></trkpt><trkpt lat="44.842859131565575" lon="7.935664279946233"><ele>348.3333333333333</ele><time>2026-04-19T09:14:32Z</time></trkpt><trkpt lat="44.842848459434265" lon="7.935453684979016"><ele>349.0</ele><time>2026-04-19T09:14:33Z</time></trkpt><trkpt lat="44.84284711171143" lon="7.935256566895475"><ele>349.0</ele><time>2026-04-19T09:14:34Z</time></trkpt><trkpt lat="44.842842322388734" lon="7.935078833356336"><ele>349.0</ele><time>2026-04-19T09:14:35Z</time></trkpt><trkpt lat="44.842827985299266" lon="7.934928103052654"><ele>349.0</ele><time>2026-04-19T09:14:36Z</time></trkpt><trkpt lat="44.842778656445304" lon="7.934794434166875"><ele>349.0</ele><time>2026-04-19T09:14:37Z</time></trkpt><trkpt lat="44.84269898967285" lon="7.934637664334441"><ele>348.6</ele><time>2026-04-19T09:14:38Z</time></trkpt><trkpt lat="44.842592175511584" lon="7.934475856594839"><ele>348.2</ele><time>2026-04-19T09:14:39Z</time></trkpt><trkpt lat="44.84252743691793" lon="7.934355690202205"><ele>347.8</ele><time>2026-04-19T09:14:40Z</time></trkpt><trkpt lat="44.84250299959599" lon="7.934240129082168"><ele>347.40000000000003</ele><time>2026-04-19T09:14:41Z</time></trkpt><trkpt lat="44.8425072696218" lon="7.93409938076898"><ele>347.0</ele><time>2026-04-19T09:14:42Z</time></trkpt><trkpt lat="44.84253936491838" lon="7.933928469986079"><ele>347.0</ele><time>2026-04-19T09:14:43Z</time></trkpt><trkpt lat="44.84260146548793" lon="7.933744603174263"><ele>347.0</ele><time>2026-04-19T09:14:44Z</time></trkpt><trkpt lat="44.842688017348344" lon="7.933558480701877"><ele>347.0</ele><time>2026-04-19T09:14:45Z</time></trkpt><trkpt lat="44.84279651323982" lon="7.933384091637676"><ele>346.33333333333337</ele><time>2026-04-19T09:14:46Z</time></trkpt><trkpt lat="44.84292606491459" lon="7.933217131527703"><ele>345.6666666666667</ele><time>2026-04-19T09:14:47Z</time></trkpt><trkpt lat="44.843069407567164" lon="7.933030164737978"><ele>345.0</ele><time>2026-04-19T09:14:48Z</time></trkpt><trkpt lat="44.84322696751381" lon="7.932834330490277"><ele>345.0</ele><time>2026-04-19T09:14:49Z</time></trkpt><trkpt lat="44.84339369381638" lon="7.9326324007051205"><ele>345.0</ele><time>2026-04-19T09:14:50Z</time></trkpt><trkpt lat="44.843568928554134" lon="7.93242178990333"><ele>343.0</ele><time>2026-04-19T09:14:51Z</time></trkpt><trkpt lat="44.84375813269505" lon="7.9321968140071695"><ele>341.0</ele><time>2026-04-19T09:14:52Z</time></trkpt><trkpt lat="44.84393632818725" lon="7.932002934601192"><ele>341.0</ele><time>2026-04-19T09:14:53Z</time></trkpt><trkpt lat="44.84409864625566" lon="7.9318336814891035"><ele>341.0</ele><time>2026-04-19T09:14:54Z</time></trkpt><trkpt lat="44.84423405636296" lon="7.931651994182928"><ele>341.0</ele><time>2026-04-19T09:14:55Z</time></trkpt><trkpt lat="44.844367695547305" lon="7.931485457359116"><ele>340.33333333333337</ele><time>2026-04-19T09:14:56Z</time></trkpt><trkpt lat="44.84450169142003" lon="7.931314236107025"><ele>339.6666666666667</ele><time>2026-04-19T09:14:57Z</time></trkpt><trkpt lat="44.84465262488934" lon="7.931141595922122"><ele>339.0</ele><time>2026-04-19T09:14:58Z</time></trkpt><trkpt lat="44.844787428962086" lon="7.930987603907012"><ele>339.4</ele><time>2026-04-19T09:14:59Z</time></trkpt><trkpt lat="44.84489801023537" lon="7.930880149267308"><ele>339.79999999999995</ele><time>2026-04-19T09:15:00Z</time></trkpt><trkpt lat="44.84499194684409" lon="7.93080095508489"><ele>340.20000000000005</ele><time>2026-04-19T09:15:01Z</time></trkpt><trkpt lat="44.845052298625916" lon="7.93071217505367"><ele>340.6</ele><time>2026-04-19T09:15:02Z</time></trkpt><trkpt lat="44.84507617317622" lon="7.930597786359772"><ele>341.0</ele><time>2026-04-19T09:15:03Z</time></trkpt><trkpt lat="44.84505921174272" lon="7.9304614698643325"><ele>341.0</ele><time>2026-04-19T09:15:04Z</time></trkpt><trkpt lat="44.84502356934948" lon="7.930311393189538"><ele>341.0</ele><time>2026-04-19T09:15:05Z</time></trkpt><trkpt lat="44.8449568586722" lon="7.9301361004063216"><ele>341.0</ele><time>2026-04-19T09:15:06Z</time></trkpt><trkpt lat="44.84486175268174" lon="7.929927700208954"><ele>341.0</ele><time>2026-04-19T09:15:07Z</time></trkpt><trkpt lat="44.84476581068433" lon="7.929691132562683"><ele>340.33333333333337</ele><time>2026-04-19T09:15:08Z</time></trkpt><trkpt lat="44.84468203522096" lon="7.929452077411963"><ele>339.6666666666667</ele><time>2026-04-19T09:15:09Z</time></trkpt><trkpt lat="44.84462504526339" lon="7.929242967045392"><ele>339.0</ele><time>2026-04-19T09:15:10Z</time></trkpt><trkpt lat="44.84456672342765" lon="7.929051629059967"><ele>338.25</ele><time>2026-04-19T09:15:11Z</time></trkpt><trkpt lat="44.84451040215791" lon="7.928896301217495"><ele>337.5</ele><time>2026-04-19T09:15:12Z</time></trkpt><trkpt lat="44.8444280651808" lon="7.928750530159917"><ele>336.75</ele><time>2026-04-19T09:15:13Z</time></trkpt><trkpt lat="44.8443330080519" lon="7.928584976755577"><ele>336.0</ele><time>2026-04-19T09:15:14Z</time></trkpt><trkpt lat="44.84420929142898" lon="7.92841868780684"><ele>335.0</ele><time>2026-04-19T09:15:15Z</time></trkpt><trkpt lat="44.84407028062704" lon="7.928236320188316"><ele>334.0</ele><time>2026-04-19T09:15:16Z</time></trkpt><trkpt lat="44.84394669793712" lon="7.9280587942831975"><ele>333.0</ele><time>2026-04-19T09:15:17Z</time></trkpt><trkpt lat="44.84381846216445" lon="7.927896285925748"><ele>333.0</ele><time>2026-04-19T09:15:18Z</time></trkpt><trkpt lat="44.84369332520326" lon="7.927758703255774"><ele>333.0</ele><time>2026-04-19T09:15:19Z</time></trkpt><trkpt lat="44.843594865808655" lon="7.927650831110047"><ele>333.0</ele><time>2026-04-19T09:15:20Z</time></trkpt><trkpt lat="44.84351827954321" lon="7.9275336411444375"><ele>333.0</ele><time>2026-04-19T09:15:21Z</time></trkpt><trkpt lat="44.84346406575061" lon="7.927395172035781"><ele>332.25</ele><time>2026-04-19T09:15:22Z</time></trkpt><trkpt lat="44.84343932134979" lon="7.927233315936374"><ele>331.5</ele><time>2026-04-19T09:15:23Z</time></trkpt><trkpt lat="44.84343403791648" lon="7.9270405601074065"><ele>330.75</ele><time>2026-04-19T09:15:24Z</time></trkpt><trkpt lat="44.84345277447902" lon="7.926820444175511"><ele>330.0</ele><time>2026-04-19T09:15:25Z</time></trkpt><trkpt lat="44.84347072823438" lon="7.926620002093236"><ele>329.5</ele><time>2026-04-19T09:15:26Z</time></trkpt><trkpt lat="44.843471838460125" lon="7.926467321670007"><ele>329.0</ele><time>2026-04-19T09:15:27.001Z</time></trkpt><trkpt lat="44.84345456944389" lon="7.926317410136899"><ele>328.5</ele><time>2026-04-19T09:15:28.001Z</time></trkpt><trkpt lat="44.843424003300974" lon="7.926134944438375"><ele>328.0</ele><time>2026-04-19T09:15:29.001Z</time></trkpt><trkpt lat="44.84336687258366" lon="7.92592974322735"><ele>325.66666666666663</ele><time>2026-04-19T09:15:30.001Z</time></trkpt><trkpt lat="44.843288633251376" lon="7.925745946030632"><ele>323.3333333333333</ele><time>2026-04-19T09:15:31.001Z</time></trkpt><trkpt lat="44.84319548184688" lon="7.925585055908222"><ele>321.0</ele><time>2026-04-19T09:15:32.001Z</time></trkpt><trkpt lat="44.843066804778715" lon="7.925444780821006"><ele>321.0</ele><time>2026-04-19T09:15:33.001Z</time></trkpt><trkpt lat="44.84292599397029" lon="7.925308480908675"><ele>321.0</ele><time>2026-04-19T09:15:34.001Z</time></trkpt><trkpt lat="44.842825090443334" lon="7.925184794740318"><ele>321.0</ele><time>2026-04-19T09:15:35.001Z</time></trkpt><trkpt lat="44.842757472409346" lon="7.925077257560846"><ele>321.0</ele><time>2026-04-19T09:15:36.001Z</time></trkpt><trkpt lat="44.842711066461234" lon="7.92496062986804"><ele>320.6</ele><time>2026-04-19T09:15:37.001Z</time></trkpt><trkpt lat="44.84268869091827" lon="7.924828948401617"><ele>320.20000000000005</ele><time>2026-04-19T09:15:38.001Z</time></trkpt><trkpt lat="44.84268770085537" lon="7.924690057668998"><ele>319.79999999999995</ele><time>2026-04-19T09:15:39.001Z</time></trkpt><trkpt lat="44.842717846563296" lon="7.924556287442412"><ele>319.4</ele><time>2026-04-19T09:15:40.001Z</time></trkpt><trkpt lat="44.84278284643384" lon="7.92439204715731"><ele>319.0</ele><time>2026-04-19T09:15:41.001Z</time></trkpt><trkpt lat="44.84288550760142" lon="7.924230535156447"><ele>319.3333333333333</ele><time>2026-04-19T09:15:42.001Z</time></trkpt><trkpt lat="44.84299141337612" lon="7.924043944345794"><ele>319.6666666666667</ele><time>2026-04-19T09:15:43.001Z</time></trkpt><trkpt lat="44.843059391171096" lon="7.923847186050761"><ele>320.0</ele><time>2026-04-19T09:15:44.001Z</time></trkpt><trkpt lat="44.843104599645606" lon="7.923619280169816"><ele>320.0</ele><time>2026-04-19T09:15:45.001Z</time></trkpt><trkpt lat="44.84313092014158" lon="7.923398749641755"><ele>320.0</ele><time>2026-04-19T09:15:46.001Z</time></trkpt><trkpt lat="44.843129514485234" lon="7.9231754564322925"><ele>320.0</ele><time>2026-04-19T09:15:47.001Z</time></trkpt><trkpt lat="44.843115984978546" lon="7.922941202271584"><ele>320.6666666666667</ele><time>2026-04-19T09:15:48.001Z</time></trkpt><trkpt lat="44.84309436361861" lon="7.922699730472706"><ele>321.3333333333333</ele><time>2026-04-19T09:15:49.001Z</time></trkpt><trkpt lat="44.84309382564487" lon="7.922477920194814"><ele>322.0</ele><time>2026-04-19T09:15:50.001Z</time></trkpt><trkpt lat="44.84311459946567" lon="7.922308915610112"><ele>322.75</ele><time>2026-04-19T09:15:51.001Z</time></trkpt><trkpt lat="44.84315518706778" lon="7.922157402136579"><ele>323.5</ele><time>2026-04-19T09:15:52.001Z</time></trkpt><trkpt lat="44.84322511010846" lon="7.922009661163605"><ele>324.25</ele><time>2026-04-19T09:15:53.001Z</time></trkpt><trkpt lat="44.843334477241044" lon="7.921850432131707"><ele>325.0</ele><time>2026-04-19T09:15:54.001Z</time></trkpt><trkpt lat="44.843469067354526" lon="7.921695415517295"><ele>325.3333333333333</ele><time>2026-04-19T09:15:55.001Z</time></trkpt><trkpt lat="44.84361548755572" lon="7.9215348340349525"><ele>325.6666666666667</ele><time>2026-04-19T09:15:56.001Z</time></trkpt><trkpt lat="44.84377137160808" lon="7.921372681007879"><ele>326.0</ele><time>2026-04-19T09:15:57.001Z</time></trkpt><trkpt lat="44.84393317220993" lon="7.921185080006152"><ele>326.0</ele><time>2026-04-19T09:15:58.001Z</time></trkpt><trkpt lat="44.844102344265906" lon="7.920973997613809"><ele>326.0</ele><time>2026-04-19T09:15:59.001Z</time></trkpt><trkpt lat="44.84427754059318" lon="7.9207655781408715"><ele>323.0</ele><time>2026-04-19T09:16:00.001Z</time></trkpt><trkpt lat="44.844455904143075" lon="7.920558415271768"><ele>320.0</ele><time>2026-04-19T09:16:01.001Z</time></trkpt><trkpt lat="44.84464359955502" lon="7.920355122429152"><ele>320.0</ele><time>2026-04-19T09:16:02.001Z</time></trkpt><trkpt lat="44.84482953622184" lon="7.920152080335907"><ele>320.0</ele><time>2026-04-19T09:16:03.001Z</time></trkpt><trkpt lat="44.845010734051165" lon="7.919951401815876"><ele>319.33333333333337</ele><time>2026-04-19T09:16:04.001Z</time></trkpt><trkpt lat="44.84518560702848" lon="7.919752239138239"><ele>318.6666666666667</ele><time>2026-04-19T09:16:05.001Z</time></trkpt><trkpt lat="44.84534105016119" lon="7.919568265479757"><ele>318.0</ele><time>2026-04-19T09:16:06.001Z</time></trkpt><trkpt lat="44.84549214510172" lon="7.919404146953931"><ele>318.0</ele><time>2026-04-19T09:16:07.001Z</time></trkpt><trkpt lat="44.845626720188704" lon="7.919242269917136"><ele>318.0</ele><time>2026-04-19T09:16:08.001Z</time></trkpt><trkpt lat="44.845753243682324" lon="7.919070905150814"><ele>318.0</ele><time>2026-04-19T09:16:09.001Z</time></trkpt><trkpt lat="44.84586307599328" lon="7.918855957695152"><ele>317.0</ele><time>2026-04-19T09:16:10.001Z</time></trkpt><trkpt lat="44.84596469875502" lon="7.918602496742194"><ele>316.0</ele><time>2026-04-19T09:16:11.001Z</time></trkpt><trkpt lat="44.84606631400873" lon="7.918331686037597"><ele>315.0</ele><time>2026-04-19T09:16:12.001Z</time></trkpt><trkpt lat="44.84617791270365" lon="7.918062372242427"><ele>315.0</ele><time>2026-04-19T09:16:13.001Z</time></trkpt><trkpt lat="44.846299870321616" lon="7.91779631409356"><ele>315.0</ele><time>2026-04-19T09:16:14.001Z</time></trkpt><trkpt lat="44.84640931983738" lon="7.917553297520546"><ele>315.0</ele><time>2026-04-19T09:16:15.001Z</time></trkpt><trkpt lat="44.84650051994551" lon="7.91733208960025"><ele>315.5</ele><time>2026-04-19T09:16:16.001Z</time></trkpt><trkpt lat="44.84658428551359" lon="7.917155635051319"><ele>316.0</ele><time>2026-04-19T09:16:17.001Z</time></trkpt><trkpt lat="44.84668484394734" lon="7.91703452113114"><ele>316.5</ele><time>2026-04-19T09:16:18.001Z</time></trkpt><trkpt lat="44.84679177692646" lon="7.916946758365398"><ele>317.0</ele><time>2026-04-19T09:16:19.001Z</time></trkpt><trkpt lat="44.846909791279174" lon="7.916866511799289"><ele>316.25</ele><time>2026-04-19T09:16:20.001Z</time></trkpt><trkpt lat="44.84703567750216" lon="7.91677939815997"><ele>315.5</ele><time>2026-04-19T09:16:21.001Z</time></trkpt><trkpt lat="44.847133425203154" lon="7.916707144752002"><ele>314.75</ele><time>2026-04-19T09:16:22.001Z</time></trkpt><trkpt lat="44.84721096147256" lon="7.916651581406468"><ele>314.0</ele><time>2026-04-19T09:16:23.001Z</time></trkpt><trkpt lat="44.84728002427649" lon="7.916474168698189"><ele>314.0</ele><time>2026-04-19T09:16:25.001Z</time></trkpt><trkpt lat="44.84728451139687" lon="7.9163302584718815"><ele>314.0</ele><time>2026-04-19T09:16:26.001Z</time></trkpt><trkpt lat="44.8472830741091" lon="7.916143921623815"><ele>314.0</ele><time>2026-04-19T09:16:27Z</time></trkpt><trkpt lat="44.847329635987876" lon="7.915971478421123"><ele>314.0</ele><time>2026-04-19T09:16:28Z</time></trkpt><trkpt lat="44.847365758377315" lon="7.915744169508354"><ele>314.0</ele><time>2026-04-19T09:16:29Z</time></trkpt><trkpt lat="44.84743971476131" lon="7.915527973879102"><ele>314.0</ele><time>2026-04-19T09:16:30Z</time></trkpt><trkpt lat="44.847507173264724" lon="7.915293268375778"><ele>314.0</ele><time>2026-04-19T09:16:31Z</time></trkpt><trkpt lat="44.84757408043959" lon="7.915092966257194"><ele>313.25</ele><time>2026-04-19T09:16:32Z</time></trkpt><trkpt lat="44.84764194728092" lon="7.914935531770167"><ele>312.5</ele><time>2026-04-19T09:16:33Z</time></trkpt><trkpt lat="44.84773446919717" lon="7.914798884766469"><ele>311.75</ele><time>2026-04-19T09:16:34Z</time></trkpt><trkpt lat="44.847865455690446" lon="7.9147182462683805"><ele>311.0</ele><time>2026-04-19T09:16:35Z</time></trkpt><trkpt lat="44.848024279664365" lon="7.914647091004203"><ele>311.0</ele><time>2026-04-19T09:16:36Z</time></trkpt><trkpt lat="44.84819599834698" lon="7.914572930761161"><ele>311.0</ele><time>2026-04-19T09:16:37Z</time></trkpt><trkpt lat="44.84837194364491" lon="7.914496819284397"><ele>311.0</ele><time>2026-04-19T09:16:38Z</time></trkpt><trkpt lat="44.848556185581536" lon="7.91441496771902"><ele>310.0</ele><time>2026-04-19T09:16:39Z</time></trkpt><trkpt lat="44.84873460960711" lon="7.9143347559088735"><ele>309.0</ele><time>2026-04-19T09:16:40Z</time></trkpt><trkpt lat="44.84889749135435" lon="7.9142660682439825"><ele>308.0</ele><time>2026-04-19T09:16:41Z</time></trkpt><trkpt lat="44.84903302827799" lon="7.91420538836494"><ele>308.0</ele><time>2026-04-19T09:16:42Z</time></trkpt><trkpt lat="44.84915379093103" lon="7.9141451432163485"><ele>308.0</ele><time>2026-04-19T09:16:43Z</time></trkpt><trkpt lat="44.8492591666548" lon="7.914040785379719"><ele>308.0</ele><time>2026-04-19T09:16:44Z</time></trkpt><trkpt lat="44.84933143767937" lon="7.913876982852655"><ele>308.0</ele><time>2026-04-19T09:16:45Z</time></trkpt><trkpt lat="44.849397384425416" lon="7.913684647105356"><ele>306.6666666666667</ele><time>2026-04-19T09:16:46Z</time></trkpt><trkpt lat="44.84948037510993" lon="7.913476423537323"><ele>305.3333333333333</ele><time>2026-04-19T09:16:47Z</time></trkpt><trkpt lat="44.84955598784766" lon="7.9132473028328025"><ele>304.0</ele><time>2026-04-19T09:16:48Z</time></trkpt><trkpt lat="44.84963413960592" lon="7.913012505553317"><ele>304.0</ele><time>2026-04-19T09:16:49Z</time></trkpt><trkpt lat="44.8497017981635" lon="7.912757254954967"><ele>304.0</ele><time>2026-04-19T09:16:50Z</time></trkpt><trkpt lat="44.84978577393307" lon="7.912515000339122"><ele>304.0</ele><time>2026-04-19T09:16:51Z</time></trkpt><trkpt lat="44.84986142625939" lon="7.91229346709961"><ele>303.25</ele><time>2026-04-19T09:16:52Z</time></trkpt><trkpt lat="44.8499628517058" lon="7.912113611238207"><ele>302.5</ele><time>2026-04-19T09:16:53Z</time></trkpt><trkpt lat="44.85004776414256" lon="7.91193634826985"><ele>301.75</ele><time>2026-04-19T09:16:54Z</time></trkpt><trkpt lat="44.850130269655004" lon="7.911787797828152"><ele>301.0</ele><time>2026-04-19T09:16:55Z</time></trkpt><trkpt lat="44.85020233298086" lon="7.911669774083224"><ele>299.6</ele><time>2026-04-19T09:16:56Z</time></trkpt><trkpt lat="44.85028175322835" lon="7.911587560924942"><ele>298.20000000000005</ele><time>2026-04-19T09:16:57Z</time></trkpt><trkpt lat="44.85037063763723" lon="7.911561865399878"><ele>296.79999999999995</ele><time>2026-04-19T09:16:58Z</time></trkpt><trkpt lat="44.85047757796029" lon="7.911559800638721"><ele>295.4</ele><time>2026-04-19T09:16:59Z</time></trkpt><trkpt lat="44.85061109607641" lon="7.91156340774624"><ele>294.0</ele><time>2026-04-19T09:17:00Z</time></trkpt><trkpt lat="44.85075752945309" lon="7.911566044665811"><ele>294.0</ele><time>2026-04-19T09:17:01Z</time></trkpt><trkpt lat="44.85088371344684" lon="7.911561108287078"><ele>294.0</ele><time>2026-04-19T09:17:02Z</time></trkpt><trkpt lat="44.85097178786057" lon="7.911555136974158"><ele>294.0</ele><time>2026-04-19T09:17:03Z</time></trkpt><trkpt lat="44.85105114935941" lon="7.911482207523593"><ele>294.0</ele><time>2026-04-19T09:17:04Z</time></trkpt><trkpt lat="44.85107634622216" lon="7.911338920233784"><ele>294.0</ele><time>2026-04-19T09:17:05Z</time></trkpt><trkpt lat="44.85107479305976" lon="7.911209387105664"><ele>290.6666666666667</ele><time>2026-04-19T09:17:06Z</time></trkpt><trkpt lat="44.85102055113163" lon="7.911086599280577"><ele>287.33333333333337</ele><time>2026-04-19T09:17:07Z</time></trkpt><trkpt lat="44.85096770604287" lon="7.910997007229306"><ele>284.0</ele><time>2026-04-19T09:17:08Z</time></trkpt><trkpt lat="44.851116071998256" lon="7.911657645068578"><ele>284.0</ele><time>2026-04-19T09:17:13Z</time></trkpt><trkpt lat="44.851174331983266" lon="7.9116924990709325"><ele>284.0</ele><time>2026-04-19T09:17:14Z</time></trkpt><trkpt lat="44.851086205707574" lon="7.911130736354242"><ele>284.0</ele><time>2026-04-19T09:17:15Z</time></trkpt><trkpt lat="44.85123804913944" lon="7.911206981244674"><ele>284.0</ele><time>2026-04-19T09:17:18Z</time></trkpt><trkpt lat="44.85120386129243" lon="7.911286473079317"><ele>284.0</ele><time>2026-04-19T09:20:11.001Z</time></trkpt><trkpt lat="44.85119933737917" lon="7.91119774607198"><ele>284.0</ele><time>2026-04-19T09:20:13.001Z</time></trkpt><trkpt lat="44.85115021773273" lon="7.9111376841655"><ele>284.0</ele><time>2026-04-19T09:21:05Z</time></trkpt><trkpt lat="44.851108982753" lon="7.911294333119644"><ele>284.0</ele><time>2026-04-19T09:21:26Z</time></trkpt><trkpt lat="44.851108982753" lon="7.911294333119644"><ele>284.0</ele><time>2026-04-19T09:21:26Z</time></trkpt><trkpt lat="44.851108982753" lon="7.911294333119644"><ele>284.0</ele><time>2026-04-19T09:21:26Z</time></trkpt><trkpt lat="44.851108982753" lon="7.911294333119644"><ele>284.0</ele><time>2026-04-19T09:21:26Z</time></trkpt><trkpt lat="44.851108982753" lon="7.911294333119644"><ele>284.0</ele><time>2026-04-19T09:21:26Z</time></trkpt><trkpt lat="44.851108982753" lon="7.911294333119644"><ele>284.0</ele><time>2026-04-19T09:21:26Z</time></trkpt><trkpt lat="44.851108982753" lon="7.911294333119644"><ele>284.0</ele><time>2026-04-19T09:21:26Z</time></trkpt><trkpt lat="44.851108982753" lon="7.911294333119644"><ele>284.0</ele><time>2026-04-19T09:21:26Z</time></trkpt><trkpt lat="44.851108982753" lon="7.911294333119644"><ele>284.0</ele><time>2026-04-19T09:21:26Z</time></trkpt><trkpt lat="44.851108982753" lon="7.911294333119644"><ele>284.0</ele><time>2026-04-19T09:21:26Z</time></trkpt><trkpt lat="44.851108982753" lon="7.911294333119644"><ele>284.0</ele><time>2026-04-19T09:21:26Z</time></trkpt><trkpt lat="44.851108982753" lon="7.911294333119644"><ele>284.0</ele><time>2026-04-19T09:21:26Z</time></trkpt><trkpt lat="44.851108982753" lon="7.911294333119644"><ele>284.0</ele><time>2026-04-19T09:21:26Z</time></trkpt><trkpt lat="44.851108982753" lon="7.911294333119644"><ele>284.0</ele><time>2026-04-19T09:21:26Z</time></trkpt><trkpt lat="44.851108982753" lon="7.911294333119644"><ele>284.0</ele><time>2026-04-19T09:21:26Z</time></trkpt></trkseg></trk></gpx>